<?xml version="1.0" encoding="UTF-8"?>
<TrainingCenterDatabase xmlns="http://www.garmin.com/xmlschemas/TrainingCenterDatabase/v2" xmlns:xsi="http://www.w3.org/2001/XMLSchema-instance" xsi:schemaLocation="http://www.garmin.com/xmlschemas/TrainingCenterDatabase/v2 http://www.garmin.com/xmlschemas/TrainingCenterDatabasev2.xsd">
  <Activities>
    <Activity Sport="Other">
      <Id>2021-08-28T05:28:08.000Z</Id>
      <Lap StartTime="2021-08-28T05:28:08.000Z">
        <TotalTimeSeconds>13228</TotalTimeSeconds>
        <DistanceMeters>99040</DistanceMeters>
        <Track>
          <Trackpoint>
            <Time>2021-08-28T05:28:08.000Z</Time>
            <Position>
              <LatitudeDegrees>38.18505632691085338592529296875</LatitudeDegrees>
              <LongitudeDegrees>-1.8905885517597198486328125</LongitudeDegrees>
            </Position>
            <AltitudeMeters>657.5999755859375</AltitudeMeters>
            <DistanceMeters>0</DistanceMeters>
          </Trackpoint>
          <Trackpoint>
            <Time>2021-08-28T05:28:15.000Z</Time>
            <Position>
              <LatitudeDegrees>38.1847477890551090240478515625</LatitudeDegrees>
              <LongitudeDegrees>-1.89061881043016910552978515625</LongitudeDegrees>
            </Position>
            <AltitudeMeters>657.79998779296875</AltitudeMeters>
            <DistanceMeters>34.442825561712</DistanceMeters>
          </Trackpoint>
          <Trackpoint>
            <Time>2021-08-28T05:28:22.000Z</Time>
            <Position>
              <LatitudeDegrees>38.1843682564795017242431640625</LatitudeDegrees>
              <LongitudeDegrees>-1.89064311794936656951904296875</LongitudeDegrees>
            </Position>
            <AltitudeMeters>657.5999755859375</AltitudeMeters>
            <DistanceMeters>76.739001564646</DistanceMeters>
          </Trackpoint>
          <Trackpoint>
            <Time>2021-08-28T05:28:27.000Z</Time>
            <Position>
              <LatitudeDegrees>38.18388084881007671356201171875</LatitudeDegrees>
              <LongitudeDegrees>-1.8907499872148036956787109375</LongitudeDegrees>
            </Position>
            <AltitudeMeters>656.20001220703125</AltitudeMeters>
            <DistanceMeters>131.78810104725</DistanceMeters>
          </Trackpoint>
          <Trackpoint>
            <Time>2021-08-28T05:28:31.000Z</Time>
            <Position>
              <LatitudeDegrees>38.18352478556334972381591796875</LatitudeDegrees>
              <LongitudeDegrees>-1.89078611321747303009033203125</LongitudeDegrees>
            </Position>
            <AltitudeMeters>655.20001220703125</AltitudeMeters>
            <DistanceMeters>171.5444892169</DistanceMeters>
          </Trackpoint>
          <Trackpoint>
            <Time>2021-08-28T05:28:33.000Z</Time>
            <Position>
              <LatitudeDegrees>38.183345831930637359619140625</LatitudeDegrees>
              <LongitudeDegrees>-1.8907999433577060699462890625</LongitudeDegrees>
            </Position>
            <AltitudeMeters>654.5999755859375</AltitudeMeters>
            <DistanceMeters>191.49919419776</DistanceMeters>
          </Trackpoint>
          <Trackpoint>
            <Time>2021-08-28T05:28:34.000Z</Time>
            <Position>
              <LatitudeDegrees>38.1832534633576869964599609375</LatitudeDegrees>
              <LongitudeDegrees>-1.8908049724996089935302734375</LongitudeDegrees>
            </Position>
            <AltitudeMeters>654</AltitudeMeters>
            <DistanceMeters>201.78931938562</DistanceMeters>
          </Trackpoint>
          <Trackpoint>
            <Time>2021-08-28T05:28:38.000Z</Time>
            <Position>
              <LatitudeDegrees>38.182865716516971588134765625</LatitudeDegrees>
              <LongitudeDegrees>-1.89084227196872234344482421875</LongitudeDegrees>
            </Position>
            <AltitudeMeters>653.20001220703125</AltitudeMeters>
            <DistanceMeters>245.06937180281</DistanceMeters>
          </Trackpoint>
          <Trackpoint>
            <Time>2021-08-28T05:28:39.000Z</Time>
            <Position>
              <LatitudeDegrees>38.18276890553534030914306640625</LatitudeDegrees>
              <LongitudeDegrees>-1.8908272683620452880859375</LongitudeDegrees>
            </Position>
            <AltitudeMeters>653.20001220703125</AltitudeMeters>
            <DistanceMeters>255.92448430878</DistanceMeters>
          </Trackpoint>
          <Trackpoint>
            <Time>2021-08-28T05:28:40.000Z</Time>
            <Position>
              <LatitudeDegrees>38.18266916088759899139404296875</LatitudeDegrees>
              <LongitudeDegrees>-1.8907979317009449005126953125</LongitudeDegrees>
            </Position>
            <AltitudeMeters>652.5999755859375</AltitudeMeters>
            <DistanceMeters>267.31897592145</DistanceMeters>
          </Trackpoint>
          <Trackpoint>
            <Time>2021-08-28T05:28:41.000Z</Time>
            <Position>
              <LatitudeDegrees>38.1825743615627288818359375</LatitudeDegrees>
              <LongitudeDegrees>-1.8907429464161396026611328125</LongitudeDegrees>
            </Position>
            <AltitudeMeters>652.20001220703125</AltitudeMeters>
            <DistanceMeters>278.91496093036</DistanceMeters>
          </Trackpoint>
          <Trackpoint>
            <Time>2021-08-28T05:28:42.000Z</Time>
            <Position>
              <LatitudeDegrees>38.18248517811298370361328125</LatitudeDegrees>
              <LongitudeDegrees>-1.8906735442578792572021484375</LongitudeDegrees>
            </Position>
            <AltitudeMeters>651.79998779296875</AltitudeMeters>
            <DistanceMeters>290.55136915099</DistanceMeters>
          </Trackpoint>
          <Trackpoint>
            <Time>2021-08-28T05:28:43.000Z</Time>
            <Position>
              <LatitudeDegrees>38.18240228109061717987060546875</LatitudeDegrees>
              <LongitudeDegrees>-1.89059349708259105682373046875</LongitudeDegrees>
            </Position>
            <AltitudeMeters>651.4000244140625</AltitudeMeters>
            <DistanceMeters>302.13488786858</DistanceMeters>
          </Trackpoint>
          <Trackpoint>
            <Time>2021-08-28T05:28:44.000Z</Time>
            <Position>
              <LatitudeDegrees>38.18232156336307525634765625</LatitudeDegrees>
              <LongitudeDegrees>-1.89050833694636821746826171875</LongitudeDegrees>
            </Position>
            <AltitudeMeters>651</AltitudeMeters>
            <DistanceMeters>313.80655155606</DistanceMeters>
          </Trackpoint>
          <Trackpoint>
            <Time>2021-08-28T05:28:46.000Z</Time>
            <Position>
              <LatitudeDegrees>38.182169683277606964111328125</LatitudeDegrees>
              <LongitudeDegrees>-1.89033533446490764617919921875</LongitudeDegrees>
            </Position>
            <AltitudeMeters>650</AltitudeMeters>
            <DistanceMeters>336.49705261992</DistanceMeters>
          </Trackpoint>
          <Trackpoint>
            <Time>2021-08-28T05:28:47.000Z</Time>
            <Position>
              <LatitudeDegrees>38.1820950843393802642822265625</LatitudeDegrees>
              <LongitudeDegrees>-1.8902510963380336761474609375</LongitudeDegrees>
            </Position>
            <AltitudeMeters>649.79998779296875</AltitudeMeters>
            <DistanceMeters>347.59932911891</DistanceMeters>
          </Trackpoint>
          <Trackpoint>
            <Time>2021-08-28T05:28:52.000Z</Time>
            <Position>
              <LatitudeDegrees>38.18177984096109867095947265625</LatitudeDegrees>
              <LongitudeDegrees>-1.88982688821852207183837890625</LongitudeDegrees>
            </Position>
            <AltitudeMeters>649.79998779296875</AltitudeMeters>
            <DistanceMeters>398.67316040786</DistanceMeters>
          </Trackpoint>
          <Trackpoint>
            <Time>2021-08-28T05:28:53.000Z</Time>
            <Position>
              <LatitudeDegrees>38.18174086511135101318359375</LatitudeDegrees>
              <LongitudeDegrees>-1.88973770476877689361572265625</LongitudeDegrees>
            </Position>
            <AltitudeMeters>650.20001220703125</AltitudeMeters>
            <DistanceMeters>407.60061551524</DistanceMeters>
          </Trackpoint>
          <Trackpoint>
            <Time>2021-08-28T05:28:54.000Z</Time>
            <Position>
              <LatitudeDegrees>38.18171136081218719482421875</LatitudeDegrees>
              <LongitudeDegrees>-1.8896435759961605072021484375</LongitudeDegrees>
            </Position>
            <AltitudeMeters>650.4000244140625</AltitudeMeters>
            <DistanceMeters>416.46615471871</DistanceMeters>
          </Trackpoint>
          <Trackpoint>
            <Time>2021-08-28T05:28:55.000Z</Time>
            <Position>
              <LatitudeDegrees>38.181693591177463531494140625</LatitudeDegrees>
              <LongitudeDegrees>-1.889549195766448974609375</LongitudeDegrees>
            </Position>
            <AltitudeMeters>650.4000244140625</AltitudeMeters>
            <DistanceMeters>424.9570987374</DistanceMeters>
          </Trackpoint>
          <Trackpoint>
            <Time>2021-08-28T05:28:56.000Z</Time>
            <Position>
              <LatitudeDegrees>38.1816870532929897308349609375</LatitudeDegrees>
              <LongitudeDegrees>-1.88945774920284748077392578125</LongitudeDegrees>
            </Position>
            <AltitudeMeters>650.4000244140625</AltitudeMeters>
            <DistanceMeters>432.99008860845</DistanceMeters>
          </Trackpoint>
          <Trackpoint>
            <Time>2021-08-28T05:29:00.000Z</Time>
            <Position>
              <LatitudeDegrees>38.18167573772370815277099609375</LatitudeDegrees>
              <LongitudeDegrees>-1.8891161866486072540283203125</LongitudeDegrees>
            </Position>
            <AltitudeMeters>651</AltitudeMeters>
            <DistanceMeters>462.89966204364</DistanceMeters>
          </Trackpoint>
          <Trackpoint>
            <Time>2021-08-28T05:29:01.000Z</Time>
            <Position>
              <LatitudeDegrees>38.18167288787662982940673828125</LatitudeDegrees>
              <LongitudeDegrees>-1.8890404142439365386962890625</LongitudeDegrees>
            </Position>
            <AltitudeMeters>651.20001220703125</AltitudeMeters>
            <DistanceMeters>469.53658248113</DistanceMeters>
          </Trackpoint>
          <Trackpoint>
            <Time>2021-08-28T05:29:05.000Z</Time>
            <Position>
              <LatitudeDegrees>38.18168981932103633880615234375</LatitudeDegrees>
              <LongitudeDegrees>-1.88877730630338191986083984375</LongitudeDegrees>
            </Position>
            <AltitudeMeters>651.5999755859375</AltitudeMeters>
            <DistanceMeters>492.63296176125</DistanceMeters>
          </Trackpoint>
          <Trackpoint>
            <Time>2021-08-28T05:29:07.000Z</Time>
            <Position>
              <LatitudeDegrees>38.18169568665325641632080078125</LatitudeDegrees>
              <LongitudeDegrees>-1.8886506557464599609375</LongitudeDegrees>
            </Position>
            <AltitudeMeters>651.79998779296875</AltitudeMeters>
            <DistanceMeters>503.73279793127</DistanceMeters>
          </Trackpoint>
          <Trackpoint>
            <Time>2021-08-28T05:29:10.000Z</Time>
            <Position>
              <LatitudeDegrees>38.18169057369232177734375</LatitudeDegrees>
              <LongitudeDegrees>-1.88845460303127765655517578125</LongitudeDegrees>
            </Position>
            <AltitudeMeters>652.4000244140625</AltitudeMeters>
            <DistanceMeters>520.89505400234</DistanceMeters>
          </Trackpoint>
          <Trackpoint>
            <Time>2021-08-28T05:29:14.000Z</Time>
            <Position>
              <LatitudeDegrees>38.181676827371120452880859375</LatitudeDegrees>
              <LongitudeDegrees>-1.88818554393947124481201171875</LongitudeDegrees>
            </Position>
            <AltitudeMeters>653</AltitudeMeters>
            <DistanceMeters>544.48465829709</DistanceMeters>
          </Trackpoint>
          <Trackpoint>
            <Time>2021-08-28T05:29:15.000Z</Time>
            <Position>
              <LatitudeDegrees>38.1816753186285495758056640625</LatitudeDegrees>
              <LongitudeDegrees>-1.8881147168576717376708984375</LongitudeDegrees>
            </Position>
            <AltitudeMeters>653.20001220703125</AltitudeMeters>
            <DistanceMeters>550.68328518286</DistanceMeters>
          </Trackpoint>
          <Trackpoint>
            <Time>2021-08-28T05:29:16.000Z</Time>
            <Position>
              <LatitudeDegrees>38.18167422898113727569580078125</LatitudeDegrees>
              <LongitudeDegrees>-1.888041794300079345703125</LongitudeDegrees>
            </Position>
            <AltitudeMeters>653.4000244140625</AltitudeMeters>
            <DistanceMeters>557.06353475552</DistanceMeters>
          </Trackpoint>
          <Trackpoint>
            <Time>2021-08-28T05:29:20.000Z</Time>
            <Position>
              <LatitudeDegrees>38.181668780744075775146484375</LatitudeDegrees>
              <LongitudeDegrees>-1.887735687196254730224609375</LongitudeDegrees>
            </Position>
            <AltitudeMeters>653.5999755859375</AltitudeMeters>
            <DistanceMeters>583.85146272266</DistanceMeters>
          </Trackpoint>
          <Trackpoint>
            <Time>2021-08-28T05:29:21.000Z</Time>
            <Position>
              <LatitudeDegrees>38.18166970275342464447021484375</LatitudeDegrees>
              <LongitudeDegrees>-1.887652538716793060302734375</LongitudeDegrees>
            </Position>
            <AltitudeMeters>653.79998779296875</AltitudeMeters>
            <DistanceMeters>591.12705947581</DistanceMeters>
          </Trackpoint>
          <Trackpoint>
            <Time>2021-08-28T05:29:26.000Z</Time>
            <Position>
              <LatitudeDegrees>38.1816427968442440032958984375</LatitudeDegrees>
              <LongitudeDegrees>-1.88723436556756496429443359375</LongitudeDegrees>
            </Position>
            <AltitudeMeters>653.5999755859375</AltitudeMeters>
            <DistanceMeters>627.83517938304</DistanceMeters>
          </Trackpoint>
          <Trackpoint>
            <Time>2021-08-28T05:29:28.000Z</Time>
            <Position>
              <LatitudeDegrees>38.18163198418915271759033203125</LatitudeDegrees>
              <LongitudeDegrees>-1.88705566339194774627685546875</LongitudeDegrees>
            </Position>
            <AltitudeMeters>653.4000244140625</AltitudeMeters>
            <DistanceMeters>643.51573905075</DistanceMeters>
          </Trackpoint>
          <Trackpoint>
            <Time>2021-08-28T05:29:30.000Z</Time>
            <Position>
              <LatitudeDegrees>38.18161102943122386932373046875</LatitudeDegrees>
              <LongitudeDegrees>-1.88687394373118877410888671875</LongitudeDegrees>
            </Position>
            <AltitudeMeters>653.20001220703125</AltitudeMeters>
            <DistanceMeters>659.58452885703</DistanceMeters>
          </Trackpoint>
          <Trackpoint>
            <Time>2021-08-28T05:29:31.000Z</Time>
            <Position>
              <LatitudeDegrees>38.18158797919750213623046875</LatitudeDegrees>
              <LongitudeDegrees>-1.88678744249045848846435546875</LongitudeDegrees>
            </Position>
            <AltitudeMeters>653.20001220703125</AltitudeMeters>
            <DistanceMeters>667.57525288776</DistanceMeters>
          </Trackpoint>
          <Trackpoint>
            <Time>2021-08-28T05:29:32.000Z</Time>
            <Position>
              <LatitudeDegrees>38.18155637942254543304443359375</LatitudeDegrees>
              <LongitudeDegrees>-1.88670362345874309539794921875</LongitudeDegrees>
            </Position>
            <AltitudeMeters>653.20001220703125</AltitudeMeters>
            <DistanceMeters>675.70767441369</DistanceMeters>
          </Trackpoint>
          <Trackpoint>
            <Time>2021-08-28T05:29:37.000Z</Time>
            <Position>
              <LatitudeDegrees>38.1813501007854938507080078125</LatitudeDegrees>
              <LongitudeDegrees>-1.88631185330450534820556640625</LongitudeDegrees>
            </Position>
            <AltitudeMeters>652.4000244140625</AltitudeMeters>
            <DistanceMeters>716.96240369237</DistanceMeters>
          </Trackpoint>
          <Trackpoint>
            <Time>2021-08-28T05:29:40.000Z</Time>
            <Position>
              <LatitudeDegrees>38.18119444884359836578369140625</LatitudeDegrees>
              <LongitudeDegrees>-1.88611638732254505157470703125</LongitudeDegrees>
            </Position>
            <AltitudeMeters>652.4000244140625</AltitudeMeters>
            <DistanceMeters>741.30556980852</DistanceMeters>
          </Trackpoint>
          <Trackpoint>
            <Time>2021-08-28T05:29:44.000Z</Time>
            <Position>
              <LatitudeDegrees>38.18098892457783222198486328125</LatitudeDegrees>
              <LongitudeDegrees>-1.8858616612851619720458984375</LongitudeDegrees>
            </Position>
            <AltitudeMeters>652.5999755859375</AltitudeMeters>
            <DistanceMeters>773.24218099924</DistanceMeters>
          </Trackpoint>
          <Trackpoint>
            <Time>2021-08-28T05:29:49.000Z</Time>
            <Position>
              <LatitudeDegrees>38.1807305105030536651611328125</LatitudeDegrees>
              <LongitudeDegrees>-1.88554189167916774749755859375</LongitudeDegrees>
            </Position>
            <AltitudeMeters>652.79998779296875</AltitudeMeters>
            <DistanceMeters>813.36641643177</DistanceMeters>
          </Trackpoint>
          <Trackpoint>
            <Time>2021-08-28T05:29:50.000Z</Time>
            <Position>
              <LatitudeDegrees>38.18067879416048526763916015625</LatitudeDegrees>
              <LongitudeDegrees>-1.8854760937392711639404296875</LongitudeDegrees>
            </Position>
            <AltitudeMeters>652.79998779296875</AltitudeMeters>
            <DistanceMeters>821.50716154645</DistanceMeters>
          </Trackpoint>
          <Trackpoint>
            <Time>2021-08-28T05:29:53.000Z</Time>
            <Position>
              <LatitudeDegrees>38.180526159703731536865234375</LatitudeDegrees>
              <LongitudeDegrees>-1.88527710735797882080078125</LongitudeDegrees>
            </Position>
            <AltitudeMeters>653.20001220703125</AltitudeMeters>
            <DistanceMeters>845.8317731346</DistanceMeters>
          </Trackpoint>
          <Trackpoint>
            <Time>2021-08-28T05:30:00.000Z</Time>
            <Position>
              <LatitudeDegrees>38.18017303012311458587646484375</LatitudeDegrees>
              <LongitudeDegrees>-1.88482255674898624420166015625</LongitudeDegrees>
            </Position>
            <AltitudeMeters>653.20001220703125</AltitudeMeters>
            <DistanceMeters>901.74576964972</DistanceMeters>
          </Trackpoint>
          <Trackpoint>
            <Time>2021-08-28T05:30:01.000Z</Time>
            <Position>
              <LatitudeDegrees>38.18012349307537078857421875</LatitudeDegrees>
              <LongitudeDegrees>-1.8847572617232799530029296875</LongitudeDegrees>
            </Position>
            <AltitudeMeters>653.20001220703125</AltitudeMeters>
            <DistanceMeters>909.68434027058</DistanceMeters>
          </Trackpoint>
          <Trackpoint>
            <Time>2021-08-28T05:30:02.000Z</Time>
            <Position>
              <LatitudeDegrees>38.1800720281898975372314453125</LatitudeDegrees>
              <LongitudeDegrees>-1.88469179905951023101806640625</LongitudeDegrees>
            </Position>
            <AltitudeMeters>653.20001220703125</AltitudeMeters>
            <DistanceMeters>917.78449677782</DistanceMeters>
          </Trackpoint>
          <Trackpoint>
            <Time>2021-08-28T05:30:07.000Z</Time>
            <Position>
              <LatitudeDegrees>38.17981311120092868804931640625</LatitudeDegrees>
              <LongitudeDegrees>-1.88435442745685577392578125</LongitudeDegrees>
            </Position>
            <AltitudeMeters>653.20001220703125</AltitudeMeters>
            <DistanceMeters>959.03659934268</DistanceMeters>
          </Trackpoint>
          <Trackpoint>
            <Time>2021-08-28T05:30:10.000Z</Time>
            <Position>
              <LatitudeDegrees>38.17965351976454257965087890625</LatitudeDegrees>
              <LongitudeDegrees>-1.88414529897272586822509765625</LongitudeDegrees>
            </Position>
            <AltitudeMeters>653.4000244140625</AltitudeMeters>
            <DistanceMeters>984.53777549573</DistanceMeters>
          </Trackpoint>
          <Trackpoint>
            <Time>2021-08-28T05:30:18.000Z</Time>
            <Position>
              <LatitudeDegrees>38.17924615927040576934814453125</LatitudeDegrees>
              <LongitudeDegrees>-1.8836045823991298675537109375</LongitudeDegrees>
            </Position>
            <AltitudeMeters>653.4000244140625</AltitudeMeters>
            <DistanceMeters>1050.0648794233</DistanceMeters>
          </Trackpoint>
          <Trackpoint>
            <Time>2021-08-28T05:30:20.000Z</Time>
            <Position>
              <LatitudeDegrees>38.17914825864136219024658203125</LatitudeDegrees>
              <LongitudeDegrees>-1.8834681250154972076416015625</LongitudeDegrees>
            </Position>
            <AltitudeMeters>653.5999755859375</AltitudeMeters>
            <DistanceMeters>1066.2289207444</DistanceMeters>
          </Trackpoint>
          <Trackpoint>
            <Time>2021-08-28T05:30:26.000Z</Time>
            <Position>
              <LatitudeDegrees>38.1789035908877849578857421875</LatitudeDegrees>
              <LongitudeDegrees>-1.88301868736743927001953125</LongitudeDegrees>
            </Position>
            <AltitudeMeters>654.4000244140625</AltitudeMeters>
            <DistanceMeters>1114.0603132361</DistanceMeters>
          </Trackpoint>
          <Trackpoint>
            <Time>2021-08-28T05:30:30.000Z</Time>
            <Position>
              <LatitudeDegrees>38.178749866783618927001953125</LatitudeDegrees>
              <LongitudeDegrees>-1.88269036822021007537841796875</LongitudeDegrees>
            </Position>
            <AltitudeMeters>654.20001220703125</AltitudeMeters>
            <DistanceMeters>1147.4954056334</DistanceMeters>
          </Trackpoint>
          <Trackpoint>
            <Time>2021-08-28T05:30:34.000Z</Time>
            <Position>
              <LatitudeDegrees>38.17859237082302570343017578125</LatitudeDegrees>
              <LongitudeDegrees>-1.88236632384359836578369140625</LongitudeDegrees>
            </Position>
            <AltitudeMeters>654.4000244140625</AltitudeMeters>
            <DistanceMeters>1180.8285231889</DistanceMeters>
          </Trackpoint>
          <Trackpoint>
            <Time>2021-08-28T05:30:37.000Z</Time>
            <Position>
              <LatitudeDegrees>38.17847569473087787628173828125</LatitudeDegrees>
              <LongitudeDegrees>-1.88213146291673183441162109375</LongitudeDegrees>
            </Position>
            <AltitudeMeters>654.79998779296875</AltitudeMeters>
            <DistanceMeters>1205.136795077</DistanceMeters>
          </Trackpoint>
          <Trackpoint>
            <Time>2021-08-28T05:30:40.000Z</Time>
            <Position>
              <LatitudeDegrees>38.1783617846667766571044921875</LatitudeDegrees>
              <LongitudeDegrees>-1.88189894892275333404541015625</LongitudeDegrees>
            </Position>
            <AltitudeMeters>654.79998779296875</AltitudeMeters>
            <DistanceMeters>1229.1076487181</DistanceMeters>
          </Trackpoint>
          <Trackpoint>
            <Time>2021-08-28T05:30:44.000Z</Time>
            <Position>
              <LatitudeDegrees>38.1782104074954986572265625</LatitudeDegrees>
              <LongitudeDegrees>-1.88159602694213390350341796875</LongitudeDegrees>
            </Position>
            <AltitudeMeters>654.79998779296875</AltitudeMeters>
            <DistanceMeters>1260.5133668228</DistanceMeters>
          </Trackpoint>
          <Trackpoint>
            <Time>2021-08-28T05:30:50.000Z</Time>
            <Position>
              <LatitudeDegrees>38.17797236144542694091796875</LatitudeDegrees>
              <LongitudeDegrees>-1.88115044496953487396240234375</LongitudeDegrees>
            </Position>
            <AltitudeMeters>655</AltitudeMeters>
            <DistanceMeters>1307.6500655744</DistanceMeters>
          </Trackpoint>
          <Trackpoint>
            <Time>2021-08-28T05:30:53.000Z</Time>
            <Position>
              <LatitudeDegrees>38.17786331288516521453857421875</LatitudeDegrees>
              <LongitudeDegrees>-1.88092463649809360504150390625</LongitudeDegrees>
            </Position>
            <AltitudeMeters>655.4000244140625</AltitudeMeters>
            <DistanceMeters>1330.8371680539</DistanceMeters>
          </Trackpoint>
          <Trackpoint>
            <Time>2021-08-28T05:30:54.000Z</Time>
            <Position>
              <LatitudeDegrees>38.17782542668282985687255859375</LatitudeDegrees>
              <LongitudeDegrees>-1.8808506242930889129638671875</LongitudeDegrees>
            </Position>
            <AltitudeMeters>655.79998779296875</AltitudeMeters>
            <DistanceMeters>1338.5641898248</DistanceMeters>
          </Trackpoint>
          <Trackpoint>
            <Time>2021-08-28T05:31:00.000Z</Time>
            <Position>
              <LatitudeDegrees>38.17759274505078792572021484375</LatitudeDegrees>
              <LongitudeDegrees>-1.88042222522199153900146484375</LongitudeDegrees>
            </Position>
            <AltitudeMeters>656</AltitudeMeters>
            <DistanceMeters>1384.1233306339</DistanceMeters>
          </Trackpoint>
          <Trackpoint>
            <Time>2021-08-28T05:31:02.000Z</Time>
            <Position>
              <LatitudeDegrees>38.1775162182748317718505859375</LatitudeDegrees>
              <LongitudeDegrees>-1.88027822412550449371337890625</LongitudeDegrees>
            </Position>
            <AltitudeMeters>656.20001220703125</AltitudeMeters>
            <DistanceMeters>1399.3317617836</DistanceMeters>
          </Trackpoint>
          <Trackpoint>
            <Time>2021-08-28T05:31:10.000Z</Time>
            <Position>
              <LatitudeDegrees>38.1772027350962162017822265625</LatitudeDegrees>
              <LongitudeDegrees>-1.87969568185508251190185546875</LongitudeDegrees>
            </Position>
            <AltitudeMeters>656.5999755859375</AltitudeMeters>
            <DistanceMeters>1461.0997109014</DistanceMeters>
          </Trackpoint>
          <Trackpoint>
            <Time>2021-08-28T05:31:18.000Z</Time>
            <Position>
              <LatitudeDegrees>38.17688497714698314666748046875</LatitudeDegrees>
              <LongitudeDegrees>-1.87911682762205600738525390625</LongitudeDegrees>
            </Position>
            <AltitudeMeters>656.4000244140625</AltitudeMeters>
            <DistanceMeters>1522.8728496725</DistanceMeters>
          </Trackpoint>
          <Trackpoint>
            <Time>2021-08-28T05:31:20.000Z</Time>
            <Position>
              <LatitudeDegrees>38.176801912486553192138671875</LatitudeDegrees>
              <LongitudeDegrees>-1.8789677135646343231201171875</LongitudeDegrees>
            </Position>
            <AltitudeMeters>656.4000244140625</AltitudeMeters>
            <DistanceMeters>1538.863053377</DistanceMeters>
          </Trackpoint>
          <Trackpoint>
            <Time>2021-08-28T05:31:24.000Z</Time>
            <Position>
              <LatitudeDegrees>38.1766183488070964813232421875</LatitudeDegrees>
              <LongitudeDegrees>-1.87863461673259735107421875</LongitudeDegrees>
            </Position>
            <AltitudeMeters>656.20001220703125</AltitudeMeters>
            <DistanceMeters>1574.4554738376</DistanceMeters>
          </Trackpoint>
          <Trackpoint>
            <Time>2021-08-28T05:31:29.000Z</Time>
            <Position>
              <LatitudeDegrees>38.176353313028812408447265625</LatitudeDegrees>
              <LongitudeDegrees>-1.87816950492560863494873046875</LongitudeDegrees>
            </Position>
            <AltitudeMeters>654.79998779296875</AltitudeMeters>
            <DistanceMeters>1624.7176893308</DistanceMeters>
          </Trackpoint>
          <Trackpoint>
            <Time>2021-08-28T05:31:30.000Z</Time>
            <Position>
              <LatitudeDegrees>38.176300339400768280029296875</LatitudeDegrees>
              <LongitudeDegrees>-1.8780745379626750946044921875</LongitudeDegrees>
            </Position>
            <AltitudeMeters>654.5999755859375</AltitudeMeters>
            <DistanceMeters>1634.9063967463</DistanceMeters>
          </Trackpoint>
          <Trackpoint>
            <Time>2021-08-28T05:31:31.000Z</Time>
            <Position>
              <LatitudeDegrees>38.176248706877231597900390625</LatitudeDegrees>
              <LongitudeDegrees>-1.8779779784381389617919921875</LongitudeDegrees>
            </Position>
            <AltitudeMeters>654.4000244140625</AltitudeMeters>
            <DistanceMeters>1645.1247515024</DistanceMeters>
          </Trackpoint>
          <Trackpoint>
            <Time>2021-08-28T05:31:38.000Z</Time>
            <Position>
              <LatitudeDegrees>38.17590412683784961700439453125</LatitudeDegrees>
              <LongitudeDegrees>-1.877346150577068328857421875</LongitudeDegrees>
            </Position>
            <AltitudeMeters>653.5999755859375</AltitudeMeters>
            <DistanceMeters>1712.4082285517</DistanceMeters>
          </Trackpoint>
          <Trackpoint>
            <Time>2021-08-28T05:31:39.000Z</Time>
            <Position>
              <LatitudeDegrees>38.17585609853267669677734375</LatitudeDegrees>
              <LongitudeDegrees>-1.87725855968892574310302734375</LongitudeDegrees>
            </Position>
            <AltitudeMeters>653.5999755859375</AltitudeMeters>
            <DistanceMeters>1721.7523073793</DistanceMeters>
          </Trackpoint>
          <Trackpoint>
            <Time>2021-08-28T05:31:40.000Z</Time>
            <Position>
              <LatitudeDegrees>38.17580689676105976104736328125</LatitudeDegrees>
              <LongitudeDegrees>-1.8771721422672271728515625</LongitudeDegrees>
            </Position>
            <AltitudeMeters>653.79998779296875</AltitudeMeters>
            <DistanceMeters>1731.0881682308</DistanceMeters>
          </Trackpoint>
          <Trackpoint>
            <Time>2021-08-28T05:31:43.000Z</Time>
            <Position>
              <LatitudeDegrees>38.1756671704351902008056640625</LatitudeDegrees>
              <LongitudeDegrees>-1.87691238708794116973876953125</LongitudeDegrees>
            </Position>
            <AltitudeMeters>653.5999755859375</AltitudeMeters>
            <DistanceMeters>1758.6273953495</DistanceMeters>
          </Trackpoint>
          <Trackpoint>
            <Time>2021-08-28T05:31:46.000Z</Time>
            <Position>
              <LatitudeDegrees>38.1755281984806060791015625</LatitudeDegrees>
              <LongitudeDegrees>-1.87666646204888820648193359375</LongitudeDegrees>
            </Position>
            <AltitudeMeters>653.20001220703125</AltitudeMeters>
            <DistanceMeters>1785.1277546876</DistanceMeters>
          </Trackpoint>
          <Trackpoint>
            <Time>2021-08-28T05:31:49.000Z</Time>
            <Position>
              <LatitudeDegrees>38.17537992261350154876708984375</LatitudeDegrees>
              <LongitudeDegrees>-1.8764450959861278533935546875</LongitudeDegrees>
            </Position>
            <AltitudeMeters>653</AltitudeMeters>
            <DistanceMeters>1810.5739854791</DistanceMeters>
          </Trackpoint>
          <Trackpoint>
            <Time>2021-08-28T05:31:50.000Z</Time>
            <Position>
              <LatitudeDegrees>38.175315298140048980712890625</LatitudeDegrees>
              <LongitudeDegrees>-1.87639287672936916351318359375</LongitudeDegrees>
            </Position>
            <AltitudeMeters>653</AltitudeMeters>
            <DistanceMeters>1819.0946553242</DistanceMeters>
          </Trackpoint>
          <Trackpoint>
            <Time>2021-08-28T05:31:51.000Z</Time>
            <Position>
              <LatitudeDegrees>38.1752460636198520660400390625</LatitudeDegrees>
              <LongitudeDegrees>-1.87634895555675029754638671875</LongitudeDegrees>
            </Position>
            <AltitudeMeters>652.79998779296875</AltitudeMeters>
            <DistanceMeters>1827.70546003</DistanceMeters>
          </Trackpoint>
          <Trackpoint>
            <Time>2021-08-28T05:31:52.000Z</Time>
            <Position>
              <LatitudeDegrees>38.175185881555080413818359375</LatitudeDegrees>
              <LongitudeDegrees>-1.87630134634673595428466796875</LongitudeDegrees>
            </Position>
            <AltitudeMeters>652.79998779296875</AltitudeMeters>
            <DistanceMeters>1835.593249752</DistanceMeters>
          </Trackpoint>
          <Trackpoint>
            <Time>2021-08-28T05:31:54.000Z</Time>
            <Position>
              <LatitudeDegrees>38.1750975362956523895263671875</LatitudeDegrees>
              <LongitudeDegrees>-1.87616623006761074066162109375</LongitudeDegrees>
            </Position>
            <AltitudeMeters>653.20001220703125</AltitudeMeters>
            <DistanceMeters>1850.9705571158</DistanceMeters>
          </Trackpoint>
          <Trackpoint>
            <Time>2021-08-28T05:31:58.000Z</Time>
            <Position>
              <LatitudeDegrees>38.174952529370784759521484375</LatitudeDegrees>
              <LongitudeDegrees>-1.87581050209701061248779296875</LongitudeDegrees>
            </Position>
            <AltitudeMeters>652.5999755859375</AltitudeMeters>
            <DistanceMeters>1886.031551631</DistanceMeters>
          </Trackpoint>
          <Trackpoint>
            <Time>2021-08-28T05:31:59.000Z</Time>
            <Position>
              <LatitudeDegrees>38.1748990528285503387451171875</LatitudeDegrees>
              <LongitudeDegrees>-1.87572718597948551177978515625</LongitudeDegrees>
            </Position>
            <AltitudeMeters>652.4000244140625</AltitudeMeters>
            <DistanceMeters>1895.4425552843</DistanceMeters>
          </Trackpoint>
          <Trackpoint>
            <Time>2021-08-28T05:32:00.000Z</Time>
            <Position>
              <LatitudeDegrees>38.1748390384018421173095703125</LatitudeDegrees>
              <LongitudeDegrees>-1.87564286403357982635498046875</LongitudeDegrees>
            </Position>
            <AltitudeMeters>652</AltitudeMeters>
            <DistanceMeters>1905.3945339035</DistanceMeters>
          </Trackpoint>
          <Trackpoint>
            <Time>2021-08-28T05:32:03.000Z</Time>
            <Position>
              <LatitudeDegrees>38.17464214749634265899658203125</LatitudeDegrees>
              <LongitudeDegrees>-1.8754018843173980712890625</LongitudeDegrees>
            </Position>
            <AltitudeMeters>651.4000244140625</AltitudeMeters>
            <DistanceMeters>1935.805458077</DistanceMeters>
          </Trackpoint>
          <Trackpoint>
            <Time>2021-08-28T05:32:09.000Z</Time>
            <Position>
              <LatitudeDegrees>38.17423470318317413330078125</LatitudeDegrees>
              <LongitudeDegrees>-1.87489134259521961212158203125</LongitudeDegrees>
            </Position>
            <AltitudeMeters>650.20001220703125</AltitudeMeters>
            <DistanceMeters>1999.4615836506</DistanceMeters>
          </Trackpoint>
          <Trackpoint>
            <Time>2021-08-28T05:32:10.000Z</Time>
            <Position>
              <LatitudeDegrees>38.1741631217300891876220703125</LatitudeDegrees>
              <LongitudeDegrees>-1.8748032487928867340087890625</LongitudeDegrees>
            </Position>
            <AltitudeMeters>650</AltitudeMeters>
            <DistanceMeters>2010.5467665651</DistanceMeters>
          </Trackpoint>
          <Trackpoint>
            <Time>2021-08-28T05:32:12.000Z</Time>
            <Position>
              <LatitudeDegrees>38.174019120633602142333984375</LatitudeDegrees>
              <LongitudeDegrees>-1.8746280670166015625</LongitudeDegrees>
            </Position>
            <AltitudeMeters>649.5999755859375</AltitudeMeters>
            <DistanceMeters>2032.7240554796</DistanceMeters>
          </Trackpoint>
          <Trackpoint>
            <Time>2021-08-28T05:32:13.000Z</Time>
            <Position>
              <LatitudeDegrees>38.17394644953310489654541015625</LatitudeDegrees>
              <LongitudeDegrees>-1.8745373748242855072021484375</LongitudeDegrees>
            </Position>
            <AltitudeMeters>649.20001220703125</AltitudeMeters>
            <DistanceMeters>2044.0557670464</DistanceMeters>
          </Trackpoint>
          <Trackpoint>
            <Time>2021-08-28T05:32:16.000Z</Time>
            <Position>
              <LatitudeDegrees>38.17373581230640411376953125</LatitudeDegrees>
              <LongitudeDegrees>-1.87426705844700336456298828125</LongitudeDegrees>
            </Position>
            <AltitudeMeters>648.20001220703125</AltitudeMeters>
            <DistanceMeters>2077.3583939514</DistanceMeters>
          </Trackpoint>
          <Trackpoint>
            <Time>2021-08-28T05:32:18.000Z</Time>
            <Position>
              <LatitudeDegrees>38.173592984676361083984375</LatitudeDegrees>
              <LongitudeDegrees>-1.87409698963165283203125</LongitudeDegrees>
            </Position>
            <AltitudeMeters>647.79998779296875</AltitudeMeters>
            <DistanceMeters>2099.1334083927</DistanceMeters>
          </Trackpoint>
          <Trackpoint>
            <Time>2021-08-28T05:32:20.000Z</Time>
            <Position>
              <LatitudeDegrees>38.17345795221626758575439453125</LatitudeDegrees>
              <LongitudeDegrees>-1.8739278428256511688232421875</LongitudeDegrees>
            </Position>
            <AltitudeMeters>647.5999755859375</AltitudeMeters>
            <DistanceMeters>2120.2265564857</DistanceMeters>
          </Trackpoint>
          <Trackpoint>
            <Time>2021-08-28T05:32:23.000Z</Time>
            <Position>
              <LatitudeDegrees>38.17326508462429046630859375</LatitudeDegrees>
              <LongitudeDegrees>-1.8736783973872661590576171875</LongitudeDegrees>
            </Position>
            <AltitudeMeters>647.20001220703125</AltitudeMeters>
            <DistanceMeters>2150.8403531122</DistanceMeters>
          </Trackpoint>
          <Trackpoint>
            <Time>2021-08-28T05:32:28.000Z</Time>
            <Position>
              <LatitudeDegrees>38.172950930893421173095703125</LatitudeDegrees>
              <LongitudeDegrees>-1.87326843850314617156982421875</LongitudeDegrees>
            </Position>
            <AltitudeMeters>646.5999755859375</AltitudeMeters>
            <DistanceMeters>2200.9339449481</DistanceMeters>
          </Trackpoint>
          <Trackpoint>
            <Time>2021-08-28T05:32:30.000Z</Time>
            <Position>
              <LatitudeDegrees>38.1728287227451801300048828125</LatitudeDegrees>
              <LongitudeDegrees>-1.87310348264873027801513671875</LongitudeDegrees>
            </Position>
            <AltitudeMeters>646.4000244140625</AltitudeMeters>
            <DistanceMeters>2220.7665461327</DistanceMeters>
          </Trackpoint>
          <Trackpoint>
            <Time>2021-08-28T05:32:33.000Z</Time>
            <Position>
              <LatitudeDegrees>38.17263937555253505706787109375</LatitudeDegrees>
              <LongitudeDegrees>-1.87285068444907665252685546875</LongitudeDegrees>
            </Position>
            <AltitudeMeters>646</AltitudeMeters>
            <DistanceMeters>2251.3186323452</DistanceMeters>
          </Trackpoint>
          <Trackpoint>
            <Time>2021-08-28T05:32:37.000Z</Time>
            <Position>
              <LatitudeDegrees>38.1723868288099765777587890625</LatitudeDegrees>
              <LongitudeDegrees>-1.87252010218799114227294921875</LongitudeDegrees>
            </Position>
            <AltitudeMeters>645.5999755859375</AltitudeMeters>
            <DistanceMeters>2291.6526314268</DistanceMeters>
          </Trackpoint>
          <Trackpoint>
            <Time>2021-08-28T05:32:40.000Z</Time>
            <Position>
              <LatitudeDegrees>38.17220251075923442840576171875</LatitudeDegrees>
              <LongitudeDegrees>-1.87228473834693431854248046875</LongitudeDegrees>
            </Position>
            <AltitudeMeters>645.4000244140625</AltitudeMeters>
            <DistanceMeters>2320.7214881866</DistanceMeters>
          </Trackpoint>
          <Trackpoint>
            <Time>2021-08-28T05:32:46.000Z</Time>
            <Position>
              <LatitudeDegrees>38.17185281775891780853271484375</LatitudeDegrees>
              <LongitudeDegrees>-1.8718320317566394805908203125</LongitudeDegrees>
            </Position>
            <AltitudeMeters>646</AltitudeMeters>
            <DistanceMeters>2376.255396006</DistanceMeters>
          </Trackpoint>
          <Trackpoint>
            <Time>2021-08-28T05:32:47.000Z</Time>
            <Position>
              <LatitudeDegrees>38.1717947311699390411376953125</LatitudeDegrees>
              <LongitudeDegrees>-1.87175919301807880401611328125</LongitudeDegrees>
            </Position>
            <AltitudeMeters>646</AltitudeMeters>
            <DistanceMeters>2385.3333075295</DistanceMeters>
          </Trackpoint>
          <Trackpoint>
            <Time>2021-08-28T05:32:50.000Z</Time>
            <Position>
              <LatitudeDegrees>38.1716240756213665008544921875</LatitudeDegrees>
              <LongitudeDegrees>-1.871539838612079620361328125</LongitudeDegrees>
            </Position>
            <AltitudeMeters>646</AltitudeMeters>
            <DistanceMeters>2412.3367832859</DistanceMeters>
          </Trackpoint>
          <Trackpoint>
            <Time>2021-08-28T05:32:53.000Z</Time>
            <Position>
              <LatitudeDegrees>38.1714554317295551300048828125</LatitudeDegrees>
              <LongitudeDegrees>-1.87133230268955230712890625</LongitudeDegrees>
            </Position>
            <AltitudeMeters>647</AltitudeMeters>
            <DistanceMeters>2438.4540939136</DistanceMeters>
          </Trackpoint>
          <Trackpoint>
            <Time>2021-08-28T05:32:57.000Z</Time>
            <Position>
              <LatitudeDegrees>38.17123574204742908477783203125</LatitudeDegrees>
              <LongitudeDegrees>-1.87105544842779636383056640625</LongitudeDegrees>
            </Position>
            <AltitudeMeters>647</AltitudeMeters>
            <DistanceMeters>2472.8744961425</DistanceMeters>
          </Trackpoint>
          <Trackpoint>
            <Time>2021-08-28T05:33:00.000Z</Time>
            <Position>
              <LatitudeDegrees>38.17108419723808765411376953125</LatitudeDegrees>
              <LongitudeDegrees>-1.87086484394967555999755859375</LongitudeDegrees>
            </Position>
            <AltitudeMeters>647.20001220703125</AltitudeMeters>
            <DistanceMeters>2496.5950370981</DistanceMeters>
          </Trackpoint>
          <Trackpoint>
            <Time>2021-08-28T05:33:04.000Z</Time>
            <Position>
              <LatitudeDegrees>38.170899711549282073974609375</LatitudeDegrees>
              <LongitudeDegrees>-1.87062730081379413604736328125</LongitudeDegrees>
            </Position>
            <AltitudeMeters>647.4000244140625</AltitudeMeters>
            <DistanceMeters>2525.8126226709</DistanceMeters>
          </Trackpoint>
          <Trackpoint>
            <Time>2021-08-28T05:33:10.000Z</Time>
            <Position>
              <LatitudeDegrees>38.17064548842608928680419921875</LatitudeDegrees>
              <LongitudeDegrees>-1.87030929140746593475341796875</LongitudeDegrees>
            </Position>
            <AltitudeMeters>648</AltitudeMeters>
            <DistanceMeters>2565.4983089161</DistanceMeters>
          </Trackpoint>
          <Trackpoint>
            <Time>2021-08-28T05:33:11.000Z</Time>
            <Position>
              <LatitudeDegrees>38.17060659639537334442138671875</LatitudeDegrees>
              <LongitudeDegrees>-1.87026050873100757598876953125</LongitudeDegrees>
            </Position>
            <AltitudeMeters>648.4000244140625</AltitudeMeters>
            <DistanceMeters>2571.578533662</DistanceMeters>
          </Trackpoint>
          <Trackpoint>
            <Time>2021-08-28T05:33:17.000Z</Time>
            <Position>
              <LatitudeDegrees>38.170378021895885467529296875</LatitudeDegrees>
              <LongitudeDegrees>-1.869959346950054168701171875</LongitudeDegrees>
            </Position>
            <AltitudeMeters>649.4000244140625</AltitudeMeters>
            <DistanceMeters>2608.2077267752</DistanceMeters>
          </Trackpoint>
          <Trackpoint>
            <Time>2021-08-28T05:33:18.000Z</Time>
            <Position>
              <LatitudeDegrees>38.17034089006483554840087890625</LatitudeDegrees>
              <LongitudeDegrees>-1.86991098336875438690185546875</LongitudeDegrees>
            </Position>
            <AltitudeMeters>649.79998779296875</AltitudeMeters>
            <DistanceMeters>2614.1230920404</DistanceMeters>
          </Trackpoint>
          <Trackpoint>
            <Time>2021-08-28T05:33:20.000Z</Time>
            <Position>
              <LatitudeDegrees>38.17027081735432147979736328125</LatitudeDegrees>
              <LongitudeDegrees>-1.8698173575103282928466796875</LongitudeDegrees>
            </Position>
            <AltitudeMeters>650.4000244140625</AltitudeMeters>
            <DistanceMeters>2625.4348639268</DistanceMeters>
          </Trackpoint>
          <Trackpoint>
            <Time>2021-08-28T05:33:21.000Z</Time>
            <Position>
              <LatitudeDegrees>38.17023745737969875335693359375</LatitudeDegrees>
              <LongitudeDegrees>-1.869767569005489349365234375</LongitudeDegrees>
            </Position>
            <AltitudeMeters>650.79998779296875</AltitudeMeters>
            <DistanceMeters>2631.1585967419</DistanceMeters>
          </Trackpoint>
          <Trackpoint>
            <Time>2021-08-28T05:33:25.000Z</Time>
            <Position>
              <LatitudeDegrees>38.17009278573095798492431640625</LatitudeDegrees>
              <LongitudeDegrees>-1.86957855708897113800048828125</LongitudeDegrees>
            </Position>
            <AltitudeMeters>652</AltitudeMeters>
            <DistanceMeters>2654.2416790892</DistanceMeters>
          </Trackpoint>
          <Trackpoint>
            <Time>2021-08-28T05:33:26.000Z</Time>
            <Position>
              <LatitudeDegrees>38.17005774937570095062255859375</LatitudeDegrees>
              <LongitudeDegrees>-1.86952440999448299407958984375</LongitudeDegrees>
            </Position>
            <AltitudeMeters>652.20001220703125</AltitudeMeters>
            <DistanceMeters>2660.37881595</DistanceMeters>
          </Trackpoint>
          <Trackpoint>
            <Time>2021-08-28T05:33:29.000Z</Time>
            <Position>
              <LatitudeDegrees>38.1699671410024166107177734375</LatitudeDegrees>
              <LongitudeDegrees>-1.86934612691402435302734375</LongitudeDegrees>
            </Position>
            <AltitudeMeters>653</AltitudeMeters>
            <DistanceMeters>2678.955019578</DistanceMeters>
          </Trackpoint>
          <Trackpoint>
            <Time>2021-08-28T05:33:30.000Z</Time>
            <Position>
              <LatitudeDegrees>38.16994048655033111572265625</LatitudeDegrees>
              <LongitudeDegrees>-1.86928736977279186248779296875</LongitudeDegrees>
            </Position>
            <AltitudeMeters>653.20001220703125</AltitudeMeters>
            <DistanceMeters>2684.8909574386</DistanceMeters>
          </Trackpoint>
          <Trackpoint>
            <Time>2021-08-28T05:33:32.000Z</Time>
            <Position>
              <LatitudeDegrees>38.16989220678806304931640625</LatitudeDegrees>
              <LongitudeDegrees>-1.869172789156436920166015625</LongitudeDegrees>
            </Position>
            <AltitudeMeters>653.5999755859375</AltitudeMeters>
            <DistanceMeters>2696.266413273</DistanceMeters>
          </Trackpoint>
          <Trackpoint>
            <Time>2021-08-28T05:33:34.000Z</Time>
            <Position>
              <LatitudeDegrees>38.16984166391193866729736328125</LatitudeDegrees>
              <LongitudeDegrees>-1.86905502341687679290771484375</LongitudeDegrees>
            </Position>
            <AltitudeMeters>654.20001220703125</AltitudeMeters>
            <DistanceMeters>2708.006732129</DistanceMeters>
          </Trackpoint>
          <Trackpoint>
            <Time>2021-08-28T05:33:37.000Z</Time>
            <Position>
              <LatitudeDegrees>38.16977209411561489105224609375</LatitudeDegrees>
              <LongitudeDegrees>-1.868901886045932769775390625</LongitudeDegrees>
            </Position>
            <AltitudeMeters>655.79998779296875</AltitudeMeters>
            <DistanceMeters>2723.4832555654</DistanceMeters>
          </Trackpoint>
          <Trackpoint>
            <Time>2021-08-28T05:33:40.000Z</Time>
            <Position>
              <LatitudeDegrees>38.16971241496503353118896484375</LatitudeDegrees>
              <LongitudeDegrees>-1.868751347064971923828125</LongitudeDegrees>
            </Position>
            <AltitudeMeters>656.4000244140625</AltitudeMeters>
            <DistanceMeters>2738.2359808205</DistanceMeters>
          </Trackpoint>
          <Trackpoint>
            <Time>2021-08-28T05:33:44.000Z</Time>
            <Position>
              <LatitudeDegrees>38.16965038888156414031982421875</LatitudeDegrees>
              <LongitudeDegrees>-1.86855898238718509674072265625</LongitudeDegrees>
            </Position>
            <AltitudeMeters>657</AltitudeMeters>
            <DistanceMeters>2756.4290680235</DistanceMeters>
          </Trackpoint>
          <Trackpoint>
            <Time>2021-08-28T05:33:46.000Z</Time>
            <Position>
              <LatitudeDegrees>38.1696112453937530517578125</LatitudeDegrees>
              <LongitudeDegrees>-1.86847709119319915771484375</LongitudeDegrees>
            </Position>
            <AltitudeMeters>657.4000244140625</AltitudeMeters>
            <DistanceMeters>2764.8151419169</DistanceMeters>
          </Trackpoint>
          <Trackpoint>
            <Time>2021-08-28T05:33:49.000Z</Time>
            <Position>
              <LatitudeDegrees>38.16955148242413997650146484375</LatitudeDegrees>
              <LongitudeDegrees>-1.86836041510105133056640625</LongitudeDegrees>
            </Position>
            <AltitudeMeters>658.4000244140625</AltitudeMeters>
            <DistanceMeters>2777.0004423633</DistanceMeters>
          </Trackpoint>
          <Trackpoint>
            <Time>2021-08-28T05:33:50.000Z</Time>
            <Position>
              <LatitudeDegrees>38.16953287459909915924072265625</LatitudeDegrees>
              <LongitudeDegrees>-1.86832328327000141143798828125</LongitudeDegrees>
            </Position>
            <AltitudeMeters>658.5999755859375</AltitudeMeters>
            <DistanceMeters>2780.8534211685</DistanceMeters>
          </Trackpoint>
          <Trackpoint>
            <Time>2021-08-28T05:33:53.000Z</Time>
            <Position>
              <LatitudeDegrees>38.16947336308658123016357421875</LatitudeDegrees>
              <LongitudeDegrees>-1.86819856055080890655517578125</LongitudeDegrees>
            </Position>
            <AltitudeMeters>659.4000244140625</AltitudeMeters>
            <DistanceMeters>2793.6202876523</DistanceMeters>
          </Trackpoint>
          <Trackpoint>
            <Time>2021-08-28T05:33:54.000Z</Time>
            <Position>
              <LatitudeDegrees>38.16945341415703296661376953125</LatitudeDegrees>
              <LongitudeDegrees>-1.8681545555591583251953125</LongitudeDegrees>
            </Position>
            <AltitudeMeters>659.5999755859375</AltitudeMeters>
            <DistanceMeters>2798.0652631594</DistanceMeters>
          </Trackpoint>
          <Trackpoint>
            <Time>2021-08-28T05:33:58.000Z</Time>
            <Position>
              <LatitudeDegrees>38.1693649850785732269287109375</LatitudeDegrees>
              <LongitudeDegrees>-1.867973171174526214599609375</LongitudeDegrees>
            </Position>
            <AltitudeMeters>660.79998779296875</AltitudeMeters>
            <DistanceMeters>2816.7410952065</DistanceMeters>
          </Trackpoint>
          <Trackpoint>
            <Time>2021-08-28T05:34:00.000Z</Time>
            <Position>
              <LatitudeDegrees>38.16932567395269870758056640625</LatitudeDegrees>
              <LongitudeDegrees>-1.8678888492286205291748046875</LongitudeDegrees>
            </Position>
            <AltitudeMeters>661.20001220703125</AltitudeMeters>
            <DistanceMeters>2825.3198551995</DistanceMeters>
          </Trackpoint>
          <Trackpoint>
            <Time>2021-08-28T05:34:04.000Z</Time>
            <Position>
              <LatitudeDegrees>38.169247806072235107421875</LatitudeDegrees>
              <LongitudeDegrees>-1.86773487366735935211181640625</LongitudeDegrees>
            </Position>
            <AltitudeMeters>661.79998779296875</AltitudeMeters>
            <DistanceMeters>2841.3399613981</DistanceMeters>
          </Trackpoint>
          <Trackpoint>
            <Time>2021-08-28T05:34:06.000Z</Time>
            <Position>
              <LatitudeDegrees>38.1692008674144744873046875</LatitudeDegrees>
              <LongitudeDegrees>-1.86766496859490871429443359375</LongitudeDegrees>
            </Position>
            <AltitudeMeters>663</AltitudeMeters>
            <DistanceMeters>2849.3841846544</DistanceMeters>
          </Trackpoint>
          <Trackpoint>
            <Time>2021-08-28T05:34:10.000Z</Time>
            <Position>
              <LatitudeDegrees>38.1691004522144794464111328125</LatitudeDegrees>
              <LongitudeDegrees>-1.86752901412546634674072265625</LongitudeDegrees>
            </Position>
            <AltitudeMeters>664</AltitudeMeters>
            <DistanceMeters>2865.7072185499</DistanceMeters>
          </Trackpoint>
          <Trackpoint>
            <Time>2021-08-28T05:34:14.000Z</Time>
            <Position>
              <LatitudeDegrees>38.1689951755106449127197265625</LatitudeDegrees>
              <LongitudeDegrees>-1.86740278266370296478271484375</LongitudeDegrees>
            </Position>
            <AltitudeMeters>664.5999755859375</AltitudeMeters>
            <DistanceMeters>2881.8108124134</DistanceMeters>
          </Trackpoint>
          <Trackpoint>
            <Time>2021-08-28T05:34:17.000Z</Time>
            <Position>
              <LatitudeDegrees>38.1688922457396984100341796875</LatitudeDegrees>
              <LongitudeDegrees>-1.8673094920814037322998046875</LongitudeDegrees>
            </Position>
            <AltitudeMeters>665</AltitudeMeters>
            <DistanceMeters>2895.8779761358</DistanceMeters>
          </Trackpoint>
          <Trackpoint>
            <Time>2021-08-28T05:34:20.000Z</Time>
            <Position>
              <LatitudeDegrees>38.1687832809984683990478515625</LatitudeDegrees>
              <LongitudeDegrees>-1.86722642742097377777099609375</LongitudeDegrees>
            </Position>
            <AltitudeMeters>665.79998779296875</AltitudeMeters>
            <DistanceMeters>2910.0174914199</DistanceMeters>
          </Trackpoint>
          <Trackpoint>
            <Time>2021-08-28T05:34:21.000Z</Time>
            <Position>
              <LatitudeDegrees>38.168745897710323333740234375</LatitudeDegrees>
              <LongitudeDegrees>-1.8672028742730617523193359375</LongitudeDegrees>
            </Position>
            <AltitudeMeters>666</AltitudeMeters>
            <DistanceMeters>2914.6602053322</DistanceMeters>
          </Trackpoint>
          <Trackpoint>
            <Time>2021-08-28T05:34:28.000Z</Time>
            <Position>
              <LatitudeDegrees>38.16849754191935062408447265625</LatitudeDegrees>
              <LongitudeDegrees>-1.867057867348194122314453125</LongitudeDegrees>
            </Position>
            <AltitudeMeters>667.4000244140625</AltitudeMeters>
            <DistanceMeters>2945.0758800992</DistanceMeters>
          </Trackpoint>
          <Trackpoint>
            <Time>2021-08-28T05:34:30.000Z</Time>
            <Position>
              <LatitudeDegrees>38.16842378117144107818603515625</LatitudeDegrees>
              <LongitudeDegrees>-1.8670302070677280426025390625</LongitudeDegrees>
            </Position>
            <AltitudeMeters>667.79998779296875</AltitudeMeters>
            <DistanceMeters>2953.6356721683</DistanceMeters>
          </Trackpoint>
          <Trackpoint>
            <Time>2021-08-28T05:34:31.000Z</Time>
            <Position>
              <LatitudeDegrees>38.1683873198926448822021484375</LatitudeDegrees>
              <LongitudeDegrees>-1.86701704747974872589111328125</LongitudeDegrees>
            </Position>
            <AltitudeMeters>667.79998779296875</AltitudeMeters>
            <DistanceMeters>2957.855543108</DistanceMeters>
          </Trackpoint>
          <Trackpoint>
            <Time>2021-08-28T05:34:33.000Z</Time>
            <Position>
              <LatitudeDegrees>38.16831045784056186676025390625</LatitudeDegrees>
              <LongitudeDegrees>-1.86699056066572666168212890625</LongitudeDegrees>
            </Position>
            <AltitudeMeters>668.5999755859375</AltitudeMeters>
            <DistanceMeters>2966.7190449589</DistanceMeters>
          </Trackpoint>
          <Trackpoint>
            <Time>2021-08-28T05:34:38.000Z</Time>
            <Position>
              <LatitudeDegrees>38.16811935044825077056884765625</LatitudeDegrees>
              <LongitudeDegrees>-1.86694596894085407257080078125</LongitudeDegrees>
            </Position>
            <AltitudeMeters>669.5999755859375</AltitudeMeters>
            <DistanceMeters>2988.3446700142</DistanceMeters>
          </Trackpoint>
          <Trackpoint>
            <Time>2021-08-28T05:34:40.000Z</Time>
            <Position>
              <LatitudeDegrees>38.16804056055843830108642578125</LatitudeDegrees>
              <LongitudeDegrees>-1.8669349886476993560791015625</LongitudeDegrees>
            </Position>
            <AltitudeMeters>669.79998779296875</AltitudeMeters>
            <DistanceMeters>2997.1663024479</DistanceMeters>
          </Trackpoint>
          <Trackpoint>
            <Time>2021-08-28T05:34:45.000Z</Time>
            <Position>
              <LatitudeDegrees>38.16784090362489223480224609375</LatitudeDegrees>
              <LongitudeDegrees>-1.86691336333751678466796875</LongitudeDegrees>
            </Position>
            <AltitudeMeters>670.79998779296875</AltitudeMeters>
            <DistanceMeters>3019.4690540906</DistanceMeters>
          </Trackpoint>
          <Trackpoint>
            <Time>2021-08-28T05:34:49.000Z</Time>
            <Position>
              <LatitudeDegrees>38.167677037417888641357421875</LatitudeDegrees>
              <LongitudeDegrees>-1.86689400114119052886962890625</LongitudeDegrees>
            </Position>
            <AltitudeMeters>671.4000244140625</AltitudeMeters>
            <DistanceMeters>3037.7863006182</DistanceMeters>
          </Trackpoint>
          <Trackpoint>
            <Time>2021-08-28T05:34:50.000Z</Time>
            <Position>
              <LatitudeDegrees>38.16763537935912609100341796875</LatitudeDegrees>
              <LongitudeDegrees>-1.86688964255154132843017578125</LongitudeDegrees>
            </Position>
            <AltitudeMeters>671.5999755859375</AltitudeMeters>
            <DistanceMeters>3042.4387293642</DistanceMeters>
          </Trackpoint>
          <Trackpoint>
            <Time>2021-08-28T05:34:51.000Z</Time>
            <Position>
              <LatitudeDegrees>38.16759246401488780975341796875</LatitudeDegrees>
              <LongitudeDegrees>-1.86688561923801898956298828125</LongitudeDegrees>
            </Position>
            <AltitudeMeters>671.79998779296875</AltitudeMeters>
            <DistanceMeters>3047.22792493</DistanceMeters>
          </Trackpoint>
          <Trackpoint>
            <Time>2021-08-28T05:34:57.000Z</Time>
            <Position>
              <LatitudeDegrees>38.16733027808368206024169921875</LatitudeDegrees>
              <LongitudeDegrees>-1.86686198227107524871826171875</LongitudeDegrees>
            </Position>
            <AltitudeMeters>673</AltitudeMeters>
            <DistanceMeters>3076.4828832312</DistanceMeters>
          </Trackpoint>
          <Trackpoint>
            <Time>2021-08-28T05:34:58.000Z</Time>
            <Position>
              <LatitudeDegrees>38.1672882847487926483154296875</LatitudeDegrees>
              <LongitudeDegrees>-1.866856701672077178955078125</LongitudeDegrees>
            </Position>
            <AltitudeMeters>673.20001220703125</AltitudeMeters>
            <DistanceMeters>3081.1787800227</DistanceMeters>
          </Trackpoint>
          <Trackpoint>
            <Time>2021-08-28T05:35:00.000Z</Time>
            <Position>
              <LatitudeDegrees>38.167208321392536163330078125</LatitudeDegrees>
              <LongitudeDegrees>-1.866848655045032501220703125</LongitudeDegrees>
            </Position>
            <AltitudeMeters>673.4000244140625</AltitudeMeters>
            <DistanceMeters>3090.1067408633</DistanceMeters>
          </Trackpoint>
          <Trackpoint>
            <Time>2021-08-28T05:35:04.000Z</Time>
            <Position>
              <LatitudeDegrees>38.16705686040222644805908203125</LatitudeDegrees>
              <LongitudeDegrees>-1.86684622429311275482177734375</LongitudeDegrees>
            </Position>
            <AltitudeMeters>674</AltitudeMeters>
            <DistanceMeters>3106.9658833726</DistanceMeters>
          </Trackpoint>
          <Trackpoint>
            <Time>2021-08-28T05:35:06.000Z</Time>
            <Position>
              <LatitudeDegrees>38.16697941161692142486572265625</LatitudeDegrees>
              <LongitudeDegrees>-1.8668387643992900848388671875</LongitudeDegrees>
            </Position>
            <AltitudeMeters>674.4000244140625</AltitudeMeters>
            <DistanceMeters>3115.6101810638</DistanceMeters>
          </Trackpoint>
          <Trackpoint>
            <Time>2021-08-28T05:35:10.000Z</Time>
            <Position>
              <LatitudeDegrees>38.166816048324108123779296875</LatitudeDegrees>
              <LongitudeDegrees>-1.86681990511715412139892578125</LongitudeDegrees>
            </Position>
            <AltitudeMeters>675</AltitudeMeters>
            <DistanceMeters>3133.8676793002</DistanceMeters>
          </Trackpoint>
          <Trackpoint>
            <Time>2021-08-28T05:35:11.000Z</Time>
            <Position>
              <LatitudeDegrees>38.1667743064463138580322265625</LatitudeDegrees>
              <LongitudeDegrees>-1.8668159656226634979248046875</LongitudeDegrees>
            </Position>
            <AltitudeMeters>675.4000244140625</AltitudeMeters>
            <DistanceMeters>3138.5249578637</DistanceMeters>
          </Trackpoint>
          <Trackpoint>
            <Time>2021-08-28T05:35:15.000Z</Time>
            <Position>
              <LatitudeDegrees>38.166596107184886932373046875</LatitudeDegrees>
              <LongitudeDegrees>-1.866797693073749542236328125</LongitudeDegrees>
            </Position>
            <AltitudeMeters>675.79998779296875</AltitudeMeters>
            <DistanceMeters>3158.423016356</DistanceMeters>
          </Trackpoint>
          <Trackpoint>
            <Time>2021-08-28T05:35:20.000Z</Time>
            <Position>
              <LatitudeDegrees>38.166366107761859893798828125</LatitudeDegrees>
              <LongitudeDegrees>-1.8667680211365222930908203125</LongitudeDegrees>
            </Position>
            <AltitudeMeters>676.5999755859375</AltitudeMeters>
            <DistanceMeters>3184.1536818102</DistanceMeters>
          </Trackpoint>
          <Trackpoint>
            <Time>2021-08-28T05:35:26.000Z</Time>
            <Position>
              <LatitudeDegrees>38.1660802848637104034423828125</LatitudeDegrees>
              <LongitudeDegrees>-1.866740025579929351806640625</LongitudeDegrees>
            </Position>
            <AltitudeMeters>677</AltitudeMeters>
            <DistanceMeters>3216.0605904398</DistanceMeters>
          </Trackpoint>
          <Trackpoint>
            <Time>2021-08-28T05:35:30.000Z</Time>
            <Position>
              <LatitudeDegrees>38.16588632762432098388671875</LatitudeDegrees>
              <LongitudeDegrees>-1.8667240999639034271240234375</LongitudeDegrees>
            </Position>
            <AltitudeMeters>677.4000244140625</AltitudeMeters>
            <DistanceMeters>3237.693521626</DistanceMeters>
          </Trackpoint>
          <Trackpoint>
            <Time>2021-08-28T05:35:32.000Z</Time>
            <Position>
              <LatitudeDegrees>38.16578448750078678131103515625</LatitudeDegrees>
              <LongitudeDegrees>-1.86671596951782703399658203125</LongitudeDegrees>
            </Position>
            <AltitudeMeters>677.79998779296875</AltitudeMeters>
            <DistanceMeters>3249.0507049003</DistanceMeters>
          </Trackpoint>
          <Trackpoint>
            <Time>2021-08-28T05:35:33.000Z</Time>
            <Position>
              <LatitudeDegrees>38.16573184914886951446533203125</LatitudeDegrees>
              <LongitudeDegrees>-1.86671395786106586456298828125</LongitudeDegrees>
            </Position>
            <AltitudeMeters>678</AltitudeMeters>
            <DistanceMeters>3254.9116272503</DistanceMeters>
          </Trackpoint>
          <Trackpoint>
            <Time>2021-08-28T05:35:40.000Z</Time>
            <Position>
              <LatitudeDegrees>38.16538031212985515594482421875</LatitudeDegrees>
              <LongitudeDegrees>-1.866676993668079376220703125</LongitudeDegrees>
            </Position>
            <AltitudeMeters>678.5999755859375</AltitudeMeters>
            <DistanceMeters>3294.171693199</DistanceMeters>
          </Trackpoint>
          <Trackpoint>
            <Time>2021-08-28T05:35:41.000Z</Time>
            <Position>
              <LatitudeDegrees>38.16533320583403110504150390625</LatitudeDegrees>
              <LongitudeDegrees>-1.86667037196457386016845703125</LongitudeDegrees>
            </Position>
            <AltitudeMeters>678.79998779296875</AltitudeMeters>
            <DistanceMeters>3299.4463178799</DistanceMeters>
          </Trackpoint>
          <Trackpoint>
            <Time>2021-08-28T05:35:48.000Z</Time>
            <Position>
              <LatitudeDegrees>38.164986111223697662353515625</LatitudeDegrees>
              <LongitudeDegrees>-1.86664044857025146484375</LongitudeDegrees>
            </Position>
            <AltitudeMeters>679.5999755859375</AltitudeMeters>
            <DistanceMeters>3338.1673428205</DistanceMeters>
          </Trackpoint>
          <Trackpoint>
            <Time>2021-08-28T05:35:49.000Z</Time>
            <Position>
              <LatitudeDegrees>38.16493875347077846527099609375</LatitudeDegrees>
              <LongitudeDegrees>-1.86663667671382427215576171875</LongitudeDegrees>
            </Position>
            <AltitudeMeters>679.5999755859375</AltitudeMeters>
            <DistanceMeters>3343.4496658144</DistanceMeters>
          </Trackpoint>
          <Trackpoint>
            <Time>2021-08-28T05:35:50.000Z</Time>
            <Position>
              <LatitudeDegrees>38.1648917309939861297607421875</LatitudeDegrees>
              <LongitudeDegrees>-1.8666325695812702178955078125</LongitudeDegrees>
            </Position>
            <AltitudeMeters>679.79998779296875</AltitudeMeters>
            <DistanceMeters>3348.6951060176</DistanceMeters>
          </Trackpoint>
          <Trackpoint>
            <Time>2021-08-28T05:35:56.000Z</Time>
            <Position>
              <LatitudeDegrees>38.16461898386478424072265625</LatitudeDegrees>
              <LongitudeDegrees>-1.86660013161599636077880859375</LongitudeDegrees>
            </Position>
            <AltitudeMeters>680.79998779296875</AltitudeMeters>
            <DistanceMeters>3379.1849126708</DistanceMeters>
          </Trackpoint>
          <Trackpoint>
            <Time>2021-08-28T05:35:57.000Z</Time>
            <Position>
              <LatitudeDegrees>38.1645735539495944976806640625</LatitudeDegrees>
              <LongitudeDegrees>-1.86659325845539569854736328125</LongitudeDegrees>
            </Position>
            <AltitudeMeters>680.79998779296875</AltitudeMeters>
            <DistanceMeters>3384.2766068359</DistanceMeters>
          </Trackpoint>
          <Trackpoint>
            <Time>2021-08-28T05:36:00.000Z</Time>
            <Position>
              <LatitudeDegrees>38.1644439697265625</LatitudeDegrees>
              <LongitudeDegrees>-1.8665749020874500274658203125</LongitudeDegrees>
            </Position>
            <AltitudeMeters>681</AltitudeMeters>
            <DistanceMeters>3398.7886515859</DistanceMeters>
          </Trackpoint>
          <Trackpoint>
            <Time>2021-08-28T05:36:04.000Z</Time>
            <Position>
              <LatitudeDegrees>38.16427825950086116790771484375</LatitudeDegrees>
              <LongitudeDegrees>-1.8665571324527263641357421875</LongitudeDegrees>
            </Position>
            <AltitudeMeters>681.5999755859375</AltitudeMeters>
            <DistanceMeters>3417.2981383504</DistanceMeters>
          </Trackpoint>
          <Trackpoint>
            <Time>2021-08-28T05:36:08.000Z</Time>
            <Position>
              <LatitudeDegrees>38.1641153991222381591796875</LatitudeDegrees>
              <LongitudeDegrees>-1.8665427155792713165283203125</LongitudeDegrees>
            </Position>
            <AltitudeMeters>682.20001220703125</AltitudeMeters>
            <DistanceMeters>3435.46862775</DistanceMeters>
          </Trackpoint>
          <Trackpoint>
            <Time>2021-08-28T05:36:10.000Z</Time>
            <Position>
              <LatitudeDegrees>38.1640327535569667816162109375</LatitudeDegrees>
              <LongitudeDegrees>-1.8665339983999729156494140625</LongitudeDegrees>
            </Position>
            <AltitudeMeters>682.4000244140625</AltitudeMeters>
            <DistanceMeters>3444.6984566309</DistanceMeters>
          </Trackpoint>
          <Trackpoint>
            <Time>2021-08-28T05:36:12.000Z</Time>
            <Position>
              <LatitudeDegrees>38.16394784487783908843994140625</LatitudeDegrees>
              <LongitudeDegrees>-1.86652704142034053802490234375</LongitudeDegrees>
            </Position>
            <AltitudeMeters>683</AltitudeMeters>
            <DistanceMeters>3454.1682871028</DistanceMeters>
          </Trackpoint>
          <Trackpoint>
            <Time>2021-08-28T05:36:15.000Z</Time>
            <Position>
              <LatitudeDegrees>38.16382613964378833770751953125</LatitudeDegrees>
              <LongitudeDegrees>-1.86654129065573215484619140625</LongitudeDegrees>
            </Position>
            <AltitudeMeters>683</AltitudeMeters>
            <DistanceMeters>3467.7717188965</DistanceMeters>
          </Trackpoint>
          <Trackpoint>
            <Time>2021-08-28T05:36:19.000Z</Time>
            <Position>
              <LatitudeDegrees>38.16365665756165981292724609375</LatitudeDegrees>
              <LongitudeDegrees>-1.8665145523846149444580078125</LongitudeDegrees>
            </Position>
            <AltitudeMeters>683</AltitudeMeters>
            <DistanceMeters>3486.7799123581</DistanceMeters>
          </Trackpoint>
          <Trackpoint>
            <Time>2021-08-28T05:36:20.000Z</Time>
            <Position>
              <LatitudeDegrees>38.163609802722930908203125</LatitudeDegrees>
              <LongitudeDegrees>-1.8665085174143314361572265625</LongitudeDegrees>
            </Position>
            <AltitudeMeters>683</AltitudeMeters>
            <DistanceMeters>3492.0227696607</DistanceMeters>
          </Trackpoint>
          <Trackpoint>
            <Time>2021-08-28T05:36:21.000Z</Time>
            <Position>
              <LatitudeDegrees>38.16356479190289974212646484375</LatitudeDegrees>
              <LongitudeDegrees>-1.86650424264371395111083984375</LongitudeDegrees>
            </Position>
            <AltitudeMeters>683</AltitudeMeters>
            <DistanceMeters>3497.0475177875</DistanceMeters>
          </Trackpoint>
          <Trackpoint>
            <Time>2021-08-28T05:36:26.000Z</Time>
            <Position>
              <LatitudeDegrees>38.163350634276866912841796875</LatitudeDegrees>
              <LongitudeDegrees>-1.86646501533687114715576171875</LongitudeDegrees>
            </Position>
            <AltitudeMeters>683</AltitudeMeters>
            <DistanceMeters>3521.129619638</DistanceMeters>
          </Trackpoint>
          <Trackpoint>
            <Time>2021-08-28T05:36:30.000Z</Time>
            <Position>
              <LatitudeDegrees>38.16318475641310214996337890625</LatitudeDegrees>
              <LongitudeDegrees>-1.8664018996059894561767578125</LongitudeDegrees>
            </Position>
            <AltitudeMeters>683.20001220703125</AltitudeMeters>
            <DistanceMeters>3540.4006062197</DistanceMeters>
          </Trackpoint>
          <Trackpoint>
            <Time>2021-08-28T05:36:31.000Z</Time>
            <Position>
              <LatitudeDegrees>38.16314301453530788421630859375</LatitudeDegrees>
              <LongitudeDegrees>-1.86638186685740947723388671875</LongitudeDegrees>
            </Position>
            <AltitudeMeters>683.4000244140625</AltitudeMeters>
            <DistanceMeters>3545.3666044848</DistanceMeters>
          </Trackpoint>
          <Trackpoint>
            <Time>2021-08-28T05:36:32.000Z</Time>
            <Position>
              <LatitudeDegrees>38.1631030328571796417236328125</LatitudeDegrees>
              <LongitudeDegrees>-1.866357140243053436279296875</LongitudeDegrees>
            </Position>
            <AltitudeMeters>683.4000244140625</AltitudeMeters>
            <DistanceMeters>3550.3152979806</DistanceMeters>
          </Trackpoint>
          <Trackpoint>
            <Time>2021-08-28T05:36:33.000Z</Time>
            <Position>
              <LatitudeDegrees>38.16306305117905139923095703125</LatitudeDegrees>
              <LongitudeDegrees>-1.86633023433387279510498046875</LongitudeDegrees>
            </Position>
            <AltitudeMeters>683.4000244140625</AltitudeMeters>
            <DistanceMeters>3555.350817284</DistanceMeters>
          </Trackpoint>
          <Trackpoint>
            <Time>2021-08-28T05:36:36.000Z</Time>
            <Position>
              <LatitudeDegrees>38.162942938506603240966796875</LatitudeDegrees>
              <LongitudeDegrees>-1.86625345610082149505615234375</LongitudeDegrees>
            </Position>
            <AltitudeMeters>683.5999755859375</AltitudeMeters>
            <DistanceMeters>3570.3129235903</DistanceMeters>
          </Trackpoint>
          <Trackpoint>
            <Time>2021-08-28T05:36:40.000Z</Time>
            <Position>
              <LatitudeDegrees>38.162789382040500640869140625</LatitudeDegrees>
              <LongitudeDegrees>-1.866151951253414154052734375</LongitudeDegrees>
            </Position>
            <AltitudeMeters>683.79998779296875</AltitudeMeters>
            <DistanceMeters>3589.5747706163</DistanceMeters>
          </Trackpoint>
          <Trackpoint>
            <Time>2021-08-28T05:36:43.000Z</Time>
            <Position>
              <LatitudeDegrees>38.1626782380044460296630859375</LatitudeDegrees>
              <LongitudeDegrees>-1.866074502468109130859375</LongitudeDegrees>
            </Position>
            <AltitudeMeters>684.20001220703125</AltitudeMeters>
            <DistanceMeters>3603.6803973081</DistanceMeters>
          </Trackpoint>
          <Trackpoint>
            <Time>2021-08-28T05:36:50.000Z</Time>
            <Position>
              <LatitudeDegrees>38.16242619417607784271240234375</LatitudeDegrees>
              <LongitudeDegrees>-1.86590460129082202911376953125</LongitudeDegrees>
            </Position>
            <AltitudeMeters>684.4000244140625</AltitudeMeters>
            <DistanceMeters>3635.4301294895</DistanceMeters>
          </Trackpoint>
          <Trackpoint>
            <Time>2021-08-28T05:36:52.000Z</Time>
            <Position>
              <LatitudeDegrees>38.16235528327524662017822265625</LatitudeDegrees>
              <LongitudeDegrees>-1.8658557347953319549560546875</LongitudeDegrees>
            </Position>
            <AltitudeMeters>684.5999755859375</AltitudeMeters>
            <DistanceMeters>3644.4070110296</DistanceMeters>
          </Trackpoint>
          <Trackpoint>
            <Time>2021-08-28T05:36:58.000Z</Time>
            <Position>
              <LatitudeDegrees>38.16214330494403839111328125</LatitudeDegrees>
              <LongitudeDegrees>-1.86571701429784297943115234375</LongitudeDegrees>
            </Position>
            <AltitudeMeters>685.5999755859375</AltitudeMeters>
            <DistanceMeters>3670.9407431461</DistanceMeters>
          </Trackpoint>
          <Trackpoint>
            <Time>2021-08-28T05:37:00.000Z</Time>
            <Position>
              <LatitudeDegrees>38.162073902785778045654296875</LatitudeDegrees>
              <LongitudeDegrees>-1.8656703270971775054931640625</LongitudeDegrees>
            </Position>
            <AltitudeMeters>686</AltitudeMeters>
            <DistanceMeters>3679.6790682952</DistanceMeters>
          </Trackpoint>
          <Trackpoint>
            <Time>2021-08-28T05:37:10.000Z</Time>
            <Position>
              <LatitudeDegrees>38.1617200188338756561279296875</LatitudeDegrees>
              <LongitudeDegrees>-1.86542733572423458099365234375</LongitudeDegrees>
            </Position>
            <AltitudeMeters>686.5999755859375</AltitudeMeters>
            <DistanceMeters>3724.4408874229</DistanceMeters>
          </Trackpoint>
          <Trackpoint>
            <Time>2021-08-28T05:37:11.000Z</Time>
            <Position>
              <LatitudeDegrees>38.16168355755507946014404296875</LatitudeDegrees>
              <LongitudeDegrees>-1.8654037825763225555419921875</LongitudeDegrees>
            </Position>
            <AltitudeMeters>686.5999755859375</AltitudeMeters>
            <DistanceMeters>3728.9922603325</DistanceMeters>
          </Trackpoint>
          <Trackpoint>
            <Time>2021-08-28T05:37:17.000Z</Time>
            <Position>
              <LatitudeDegrees>38.16145204938948154449462890625</LatitudeDegrees>
              <LongitudeDegrees>-1.86526187695562839508056640625</LongitudeDegrees>
            </Position>
            <AltitudeMeters>688</AltitudeMeters>
            <DistanceMeters>3757.5960906054</DistanceMeters>
          </Trackpoint>
          <Trackpoint>
            <Time>2021-08-28T05:37:20.000Z</Time>
            <Position>
              <LatitudeDegrees>38.1613331101834774017333984375</LatitudeDegrees>
              <LongitudeDegrees>-1.86518509872257709503173828125</LongitudeDegrees>
            </Position>
            <AltitudeMeters>688.4000244140625</AltitudeMeters>
            <DistanceMeters>3772.4418669667</DistanceMeters>
          </Trackpoint>
          <Trackpoint>
            <Time>2021-08-28T05:37:26.000Z</Time>
            <Position>
              <LatitudeDegrees>38.1610776297748088836669921875</LatitudeDegrees>
              <LongitudeDegrees>-1.86501511372625827789306640625</LongitudeDegrees>
            </Position>
            <AltitudeMeters>688.79998779296875</AltitudeMeters>
            <DistanceMeters>3804.5336138564</DistanceMeters>
          </Trackpoint>
          <Trackpoint>
            <Time>2021-08-28T05:37:27.000Z</Time>
            <Position>
              <LatitudeDegrees>38.16103127785027027130126953125</LatitudeDegrees>
              <LongitudeDegrees>-1.8649843521416187286376953125</LongitudeDegrees>
            </Position>
            <AltitudeMeters>689</AltitudeMeters>
            <DistanceMeters>3810.3520119683</DistanceMeters>
          </Trackpoint>
          <Trackpoint>
            <Time>2021-08-28T05:37:28.000Z</Time>
            <Position>
              <LatitudeDegrees>38.1609827466309070587158203125</LatitudeDegrees>
              <LongitudeDegrees>-1.86495292000472545623779296875</LongitudeDegrees>
            </Position>
            <AltitudeMeters>689.20001220703125</AltitudeMeters>
            <DistanceMeters>3816.4128989474</DistanceMeters>
          </Trackpoint>
          <Trackpoint>
            <Time>2021-08-28T05:37:30.000Z</Time>
            <Position>
              <LatitudeDegrees>38.16088266670703887939453125</LatitudeDegrees>
              <LongitudeDegrees>-1.86488804407417774200439453125</LongitudeDegrees>
            </Position>
            <AltitudeMeters>689.4000244140625</AltitudeMeters>
            <DistanceMeters>3828.9153236421</DistanceMeters>
          </Trackpoint>
          <Trackpoint>
            <Time>2021-08-28T05:37:37.000Z</Time>
            <Position>
              <LatitudeDegrees>38.1605153717100620269775390625</LatitudeDegrees>
              <LongitudeDegrees>-1.86464312486350536346435546875</LongitudeDegrees>
            </Position>
            <AltitudeMeters>689.79998779296875</AltitudeMeters>
            <DistanceMeters>3875.0742505897</DistanceMeters>
          </Trackpoint>
          <Trackpoint>
            <Time>2021-08-28T05:37:40.000Z</Time>
            <Position>
              <LatitudeDegrees>38.1603510864078998565673828125</LatitudeDegrees>
              <LongitudeDegrees>-1.86453315429389476776123046875</LongitudeDegrees>
            </Position>
            <AltitudeMeters>689.79998779296875</AltitudeMeters>
            <DistanceMeters>3895.7376998317</DistanceMeters>
          </Trackpoint>
          <Trackpoint>
            <Time>2021-08-28T05:37:41.000Z</Time>
            <Position>
              <LatitudeDegrees>38.1602950952947139739990234375</LatitudeDegrees>
              <LongitudeDegrees>-1.86449401080608367919921875</LongitudeDegrees>
            </Position>
            <AltitudeMeters>689.4000244140625</AltitudeMeters>
            <DistanceMeters>3902.8501177215</DistanceMeters>
          </Trackpoint>
          <Trackpoint>
            <Time>2021-08-28T05:37:44.000Z</Time>
            <Position>
              <LatitudeDegrees>38.16013458184897899627685546875</LatitudeDegrees>
              <LongitudeDegrees>-1.8643811903893947601318359375</LongitudeDegrees>
            </Position>
            <AltitudeMeters>689.20001220703125</AltitudeMeters>
            <DistanceMeters>3923.2625107042</DistanceMeters>
          </Trackpoint>
          <Trackpoint>
            <Time>2021-08-28T05:37:50.000Z</Time>
            <Position>
              <LatitudeDegrees>38.159798718988895416259765625</LatitudeDegrees>
              <LongitudeDegrees>-1.86416468583047389984130859375</LongitudeDegrees>
            </Position>
            <AltitudeMeters>689.79998779296875</AltitudeMeters>
            <DistanceMeters>3965.1724160861</DistanceMeters>
          </Trackpoint>
          <Trackpoint>
            <Time>2021-08-28T05:37:52.000Z</Time>
            <Position>
              <LatitudeDegrees>38.15969067625701427459716796875</LatitudeDegrees>
              <LongitudeDegrees>-1.86409109272062778472900390625</LongitudeDegrees>
            </Position>
            <AltitudeMeters>689.79998779296875</AltitudeMeters>
            <DistanceMeters>3978.814294455</DistanceMeters>
          </Trackpoint>
          <Trackpoint>
            <Time>2021-08-28T05:37:54.000Z</Time>
            <Position>
              <LatitudeDegrees>38.159582130610942840576171875</LatitudeDegrees>
              <LongitudeDegrees>-1.8640291504561901092529296875</LongitudeDegrees>
            </Position>
            <AltitudeMeters>690</AltitudeMeters>
            <DistanceMeters>3992.0561230443</DistanceMeters>
          </Trackpoint>
          <Trackpoint>
            <Time>2021-08-28T05:37:57.000Z</Time>
            <Position>
              <LatitudeDegrees>38.15942279063165187835693359375</LatitudeDegrees>
              <LongitudeDegrees>-1.86393217183649539947509765625</LongitudeDegrees>
            </Position>
            <AltitudeMeters>691</AltitudeMeters>
            <DistanceMeters>4011.7172398085</DistanceMeters>
          </Trackpoint>
          <Trackpoint>
            <Time>2021-08-28T05:38:00.000Z</Time>
            <Position>
              <LatitudeDegrees>38.15926797688007354736328125</LatitudeDegrees>
              <LongitudeDegrees>-1.86383150517940521240234375</LongitudeDegrees>
            </Position>
            <AltitudeMeters>691.20001220703125</AltitudeMeters>
            <DistanceMeters>4031.0698215616</DistanceMeters>
          </Trackpoint>
          <Trackpoint>
            <Time>2021-08-28T05:38:01.000Z</Time>
            <Position>
              <LatitudeDegrees>38.15921240486204624176025390625</LatitudeDegrees>
              <LongitudeDegrees>-1.8637964688241481781005859375</LongitudeDegrees>
            </Position>
            <AltitudeMeters>691.20001220703125</AltitudeMeters>
            <DistanceMeters>4037.9728436096</DistanceMeters>
          </Trackpoint>
          <Trackpoint>
            <Time>2021-08-28T05:38:10.000Z</Time>
            <Position>
              <LatitudeDegrees>38.1587149389088153839111328125</LatitudeDegrees>
              <LongitudeDegrees>-1.8634705804288387298583984375</LongitudeDegrees>
            </Position>
            <AltitudeMeters>691.79998779296875</AltitudeMeters>
            <DistanceMeters>4100.2556604125</DistanceMeters>
          </Trackpoint>
          <Trackpoint>
            <Time>2021-08-28T05:38:13.000Z</Time>
            <Position>
              <LatitudeDegrees>38.15854269079864025115966796875</LatitudeDegrees>
              <LongitudeDegrees>-1.8633552454411983489990234375</LongitudeDegrees>
            </Position>
            <AltitudeMeters>692</AltitudeMeters>
            <DistanceMeters>4121.9221680687</DistanceMeters>
          </Trackpoint>
          <Trackpoint>
            <Time>2021-08-28T05:38:17.000Z</Time>
            <Position>
              <LatitudeDegrees>38.1582965143024921417236328125</LatitudeDegrees>
              <LongitudeDegrees>-1.8631906248629093170166015625</LongitudeDegrees>
            </Position>
            <AltitudeMeters>691.5999755859375</AltitudeMeters>
            <DistanceMeters>4152.8790072596</DistanceMeters>
          </Trackpoint>
          <Trackpoint>
            <Time>2021-08-28T05:38:20.000Z</Time>
            <Position>
              <LatitudeDegrees>38.1581013835966587066650390625</LatitudeDegrees>
              <LongitudeDegrees>-1.86305760405957698822021484375</LongitudeDegrees>
            </Position>
            <AltitudeMeters>691.5999755859375</AltitudeMeters>
            <DistanceMeters>4177.5208103673</DistanceMeters>
          </Trackpoint>
          <Trackpoint>
            <Time>2021-08-28T05:38:23.000Z</Time>
            <Position>
              <LatitudeDegrees>38.15790365450084209442138671875</LatitudeDegrees>
              <LongitudeDegrees>-1.86291947029531002044677734375</LongitudeDegrees>
            </Position>
            <AltitudeMeters>691.4000244140625</AltitudeMeters>
            <DistanceMeters>4202.6301699234</DistanceMeters>
          </Trackpoint>
          <Trackpoint>
            <Time>2021-08-28T05:38:24.000Z</Time>
            <Position>
              <LatitudeDegrees>38.15783827565610408782958984375</LatitudeDegrees>
              <LongitudeDegrees>-1.86286582611501216888427734375</LongitudeDegrees>
            </Position>
            <AltitudeMeters>691.5999755859375</AltitudeMeters>
            <DistanceMeters>4211.2896014746</DistanceMeters>
          </Trackpoint>
          <Trackpoint>
            <Time>2021-08-28T05:38:28.000Z</Time>
            <Position>
              <LatitudeDegrees>38.15755915828049182891845703125</LatitudeDegrees>
              <LongitudeDegrees>-1.8626162968575954437255859375</LongitudeDegrees>
            </Position>
            <AltitudeMeters>691</AltitudeMeters>
            <DistanceMeters>4249.263684314</DistanceMeters>
          </Trackpoint>
          <Trackpoint>
            <Time>2021-08-28T05:38:30.000Z</Time>
            <Position>
              <LatitudeDegrees>38.15740258432924747467041015625</LatitudeDegrees>
              <LongitudeDegrees>-1.8624774925410747528076171875</LongitudeDegrees>
            </Position>
            <AltitudeMeters>690.5999755859375</AltitudeMeters>
            <DistanceMeters>4270.5067782556</DistanceMeters>
          </Trackpoint>
          <Trackpoint>
            <Time>2021-08-28T05:38:33.000Z</Time>
            <Position>
              <LatitudeDegrees>38.1571559049189090728759765625</LatitudeDegrees>
              <LongitudeDegrees>-1.86224958859384059906005859375</LongitudeDegrees>
            </Position>
            <AltitudeMeters>689.79998779296875</AltitudeMeters>
            <DistanceMeters>4304.4428921957</DistanceMeters>
          </Trackpoint>
          <Trackpoint>
            <Time>2021-08-28T05:38:36.000Z</Time>
            <Position>
              <LatitudeDegrees>38.15690939314663410186767578125</LatitudeDegrees>
              <LongitudeDegrees>-1.86200936324894428253173828125</LongitudeDegrees>
            </Position>
            <AltitudeMeters>688.5999755859375</AltitudeMeters>
            <DistanceMeters>4339.009112625</DistanceMeters>
          </Trackpoint>
          <Trackpoint>
            <Time>2021-08-28T05:38:37.000Z</Time>
            <Position>
              <LatitudeDegrees>38.15682356245815753936767578125</LatitudeDegrees>
              <LongitudeDegrees>-1.86192847788333892822265625</LongitudeDegrees>
            </Position>
            <AltitudeMeters>688.20001220703125</AltitudeMeters>
            <DistanceMeters>4350.8992293951</DistanceMeters>
          </Trackpoint>
          <Trackpoint>
            <Time>2021-08-28T05:38:38.000Z</Time>
            <Position>
              <LatitudeDegrees>38.15674074925482273101806640625</LatitudeDegrees>
              <LongitudeDegrees>-1.86185161583125591278076171875</LongitudeDegrees>
            </Position>
            <AltitudeMeters>688</AltitudeMeters>
            <DistanceMeters>4362.3099555878</DistanceMeters>
          </Trackpoint>
          <Trackpoint>
            <Time>2021-08-28T05:38:40.000Z</Time>
            <Position>
              <LatitudeDegrees>38.15658199600875377655029296875</LatitudeDegrees>
              <LongitudeDegrees>-1.86169386841356754302978515625</LongitudeDegrees>
            </Position>
            <AltitudeMeters>687.5999755859375</AltitudeMeters>
            <DistanceMeters>4384.733441413</DistanceMeters>
          </Trackpoint>
          <Trackpoint>
            <Time>2021-08-28T05:38:41.000Z</Time>
            <Position>
              <LatitudeDegrees>38.15650689415633678436279296875</LatitudeDegrees>
              <LongitudeDegrees>-1.86161725781857967376708984375</LongitudeDegrees>
            </Position>
            <AltitudeMeters>687.4000244140625</AltitudeMeters>
            <DistanceMeters>4395.4491519383</DistanceMeters>
          </Trackpoint>
          <Trackpoint>
            <Time>2021-08-28T05:38:45.000Z</Time>
            <Position>
              <LatitudeDegrees>38.15621738322079181671142578125</LatitudeDegrees>
              <LongitudeDegrees>-1.86133998446166515350341796875</LongitudeDegrees>
            </Position>
            <AltitudeMeters>686.20001220703125</AltitudeMeters>
            <DistanceMeters>4435.7878522784</DistanceMeters>
          </Trackpoint>
          <Trackpoint>
            <Time>2021-08-28T05:38:48.000Z</Time>
            <Position>
              <LatitudeDegrees>38.15599123947322368621826171875</LatitudeDegrees>
              <LongitudeDegrees>-1.86114703305065631866455078125</LongitudeDegrees>
            </Position>
            <AltitudeMeters>685.5999755859375</AltitudeMeters>
            <DistanceMeters>4466.0979482409</DistanceMeters>
          </Trackpoint>
          <Trackpoint>
            <Time>2021-08-28T05:38:50.000Z</Time>
            <Position>
              <LatitudeDegrees>38.1558479927480220794677734375</LatitudeDegrees>
              <LongitudeDegrees>-1.86101652681827545166015625</LongitudeDegrees>
            </Position>
            <AltitudeMeters>685.4000244140625</AltitudeMeters>
            <DistanceMeters>4485.7107806819</DistanceMeters>
          </Trackpoint>
          <Trackpoint>
            <Time>2021-08-28T05:38:53.000Z</Time>
            <Position>
              <LatitudeDegrees>38.1556355953216552734375</LatitudeDegrees>
              <LongitudeDegrees>-1.8608172051608562469482421875</LongitudeDegrees>
            </Position>
            <AltitudeMeters>685.20001220703125</AltitudeMeters>
            <DistanceMeters>4515.0906373392</DistanceMeters>
          </Trackpoint>
          <Trackpoint>
            <Time>2021-08-28T05:38:58.000Z</Time>
            <Position>
              <LatitudeDegrees>38.15525832585990428924560546875</LatitudeDegrees>
              <LongitudeDegrees>-1.86047480441629886627197265625</LongitudeDegrees>
            </Position>
            <AltitudeMeters>684</AltitudeMeters>
            <DistanceMeters>4566.6781541331</DistanceMeters>
          </Trackpoint>
          <Trackpoint>
            <Time>2021-08-28T05:39:00.000Z</Time>
            <Position>
              <LatitudeDegrees>38.15509923733770847320556640625</LatitudeDegrees>
              <LongitudeDegrees>-1.8603236787021160125732421875</LongitudeDegrees>
            </Position>
            <AltitudeMeters>683.4000244140625</AltitudeMeters>
            <DistanceMeters>4588.7797826984</DistanceMeters>
          </Trackpoint>
          <Trackpoint>
            <Time>2021-08-28T05:39:01.000Z</Time>
            <Position>
              <LatitudeDegrees>38.15501541830599308013916015625</LatitudeDegrees>
              <LongitudeDegrees>-1.86024748720228672027587890625</LongitudeDegrees>
            </Position>
            <AltitudeMeters>683</AltitudeMeters>
            <DistanceMeters>4600.2469520604</DistanceMeters>
          </Trackpoint>
          <Trackpoint>
            <Time>2021-08-28T05:39:04.000Z</Time>
            <Position>
              <LatitudeDegrees>38.15478198230266571044921875</LatitudeDegrees>
              <LongitudeDegrees>-1.860025785863399505615234375</LongitudeDegrees>
            </Position>
            <AltitudeMeters>681.5999755859375</AltitudeMeters>
            <DistanceMeters>4632.6747400204</DistanceMeters>
          </Trackpoint>
          <Trackpoint>
            <Time>2021-08-28T05:39:08.000Z</Time>
            <Position>
              <LatitudeDegrees>38.15447084605693817138671875</LatitudeDegrees>
              <LongitudeDegrees>-1.8597476743161678314208984375</LongitudeDegrees>
            </Position>
            <AltitudeMeters>682</AltitudeMeters>
            <DistanceMeters>4675.0035683512</DistanceMeters>
          </Trackpoint>
          <Trackpoint>
            <Time>2021-08-28T05:39:10.000Z</Time>
            <Position>
              <LatitudeDegrees>38.15432642586529254913330078125</LatitudeDegrees>
              <LongitudeDegrees>-1.85961985029280185699462890625</LongitudeDegrees>
            </Position>
            <AltitudeMeters>682</AltitudeMeters>
            <DistanceMeters>4694.5878341501</DistanceMeters>
          </Trackpoint>
          <Trackpoint>
            <Time>2021-08-28T05:39:16.000Z</Time>
            <Position>
              <LatitudeDegrees>38.1539124436676502227783203125</LatitudeDegrees>
              <LongitudeDegrees>-1.85925104655325412750244140625</LongitudeDegrees>
            </Position>
            <AltitudeMeters>681.4000244140625</AltitudeMeters>
            <DistanceMeters>4750.8462172883</DistanceMeters>
          </Trackpoint>
          <Trackpoint>
            <Time>2021-08-28T05:39:20.000Z</Time>
            <Position>
              <LatitudeDegrees>38.15366291441023349761962890625</LatitudeDegrees>
              <LongitudeDegrees>-1.8590216338634490966796875</LongitudeDegrees>
            </Position>
            <AltitudeMeters>681.5999755859375</AltitudeMeters>
            <DistanceMeters>4785.1171509301</DistanceMeters>
          </Trackpoint>
          <Trackpoint>
            <Time>2021-08-28T05:39:23.000Z</Time>
            <Position>
              <LatitudeDegrees>38.153479434549808502197265625</LatitudeDegrees>
              <LongitudeDegrees>-1.8588553369045257568359375</LongitudeDegrees>
            </Position>
            <AltitudeMeters>681.5999755859375</AltitudeMeters>
            <DistanceMeters>4810.194843086</DistanceMeters>
          </Trackpoint>
          <Trackpoint>
            <Time>2021-08-28T05:39:28.000Z</Time>
            <Position>
              <LatitudeDegrees>38.1531889177858829498291015625</LatitudeDegrees>
              <LongitudeDegrees>-1.8585817515850067138671875</LongitudeDegrees>
            </Position>
            <AltitudeMeters>681.5999755859375</AltitudeMeters>
            <DistanceMeters>4850.4307743543</DistanceMeters>
          </Trackpoint>
          <Trackpoint>
            <Time>2021-08-28T05:39:30.000Z</Time>
            <Position>
              <LatitudeDegrees>38.153070397675037384033203125</LatitudeDegrees>
              <LongitudeDegrees>-1.85847421176731586456298828125</LongitudeDegrees>
            </Position>
            <AltitudeMeters>681.5999755859375</AltitudeMeters>
            <DistanceMeters>4866.6355459661</DistanceMeters>
          </Trackpoint>
          <Trackpoint>
            <Time>2021-08-28T05:39:31.000Z</Time>
            <Position>
              <LatitudeDegrees>38.1530139036476612091064453125</LatitudeDegrees>
              <LongitudeDegrees>-1.85842157341539859771728515625</LongitudeDegrees>
            </Position>
            <AltitudeMeters>681.5999755859375</AltitudeMeters>
            <DistanceMeters>4874.4300539246</DistanceMeters>
          </Trackpoint>
          <Trackpoint>
            <Time>2021-08-28T05:39:37.000Z</Time>
            <Position>
              <LatitudeDegrees>38.15265893004834651947021484375</LatitudeDegrees>
              <LongitudeDegrees>-1.85818201862275600433349609375</LongitudeDegrees>
            </Position>
            <AltitudeMeters>682</AltitudeMeters>
            <DistanceMeters>4919.1578675964</DistanceMeters>
          </Trackpoint>
          <Trackpoint>
            <Time>2021-08-28T05:39:39.000Z</Time>
            <Position>
              <LatitudeDegrees>38.1525170244276523590087890625</LatitudeDegrees>
              <LongitudeDegrees>-1.858168356120586395263671875</LongitudeDegrees>
            </Position>
            <AltitudeMeters>682.4000244140625</AltitudeMeters>
            <DistanceMeters>4934.9974270574</DistanceMeters>
          </Trackpoint>
          <Trackpoint>
            <Time>2021-08-28T05:39:40.000Z</Time>
            <Position>
              <LatitudeDegrees>38.15244711935520172119140625</LatitudeDegrees>
              <LongitudeDegrees>-1.85817045159637928009033203125</LongitudeDegrees>
            </Position>
            <AltitudeMeters>682.4000244140625</AltitudeMeters>
            <DistanceMeters>4942.7803412151</DistanceMeters>
          </Trackpoint>
          <Trackpoint>
            <Time>2021-08-28T05:39:41.000Z</Time>
            <Position>
              <LatitudeDegrees>38.152379058301448822021484375</LatitudeDegrees>
              <LongitudeDegrees>-1.85817397199571132659912109375</LongitudeDegrees>
            </Position>
            <AltitudeMeters>682.4000244140625</AltitudeMeters>
            <DistanceMeters>4950.3622582974</DistanceMeters>
          </Trackpoint>
          <Trackpoint>
            <Time>2021-08-28T05:39:43.000Z</Time>
            <Position>
              <LatitudeDegrees>38.1522327102720737457275390625</LatitudeDegrees>
              <LongitudeDegrees>-1.858194172382354736328125</LongitudeDegrees>
            </Position>
            <AltitudeMeters>682.5999755859375</AltitudeMeters>
            <DistanceMeters>4966.7465835055</DistanceMeters>
          </Trackpoint>
          <Trackpoint>
            <Time>2021-08-28T05:39:47.000Z</Time>
            <Position>
              <LatitudeDegrees>38.15195384435355663299560546875</LatitudeDegrees>
              <LongitudeDegrees>-1.8582449667155742645263671875</LongitudeDegrees>
            </Position>
            <AltitudeMeters>683.5999755859375</AltitudeMeters>
            <DistanceMeters>4998.1016555475</DistanceMeters>
          </Trackpoint>
          <Trackpoint>
            <Time>2021-08-28T05:39:48.000Z</Time>
            <Position>
              <LatitudeDegrees>38.15188561566174030303955078125</LatitudeDegrees>
              <LongitudeDegrees>-1.858257539570331573486328125</LongitudeDegrees>
            </Position>
            <AltitudeMeters>683.5999755859375</AltitudeMeters>
            <DistanceMeters>5005.7759085123</DistanceMeters>
          </Trackpoint>
          <Trackpoint>
            <Time>2021-08-28T05:39:50.000Z</Time>
            <Position>
              <LatitudeDegrees>38.15174815244972705841064453125</LatitudeDegrees>
              <LongitudeDegrees>-1.85828913934528827667236328125</LongitudeDegrees>
            </Position>
            <AltitudeMeters>683.79998779296875</AltitudeMeters>
            <DistanceMeters>5021.323742651</DistanceMeters>
          </Trackpoint>
          <Trackpoint>
            <Time>2021-08-28T05:39:54.000Z</Time>
            <Position>
              <LatitudeDegrees>38.15148152410984039306640625</LatitudeDegrees>
              <LongitudeDegrees>-1.85835049487650394439697265625</LongitudeDegrees>
            </Position>
            <AltitudeMeters>684.4000244140625</AltitudeMeters>
            <DistanceMeters>5051.482113953</DistanceMeters>
          </Trackpoint>
          <Trackpoint>
            <Time>2021-08-28T05:40:00.000Z</Time>
            <Position>
              <LatitudeDegrees>38.15108547918498516082763671875</LatitudeDegrees>
              <LongitudeDegrees>-1.85845158062875270843505859375</LongitudeDegrees>
            </Position>
            <AltitudeMeters>684.79998779296875</AltitudeMeters>
            <DistanceMeters>5096.4419027869</DistanceMeters>
          </Trackpoint>
          <Trackpoint>
            <Time>2021-08-28T05:40:08.000Z</Time>
            <Position>
              <LatitudeDegrees>38.15058231353759765625</LatitudeDegrees>
              <LongitudeDegrees>-1.8585393391549587249755859375</LongitudeDegrees>
            </Position>
            <AltitudeMeters>685.5999755859375</AltitudeMeters>
            <DistanceMeters>5152.9696203287</DistanceMeters>
          </Trackpoint>
          <Trackpoint>
            <Time>2021-08-28T05:40:09.000Z</Time>
            <Position>
              <LatitudeDegrees>38.15051785670220851898193359375</LatitudeDegrees>
              <LongitudeDegrees>-1.85854487121105194091796875</LongitudeDegrees>
            </Position>
            <AltitudeMeters>685.79998779296875</AltitudeMeters>
            <DistanceMeters>5160.1603238908</DistanceMeters>
          </Trackpoint>
          <Trackpoint>
            <Time>2021-08-28T05:40:10.000Z</Time>
            <Position>
              <LatitudeDegrees>38.1504537351429462432861328125</LatitudeDegrees>
              <LongitudeDegrees>-1.8585453741252422332763671875</LongitudeDegrees>
            </Position>
            <AltitudeMeters>686</AltitudeMeters>
            <DistanceMeters>5167.2968238133</DistanceMeters>
          </Trackpoint>
          <Trackpoint>
            <Time>2021-08-28T05:40:13.000Z</Time>
            <Position>
              <LatitudeDegrees>38.15025935880839824676513671875</LatitudeDegrees>
              <LongitudeDegrees>-1.858502291142940521240234375</LongitudeDegrees>
            </Position>
            <AltitudeMeters>686.5999755859375</AltitudeMeters>
            <DistanceMeters>5189.257248731</DistanceMeters>
          </Trackpoint>
          <Trackpoint>
            <Time>2021-08-28T05:40:16.000Z</Time>
            <Position>
              <LatitudeDegrees>38.15006154589354991912841796875</LatitudeDegrees>
              <LongitudeDegrees>-1.85843548737466335296630859375</LongitudeDegrees>
            </Position>
            <AltitudeMeters>687</AltitudeMeters>
            <DistanceMeters>5212.0373146441</DistanceMeters>
          </Trackpoint>
          <Trackpoint>
            <Time>2021-08-28T05:40:20.000Z</Time>
            <Position>
              <LatitudeDegrees>38.14979298971593379974365234375</LatitudeDegrees>
              <LongitudeDegrees>-1.85834161005914211273193359375</LongitudeDegrees>
            </Position>
            <AltitudeMeters>688</AltitudeMeters>
            <DistanceMeters>5243.0370039194</DistanceMeters>
          </Trackpoint>
          <Trackpoint>
            <Time>2021-08-28T05:40:21.000Z</Time>
            <Position>
              <LatitudeDegrees>38.149726688861846923828125</LatitudeDegrees>
              <LongitudeDegrees>-1.85832082293927669525146484375</LongitudeDegrees>
            </Position>
            <AltitudeMeters>688</AltitudeMeters>
            <DistanceMeters>5250.6379531423</DistanceMeters>
          </Trackpoint>
          <Trackpoint>
            <Time>2021-08-28T05:40:29.000Z</Time>
            <Position>
              <LatitudeDegrees>38.1492370180785655975341796875</LatitudeDegrees>
              <LongitudeDegrees>-1.85815460979938507080078125</LongitudeDegrees>
            </Position>
            <AltitudeMeters>688.20001220703125</AltitudeMeters>
            <DistanceMeters>5307.0475749064</DistanceMeters>
          </Trackpoint>
          <Trackpoint>
            <Time>2021-08-28T05:40:30.000Z</Time>
            <Position>
              <LatitudeDegrees>38.14917658455669879913330078125</LatitudeDegrees>
              <LongitudeDegrees>-1.85813323594629764556884765625</LongitudeDegrees>
            </Position>
            <AltitudeMeters>688.4000244140625</AltitudeMeters>
            <DistanceMeters>5314.029290501</DistanceMeters>
          </Trackpoint>
          <Trackpoint>
            <Time>2021-08-28T05:40:35.000Z</Time>
            <Position>
              <LatitudeDegrees>38.14883108250796794891357421875</LatitudeDegrees>
              <LongitudeDegrees>-1.85802460648119449615478515625</LongitudeDegrees>
            </Position>
            <AltitudeMeters>688.5999755859375</AltitudeMeters>
            <DistanceMeters>5353.6424390007</DistanceMeters>
          </Trackpoint>
          <Trackpoint>
            <Time>2021-08-28T05:40:40.000Z</Time>
            <Position>
              <LatitudeDegrees>38.14843847416341304779052734375</LatitudeDegrees>
              <LongitudeDegrees>-1.8578889034688472747802734375</LongitudeDegrees>
            </Position>
            <AltitudeMeters>688</AltitudeMeters>
            <DistanceMeters>5398.9260335947</DistanceMeters>
          </Trackpoint>
          <Trackpoint>
            <Time>2021-08-28T05:40:42.000Z</Time>
            <Position>
              <LatitudeDegrees>38.148269243538379669189453125</LatitudeDegrees>
              <LongitudeDegrees>-1.85783165507018566131591796875</LongitudeDegrees>
            </Position>
            <AltitudeMeters>687.5999755859375</AltitudeMeters>
            <DistanceMeters>5418.4171686585</DistanceMeters>
          </Trackpoint>
          <Trackpoint>
            <Time>2021-08-28T05:40:44.000Z</Time>
            <Position>
              <LatitudeDegrees>38.14809397794306278228759765625</LatitudeDegrees>
              <LongitudeDegrees>-1.85777080245316028594970703125</LongitudeDegrees>
            </Position>
            <AltitudeMeters>686.4000244140625</AltitudeMeters>
            <DistanceMeters>5438.6388892007</DistanceMeters>
          </Trackpoint>
          <Trackpoint>
            <Time>2021-08-28T05:40:49.000Z</Time>
            <Position>
              <LatitudeDegrees>38.1476520001888275146484375</LatitudeDegrees>
              <LongitudeDegrees>-1.85762143693864345550537109375</LongitudeDegrees>
            </Position>
            <AltitudeMeters>685.4000244140625</AltitudeMeters>
            <DistanceMeters>5489.5395121145</DistanceMeters>
          </Trackpoint>
          <Trackpoint>
            <Time>2021-08-28T05:40:50.000Z</Time>
            <Position>
              <LatitudeDegrees>38.14756558276712894439697265625</LatitudeDegrees>
              <LongitudeDegrees>-1.8575920164585113525390625</LongitudeDegrees>
            </Position>
            <AltitudeMeters>685.4000244140625</AltitudeMeters>
            <DistanceMeters>5499.496933435</DistanceMeters>
          </Trackpoint>
          <Trackpoint>
            <Time>2021-08-28T05:40:52.000Z</Time>
            <Position>
              <LatitudeDegrees>38.14739777706563472747802734375</LatitudeDegrees>
              <LongitudeDegrees>-1.8575351871550083160400390625</LongitudeDegrees>
            </Position>
            <AltitudeMeters>684.79998779296875</AltitudeMeters>
            <DistanceMeters>5518.8250027252</DistanceMeters>
          </Trackpoint>
          <Trackpoint>
            <Time>2021-08-28T05:40:55.000Z</Time>
            <Position>
              <LatitudeDegrees>38.14715646207332611083984375</LatitudeDegrees>
              <LongitudeDegrees>-1.85745052993297576904296875</LongitudeDegrees>
            </Position>
            <AltitudeMeters>684.20001220703125</AltitudeMeters>
            <DistanceMeters>5546.6872826357</DistanceMeters>
          </Trackpoint>
          <Trackpoint>
            <Time>2021-08-28T05:40:58.000Z</Time>
            <Position>
              <LatitudeDegrees>38.14692771993577480316162109375</LatitudeDegrees>
              <LongitudeDegrees>-1.85737408697605133056640625</LongitudeDegrees>
            </Position>
            <AltitudeMeters>684</AltitudeMeters>
            <DistanceMeters>5573.0112262263</DistanceMeters>
          </Trackpoint>
          <Trackpoint>
            <Time>2021-08-28T05:41:00.000Z</Time>
            <Position>
              <LatitudeDegrees>38.146783299744129180908203125</LatitudeDegrees>
              <LongitudeDegrees>-1.85732488520443439483642578125</LongitudeDegrees>
            </Position>
            <AltitudeMeters>684</AltitudeMeters>
            <DistanceMeters>5589.6525718564</DistanceMeters>
          </Trackpoint>
          <Trackpoint>
            <Time>2021-08-28T05:41:04.000Z</Time>
            <Position>
              <LatitudeDegrees>38.14652077853679656982421875</LatitudeDegrees>
              <LongitudeDegrees>-1.857233941555023193359375</LongitudeDegrees>
            </Position>
            <AltitudeMeters>685.4000244140625</AltitudeMeters>
            <DistanceMeters>5619.9367374212</DistanceMeters>
          </Trackpoint>
          <Trackpoint>
            <Time>2021-08-28T05:41:07.000Z</Time>
            <Position>
              <LatitudeDegrees>38.14633629284799098968505859375</LatitudeDegrees>
              <LongitudeDegrees>-1.85717468149960041046142578125</LongitudeDegrees>
            </Position>
            <AltitudeMeters>686.20001220703125</AltitudeMeters>
            <DistanceMeters>5641.1155465739</DistanceMeters>
          </Trackpoint>
          <Trackpoint>
            <Time>2021-08-28T05:41:09.000Z</Time>
            <Position>
              <LatitudeDegrees>38.14621643163263797760009765625</LatitudeDegrees>
              <LongitudeDegrees>-1.857135705649852752685546875</LongitudeDegrees>
            </Position>
            <AltitudeMeters>686.5999755859375</AltitudeMeters>
            <DistanceMeters>5654.8855700005</DistanceMeters>
          </Trackpoint>
          <Trackpoint>
            <Time>2021-08-28T05:41:10.000Z</Time>
            <Position>
              <LatitudeDegrees>38.1461575068533420562744140625</LatitudeDegrees>
              <LongitudeDegrees>-1.857114247977733612060546875</LongitudeDegrees>
            </Position>
            <AltitudeMeters>686.79998779296875</AltitudeMeters>
            <DistanceMeters>5661.707667478</DistanceMeters>
          </Trackpoint>
          <Trackpoint>
            <Time>2021-08-28T05:41:14.000Z</Time>
            <Position>
              <LatitudeDegrees>38.1459234841167926788330078125</LatitudeDegrees>
              <LongitudeDegrees>-1.85703000985085964202880859375</LongitudeDegrees>
            </Position>
            <AltitudeMeters>687.20001220703125</AltitudeMeters>
            <DistanceMeters>5688.7786086107</DistanceMeters>
          </Trackpoint>
          <Trackpoint>
            <Time>2021-08-28T05:41:16.000Z</Time>
            <Position>
              <LatitudeDegrees>38.14581259153783321380615234375</LatitudeDegrees>
              <LongitudeDegrees>-1.8569910340011119842529296875</LongitudeDegrees>
            </Position>
            <AltitudeMeters>687.4000244140625</AltitudeMeters>
            <DistanceMeters>5701.5843178149</DistanceMeters>
          </Trackpoint>
          <Trackpoint>
            <Time>2021-08-28T05:41:17.000Z</Time>
            <Position>
              <LatitudeDegrees>38.1457583606243133544921875</LatitudeDegrees>
              <LongitudeDegrees>-1.8569724261760711669921875</LongitudeDegrees>
            </Position>
            <AltitudeMeters>687.5999755859375</AltitudeMeters>
            <DistanceMeters>5707.8366134674</DistanceMeters>
          </Trackpoint>
          <Trackpoint>
            <Time>2021-08-28T05:41:20.000Z</Time>
            <Position>
              <LatitudeDegrees>38.14559415914118289947509765625</LatitudeDegrees>
              <LongitudeDegrees>-1.85691350139677524566650390625</LongitudeDegrees>
            </Position>
            <AltitudeMeters>687.79998779296875</AltitudeMeters>
            <DistanceMeters>5726.8262704604</DistanceMeters>
          </Trackpoint>
          <Trackpoint>
            <Time>2021-08-28T05:41:24.000Z</Time>
            <Position>
              <LatitudeDegrees>38.14537002705037593841552734375</LatitudeDegrees>
              <LongitudeDegrees>-1.85683303512632846832275390625</LongitudeDegrees>
            </Position>
            <AltitudeMeters>688.5999755859375</AltitudeMeters>
            <DistanceMeters>5752.747844259</DistanceMeters>
          </Trackpoint>
          <Trackpoint>
            <Time>2021-08-28T05:41:27.000Z</Time>
            <Position>
              <LatitudeDegrees>38.14520825631916522979736328125</LatitudeDegrees>
              <LongitudeDegrees>-1.85679070651531219482421875</LongitudeDegrees>
            </Position>
            <AltitudeMeters>689.20001220703125</AltitudeMeters>
            <DistanceMeters>5771.1302948739</DistanceMeters>
          </Trackpoint>
          <Trackpoint>
            <Time>2021-08-28T05:41:30.000Z</Time>
            <Position>
              <LatitudeDegrees>38.1450410373508930206298828125</LatitudeDegrees>
              <LongitudeDegrees>-1.85673974454402923583984375</LongitudeDegrees>
            </Position>
            <AltitudeMeters>689.79998779296875</AltitudeMeters>
            <DistanceMeters>5790.2691564093</DistanceMeters>
          </Trackpoint>
          <Trackpoint>
            <Time>2021-08-28T05:41:35.000Z</Time>
            <Position>
              <LatitudeDegrees>38.1447637639939785003662109375</LatitudeDegrees>
              <LongitudeDegrees>-1.85664947144687175750732421875</LongitudeDegrees>
            </Position>
            <AltitudeMeters>690.4000244140625</AltitudeMeters>
            <DistanceMeters>5822.125932317</DistanceMeters>
          </Trackpoint>
          <Trackpoint>
            <Time>2021-08-28T05:41:36.000Z</Time>
            <Position>
              <LatitudeDegrees>38.1447081081569194793701171875</LatitudeDegrees>
              <LongitudeDegrees>-1.856633462011814117431640625</LongitudeDegrees>
            </Position>
            <AltitudeMeters>690.5999755859375</AltitudeMeters>
            <DistanceMeters>5828.4778124758</DistanceMeters>
          </Trackpoint>
          <Trackpoint>
            <Time>2021-08-28T05:41:37.000Z</Time>
            <Position>
              <LatitudeDegrees>38.14465303905308246612548828125</LatitudeDegrees>
              <LongitudeDegrees>-1.85661577619612216949462890625</LongitudeDegrees>
            </Position>
            <AltitudeMeters>691</AltitudeMeters>
            <DistanceMeters>5834.7983392092</DistanceMeters>
          </Trackpoint>
          <Trackpoint>
            <Time>2021-08-28T05:41:40.000Z</Time>
            <Position>
              <LatitudeDegrees>38.1444841437041759490966796875</LatitudeDegrees>
              <LongitudeDegrees>-1.85656917281448841094970703125</LongitudeDegrees>
            </Position>
            <AltitudeMeters>691.4000244140625</AltitudeMeters>
            <DistanceMeters>5854.0341498854</DistanceMeters>
          </Trackpoint>
          <Trackpoint>
            <Time>2021-08-28T05:41:43.000Z</Time>
            <Position>
              <LatitudeDegrees>38.14431130886077880859375</LatitudeDegrees>
              <LongitudeDegrees>-1.8565427698194980621337890625</LongitudeDegrees>
            </Position>
            <AltitudeMeters>692</AltitudeMeters>
            <DistanceMeters>5873.4093489276</DistanceMeters>
          </Trackpoint>
          <Trackpoint>
            <Time>2021-08-28T05:41:45.000Z</Time>
            <Position>
              <LatitudeDegrees>38.14419907517731189727783203125</LatitudeDegrees>
              <LongitudeDegrees>-1.85652860440313816070556640625</LongitudeDegrees>
            </Position>
            <AltitudeMeters>692.5999755859375</AltitudeMeters>
            <DistanceMeters>5885.9625901037</DistanceMeters>
          </Trackpoint>
          <Trackpoint>
            <Time>2021-08-28T05:41:47.000Z</Time>
            <Position>
              <LatitudeDegrees>38.14408692531287670135498046875</LatitudeDegrees>
              <LongitudeDegrees>-1.856523491442203521728515625</LongitudeDegrees>
            </Position>
            <AltitudeMeters>693</AltitudeMeters>
            <DistanceMeters>5898.4530917238</DistanceMeters>
          </Trackpoint>
          <Trackpoint>
            <Time>2021-08-28T05:41:50.000Z</Time>
            <Position>
              <LatitudeDegrees>38.1439178623259067535400390625</LatitudeDegrees>
              <LongitudeDegrees>-1.8565317057073116302490234375</LongitudeDegrees>
            </Position>
            <AltitudeMeters>693.20001220703125</AltitudeMeters>
            <DistanceMeters>5917.2839725284</DistanceMeters>
          </Trackpoint>
          <Trackpoint>
            <Time>2021-08-28T05:41:53.000Z</Time>
            <Position>
              <LatitudeDegrees>38.14374527893960475921630859375</LatitudeDegrees>
              <LongitudeDegrees>-1.85654872097074985504150390625</LongitudeDegrees>
            </Position>
            <AltitudeMeters>693.5999755859375</AltitudeMeters>
            <DistanceMeters>5936.5507413924</DistanceMeters>
          </Trackpoint>
          <Trackpoint>
            <Time>2021-08-28T05:41:57.000Z</Time>
            <Position>
              <LatitudeDegrees>38.14350589178502559661865234375</LatitudeDegrees>
              <LongitudeDegrees>-1.85657478868961334228515625</LongitudeDegrees>
            </Position>
            <AltitudeMeters>694.20001220703125</AltitudeMeters>
            <DistanceMeters>5963.2922786285</DistanceMeters>
          </Trackpoint>
          <Trackpoint>
            <Time>2021-08-28T05:42:00.000Z</Time>
            <Position>
              <LatitudeDegrees>38.143334649503231048583984375</LatitudeDegrees>
              <LongitudeDegrees>-1.85658819973468780517578125</LongitudeDegrees>
            </Position>
            <AltitudeMeters>694.5999755859375</AltitudeMeters>
            <DistanceMeters>5982.3881563764</DistanceMeters>
          </Trackpoint>
          <Trackpoint>
            <Time>2021-08-28T05:42:02.000Z</Time>
            <Position>
              <LatitudeDegrees>38.14322006888687610626220703125</LatitudeDegrees>
              <LongitudeDegrees>-1.8565957434475421905517578125</LongitudeDegrees>
            </Position>
            <AltitudeMeters>694.79998779296875</AltitudeMeters>
            <DistanceMeters>5995.1582053387</DistanceMeters>
          </Trackpoint>
          <Trackpoint>
            <Time>2021-08-28T05:42:05.000Z</Time>
            <Position>
              <LatitudeDegrees>38.14304673112928867340087890625</LatitudeDegrees>
              <LongitudeDegrees>-1.8566195480525493621826171875</LongitudeDegrees>
            </Position>
            <AltitudeMeters>695.4000244140625</AltitudeMeters>
            <DistanceMeters>6014.5632095313</DistanceMeters>
          </Trackpoint>
          <Trackpoint>
            <Time>2021-08-28T05:42:09.000Z</Time>
            <Position>
              <LatitudeDegrees>38.1428198330104351043701171875</LatitudeDegrees>
              <LongitudeDegrees>-1.85664477758109569549560546875</LongitudeDegrees>
            </Position>
            <AltitudeMeters>696.5999755859375</AltitudeMeters>
            <DistanceMeters>6039.9138008531</DistanceMeters>
          </Trackpoint>
          <Trackpoint>
            <Time>2021-08-28T05:42:10.000Z</Time>
            <Position>
              <LatitudeDegrees>38.14276392571628093719482421875</LatitudeDegrees>
              <LongitudeDegrees>-1.85664880089461803436279296875</LongitudeDegrees>
            </Position>
            <AltitudeMeters>696.79998779296875</AltitudeMeters>
            <DistanceMeters>6046.1465682049</DistanceMeters>
          </Trackpoint>
          <Trackpoint>
            <Time>2021-08-28T05:42:11.000Z</Time>
            <Position>
              <LatitudeDegrees>38.14270826987922191619873046875</LatitudeDegrees>
              <LongitudeDegrees>-1.85665248893201351165771484375</LongitudeDegrees>
            </Position>
            <AltitudeMeters>696.79998779296875</AltitudeMeters>
            <DistanceMeters>6052.3502917484</DistanceMeters>
          </Trackpoint>
          <Trackpoint>
            <Time>2021-08-28T05:42:20.000Z</Time>
            <Position>
              <LatitudeDegrees>38.14219437539577484130859375</LatitudeDegrees>
              <LongitudeDegrees>-1.85670445673167705535888671875</LongitudeDegrees>
            </Position>
            <AltitudeMeters>697</AltitudeMeters>
            <DistanceMeters>6109.7284889192</DistanceMeters>
          </Trackpoint>
          <Trackpoint>
            <Time>2021-08-28T05:42:22.000Z</Time>
            <Position>
              <LatitudeDegrees>38.14207501709461212158203125</LatitudeDegrees>
              <LongitudeDegrees>-1.856710575520992279052734375</LongitudeDegrees>
            </Position>
            <AltitudeMeters>696.79998779296875</AltitudeMeters>
            <DistanceMeters>6123.0240812891</DistanceMeters>
          </Trackpoint>
          <Trackpoint>
            <Time>2021-08-28T05:42:30.000Z</Time>
            <Position>
              <LatitudeDegrees>38.14159733243286609649658203125</LatitudeDegrees>
              <LongitudeDegrees>-1.856652908027172088623046875</LongitudeDegrees>
            </Position>
            <AltitudeMeters>697.79998779296875</AltitudeMeters>
            <DistanceMeters>6176.4304474415</DistanceMeters>
          </Trackpoint>
          <Trackpoint>
            <Time>2021-08-28T05:42:35.000Z</Time>
            <Position>
              <LatitudeDegrees>38.14129055477678775787353515625</LatitudeDegrees>
              <LongitudeDegrees>-1.85653832741081714630126953125</LongitudeDegrees>
            </Position>
            <AltitudeMeters>698.4000244140625</AltitudeMeters>
            <DistanceMeters>6212.0180471266</DistanceMeters>
          </Trackpoint>
          <Trackpoint>
            <Time>2021-08-28T05:42:36.000Z</Time>
            <Position>
              <LatitudeDegrees>38.14122769050300121307373046875</LatitudeDegrees>
              <LongitudeDegrees>-1.8565075658261775970458984375</LongitudeDegrees>
            </Position>
            <AltitudeMeters>698.4000244140625</AltitudeMeters>
            <DistanceMeters>6219.5155284279</DistanceMeters>
          </Trackpoint>
          <Trackpoint>
            <Time>2021-08-28T05:42:40.000Z</Time>
            <Position>
              <LatitudeDegrees>38.1409706175327301025390625</LatitudeDegrees>
              <LongitudeDegrees>-1.856347806751728057861328125</LongitudeDegrees>
            </Position>
            <AltitudeMeters>697.4000244140625</AltitudeMeters>
            <DistanceMeters>6251.3632323693</DistanceMeters>
          </Trackpoint>
          <Trackpoint>
            <Time>2021-08-28T05:42:42.000Z</Time>
            <Position>
              <LatitudeDegrees>38.1408420391380786895751953125</LatitudeDegrees>
              <LongitudeDegrees>-1.85624563135206699371337890625</LongitudeDegrees>
            </Position>
            <AltitudeMeters>697.20001220703125</AltitudeMeters>
            <DistanceMeters>6268.2395059817</DistanceMeters>
          </Trackpoint>
          <Trackpoint>
            <Time>2021-08-28T05:42:44.000Z</Time>
            <Position>
              <LatitudeDegrees>38.14071421511471271514892578125</LatitudeDegrees>
              <LongitudeDegrees>-1.8561297096312046051025390625</LongitudeDegrees>
            </Position>
            <AltitudeMeters>696.79998779296875</AltitudeMeters>
            <DistanceMeters>6285.7146061297</DistanceMeters>
          </Trackpoint>
          <Trackpoint>
            <Time>2021-08-28T05:42:48.000Z</Time>
            <Position>
              <LatitudeDegrees>38.1404650211334228515625</LatitudeDegrees>
              <LongitudeDegrees>-1.85583642683923244476318359375</LongitudeDegrees>
            </Position>
            <AltitudeMeters>696.20001220703125</AltitudeMeters>
            <DistanceMeters>6323.5089656588</DistanceMeters>
          </Trackpoint>
          <Trackpoint>
            <Time>2021-08-28T05:42:50.000Z</Time>
            <Position>
              <LatitudeDegrees>38.14034289680421352386474609375</LatitudeDegrees>
              <LongitudeDegrees>-1.85566510073840618133544921875</LongitudeDegrees>
            </Position>
            <AltitudeMeters>696.20001220703125</AltitudeMeters>
            <DistanceMeters>6343.7496558196</DistanceMeters>
          </Trackpoint>
          <Trackpoint>
            <Time>2021-08-28T05:42:54.000Z</Time>
            <Position>
              <LatitudeDegrees>38.1401342712342739105224609375</LatitudeDegrees>
              <LongitudeDegrees>-1.85528573580086231231689453125</LongitudeDegrees>
            </Position>
            <AltitudeMeters>695.79998779296875</AltitudeMeters>
            <DistanceMeters>6384.271836915</DistanceMeters>
          </Trackpoint>
          <Trackpoint>
            <Time>2021-08-28T05:42:55.000Z</Time>
            <Position>
              <LatitudeDegrees>38.1400910206139087677001953125</LatitudeDegrees>
              <LongitudeDegrees>-1.85518247075378894805908203125</LongitudeDegrees>
            </Position>
            <AltitudeMeters>695.4000244140625</AltitudeMeters>
            <DistanceMeters>6394.5131423932</DistanceMeters>
          </Trackpoint>
          <Trackpoint>
            <Time>2021-08-28T05:42:57.000Z</Time>
            <Position>
              <LatitudeDegrees>38.1400129012763500213623046875</LatitudeDegrees>
              <LongitudeDegrees>-1.85496370308101177215576171875</LongitudeDegrees>
            </Position>
            <AltitudeMeters>694.5999755859375</AltitudeMeters>
            <DistanceMeters>6415.545411761</DistanceMeters>
          </Trackpoint>
          <Trackpoint>
            <Time>2021-08-28T05:42:59.000Z</Time>
            <Position>
              <LatitudeDegrees>38.139942996203899383544921875</LatitudeDegrees>
              <LongitudeDegrees>-1.8547363020479679107666015625</LongitudeDegrees>
            </Position>
            <AltitudeMeters>694.4000244140625</AltitudeMeters>
            <DistanceMeters>6436.9181852589</DistanceMeters>
          </Trackpoint>
          <Trackpoint>
            <Time>2021-08-28T05:43:00.000Z</Time>
            <Position>
              <LatitudeDegrees>38.13991039060056209564208984375</LatitudeDegrees>
              <LongitudeDegrees>-1.85462138615548610687255859375</LongitudeDegrees>
            </Position>
            <AltitudeMeters>694.4000244140625</AltitudeMeters>
            <DistanceMeters>6447.6123854704</DistanceMeters>
          </Trackpoint>
          <Trackpoint>
            <Time>2021-08-28T05:43:04.000Z</Time>
            <Position>
              <LatitudeDegrees>38.1397704966366291046142578125</LatitudeDegrees>
              <LongitudeDegrees>-1.85416121967136859893798828125</LongitudeDegrees>
            </Position>
            <AltitudeMeters>693.4000244140625</AltitudeMeters>
            <DistanceMeters>6490.7997010775</DistanceMeters>
          </Trackpoint>
          <Trackpoint>
            <Time>2021-08-28T05:43:09.000Z</Time>
            <Position>
              <LatitudeDegrees>38.1395847536623477935791015625</LatitudeDegrees>
              <LongitudeDegrees>-1.85358772985637187957763671875</LongitudeDegrees>
            </Position>
            <AltitudeMeters>692.4000244140625</AltitudeMeters>
            <DistanceMeters>6545.0929796139</DistanceMeters>
          </Trackpoint>
          <Trackpoint>
            <Time>2021-08-28T05:43:10.000Z</Time>
            <Position>
              <LatitudeDegrees>38.13954410143196582794189453125</LatitudeDegrees>
              <LongitudeDegrees>-1.85347658582031726837158203125</LongitudeDegrees>
            </Position>
            <AltitudeMeters>692</AltitudeMeters>
            <DistanceMeters>6555.8230063921</DistanceMeters>
          </Trackpoint>
          <Trackpoint>
            <Time>2021-08-28T05:43:12.000Z</Time>
            <Position>
              <LatitudeDegrees>38.1394650600850582122802734375</LatitudeDegrees>
              <LongitudeDegrees>-1.85324708931148052215576171875</LongitudeDegrees>
            </Position>
            <AltitudeMeters>691</AltitudeMeters>
            <DistanceMeters>6577.7550403155</DistanceMeters>
          </Trackpoint>
          <Trackpoint>
            <Time>2021-08-28T05:43:15.000Z</Time>
            <Position>
              <LatitudeDegrees>38.1393406726419925689697265625</LatitudeDegrees>
              <LongitudeDegrees>-1.8528879247605800628662109375</LongitudeDegrees>
            </Position>
            <AltitudeMeters>689.79998779296875</AltitudeMeters>
            <DistanceMeters>6612.1095304329</DistanceMeters>
          </Trackpoint>
          <Trackpoint>
            <Time>2021-08-28T05:43:19.000Z</Time>
            <Position>
              <LatitudeDegrees>38.1391783989965915679931640625</LatitudeDegrees>
              <LongitudeDegrees>-1.8524014391005039215087890625</LongitudeDegrees>
            </Position>
            <AltitudeMeters>688.79998779296875</AltitudeMeters>
            <DistanceMeters>6658.3684139599</DistanceMeters>
          </Trackpoint>
          <Trackpoint>
            <Time>2021-08-28T05:43:20.000Z</Time>
            <Position>
              <LatitudeDegrees>38.1391378305852413177490234375</LatitudeDegrees>
              <LongitudeDegrees>-1.8522840924561023712158203125</LongitudeDegrees>
            </Position>
            <AltitudeMeters>688.5999755859375</AltitudeMeters>
            <DistanceMeters>6669.5896164772</DistanceMeters>
          </Trackpoint>
          <Trackpoint>
            <Time>2021-08-28T05:43:25.000Z</Time>
            <Position>
              <LatitudeDegrees>38.1389353238046169281005859375</LatitudeDegrees>
              <LongitudeDegrees>-1.85168302617967128753662109375</LongitudeDegrees>
            </Position>
            <AltitudeMeters>687</AltitudeMeters>
            <DistanceMeters>6726.8315985218</DistanceMeters>
          </Trackpoint>
          <Trackpoint>
            <Time>2021-08-28T05:43:28.000Z</Time>
            <Position>
              <LatitudeDegrees>38.13880800269544124603271484375</LatitudeDegrees>
              <LongitudeDegrees>-1.85131204314529895782470703125</LongitudeDegrees>
            </Position>
            <AltitudeMeters>685.79998779296875</AltitudeMeters>
            <DistanceMeters>6762.2649693553</DistanceMeters>
          </Trackpoint>
          <Trackpoint>
            <Time>2021-08-28T05:43:30.000Z</Time>
            <Position>
              <LatitudeDegrees>38.1387177295982837677001953125</LatitudeDegrees>
              <LongitudeDegrees>-1.8510650284588336944580078125</LongitudeDegrees>
            </Position>
            <AltitudeMeters>684.79998779296875</AltitudeMeters>
            <DistanceMeters>6786.1092909657</DistanceMeters>
          </Trackpoint>
          <Trackpoint>
            <Time>2021-08-28T05:43:32.000Z</Time>
            <Position>
              <LatitudeDegrees>38.13862997107207775115966796875</LatitudeDegrees>
              <LongitudeDegrees>-1.85081608593463897705078125</LongitudeDegrees>
            </Position>
            <AltitudeMeters>683.4000244140625</AltitudeMeters>
            <DistanceMeters>6809.9910754091</DistanceMeters>
          </Trackpoint>
          <Trackpoint>
            <Time>2021-08-28T05:43:34.000Z</Time>
            <Position>
              <LatitudeDegrees>38.13853827305138111114501953125</LatitudeDegrees>
              <LongitudeDegrees>-1.85056303627789020538330078125</LongitudeDegrees>
            </Position>
            <AltitudeMeters>682.20001220703125</AltitudeMeters>
            <DistanceMeters>6834.3814916838</DistanceMeters>
          </Trackpoint>
          <Trackpoint>
            <Time>2021-08-28T05:43:36.000Z</Time>
            <Position>
              <LatitudeDegrees>38.1384434737265110015869140625</LatitudeDegrees>
              <LongitudeDegrees>-1.85030755586922168731689453125</LongitudeDegrees>
            </Position>
            <AltitudeMeters>681.20001220703125</AltitudeMeters>
            <DistanceMeters>6859.1107220992</DistanceMeters>
          </Trackpoint>
          <Trackpoint>
            <Time>2021-08-28T05:43:37.000Z</Time>
            <Position>
              <LatitudeDegrees>38.13839645124971866607666015625</LatitudeDegrees>
              <LongitudeDegrees>-1.8501798994839191436767578125</LongitudeDegrees>
            </Position>
            <AltitudeMeters>681</AltitudeMeters>
            <DistanceMeters>6871.4506645251</DistanceMeters>
          </Trackpoint>
          <Trackpoint>
            <Time>2021-08-28T05:43:38.000Z</Time>
            <Position>
              <LatitudeDegrees>38.13835076987743377685546875</LatitudeDegrees>
              <LongitudeDegrees>-1.85005207546055316925048828125</LongitudeDegrees>
            </Position>
            <AltitudeMeters>680.79998779296875</AltitudeMeters>
            <DistanceMeters>6883.7414801543</DistanceMeters>
          </Trackpoint>
          <Trackpoint>
            <Time>2021-08-28T05:43:40.000Z</Time>
            <Position>
              <LatitudeDegrees>38.138257563114166259765625</LatitudeDegrees>
              <LongitudeDegrees>-1.8497948348522186279296875</LongitudeDegrees>
            </Position>
            <AltitudeMeters>680.4000244140625</AltitudeMeters>
            <DistanceMeters>6908.5352592934</DistanceMeters>
          </Trackpoint>
          <Trackpoint>
            <Time>2021-08-28T05:43:41.000Z</Time>
            <Position>
              <LatitudeDegrees>38.13821221701800823211669921875</LatitudeDegrees>
              <LongitudeDegrees>-1.84966483153402805328369140625</LongitudeDegrees>
            </Position>
            <AltitudeMeters>679.79998779296875</AltitudeMeters>
            <DistanceMeters>6920.9848469205</DistanceMeters>
          </Trackpoint>
          <Trackpoint>
            <Time>2021-08-28T05:43:43.000Z</Time>
            <Position>
              <LatitudeDegrees>38.13812789507210254669189453125</LatitudeDegrees>
              <LongitudeDegrees>-1.84940432198345661163330078125</LongitudeDegrees>
            </Position>
            <AltitudeMeters>679.4000244140625</AltitudeMeters>
            <DistanceMeters>6945.6456982511</DistanceMeters>
          </Trackpoint>
          <Trackpoint>
            <Time>2021-08-28T05:43:45.000Z</Time>
            <Position>
              <LatitudeDegrees>38.138036616146564483642578125</LatitudeDegrees>
              <LongitudeDegrees>-1.84913844801485538482666015625</LongitudeDegrees>
            </Position>
            <AltitudeMeters>678.5999755859375</AltitudeMeters>
            <DistanceMeters>6971.0414876615</DistanceMeters>
          </Trackpoint>
          <Trackpoint>
            <Time>2021-08-28T05:43:47.000Z</Time>
            <Position>
              <LatitudeDegrees>38.1379486061632633209228515625</LatitudeDegrees>
              <LongitudeDegrees>-1.848870813846588134765625</LongitudeDegrees>
            </Position>
            <AltitudeMeters>678</AltitudeMeters>
            <DistanceMeters>6996.4362103283</DistanceMeters>
          </Trackpoint>
          <Trackpoint>
            <Time>2021-08-28T05:43:50.000Z</Time>
            <Position>
              <LatitudeDegrees>38.1378091312944889068603515625</LatitudeDegrees>
              <LongitudeDegrees>-1.84847711585462093353271484375</LongitudeDegrees>
            </Position>
            <AltitudeMeters>677.5999755859375</AltitudeMeters>
            <DistanceMeters>7034.2360647689</DistanceMeters>
          </Trackpoint>
          <Trackpoint>
            <Time>2021-08-28T05:43:55.000Z</Time>
            <Position>
              <LatitudeDegrees>38.1375776231288909912109375</LatitudeDegrees>
              <LongitudeDegrees>-1.84782274067401885986328125</LongitudeDegrees>
            </Position>
            <AltitudeMeters>677.4000244140625</AltitudeMeters>
            <DistanceMeters>7097.0498011739</DistanceMeters>
          </Trackpoint>
          <Trackpoint>
            <Time>2021-08-28T05:43:56.000Z</Time>
            <Position>
              <LatitudeDegrees>38.13753009773790836334228515625</LatitudeDegrees>
              <LongitudeDegrees>-1.84768904931843280792236328125</LongitudeDegrees>
            </Position>
            <AltitudeMeters>677.4000244140625</AltitudeMeters>
            <DistanceMeters>7109.8935325817</DistanceMeters>
          </Trackpoint>
          <Trackpoint>
            <Time>2021-08-28T05:43:58.000Z</Time>
            <Position>
              <LatitudeDegrees>38.1374354660511016845703125</LatitudeDegrees>
              <LongitudeDegrees>-1.84742015786468982696533203125</LongitudeDegrees>
            </Position>
            <AltitudeMeters>676.4000244140625</AltitudeMeters>
            <DistanceMeters>7135.6816889678</DistanceMeters>
          </Trackpoint>
          <Trackpoint>
            <Time>2021-08-28T05:43:59.000Z</Time>
            <Position>
              <LatitudeDegrees>38.13738894648849964141845703125</LatitudeDegrees>
              <LongitudeDegrees>-1.847287975251674652099609375</LongitudeDegrees>
            </Position>
            <AltitudeMeters>675.20001220703125</AltitudeMeters>
            <DistanceMeters>7148.3591216949</DistanceMeters>
          </Trackpoint>
          <Trackpoint>
            <Time>2021-08-28T05:44:00.000Z</Time>
            <Position>
              <LatitudeDegrees>38.13734251074492931365966796875</LatitudeDegrees>
              <LongitudeDegrees>-1.84715663082897663116455078125</LongitudeDegrees>
            </Position>
            <AltitudeMeters>674.20001220703125</AltitudeMeters>
            <DistanceMeters>7160.9654818094</DistanceMeters>
          </Trackpoint>
          <Trackpoint>
            <Time>2021-08-28T05:44:01.000Z</Time>
            <Position>
              <LatitudeDegrees>38.137296997010707855224609375</LatitudeDegrees>
              <LongitudeDegrees>-1.847026459872722625732421875</LongitudeDegrees>
            </Position>
            <AltitudeMeters>673.5999755859375</AltitudeMeters>
            <DistanceMeters>7173.4360863063</DistanceMeters>
          </Trackpoint>
          <Trackpoint>
            <Time>2021-08-28T05:44:05.000Z</Time>
            <Position>
              <LatitudeDegrees>38.13711100257933139801025390625</LatitudeDegrees>
              <LongitudeDegrees>-1.84650988318026065826416015625</LongitudeDegrees>
            </Position>
            <AltitudeMeters>672.4000244140625</AltitudeMeters>
            <DistanceMeters>7223.1717468582</DistanceMeters>
          </Trackpoint>
          <Trackpoint>
            <Time>2021-08-28T05:44:07.000Z</Time>
            <Position>
              <LatitudeDegrees>38.1370208971202373504638671875</LatitudeDegrees>
              <LongitudeDegrees>-1.84625322930514812469482421875</LongitudeDegrees>
            </Position>
            <AltitudeMeters>672.20001220703125</AltitudeMeters>
            <DistanceMeters>7247.7768773214</DistanceMeters>
          </Trackpoint>
          <Trackpoint>
            <Time>2021-08-28T05:44:09.000Z</Time>
            <Position>
              <LatitudeDegrees>38.13693188130855560302734375</LatitudeDegrees>
              <LongitudeDegrees>-1.8459990061819553375244140625</LongitudeDegrees>
            </Position>
            <AltitudeMeters>671.20001220703125</AltitudeMeters>
            <DistanceMeters>7272.137842489</DistanceMeters>
          </Trackpoint>
          <Trackpoint>
            <Time>2021-08-28T05:44:10.000Z</Time>
            <Position>
              <LatitudeDegrees>38.13688787631690502166748046875</LatitudeDegrees>
              <LongitudeDegrees>-1.84587269090116024017333984375</LongitudeDegrees>
            </Position>
            <AltitudeMeters>670.79998779296875</AltitudeMeters>
            <DistanceMeters>7284.231648679</DistanceMeters>
          </Trackpoint>
          <Trackpoint>
            <Time>2021-08-28T05:44:16.000Z</Time>
            <Position>
              <LatitudeDegrees>38.13662803731858730316162109375</LatitudeDegrees>
              <LongitudeDegrees>-1.84513089247047901153564453125</LongitudeDegrees>
            </Position>
            <AltitudeMeters>670.5999755859375</AltitudeMeters>
            <DistanceMeters>7355.3198882176</DistanceMeters>
          </Trackpoint>
          <Trackpoint>
            <Time>2021-08-28T05:44:17.000Z</Time>
            <Position>
              <LatitudeDegrees>38.136584870517253875732421875</LatitudeDegrees>
              <LongitudeDegrees>-1.84501052834093570709228515625</LongitudeDegrees>
            </Position>
            <AltitudeMeters>670.5999755859375</AltitudeMeters>
            <DistanceMeters>7366.9006781451</DistanceMeters>
          </Trackpoint>
          <Trackpoint>
            <Time>2021-08-28T05:44:20.000Z</Time>
            <Position>
              <LatitudeDegrees>38.13645788468420505523681640625</LatitudeDegrees>
              <LongitudeDegrees>-1.84465236961841583251953125</LongitudeDegrees>
            </Position>
            <AltitudeMeters>670.4000244140625</AltitudeMeters>
            <DistanceMeters>7401.2935229468</DistanceMeters>
          </Trackpoint>
          <Trackpoint>
            <Time>2021-08-28T05:44:22.000Z</Time>
            <Position>
              <LatitudeDegrees>38.136370964348316192626953125</LatitudeDegrees>
              <LongitudeDegrees>-1.8444081209599971771240234375</LongitudeDegrees>
            </Position>
            <AltitudeMeters>670.20001220703125</AltitudeMeters>
            <DistanceMeters>7424.7626205599</DistanceMeters>
          </Trackpoint>
          <Trackpoint>
            <Time>2021-08-28T05:44:25.000Z</Time>
            <Position>
              <LatitudeDegrees>38.136220090091228485107421875</LatitudeDegrees>
              <LongitudeDegrees>-1.844045184552669525146484375</LongitudeDegrees>
            </Position>
            <AltitudeMeters>669.4000244140625</AltitudeMeters>
            <DistanceMeters>7460.7000605518</DistanceMeters>
          </Trackpoint>
          <Trackpoint>
            <Time>2021-08-28T05:44:27.000Z</Time>
            <Position>
              <LatitudeDegrees>38.13610601238906383514404296875</LatitudeDegrees>
              <LongitudeDegrees>-1.84380747377872467041015625</LongitudeDegrees>
            </Position>
            <AltitudeMeters>669</AltitudeMeters>
            <DistanceMeters>7485.0778857389</DistanceMeters>
          </Trackpoint>
          <Trackpoint>
            <Time>2021-08-28T05:44:30.000Z</Time>
            <Position>
              <LatitudeDegrees>38.13591255806386470794677734375</LatitudeDegrees>
              <LongitudeDegrees>-1.843450404703617095947265625</LongitudeDegrees>
            </Position>
            <AltitudeMeters>667.5999755859375</AltitudeMeters>
            <DistanceMeters>7523.035200274</DistanceMeters>
          </Trackpoint>
          <Trackpoint>
            <Time>2021-08-28T05:44:31.000Z</Time>
            <Position>
              <LatitudeDegrees>38.13584131188690662384033203125</LatitudeDegrees>
              <LongitudeDegrees>-1.84333330951631069183349609375</LongitudeDegrees>
            </Position>
            <AltitudeMeters>667</AltitudeMeters>
            <DistanceMeters>7535.9951162404</DistanceMeters>
          </Trackpoint>
          <Trackpoint>
            <Time>2021-08-28T05:44:33.000Z</Time>
            <Position>
              <LatitudeDegrees>38.13568524084985256195068359375</LatitudeDegrees>
              <LongitudeDegrees>-1.84310331009328365325927734375</LongitudeDegrees>
            </Position>
            <AltitudeMeters>666.20001220703125</AltitudeMeters>
            <DistanceMeters>7562.5878290873</DistanceMeters>
          </Trackpoint>
          <Trackpoint>
            <Time>2021-08-28T05:44:34.000Z</Time>
            <Position>
              <LatitudeDegrees>38.13560510985553264617919921875</LatitudeDegrees>
              <LongitudeDegrees>-1.8429888971149921417236328125</LongitudeDegrees>
            </Position>
            <AltitudeMeters>664.5999755859375</AltitudeMeters>
            <DistanceMeters>7575.999058062</DistanceMeters>
          </Trackpoint>
          <Trackpoint>
            <Time>2021-08-28T05:44:35.000Z</Time>
            <Position>
              <LatitudeDegrees>38.1355218775570392608642578125</LatitudeDegrees>
              <LongitudeDegrees>-1.84287398122251033782958984375</LongitudeDegrees>
            </Position>
            <AltitudeMeters>663.4000244140625</AltitudeMeters>
            <DistanceMeters>7589.6749837457</DistanceMeters>
          </Trackpoint>
          <Trackpoint>
            <Time>2021-08-28T05:44:37.000Z</Time>
            <Position>
              <LatitudeDegrees>38.135338313877582550048828125</LatitudeDegrees>
              <LongitudeDegrees>-1.842649765312671661376953125</LongitudeDegrees>
            </Position>
            <AltitudeMeters>662.4000244140625</AltitudeMeters>
            <DistanceMeters>7618.0072906657</DistanceMeters>
          </Trackpoint>
          <Trackpoint>
            <Time>2021-08-28T05:44:38.000Z</Time>
            <Position>
              <LatitudeDegrees>38.13523949123919010162353515625</LatitudeDegrees>
              <LongitudeDegrees>-1.84254390187561511993408203125</LongitudeDegrees>
            </Position>
            <AltitudeMeters>661.5999755859375</AltitudeMeters>
            <DistanceMeters>7632.3905813647</DistanceMeters>
          </Trackpoint>
          <Trackpoint>
            <Time>2021-08-28T05:44:40.000Z</Time>
            <Position>
              <LatitudeDegrees>38.13502692617475986480712890625</LatitudeDegrees>
              <LongitudeDegrees>-1.8423428200185298919677734375</LongitudeDegrees>
            </Position>
            <AltitudeMeters>660.79998779296875</AltitudeMeters>
            <DistanceMeters>7661.8802662043</DistanceMeters>
          </Trackpoint>
          <Trackpoint>
            <Time>2021-08-28T05:44:41.000Z</Time>
            <Position>
              <LatitudeDegrees>38.1349153630435466766357421875</LatitudeDegrees>
              <LongitudeDegrees>-1.84224701486527919769287109375</LongitudeDegrees>
            </Position>
            <AltitudeMeters>660.5999755859375</AltitudeMeters>
            <DistanceMeters>7676.8643851541</DistanceMeters>
          </Trackpoint>
          <Trackpoint>
            <Time>2021-08-28T05:44:42.000Z</Time>
            <Position>
              <LatitudeDegrees>38.1348013691604137420654296875</LatitudeDegrees>
              <LongitudeDegrees>-1.84215330518782138824462890625</LongitudeDegrees>
            </Position>
            <AltitudeMeters>659.5999755859375</AltitudeMeters>
            <DistanceMeters>7691.9733339098</DistanceMeters>
          </Trackpoint>
          <Trackpoint>
            <Time>2021-08-28T05:44:43.000Z</Time>
            <Position>
              <LatitudeDegrees>38.13468846492469310760498046875</LatitudeDegrees>
              <LongitudeDegrees>-1.842056326568126678466796875</LongitudeDegrees>
            </Position>
            <AltitudeMeters>658.79998779296875</AltitudeMeters>
            <DistanceMeters>7707.1389544717</DistanceMeters>
          </Trackpoint>
          <Trackpoint>
            <Time>2021-08-28T05:44:46.000Z</Time>
            <Position>
              <LatitudeDegrees>38.13432670198380947113037109375</LatitudeDegrees>
              <LongitudeDegrees>-1.8417812325060367584228515625</LongitudeDegrees>
            </Position>
            <AltitudeMeters>657.5999755859375</AltitudeMeters>
            <DistanceMeters>7754.056752746</DistanceMeters>
          </Trackpoint>
          <Trackpoint>
            <Time>2021-08-28T05:44:48.000Z</Time>
            <Position>
              <LatitudeDegrees>38.13408111222088336944580078125</LatitudeDegrees>
              <LongitudeDegrees>-1.841599009931087493896484375</LongitudeDegrees>
            </Position>
            <AltitudeMeters>656.79998779296875</AltitudeMeters>
            <DistanceMeters>7785.7062127695</DistanceMeters>
          </Trackpoint>
          <Trackpoint>
            <Time>2021-08-28T05:44:49.000Z</Time>
            <Position>
              <LatitudeDegrees>38.133955299854278564453125</LatitudeDegrees>
              <LongitudeDegrees>-1.84150923974812030792236328125</LongitudeDegrees>
            </Position>
            <AltitudeMeters>656.4000244140625</AltitudeMeters>
            <DistanceMeters>7801.7640405447</DistanceMeters>
          </Trackpoint>
          <Trackpoint>
            <Time>2021-08-28T05:44:50.000Z</Time>
            <Position>
              <LatitudeDegrees>38.1338294036686420440673828125</LatitudeDegrees>
              <LongitudeDegrees>-1.84141896665096282958984375</LongitudeDegrees>
            </Position>
            <AltitudeMeters>655.4000244140625</AltitudeMeters>
            <DistanceMeters>7817.8519257704</DistanceMeters>
          </Trackpoint>
          <Trackpoint>
            <Time>2021-08-28T05:44:51.000Z</Time>
            <Position>
              <LatitudeDegrees>38.133703507483005523681640625</LatitudeDegrees>
              <LongitudeDegrees>-1.841327436268329620361328125</LongitudeDegrees>
            </Position>
            <AltitudeMeters>654.5999755859375</AltitudeMeters>
            <DistanceMeters>7833.9941649542</DistanceMeters>
          </Trackpoint>
          <Trackpoint>
            <Time>2021-08-28T05:44:52.000Z</Time>
            <Position>
              <LatitudeDegrees>38.1335742585361003875732421875</LatitudeDegrees>
              <LongitudeDegrees>-1.8412333913147449493408203125</LongitudeDegrees>
            </Position>
            <AltitudeMeters>653.5999755859375</AltitudeMeters>
            <DistanceMeters>7850.5691776459</DistanceMeters>
          </Trackpoint>
          <Trackpoint>
            <Time>2021-08-28T05:44:53.000Z</Time>
            <Position>
              <LatitudeDegrees>38.1334461830556392669677734375</LatitudeDegrees>
              <LongitudeDegrees>-1.84113733470439910888671875</LongitudeDegrees>
            </Position>
            <AltitudeMeters>651.4000244140625</AltitudeMeters>
            <DistanceMeters>7867.1196561541</DistanceMeters>
          </Trackpoint>
          <Trackpoint>
            <Time>2021-08-28T05:44:54.000Z</Time>
            <Position>
              <LatitudeDegrees>38.1333164311945438385009765625</LatitudeDegrees>
              <LongitudeDegrees>-1.84104144573211669921875</LongitudeDegrees>
            </Position>
            <AltitudeMeters>650.20001220703125</AltitudeMeters>
            <DistanceMeters>7883.8238281515</DistanceMeters>
          </Trackpoint>
          <Trackpoint>
            <Time>2021-08-28T05:44:55.000Z</Time>
            <Position>
              <LatitudeDegrees>38.13318617641925811767578125</LatitudeDegrees>
              <LongitudeDegrees>-1.84094580821692943572998046875</LongitudeDegrees>
            </Position>
            <AltitudeMeters>649.20001220703125</AltitudeMeters>
            <DistanceMeters>7900.5652591736</DistanceMeters>
          </Trackpoint>
          <Trackpoint>
            <Time>2021-08-28T05:44:57.000Z</Time>
            <Position>
              <LatitudeDegrees>38.1329291872680187225341796875</LatitudeDegrees>
              <LongitudeDegrees>-1.84075352735817432403564453125</LongitudeDegrees>
            </Position>
            <AltitudeMeters>647.20001220703125</AltitudeMeters>
            <DistanceMeters>7933.7544870185</DistanceMeters>
          </Trackpoint>
          <Trackpoint>
            <Time>2021-08-28T05:44:59.000Z</Time>
            <Position>
              <LatitudeDegrees>38.13266716897487640380859375</LatitudeDegrees>
              <LongitudeDegrees>-1.84055906720459461212158203125</LongitudeDegrees>
            </Position>
            <AltitudeMeters>646</AltitudeMeters>
            <DistanceMeters>7967.5233500953</DistanceMeters>
          </Trackpoint>
          <Trackpoint>
            <Time>2021-08-28T05:45:00.000Z</Time>
            <Position>
              <LatitudeDegrees>38.13253599219024181365966796875</LatitudeDegrees>
              <LongitudeDegrees>-1.84045982547104358673095703125</LongitudeDegrees>
            </Position>
            <AltitudeMeters>645.5999755859375</AltitudeMeters>
            <DistanceMeters>7984.5126809666</DistanceMeters>
          </Trackpoint>
          <Trackpoint>
            <Time>2021-08-28T05:45:01.000Z</Time>
            <Position>
              <LatitudeDegrees>38.13240573741495609283447265625</LatitudeDegrees>
              <LongitudeDegrees>-1.84036075137555599212646484375</LongitudeDegrees>
            </Position>
            <AltitudeMeters>644.5999755859375</AltitudeMeters>
            <DistanceMeters>8001.4071373426</DistanceMeters>
          </Trackpoint>
          <Trackpoint>
            <Time>2021-08-28T05:45:03.000Z</Time>
            <Position>
              <LatitudeDegrees>38.1321422941982746124267578125</LatitudeDegrees>
              <LongitudeDegrees>-1.840166039764881134033203125</LongitudeDegrees>
            </Position>
            <AltitudeMeters>643.20001220703125</AltitudeMeters>
            <DistanceMeters>8035.3240873581</DistanceMeters>
          </Trackpoint>
          <Trackpoint>
            <Time>2021-08-28T05:45:05.000Z</Time>
            <Position>
              <LatitudeDegrees>38.131878934800624847412109375</LatitudeDegrees>
              <LongitudeDegrees>-1.83996814303100109100341796875</LongitudeDegrees>
            </Position>
            <AltitudeMeters>642.4000244140625</AltitudeMeters>
            <DistanceMeters>8069.3740301608</DistanceMeters>
          </Trackpoint>
          <Trackpoint>
            <Time>2021-08-28T05:45:06.000Z</Time>
            <Position>
              <LatitudeDegrees>38.1317459978163242340087890625</LatitudeDegrees>
              <LongitudeDegrees>-1.8398679792881011962890625</LongitudeDegrees>
            </Position>
            <AltitudeMeters>641.4000244140625</AltitudeMeters>
            <DistanceMeters>8086.5738654618</DistanceMeters>
          </Trackpoint>
          <Trackpoint>
            <Time>2021-08-28T05:45:08.000Z</Time>
            <Position>
              <LatitudeDegrees>38.13148221932351589202880859375</LatitudeDegrees>
              <LongitudeDegrees>-1.83966907672584056854248046875</LongitudeDegrees>
            </Position>
            <AltitudeMeters>640</AltitudeMeters>
            <DistanceMeters>8120.7089638801</DistanceMeters>
          </Trackpoint>
          <Trackpoint>
            <Time>2021-08-28T05:45:10.000Z</Time>
            <Position>
              <LatitudeDegrees>38.131219446659088134765625</LatitudeDegrees>
              <LongitudeDegrees>-1.8394688330590724945068359375</LongitudeDegrees>
            </Position>
            <AltitudeMeters>638.79998779296875</AltitudeMeters>
            <DistanceMeters>8154.8080659684</DistanceMeters>
          </Trackpoint>
          <Trackpoint>
            <Time>2021-08-28T05:45:11.000Z</Time>
            <Position>
              <LatitudeDegrees>38.13108776696026325225830078125</LatitudeDegrees>
              <LongitudeDegrees>-1.8393689207732677459716796875</LongitudeDegrees>
            </Position>
            <AltitudeMeters>637.5999755859375</AltitudeMeters>
            <DistanceMeters>8171.876144248</DistanceMeters>
          </Trackpoint>
          <Trackpoint>
            <Time>2021-08-28T05:45:13.000Z</Time>
            <Position>
              <LatitudeDegrees>38.1308238208293914794921875</LatitudeDegrees>
              <LongitudeDegrees>-1.83917001821100711822509765625</LongitudeDegrees>
            </Position>
            <AltitudeMeters>635.5999755859375</AltitudeMeters>
            <DistanceMeters>8206.0272435462</DistanceMeters>
          </Trackpoint>
          <Trackpoint>
            <Time>2021-08-28T05:45:16.000Z</Time>
            <Position>
              <LatitudeDegrees>38.130431212484836578369140625</LatitudeDegrees>
              <LongitudeDegrees>-1.83886894024908542633056640625</LongitudeDegrees>
            </Position>
            <AltitudeMeters>634.20001220703125</AltitudeMeters>
            <DistanceMeters>8257.0600397371</DistanceMeters>
          </Trackpoint>
          <Trackpoint>
            <Time>2021-08-28T05:45:17.000Z</Time>
            <Position>
              <LatitudeDegrees>38.13030154444277286529541015625</LatitudeDegrees>
              <LongitudeDegrees>-1.838769949972629547119140625</LongitudeDegrees>
            </Position>
            <AltitudeMeters>633.4000244140625</AltitudeMeters>
            <DistanceMeters>8273.8947939436</DistanceMeters>
          </Trackpoint>
          <Trackpoint>
            <Time>2021-08-28T05:45:18.000Z</Time>
            <Position>
              <LatitudeDegrees>38.1301735527813434600830078125</LatitudeDegrees>
              <LongitudeDegrees>-1.8386718817055225372314453125</LongitudeDegrees>
            </Position>
            <AltitudeMeters>632.5999755859375</AltitudeMeters>
            <DistanceMeters>8290.5279981476</DistanceMeters>
          </Trackpoint>
          <Trackpoint>
            <Time>2021-08-28T05:45:19.000Z</Time>
            <Position>
              <LatitudeDegrees>38.1300471536815166473388671875</LatitudeDegrees>
              <LongitudeDegrees>-1.83857507072389125823974609375</LongitudeDegrees>
            </Position>
            <AltitudeMeters>631.4000244140625</AltitudeMeters>
            <DistanceMeters>8306.9525073849</DistanceMeters>
          </Trackpoint>
          <Trackpoint>
            <Time>2021-08-28T05:45:20.000Z</Time>
            <Position>
              <LatitudeDegrees>38.12992285005748271942138671875</LatitudeDegrees>
              <LongitudeDegrees>-1.838480271399021148681640625</LongitudeDegrees>
            </Position>
            <AltitudeMeters>630.5999755859375</AltitudeMeters>
            <DistanceMeters>8323.0863532864</DistanceMeters>
          </Trackpoint>
          <Trackpoint>
            <Time>2021-08-28T05:45:21.000Z</Time>
            <Position>
              <LatitudeDegrees>38.129799552261829376220703125</LatitudeDegrees>
              <LongitudeDegrees>-1.838387735188007354736328125</LongitudeDegrees>
            </Position>
            <AltitudeMeters>630</AltitudeMeters>
            <DistanceMeters>8339.0231010746</DistanceMeters>
          </Trackpoint>
          <Trackpoint>
            <Time>2021-08-28T05:45:24.000Z</Time>
            <Position>
              <LatitudeDegrees>38.129444830119609832763671875</LatitudeDegrees>
              <LongitudeDegrees>-1.8381176702678203582763671875</LongitudeDegrees>
            </Position>
            <AltitudeMeters>629.20001220703125</AltitudeMeters>
            <DistanceMeters>8385.0431172475</DistanceMeters>
          </Trackpoint>
          <Trackpoint>
            <Time>2021-08-28T05:45:26.000Z</Time>
            <Position>
              <LatitudeDegrees>38.12921675853431224822998046875</LatitudeDegrees>
              <LongitudeDegrees>-1.8379510380327701568603515625</LongitudeDegrees>
            </Position>
            <AltitudeMeters>628.79998779296875</AltitudeMeters>
            <DistanceMeters>8414.321679147</DistanceMeters>
          </Trackpoint>
          <Trackpoint>
            <Time>2021-08-28T05:45:29.000Z</Time>
            <Position>
              <LatitudeDegrees>38.1289021857082843780517578125</LatitudeDegrees>
              <LongitudeDegrees>-1.83771257288753986358642578125</LongitudeDegrees>
            </Position>
            <AltitudeMeters>628</AltitudeMeters>
            <DistanceMeters>8455.0866997877</DistanceMeters>
          </Trackpoint>
          <Trackpoint>
            <Time>2021-08-28T05:45:30.000Z</Time>
            <Position>
              <LatitudeDegrees>38.12880353070795536041259765625</LatitudeDegrees>
              <LongitudeDegrees>-1.83763830922544002532958984375</LongitudeDegrees>
            </Position>
            <AltitudeMeters>627.5999755859375</AltitudeMeters>
            <DistanceMeters>8467.847906572</DistanceMeters>
          </Trackpoint>
          <Trackpoint>
            <Time>2021-08-28T05:45:32.000Z</Time>
            <Position>
              <LatitudeDegrees>38.1286135129630565643310546875</LatitudeDegrees>
              <LongitudeDegrees>-1.83749145828187465667724609375</LongitudeDegrees>
            </Position>
            <AltitudeMeters>627.4000244140625</AltitudeMeters>
            <DistanceMeters>8492.598671933</DistanceMeters>
          </Trackpoint>
          <Trackpoint>
            <Time>2021-08-28T05:45:34.000Z</Time>
            <Position>
              <LatitudeDegrees>38.12843740917742252349853515625</LatitudeDegrees>
              <LongitudeDegrees>-1.8373547494411468505859375</LongitudeDegrees>
            </Position>
            <AltitudeMeters>627.4000244140625</AltitudeMeters>
            <DistanceMeters>8515.5648811346</DistanceMeters>
          </Trackpoint>
          <Trackpoint>
            <Time>2021-08-28T05:45:35.000Z</Time>
            <Position>
              <LatitudeDegrees>38.128349818289279937744140625</LatitudeDegrees>
              <LongitudeDegrees>-1.83728610165417194366455078125</LongitudeDegrees>
            </Position>
            <AltitudeMeters>627.4000244140625</AltitudeMeters>
            <DistanceMeters>8527.0178672267</DistanceMeters>
          </Trackpoint>
          <Trackpoint>
            <Time>2021-08-28T05:45:36.000Z</Time>
            <Position>
              <LatitudeDegrees>38.1282676756381988525390625</LatitudeDegrees>
              <LongitudeDegrees>-1.83722156099975109100341796875</LongitudeDegrees>
            </Position>
            <AltitudeMeters>627.5999755859375</AltitudeMeters>
            <DistanceMeters>8537.7655524598</DistanceMeters>
          </Trackpoint>
          <Trackpoint>
            <Time>2021-08-28T05:45:40.000Z</Time>
            <Position>
              <LatitudeDegrees>38.127959556877613067626953125</LatitudeDegrees>
              <LongitudeDegrees>-1.836984939873218536376953125</LongitudeDegrees>
            </Position>
            <AltitudeMeters>628.20001220703125</AltitudeMeters>
            <DistanceMeters>8577.8316821656</DistanceMeters>
          </Trackpoint>
          <Trackpoint>
            <Time>2021-08-28T05:45:41.000Z</Time>
            <Position>
              <LatitudeDegrees>38.12788671813905239105224609375</LatitudeDegrees>
              <LongitudeDegrees>-1.83692760765552520751953125</LongitudeDegrees>
            </Position>
            <AltitudeMeters>628.4000244140625</AltitudeMeters>
            <DistanceMeters>8587.3670814606</DistanceMeters>
          </Trackpoint>
          <Trackpoint>
            <Time>2021-08-28T05:45:44.000Z</Time>
            <Position>
              <LatitudeDegrees>38.12767465598881244659423828125</LatitudeDegrees>
              <LongitudeDegrees>-1.83676558546721935272216796875</LongitudeDegrees>
            </Position>
            <AltitudeMeters>628.79998779296875</AltitudeMeters>
            <DistanceMeters>8614.9049969534</DistanceMeters>
          </Trackpoint>
          <Trackpoint>
            <Time>2021-08-28T05:45:49.000Z</Time>
            <Position>
              <LatitudeDegrees>38.12732697464525699615478515625</LatitudeDegrees>
              <LongitudeDegrees>-1.83650314807891845703125</LongitudeDegrees>
            </Position>
            <AltitudeMeters>629.79998779296875</AltitudeMeters>
            <DistanceMeters>8659.9102548308</DistanceMeters>
          </Trackpoint>
          <Trackpoint>
            <Time>2021-08-28T05:45:50.000Z</Time>
            <Position>
              <LatitudeDegrees>38.1272591650485992431640625</LatitudeDegrees>
              <LongitudeDegrees>-1.83645310811698436737060546875</LongitudeDegrees>
            </Position>
            <AltitudeMeters>630.20001220703125</AltitudeMeters>
            <DistanceMeters>8668.6372053136</DistanceMeters>
          </Trackpoint>
          <Trackpoint>
            <Time>2021-08-28T05:45:54.000Z</Time>
            <Position>
              <LatitudeDegrees>38.12699069269001483917236328125</LatitudeDegrees>
              <LongitudeDegrees>-1.83624909259378910064697265625</LongitudeDegrees>
            </Position>
            <AltitudeMeters>630.5999755859375</AltitudeMeters>
            <DistanceMeters>8703.4507190691</DistanceMeters>
          </Trackpoint>
          <Trackpoint>
            <Time>2021-08-28T05:45:56.000Z</Time>
            <Position>
              <LatitudeDegrees>38.12685674987733364105224609375</LatitudeDegrees>
              <LongitudeDegrees>-1.8361428938806056976318359375</LongitudeDegrees>
            </Position>
            <AltitudeMeters>630.79998779296875</AltitudeMeters>
            <DistanceMeters>8721.0206420431</DistanceMeters>
          </Trackpoint>
          <Trackpoint>
            <Time>2021-08-28T05:45:59.000Z</Time>
            <Position>
              <LatitudeDegrees>38.1266511417925357818603515625</LatitudeDegrees>
              <LongitudeDegrees>-1.8359755910933017730712890625</LongitudeDegrees>
            </Position>
            <AltitudeMeters>631</AltitudeMeters>
            <DistanceMeters>8748.1918024863</DistanceMeters>
          </Trackpoint>
          <Trackpoint>
            <Time>2021-08-28T05:46:00.000Z</Time>
            <Position>
              <LatitudeDegrees>38.1265837512910366058349609375</LatitudeDegrees>
              <LongitudeDegrees>-1.83592001907527446746826171875</LongitudeDegrees>
            </Position>
            <AltitudeMeters>631.20001220703125</AltitudeMeters>
            <DistanceMeters>8757.1323973592</DistanceMeters>
          </Trackpoint>
          <Trackpoint>
            <Time>2021-08-28T05:46:07.000Z</Time>
            <Position>
              <LatitudeDegrees>38.1260885484516620635986328125</LatitudeDegrees>
              <LongitudeDegrees>-1.8355481140315532684326171875</LongitudeDegrees>
            </Position>
            <AltitudeMeters>631.4000244140625</AltitudeMeters>
            <DistanceMeters>8821.149659823</DistanceMeters>
          </Trackpoint>
          <Trackpoint>
            <Time>2021-08-28T05:46:10.000Z</Time>
            <Position>
              <LatitudeDegrees>38.12586617656052112579345703125</LatitudeDegrees>
              <LongitudeDegrees>-1.83539581485092639923095703125</LongitudeDegrees>
            </Position>
            <AltitudeMeters>631.20001220703125</AltitudeMeters>
            <DistanceMeters>8849.2637593309</DistanceMeters>
          </Trackpoint>
          <Trackpoint>
            <Time>2021-08-28T05:46:15.000Z</Time>
            <Position>
              <LatitudeDegrees>38.1254739873111248016357421875</LatitudeDegrees>
              <LongitudeDegrees>-1.83517285622656345367431640625</LongitudeDegrees>
            </Position>
            <AltitudeMeters>631</AltitudeMeters>
            <DistanceMeters>8897.0814626072</DistanceMeters>
          </Trackpoint>
          <Trackpoint>
            <Time>2021-08-28T05:46:20.000Z</Time>
            <Position>
              <LatitudeDegrees>38.12507928349077701568603515625</LatitudeDegrees>
              <LongitudeDegrees>-1.83498795144259929656982421875</LongitudeDegrees>
            </Position>
            <AltitudeMeters>630.5999755859375</AltitudeMeters>
            <DistanceMeters>8943.9010003765</DistanceMeters>
          </Trackpoint>
          <Trackpoint>
            <Time>2021-08-28T05:46:23.000Z</Time>
            <Position>
              <LatitudeDegrees>38.12484207563102245330810546875</LatitudeDegrees>
              <LongitudeDegrees>-1.83490832336246967315673828125</LongitudeDegrees>
            </Position>
            <AltitudeMeters>630.5999755859375</AltitudeMeters>
            <DistanceMeters>8971.2075844229</DistanceMeters>
          </Trackpoint>
          <Trackpoint>
            <Time>2021-08-28T05:46:30.000Z</Time>
            <Position>
              <LatitudeDegrees>38.124311752617359161376953125</LatitudeDegrees>
              <LongitudeDegrees>-1.8347796611487865447998046875</LongitudeDegrees>
            </Position>
            <AltitudeMeters>631.20001220703125</AltitudeMeters>
            <DistanceMeters>9031.2990404607</DistanceMeters>
          </Trackpoint>
          <Trackpoint>
            <Time>2021-08-28T05:46:31.000Z</Time>
            <Position>
              <LatitudeDegrees>38.12424042262136936187744140625</LatitudeDegrees>
              <LongitudeDegrees>-1.83476448990404605865478515625</LongitudeDegrees>
            </Position>
            <AltitudeMeters>631.4000244140625</AltitudeMeters>
            <DistanceMeters>9039.3488745311</DistanceMeters>
          </Trackpoint>
          <Trackpoint>
            <Time>2021-08-28T05:46:40.000Z</Time>
            <Position>
              <LatitudeDegrees>38.12365184538066387176513671875</LatitudeDegrees>
              <LongitudeDegrees>-1.834633313119411468505859375</LongitudeDegrees>
            </Position>
            <AltitudeMeters>631.79998779296875</AltitudeMeters>
            <DistanceMeters>9105.8579354681</DistanceMeters>
          </Trackpoint>
          <Trackpoint>
            <Time>2021-08-28T05:46:44.000Z</Time>
            <Position>
              <LatitudeDegrees>38.12339602969586849212646484375</LatitudeDegrees>
              <LongitudeDegrees>-1.8345885537564754486083984375</LongitudeDegrees>
            </Position>
            <AltitudeMeters>631.79998779296875</AltitudeMeters>
            <DistanceMeters>9134.5990790247</DistanceMeters>
          </Trackpoint>
          <Trackpoint>
            <Time>2021-08-28T05:46:50.000Z</Time>
            <Position>
              <LatitudeDegrees>38.1230237893760204315185546875</LatitudeDegrees>
              <LongitudeDegrees>-1.83451957069337368011474609375</LongitudeDegrees>
            </Position>
            <AltitudeMeters>632.5999755859375</AltitudeMeters>
            <DistanceMeters>9176.4681340672</DistanceMeters>
          </Trackpoint>
          <Trackpoint>
            <Time>2021-08-28T05:46:53.000Z</Time>
            <Position>
              <LatitudeDegrees>38.12283678911626338958740234375</LatitudeDegrees>
              <LongitudeDegrees>-1.83448302559554576873779296875</LongitudeDegrees>
            </Position>
            <AltitudeMeters>632.79998779296875</AltitudeMeters>
            <DistanceMeters>9197.5263627204</DistanceMeters>
          </Trackpoint>
          <Trackpoint>
            <Time>2021-08-28T05:46:58.000Z</Time>
            <Position>
              <LatitudeDegrees>38.1225319392979145050048828125</LatitudeDegrees>
              <LongitudeDegrees>-1.83441563509404659271240234375</LongitudeDegrees>
            </Position>
            <AltitudeMeters>634</AltitudeMeters>
            <DistanceMeters>9231.9659109283</DistanceMeters>
          </Trackpoint>
          <Trackpoint>
            <Time>2021-08-28T05:47:00.000Z</Time>
            <Position>
              <LatitudeDegrees>38.12241652049124240875244140625</LatitudeDegrees>
              <LongitudeDegrees>-1.83439292013645172119140625</LongitudeDegrees>
            </Position>
            <AltitudeMeters>635.20001220703125</AltitudeMeters>
            <DistanceMeters>9244.9651347703</DistanceMeters>
          </Trackpoint>
          <Trackpoint>
            <Time>2021-08-28T05:47:04.000Z</Time>
            <Position>
              <LatitudeDegrees>38.122188113629817962646484375</LatitudeDegrees>
              <LongitudeDegrees>-1.83434304781258106231689453125</LongitudeDegrees>
            </Position>
            <AltitudeMeters>636.20001220703125</AltitudeMeters>
            <DistanceMeters>9270.7595933331</DistanceMeters>
          </Trackpoint>
          <Trackpoint>
            <Time>2021-08-28T05:47:08.000Z</Time>
            <Position>
              <LatitudeDegrees>38.1219646520912647247314453125</LatitudeDegrees>
              <LongitudeDegrees>-1.8342914991080760955810546875</LongitudeDegrees>
            </Position>
            <AltitudeMeters>637.5999755859375</AltitudeMeters>
            <DistanceMeters>9296.037413832</DistanceMeters>
          </Trackpoint>
          <Trackpoint>
            <Time>2021-08-28T05:47:09.000Z</Time>
            <Position>
              <LatitudeDegrees>38.12190891243517398834228515625</LatitudeDegrees>
              <LongitudeDegrees>-1.834281273186206817626953125</LongitudeDegrees>
            </Position>
            <AltitudeMeters>637.79998779296875</AltitudeMeters>
            <DistanceMeters>9302.3055764501</DistanceMeters>
          </Trackpoint>
          <Trackpoint>
            <Time>2021-08-28T05:47:10.000Z</Time>
            <Position>
              <LatitudeDegrees>38.1218545138835906982421875</LatitudeDegrees>
              <LongitudeDegrees>-1.834271885454654693603515625</LongitudeDegrees>
            </Position>
            <AltitudeMeters>637.79998779296875</AltitudeMeters>
            <DistanceMeters>9308.4154320965</DistanceMeters>
          </Trackpoint>
          <Trackpoint>
            <Time>2021-08-28T05:47:18.000Z</Time>
            <Position>
              <LatitudeDegrees>38.12142946757376194000244140625</LatitudeDegrees>
              <LongitudeDegrees>-1.8341781757771968841552734375</LongitudeDegrees>
            </Position>
            <AltitudeMeters>638.20001220703125</AltitudeMeters>
            <DistanceMeters>9356.4303537002</DistanceMeters>
          </Trackpoint>
          <Trackpoint>
            <Time>2021-08-28T05:47:20.000Z</Time>
            <Position>
              <LatitudeDegrees>38.1213246099650859832763671875</LatitudeDegrees>
              <LongitudeDegrees>-1.83415294624865055084228515625</LongitudeDegrees>
            </Position>
            <AltitudeMeters>638.4000244140625</AltitudeMeters>
            <DistanceMeters>9368.3083128835</DistanceMeters>
          </Trackpoint>
          <Trackpoint>
            <Time>2021-08-28T05:47:22.000Z</Time>
            <Position>
              <LatitudeDegrees>38.121218495070934295654296875</LatitudeDegrees>
              <LongitudeDegrees>-1.83411925099790096282958984375</LongitudeDegrees>
            </Position>
            <AltitudeMeters>638.5999755859375</AltitudeMeters>
            <DistanceMeters>9380.4821214329</DistanceMeters>
          </Trackpoint>
          <Trackpoint>
            <Time>2021-08-28T05:47:28.000Z</Time>
            <Position>
              <LatitudeDegrees>38.12090375460684299468994140625</LatitudeDegrees>
              <LongitudeDegrees>-1.8339954502880573272705078125</LongitudeDegrees>
            </Position>
            <AltitudeMeters>639.20001220703125</AltitudeMeters>
            <DistanceMeters>9417.1522151539</DistanceMeters>
          </Trackpoint>
          <Trackpoint>
            <Time>2021-08-28T05:47:30.000Z</Time>
            <Position>
              <LatitudeDegrees>38.120802752673625946044921875</LatitudeDegrees>
              <LongitudeDegrees>-1.83394323103129863739013671875</LongitudeDegrees>
            </Position>
            <AltitudeMeters>639.4000244140625</AltitudeMeters>
            <DistanceMeters>9429.2881348471</DistanceMeters>
          </Trackpoint>
          <Trackpoint>
            <Time>2021-08-28T05:47:33.000Z</Time>
            <Position>
              <LatitudeDegrees>38.12065078876912593841552734375</LatitudeDegrees>
              <LongitudeDegrees>-1.8338640220463275909423828125</LongitudeDegrees>
            </Position>
            <AltitudeMeters>639.5999755859375</AltitudeMeters>
            <DistanceMeters>9447.5686173069</DistanceMeters>
          </Trackpoint>
          <Trackpoint>
            <Time>2021-08-28T05:47:37.000Z</Time>
            <Position>
              <LatitudeDegrees>38.12044912017881870269775390625</LatitudeDegrees>
              <LongitudeDegrees>-1.83375279419124126434326171875</LongitudeDegrees>
            </Position>
            <AltitudeMeters>640</AltitudeMeters>
            <DistanceMeters>9472.0364739372</DistanceMeters>
          </Trackpoint>
          <Trackpoint>
            <Time>2021-08-28T05:47:40.000Z</Time>
            <Position>
              <LatitudeDegrees>38.12030780129134654998779296875</LatitudeDegrees>
              <LongitudeDegrees>-1.8336554802954196929931640625</LongitudeDegrees>
            </Position>
            <AltitudeMeters>640.79998779296875</AltitudeMeters>
            <DistanceMeters>9489.9252371427</DistanceMeters>
          </Trackpoint>
          <Trackpoint>
            <Time>2021-08-28T05:47:48.000Z</Time>
            <Position>
              <LatitudeDegrees>38.11993698589503765106201171875</LatitudeDegrees>
              <LongitudeDegrees>-1.83338709175586700439453125</LongitudeDegrees>
            </Position>
            <AltitudeMeters>641.4000244140625</AltitudeMeters>
            <DistanceMeters>9537.419680247</DistanceMeters>
          </Trackpoint>
          <Trackpoint>
            <Time>2021-08-28T05:47:50.000Z</Time>
            <Position>
              <LatitudeDegrees>38.11984847299754619598388671875</LatitudeDegrees>
              <LongitudeDegrees>-1.8333185277879238128662109375</LongitudeDegrees>
            </Position>
            <AltitudeMeters>641.4000244140625</AltitudeMeters>
            <DistanceMeters>9548.956330398</DistanceMeters>
          </Trackpoint>
          <Trackpoint>
            <Time>2021-08-28T05:47:53.000Z</Time>
            <Position>
              <LatitudeDegrees>38.11971788294613361358642578125</LatitudeDegrees>
              <LongitudeDegrees>-1.83320478536188602447509765625</LongitudeDegrees>
            </Position>
            <AltitudeMeters>641.79998779296875</AltitudeMeters>
            <DistanceMeters>9566.5765485662</DistanceMeters>
          </Trackpoint>
          <Trackpoint>
            <Time>2021-08-28T05:47:56.000Z</Time>
            <Position>
              <LatitudeDegrees>38.1195851974189281463623046875</LatitudeDegrees>
              <LongitudeDegrees>-1.8330808170139789581298828125</LongitudeDegrees>
            </Position>
            <AltitudeMeters>642.5999755859375</AltitudeMeters>
            <DistanceMeters>9584.9051301772</DistanceMeters>
          </Trackpoint>
          <Trackpoint>
            <Time>2021-08-28T05:48:00.000Z</Time>
            <Position>
              <LatitudeDegrees>38.119424097239971160888671875</LatitudeDegrees>
              <LongitudeDegrees>-1.83290756307542324066162109375</LongitudeDegrees>
            </Position>
            <AltitudeMeters>643</AltitudeMeters>
            <DistanceMeters>9608.3926892269</DistanceMeters>
          </Trackpoint>
          <Trackpoint>
            <Time>2021-08-28T05:48:05.000Z</Time>
            <Position>
              <LatitudeDegrees>38.1192284636199474334716796875</LatitudeDegrees>
              <LongitudeDegrees>-1.83266951702535152435302734375</LongitudeDegrees>
            </Position>
            <AltitudeMeters>643.79998779296875</AltitudeMeters>
            <DistanceMeters>9638.5359359311</DistanceMeters>
          </Trackpoint>
          <Trackpoint>
            <Time>2021-08-28T05:48:10.000Z</Time>
            <Position>
              <LatitudeDegrees>38.119031824171543121337890625</LatitudeDegrees>
              <LongitudeDegrees>-1.832407414913177490234375</LongitudeDegrees>
            </Position>
            <AltitudeMeters>644.20001220703125</AltitudeMeters>
            <DistanceMeters>9670.249526932</DistanceMeters>
          </Trackpoint>
          <Trackpoint>
            <Time>2021-08-28T05:48:14.000Z</Time>
            <Position>
              <LatitudeDegrees>38.11887784861028194427490234375</LatitudeDegrees>
              <LongitudeDegrees>-1.8321745656430721282958984375</LongitudeDegrees>
            </Position>
            <AltitudeMeters>644.5999755859375</AltitudeMeters>
            <DistanceMeters>9696.8846521555</DistanceMeters>
          </Trackpoint>
          <Trackpoint>
            <Time>2021-08-28T05:48:20.000Z</Time>
            <Position>
              <LatitudeDegrees>38.11865673400461673736572265625</LatitudeDegrees>
              <LongitudeDegrees>-1.83179654181003570556640625</LongitudeDegrees>
            </Position>
            <AltitudeMeters>644.20001220703125</AltitudeMeters>
            <DistanceMeters>9738.1325954147</DistanceMeters>
          </Trackpoint>
          <Trackpoint>
            <Time>2021-08-28T05:48:23.000Z</Time>
            <Position>
              <LatitudeDegrees>38.11855061911046504974365234375</LatitudeDegrees>
              <LongitudeDegrees>-1.83159043081104755401611328125</LongitudeDegrees>
            </Position>
            <AltitudeMeters>644.20001220703125</AltitudeMeters>
            <DistanceMeters>9759.7017757049</DistanceMeters>
          </Trackpoint>
          <Trackpoint>
            <Time>2021-08-28T05:48:30.000Z</Time>
            <Position>
              <LatitudeDegrees>38.1183141656219959259033203125</LatitudeDegrees>
              <LongitudeDegrees>-1.83106907643377780914306640625</LongitudeDegrees>
            </Position>
            <AltitudeMeters>644.20001220703125</AltitudeMeters>
            <DistanceMeters>9812.396980675</DistanceMeters>
          </Trackpoint>
          <Trackpoint>
            <Time>2021-08-28T05:48:32.000Z</Time>
            <Position>
              <LatitudeDegrees>38.118255995213985443115234375</LatitudeDegrees>
              <LongitudeDegrees>-1.83090764097869396209716796875</LongitudeDegrees>
            </Position>
            <AltitudeMeters>643.79998779296875</AltitudeMeters>
            <DistanceMeters>9827.9453955961</DistanceMeters>
          </Trackpoint>
          <Trackpoint>
            <Time>2021-08-28T05:48:35.000Z</Time>
            <Position>
              <LatitudeDegrees>38.1181733496487140655517578125</LatitudeDegrees>
              <LongitudeDegrees>-1.8306505680084228515625</LongitudeDegrees>
            </Position>
            <AltitudeMeters>643</AltitudeMeters>
            <DistanceMeters>9852.2629527515</DistanceMeters>
          </Trackpoint>
          <Trackpoint>
            <Time>2021-08-28T05:48:40.000Z</Time>
            <Position>
              <LatitudeDegrees>38.1180479563772678375244140625</LatitudeDegrees>
              <LongitudeDegrees>-1.830195598304271697998046875</LongitudeDegrees>
            </Position>
            <AltitudeMeters>642.79998779296875</AltitudeMeters>
            <DistanceMeters>9894.4765317917</DistanceMeters>
          </Trackpoint>
          <Trackpoint>
            <Time>2021-08-28T05:48:45.000Z</Time>
            <Position>
              <LatitudeDegrees>38.11793069355189800262451171875</LatitudeDegrees>
              <LongitudeDegrees>-1.829706095159053802490234375</LongitudeDegrees>
            </Position>
            <AltitudeMeters>642.4000244140625</AltitudeMeters>
            <DistanceMeters>9939.2834162604</DistanceMeters>
          </Trackpoint>
          <Trackpoint>
            <Time>2021-08-28T05:48:46.000Z</Time>
            <Position>
              <LatitudeDegrees>38.117904625833034515380859375</LatitudeDegrees>
              <LongitudeDegrees>-1.8296058475971221923828125</LongitudeDegrees>
            </Position>
            <AltitudeMeters>642</AltitudeMeters>
            <DistanceMeters>9948.5288856167</DistanceMeters>
          </Trackpoint>
          <Trackpoint>
            <Time>2021-08-28T05:48:47.000Z</Time>
            <Position>
              <LatitudeDegrees>38.117881156504154205322265625</LatitudeDegrees>
              <LongitudeDegrees>-1.82950400747358798980712890625</LongitudeDegrees>
            </Position>
            <AltitudeMeters>641.79998779296875</AltitudeMeters>
            <DistanceMeters>9957.8216043273</DistanceMeters>
          </Trackpoint>
          <Trackpoint>
            <Time>2021-08-28T05:48:50.000Z</Time>
            <Position>
              <LatitudeDegrees>38.117806725203990936279296875</LatitudeDegrees>
              <LongitudeDegrees>-1.82919119484722614288330078125</LongitudeDegrees>
            </Position>
            <AltitudeMeters>641.5999755859375</AltitudeMeters>
            <DistanceMeters>9986.4386907042</DistanceMeters>
          </Trackpoint>
          <Trackpoint>
            <Time>2021-08-28T05:48:52.000Z</Time>
            <Position>
              <LatitudeDegrees>38.11775274574756622314453125</LatitudeDegrees>
              <LongitudeDegrees>-1.82897393591701984405517578125</LongitudeDegrees>
            </Position>
            <AltitudeMeters>641.4000244140625</AltitudeMeters>
            <DistanceMeters>10006.389096199</DistanceMeters>
          </Trackpoint>
          <Trackpoint>
            <Time>2021-08-28T05:48:55.000Z</Time>
            <Position>
              <LatitudeDegrees>38.11767160892486572265625</LatitudeDegrees>
              <LongitudeDegrees>-1.82864352129399776458740234375</LongitudeDegrees>
            </Position>
            <AltitudeMeters>641.20001220703125</AltitudeMeters>
            <DistanceMeters>10036.698745274</DistanceMeters>
          </Trackpoint>
          <Trackpoint>
            <Time>2021-08-28T05:48:56.000Z</Time>
            <Position>
              <LatitudeDegrees>38.1176429428160190582275390625</LatitudeDegrees>
              <LongitudeDegrees>-1.82853120379149913787841796875</LongitudeDegrees>
            </Position>
            <AltitudeMeters>640.79998779296875</AltitudeMeters>
            <DistanceMeters>10047.038333033</DistanceMeters>
          </Trackpoint>
          <Trackpoint>
            <Time>2021-08-28T05:48:58.000Z</Time>
            <Position>
              <LatitudeDegrees>38.11758670024573802947998046875</LatitudeDegrees>
              <LongitudeDegrees>-1.8283054791390895843505859375</LongitudeDegrees>
            </Position>
            <AltitudeMeters>639.20001220703125</AltitudeMeters>
            <DistanceMeters>10067.771585528</DistanceMeters>
          </Trackpoint>
          <Trackpoint>
            <Time>2021-08-28T05:49:00.000Z</Time>
            <Position>
              <LatitudeDegrees>38.117534816265106201171875</LatitudeDegrees>
              <LongitudeDegrees>-1.828077323734760284423828125</LongitudeDegrees>
            </Position>
            <AltitudeMeters>638.5999755859375</AltitudeMeters>
            <DistanceMeters>10088.568329056</DistanceMeters>
          </Trackpoint>
          <Trackpoint>
            <Time>2021-08-28T05:49:03.000Z</Time>
            <Position>
              <LatitudeDegrees>38.1174498237669467926025390625</LatitudeDegrees>
              <LongitudeDegrees>-1.8277334980666637420654296875</LongitudeDegrees>
            </Position>
            <AltitudeMeters>638</AltitudeMeters>
            <DistanceMeters>10120.127071446</DistanceMeters>
          </Trackpoint>
          <Trackpoint>
            <Time>2021-08-28T05:49:04.000Z</Time>
            <Position>
              <LatitudeDegrees>38.1174208223819732666015625</LatitudeDegrees>
              <LongitudeDegrees>-1.827619336545467376708984375</LongitudeDegrees>
            </Position>
            <AltitudeMeters>637.79998779296875</AltitudeMeters>
            <DistanceMeters>10130.631714902</DistanceMeters>
          </Trackpoint>
          <Trackpoint>
            <Time>2021-08-28T05:49:06.000Z</Time>
            <Position>
              <LatitudeDegrees>38.11736307106912136077880859375</LatitudeDegrees>
              <LongitudeDegrees>-1.82739227078855037689208984375</LongitudeDegrees>
            </Position>
            <AltitudeMeters>637</AltitudeMeters>
            <DistanceMeters>10151.528303298</DistanceMeters>
          </Trackpoint>
          <Trackpoint>
            <Time>2021-08-28T05:49:08.000Z</Time>
            <Position>
              <LatitudeDegrees>38.11730607412755489349365234375</LatitudeDegrees>
              <LongitudeDegrees>-1.82717199437320232391357421875</LongitudeDegrees>
            </Position>
            <AltitudeMeters>636.4000244140625</AltitudeMeters>
            <DistanceMeters>10171.833802318</DistanceMeters>
          </Trackpoint>
          <Trackpoint>
            <Time>2021-08-28T05:49:10.000Z</Time>
            <Position>
              <LatitudeDegrees>38.11725075356662273406982421875</LatitudeDegrees>
              <LongitudeDegrees>-1.82694652117788791656494140625</LongitudeDegrees>
            </Position>
            <AltitudeMeters>635.5999755859375</AltitudeMeters>
            <DistanceMeters>10192.515597719</DistanceMeters>
          </Trackpoint>
          <Trackpoint>
            <Time>2021-08-28T05:49:12.000Z</Time>
            <Position>
              <LatitudeDegrees>38.11719962395727634429931640625</LatitudeDegrees>
              <LongitudeDegrees>-1.82671618647873401641845703125</LongitudeDegrees>
            </Position>
            <AltitudeMeters>635.20001220703125</AltitudeMeters>
            <DistanceMeters>10213.472381774</DistanceMeters>
          </Trackpoint>
          <Trackpoint>
            <Time>2021-08-28T05:49:13.000Z</Time>
            <Position>
              <LatitudeDegrees>38.11717364005744457244873046875</LatitudeDegrees>
              <LongitudeDegrees>-1.82659984566271305084228515625</LongitudeDegrees>
            </Position>
            <AltitudeMeters>635</AltitudeMeters>
            <DistanceMeters>10224.062639062</DistanceMeters>
          </Trackpoint>
          <Trackpoint>
            <Time>2021-08-28T05:49:14.000Z</Time>
            <Position>
              <LatitudeDegrees>38.11714614741504192352294921875</LatitudeDegrees>
              <LongitudeDegrees>-1.8264832533895969390869140625</LongitudeDegrees>
            </Position>
            <AltitudeMeters>634.79998779296875</AltitudeMeters>
            <DistanceMeters>10234.72089228</DistanceMeters>
          </Trackpoint>
          <Trackpoint>
            <Time>2021-08-28T05:49:15.000Z</Time>
            <Position>
              <LatitudeDegrees>38.11711731366813182830810546875</LatitudeDegrees>
              <LongitudeDegrees>-1.8263669125735759735107421875</LongitudeDegrees>
            </Position>
            <AltitudeMeters>634.4000244140625</AltitudeMeters>
            <DistanceMeters>10245.401996427</DistanceMeters>
          </Trackpoint>
          <Trackpoint>
            <Time>2021-08-28T05:49:16.000Z</Time>
            <Position>
              <LatitudeDegrees>38.11708889901638031005859375</LatitudeDegrees>
              <LongitudeDegrees>-1.8262515775859355926513671875</LongitudeDegrees>
            </Position>
            <AltitudeMeters>634</AltitudeMeters>
            <DistanceMeters>10255.985003473</DistanceMeters>
          </Trackpoint>
          <Trackpoint>
            <Time>2021-08-28T05:49:18.000Z</Time>
            <Position>
              <LatitudeDegrees>38.11702729202806949615478515625</LatitudeDegrees>
              <LongitudeDegrees>-1.82601830922067165374755859375</LongitudeDegrees>
            </Position>
            <AltitudeMeters>633.4000244140625</AltitudeMeters>
            <DistanceMeters>10277.531564455</DistanceMeters>
          </Trackpoint>
          <Trackpoint>
            <Time>2021-08-28T05:49:19.000Z</Time>
            <Position>
              <LatitudeDegrees>38.11699292622506618499755859375</LatitudeDegrees>
              <LongitudeDegrees>-1.8259022198617458343505859375</LongitudeDegrees>
            </Position>
            <AltitudeMeters>632.79998779296875</AltitudeMeters>
            <DistanceMeters>10288.392914217</DistanceMeters>
          </Trackpoint>
          <Trackpoint>
            <Time>2021-08-28T05:49:20.000Z</Time>
            <Position>
              <LatitudeDegrees>38.1169573031365871429443359375</LatitudeDegrees>
              <LongitudeDegrees>-1.82578361593186855316162109375</LongitudeDegrees>
            </Position>
            <AltitudeMeters>632.20001220703125</AltitudeMeters>
            <DistanceMeters>10299.50982144</DistanceMeters>
          </Trackpoint>
          <Trackpoint>
            <Time>2021-08-28T05:49:21.000Z</Time>
            <Position>
              <LatitudeDegrees>38.1169231049716472625732421875</LatitudeDegrees>
              <LongitudeDegrees>-1.82566291652619838714599609375</LongitudeDegrees>
            </Position>
            <AltitudeMeters>631.4000244140625</AltitudeMeters>
            <DistanceMeters>10310.743892313</DistanceMeters>
          </Trackpoint>
          <Trackpoint>
            <Time>2021-08-28T05:49:23.000Z</Time>
            <Position>
              <LatitudeDegrees>38.1168436445295810699462890625</LatitudeDegrees>
              <LongitudeDegrees>-1.82541782967746257781982421875</LongitudeDegrees>
            </Position>
            <AltitudeMeters>629.79998779296875</AltitudeMeters>
            <DistanceMeters>10333.956489355</DistanceMeters>
          </Trackpoint>
          <Trackpoint>
            <Time>2021-08-28T05:49:27.000Z</Time>
            <Position>
              <LatitudeDegrees>38.11665396206080913543701171875</LatitudeDegrees>
              <LongitudeDegrees>-1.824924387037754058837890625</LongitudeDegrees>
            </Position>
            <AltitudeMeters>629</AltitudeMeters>
            <DistanceMeters>10382.047893772</DistanceMeters>
          </Trackpoint>
          <Trackpoint>
            <Time>2021-08-28T05:49:28.000Z</Time>
            <Position>
              <LatitudeDegrees>38.11660266481339931488037109375</LatitudeDegrees>
              <LongitudeDegrees>-1.82480678893625736236572265625</LongitudeDegrees>
            </Position>
            <AltitudeMeters>628.20001220703125</AltitudeMeters>
            <DistanceMeters>10393.822390095</DistanceMeters>
          </Trackpoint>
          <Trackpoint>
            <Time>2021-08-28T05:49:30.000Z</Time>
            <Position>
              <LatitudeDegrees>38.116488754749298095703125</LatitudeDegrees>
              <LongitudeDegrees>-1.82458165101706981658935546875</LongitudeDegrees>
            </Position>
            <AltitudeMeters>627.4000244140625</AltitudeMeters>
            <DistanceMeters>10417.26203474</DistanceMeters>
          </Trackpoint>
          <Trackpoint>
            <Time>2021-08-28T05:49:31.000Z</Time>
            <Position>
              <LatitudeDegrees>38.11642907559871673583984375</LatitudeDegrees>
              <LongitudeDegrees>-1.824473775923252105712890625</LongitudeDegrees>
            </Position>
            <AltitudeMeters>626.79998779296875</AltitudeMeters>
            <DistanceMeters>10428.810028891</DistanceMeters>
          </Trackpoint>
          <Trackpoint>
            <Time>2021-08-28T05:49:32.000Z</Time>
            <Position>
              <LatitudeDegrees>38.11636746861040592193603515625</LatitudeDegrees>
              <LongitudeDegrees>-1.82437025941908359527587890625</LongitudeDegrees>
            </Position>
            <AltitudeMeters>626.5999755859375</AltitudeMeters>
            <DistanceMeters>10440.175954881</DistanceMeters>
          </Trackpoint>
          <Trackpoint>
            <Time>2021-08-28T05:49:33.000Z</Time>
            <Position>
              <LatitudeDegrees>38.11630024574697017669677734375</LatitudeDegrees>
              <LongitudeDegrees>-1.8242711015045642852783203125</LongitudeDegrees>
            </Position>
            <AltitudeMeters>626</AltitudeMeters>
            <DistanceMeters>10451.638398436</DistanceMeters>
          </Trackpoint>
          <Trackpoint>
            <Time>2021-08-28T05:49:34.000Z</Time>
            <Position>
              <LatitudeDegrees>38.1162290833890438079833984375</LatitudeDegrees>
              <LongitudeDegrees>-1.82417479343712329864501953125</LongitudeDegrees>
            </Position>
            <AltitudeMeters>625.5999755859375</AltitudeMeters>
            <DistanceMeters>10463.20787652</DistanceMeters>
          </Trackpoint>
          <Trackpoint>
            <Time>2021-08-28T05:49:36.000Z</Time>
            <Position>
              <LatitudeDegrees>38.1160842441022396087646484375</LatitudeDegrees>
              <LongitudeDegrees>-1.82398854754865169525146484375</LongitudeDegrees>
            </Position>
            <AltitudeMeters>624.79998779296875</AltitudeMeters>
            <DistanceMeters>10486.139852706</DistanceMeters>
          </Trackpoint>
          <Trackpoint>
            <Time>2021-08-28T05:49:37.000Z</Time>
            <Position>
              <LatitudeDegrees>38.11600989662110805511474609375</LatitudeDegrees>
              <LongitudeDegrees>-1.82389919646084308624267578125</LongitudeDegrees>
            </Position>
            <AltitudeMeters>624.4000244140625</AltitudeMeters>
            <DistanceMeters>10497.528399056</DistanceMeters>
          </Trackpoint>
          <Trackpoint>
            <Time>2021-08-28T05:49:39.000Z</Time>
            <Position>
              <LatitudeDegrees>38.11585030518472194671630859375</LatitudeDegrees>
              <LongitudeDegrees>-1.82372837327420711517333984375</LongitudeDegrees>
            </Position>
            <AltitudeMeters>623.5999755859375</AltitudeMeters>
            <DistanceMeters>10520.750913892</DistanceMeters>
          </Trackpoint>
          <Trackpoint>
            <Time>2021-08-28T05:49:40.000Z</Time>
            <Position>
              <LatitudeDegrees>38.11576950363814830780029296875</LatitudeDegrees>
              <LongitudeDegrees>-1.82364556007087230682373046875</LongitudeDegrees>
            </Position>
            <AltitudeMeters>623.20001220703125</AltitudeMeters>
            <DistanceMeters>10532.303989669</DistanceMeters>
          </Trackpoint>
          <Trackpoint>
            <Time>2021-08-28T05:49:42.000Z</Time>
            <Position>
              <LatitudeDegrees>38.11560018919408321380615234375</LatitudeDegrees>
              <LongitudeDegrees>-1.823486387729644775390625</LongitudeDegrees>
            </Position>
            <AltitudeMeters>622.4000244140625</AltitudeMeters>
            <DistanceMeters>10555.743634314</DistanceMeters>
          </Trackpoint>
          <Trackpoint>
            <Time>2021-08-28T05:49:43.000Z</Time>
            <Position>
              <LatitudeDegrees>38.11551033519208431243896484375</LatitudeDegrees>
              <LongitudeDegrees>-1.8234099447727203369140625</LongitudeDegrees>
            </Position>
            <AltitudeMeters>622</AltitudeMeters>
            <DistanceMeters>10567.778309054</DistanceMeters>
          </Trackpoint>
          <Trackpoint>
            <Time>2021-08-28T05:49:45.000Z</Time>
            <Position>
              <LatitudeDegrees>38.11532492749392986297607421875</LatitudeDegrees>
              <LongitudeDegrees>-1.82326820679008960723876953125</LongitudeDegrees>
            </Position>
            <AltitudeMeters>621.4000244140625</AltitudeMeters>
            <DistanceMeters>10591.859660952</DistanceMeters>
          </Trackpoint>
          <Trackpoint>
            <Time>2021-08-28T05:49:46.000Z</Time>
            <Position>
              <LatitudeDegrees>38.11522970907390117645263671875</LatitudeDegrees>
              <LongitudeDegrees>-1.8232042528688907623291015625</LongitudeDegrees>
            </Position>
            <AltitudeMeters>621.4000244140625</AltitudeMeters>
            <DistanceMeters>10603.84659452</DistanceMeters>
          </Trackpoint>
          <Trackpoint>
            <Time>2021-08-28T05:49:47.000Z</Time>
            <Position>
              <LatitudeDegrees>38.1151334010064601898193359375</LatitudeDegrees>
              <LongitudeDegrees>-1.8231444060802459716796875</LongitudeDegrees>
            </Position>
            <AltitudeMeters>621</AltitudeMeters>
            <DistanceMeters>10615.778408515</DistanceMeters>
          </Trackpoint>
          <Trackpoint>
            <Time>2021-08-28T05:49:48.000Z</Time>
            <Position>
              <LatitudeDegrees>38.11503692530095577239990234375</LatitudeDegrees>
              <LongitudeDegrees>-1.82308732531964778900146484375</LongitudeDegrees>
            </Position>
            <AltitudeMeters>620.5999755859375</AltitudeMeters>
            <DistanceMeters>10627.62286999</DistanceMeters>
          </Trackpoint>
          <Trackpoint>
            <Time>2021-08-28T05:49:49.000Z</Time>
            <Position>
              <LatitudeDegrees>38.11494019813835620880126953125</LatitudeDegrees>
              <LongitudeDegrees>-1.82303401641547679901123046875</LongitudeDegrees>
            </Position>
            <AltitudeMeters>620.4000244140625</AltitudeMeters>
            <DistanceMeters>10639.357803555</DistanceMeters>
          </Trackpoint>
          <Trackpoint>
            <Time>2021-08-28T05:49:50.000Z</Time>
            <Position>
              <LatitudeDegrees>38.1148420460522174835205078125</LatitudeDegrees>
              <LongitudeDegrees>-1.82298506610095500946044921875</LongitudeDegrees>
            </Position>
            <AltitudeMeters>620</AltitudeMeters>
            <DistanceMeters>10651.09273712</DistanceMeters>
          </Trackpoint>
          <Trackpoint>
            <Time>2021-08-28T05:49:51.000Z</Time>
            <Position>
              <LatitudeDegrees>38.1147424690425395965576171875</LatitudeDegrees>
              <LongitudeDegrees>-1.82293980382382869720458984375</LongitudeDegrees>
            </Position>
            <AltitudeMeters>619.79998779296875</AltitudeMeters>
            <DistanceMeters>10662.863398226</DistanceMeters>
          </Trackpoint>
          <Trackpoint>
            <Time>2021-08-28T05:49:52.000Z</Time>
            <Position>
              <LatitudeDegrees>38.11464146710932254791259765625</LatitudeDegrees>
              <LongitudeDegrees>-1.822897307574748992919921875</LongitudeDegrees>
            </Position>
            <AltitudeMeters>618.79998779296875</AltitudeMeters>
            <DistanceMeters>10674.705572316</DistanceMeters>
          </Trackpoint>
          <Trackpoint>
            <Time>2021-08-28T05:49:53.000Z</Time>
            <Position>
              <LatitudeDegrees>38.11454021371901035308837890625</LatitudeDegrees>
              <LongitudeDegrees>-1.822859086096286773681640625</LongitudeDegrees>
            </Position>
            <AltitudeMeters>618.4000244140625</AltitudeMeters>
            <DistanceMeters>10686.462032245</DistanceMeters>
          </Trackpoint>
          <Trackpoint>
            <Time>2021-08-28T05:49:55.000Z</Time>
            <Position>
              <LatitudeDegrees>38.11433083377778530120849609375</LatitudeDegrees>
              <LongitudeDegrees>-1.82279664091765880584716796875</LongitudeDegrees>
            </Position>
            <AltitudeMeters>617</AltitudeMeters>
            <DistanceMeters>10710.399335156</DistanceMeters>
          </Trackpoint>
          <Trackpoint>
            <Time>2021-08-28T05:49:57.000Z</Time>
            <Position>
              <LatitudeDegrees>38.114120028913021087646484375</LatitudeDegrees>
              <LongitudeDegrees>-1.822745762765407562255859375</LongitudeDegrees>
            </Position>
            <AltitudeMeters>615.5999755859375</AltitudeMeters>
            <DistanceMeters>10734.281497712</DistanceMeters>
          </Trackpoint>
          <Trackpoint>
            <Time>2021-08-28T05:49:59.000Z</Time>
            <Position>
              <LatitudeDegrees>38.11390243470668792724609375</LatitudeDegrees>
              <LongitudeDegrees>-1.82271198369562625885009765625</LongitudeDegrees>
            </Position>
            <AltitudeMeters>615.20001220703125</AltitudeMeters>
            <DistanceMeters>10758.679872645</DistanceMeters>
          </Trackpoint>
          <Trackpoint>
            <Time>2021-08-28T05:50:00.000Z</Time>
            <Position>
              <LatitudeDegrees>38.113793469965457916259765625</LatitudeDegrees>
              <LongitudeDegrees>-1.82270159013569355010986328125</LongitudeDegrees>
            </Position>
            <AltitudeMeters>615</AltitudeMeters>
            <DistanceMeters>10770.841807201</DistanceMeters>
          </Trackpoint>
          <Trackpoint>
            <Time>2021-08-28T05:50:01.000Z</Time>
            <Position>
              <LatitudeDegrees>38.11368383467197418212890625</LatitudeDegrees>
              <LongitudeDegrees>-1.8226953037083148956298828125</LongitudeDegrees>
            </Position>
            <AltitudeMeters>614.5999755859375</AltitudeMeters>
            <DistanceMeters>10783.056344564</DistanceMeters>
          </Trackpoint>
          <Trackpoint>
            <Time>2021-08-28T05:50:02.000Z</Time>
            <Position>
              <LatitudeDegrees>38.11357386410236358642578125</LatitudeDegrees>
              <LongitudeDegrees>-1.8226909451186656951904296875</LongitudeDegrees>
            </Position>
            <AltitudeMeters>613.79998779296875</AltitudeMeters>
            <DistanceMeters>10795.302261415</DistanceMeters>
          </Trackpoint>
          <Trackpoint>
            <Time>2021-08-28T05:50:03.000Z</Time>
            <Position>
              <LatitudeDegrees>38.11346364207565784454345703125</LatitudeDegrees>
              <LongitudeDegrees>-1.8226909451186656951904296875</LongitudeDegrees>
            </Position>
            <AltitudeMeters>613.20001220703125</AltitudeMeters>
            <DistanceMeters>10807.570280166</DistanceMeters>
          </Trackpoint>
          <Trackpoint>
            <Time>2021-08-28T05:50:07.000Z</Time>
            <Position>
              <LatitudeDegrees>38.11302593909204006195068359375</LatitudeDegrees>
              <LongitudeDegrees>-1.8227335251867771148681640625</LongitudeDegrees>
            </Position>
            <AltitudeMeters>612.20001220703125</AltitudeMeters>
            <DistanceMeters>10856.430092994</DistanceMeters>
          </Trackpoint>
          <Trackpoint>
            <Time>2021-08-28T05:50:08.000Z</Time>
            <Position>
              <LatitudeDegrees>38.11291697435081005096435546875</LatitudeDegrees>
              <LongitudeDegrees>-1.82275238446891307830810546875</LongitudeDegrees>
            </Position>
            <AltitudeMeters>612.20001220703125</AltitudeMeters>
            <DistanceMeters>10868.670109263</DistanceMeters>
          </Trackpoint>
          <Trackpoint>
            <Time>2021-08-28T05:50:10.000Z</Time>
            <Position>
              <LatitudeDegrees>38.11269720084965229034423828125</LatitudeDegrees>
              <LongitudeDegrees>-1.8228022567927837371826171875</LongitudeDegrees>
            </Position>
            <AltitudeMeters>611.20001220703125</AltitudeMeters>
            <DistanceMeters>10893.518096038</DistanceMeters>
          </Trackpoint>
          <Trackpoint>
            <Time>2021-08-28T05:50:13.000Z</Time>
            <Position>
              <LatitudeDegrees>38.11237030662596225738525390625</LatitudeDegrees>
              <LongitudeDegrees>-1.82287107221782207489013671875</LongitudeDegrees>
            </Position>
            <AltitudeMeters>610</AltitudeMeters>
            <DistanceMeters>10930.39776678</DistanceMeters>
          </Trackpoint>
          <Trackpoint>
            <Time>2021-08-28T05:50:16.000Z</Time>
            <Position>
              <LatitudeDegrees>38.11205036938190460205078125</LatitudeDegrees>
              <LongitudeDegrees>-1.82291599921882152557373046875</LongitudeDegrees>
            </Position>
            <AltitudeMeters>609.4000244140625</AltitudeMeters>
            <DistanceMeters>10966.224224402</DistanceMeters>
          </Trackpoint>
          <Trackpoint>
            <Time>2021-08-28T05:50:18.000Z</Time>
            <Position>
              <LatitudeDegrees>38.11183336190879344940185546875</LatitudeDegrees>
              <LongitudeDegrees>-1.82292002253234386444091796875</LongitudeDegrees>
            </Position>
            <AltitudeMeters>608.5999755859375</AltitudeMeters>
            <DistanceMeters>10990.380269395</DistanceMeters>
          </Trackpoint>
          <Trackpoint>
            <Time>2021-08-28T05:50:20.000Z</Time>
            <Position>
              <LatitudeDegrees>38.11161585152149200439453125</LatitudeDegrees>
              <LongitudeDegrees>-1.8229061923921108245849609375</LongitudeDegrees>
            </Position>
            <AltitudeMeters>607.20001220703125</AltitudeMeters>
            <DistanceMeters>11014.620092292</DistanceMeters>
          </Trackpoint>
          <Trackpoint>
            <Time>2021-08-28T05:50:21.000Z</Time>
            <Position>
              <LatitudeDegrees>38.1115067191421985626220703125</LatitudeDegrees>
              <LongitudeDegrees>-1.8228895962238311767578125</LongitudeDegrees>
            </Position>
            <AltitudeMeters>606.79998779296875</AltitudeMeters>
            <DistanceMeters>11026.853836076</DistanceMeters>
          </Trackpoint>
          <Trackpoint>
            <Time>2021-08-28T05:50:23.000Z</Time>
            <Position>
              <LatitudeDegrees>38.11129088513553142547607421875</LatitudeDegrees>
              <LongitudeDegrees>-1.8228351138532161712646484375</LongitudeDegrees>
            </Position>
            <AltitudeMeters>606.20001220703125</AltitudeMeters>
            <DistanceMeters>11051.345854125</DistanceMeters>
          </Trackpoint>
          <Trackpoint>
            <Time>2021-08-28T05:50:25.000Z</Time>
            <Position>
              <LatitudeDegrees>38.11107614077627658843994140625</LatitudeDegrees>
              <LongitudeDegrees>-1.82275724597275257110595703125</LongitudeDegrees>
            </Position>
            <AltitudeMeters>604.4000244140625</AltitudeMeters>
            <DistanceMeters>11076.201108094</DistanceMeters>
          </Trackpoint>
          <Trackpoint>
            <Time>2021-08-28T05:50:26.000Z</Time>
            <Position>
              <LatitudeDegrees>38.11096902005374431610107421875</LatitudeDegrees>
              <LongitudeDegrees>-1.82271215133368968963623046875</LongitudeDegrees>
            </Position>
            <AltitudeMeters>604</AltitudeMeters>
            <DistanceMeters>11088.761181162</DistanceMeters>
          </Trackpoint>
          <Trackpoint>
            <Time>2021-08-28T05:50:28.000Z</Time>
            <Position>
              <LatitudeDegrees>38.1107582151889801025390625</LatitudeDegrees>
              <LongitudeDegrees>-1.82260201312601566314697265625</LongitudeDegrees>
            </Position>
            <AltitudeMeters>603.79998779296875</AltitudeMeters>
            <DistanceMeters>11114.129220657</DistanceMeters>
          </Trackpoint>
          <Trackpoint>
            <Time>2021-08-28T05:50:30.000Z</Time>
            <Position>
              <LatitudeDegrees>38.11055528931319713592529296875</LatitudeDegrees>
              <LongitudeDegrees>-1.8224631249904632568359375</LongitudeDegrees>
            </Position>
            <AltitudeMeters>603.5999755859375</AltitudeMeters>
            <DistanceMeters>11139.782033775</DistanceMeters>
          </Trackpoint>
          <Trackpoint>
            <Time>2021-08-28T05:50:31.000Z</Time>
            <Position>
              <LatitudeDegrees>38.1104564666748046875</LatitudeDegrees>
              <LongitudeDegrees>-1.8223851732909679412841796875</LongitudeDegrees>
            </Position>
            <AltitudeMeters>603</AltitudeMeters>
            <DistanceMeters>11152.727309309</DistanceMeters>
          </Trackpoint>
          <Trackpoint>
            <Time>2021-08-28T05:50:32.000Z</Time>
            <Position>
              <LatitudeDegrees>38.1103604100644588470458984375</LatitudeDegrees>
              <LongitudeDegrees>-1.82230311445891857147216796875</LongitudeDegrees>
            </Position>
            <AltitudeMeters>602</AltitudeMeters>
            <DistanceMeters>11165.609651677</DistanceMeters>
          </Trackpoint>
          <Trackpoint>
            <Time>2021-08-28T05:50:34.000Z</Time>
            <Position>
              <LatitudeDegrees>38.11017693020403385162353515625</LatitudeDegrees>
              <LongitudeDegrees>-1.8221216462552547454833984375</LongitudeDegrees>
            </Position>
            <AltitudeMeters>600.5999755859375</AltitudeMeters>
            <DistanceMeters>11191.48624783</DistanceMeters>
          </Trackpoint>
          <Trackpoint>
            <Time>2021-08-28T05:50:36.000Z</Time>
            <Position>
              <LatitudeDegrees>38.1100097112357616424560546875</LatitudeDegrees>
              <LongitudeDegrees>-1.82191922329366207122802734375</LongitudeDegrees>
            </Position>
            <AltitudeMeters>599.4000244140625</AltitudeMeters>
            <DistanceMeters>11217.189524913</DistanceMeters>
          </Trackpoint>
          <Trackpoint>
            <Time>2021-08-28T05:50:39.000Z</Time>
            <Position>
              <LatitudeDegrees>38.10978147201240062713623046875</LatitudeDegrees>
              <LongitudeDegrees>-1.8216247670352458953857421875</LongitudeDegrees>
            </Position>
            <AltitudeMeters>599.20001220703125</AltitudeMeters>
            <DistanceMeters>11253.387843554</DistanceMeters>
          </Trackpoint>
          <Trackpoint>
            <Time>2021-08-28T05:50:40.000Z</Time>
            <Position>
              <LatitudeDegrees>38.1097096391022205352783203125</LatitudeDegrees>
              <LongitudeDegrees>-1.82152929715812206268310546875</LongitudeDegrees>
            </Position>
            <AltitudeMeters>599.20001220703125</AltitudeMeters>
            <DistanceMeters>11264.956150816</DistanceMeters>
          </Trackpoint>
          <Trackpoint>
            <Time>2021-08-28T05:50:43.000Z</Time>
            <Position>
              <LatitudeDegrees>38.1095002591609954833984375</LatitudeDegrees>
              <LongitudeDegrees>-1.82126191444694995880126953125</LongitudeDegrees>
            </Position>
            <AltitudeMeters>599.20001220703125</AltitudeMeters>
            <DistanceMeters>11297.992936669</DistanceMeters>
          </Trackpoint>
          <Trackpoint>
            <Time>2021-08-28T05:50:48.000Z</Time>
            <Position>
              <LatitudeDegrees>38.109141178429126739501953125</LatitudeDegrees>
              <LongitudeDegrees>-1.82089746929705142974853515625</LongitudeDegrees>
            </Position>
            <AltitudeMeters>599.4000244140625</AltitudeMeters>
            <DistanceMeters>11349.139736038</DistanceMeters>
          </Trackpoint>
          <Trackpoint>
            <Time>2021-08-28T05:50:49.000Z</Time>
            <Position>
              <LatitudeDegrees>38.1090659089386463165283203125</LatitudeDegrees>
              <LongitudeDegrees>-1.820837371051311492919921875</LongitudeDegrees>
            </Position>
            <AltitudeMeters>599.4000244140625</AltitudeMeters>
            <DistanceMeters>11359.033472877</DistanceMeters>
          </Trackpoint>
          <Trackpoint>
            <Time>2021-08-28T05:50:50.000Z</Time>
            <Position>
              <LatitudeDegrees>38.1089906394481658935546875</LatitudeDegrees>
              <LongitudeDegrees>-1.8207825534045696258544921875</LongitudeDegrees>
            </Position>
            <AltitudeMeters>599.4000244140625</AltitudeMeters>
            <DistanceMeters>11368.688860451</DistanceMeters>
          </Trackpoint>
          <Trackpoint>
            <Time>2021-08-28T05:50:54.000Z</Time>
            <Position>
              <LatitudeDegrees>38.10868310742080211639404296875</LatitudeDegrees>
              <LongitudeDegrees>-1.8206092156469821929931640625</LongitudeDegrees>
            </Position>
            <AltitudeMeters>598.79998779296875</AltitudeMeters>
            <DistanceMeters>11406.132762345</DistanceMeters>
          </Trackpoint>
          <Trackpoint>
            <Time>2021-08-28T05:51:00.000Z</Time>
            <Position>
              <LatitudeDegrees>38.108235932886600494384765625</LatitudeDegrees>
              <LongitudeDegrees>-1.82044233195483684539794921875</LongitudeDegrees>
            </Position>
            <AltitudeMeters>598.5999755859375</AltitudeMeters>
            <DistanceMeters>11458.005599253</DistanceMeters>
          </Trackpoint>
          <Trackpoint>
            <Time>2021-08-28T05:51:01.000Z</Time>
            <Position>
              <LatitudeDegrees>38.10816594399511814117431640625</LatitudeDegrees>
              <LongitudeDegrees>-1.82042305357754230499267578125</LongitudeDegrees>
            </Position>
            <AltitudeMeters>598.5999755859375</AltitudeMeters>
            <DistanceMeters>11465.975956069</DistanceMeters>
          </Trackpoint>
          <Trackpoint>
            <Time>2021-08-28T05:51:03.000Z</Time>
            <Position>
              <LatitudeDegrees>38.10802546329796314239501953125</LatitudeDegrees>
              <LongitudeDegrees>-1.82039639912545680999755859375</LongitudeDegrees>
            </Position>
            <AltitudeMeters>598.79998779296875</AltitudeMeters>
            <DistanceMeters>11481.785271545</DistanceMeters>
          </Trackpoint>
          <Trackpoint>
            <Time>2021-08-28T05:51:05.000Z</Time>
            <Position>
              <LatitudeDegrees>38.10789554379880428314208984375</LatitudeDegrees>
              <LongitudeDegrees>-1.82042690925300121307373046875</LongitudeDegrees>
            </Position>
            <AltitudeMeters>598.79998779296875</AltitudeMeters>
            <DistanceMeters>11496.490482887</DistanceMeters>
          </Trackpoint>
          <Trackpoint>
            <Time>2021-08-28T05:51:07.000Z</Time>
            <Position>
              <LatitudeDegrees>38.10778624378144741058349609375</LatitudeDegrees>
              <LongitudeDegrees>-1.820525228977203369140625</LongitudeDegrees>
            </Position>
            <AltitudeMeters>598.79998779296875</AltitudeMeters>
            <DistanceMeters>11511.395143587</DistanceMeters>
          </Trackpoint>
          <Trackpoint>
            <Time>2021-08-28T05:51:09.000Z</Time>
            <Position>
              <LatitudeDegrees>38.10767509974539279937744140625</LatitudeDegrees>
              <LongitudeDegrees>-1.8206269852817058563232421875</LongitudeDegrees>
            </Position>
            <AltitudeMeters>598.79998779296875</AltitudeMeters>
            <DistanceMeters>11526.641527677</DistanceMeters>
          </Trackpoint>
          <Trackpoint>
            <Time>2021-08-28T05:51:10.000Z</Time>
            <Position>
              <LatitudeDegrees>38.107612989842891693115234375</LatitudeDegrees>
              <LongitudeDegrees>-1.82065942324697971343994140625</LongitudeDegrees>
            </Position>
            <AltitudeMeters>598.79998779296875</AltitudeMeters>
            <DistanceMeters>11534.11609007</DistanceMeters>
          </Trackpoint>
          <Trackpoint>
            <Time>2021-08-28T05:51:11.000Z</Time>
            <Position>
              <LatitudeDegrees>38.107547275722026824951171875</LatitudeDegrees>
              <LongitudeDegrees>-1.82067031972110271453857421875</LongitudeDegrees>
            </Position>
            <AltitudeMeters>598.79998779296875</AltitudeMeters>
            <DistanceMeters>11541.492758739</DistanceMeters>
          </Trackpoint>
          <Trackpoint>
            <Time>2021-08-28T05:51:12.000Z</Time>
            <Position>
              <LatitudeDegrees>38.10748147778213024139404296875</LatitudeDegrees>
              <LongitudeDegrees>-1.82065942324697971343994140625</LongitudeDegrees>
            </Position>
            <AltitudeMeters>598.79998779296875</AltitudeMeters>
            <DistanceMeters>11548.877991418</DistanceMeters>
          </Trackpoint>
          <Trackpoint>
            <Time>2021-08-28T05:51:13.000Z</Time>
            <Position>
              <LatitudeDegrees>38.10741911642253398895263671875</LatitudeDegrees>
              <LongitudeDegrees>-1.82062991894781589508056640625</LongitudeDegrees>
            </Position>
            <AltitudeMeters>598.79998779296875</AltitudeMeters>
            <DistanceMeters>11556.283981177</DistanceMeters>
          </Trackpoint>
          <Trackpoint>
            <Time>2021-08-28T05:51:15.000Z</Time>
            <Position>
              <LatitudeDegrees>38.10731417499482631683349609375</LatitudeDegrees>
              <LongitudeDegrees>-1.82052732445299625396728515625</LongitudeDegrees>
            </Position>
            <AltitudeMeters>598.79998779296875</AltitudeMeters>
            <DistanceMeters>11571.020170587</DistanceMeters>
          </Trackpoint>
          <Trackpoint>
            <Time>2021-08-28T05:51:18.000Z</Time>
            <Position>
              <LatitudeDegrees>38.10717687942087650299072265625</LatitudeDegrees>
              <LongitudeDegrees>-1.82032397948205471038818359375</LongitudeDegrees>
            </Position>
            <AltitudeMeters>598.5999755859375</AltitudeMeters>
            <DistanceMeters>11594.486382289</DistanceMeters>
          </Trackpoint>
          <Trackpoint>
            <Time>2021-08-28T05:51:19.000Z</Time>
            <Position>
              <LatitudeDegrees>38.10711971484124660491943359375</LatitudeDegrees>
              <LongitudeDegrees>-1.82027167640626430511474609375</LongitudeDegrees>
            </Position>
            <AltitudeMeters>598.4000244140625</AltitudeMeters>
            <DistanceMeters>11602.326518152</DistanceMeters>
          </Trackpoint>
          <Trackpoint>
            <Time>2021-08-28T05:51:20.000Z</Time>
            <Position>
              <LatitudeDegrees>38.10705550946295261383056640625</LatitudeDegrees>
              <LongitudeDegrees>-1.820234544575214385986328125</LongitudeDegrees>
            </Position>
            <AltitudeMeters>598.4000244140625</AltitudeMeters>
            <DistanceMeters>11610.178163323</DistanceMeters>
          </Trackpoint>
          <Trackpoint>
            <Time>2021-08-28T05:51:22.000Z</Time>
            <Position>
              <LatitudeDegrees>38.10691888444125652313232421875</LatitudeDegrees>
              <LongitudeDegrees>-1.82020478881895542144775390625</LongitudeDegrees>
            </Position>
            <AltitudeMeters>598.20001220703125</AltitudeMeters>
            <DistanceMeters>11625.606475449</DistanceMeters>
          </Trackpoint>
          <Trackpoint>
            <Time>2021-08-28T05:51:26.000Z</Time>
            <Position>
              <LatitudeDegrees>38.1066696904599666595458984375</LatitudeDegrees>
              <LongitudeDegrees>-1.82020881213247776031494140625</LongitudeDegrees>
            </Position>
            <AltitudeMeters>599.20001220703125</AltitudeMeters>
            <DistanceMeters>11653.344511308</DistanceMeters>
          </Trackpoint>
          <Trackpoint>
            <Time>2021-08-28T05:51:28.000Z</Time>
            <Position>
              <LatitudeDegrees>38.10654035769402980804443359375</LatitudeDegrees>
              <LongitudeDegrees>-1.8202233128249645233154296875</LongitudeDegrees>
            </Position>
            <AltitudeMeters>600</AltitudeMeters>
            <DistanceMeters>11667.795134747</DistanceMeters>
          </Trackpoint>
          <Trackpoint>
            <Time>2021-08-28T05:51:30.000Z</Time>
            <Position>
              <LatitudeDegrees>38.1064125336706638336181640625</LatitudeDegrees>
              <LongitudeDegrees>-1.8202474527060985565185546875</LongitudeDegrees>
            </Position>
            <AltitudeMeters>600.4000244140625</AltitudeMeters>
            <DistanceMeters>11682.178425446</DistanceMeters>
          </Trackpoint>
          <Trackpoint>
            <Time>2021-08-28T05:51:33.000Z</Time>
            <Position>
              <LatitudeDegrees>38.10621128417551517486572265625</LatitudeDegrees>
              <LongitudeDegrees>-1.82028793729841709136962890625</LongitudeDegrees>
            </Position>
            <AltitudeMeters>601</AltitudeMeters>
            <DistanceMeters>11704.856586169</DistanceMeters>
          </Trackpoint>
          <Trackpoint>
            <Time>2021-08-28T05:51:37.000Z</Time>
            <Position>
              <LatitudeDegrees>38.105939291417598724365234375</LatitudeDegrees>
              <LongitudeDegrees>-1.8203480355441570281982421875</LongitudeDegrees>
            </Position>
            <AltitudeMeters>601.20001220703125</AltitudeMeters>
            <DistanceMeters>11735.584029325</DistanceMeters>
          </Trackpoint>
          <Trackpoint>
            <Time>2021-08-28T05:51:40.000Z</Time>
            <Position>
              <LatitudeDegrees>38.1057362817227840423583984375</LatitudeDegrees>
              <LongitudeDegrees>-1.82038952596485614776611328125</LongitudeDegrees>
            </Position>
            <AltitudeMeters>601.20001220703125</AltitudeMeters>
            <DistanceMeters>11758.469689985</DistanceMeters>
          </Trackpoint>
          <Trackpoint>
            <Time>2021-08-28T05:51:46.000Z</Time>
            <Position>
              <LatitudeDegrees>38.1053346209228038787841796875</LatitudeDegrees>
              <LongitudeDegrees>-1.82046362198889255523681640625</LongitudeDegrees>
            </Position>
            <AltitudeMeters>601</AltitudeMeters>
            <DistanceMeters>11803.643974767</DistanceMeters>
          </Trackpoint>
          <Trackpoint>
            <Time>2021-08-28T05:51:50.000Z</Time>
            <Position>
              <LatitudeDegrees>38.10504972003400325775146484375</LatitudeDegrees>
              <LongitudeDegrees>-1.82050335220992565155029296875</LongitudeDegrees>
            </Position>
            <AltitudeMeters>601</AltitudeMeters>
            <DistanceMeters>11835.544514964</DistanceMeters>
          </Trackpoint>
          <Trackpoint>
            <Time>2021-08-28T05:51:53.000Z</Time>
            <Position>
              <LatitudeDegrees>38.10481888242065906524658203125</LatitudeDegrees>
              <LongitudeDegrees>-1.82053872384130954742431640625</LongitudeDegrees>
            </Position>
            <AltitudeMeters>600.5999755859375</AltitudeMeters>
            <DistanceMeters>11861.423204834</DistanceMeters>
          </Trackpoint>
          <Trackpoint>
            <Time>2021-08-28T05:51:58.000Z</Time>
            <Position>
              <LatitudeDegrees>38.1044146232306957244873046875</LatitudeDegrees>
              <LongitudeDegrees>-1.82059119455516338348388671875</LongitudeDegrees>
            </Position>
            <AltitudeMeters>600.20001220703125</AltitudeMeters>
            <DistanceMeters>11906.652127632</DistanceMeters>
          </Trackpoint>
          <Trackpoint>
            <Time>2021-08-28T05:51:59.000Z</Time>
            <Position>
              <LatitudeDegrees>38.10433256439864635467529296875</LatitudeDegrees>
              <LongitudeDegrees>-1.82060058228671550750732421875</LongitudeDegrees>
            </Position>
            <AltitudeMeters>599.5999755859375</AltitudeMeters>
            <DistanceMeters>11915.822574837</DistanceMeters>
          </Trackpoint>
          <Trackpoint>
            <Time>2021-08-28T05:52:00.000Z</Time>
            <Position>
              <LatitudeDegrees>38.104248158633708953857421875</LatitudeDegrees>
              <LongitudeDegrees>-1.82060812599956989288330078125</LongitudeDegrees>
            </Position>
            <AltitudeMeters>599.20001220703125</AltitudeMeters>
            <DistanceMeters>11925.240292757</DistanceMeters>
          </Trackpoint>
          <Trackpoint>
            <Time>2021-08-28T05:52:02.000Z</Time>
            <Position>
              <LatitudeDegrees>38.10408228076994419097900390625</LatitudeDegrees>
              <LongitudeDegrees>-1.82063310407102108001708984375</LongitudeDegrees>
            </Position>
            <AltitudeMeters>598.4000244140625</AltitudeMeters>
            <DistanceMeters>11943.832045394</DistanceMeters>
          </Trackpoint>
          <Trackpoint>
            <Time>2021-08-28T05:52:06.000Z</Time>
            <Position>
              <LatitudeDegrees>38.1037576496601104736328125</LatitudeDegrees>
              <LongitudeDegrees>-1.8206947110593318939208984375</LongitudeDegrees>
            </Position>
            <AltitudeMeters>597.5999755859375</AltitudeMeters>
            <DistanceMeters>11980.364842966</DistanceMeters>
          </Trackpoint>
          <Trackpoint>
            <Time>2021-08-28T05:52:07.000Z</Time>
            <Position>
              <LatitudeDegrees>38.103684224188327789306640625</LatitudeDegrees>
              <LongitudeDegrees>-1.82071105577051639556884765625</LongitudeDegrees>
            </Position>
            <AltitudeMeters>597</AltitudeMeters>
            <DistanceMeters>11988.662149927</DistanceMeters>
          </Trackpoint>
          <Trackpoint>
            <Time>2021-08-28T05:52:10.000Z</Time>
            <Position>
              <LatitudeDegrees>38.103497810661792755126953125</LatitudeDegrees>
              <LongitudeDegrees>-1.8207748420536518096923828125</LongitudeDegrees>
            </Position>
            <AltitudeMeters>595.4000244140625</AltitudeMeters>
            <DistanceMeters>12010.149326999</DistanceMeters>
          </Trackpoint>
          <Trackpoint>
            <Time>2021-08-28T05:52:11.000Z</Time>
            <Position>
              <LatitudeDegrees>38.103452883660793304443359375</LatitudeDegrees>
              <LongitudeDegrees>-1.820803172886371612548828125</LongitudeDegrees>
            </Position>
            <AltitudeMeters>594.5999755859375</AltitudeMeters>
            <DistanceMeters>12015.731691534</DistanceMeters>
          </Trackpoint>
          <Trackpoint>
            <Time>2021-08-28T05:52:12.000Z</Time>
            <Position>
              <LatitudeDegrees>38.10341457836329936981201171875</LatitudeDegrees>
              <LongitudeDegrees>-1.82082890532910823822021484375</LongitudeDegrees>
            </Position>
            <AltitudeMeters>593.5999755859375</AltitudeMeters>
            <DistanceMeters>12020.552834217</DistanceMeters>
          </Trackpoint>
          <Trackpoint>
            <Time>2021-08-28T05:52:13.000Z</Time>
            <Position>
              <LatitudeDegrees>38.10338641516864299774169921875</LatitudeDegrees>
              <LongitudeDegrees>-1.82085354812443256378173828125</LongitudeDegrees>
            </Position>
            <AltitudeMeters>593</AltitudeMeters>
            <DistanceMeters>12024.358651162</DistanceMeters>
          </Trackpoint>
          <Trackpoint>
            <Time>2021-08-28T05:52:14.000Z</Time>
            <Position>
              <LatitudeDegrees>38.10336361639201641082763671875</LatitudeDegrees>
              <LongitudeDegrees>-1.8208724074065685272216796875</LongitudeDegrees>
            </Position>
            <AltitudeMeters>592.5999755859375</AltitudeMeters>
            <DistanceMeters>12027.38462167</DistanceMeters>
          </Trackpoint>
          <Trackpoint>
            <Time>2021-08-28T05:52:15.000Z</Time>
            <Position>
              <LatitudeDegrees>38.10334433801472187042236328125</LatitudeDegrees>
              <LongitudeDegrees>-1.82088925503194332122802734375</LongitudeDegrees>
            </Position>
            <AltitudeMeters>592.4000244140625</AltitudeMeters>
            <DistanceMeters>12029.987035421</DistanceMeters>
          </Trackpoint>
          <Trackpoint>
            <Time>2021-08-28T05:52:16.000Z</Time>
            <Position>
              <LatitudeDegrees>38.10333159752190113067626953125</LatitudeDegrees>
              <LongitudeDegrees>-1.82089948095381259918212890625</LongitudeDegrees>
            </Position>
            <AltitudeMeters>592.4000244140625</AltitudeMeters>
            <DistanceMeters>12031.665541855</DistanceMeters>
          </Trackpoint>
          <Trackpoint>
            <Time>2021-08-28T05:52:18.000Z</Time>
            <Position>
              <LatitudeDegrees>38.1033222936093807220458984375</LatitudeDegrees>
              <LongitudeDegrees>-1.82090601883828639984130859375</LongitudeDegrees>
            </Position>
            <AltitudeMeters>592.20001220703125</AltitudeMeters>
            <DistanceMeters>12032.852425137</DistanceMeters>
          </Trackpoint>
          <Trackpoint>
            <Time>2021-08-28T05:52:40.000Z</Time>
            <Position>
              <LatitudeDegrees>38.103276528418064117431640625</LatitudeDegrees>
              <LongitudeDegrees>-1.82113802991807460784912109375</LongitudeDegrees>
            </Position>
            <AltitudeMeters>592</AltitudeMeters>
            <DistanceMeters>12053.80145173</DistanceMeters>
          </Trackpoint>
          <Trackpoint>
            <Time>2021-08-28T05:52:41.000Z</Time>
            <Position>
              <LatitudeDegrees>38.103274516761302947998046875</LatitudeDegrees>
              <LongitudeDegrees>-1.8211986310780048370361328125</LongitudeDegrees>
            </Position>
            <AltitudeMeters>592</AltitudeMeters>
            <DistanceMeters>12059.113606555</DistanceMeters>
          </Trackpoint>
          <Trackpoint>
            <Time>2021-08-28T05:52:44.000Z</Time>
            <Position>
              <LatitudeDegrees>38.10329421423375606536865234375</LatitudeDegrees>
              <LongitudeDegrees>-1.8214182369410991668701171875</LongitudeDegrees>
            </Position>
            <AltitudeMeters>592.4000244140625</AltitudeMeters>
            <DistanceMeters>12078.472020034</DistanceMeters>
          </Trackpoint>
          <Trackpoint>
            <Time>2021-08-28T05:52:46.000Z</Time>
            <Position>
              <LatitudeDegrees>38.10330511070787906646728515625</LatitudeDegrees>
              <LongitudeDegrees>-1.82158394716680049896240234375</LongitudeDegrees>
            </Position>
            <AltitudeMeters>592.4000244140625</AltitudeMeters>
            <DistanceMeters>12093.036239741</DistanceMeters>
          </Trackpoint>
          <Trackpoint>
            <Time>2021-08-28T05:52:50.000Z</Time>
            <Position>
              <LatitudeDegrees>38.10333042405545711517333984375</LatitudeDegrees>
              <LongitudeDegrees>-1.82195493020117282867431640625</LongitudeDegrees>
            </Position>
            <AltitudeMeters>592.20001220703125</AltitudeMeters>
            <DistanceMeters>12125.65020553</DistanceMeters>
          </Trackpoint>
          <Trackpoint>
            <Time>2021-08-28T05:52:52.000Z</Time>
            <Position>
              <LatitudeDegrees>38.1033440865576267242431640625</LatitudeDegrees>
              <LongitudeDegrees>-1.8221548385918140411376953125</LongitudeDegrees>
            </Position>
            <AltitudeMeters>591.4000244140625</AltitudeMeters>
            <DistanceMeters>12143.224753453</DistanceMeters>
          </Trackpoint>
          <Trackpoint>
            <Time>2021-08-28T05:52:55.000Z</Time>
            <Position>
              <LatitudeDegrees>38.1033660471439361572265625</LatitudeDegrees>
              <LongitudeDegrees>-1.82246723212301731109619140625</LongitudeDegrees>
            </Position>
            <AltitudeMeters>590.5999755859375</AltitudeMeters>
            <DistanceMeters>12170.694213728</DistanceMeters>
          </Trackpoint>
          <Trackpoint>
            <Time>2021-08-28T05:52:58.000Z</Time>
            <Position>
              <LatitudeDegrees>38.103383816778659820556640625</LatitudeDegrees>
              <LongitudeDegrees>-1.8227938748896121978759765625</LongitudeDegrees>
            </Position>
            <AltitudeMeters>590.20001220703125</AltitudeMeters>
            <DistanceMeters>12199.371191633</DistanceMeters>
          </Trackpoint>
          <Trackpoint>
            <Time>2021-08-28T05:53:00.000Z</Time>
            <Position>
              <LatitudeDegrees>38.1033900193870067596435546875</LatitudeDegrees>
              <LongitudeDegrees>-1.82301775552332401275634765625</LongitudeDegrees>
            </Position>
            <AltitudeMeters>589.79998779296875</AltitudeMeters>
            <DistanceMeters>12218.991389359</DistanceMeters>
          </Trackpoint>
          <Trackpoint>
            <Time>2021-08-28T05:53:02.000Z</Time>
            <Position>
              <LatitudeDegrees>38.103399910032749176025390625</LatitudeDegrees>
              <LongitudeDegrees>-1.82324708439409732818603515625</LongitudeDegrees>
            </Position>
            <AltitudeMeters>589.5999755859375</AltitudeMeters>
            <DistanceMeters>12239.106773903</DistanceMeters>
          </Trackpoint>
          <Trackpoint>
            <Time>2021-08-28T05:53:04.000Z</Time>
            <Position>
              <LatitudeDegrees>38.10341239906847476959228515625</LatitudeDegrees>
              <LongitudeDegrees>-1.82347758673131465911865234375</LongitudeDegrees>
            </Position>
            <AltitudeMeters>589.20001220703125</AltitudeMeters>
            <DistanceMeters>12259.342779107</DistanceMeters>
          </Trackpoint>
          <Trackpoint>
            <Time>2021-08-28T05:53:06.000Z</Time>
            <Position>
              <LatitudeDegrees>38.10342111624777317047119140625</LatitudeDegrees>
              <LongitudeDegrees>-1.82371345348656177520751953125</LongitudeDegrees>
            </Position>
            <AltitudeMeters>588.79998779296875</AltitudeMeters>
            <DistanceMeters>12280.02370125</DistanceMeters>
          </Trackpoint>
          <Trackpoint>
            <Time>2021-08-28T05:53:08.000Z</Time>
            <Position>
              <LatitudeDegrees>38.1034302525222301483154296875</LatitudeDegrees>
              <LongitudeDegrees>-1.8239437043666839599609375</LongitudeDegrees>
            </Position>
            <AltitudeMeters>588.20001220703125</AltitudeMeters>
            <DistanceMeters>12300.215480553</DistanceMeters>
          </Trackpoint>
          <Trackpoint>
            <Time>2021-08-28T05:53:09.000Z</Time>
            <Position>
              <LatitudeDegrees>38.103436119854450225830078125</LatitudeDegrees>
              <LongitudeDegrees>-1.82405778206884860992431640625</LongitudeDegrees>
            </Position>
            <AltitudeMeters>588</AltitudeMeters>
            <DistanceMeters>12310.228068065</DistanceMeters>
          </Trackpoint>
          <Trackpoint>
            <Time>2021-08-28T05:53:10.000Z</Time>
            <Position>
              <LatitudeDegrees>38.1034426577389240264892578125</LatitudeDegrees>
              <LongitudeDegrees>-1.824172027409076690673828125</LongitudeDegrees>
            </Position>
            <AltitudeMeters>587.79998779296875</AltitudeMeters>
            <DistanceMeters>12320.2613772</DistanceMeters>
          </Trackpoint>
          <Trackpoint>
            <Time>2021-08-28T05:53:16.000Z</Time>
            <Position>
              <LatitudeDegrees>38.10347844846546649932861328125</LatitudeDegrees>
              <LongitudeDegrees>-1.82488423772156238555908203125</LongitudeDegrees>
            </Position>
            <AltitudeMeters>587</AltitudeMeters>
            <DistanceMeters>12382.766133126</DistanceMeters>
          </Trackpoint>
          <Trackpoint>
            <Time>2021-08-28T05:53:20.000Z</Time>
            <Position>
              <LatitudeDegrees>38.10352203436195850372314453125</LatitudeDegrees>
              <LongitudeDegrees>-1.8253372795879840850830078125</LongitudeDegrees>
            </Position>
            <AltitudeMeters>586.5999755859375</AltitudeMeters>
            <DistanceMeters>12422.740428209</DistanceMeters>
          </Trackpoint>
          <Trackpoint>
            <Time>2021-08-28T05:53:23.000Z</Time>
            <Position>
              <LatitudeDegrees>38.10356964357197284698486328125</LatitudeDegrees>
              <LongitudeDegrees>-1.82566828094422817230224609375</LongitudeDegrees>
            </Position>
            <AltitudeMeters>585.79998779296875</AltitudeMeters>
            <DistanceMeters>12452.210815419</DistanceMeters>
          </Trackpoint>
          <Trackpoint>
            <Time>2021-08-28T05:53:28.000Z</Time>
            <Position>
              <LatitudeDegrees>38.10358724556863307952880859375</LatitudeDegrees>
              <LongitudeDegrees>-1.82621545158326625823974609375</LongitudeDegrees>
            </Position>
            <AltitudeMeters>585.5999755859375</AltitudeMeters>
            <DistanceMeters>12500.173707996</DistanceMeters>
          </Trackpoint>
          <Trackpoint>
            <Time>2021-08-28T05:53:30.000Z</Time>
            <Position>
              <LatitudeDegrees>38.10359059832990169525146484375</LatitudeDegrees>
              <LongitudeDegrees>-1.82642382569611072540283203125</LongitudeDegrees>
            </Position>
            <AltitudeMeters>585.4000244140625</AltitudeMeters>
            <DistanceMeters>12518.427496389</DistanceMeters>
          </Trackpoint>
          <Trackpoint>
            <Time>2021-08-28T05:53:34.000Z</Time>
            <Position>
              <LatitudeDegrees>38.1035972200334072113037109375</LatitudeDegrees>
              <LongitudeDegrees>-1.826806627213954925537109375</LongitudeDegrees>
            </Position>
            <AltitudeMeters>585</AltitudeMeters>
            <DistanceMeters>12551.962368689</DistanceMeters>
          </Trackpoint>
          <Trackpoint>
            <Time>2021-08-28T05:53:35.000Z</Time>
            <Position>
              <LatitudeDegrees>38.10360166244208812713623046875</LatitudeDegrees>
              <LongitudeDegrees>-1.8269003368914127349853515625</LongitudeDegrees>
            </Position>
            <AltitudeMeters>584.79998779296875</AltitudeMeters>
            <DistanceMeters>12560.185337278</DistanceMeters>
          </Trackpoint>
          <Trackpoint>
            <Time>2021-08-28T05:53:38.000Z</Time>
            <Position>
              <LatitudeDegrees>38.1036208570003509521484375</LatitudeDegrees>
              <LongitudeDegrees>-1.82717937044799327850341796875</LongitudeDegrees>
            </Position>
            <AltitudeMeters>585</AltitudeMeters>
            <DistanceMeters>12584.717326082</DistanceMeters>
          </Trackpoint>
          <Trackpoint>
            <Time>2021-08-28T05:53:40.000Z</Time>
            <Position>
              <LatitudeDegrees>38.1036324240267276763916015625</LatitudeDegrees>
              <LongitudeDegrees>-1.82735622860491275787353515625</LongitudeDegrees>
            </Position>
            <AltitudeMeters>585</AltitudeMeters>
            <DistanceMeters>12600.261094136</DistanceMeters>
          </Trackpoint>
          <Trackpoint>
            <Time>2021-08-28T05:53:41.000Z</Time>
            <Position>
              <LatitudeDegrees>38.10363284312188625335693359375</LatitudeDegrees>
              <LongitudeDegrees>-1.8274451605975627899169921875</LongitudeDegrees>
            </Position>
            <AltitudeMeters>585</AltitudeMeters>
            <DistanceMeters>12608.05038702</DistanceMeters>
          </Trackpoint>
          <Trackpoint>
            <Time>2021-08-28T05:53:46.000Z</Time>
            <Position>
              <LatitudeDegrees>38.103662095963954925537109375</LatitudeDegrees>
              <LongitudeDegrees>-1.82788982056081295013427734375</LongitudeDegrees>
            </Position>
            <AltitudeMeters>585</AltitudeMeters>
            <DistanceMeters>12647.130982579</DistanceMeters>
          </Trackpoint>
          <Trackpoint>
            <Time>2021-08-28T05:53:47.000Z</Time>
            <Position>
              <LatitudeDegrees>38.10366536490619182586669921875</LatitudeDegrees>
              <LongitudeDegrees>-1.82799140922725200653076171875</LongitudeDegrees>
            </Position>
            <AltitudeMeters>584.5999755859375</AltitudeMeters>
            <DistanceMeters>12656.036156993</DistanceMeters>
          </Trackpoint>
          <Trackpoint>
            <Time>2021-08-28T05:53:50.000Z</Time>
            <Position>
              <LatitudeDegrees>38.103676177561283111572265625</LatitudeDegrees>
              <LongitudeDegrees>-1.82827413082122802734375</LongitudeDegrees>
            </Position>
            <AltitudeMeters>584.5999755859375</AltitudeMeters>
            <DistanceMeters>12680.827022302</DistanceMeters>
          </Trackpoint>
          <Trackpoint>
            <Time>2021-08-28T05:53:53.000Z</Time>
            <Position>
              <LatitudeDegrees>38.10369252227246761322021484375</LatitudeDegrees>
              <LongitudeDegrees>-1.8285395018756389617919921875</LongitudeDegrees>
            </Position>
            <AltitudeMeters>585.4000244140625</AltitudeMeters>
            <DistanceMeters>12704.140156819</DistanceMeters>
          </Trackpoint>
          <Trackpoint>
            <Time>2021-08-28T05:53:58.000Z</Time>
            <Position>
              <LatitudeDegrees>38.10372655279934406280517578125</LatitudeDegrees>
              <LongitudeDegrees>-1.82896739803254604339599609375</LongitudeDegrees>
            </Position>
            <AltitudeMeters>585.4000244140625</AltitudeMeters>
            <DistanceMeters>12741.807432683</DistanceMeters>
          </Trackpoint>
          <Trackpoint>
            <Time>2021-08-28T05:54:00.000Z</Time>
            <Position>
              <LatitudeDegrees>38.10373208485543727874755859375</LatitudeDegrees>
              <LongitudeDegrees>-1.829126067459583282470703125</LongitudeDegrees>
            </Position>
            <AltitudeMeters>585.4000244140625</AltitudeMeters>
            <DistanceMeters>12755.717733832</DistanceMeters>
          </Trackpoint>
          <Trackpoint>
            <Time>2021-08-28T05:54:04.000Z</Time>
            <Position>
              <LatitudeDegrees>38.1037393771111965179443359375</LatitudeDegrees>
              <LongitudeDegrees>-1.82943879626691341400146484375</LongitudeDegrees>
            </Position>
            <AltitudeMeters>585.5999755859375</AltitudeMeters>
            <DistanceMeters>12783.11922697</DistanceMeters>
          </Trackpoint>
          <Trackpoint>
            <Time>2021-08-28T05:54:06.000Z</Time>
            <Position>
              <LatitudeDegrees>38.1037335097789764404296875</LatitudeDegrees>
              <LongitudeDegrees>-1.82958908379077911376953125</LongitudeDegrees>
            </Position>
            <AltitudeMeters>586</AltitudeMeters>
            <DistanceMeters>12796.298168139</DistanceMeters>
          </Trackpoint>
          <Trackpoint>
            <Time>2021-08-28T05:54:08.000Z</Time>
            <Position>
              <LatitudeDegrees>38.10374281369149684906005859375</LatitudeDegrees>
              <LongitudeDegrees>-1.8297548778355121612548828125</LongitudeDegrees>
            </Position>
            <AltitudeMeters>586.4000244140625</AltitudeMeters>
            <DistanceMeters>12810.855566052</DistanceMeters>
          </Trackpoint>
          <Trackpoint>
            <Time>2021-08-28T05:54:09.000Z</Time>
            <Position>
              <LatitudeDegrees>38.1037509441375732421875</LatitudeDegrees>
              <LongitudeDegrees>-1.82983878068625926971435546875</LongitudeDegrees>
            </Position>
            <AltitudeMeters>586.5999755859375</AltitudeMeters>
            <DistanceMeters>12818.259116822</DistanceMeters>
          </Trackpoint>
          <Trackpoint>
            <Time>2021-08-28T05:54:10.000Z</Time>
            <Position>
              <LatitudeDegrees>38.10375287197530269622802734375</LatitudeDegrees>
              <LongitudeDegrees>-1.8299218453466892242431640625</LongitudeDegrees>
            </Position>
            <AltitudeMeters>586.5999755859375</AltitudeMeters>
            <DistanceMeters>12825.537195444</DistanceMeters>
          </Trackpoint>
          <Trackpoint>
            <Time>2021-08-28T05:54:12.000Z</Time>
            <Position>
              <LatitudeDegrees>38.1037665344774723052978515625</LatitudeDegrees>
              <LongitudeDegrees>-1.83008395135402679443359375</LongitudeDegrees>
            </Position>
            <AltitudeMeters>587</AltitudeMeters>
            <DistanceMeters>12839.816204374</DistanceMeters>
          </Trackpoint>
          <Trackpoint>
            <Time>2021-08-28T05:54:14.000Z</Time>
            <Position>
              <LatitudeDegrees>38.1037910096347332000732421875</LatitudeDegrees>
              <LongitudeDegrees>-1.8302584625780582427978515625</LongitudeDegrees>
            </Position>
            <AltitudeMeters>587</AltitudeMeters>
            <DistanceMeters>12855.341371054</DistanceMeters>
          </Trackpoint>
          <Trackpoint>
            <Time>2021-08-28T05:54:19.000Z</Time>
            <Position>
              <LatitudeDegrees>38.1038252077996730804443359375</LatitudeDegrees>
              <LongitudeDegrees>-1.8306728638708591461181640625</LongitudeDegrees>
            </Position>
            <AltitudeMeters>587.20001220703125</AltitudeMeters>
            <DistanceMeters>12891.834970002</DistanceMeters>
          </Trackpoint>
          <Trackpoint>
            <Time>2021-08-28T05:54:20.000Z</Time>
            <Position>
              <LatitudeDegrees>38.103830404579639434814453125</LatitudeDegrees>
              <LongitudeDegrees>-1.830752827227115631103515625</LongitudeDegrees>
            </Position>
            <AltitudeMeters>587.4000244140625</AltitudeMeters>
            <DistanceMeters>12898.862450921</DistanceMeters>
          </Trackpoint>
          <Trackpoint>
            <Time>2021-08-28T05:54:26.000Z</Time>
            <Position>
              <LatitudeDegrees>38.10385362245142459869384765625</LatitudeDegrees>
              <LongitudeDegrees>-1.831279881298542022705078125</LongitudeDegrees>
            </Position>
            <AltitudeMeters>587.79998779296875</AltitudeMeters>
            <DistanceMeters>12945.095657549</DistanceMeters>
          </Trackpoint>
          <Trackpoint>
            <Time>2021-08-28T05:54:30.000Z</Time>
            <Position>
              <LatitudeDegrees>38.10386451892554759979248046875</LatitudeDegrees>
              <LongitudeDegrees>-1.8316059373319149017333984375</LongitudeDegrees>
            </Position>
            <AltitudeMeters>587.79998779296875</AltitudeMeters>
            <DistanceMeters>12973.678328453</DistanceMeters>
          </Trackpoint>
          <Trackpoint>
            <Time>2021-08-28T05:54:32.000Z</Time>
            <Position>
              <LatitudeDegrees>38.1038697995245456695556640625</LatitudeDegrees>
              <LongitudeDegrees>-1.8317772634327411651611328125</LongitudeDegrees>
            </Position>
            <AltitudeMeters>587.5999755859375</AltitudeMeters>
            <DistanceMeters>12988.694954871</DistanceMeters>
          </Trackpoint>
          <Trackpoint>
            <Time>2021-08-28T05:54:34.000Z</Time>
            <Position>
              <LatitudeDegrees>38.10387357138097286224365234375</LatitudeDegrees>
              <LongitudeDegrees>-1.83194850571453571319580078125</LongitudeDegrees>
            </Position>
            <AltitudeMeters>588.20001220703125</AltitudeMeters>
            <DistanceMeters>13003.698646939</DistanceMeters>
          </Trackpoint>
          <Trackpoint>
            <Time>2021-08-28T05:54:38.000Z</Time>
            <Position>
              <LatitudeDegrees>38.10388782061636447906494140625</LatitudeDegrees>
              <LongitudeDegrees>-1.83226182125508785247802734375</LongitudeDegrees>
            </Position>
            <AltitudeMeters>588.5999755859375</AltitudeMeters>
            <DistanceMeters>13031.185195936</DistanceMeters>
          </Trackpoint>
          <Trackpoint>
            <Time>2021-08-28T05:54:40.000Z</Time>
            <Position>
              <LatitudeDegrees>38.10389871709048748016357421875</LatitudeDegrees>
              <LongitudeDegrees>-1.83241906575858592987060546875</LongitudeDegrees>
            </Position>
            <AltitudeMeters>589</AltitudeMeters>
            <DistanceMeters>13045.01019496</DistanceMeters>
          </Trackpoint>
          <Trackpoint>
            <Time>2021-08-28T05:54:42.000Z</Time>
            <Position>
              <LatitudeDegrees>38.10390877537429332733154296875</LatitudeDegrees>
              <LongitudeDegrees>-1.8325728736817836761474609375</LongitudeDegrees>
            </Position>
            <AltitudeMeters>589.4000244140625</AltitudeMeters>
            <DistanceMeters>13058.527390185</DistanceMeters>
          </Trackpoint>
          <Trackpoint>
            <Time>2021-08-28T05:54:44.000Z</Time>
            <Position>
              <LatitudeDegrees>38.10391514562070369720458984375</LatitudeDegrees>
              <LongitudeDegrees>-1.8327267654240131378173828125</LongitudeDegrees>
            </Position>
            <AltitudeMeters>589.79998779296875</AltitudeMeters>
            <DistanceMeters>13072.024529222</DistanceMeters>
          </Trackpoint>
          <Trackpoint>
            <Time>2021-08-28T05:54:50.000Z</Time>
            <Position>
              <LatitudeDegrees>38.1039288081228733062744140625</LatitudeDegrees>
              <LongitudeDegrees>-1.83322322554886341094970703125</LongitudeDegrees>
            </Position>
            <AltitudeMeters>590</AltitudeMeters>
            <DistanceMeters>13115.532445797</DistanceMeters>
          </Trackpoint>
          <Trackpoint>
            <Time>2021-08-28T05:54:53.000Z</Time>
            <Position>
              <LatitudeDegrees>38.1039449013769626617431640625</LatitudeDegrees>
              <LongitudeDegrees>-1.83346982114017009735107421875</LongitudeDegrees>
            </Position>
            <AltitudeMeters>590.20001220703125</AltitudeMeters>
            <DistanceMeters>13137.204370861</DistanceMeters>
          </Trackpoint>
          <Trackpoint>
            <Time>2021-08-28T05:55:00.000Z</Time>
            <Position>
              <LatitudeDegrees>38.1039730645716190338134765625</LatitudeDegrees>
              <LongitudeDegrees>-1.8340303190052509307861328125</LongitudeDegrees>
            </Position>
            <AltitudeMeters>590</AltitudeMeters>
            <DistanceMeters>13186.394259085</DistanceMeters>
          </Trackpoint>
          <Trackpoint>
            <Time>2021-08-28T05:55:04.000Z</Time>
            <Position>
              <LatitudeDegrees>38.10399301350116729736328125</LatitudeDegrees>
              <LongitudeDegrees>-1.83434857986867427825927734375</LongitudeDegrees>
            </Position>
            <AltitudeMeters>590.20001220703125</AltitudeMeters>
            <DistanceMeters>13214.356667049</DistanceMeters>
          </Trackpoint>
          <Trackpoint>
            <Time>2021-08-28T05:55:05.000Z</Time>
            <Position>
              <LatitudeDegrees>38.10399795882403850555419921875</LatitudeDegrees>
              <LongitudeDegrees>-1.834424771368503570556640625</LongitudeDegrees>
            </Position>
            <AltitudeMeters>590.4000244140625</AltitudeMeters>
            <DistanceMeters>13221.05183691</DistanceMeters>
          </Trackpoint>
          <Trackpoint>
            <Time>2021-08-28T05:55:07.000Z</Time>
            <Position>
              <LatitudeDegrees>38.10400516726076602935791015625</LatitudeDegrees>
              <LongitudeDegrees>-1.83457690291106700897216796875</LongitudeDegrees>
            </Position>
            <AltitudeMeters>590.5999755859375</AltitudeMeters>
            <DistanceMeters>13234.399623552</DistanceMeters>
          </Trackpoint>
          <Trackpoint>
            <Time>2021-08-28T05:55:09.000Z</Time>
            <Position>
              <LatitudeDegrees>38.10401313006877899169921875</LatitudeDegrees>
              <LongitudeDegrees>-1.83473515324294567108154296875</LongitudeDegrees>
            </Position>
            <AltitudeMeters>591.79998779296875</AltitudeMeters>
            <DistanceMeters>13248.287835562</DistanceMeters>
          </Trackpoint>
          <Trackpoint>
            <Time>2021-08-28T05:55:10.000Z</Time>
            <Position>
              <LatitudeDegrees>38.10401807539165019989013671875</LatitudeDegrees>
              <LongitudeDegrees>-1.83481561951339244842529296875</LongitudeDegrees>
            </Position>
            <AltitudeMeters>591.79998779296875</AltitudeMeters>
            <DistanceMeters>13255.356954534</DistanceMeters>
          </Trackpoint>
          <Trackpoint>
            <Time>2021-08-28T05:55:13.000Z</Time>
            <Position>
              <LatitudeDegrees>38.10403366573154926300048828125</LatitudeDegrees>
              <LongitudeDegrees>-1.83504796586930751800537109375</LongitudeDegrees>
            </Position>
            <AltitudeMeters>591.4000244140625</AltitudeMeters>
            <DistanceMeters>13275.780404074</DistanceMeters>
          </Trackpoint>
          <Trackpoint>
            <Time>2021-08-28T05:55:18.000Z</Time>
            <Position>
              <LatitudeDegrees>38.10406870208680629730224609375</LatitudeDegrees>
              <LongitudeDegrees>-1.8354361318051815032958984375</LongitudeDegrees>
            </Position>
            <AltitudeMeters>591</AltitudeMeters>
            <DistanceMeters>13309.999918431</DistanceMeters>
          </Trackpoint>
          <Trackpoint>
            <Time>2021-08-28T05:55:20.000Z</Time>
            <Position>
              <LatitudeDegrees>38.10407691635191440582275390625</LatitudeDegrees>
              <LongitudeDegrees>-1.83559052646160125732421875</LongitudeDegrees>
            </Position>
            <AltitudeMeters>591.5999755859375</AltitudeMeters>
            <DistanceMeters>13323.552806867</DistanceMeters>
          </Trackpoint>
          <Trackpoint>
            <Time>2021-08-28T05:55:24.000Z</Time>
            <Position>
              <LatitudeDegrees>38.10409485362470149993896484375</LatitudeDegrees>
              <LongitudeDegrees>-1.83589722029864788055419921875</LongitudeDegrees>
            </Position>
            <AltitudeMeters>592</AltitudeMeters>
            <DistanceMeters>13350.487810146</DistanceMeters>
          </Trackpoint>
          <Trackpoint>
            <Time>2021-08-28T05:55:30.000Z</Time>
            <Position>
              <LatitudeDegrees>38.10412301681935787200927734375</LatitudeDegrees>
              <LongitudeDegrees>-1.8363435566425323486328125</LongitudeDegrees>
            </Position>
            <AltitudeMeters>592</AltitudeMeters>
            <DistanceMeters>13389.704611005</DistanceMeters>
          </Trackpoint>
          <Trackpoint>
            <Time>2021-08-28T05:55:31.000Z</Time>
            <Position>
              <LatitudeDegrees>38.10412712395191192626953125</LatitudeDegrees>
              <LongitudeDegrees>-1.8364161439239978790283203125</LongitudeDegrees>
            </Position>
            <AltitudeMeters>592.20001220703125</AltitudeMeters>
            <DistanceMeters>13396.079196795</DistanceMeters>
          </Trackpoint>
          <Trackpoint>
            <Time>2021-08-28T05:55:36.000Z</Time>
            <Position>
              <LatitudeDegrees>38.1041430495679378509521484375</LatitudeDegrees>
              <LongitudeDegrees>-1.8367611430585384368896484375</LongitudeDegrees>
            </Position>
            <AltitudeMeters>592.4000244140625</AltitudeMeters>
            <DistanceMeters>13426.347107288</DistanceMeters>
          </Trackpoint>
          <Trackpoint>
            <Time>2021-08-28T05:55:40.000Z</Time>
            <Position>
              <LatitudeDegrees>38.10414858162403106689453125</LatitudeDegrees>
              <LongitudeDegrees>-1.83708091266453266143798828125</LongitudeDegrees>
            </Position>
            <AltitudeMeters>592.79998779296875</AltitudeMeters>
            <DistanceMeters>13454.360170368</DistanceMeters>
          </Trackpoint>
          <Trackpoint>
            <Time>2021-08-28T05:55:43.000Z</Time>
            <Position>
              <LatitudeDegrees>38.1041541136801242828369140625</LatitudeDegrees>
              <LongitudeDegrees>-1.8372984230518341064453125</LongitudeDegrees>
            </Position>
            <AltitudeMeters>593.20001220703125</AltitudeMeters>
            <DistanceMeters>13473.420075282</DistanceMeters>
          </Trackpoint>
          <Trackpoint>
            <Time>2021-08-28T05:55:50.000Z</Time>
            <Position>
              <LatitudeDegrees>38.1041738949716091156005859375</LatitudeDegrees>
              <LongitudeDegrees>-1.837769486010074615478515625</LongitudeDegrees>
            </Position>
            <AltitudeMeters>594.20001220703125</AltitudeMeters>
            <DistanceMeters>13514.735610017</DistanceMeters>
          </Trackpoint>
          <Trackpoint>
            <Time>2021-08-28T05:55:51.000Z</Time>
            <Position>
              <LatitudeDegrees>38.10417984612286090850830078125</LatitudeDegrees>
              <LongitudeDegrees>-1.8378336913883686065673828125</LongitudeDegrees>
            </Position>
            <AltitudeMeters>594.20001220703125</AltitudeMeters>
            <DistanceMeters>13520.397479971</DistanceMeters>
          </Trackpoint>
          <Trackpoint>
            <Time>2021-08-28T05:55:54.000Z</Time>
            <Position>
              <LatitudeDegrees>38.10419962741434574127197265625</LatitudeDegrees>
              <LongitudeDegrees>-1.83803561143577098846435546875</LongitudeDegrees>
            </Position>
            <AltitudeMeters>594.79998779296875</AltitudeMeters>
            <DistanceMeters>13538.218472887</DistanceMeters>
          </Trackpoint>
          <Trackpoint>
            <Time>2021-08-28T05:55:56.000Z</Time>
            <Position>
              <LatitudeDegrees>38.10420398600399494171142578125</LatitudeDegrees>
              <LongitudeDegrees>-1.83817156590521335601806640625</LongitudeDegrees>
            </Position>
            <AltitudeMeters>595.20001220703125</AltitudeMeters>
            <DistanceMeters>13550.135898881</DistanceMeters>
          </Trackpoint>
          <Trackpoint>
            <Time>2021-08-28T05:55:57.000Z</Time>
            <Position>
              <LatitudeDegrees>38.104210607707500457763671875</LatitudeDegrees>
              <LongitudeDegrees>-1.8382398784160614013671875</LongitudeDegrees>
            </Position>
            <AltitudeMeters>595.5999755859375</AltitudeMeters>
            <DistanceMeters>13556.164668049</DistanceMeters>
          </Trackpoint>
          <Trackpoint>
            <Time>2021-08-28T05:56:00.000Z</Time>
            <Position>
              <LatitudeDegrees>38.10422611422836780548095703125</LatitudeDegrees>
              <LongitudeDegrees>-1.83845152147114276885986328125</LongitudeDegrees>
            </Position>
            <AltitudeMeters>596.20001220703125</AltitudeMeters>
            <DistanceMeters>13574.781175077</DistanceMeters>
          </Trackpoint>
          <Trackpoint>
            <Time>2021-08-28T05:56:01.000Z</Time>
            <Position>
              <LatitudeDegrees>38.104234747588634490966796875</LatitudeDegrees>
              <LongitudeDegrees>-1.83852008543908596038818359375</LongitudeDegrees>
            </Position>
            <AltitudeMeters>596.5999755859375</AltitudeMeters>
            <DistanceMeters>13580.862142355</DistanceMeters>
          </Trackpoint>
          <Trackpoint>
            <Time>2021-08-28T05:56:03.000Z</Time>
            <Position>
              <LatitudeDegrees>38.104252852499485015869140625</LatitudeDegrees>
              <LongitudeDegrees>-1.83866106905043125152587890625</LongitudeDegrees>
            </Position>
            <AltitudeMeters>597</AltitudeMeters>
            <DistanceMeters>13593.372870352</DistanceMeters>
          </Trackpoint>
          <Trackpoint>
            <Time>2021-08-28T05:56:05.000Z</Time>
            <Position>
              <LatitudeDegrees>38.10425997711718082427978515625</LatitudeDegrees>
              <LongitudeDegrees>-1.83880171738564968109130859375</LongitudeDegrees>
            </Position>
            <AltitudeMeters>597.5999755859375</AltitudeMeters>
            <DistanceMeters>13605.716471116</DistanceMeters>
          </Trackpoint>
          <Trackpoint>
            <Time>2021-08-28T05:56:09.000Z</Time>
            <Position>
              <LatitudeDegrees>38.104269616305828094482421875</LatitudeDegrees>
              <LongitudeDegrees>-1.83908804319798946380615234375</LongitudeDegrees>
            </Position>
            <AltitudeMeters>598.20001220703125</AltitudeMeters>
            <DistanceMeters>13630.816658435</DistanceMeters>
          </Trackpoint>
          <Trackpoint>
            <Time>2021-08-28T05:56:10.000Z</Time>
            <Position>
              <LatitudeDegrees>38.1042778305709362030029296875</LatitudeDegrees>
              <LongitudeDegrees>-1.83915141038596630096435546875</LongitudeDegrees>
            </Position>
            <AltitudeMeters>598.5999755859375</AltitudeMeters>
            <DistanceMeters>13636.441726244</DistanceMeters>
          </Trackpoint>
          <Trackpoint>
            <Time>2021-08-28T05:56:14.000Z</Time>
            <Position>
              <LatitudeDegrees>38.104290068149566650390625</LatitudeDegrees>
              <LongitudeDegrees>-1.839435137808322906494140625</LongitudeDegrees>
            </Position>
            <AltitudeMeters>599.4000244140625</AltitudeMeters>
            <DistanceMeters>13661.328749232</DistanceMeters>
          </Trackpoint>
          <Trackpoint>
            <Time>2021-08-28T05:56:15.000Z</Time>
            <Position>
              <LatitudeDegrees>38.10429551638662815093994140625</LatitudeDegrees>
              <LongitudeDegrees>-1.8395060487091541290283203125</LongitudeDegrees>
            </Position>
            <AltitudeMeters>599.79998779296875</AltitudeMeters>
            <DistanceMeters>13667.568756414</DistanceMeters>
          </Trackpoint>
          <Trackpoint>
            <Time>2021-08-28T05:56:17.000Z</Time>
            <Position>
              <LatitudeDegrees>38.10429786331951618194580078125</LatitudeDegrees>
              <LongitudeDegrees>-1.83965432457625865936279296875</LongitudeDegrees>
            </Position>
            <AltitudeMeters>600.20001220703125</AltitudeMeters>
            <DistanceMeters>13680.557903741</DistanceMeters>
          </Trackpoint>
          <Trackpoint>
            <Time>2021-08-28T05:56:18.000Z</Time>
            <Position>
              <LatitudeDegrees>38.1043016351759433746337890625</LatitudeDegrees>
              <LongitudeDegrees>-1.8397263251245021820068359375</LongitudeDegrees>
            </Position>
            <AltitudeMeters>600.4000244140625</AltitudeMeters>
            <DistanceMeters>13686.878430474</DistanceMeters>
          </Trackpoint>
          <Trackpoint>
            <Time>2021-08-28T05:56:20.000Z</Time>
            <Position>
              <LatitudeDegrees>38.1043090112507343292236328125</LatitudeDegrees>
              <LongitudeDegrees>-1.839866302907466888427734375</LongitudeDegrees>
            </Position>
            <AltitudeMeters>600.79998779296875</AltitudeMeters>
            <DistanceMeters>13699.165204583</DistanceMeters>
          </Trackpoint>
          <Trackpoint>
            <Time>2021-08-28T05:56:21.000Z</Time>
            <Position>
              <LatitudeDegrees>38.10431479476392269134521484375</LatitudeDegrees>
              <LongitudeDegrees>-1.83993997983634471893310546875</LongitudeDegrees>
            </Position>
            <AltitudeMeters>601</AltitudeMeters>
            <DistanceMeters>13705.649341836</DistanceMeters>
          </Trackpoint>
          <Trackpoint>
            <Time>2021-08-28T05:56:28.000Z</Time>
            <Position>
              <LatitudeDegrees>38.104348070919513702392578125</LatitudeDegrees>
              <LongitudeDegrees>-1.840464435517787933349609375</LongitudeDegrees>
            </Position>
            <AltitudeMeters>601.79998779296875</AltitudeMeters>
            <DistanceMeters>13751.73141999</DistanceMeters>
          </Trackpoint>
          <Trackpoint>
            <Time>2021-08-28T05:56:30.000Z</Time>
            <Position>
              <LatitudeDegrees>38.10436324216425418853759765625</LatitudeDegrees>
              <LongitudeDegrees>-1.84060902334749698638916015625</LongitudeDegrees>
            </Position>
            <AltitudeMeters>601.79998779296875</AltitudeMeters>
            <DistanceMeters>13764.506771321</DistanceMeters>
          </Trackpoint>
          <Trackpoint>
            <Time>2021-08-28T05:56:31.000Z</Time>
            <Position>
              <LatitudeDegrees>38.10436592437326908111572265625</LatitudeDegrees>
              <LongitudeDegrees>-1.84068529866635799407958984375</LongitudeDegrees>
            </Position>
            <AltitudeMeters>602</AltitudeMeters>
            <DistanceMeters>13771.193843816</DistanceMeters>
          </Trackpoint>
          <Trackpoint>
            <Time>2021-08-28T05:56:33.000Z</Time>
            <Position>
              <LatitudeDegrees>38.10437195934355258941650390625</LatitudeDegrees>
              <LongitudeDegrees>-1.84083282016217708587646484375</LongitudeDegrees>
            </Position>
            <AltitudeMeters>602.4000244140625</AltitudeMeters>
            <DistanceMeters>13784.131792921</DistanceMeters>
          </Trackpoint>
          <Trackpoint>
            <Time>2021-08-28T05:56:36.000Z</Time>
            <Position>
              <LatitudeDegrees>38.10437564738094806671142578125</LatitudeDegrees>
              <LongitudeDegrees>-1.841048486530780792236328125</LongitudeDegrees>
            </Position>
            <AltitudeMeters>602.5999755859375</AltitudeMeters>
            <DistanceMeters>13803.024671518</DistanceMeters>
          </Trackpoint>
          <Trackpoint>
            <Time>2021-08-28T05:56:37.000Z</Time>
            <Position>
              <LatitudeDegrees>38.1043881364166736602783203125</LatitudeDegrees>
              <LongitudeDegrees>-1.8411123566329479217529296875</LongitudeDegrees>
            </Position>
            <AltitudeMeters>602.5999755859375</AltitudeMeters>
            <DistanceMeters>13808.788494142</DistanceMeters>
          </Trackpoint>
          <Trackpoint>
            <Time>2021-08-28T05:56:38.000Z</Time>
            <Position>
              <LatitudeDegrees>38.1043960154056549072265625</LatitudeDegrees>
              <LongitudeDegrees>-1.841181926429271697998046875</LongitudeDegrees>
            </Position>
            <AltitudeMeters>602.5999755859375</AltitudeMeters>
            <DistanceMeters>13814.943995808</DistanceMeters>
          </Trackpoint>
          <Trackpoint>
            <Time>2021-08-28T05:56:40.000Z</Time>
            <Position>
              <LatitudeDegrees>38.104397356510162353515625</LatitudeDegrees>
              <LongitudeDegrees>-1.8413386680185794830322265625</LongitudeDegrees>
            </Position>
            <AltitudeMeters>602.5999755859375</AltitudeMeters>
            <DistanceMeters>13828.672643066</DistanceMeters>
          </Trackpoint>
          <Trackpoint>
            <Time>2021-08-28T05:56:42.000Z</Time>
            <Position>
              <LatitudeDegrees>38.1043908186256885528564453125</LatitudeDegrees>
              <LongitudeDegrees>-1.84149675071239471435546875</LongitudeDegrees>
            </Position>
            <AltitudeMeters>602.5999755859375</AltitudeMeters>
            <DistanceMeters>13842.537428219</DistanceMeters>
          </Trackpoint>
          <Trackpoint>
            <Time>2021-08-28T05:56:44.000Z</Time>
            <Position>
              <LatitudeDegrees>38.1043938361108303070068359375</LatitudeDegrees>
              <LongitudeDegrees>-1.84165910817682743072509765625</LongitudeDegrees>
            </Position>
            <AltitudeMeters>602.79998779296875</AltitudeMeters>
            <DistanceMeters>13856.760994321</DistanceMeters>
          </Trackpoint>
          <Trackpoint>
            <Time>2021-08-28T05:56:46.000Z</Time>
            <Position>
              <LatitudeDegrees>38.1043992005288600921630859375</LatitudeDegrees>
              <LongitudeDegrees>-1.84180327691137790679931640625</LongitudeDegrees>
            </Position>
            <AltitudeMeters>602.79998779296875</AltitudeMeters>
            <DistanceMeters>13869.402047787</DistanceMeters>
          </Trackpoint>
          <Trackpoint>
            <Time>2021-08-28T05:56:49.000Z</Time>
            <Position>
              <LatitudeDegrees>38.1044196523725986480712890625</LatitudeDegrees>
              <LongitudeDegrees>-1.8420045264065265655517578125</LongitudeDegrees>
            </Position>
            <AltitudeMeters>602.79998779296875</AltitudeMeters>
            <DistanceMeters>13887.174329967</DistanceMeters>
          </Trackpoint>
          <Trackpoint>
            <Time>2021-08-28T05:56:50.000Z</Time>
            <Position>
              <LatitudeDegrees>38.10442258603870868682861328125</LatitudeDegrees>
              <LongitudeDegrees>-1.84207451529800891876220703125</LongitudeDegrees>
            </Position>
            <AltitudeMeters>602.79998779296875</AltitudeMeters>
            <DistanceMeters>13893.312202475</DistanceMeters>
          </Trackpoint>
          <Trackpoint>
            <Time>2021-08-28T05:56:51.000Z</Time>
            <Position>
              <LatitudeDegrees>38.10442795045673847198486328125</LatitudeDegrees>
              <LongitudeDegrees>-1.84213989414274692535400390625</LongitudeDegrees>
            </Position>
            <AltitudeMeters>602.79998779296875</AltitudeMeters>
            <DistanceMeters>13899.068970713</DistanceMeters>
          </Trackpoint>
          <Trackpoint>
            <Time>2021-08-28T05:56:54.000Z</Time>
            <Position>
              <LatitudeDegrees>38.1044337339699268341064453125</LatitudeDegrees>
              <LongitudeDegrees>-1.84234558604657649993896484375</LongitudeDegrees>
            </Position>
            <AltitudeMeters>603.4000244140625</AltitudeMeters>
            <DistanceMeters>13917.095515887</DistanceMeters>
          </Trackpoint>
          <Trackpoint>
            <Time>2021-08-28T05:56:56.000Z</Time>
            <Position>
              <LatitudeDegrees>38.104448653757572174072265625</LatitudeDegrees>
              <LongitudeDegrees>-1.84248321689665317535400390625</LongitudeDegrees>
            </Position>
            <AltitudeMeters>603.5999755859375</AltitudeMeters>
            <DistanceMeters>13929.263388888</DistanceMeters>
          </Trackpoint>
          <Trackpoint>
            <Time>2021-08-28T05:57:00.000Z</Time>
            <Position>
              <LatitudeDegrees>38.10444756411015987396240234375</LatitudeDegrees>
              <LongitudeDegrees>-1.8427749909460544586181640625</LongitudeDegrees>
            </Position>
            <AltitudeMeters>604</AltitudeMeters>
            <DistanceMeters>13954.817978853</DistanceMeters>
          </Trackpoint>
          <Trackpoint>
            <Time>2021-08-28T05:57:02.000Z</Time>
            <Position>
              <LatitudeDegrees>38.10445703566074371337890625</LatitudeDegrees>
              <LongitudeDegrees>-1.8429319001734256744384765625</LongitudeDegrees>
            </Position>
            <AltitudeMeters>604</AltitudeMeters>
            <DistanceMeters>13968.601111597</DistanceMeters>
          </Trackpoint>
          <Trackpoint>
            <Time>2021-08-28T05:57:06.000Z</Time>
            <Position>
              <LatitudeDegrees>38.10446449555456638336181640625</LatitudeDegrees>
              <LongitudeDegrees>-1.843233145773410797119140625</LongitudeDegrees>
            </Position>
            <AltitudeMeters>604.4000244140625</AltitudeMeters>
            <DistanceMeters>13994.998020861</DistanceMeters>
          </Trackpoint>
          <Trackpoint>
            <Time>2021-08-28T05:57:08.000Z</Time>
            <Position>
              <LatitudeDegrees>38.10446483083069324493408203125</LatitudeDegrees>
              <LongitudeDegrees>-1.84337220154702663421630859375</LongitudeDegrees>
            </Position>
            <AltitudeMeters>604.4000244140625</AltitudeMeters>
            <DistanceMeters>14007.176279173</DistanceMeters>
          </Trackpoint>
          <Trackpoint>
            <Time>2021-08-28T05:57:10.000Z</Time>
            <Position>
              <LatitudeDegrees>38.10447053052484989166259765625</LatitudeDegrees>
              <LongitudeDegrees>-1.843514777719974517822265625</LongitudeDegrees>
            </Position>
            <AltitudeMeters>604.4000244140625</AltitudeMeters>
            <DistanceMeters>14019.679426113</DistanceMeters>
          </Trackpoint>
          <Trackpoint>
            <Time>2021-08-28T05:57:12.000Z</Time>
            <Position>
              <LatitudeDegrees>38.1044843606650829315185546875</LatitudeDegrees>
              <LongitudeDegrees>-1.84365919791162014007568359375</LongitudeDegrees>
            </Position>
            <AltitudeMeters>604.5999755859375</AltitudeMeters>
            <DistanceMeters>14032.421512852</DistanceMeters>
          </Trackpoint>
          <Trackpoint>
            <Time>2021-08-28T05:57:19.000Z</Time>
            <Position>
              <LatitudeDegrees>38.10451109893620014190673828125</LatitudeDegrees>
              <LongitudeDegrees>-1.8441603519022464752197265625</LongitudeDegrees>
            </Position>
            <AltitudeMeters>605.20001220703125</AltitudeMeters>
            <DistanceMeters>14076.414468697</DistanceMeters>
          </Trackpoint>
          <Trackpoint>
            <Time>2021-08-28T05:57:20.000Z</Time>
            <Position>
              <LatitudeDegrees>38.10451646335422992706298828125</LatitudeDegrees>
              <LongitudeDegrees>-1.8442217074334621429443359375</LongitudeDegrees>
            </Position>
            <AltitudeMeters>605.4000244140625</AltitudeMeters>
            <DistanceMeters>14081.820144174</DistanceMeters>
          </Trackpoint>
          <Trackpoint>
            <Time>2021-08-28T05:57:22.000Z</Time>
            <Position>
              <LatitudeDegrees>38.10452484525740146636962890625</LatitudeDegrees>
              <LongitudeDegrees>-1.8443620204925537109375</LongitudeDegrees>
            </Position>
            <AltitudeMeters>605.4000244140625</AltitudeMeters>
            <DistanceMeters>14094.144343369</DistanceMeters>
          </Trackpoint>
          <Trackpoint>
            <Time>2021-08-28T05:57:24.000Z</Time>
            <Position>
              <LatitudeDegrees>38.10452945530414581298828125</LatitudeDegrees>
              <LongitudeDegrees>-1.8444867432117462158203125</LongitudeDegrees>
            </Position>
            <AltitudeMeters>605.5999755859375</AltitudeMeters>
            <DistanceMeters>14105.07943698</DistanceMeters>
          </Trackpoint>
          <Trackpoint>
            <Time>2021-08-28T05:57:27.000Z</Time>
            <Position>
              <LatitudeDegrees>38.10455300845205783843994140625</LatitudeDegrees>
              <LongitudeDegrees>-1.84467927552759647369384765625</LongitudeDegrees>
            </Position>
            <AltitudeMeters>606</AltitudeMeters>
            <DistanceMeters>14122.144076008</DistanceMeters>
          </Trackpoint>
          <Trackpoint>
            <Time>2021-08-28T05:57:30.000Z</Time>
            <Position>
              <LatitudeDegrees>38.104572035372257232666015625</LatitudeDegrees>
              <LongitudeDegrees>-1.84490307234227657318115234375</LongitudeDegrees>
            </Position>
            <AltitudeMeters>606.5999755859375</AltitudeMeters>
            <DistanceMeters>14141.858856004</DistanceMeters>
          </Trackpoint>
          <Trackpoint>
            <Time>2021-08-28T05:57:38.000Z</Time>
            <Position>
              <LatitudeDegrees>38.10462509281933307647705078125</LatitudeDegrees>
              <LongitudeDegrees>-1.845458038151264190673828125</LongitudeDegrees>
            </Position>
            <AltitudeMeters>607.5999755859375</AltitudeMeters>
            <DistanceMeters>14190.821318713</DistanceMeters>
          </Trackpoint>
          <Trackpoint>
            <Time>2021-08-28T05:57:40.000Z</Time>
            <Position>
              <LatitudeDegrees>38.1046409346163272857666015625</LatitudeDegrees>
              <LongitudeDegrees>-1.8455956690013408660888671875</LongitudeDegrees>
            </Position>
            <AltitudeMeters>608</AltitudeMeters>
            <DistanceMeters>14203.003283919</DistanceMeters>
          </Trackpoint>
          <Trackpoint>
            <Time>2021-08-28T05:57:44.000Z</Time>
            <Position>
              <LatitudeDegrees>38.10466214083135128021240234375</LatitudeDegrees>
              <LongitudeDegrees>-1.84588626958429813385009765625</LongitudeDegrees>
            </Position>
            <AltitudeMeters>608.79998779296875</AltitudeMeters>
            <DistanceMeters>14228.563880369</DistanceMeters>
          </Trackpoint>
          <Trackpoint>
            <Time>2021-08-28T05:57:45.000Z</Time>
            <Position>
              <LatitudeDegrees>38.1046637333929538726806640625</LatitudeDegrees>
              <LongitudeDegrees>-1.84595994651317596435546875</LongitudeDegrees>
            </Position>
            <AltitudeMeters>609</AltitudeMeters>
            <DistanceMeters>14235.018705906</DistanceMeters>
          </Trackpoint>
          <Trackpoint>
            <Time>2021-08-28T05:57:50.000Z</Time>
            <Position>
              <LatitudeDegrees>38.104666583240032196044921875</LatitudeDegrees>
              <LongitudeDegrees>-1.84632740914821624755859375</LongitudeDegrees>
            </Position>
            <AltitudeMeters>609.4000244140625</AltitudeMeters>
            <DistanceMeters>14267.203455851</DistanceMeters>
          </Trackpoint>
          <Trackpoint>
            <Time>2021-08-28T05:57:53.000Z</Time>
            <Position>
              <LatitudeDegrees>38.1046727858483791351318359375</LatitudeDegrees>
              <LongitudeDegrees>-1.8465413153171539306640625</LongitudeDegrees>
            </Position>
            <AltitudeMeters>609.79998779296875</AltitudeMeters>
            <DistanceMeters>14285.950470952</DistanceMeters>
          </Trackpoint>
          <Trackpoint>
            <Time>2021-08-28T05:57:58.000Z</Time>
            <Position>
              <LatitudeDegrees>38.1046727858483791351318359375</LatitudeDegrees>
              <LongitudeDegrees>-1.84691322036087512969970703125</LongitudeDegrees>
            </Position>
            <AltitudeMeters>610.79998779296875</AltitudeMeters>
            <DistanceMeters>14318.522740008</DistanceMeters>
          </Trackpoint>
          <Trackpoint>
            <Time>2021-08-28T05:58:00.000Z</Time>
            <Position>
              <LatitudeDegrees>38.1046761386096477508544921875</LatitudeDegrees>
              <LongitudeDegrees>-1.8470591492950916290283203125</LongitudeDegrees>
            </Position>
            <AltitudeMeters>611</AltitudeMeters>
            <DistanceMeters>14331.308689482</DistanceMeters>
          </Trackpoint>
          <Trackpoint>
            <Time>2021-08-28T05:58:01.000Z</Time>
            <Position>
              <LatitudeDegrees>38.10467890463769435882568359375</LatitudeDegrees>
              <LongitudeDegrees>-1.84713450260460376739501953125</LongitudeDegrees>
            </Position>
            <AltitudeMeters>611.20001220703125</AltitudeMeters>
            <DistanceMeters>14337.915609304</DistanceMeters>
          </Trackpoint>
          <Trackpoint>
            <Time>2021-08-28T05:58:08.000Z</Time>
            <Position>
              <LatitudeDegrees>38.10469315387308597564697265625</LatitudeDegrees>
              <LongitudeDegrees>-1.84764697216451168060302734375</LongitudeDegrees>
            </Position>
            <AltitudeMeters>611.5999755859375</AltitudeMeters>
            <DistanceMeters>14382.826565593</DistanceMeters>
          </Trackpoint>
          <Trackpoint>
            <Time>2021-08-28T05:58:10.000Z</Time>
            <Position>
              <LatitudeDegrees>38.10470287688076496124267578125</LatitudeDegrees>
              <LongitudeDegrees>-1.84778250753879547119140625</LongitudeDegrees>
            </Position>
            <AltitudeMeters>611.79998779296875</AltitudeMeters>
            <DistanceMeters>14394.746264531</DistanceMeters>
          </Trackpoint>
          <Trackpoint>
            <Time>2021-08-28T05:58:11.000Z</Time>
            <Position>
              <LatitudeDegrees>38.10471125878393650054931640625</LatitudeDegrees>
              <LongitudeDegrees>-1.84785417281091213226318359375</LongitudeDegrees>
            </Position>
            <AltitudeMeters>612</AltitudeMeters>
            <DistanceMeters>14401.092455589</DistanceMeters>
          </Trackpoint>
          <Trackpoint>
            <Time>2021-08-28T05:58:14.000Z</Time>
            <Position>
              <LatitudeDegrees>38.1047230772674083709716796875</LatitudeDegrees>
              <LongitudeDegrees>-1.84805332683026790618896484375</LongitudeDegrees>
            </Position>
            <AltitudeMeters>612.4000244140625</AltitudeMeters>
            <DistanceMeters>14418.584083588</DistanceMeters>
          </Trackpoint>
          <Trackpoint>
            <Time>2021-08-28T05:58:18.000Z</Time>
            <Position>
              <LatitudeDegrees>38.1047475524246692657470703125</LatitudeDegrees>
              <LongitudeDegrees>-1.84832431375980377197265625</LongitudeDegrees>
            </Position>
            <AltitudeMeters>613</AltitudeMeters>
            <DistanceMeters>14442.473429148</DistanceMeters>
          </Trackpoint>
          <Trackpoint>
            <Time>2021-08-28T05:58:20.000Z</Time>
            <Position>
              <LatitudeDegrees>38.10475802980363368988037109375</LatitudeDegrees>
              <LongitudeDegrees>-1.8484458513557910919189453125</LongitudeDegrees>
            </Position>
            <AltitudeMeters>613.4000244140625</AltitudeMeters>
            <DistanceMeters>14453.181552731</DistanceMeters>
          </Trackpoint>
          <Trackpoint>
            <Time>2021-08-28T05:58:26.000Z</Time>
            <Position>
              <LatitudeDegrees>38.1047747097909450531005859375</LatitudeDegrees>
              <LongitudeDegrees>-1.84885203838348388671875</LongitudeDegrees>
            </Position>
            <AltitudeMeters>613.79998779296875</AltitudeMeters>
            <DistanceMeters>14488.804531869</DistanceMeters>
          </Trackpoint>
          <Trackpoint>
            <Time>2021-08-28T05:58:28.000Z</Time>
            <Position>
              <LatitudeDegrees>38.10478518716990947723388671875</LatitudeDegrees>
              <LongitudeDegrees>-1.848994195461273193359375</LongitudeDegrees>
            </Position>
            <AltitudeMeters>614</AltitudeMeters>
            <DistanceMeters>14501.309123174</DistanceMeters>
          </Trackpoint>
          <Trackpoint>
            <Time>2021-08-28T05:58:30.000Z</Time>
            <Position>
              <LatitudeDegrees>38.1047988496720790863037109375</LatitudeDegrees>
              <LongitudeDegrees>-1.84912755154073238372802734375</LongitudeDegrees>
            </Position>
            <AltitudeMeters>614.4000244140625</AltitudeMeters>
            <DistanceMeters>14513.087070123</DistanceMeters>
          </Trackpoint>
          <Trackpoint>
            <Time>2021-08-28T05:58:32.000Z</Time>
            <Position>
              <LatitudeDegrees>38.104800693690776824951171875</LatitudeDegrees>
              <LongitudeDegrees>-1.8492766655981540679931640625</LongitudeDegrees>
            </Position>
            <AltitudeMeters>615</AltitudeMeters>
            <DistanceMeters>14526.148663987</DistanceMeters>
          </Trackpoint>
          <Trackpoint>
            <Time>2021-08-28T05:58:33.000Z</Time>
            <Position>
              <LatitudeDegrees>38.10480446554720401763916015625</LatitudeDegrees>
              <LongitudeDegrees>-1.84935134835541248321533203125</LongitudeDegrees>
            </Position>
            <AltitudeMeters>615.20001220703125</AltitudeMeters>
            <DistanceMeters>14532.703441155</DistanceMeters>
          </Trackpoint>
          <Trackpoint>
            <Time>2021-08-28T05:58:40.000Z</Time>
            <Position>
              <LatitudeDegrees>38.104828186333179473876953125</LatitudeDegrees>
              <LongitudeDegrees>-1.8498570285737514495849609375</LongitudeDegrees>
            </Position>
            <AltitudeMeters>615.79998779296875</AltitudeMeters>
            <DistanceMeters>14577.070436137</DistanceMeters>
          </Trackpoint>
          <Trackpoint>
            <Time>2021-08-28T05:58:42.000Z</Time>
            <Position>
              <LatitudeDegrees>38.10482273809611797332763671875</LatitudeDegrees>
              <LongitudeDegrees>-1.8500042147934436798095703125</LongitudeDegrees>
            </Position>
            <AltitudeMeters>616.20001220703125</AltitudeMeters>
            <DistanceMeters>14589.975539773</DistanceMeters>
          </Trackpoint>
          <Trackpoint>
            <Time>2021-08-28T05:58:46.000Z</Time>
            <Position>
              <LatitudeDegrees>38.104849644005298614501953125</LatitudeDegrees>
              <LongitudeDegrees>-1.8502801470458507537841796875</LongitudeDegrees>
            </Position>
            <AltitudeMeters>616.79998779296875</AltitudeMeters>
            <DistanceMeters>14614.327050814</DistanceMeters>
          </Trackpoint>
          <Trackpoint>
            <Time>2021-08-28T05:58:48.000Z</Time>
            <Position>
              <LatitudeDegrees>38.10485810972750186920166015625</LatitudeDegrees>
              <LongitudeDegrees>-1.8504186160862445831298828125</LongitudeDegrees>
            </Position>
            <AltitudeMeters>617.20001220703125</AltitudeMeters>
            <DistanceMeters>14626.491212627</DistanceMeters>
          </Trackpoint>
          <Trackpoint>
            <Time>2021-08-28T05:58:50.000Z</Time>
            <Position>
              <LatitudeDegrees>38.1048642285168170928955078125</LatitudeDegrees>
              <LongitudeDegrees>-1.85057057999074459075927734375</LongitudeDegrees>
            </Position>
            <AltitudeMeters>617.4000244140625</AltitudeMeters>
            <DistanceMeters>14639.818010573</DistanceMeters>
          </Trackpoint>
          <Trackpoint>
            <Time>2021-08-28T05:58:53.000Z</Time>
            <Position>
              <LatitudeDegrees>38.1048739515244960784912109375</LatitudeDegrees>
              <LongitudeDegrees>-1.8507931195199489593505859375</LongitudeDegrees>
            </Position>
            <AltitudeMeters>617.79998779296875</AltitudeMeters>
            <DistanceMeters>14659.338079877</DistanceMeters>
          </Trackpoint>
          <Trackpoint>
            <Time>2021-08-28T05:58:56.000Z</Time>
            <Position>
              <LatitudeDegrees>38.1048863567411899566650390625</LatitudeDegrees>
              <LongitudeDegrees>-1.85102253220975399017333984375</LongitudeDegrees>
            </Position>
            <AltitudeMeters>618.5999755859375</AltitudeMeters>
            <DistanceMeters>14679.477915371</DistanceMeters>
          </Trackpoint>
          <Trackpoint>
            <Time>2021-08-28T05:59:00.000Z</Time>
            <Position>
              <LatitudeDegrees>38.1048957444727420806884765625</LatitudeDegrees>
              <LongitudeDegrees>-1.85132126323878765106201171875</LongitudeDegrees>
            </Position>
            <AltitudeMeters>619.4000244140625</AltitudeMeters>
            <DistanceMeters>14705.661870838</DistanceMeters>
          </Trackpoint>
          <Trackpoint>
            <Time>2021-08-28T05:59:01.000Z</Time>
            <Position>
              <LatitudeDegrees>38.1049002707004547119140625</LatitudeDegrees>
              <LongitudeDegrees>-1.85139753855764865875244140625</LongitudeDegrees>
            </Position>
            <AltitudeMeters>619.5999755859375</AltitudeMeters>
            <DistanceMeters>14712.361085712</DistanceMeters>
          </Trackpoint>
          <Trackpoint>
            <Time>2021-08-28T05:59:06.000Z</Time>
            <Position>
              <LatitudeDegrees>38.10492533259093761444091796875</LatitudeDegrees>
              <LongitudeDegrees>-1.8517664261162281036376953125</LongitudeDegrees>
            </Position>
            <AltitudeMeters>619.79998779296875</AltitudeMeters>
            <DistanceMeters>14744.789012905</DistanceMeters>
          </Trackpoint>
          <Trackpoint>
            <Time>2021-08-28T05:59:08.000Z</Time>
            <Position>
              <LatitudeDegrees>38.10493555851280689239501953125</LatitudeDegrees>
              <LongitudeDegrees>-1.85191989876329898834228515625</LongitudeDegrees>
            </Position>
            <AltitudeMeters>620.20001220703125</AltitudeMeters>
            <DistanceMeters>14758.278790535</DistanceMeters>
          </Trackpoint>
          <Trackpoint>
            <Time>2021-08-28T05:59:10.000Z</Time>
            <Position>
              <LatitudeDegrees>38.10494377277791500091552734375</LatitudeDegrees>
              <LongitudeDegrees>-1.85207672417163848876953125</LongitudeDegrees>
            </Position>
            <AltitudeMeters>620.20001220703125</AltitudeMeters>
            <DistanceMeters>14772.044222751</DistanceMeters>
          </Trackpoint>
          <Trackpoint>
            <Time>2021-08-28T05:59:15.000Z</Time>
            <Position>
              <LatitudeDegrees>38.1049537472426891326904296875</LatitudeDegrees>
              <LongitudeDegrees>-1.85247729532420635223388671875</LongitudeDegrees>
            </Position>
            <AltitudeMeters>620.5999755859375</AltitudeMeters>
            <DistanceMeters>14807.144472177</DistanceMeters>
          </Trackpoint>
          <Trackpoint>
            <Time>2021-08-28T05:59:16.000Z</Time>
            <Position>
              <LatitudeDegrees>38.10495735146105289459228515625</LatitudeDegrees>
              <LongitudeDegrees>-1.85255072079598903656005859375</LongitudeDegrees>
            </Position>
            <AltitudeMeters>621</AltitudeMeters>
            <DistanceMeters>14813.586694723</DistanceMeters>
          </Trackpoint>
          <Trackpoint>
            <Time>2021-08-28T05:59:20.000Z</Time>
            <Position>
              <LatitudeDegrees>38.1049715168774127960205078125</LatitudeDegrees>
              <LongitudeDegrees>-1.85285188257694244384765625</LongitudeDegrees>
            </Position>
            <AltitudeMeters>621.20001220703125</AltitudeMeters>
            <DistanceMeters>14840.009931665</DistanceMeters>
          </Trackpoint>
          <Trackpoint>
            <Time>2021-08-28T05:59:21.000Z</Time>
            <Position>
              <LatitudeDegrees>38.10497361235320568084716796875</LatitudeDegrees>
              <LongitudeDegrees>-1.85293058864772319793701171875</LongitudeDegrees>
            </Position>
            <AltitudeMeters>621.4000244140625</AltitudeMeters>
            <DistanceMeters>14846.907064599</DistanceMeters>
          </Trackpoint>
          <Trackpoint>
            <Time>2021-08-28T05:59:25.000Z</Time>
            <Position>
              <LatitudeDegrees>38.1049798987805843353271484375</LatitudeDegrees>
              <LongitudeDegrees>-1.853246502578258514404296875</LongitudeDegrees>
            </Position>
            <AltitudeMeters>622.20001220703125</AltitudeMeters>
            <DistanceMeters>14874.584155933</DistanceMeters>
          </Trackpoint>
          <Trackpoint>
            <Time>2021-08-28T05:59:28.000Z</Time>
            <Position>
              <LatitudeDegrees>38.10499138198792934417724609375</LatitudeDegrees>
              <LongitudeDegrees>-1.8534669466316699981689453125</LongitudeDegrees>
            </Position>
            <AltitudeMeters>622.4000244140625</AltitudeMeters>
            <DistanceMeters>14893.933237807</DistanceMeters>
          </Trackpoint>
          <Trackpoint>
            <Time>2021-08-28T05:59:30.000Z</Time>
            <Position>
              <LatitudeDegrees>38.10500848107039928436279296875</LatitudeDegrees>
              <LongitudeDegrees>-1.85361069627106189727783203125</LongitudeDegrees>
            </Position>
            <AltitudeMeters>622.5999755859375</AltitudeMeters>
            <DistanceMeters>14906.666108359</DistanceMeters>
          </Trackpoint>
          <Trackpoint>
            <Time>2021-08-28T05:59:35.000Z</Time>
            <Position>
              <LatitudeDegrees>38.105023317039012908935546875</LatitudeDegrees>
              <LongitudeDegrees>-1.8539842776954174041748046875</LongitudeDegrees>
            </Position>
            <AltitudeMeters>623.4000244140625</AltitudeMeters>
            <DistanceMeters>14939.426490614</DistanceMeters>
          </Trackpoint>
          <Trackpoint>
            <Time>2021-08-28T05:59:39.000Z</Time>
            <Position>
              <LatitudeDegrees>38.10503496788442134857177734375</LatitudeDegrees>
              <LongitudeDegrees>-1.85428460128605365753173828125</LongitudeDegrees>
            </Position>
            <AltitudeMeters>624.4000244140625</AltitudeMeters>
            <DistanceMeters>14965.761066192</DistanceMeters>
          </Trackpoint>
          <Trackpoint>
            <Time>2021-08-28T05:59:40.000Z</Time>
            <Position>
              <LatitudeDegrees>38.1050379015505313873291015625</LatitudeDegrees>
              <LongitudeDegrees>-1.85435928404331207275390625</LongitudeDegrees>
            </Position>
            <AltitudeMeters>624.4000244140625</AltitudeMeters>
            <DistanceMeters>14972.31033051</DistanceMeters>
          </Trackpoint>
          <Trackpoint>
            <Time>2021-08-28T05:59:43.000Z</Time>
            <Position>
              <LatitudeDegrees>38.10504972003400325775146484375</LatitudeDegrees>
              <LongitudeDegrees>-1.854575537145137786865234375</LongitudeDegrees>
            </Position>
            <AltitudeMeters>624.5999755859375</AltitudeMeters>
            <DistanceMeters>14991.295707287</DistanceMeters>
          </Trackpoint>
          <Trackpoint>
            <Time>2021-08-28T05:59:48.000Z</Time>
            <Position>
              <LatitudeDegrees>38.1050818227231502532958984375</LatitudeDegrees>
              <LongitudeDegrees>-1.85493537224829196929931640625</LongitudeDegrees>
            </Position>
            <AltitudeMeters>625.5999755859375</AltitudeMeters>
            <DistanceMeters>15023.012430255</DistanceMeters>
          </Trackpoint>
          <Trackpoint>
            <Time>2021-08-28T05:59:50.000Z</Time>
            <Position>
              <LatitudeDegrees>38.10509230010211467742919921875</LatitudeDegrees>
              <LongitudeDegrees>-1.85507736168801784515380859375</LongitudeDegrees>
            </Position>
            <AltitudeMeters>626</AltitudeMeters>
            <DistanceMeters>15035.502570392</DistanceMeters>
          </Trackpoint>
          <Trackpoint>
            <Time>2021-08-28T05:59:56.000Z</Time>
            <Position>
              <LatitudeDegrees>38.105116188526153564453125</LatitudeDegrees>
              <LongitudeDegrees>-1.8554977141320705413818359375</LongitudeDegrees>
            </Position>
            <AltitudeMeters>626.4000244140625</AltitudeMeters>
            <DistanceMeters>15072.413446615</DistanceMeters>
          </Trackpoint>
          <Trackpoint>
            <Time>2021-08-28T05:59:57.000Z</Time>
            <Position>
              <LatitudeDegrees>38.1051203794777393341064453125</LatitudeDegrees>
              <LongitudeDegrees>-1.8555667810142040252685546875</LongitudeDegrees>
            </Position>
            <AltitudeMeters>626.4000244140625</AltitudeMeters>
            <DistanceMeters>15078.480290241</DistanceMeters>
          </Trackpoint>
          <Trackpoint>
            <Time>2021-08-28T05:59:58.000Z</Time>
            <Position>
              <LatitudeDegrees>38.1051227264106273651123046875</LatitudeDegrees>
              <LongitudeDegrees>-1.8556351773440837860107421875</LongitudeDegrees>
            </Position>
            <AltitudeMeters>626.4000244140625</AltitudeMeters>
            <DistanceMeters>15084.476016579</DistanceMeters>
          </Trackpoint>
          <Trackpoint>
            <Time>2021-08-28T06:00:00.000Z</Time>
            <Position>
              <LatitudeDegrees>38.10512884519994258880615234375</LatitudeDegrees>
              <LongitudeDegrees>-1.8557707965373992919921875</LongitudeDegrees>
            </Position>
            <AltitudeMeters>626.4000244140625</AltitudeMeters>
            <DistanceMeters>15096.372966532</DistanceMeters>
          </Trackpoint>
          <Trackpoint>
            <Time>2021-08-28T06:00:01.000Z</Time>
            <Position>
              <LatitudeDegrees>38.1051331199705600738525390625</LatitudeDegrees>
              <LongitudeDegrees>-1.855836845934391021728515625</LongitudeDegrees>
            </Position>
            <AltitudeMeters>626.5999755859375</AltitudeMeters>
            <DistanceMeters>15102.176602042</DistanceMeters>
          </Trackpoint>
          <Trackpoint>
            <Time>2021-08-28T06:00:04.000Z</Time>
            <Position>
              <LatitudeDegrees>38.1051368080079555511474609375</LatitudeDegrees>
              <LongitudeDegrees>-1.85603432357311248779296875</LongitudeDegrees>
            </Position>
            <AltitudeMeters>627</AltitudeMeters>
            <DistanceMeters>15119.476684518</DistanceMeters>
          </Trackpoint>
          <Trackpoint>
            <Time>2021-08-28T06:00:05.000Z</Time>
            <Position>
              <LatitudeDegrees>38.105134628713130950927734375</LatitudeDegrees>
              <LongitudeDegrees>-1.85609995387494564056396484375</LongitudeDegrees>
            </Position>
            <AltitudeMeters>627</AltitudeMeters>
            <DistanceMeters>15125.230314697</DistanceMeters>
          </Trackpoint>
          <Trackpoint>
            <Time>2021-08-28T06:00:06.000Z</Time>
            <Position>
              <LatitudeDegrees>38.1051244027912616729736328125</LatitudeDegrees>
              <LongitudeDegrees>-1.85616231523454189300537109375</LongitudeDegrees>
            </Position>
            <AltitudeMeters>627.4000244140625</AltitudeMeters>
            <DistanceMeters>15130.808633748</DistanceMeters>
          </Trackpoint>
          <Trackpoint>
            <Time>2021-08-28T06:00:07.000Z</Time>
            <Position>
              <LatitudeDegrees>38.1051076389849185943603515625</LatitudeDegrees>
              <LongitudeDegrees>-1.8562222458422183990478515625</LongitudeDegrees>
            </Position>
            <AltitudeMeters>627.5999755859375</AltitudeMeters>
            <DistanceMeters>15136.378853013</DistanceMeters>
          </Trackpoint>
          <Trackpoint>
            <Time>2021-08-28T06:00:08.000Z</Time>
            <Position>
              <LatitudeDegrees>38.10506782494485378265380859375</LatitudeDegrees>
              <LongitudeDegrees>-1.8562779016792774200439453125</LongitudeDegrees>
            </Position>
            <AltitudeMeters>628</AltitudeMeters>
            <DistanceMeters>15142.9666104</DistanceMeters>
          </Trackpoint>
          <Trackpoint>
            <Time>2021-08-28T06:00:09.000Z</Time>
            <Position>
              <LatitudeDegrees>38.1050305254757404327392578125</LatitudeDegrees>
              <LongitudeDegrees>-1.85633045621216297149658203125</LongitudeDegrees>
            </Position>
            <AltitudeMeters>628.20001220703125</AltitudeMeters>
            <DistanceMeters>15149.164508849</DistanceMeters>
          </Trackpoint>
          <Trackpoint>
            <Time>2021-08-28T06:00:10.000Z</Time>
            <Position>
              <LatitudeDegrees>38.1049983389675617218017578125</LatitudeDegrees>
              <LongitudeDegrees>-1.8563877046108245849609375</LongitudeDegrees>
            </Position>
            <AltitudeMeters>628.20001220703125</AltitudeMeters>
            <DistanceMeters>15155.326608447</DistanceMeters>
          </Trackpoint>
          <Trackpoint>
            <Time>2021-08-28T06:00:12.000Z</Time>
            <Position>
              <LatitudeDegrees>38.10493044555187225341796875</LatitudeDegrees>
              <LongitudeDegrees>-1.85648233629763126373291015625</LongitudeDegrees>
            </Position>
            <AltitudeMeters>628.4000244140625</AltitudeMeters>
            <DistanceMeters>15166.542176415</DistanceMeters>
          </Trackpoint>
          <Trackpoint>
            <Time>2021-08-28T06:00:14.000Z</Time>
            <Position>
              <LatitudeDegrees>38.10485123656690120697021484375</LatitudeDegrees>
              <LongitudeDegrees>-1.856560371816158294677734375</LongitudeDegrees>
            </Position>
            <AltitudeMeters>628.5999755859375</AltitudeMeters>
            <DistanceMeters>15177.696790856</DistanceMeters>
          </Trackpoint>
          <Trackpoint>
            <Time>2021-08-28T06:00:16.000Z</Time>
            <Position>
              <LatitudeDegrees>38.10477445833384990692138671875</LatitudeDegrees>
              <LongitudeDegrees>-1.85664989054203033447265625</LongitudeDegrees>
            </Position>
            <AltitudeMeters>628.79998779296875</AltitudeMeters>
            <DistanceMeters>15189.293943893</DistanceMeters>
          </Trackpoint>
          <Trackpoint>
            <Time>2021-08-28T06:00:19.000Z</Time>
            <Position>
              <LatitudeDegrees>38.1046610511839389801025390625</LatitudeDegrees>
              <LongitudeDegrees>-1.85676799155771732330322265625</LongitudeDegrees>
            </Position>
            <AltitudeMeters>629.4000244140625</AltitudeMeters>
            <DistanceMeters>15205.612828181</DistanceMeters>
          </Trackpoint>
          <Trackpoint>
            <Time>2021-08-28T06:00:20.000Z</Time>
            <Position>
              <LatitudeDegrees>38.10462743975222110748291015625</LatitudeDegrees>
              <LongitudeDegrees>-1.85681677423417568206787109375</LongitudeDegrees>
            </Position>
            <AltitudeMeters>629.5999755859375</AltitudeMeters>
            <DistanceMeters>15211.292214861</DistanceMeters>
          </Trackpoint>
          <Trackpoint>
            <Time>2021-08-28T06:00:23.000Z</Time>
            <Position>
              <LatitudeDegrees>38.1045255996286869049072265625</LatitudeDegrees>
              <LongitudeDegrees>-1.85695306397974491119384765625</LongitudeDegrees>
            </Position>
            <AltitudeMeters>629.79998779296875</AltitudeMeters>
            <DistanceMeters>15227.752970426</DistanceMeters>
          </Trackpoint>
          <Trackpoint>
            <Time>2021-08-28T06:00:24.000Z</Time>
            <Position>
              <LatitudeDegrees>38.10448947362601757049560546875</LatitudeDegrees>
              <LongitudeDegrees>-1.8569910340011119842529296875</LongitudeDegrees>
            </Position>
            <AltitudeMeters>630</AltitudeMeters>
            <DistanceMeters>15232.970793773</DistanceMeters>
          </Trackpoint>
          <Trackpoint>
            <Time>2021-08-28T06:00:25.000Z</Time>
            <Position>
              <LatitudeDegrees>38.10446231625974178314208984375</LatitudeDegrees>
              <LongitudeDegrees>-1.85704057104885578155517578125</LongitudeDegrees>
            </Position>
            <AltitudeMeters>630.20001220703125</AltitudeMeters>
            <DistanceMeters>15238.258242748</DistanceMeters>
          </Trackpoint>
          <Trackpoint>
            <Time>2021-08-28T06:00:27.000Z</Time>
            <Position>
              <LatitudeDegrees>38.10441537760198116302490234375</LatitudeDegrees>
              <LongitudeDegrees>-1.85712958686053752899169921875</LongitudeDegrees>
            </Position>
            <AltitudeMeters>630.5999755859375</AltitudeMeters>
            <DistanceMeters>15247.643303517</DistanceMeters>
          </Trackpoint>
          <Trackpoint>
            <Time>2021-08-28T06:00:29.000Z</Time>
            <Position>
              <LatitudeDegrees>38.10437531210482120513916015625</LatitudeDegrees>
              <LongitudeDegrees>-1.8572401441633701324462890625</LongitudeDegrees>
            </Position>
            <AltitudeMeters>631</AltitudeMeters>
            <DistanceMeters>15258.303251077</DistanceMeters>
          </Trackpoint>
          <Trackpoint>
            <Time>2021-08-28T06:00:30.000Z</Time>
            <Position>
              <LatitudeDegrees>38.10436273925006389617919921875</LatitudeDegrees>
              <LongitudeDegrees>-1.85729093849658966064453125</LongitudeDegrees>
            </Position>
            <AltitudeMeters>631.20001220703125</AltitudeMeters>
            <DistanceMeters>15262.967310913</DistanceMeters>
          </Trackpoint>
          <Trackpoint>
            <Time>2021-08-28T06:00:34.000Z</Time>
            <Position>
              <LatitudeDegrees>38.1043638288974761962890625</LatitudeDegrees>
              <LongitudeDegrees>-1.85752336867153644561767578125</LongitudeDegrees>
            </Position>
            <AltitudeMeters>632</AltitudeMeters>
            <DistanceMeters>15283.324552824</DistanceMeters>
          </Trackpoint>
          <Trackpoint>
            <Time>2021-08-28T06:00:38.000Z</Time>
            <Position>
              <LatitudeDegrees>38.10437816195189952850341796875</LatitudeDegrees>
              <LongitudeDegrees>-1.8577370233833789825439453125</LongitudeDegrees>
            </Position>
            <AltitudeMeters>632.5999755859375</AltitudeMeters>
            <DistanceMeters>15302.104774488</DistanceMeters>
          </Trackpoint>
          <Trackpoint>
            <Time>2021-08-28T06:00:39.000Z</Time>
            <Position>
              <LatitudeDegrees>38.10437330044806003570556640625</LatitudeDegrees>
              <LongitudeDegrees>-1.85778270475566387176513671875</LongitudeDegrees>
            </Position>
            <AltitudeMeters>632.79998779296875</AltitudeMeters>
            <DistanceMeters>15306.143130349</DistanceMeters>
          </Trackpoint>
          <Trackpoint>
            <Time>2021-08-28T06:00:40.000Z</Time>
            <Position>
              <LatitudeDegrees>38.104371540248394012451171875</LatitudeDegrees>
              <LongitudeDegrees>-1.8578253686428070068359375</LongitudeDegrees>
            </Position>
            <AltitudeMeters>633.20001220703125</AltitudeMeters>
            <DistanceMeters>15309.884335835</DistanceMeters>
          </Trackpoint>
          <Trackpoint>
            <Time>2021-08-28T06:00:43.000Z</Time>
            <Position>
              <LatitudeDegrees>38.1043871305882930755615234375</LatitudeDegrees>
              <LongitudeDegrees>-1.857947409152984619140625</LongitudeDegrees>
            </Position>
            <AltitudeMeters>634</AltitudeMeters>
            <DistanceMeters>15320.713212633</DistanceMeters>
          </Trackpoint>
          <Trackpoint>
            <Time>2021-08-28T06:00:44.000Z</Time>
            <Position>
              <LatitudeDegrees>38.10439023189246654510498046875</LatitudeDegrees>
              <LongitudeDegrees>-1.8579925037920475006103515625</LongitudeDegrees>
            </Position>
            <AltitudeMeters>634.4000244140625</AltitudeMeters>
            <DistanceMeters>15324.679368601</DistanceMeters>
          </Trackpoint>
          <Trackpoint>
            <Time>2021-08-28T06:00:49.000Z</Time>
            <Position>
              <LatitudeDegrees>38.10437631793320178985595703125</LatitudeDegrees>
              <LongitudeDegrees>-1.85830405913293361663818359375</LongitudeDegrees>
            </Position>
            <AltitudeMeters>635.79998779296875</AltitudeMeters>
            <DistanceMeters>15352.010082522</DistanceMeters>
          </Trackpoint>
          <Trackpoint>
            <Time>2021-08-28T06:00:50.000Z</Time>
            <Position>
              <LatitudeDegrees>38.10437858104705810546875</LatitudeDegrees>
              <LongitudeDegrees>-1.85835166834294795989990234375</LongitudeDegrees>
            </Position>
            <AltitudeMeters>635.79998779296875</AltitudeMeters>
            <DistanceMeters>15356.189097698</DistanceMeters>
          </Trackpoint>
          <Trackpoint>
            <Time>2021-08-28T06:00:53.000Z</Time>
            <Position>
              <LatitudeDegrees>38.10433139093220233917236328125</LatitudeDegrees>
              <LongitudeDegrees>-1.85854042880237102508544921875</LongitudeDegrees>
            </Position>
            <AltitudeMeters>636.79998779296875</AltitudeMeters>
            <DistanceMeters>15373.535573054</DistanceMeters>
          </Trackpoint>
          <Trackpoint>
            <Time>2021-08-28T06:00:55.000Z</Time>
            <Position>
              <LatitudeDegrees>38.10434714891016483306884765625</LatitudeDegrees>
              <LongitudeDegrees>-1.858615614473819732666015625</LongitudeDegrees>
            </Position>
            <AltitudeMeters>637.20001220703125</AltitudeMeters>
            <DistanceMeters>15380.351049063</DistanceMeters>
          </Trackpoint>
          <Trackpoint>
            <Time>2021-08-28T06:00:59.000Z</Time>
            <Position>
              <LatitudeDegrees>38.10434530489146709442138671875</LatitudeDegrees>
              <LongitudeDegrees>-1.8587562628090381622314453125</LongitudeDegrees>
            </Position>
            <AltitudeMeters>637.79998779296875</AltitudeMeters>
            <DistanceMeters>15392.671584158</DistanceMeters>
          </Trackpoint>
          <Trackpoint>
            <Time>2021-08-28T06:01:00.000Z</Time>
            <Position>
              <LatitudeDegrees>38.10433507896959781646728515625</LatitudeDegrees>
              <LongitudeDegrees>-1.85880915261805057525634765625</LongitudeDegrees>
            </Position>
            <AltitudeMeters>638.20001220703125</AltitudeMeters>
            <DistanceMeters>15397.44188736</DistanceMeters>
          </Trackpoint>
          <Trackpoint>
            <Time>2021-08-28T06:01:02.000Z</Time>
            <Position>
              <LatitudeDegrees>38.10438235290348529815673828125</LatitudeDegrees>
              <LongitudeDegrees>-1.85894141905009746551513671875</LongitudeDegrees>
            </Position>
            <AltitudeMeters>639</AltitudeMeters>
            <DistanceMeters>15410.16482532</DistanceMeters>
          </Trackpoint>
          <Trackpoint>
            <Time>2021-08-28T06:01:03.000Z</Time>
            <Position>
              <LatitudeDegrees>38.10439442284405231475830078125</LatitudeDegrees>
              <LongitudeDegrees>-1.858983077108860015869140625</LongitudeDegrees>
            </Position>
            <AltitudeMeters>639.20001220703125</AltitudeMeters>
            <DistanceMeters>15414.05280011</DistanceMeters>
          </Trackpoint>
          <Trackpoint>
            <Time>2021-08-28T06:01:06.000Z</Time>
            <Position>
              <LatitudeDegrees>38.10435536317527294158935546875</LatitudeDegrees>
              <LongitudeDegrees>-1.85913168825209140777587890625</LongitudeDegrees>
            </Position>
            <AltitudeMeters>639.4000244140625</AltitudeMeters>
            <DistanceMeters>15427.774868249</DistanceMeters>
          </Trackpoint>
          <Trackpoint>
            <Time>2021-08-28T06:01:07.000Z</Time>
            <Position>
              <LatitudeDegrees>38.104345388710498809814453125</LatitudeDegrees>
              <LongitudeDegrees>-1.85915750451385974884033203125</LongitudeDegrees>
            </Position>
            <AltitudeMeters>639.4000244140625</AltitudeMeters>
            <DistanceMeters>15430.2926279</DistanceMeters>
          </Trackpoint>
          <Trackpoint>
            <Time>2021-08-28T06:01:10.000Z</Time>
            <Position>
              <LatitudeDegrees>38.10436248779296875</LatitudeDegrees>
              <LongitudeDegrees>-1.8592504598200321197509765625</LongitudeDegrees>
            </Position>
            <AltitudeMeters>639.79998779296875</AltitudeMeters>
            <DistanceMeters>15438.652818788</DistanceMeters>
          </Trackpoint>
          <Trackpoint>
            <Time>2021-08-28T06:01:11.000Z</Time>
            <Position>
              <LatitudeDegrees>38.1043914891779422760009765625</LatitudeDegrees>
              <LongitudeDegrees>-1.85927082784473896026611328125</LongitudeDegrees>
            </Position>
            <AltitudeMeters>640.20001220703125</AltitudeMeters>
            <DistanceMeters>15442.339316455</DistanceMeters>
          </Trackpoint>
          <Trackpoint>
            <Time>2021-08-28T06:01:13.000Z</Time>
            <Position>
              <LatitudeDegrees>38.104332983493804931640625</LatitudeDegrees>
              <LongitudeDegrees>-1.859359256923198699951171875</LongitudeDegrees>
            </Position>
            <AltitudeMeters>640.79998779296875</AltitudeMeters>
            <DistanceMeters>15452.457765285</DistanceMeters>
          </Trackpoint>
          <Trackpoint>
            <Time>2021-08-28T06:01:14.000Z</Time>
            <Position>
              <LatitudeDegrees>38.10432250611484050750732421875</LatitudeDegrees>
              <LongitudeDegrees>-1.85939454473555088043212890625</LongitudeDegrees>
            </Position>
            <AltitudeMeters>641.20001220703125</AltitudeMeters>
            <DistanceMeters>15455.761908505</DistanceMeters>
          </Trackpoint>
          <Trackpoint>
            <Time>2021-08-28T06:01:15.000Z</Time>
            <Position>
              <LatitudeDegrees>38.1043227575719356536865234375</LatitudeDegrees>
              <LongitudeDegrees>-1.8594455905258655548095703125</LongitudeDegrees>
            </Position>
            <AltitudeMeters>641.20001220703125</AltitudeMeters>
            <DistanceMeters>15460.233215836</DistanceMeters>
          </Trackpoint>
          <Trackpoint>
            <Time>2021-08-28T06:01:16.000Z</Time>
            <Position>
              <LatitudeDegrees>38.10435117222368717193603515625</LatitudeDegrees>
              <LongitudeDegrees>-1.85948825441300868988037109375</LongitudeDegrees>
            </Position>
            <AltitudeMeters>641.5999755859375</AltitudeMeters>
            <DistanceMeters>15465.128705891</DistanceMeters>
          </Trackpoint>
          <Trackpoint>
            <Time>2021-08-28T06:01:18.000Z</Time>
            <Position>
              <LatitudeDegrees>38.104372881352901458740234375</LatitudeDegrees>
              <LongitudeDegrees>-1.85958833433687686920166015625</LongitudeDegrees>
            </Position>
            <AltitudeMeters>642.20001220703125</AltitudeMeters>
            <DistanceMeters>15474.221029568</DistanceMeters>
          </Trackpoint>
          <Trackpoint>
            <Time>2021-08-28T06:01:19.000Z</Time>
            <Position>
              <LatitudeDegrees>38.10438620857894420623779296875</LatitudeDegrees>
              <LongitudeDegrees>-1.8596252985298633575439453125</LongitudeDegrees>
            </Position>
            <AltitudeMeters>642.4000244140625</AltitudeMeters>
            <DistanceMeters>15477.781679414</DistanceMeters>
          </Trackpoint>
          <Trackpoint>
            <Time>2021-08-28T06:01:20.000Z</Time>
            <Position>
              <LatitudeDegrees>38.10435787774622440338134765625</LatitudeDegrees>
              <LongitudeDegrees>-1.859693191945552825927734375</LongitudeDegrees>
            </Position>
            <AltitudeMeters>642.4000244140625</AltitudeMeters>
            <DistanceMeters>15484.511825285</DistanceMeters>
          </Trackpoint>
          <Trackpoint>
            <Time>2021-08-28T06:01:21.000Z</Time>
            <Position>
              <LatitudeDegrees>38.1043492443859577178955078125</LatitudeDegrees>
              <LongitudeDegrees>-1.8597382865846157073974609375</LongitudeDegrees>
            </Position>
            <AltitudeMeters>642.5999755859375</AltitudeMeters>
            <DistanceMeters>15488.576925517</DistanceMeters>
          </Trackpoint>
          <Trackpoint>
            <Time>2021-08-28T06:01:24.000Z</Time>
            <Position>
              <LatitudeDegrees>38.10436273925006389617919921875</LatitudeDegrees>
              <LongitudeDegrees>-1.8598274700343608856201171875</LongitudeDegrees>
            </Position>
            <AltitudeMeters>643.4000244140625</AltitudeMeters>
            <DistanceMeters>15496.530837483</DistanceMeters>
          </Trackpoint>
          <Trackpoint>
            <Time>2021-08-28T06:01:25.000Z</Time>
            <Position>
              <LatitudeDegrees>38.10437246225774288177490234375</LatitudeDegrees>
              <LongitudeDegrees>-1.8598603270947933197021484375</LongitudeDegrees>
            </Position>
            <AltitudeMeters>643.5999755859375</AltitudeMeters>
            <DistanceMeters>15499.604184186</DistanceMeters>
          </Trackpoint>
          <Trackpoint>
            <Time>2021-08-28T06:01:28.000Z</Time>
            <Position>
              <LatitudeDegrees>38.10438889078795909881591796875</LatitudeDegrees>
              <LongitudeDegrees>-1.85995705425739288330078125</LongitudeDegrees>
            </Position>
            <AltitudeMeters>643.79998779296875</AltitudeMeters>
            <DistanceMeters>15508.269870294</DistanceMeters>
          </Trackpoint>
          <Trackpoint>
            <Time>2021-08-28T06:01:30.000Z</Time>
            <Position>
              <LatitudeDegrees>38.104441277682781219482421875</LatitudeDegrees>
              <LongitudeDegrees>-1.86002033762633800506591796875</LongitudeDegrees>
            </Position>
            <AltitudeMeters>644.4000244140625</AltitudeMeters>
            <DistanceMeters>15516.31409355</DistanceMeters>
          </Trackpoint>
          <Trackpoint>
            <Time>2021-08-28T06:01:31.000Z</Time>
            <Position>
              <LatitudeDegrees>38.10444672591984272003173828125</LatitudeDegrees>
              <LongitudeDegrees>-1.86005889438092708587646484375</LongitudeDegrees>
            </Position>
            <AltitudeMeters>644.5999755859375</AltitudeMeters>
            <DistanceMeters>15519.745597547</DistanceMeters>
          </Trackpoint>
          <Trackpoint>
            <Time>2021-08-28T06:01:34.000Z</Time>
            <Position>
              <LatitudeDegrees>38.10441185720264911651611328125</LatitudeDegrees>
              <LongitudeDegrees>-1.86022385023534297943115234375</LongitudeDegrees>
            </Position>
            <AltitudeMeters>644.79998779296875</AltitudeMeters>
            <DistanceMeters>15534.704987723</DistanceMeters>
          </Trackpoint>
          <Trackpoint>
            <Time>2021-08-28T06:01:35.000Z</Time>
            <Position>
              <LatitudeDegrees>38.1044067442417144775390625</LatitudeDegrees>
              <LongitudeDegrees>-1.86024866066873073577880859375</LongitudeDegrees>
            </Position>
            <AltitudeMeters>645</AltitudeMeters>
            <DistanceMeters>15536.951721515</DistanceMeters>
          </Trackpoint>
          <Trackpoint>
            <Time>2021-08-28T06:02:00.000Z</Time>
            <Position>
              <LatitudeDegrees>38.1042131222784519195556640625</LatitudeDegrees>
              <LongitudeDegrees>-1.86069340445101261138916015625</LongitudeDegrees>
            </Position>
            <AltitudeMeters>645.20001220703125</AltitudeMeters>
            <DistanceMeters>15581.467452169</DistanceMeters>
          </Trackpoint>
          <Trackpoint>
            <Time>2021-08-28T06:02:01.000Z</Time>
            <Position>
              <LatitudeDegrees>38.1042241863906383514404296875</LatitudeDegrees>
              <LongitudeDegrees>-1.86070480383932590484619140625</LongitudeDegrees>
            </Position>
            <AltitudeMeters>645.20001220703125</AltitudeMeters>
            <DistanceMeters>15583.051864126</DistanceMeters>
          </Trackpoint>
          <Trackpoint>
            <Time>2021-08-28T06:02:02.000Z</Time>
            <Position>
              <LatitudeDegrees>38.1042359210550785064697265625</LatitudeDegrees>
              <LongitudeDegrees>-1.860735900700092315673828125</LongitudeDegrees>
            </Position>
            <AltitudeMeters>645.20001220703125</AltitudeMeters>
            <DistanceMeters>15586.071860353</DistanceMeters>
          </Trackpoint>
          <Trackpoint>
            <Time>2021-08-28T06:02:03.000Z</Time>
            <Position>
              <LatitudeDegrees>38.10425008647143840789794921875</LatitudeDegrees>
              <LongitudeDegrees>-1.86076515354216098785400390625</LongitudeDegrees>
            </Position>
            <AltitudeMeters>645.20001220703125</AltitudeMeters>
            <DistanceMeters>15589.07987242</DistanceMeters>
          </Trackpoint>
          <Trackpoint>
            <Time>2021-08-28T06:02:06.000Z</Time>
            <Position>
              <LatitudeDegrees>38.10425260104238986968994140625</LatitudeDegrees>
              <LongitudeDegrees>-1.860860623419284820556640625</LongitudeDegrees>
            </Position>
            <AltitudeMeters>645.5999755859375</AltitudeMeters>
            <DistanceMeters>15597.446001903</DistanceMeters>
          </Trackpoint>
          <Trackpoint>
            <Time>2021-08-28T06:02:07.000Z</Time>
            <Position>
              <LatitudeDegrees>38.10422234237194061279296875</LatitudeDegrees>
              <LongitudeDegrees>-1.8608597852289676666259765625</LongitudeDegrees>
            </Position>
            <AltitudeMeters>646</AltitudeMeters>
            <DistanceMeters>15600.81509764</DistanceMeters>
          </Trackpoint>
          <Trackpoint>
            <Time>2021-08-28T06:02:08.000Z</Time>
            <Position>
              <LatitudeDegrees>38.10420490801334381103515625</LatitudeDegrees>
              <LongitudeDegrees>-1.86087931506335735321044921875</LongitudeDegrees>
            </Position>
            <AltitudeMeters>646.20001220703125</AltitudeMeters>
            <DistanceMeters>15603.401849782</DistanceMeters>
          </Trackpoint>
          <Trackpoint>
            <Time>2021-08-28T06:02:10.000Z</Time>
            <Position>
              <LatitudeDegrees>38.1042230129241943359375</LatitudeDegrees>
              <LongitudeDegrees>-1.86093203723430633544921875</LongitudeDegrees>
            </Position>
            <AltitudeMeters>646.4000244140625</AltitudeMeters>
            <DistanceMeters>15608.440954362</DistanceMeters>
          </Trackpoint>
          <Trackpoint>
            <Time>2021-08-28T06:02:12.000Z</Time>
            <Position>
              <LatitudeDegrees>38.1042362563312053680419921875</LatitudeDegrees>
              <LongitudeDegrees>-1.86099247075617313385009765625</LongitudeDegrees>
            </Position>
            <AltitudeMeters>646.79998779296875</AltitudeMeters>
            <DistanceMeters>15613.934451925</DistanceMeters>
          </Trackpoint>
          <Trackpoint>
            <Time>2021-08-28T06:02:17.000Z</Time>
            <Position>
              <LatitudeDegrees>38.104331307113170623779296875</LatitudeDegrees>
              <LongitudeDegrees>-1.86124577187001705169677734375</LongitudeDegrees>
            </Position>
            <AltitudeMeters>647.5999755859375</AltitudeMeters>
            <DistanceMeters>15638.512593105</DistanceMeters>
          </Trackpoint>
          <Trackpoint>
            <Time>2021-08-28T06:02:18.000Z</Time>
            <Position>
              <LatitudeDegrees>38.10435620136559009552001953125</LatitudeDegrees>
              <LongitudeDegrees>-1.861294470727443695068359375</LongitudeDegrees>
            </Position>
            <AltitudeMeters>648</AltitudeMeters>
            <DistanceMeters>15643.598964013</DistanceMeters>
          </Trackpoint>
          <Trackpoint>
            <Time>2021-08-28T06:02:20.000Z</Time>
            <Position>
              <LatitudeDegrees>38.1044025532901287078857421875</LatitudeDegrees>
              <LongitudeDegrees>-1.86139203608036041259765625</LongitudeDegrees>
            </Position>
            <AltitudeMeters>648.5999755859375</AltitudeMeters>
            <DistanceMeters>15653.579936076</DistanceMeters>
          </Trackpoint>
          <Trackpoint>
            <Time>2021-08-28T06:02:22.000Z</Time>
            <Position>
              <LatitudeDegrees>38.1043767370283603668212890625</LatitudeDegrees>
              <LongitudeDegrees>-1.86152824200689792633056640625</LongitudeDegrees>
            </Position>
            <AltitudeMeters>649</AltitudeMeters>
            <DistanceMeters>15665.850162828</DistanceMeters>
          </Trackpoint>
          <Trackpoint>
            <Time>2021-08-28T06:02:23.000Z</Time>
            <Position>
              <LatitudeDegrees>38.104382939636707305908203125</LatitudeDegrees>
              <LongitudeDegrees>-1.86157953925430774688720703125</LongitudeDegrees>
            </Position>
            <AltitudeMeters>649</AltitudeMeters>
            <DistanceMeters>15670.394586315</DistanceMeters>
          </Trackpoint>
          <Trackpoint>
            <Time>2021-08-28T06:02:27.000Z</Time>
            <Position>
              <LatitudeDegrees>38.1044377572834491729736328125</LatitudeDegrees>
              <LongitudeDegrees>-1.86178657226264476776123046875</LongitudeDegrees>
            </Position>
            <AltitudeMeters>650.20001220703125</AltitudeMeters>
            <DistanceMeters>15689.525897259</DistanceMeters>
          </Trackpoint>
          <Trackpoint>
            <Time>2021-08-28T06:02:28.000Z</Time>
            <Position>
              <LatitudeDegrees>38.10444136150181293487548828125</LatitudeDegrees>
              <LongitudeDegrees>-1.861841976642608642578125</LongitudeDegrees>
            </Position>
            <AltitudeMeters>650.5999755859375</AltitudeMeters>
            <DistanceMeters>15694.393640123</DistanceMeters>
          </Trackpoint>
          <Trackpoint>
            <Time>2021-08-28T06:02:30.000Z</Time>
            <Position>
              <LatitudeDegrees>38.10446818359196186065673828125</LatitudeDegrees>
              <LongitudeDegrees>-1.861945576965808868408203125</LongitudeDegrees>
            </Position>
            <AltitudeMeters>650.79998779296875</AltitudeMeters>
            <DistanceMeters>15703.945597639</DistanceMeters>
          </Trackpoint>
          <Trackpoint>
            <Time>2021-08-28T06:02:32.000Z</Time>
            <Position>
              <LatitudeDegrees>38.104482181370258331298828125</LatitudeDegrees>
              <LongitudeDegrees>-1.8620513565838336944580078125</LongitudeDegrees>
            </Position>
            <AltitudeMeters>651.79998779296875</AltitudeMeters>
            <DistanceMeters>15713.340275236</DistanceMeters>
          </Trackpoint>
          <Trackpoint>
            <Time>2021-08-28T06:02:33.000Z</Time>
            <Position>
              <LatitudeDegrees>38.1044702790677547454833984375</LatitudeDegrees>
              <LongitudeDegrees>-1.86211363412439823150634765625</LongitudeDegrees>
            </Position>
            <AltitudeMeters>652</AltitudeMeters>
            <DistanceMeters>15718.952485731</DistanceMeters>
          </Trackpoint>
          <Trackpoint>
            <Time>2021-08-28T06:02:35.000Z</Time>
            <Position>
              <LatitudeDegrees>38.10449232347309589385986328125</LatitudeDegrees>
              <LongitudeDegrees>-1.8622159771621227264404296875</LongitudeDegrees>
            </Position>
            <AltitudeMeters>652.4000244140625</AltitudeMeters>
            <DistanceMeters>15728.244718561</DistanceMeters>
          </Trackpoint>
          <Trackpoint>
            <Time>2021-08-28T06:02:38.000Z</Time>
            <Position>
              <LatitudeDegrees>38.1045115180313587188720703125</LatitudeDegrees>
              <LongitudeDegrees>-1.86236576177179813385009765625</LongitudeDegrees>
            </Position>
            <AltitudeMeters>652.4000244140625</AltitudeMeters>
            <DistanceMeters>15741.536235237</DistanceMeters>
          </Trackpoint>
          <Trackpoint>
            <Time>2021-08-28T06:02:40.000Z</Time>
            <Position>
              <LatitudeDegrees>38.1045175530016422271728515625</LatitudeDegrees>
              <LongitudeDegrees>-1.8624600581824779510498046875</LongitudeDegrees>
            </Position>
            <AltitudeMeters>652.4000244140625</AltitudeMeters>
            <DistanceMeters>15749.82265191</DistanceMeters>
          </Trackpoint>
          <Trackpoint>
            <Time>2021-08-28T06:02:43.000Z</Time>
            <Position>
              <LatitudeDegrees>38.10451663099229335784912109375</LatitudeDegrees>
              <LongitudeDegrees>-1.86259961687028408050537109375</LongitudeDegrees>
            </Position>
            <AltitudeMeters>652.4000244140625</AltitudeMeters>
            <DistanceMeters>15762.045688143</DistanceMeters>
          </Trackpoint>
          <Trackpoint>
            <Time>2021-08-28T06:02:47.000Z</Time>
            <Position>
              <LatitudeDegrees>38.10453993268311023712158203125</LatitudeDegrees>
              <LongitudeDegrees>-1.86280229128897190093994140625</LongitudeDegrees>
            </Position>
            <AltitudeMeters>652.5999755859375</AltitudeMeters>
            <DistanceMeters>15779.98485937</DistanceMeters>
          </Trackpoint>
          <Trackpoint>
            <Time>2021-08-28T06:02:49.000Z</Time>
            <Position>
              <LatitudeDegrees>38.10455183498561382293701171875</LatitudeDegrees>
              <LongitudeDegrees>-1.8629296123981475830078125</LongitudeDegrees>
            </Position>
            <AltitudeMeters>652.79998779296875</AltitudeMeters>
            <DistanceMeters>15791.214508409</DistanceMeters>
          </Trackpoint>
          <Trackpoint>
            <Time>2021-08-28T06:02:50.000Z</Time>
            <Position>
              <LatitudeDegrees>38.10456055216491222381591796875</LatitudeDegrees>
              <LongitudeDegrees>-1.862997002899646759033203125</LongitudeDegrees>
            </Position>
            <AltitudeMeters>652.79998779296875</AltitudeMeters>
            <DistanceMeters>15797.196664621</DistanceMeters>
          </Trackpoint>
          <Trackpoint>
            <Time>2021-08-28T06:02:55.000Z</Time>
            <Position>
              <LatitudeDegrees>38.10461889021098613739013671875</LatitudeDegrees>
              <LongitudeDegrees>-1.8633311055600643157958984375</LongitudeDegrees>
            </Position>
            <AltitudeMeters>653.20001220703125</AltitudeMeters>
            <DistanceMeters>15827.169873915</DistanceMeters>
          </Trackpoint>
          <Trackpoint>
            <Time>2021-08-28T06:03:00.000Z</Time>
            <Position>
              <LatitudeDegrees>38.10469130985438823699951171875</LatitudeDegrees>
              <LongitudeDegrees>-1.86363914050161838531494140625</LongitudeDegrees>
            </Position>
            <AltitudeMeters>653.5999755859375</AltitudeMeters>
            <DistanceMeters>15855.326339093</DistanceMeters>
          </Trackpoint>
          <Trackpoint>
            <Time>2021-08-28T06:03:02.000Z</Time>
            <Position>
              <LatitudeDegrees>38.10471880249679088592529296875</LatitudeDegrees>
              <LongitudeDegrees>-1.86377040110528469085693359375</LongitudeDegrees>
            </Position>
            <AltitudeMeters>653.4000244140625</AltitudeMeters>
            <DistanceMeters>15867.222529997</DistanceMeters>
          </Trackpoint>
          <Trackpoint>
            <Time>2021-08-28T06:03:03.000Z</Time>
            <Position>
              <LatitudeDegrees>38.1047354824841022491455078125</LatitudeDegrees>
              <LongitudeDegrees>-1.86383343301713466644287109375</LongitudeDegrees>
            </Position>
            <AltitudeMeters>653.4000244140625</AltitudeMeters>
            <DistanceMeters>15873.047132747</DistanceMeters>
          </Trackpoint>
          <Trackpoint>
            <Time>2021-08-28T06:03:08.000Z</Time>
            <Position>
              <LatitudeDegrees>38.10479289852082729339599609375</LatitudeDegrees>
              <LongitudeDegrees>-1.8641634285449981689453125</LongitudeDegrees>
            </Position>
            <AltitudeMeters>653.79998779296875</AltitudeMeters>
            <DistanceMeters>15902.646695867</DistanceMeters>
          </Trackpoint>
          <Trackpoint>
            <Time>2021-08-28T06:03:09.000Z</Time>
            <Position>
              <LatitudeDegrees>38.10480580665171146392822265625</LatitudeDegrees>
              <LongitudeDegrees>-1.864219419658184051513671875</LongitudeDegrees>
            </Position>
            <AltitudeMeters>654</AltitudeMeters>
            <DistanceMeters>15907.756094169</DistanceMeters>
          </Trackpoint>
          <Trackpoint>
            <Time>2021-08-28T06:03:10.000Z</Time>
            <Position>
              <LatitudeDegrees>38.10481645166873931884765625</LatitudeDegrees>
              <LongitudeDegrees>-1.86428270302712917327880859375</LongitudeDegrees>
            </Position>
            <AltitudeMeters>654</AltitudeMeters>
            <DistanceMeters>15913.424340104</DistanceMeters>
          </Trackpoint>
          <Trackpoint>
            <Time>2021-08-28T06:03:11.000Z</Time>
            <Position>
              <LatitudeDegrees>38.10482055880129337310791015625</LatitudeDegrees>
              <LongitudeDegrees>-1.86434674076735973358154296875</LongitudeDegrees>
            </Position>
            <AltitudeMeters>654.20001220703125</AltitudeMeters>
            <DistanceMeters>15919.052617653</DistanceMeters>
          </Trackpoint>
          <Trackpoint>
            <Time>2021-08-28T06:03:14.000Z</Time>
            <Position>
              <LatitudeDegrees>38.10486498288810253143310546875</LatitudeDegrees>
              <LongitudeDegrees>-1.86452561058104038238525390625</LongitudeDegrees>
            </Position>
            <AltitudeMeters>654.20001220703125</AltitudeMeters>
            <DistanceMeters>15935.479875624</DistanceMeters>
          </Trackpoint>
          <Trackpoint>
            <Time>2021-08-28T06:03:16.000Z</Time>
            <Position>
              <LatitudeDegrees>38.1048816628754138946533203125</LatitudeDegrees>
              <LongitudeDegrees>-1.86466357670724391937255859375</LongitudeDegrees>
            </Position>
            <AltitudeMeters>654.4000244140625</AltitudeMeters>
            <DistanceMeters>15947.705127982</DistanceMeters>
          </Trackpoint>
          <Trackpoint>
            <Time>2021-08-28T06:03:17.000Z</Time>
            <Position>
              <LatitudeDegrees>38.1048920564353466033935546875</LatitudeDegrees>
              <LongitudeDegrees>-1.8647328950464725494384765625</LongitudeDegrees>
            </Position>
            <AltitudeMeters>654.4000244140625</AltitudeMeters>
            <DistanceMeters>15953.885518209</DistanceMeters>
          </Trackpoint>
          <Trackpoint>
            <Time>2021-08-28T06:03:18.000Z</Time>
            <Position>
              <LatitudeDegrees>38.10489364899694919586181640625</LatitudeDegrees>
              <LongitudeDegrees>-1.86479617841541767120361328125</LongitudeDegrees>
            </Position>
            <AltitudeMeters>654.4000244140625</AltitudeMeters>
            <DistanceMeters>15959.430552952</DistanceMeters>
          </Trackpoint>
          <Trackpoint>
            <Time>2021-08-28T06:03:20.000Z</Time>
            <Position>
              <LatitudeDegrees>38.1049047969281673431396484375</LatitudeDegrees>
              <LongitudeDegrees>-1.8649226613342761993408203125</LongitudeDegrees>
            </Position>
            <AltitudeMeters>654.4000244140625</AltitudeMeters>
            <DistanceMeters>15970.577474135</DistanceMeters>
          </Trackpoint>
          <Trackpoint>
            <Time>2021-08-28T06:03:22.000Z</Time>
            <Position>
              <LatitudeDegrees>38.10489096678793430328369140625</LatitudeDegrees>
              <LongitudeDegrees>-1.86509323306381702423095703125</LongitudeDegrees>
            </Position>
            <AltitudeMeters>654.4000244140625</AltitudeMeters>
            <DistanceMeters>15985.595303181</DistanceMeters>
          </Trackpoint>
          <Trackpoint>
            <Time>2021-08-28T06:03:24.000Z</Time>
            <Position>
              <LatitudeDegrees>38.1049326248466968536376953125</LatitudeDegrees>
              <LongitudeDegrees>-1.86525441706180572509765625</LongitudeDegrees>
            </Position>
            <AltitudeMeters>654.4000244140625</AltitudeMeters>
            <DistanceMeters>16000.454151355</DistanceMeters>
          </Trackpoint>
          <Trackpoint>
            <Time>2021-08-28T06:03:26.000Z</Time>
            <Position>
              <LatitudeDegrees>38.10501418076455593109130859375</LatitudeDegrees>
              <LongitudeDegrees>-1.86537335626780986785888671875</LongitudeDegrees>
            </Position>
            <AltitudeMeters>654</AltitudeMeters>
            <DistanceMeters>16014.270656558</DistanceMeters>
          </Trackpoint>
          <Trackpoint>
            <Time>2021-08-28T06:03:30.000Z</Time>
            <Position>
              <LatitudeDegrees>38.10522146522998809814453125</LatitudeDegrees>
              <LongitudeDegrees>-1.86555021442472934722900390625</LongitudeDegrees>
            </Position>
            <AltitudeMeters>654</AltitudeMeters>
            <DistanceMeters>16042.059106623</DistanceMeters>
          </Trackpoint>
          <Trackpoint>
            <Time>2021-08-28T06:03:33.000Z</Time>
            <Position>
              <LatitudeDegrees>38.10537359677255153656005859375</LatitudeDegrees>
              <LongitudeDegrees>-1.86566068790853023529052734375</LongitudeDegrees>
            </Position>
            <AltitudeMeters>654.5999755859375</AltitudeMeters>
            <DistanceMeters>16061.56089448</DistanceMeters>
          </Trackpoint>
          <Trackpoint>
            <Time>2021-08-28T06:03:34.000Z</Time>
            <Position>
              <LatitudeDegrees>38.10542589984834194183349609375</LatitudeDegrees>
              <LongitudeDegrees>-1.86568901874125003814697265625</LongitudeDegrees>
            </Position>
            <AltitudeMeters>654.5999755859375</AltitudeMeters>
            <DistanceMeters>16067.888560633</DistanceMeters>
          </Trackpoint>
          <Trackpoint>
            <Time>2021-08-28T06:03:36.000Z</Time>
            <Position>
              <LatitudeDegrees>38.10554425232112407684326171875</LatitudeDegrees>
              <LongitudeDegrees>-1.86571818776428699493408203125</LongitudeDegrees>
            </Position>
            <AltitudeMeters>654.5999755859375</AltitudeMeters>
            <DistanceMeters>16081.306521139</DistanceMeters>
          </Trackpoint>
          <Trackpoint>
            <Time>2021-08-28T06:03:37.000Z</Time>
            <Position>
              <LatitudeDegrees>38.10560627840459346771240234375</LatitudeDegrees>
              <LongitudeDegrees>-1.8657246418297290802001953125</LongitudeDegrees>
            </Position>
            <AltitudeMeters>654.5999755859375</AltitudeMeters>
            <DistanceMeters>16088.232397695</DistanceMeters>
          </Trackpoint>
          <Trackpoint>
            <Time>2021-08-28T06:03:40.000Z</Time>
            <Position>
              <LatitudeDegrees>38.10579411685466766357421875</LatitudeDegrees>
              <LongitudeDegrees>-1.86574601568281650543212890625</LongitudeDegrees>
            </Position>
            <AltitudeMeters>654.79998779296875</AltitudeMeters>
            <DistanceMeters>16109.222979391</DistanceMeters>
          </Trackpoint>
          <Trackpoint>
            <Time>2021-08-28T06:03:42.000Z</Time>
            <Position>
              <LatitudeDegrees>38.10591640882194042205810546875</LatitudeDegrees>
              <LongitudeDegrees>-1.86575925908982753753662109375</LongitudeDegrees>
            </Position>
            <AltitudeMeters>655</AltitudeMeters>
            <DistanceMeters>16122.883709964</DistanceMeters>
          </Trackpoint>
          <Trackpoint>
            <Time>2021-08-28T06:03:45.000Z</Time>
            <Position>
              <LatitudeDegrees>38.1060936860740184783935546875</LatitudeDegrees>
              <LongitudeDegrees>-1.8657745979726314544677734375</LongitudeDegrees>
            </Position>
            <AltitudeMeters>655.20001220703125</AltitudeMeters>
            <DistanceMeters>16142.660913032</DistanceMeters>
          </Trackpoint>
          <Trackpoint>
            <Time>2021-08-28T06:03:50.000Z</Time>
            <Position>
              <LatitudeDegrees>38.10639333911240100860595703125</LatitudeDegrees>
              <LongitudeDegrees>-1.8658054433763027191162109375</LongitudeDegrees>
            </Position>
            <AltitudeMeters>656</AltitudeMeters>
            <DistanceMeters>16176.122192721</DistanceMeters>
          </Trackpoint>
          <Trackpoint>
            <Time>2021-08-28T06:03:53.000Z</Time>
            <Position>
              <LatitudeDegrees>38.10656416229903697967529296875</LatitudeDegrees>
              <LongitudeDegrees>-1.865821368992328643798828125</LongitudeDegrees>
            </Position>
            <AltitudeMeters>656.4000244140625</AltitudeMeters>
            <DistanceMeters>16195.186361119</DistanceMeters>
          </Trackpoint>
          <Trackpoint>
            <Time>2021-08-28T06:03:58.000Z</Time>
            <Position>
              <LatitudeDegrees>38.1068493984639644622802734375</LatitudeDegrees>
              <LongitudeDegrees>-1.86583352275192737579345703125</LongitudeDegrees>
            </Position>
            <AltitudeMeters>657.20001220703125</AltitudeMeters>
            <DistanceMeters>16226.951732233</DistanceMeters>
          </Trackpoint>
          <Trackpoint>
            <Time>2021-08-28T06:03:59.000Z</Time>
            <Position>
              <LatitudeDegrees>38.10690681450068950653076171875</LatitudeDegrees>
              <LongitudeDegrees>-1.86584047973155975341796875</LongitudeDegrees>
            </Position>
            <AltitudeMeters>657.4000244140625</AltitudeMeters>
            <DistanceMeters>16233.371488373</DistanceMeters>
          </Trackpoint>
          <Trackpoint>
            <Time>2021-08-28T06:04:00.000Z</Time>
            <Position>
              <LatitudeDegrees>38.10696632601320743560791015625</LatitudeDegrees>
              <LongitudeDegrees>-1.86584576033055782318115234375</LongitudeDegrees>
            </Position>
            <AltitudeMeters>657.79998779296875</AltitudeMeters>
            <DistanceMeters>16240.011129417</DistanceMeters>
          </Trackpoint>
          <Trackpoint>
            <Time>2021-08-28T06:04:02.000Z</Time>
            <Position>
              <LatitudeDegrees>38.10708065517246723175048828125</LatitudeDegrees>
              <LongitudeDegrees>-1.86585984192788600921630859375</LongitudeDegrees>
            </Position>
            <AltitudeMeters>658.20001220703125</AltitudeMeters>
            <DistanceMeters>16252.795666313</DistanceMeters>
          </Trackpoint>
          <Trackpoint>
            <Time>2021-08-28T06:04:05.000Z</Time>
            <Position>
              <LatitudeDegrees>38.10723437927663326263427734375</LatitudeDegrees>
              <LongitudeDegrees>-1.865849196910858154296875</LongitudeDegrees>
            </Position>
            <AltitudeMeters>659</AltitudeMeters>
            <DistanceMeters>16269.930540269</DistanceMeters>
          </Trackpoint>
          <Trackpoint>
            <Time>2021-08-28T06:04:09.000Z</Time>
            <Position>
              <LatitudeDegrees>38.1074502132833003997802734375</LatitudeDegrees>
              <LongitudeDegrees>-1.865862943232059478759765625</LongitudeDegrees>
            </Position>
            <AltitudeMeters>659.4000244140625</AltitudeMeters>
            <DistanceMeters>16293.983376643</DistanceMeters>
          </Trackpoint>
          <Trackpoint>
            <Time>2021-08-28T06:04:10.000Z</Time>
            <Position>
              <LatitudeDegrees>38.10750561766326427459716796875</LatitudeDegrees>
              <LongitudeDegrees>-1.86586470343172550201416015625</LongitudeDegrees>
            </Position>
            <AltitudeMeters>659.5999755859375</AltitudeMeters>
            <DistanceMeters>16300.152067114</DistanceMeters>
          </Trackpoint>
          <Trackpoint>
            <Time>2021-08-28T06:04:11.000Z</Time>
            <Position>
              <LatitudeDegrees>38.10756429098546504974365234375</LatitudeDegrees>
              <LongitudeDegrees>-1.86586068011820316314697265625</LongitudeDegrees>
            </Position>
            <AltitudeMeters>660</AltitudeMeters>
            <DistanceMeters>16306.692363141</DistanceMeters>
          </Trackpoint>
          <Trackpoint>
            <Time>2021-08-28T06:04:16.000Z</Time>
            <Position>
              <LatitudeDegrees>38.107842989265918731689453125</LatitudeDegrees>
              <LongitudeDegrees>-1.86586738564074039459228515625</LongitudeDegrees>
            </Position>
            <AltitudeMeters>660.4000244140625</AltitudeMeters>
            <DistanceMeters>16337.717675849</DistanceMeters>
          </Trackpoint>
          <Trackpoint>
            <Time>2021-08-28T06:04:17.000Z</Time>
            <Position>
              <LatitudeDegrees>38.1078954599797725677490234375</LatitudeDegrees>
              <LongitudeDegrees>-1.86587409116327762603759765625</LongitudeDegrees>
            </Position>
            <AltitudeMeters>660.4000244140625</AltitudeMeters>
            <DistanceMeters>16343.586296773</DistanceMeters>
          </Trackpoint>
          <Trackpoint>
            <Time>2021-08-28T06:04:20.000Z</Time>
            <Position>
              <LatitudeDegrees>38.1080493517220020294189453125</LatitudeDegrees>
              <LongitudeDegrees>-1.86589772813022136688232421875</LongitudeDegrees>
            </Position>
            <AltitudeMeters>660.79998779296875</AltitudeMeters>
            <DistanceMeters>16360.839076544</DistanceMeters>
          </Trackpoint>
          <Trackpoint>
            <Time>2021-08-28T06:04:24.000Z</Time>
            <Position>
              <LatitudeDegrees>38.108245320618152618408203125</LatitudeDegrees>
              <LongitudeDegrees>-1.86590979807078838348388671875</LongitudeDegrees>
            </Position>
            <AltitudeMeters>661.4000244140625</AltitudeMeters>
            <DistanceMeters>16382.676413995</DistanceMeters>
          </Trackpoint>
          <Trackpoint>
            <Time>2021-08-28T06:04:25.000Z</Time>
            <Position>
              <LatitudeDegrees>38.10828815214335918426513671875</LatitudeDegrees>
              <LongitudeDegrees>-1.86590694822371006011962890625</LongitudeDegrees>
            </Position>
            <AltitudeMeters>661.4000244140625</AltitudeMeters>
            <DistanceMeters>16387.45050165</DistanceMeters>
          </Trackpoint>
          <Trackpoint>
            <Time>2021-08-28T06:04:30.000Z</Time>
            <Position>
              <LatitudeDegrees>38.10844791121780872344970703125</LatitudeDegrees>
              <LongitudeDegrees>-1.8659197725355625152587890625</LongitudeDegrees>
            </Position>
            <AltitudeMeters>661.79998779296875</AltitudeMeters>
            <DistanceMeters>16405.267440425</DistanceMeters>
          </Trackpoint>
          <Trackpoint>
            <Time>2021-08-28T06:04:33.000Z</Time>
            <Position>
              <LatitudeDegrees>38.1085143797099590301513671875</LatitudeDegrees>
              <LongitudeDegrees>-1.86592555604875087738037109375</LongitudeDegrees>
            </Position>
            <AltitudeMeters>661.79998779296875</AltitudeMeters>
            <DistanceMeters>16412.682569249</DistanceMeters>
          </Trackpoint>
          <Trackpoint>
            <Time>2021-08-28T06:04:36.000Z</Time>
            <Position>
              <LatitudeDegrees>38.108618818223476409912109375</LatitudeDegrees>
              <LongitudeDegrees>-1.8659442476928234100341796875</LongitudeDegrees>
            </Position>
            <AltitudeMeters>662</AltitudeMeters>
            <DistanceMeters>16424.421349702</DistanceMeters>
          </Trackpoint>
          <Trackpoint>
            <Time>2021-08-28T06:04:40.000Z</Time>
            <Position>
              <LatitudeDegrees>38.108819313347339630126953125</LatitudeDegrees>
              <LongitudeDegrees>-1.865977607667446136474609375</LongitudeDegrees>
            </Position>
            <AltitudeMeters>662.5999755859375</AltitudeMeters>
            <DistanceMeters>16446.927038268</DistanceMeters>
          </Trackpoint>
          <Trackpoint>
            <Time>2021-08-28T06:04:43.000Z</Time>
            <Position>
              <LatitudeDegrees>38.10898669995367527008056640625</LatitudeDegrees>
              <LongitudeDegrees>-1.8659972213208675384521484375</LongitudeDegrees>
            </Position>
            <AltitudeMeters>663.20001220703125</AltitudeMeters>
            <DistanceMeters>16465.636444546</DistanceMeters>
          </Trackpoint>
          <Trackpoint>
            <Time>2021-08-28T06:04:44.000Z</Time>
            <Position>
              <LatitudeDegrees>38.10904017649590969085693359375</LatitudeDegrees>
              <LongitudeDegrees>-1.86600409448146820068359375</LongitudeDegrees>
            </Position>
            <AltitudeMeters>663.4000244140625</AltitudeMeters>
            <DistanceMeters>16471.618600758</DistanceMeters>
          </Trackpoint>
          <Trackpoint>
            <Time>2021-08-28T06:04:45.000Z</Time>
            <Position>
              <LatitudeDegrees>38.109091557562351226806640625</LatitudeDegrees>
              <LongitudeDegrees>-1.8660143204033374786376953125</LongitudeDegrees>
            </Position>
            <AltitudeMeters>663.5999755859375</AltitudeMeters>
            <DistanceMeters>16477.40743602</DistanceMeters>
          </Trackpoint>
          <Trackpoint>
            <Time>2021-08-28T06:04:46.000Z</Time>
            <Position>
              <LatitudeDegrees>38.10914310626685619354248046875</LatitudeDegrees>
              <LongitudeDegrees>-1.8660221993923187255859375</LongitudeDegrees>
            </Position>
            <AltitudeMeters>663.79998779296875</AltitudeMeters>
            <DistanceMeters>16483.186904227</DistanceMeters>
          </Trackpoint>
          <Trackpoint>
            <Time>2021-08-28T06:04:49.000Z</Time>
            <Position>
              <LatitudeDegrees>38.10930018313229084014892578125</LatitudeDegrees>
              <LongitudeDegrees>-1.866031251847743988037109375</LongitudeDegrees>
            </Position>
            <AltitudeMeters>664.4000244140625</AltitudeMeters>
            <DistanceMeters>16500.688080271</DistanceMeters>
          </Trackpoint>
          <Trackpoint>
            <Time>2021-08-28T06:04:50.000Z</Time>
            <Position>
              <LatitudeDegrees>38.10935399495065212249755859375</LatitudeDegrees>
              <LongitudeDegrees>-1.86603133566677570343017578125</LongitudeDegrees>
            </Position>
            <AltitudeMeters>664.5999755859375</AltitudeMeters>
            <DistanceMeters>16506.678532991</DistanceMeters>
          </Trackpoint>
          <Trackpoint>
            <Time>2021-08-28T06:04:52.000Z</Time>
            <Position>
              <LatitudeDegrees>38.10947167687118053436279296875</LatitudeDegrees>
              <LongitudeDegrees>-1.86603938229382038116455078125</LongitudeDegrees>
            </Position>
            <AltitudeMeters>664.5999755859375</AltitudeMeters>
            <DistanceMeters>16519.796006324</DistanceMeters>
          </Trackpoint>
          <Trackpoint>
            <Time>2021-08-28T06:04:53.000Z</Time>
            <Position>
              <LatitudeDegrees>38.10952884145081043243408203125</LatitudeDegrees>
              <LongitudeDegrees>-1.866050027310848236083984375</LongitudeDegrees>
            </Position>
            <AltitudeMeters>664.79998779296875</AltitudeMeters>
            <DistanceMeters>16526.227005477</DistanceMeters>
          </Trackpoint>
          <Trackpoint>
            <Time>2021-08-28T06:04:55.000Z</Time>
            <Position>
              <LatitudeDegrees>38.10964803211390972137451171875</LatitudeDegrees>
              <LongitudeDegrees>-1.8660679645836353302001953125</LongitudeDegrees>
            </Position>
            <AltitudeMeters>665</AltitudeMeters>
            <DistanceMeters>16539.585612092</DistanceMeters>
          </Trackpoint>
          <Trackpoint>
            <Time>2021-08-28T06:04:59.000Z</Time>
            <Position>
              <LatitudeDegrees>38.1098699010908603668212890625</LatitudeDegrees>
              <LongitudeDegrees>-1.866105683147907257080078125</LongitudeDegrees>
            </Position>
            <AltitudeMeters>665.79998779296875</AltitudeMeters>
            <DistanceMeters>16564.500014649</DistanceMeters>
          </Trackpoint>
          <Trackpoint>
            <Time>2021-08-28T06:05:00.000Z</Time>
            <Position>
              <LatitudeDegrees>38.10992362909018993377685546875</LatitudeDegrees>
              <LongitudeDegrees>-1.86611079610884189605712890625</LongitudeDegrees>
            </Position>
            <AltitudeMeters>665.79998779296875</AltitudeMeters>
            <DistanceMeters>16570.496493982</DistanceMeters>
          </Trackpoint>
          <Trackpoint>
            <Time>2021-08-28T06:05:03.000Z</Time>
            <Position>
              <LatitudeDegrees>38.11008824966847896575927734375</LatitudeDegrees>
              <LongitudeDegrees>-1.8661149032413959503173828125</LongitudeDegrees>
            </Position>
            <AltitudeMeters>666.5999755859375</AltitudeMeters>
            <DistanceMeters>16588.822612041</DistanceMeters>
          </Trackpoint>
          <Trackpoint>
            <Time>2021-08-28T06:05:05.000Z</Time>
            <Position>
              <LatitudeDegrees>38.110183887183666229248046875</LatitudeDegrees>
              <LongitudeDegrees>-1.8660704791545867919921875</LongitudeDegrees>
            </Position>
            <AltitudeMeters>667</AltitudeMeters>
            <DistanceMeters>16600.155917267</DistanceMeters>
          </Trackpoint>
          <Trackpoint>
            <Time>2021-08-28T06:05:07.000Z</Time>
            <Position>
              <LatitudeDegrees>38.1102859787642955780029296875</LatitudeDegrees>
              <LongitudeDegrees>-1.86600350774824619293212890625</LongitudeDegrees>
            </Position>
            <AltitudeMeters>667.20001220703125</AltitudeMeters>
            <DistanceMeters>16612.943279162</DistanceMeters>
          </Trackpoint>
          <Trackpoint>
            <Time>2021-08-28T06:05:10.000Z</Time>
            <Position>
              <LatitudeDegrees>38.11042469926178455352783203125</LatitudeDegrees>
              <LongitudeDegrees>-1.86585062183439731597900390625</LongitudeDegrees>
            </Position>
            <AltitudeMeters>667.4000244140625</AltitudeMeters>
            <DistanceMeters>16633.379988675</DistanceMeters>
          </Trackpoint>
          <Trackpoint>
            <Time>2021-08-28T06:05:12.000Z</Time>
            <Position>
              <LatitudeDegrees>38.1105007231235504150390625</LatitudeDegrees>
              <LongitudeDegrees>-1.865729503333568572998046875</LongitudeDegrees>
            </Position>
            <AltitudeMeters>667.5999755859375</AltitudeMeters>
            <DistanceMeters>16646.948525756</DistanceMeters>
          </Trackpoint>
          <Trackpoint>
            <Time>2021-08-28T06:05:17.000Z</Time>
            <Position>
              <LatitudeDegrees>38.110678754746913909912109375</LatitudeDegrees>
              <LongitudeDegrees>-1.86539632268249988555908203125</LongitudeDegrees>
            </Position>
            <AltitudeMeters>667</AltitudeMeters>
            <DistanceMeters>16682.218929654</DistanceMeters>
          </Trackpoint>
          <Trackpoint>
            <Time>2021-08-28T06:05:20.000Z</Time>
            <Position>
              <LatitudeDegrees>38.11080255545675754547119140625</LatitudeDegrees>
              <LongitudeDegrees>-1.86522130854427814483642578125</LongitudeDegrees>
            </Position>
            <AltitudeMeters>667</AltitudeMeters>
            <DistanceMeters>16702.828995057</DistanceMeters>
          </Trackpoint>
          <Trackpoint>
            <Time>2021-08-28T06:05:22.000Z</Time>
            <Position>
              <LatitudeDegrees>38.1108894757926464080810546875</LatitudeDegrees>
              <LongitudeDegrees>-1.8651228211820125579833984375</LongitudeDegrees>
            </Position>
            <AltitudeMeters>667</AltitudeMeters>
            <DistanceMeters>16715.789607774</DistanceMeters>
          </Trackpoint>
          <Trackpoint>
            <Time>2021-08-28T06:05:23.000Z</Time>
            <Position>
              <LatitudeDegrees>38.11093867756426334381103515625</LatitudeDegrees>
              <LongitudeDegrees>-1.865079067647457122802734375</LongitudeDegrees>
            </Position>
            <AltitudeMeters>667</AltitudeMeters>
            <DistanceMeters>16722.473978967</DistanceMeters>
          </Trackpoint>
          <Trackpoint>
            <Time>2021-08-28T06:05:28.000Z</Time>
            <Position>
              <LatitudeDegrees>38.11121310107409954071044921875</LatitudeDegrees>
              <LongitudeDegrees>-1.86492048203945159912109375</LongitudeDegrees>
            </Position>
            <AltitudeMeters>667</AltitudeMeters>
            <DistanceMeters>16756.026887789</DistanceMeters>
          </Trackpoint>
          <Trackpoint>
            <Time>2021-08-28T06:05:30.000Z</Time>
            <Position>
              <LatitudeDegrees>38.111324496567249298095703125</LatitudeDegrees>
              <LongitudeDegrees>-1.864883601665496826171875</LongitudeDegrees>
            </Position>
            <AltitudeMeters>667.20001220703125</AltitudeMeters>
            <DistanceMeters>16768.838941863</DistanceMeters>
          </Trackpoint>
          <Trackpoint>
            <Time>2021-08-28T06:05:32.000Z</Time>
            <Position>
              <LatitudeDegrees>38.11144444160163402557373046875</LatitudeDegrees>
              <LongitudeDegrees>-1.86485619284212589263916015625</LongitudeDegrees>
            </Position>
            <AltitudeMeters>667.20001220703125</AltitudeMeters>
            <DistanceMeters>16782.403152402</DistanceMeters>
          </Trackpoint>
          <Trackpoint>
            <Time>2021-08-28T06:05:34.000Z</Time>
            <Position>
              <LatitudeDegrees>38.1115682423114776611328125</LatitudeDegrees>
              <LongitudeDegrees>-1.8648378364741802215576171875</LongitudeDegrees>
            </Position>
            <AltitudeMeters>667.4000244140625</AltitudeMeters>
            <DistanceMeters>16796.275750903</DistanceMeters>
          </Trackpoint>
          <Trackpoint>
            <Time>2021-08-28T06:05:38.000Z</Time>
            <Position>
              <LatitudeDegrees>38.11181223951280117034912109375</LatitudeDegrees>
              <LongitudeDegrees>-1.86480221338570117950439453125</LongitudeDegrees>
            </Position>
            <AltitudeMeters>667.5999755859375</AltitudeMeters>
            <DistanceMeters>16823.611750718</DistanceMeters>
          </Trackpoint>
          <Trackpoint>
            <Time>2021-08-28T06:05:40.000Z</Time>
            <Position>
              <LatitudeDegrees>38.1119315139949321746826171875</LatitudeDegrees>
              <LongitudeDegrees>-1.86478896997869014739990234375</LongitudeDegrees>
            </Position>
            <AltitudeMeters>667.4000244140625</AltitudeMeters>
            <DistanceMeters>16836.93787106</DistanceMeters>
          </Trackpoint>
          <Trackpoint>
            <Time>2021-08-28T06:05:45.000Z</Time>
            <Position>
              <LatitudeDegrees>38.11221021227538585662841796875</LatitudeDegrees>
              <LongitudeDegrees>-1.86474337242543697357177734375</LongitudeDegrees>
            </Position>
            <AltitudeMeters>667.4000244140625</AltitudeMeters>
            <DistanceMeters>16868.21350008</DistanceMeters>
          </Trackpoint>
          <Trackpoint>
            <Time>2021-08-28T06:05:47.000Z</Time>
            <Position>
              <LatitudeDegrees>38.11232554726302623748779296875</LatitudeDegrees>
              <LongitudeDegrees>-1.86474555172026157379150390625</LongitudeDegrees>
            </Position>
            <AltitudeMeters>667.79998779296875</AltitudeMeters>
            <DistanceMeters>16881.05195736</DistanceMeters>
          </Trackpoint>
          <Trackpoint>
            <Time>2021-08-28T06:05:49.000Z</Time>
            <Position>
              <LatitudeDegrees>38.11244591139256954193115234375</LatitudeDegrees>
              <LongitudeDegrees>-1.8647615611553192138671875</LongitudeDegrees>
            </Position>
            <AltitudeMeters>668</AltitudeMeters>
            <DistanceMeters>16894.52230836</DistanceMeters>
          </Trackpoint>
          <Trackpoint>
            <Time>2021-08-28T06:05:50.000Z</Time>
            <Position>
              <LatitudeDegrees>38.1125081889331340789794921875</LatitudeDegrees>
              <LongitudeDegrees>-1.86478109098970890045166015625</LongitudeDegrees>
            </Position>
            <AltitudeMeters>668</AltitudeMeters>
            <DistanceMeters>16901.661338508</DistanceMeters>
          </Trackpoint>
          <Trackpoint>
            <Time>2021-08-28T06:05:51.000Z</Time>
            <Position>
              <LatitudeDegrees>38.11256510205566883087158203125</LatitudeDegrees>
              <LongitudeDegrees>-1.86479936353862285614013671875</LongitudeDegrees>
            </Position>
            <AltitudeMeters>668.20001220703125</AltitudeMeters>
            <DistanceMeters>16908.194727472</DistanceMeters>
          </Trackpoint>
          <Trackpoint>
            <Time>2021-08-28T06:05:57.000Z</Time>
            <Position>
              <LatitudeDegrees>38.11290171928703784942626953125</LatitudeDegrees>
              <LongitudeDegrees>-1.864984519779682159423828125</LongitudeDegrees>
            </Position>
            <AltitudeMeters>668.20001220703125</AltitudeMeters>
            <DistanceMeters>16949.019071053</DistanceMeters>
          </Trackpoint>
          <Trackpoint>
            <Time>2021-08-28T06:05:59.000Z</Time>
            <Position>
              <LatitudeDegrees>38.113002888858318328857421875</LatitudeDegrees>
              <LongitudeDegrees>-1.865089125931262969970703125</LongitudeDegrees>
            </Position>
            <AltitudeMeters>668.20001220703125</AltitudeMeters>
            <DistanceMeters>16963.534848805</DistanceMeters>
          </Trackpoint>
          <Trackpoint>
            <Time>2021-08-28T06:06:00.000Z</Time>
            <Position>
              <LatitudeDegrees>38.11304672621190547943115234375</LatitudeDegrees>
              <LongitudeDegrees>-1.8651531636714935302734375</LongitudeDegrees>
            </Position>
            <AltitudeMeters>668.4000244140625</AltitudeMeters>
            <DistanceMeters>16970.968222047</DistanceMeters>
          </Trackpoint>
          <Trackpoint>
            <Time>2021-08-28T06:06:01.000Z</Time>
            <Position>
              <LatitudeDegrees>38.11308377422392368316650390625</LatitudeDegrees>
              <LongitudeDegrees>-1.86522030271589756011962890625</LongitudeDegrees>
            </Position>
            <AltitudeMeters>668.4000244140625</AltitudeMeters>
            <DistanceMeters>16978.149500942</DistanceMeters>
          </Trackpoint>
          <Trackpoint>
            <Time>2021-08-28T06:06:06.000Z</Time>
            <Position>
              <LatitudeDegrees>38.11325057409703731536865234375</LatitudeDegrees>
              <LongitudeDegrees>-1.86555457301437854766845703125</LongitudeDegrees>
            </Position>
            <AltitudeMeters>668.5999755859375</AltitudeMeters>
            <DistanceMeters>17012.813026899</DistanceMeters>
          </Trackpoint>
          <Trackpoint>
            <Time>2021-08-28T06:06:09.000Z</Time>
            <Position>
              <LatitudeDegrees>38.113382421433925628662109375</LatitudeDegrees>
              <LongitudeDegrees>-1.86573763377964496612548828125</LongitudeDegrees>
            </Position>
            <AltitudeMeters>668.79998779296875</AltitudeMeters>
            <DistanceMeters>17034.546116382</DistanceMeters>
          </Trackpoint>
          <Trackpoint>
            <Time>2021-08-28T06:06:10.000Z</Time>
            <Position>
              <LatitudeDegrees>38.11342743225395679473876953125</LatitudeDegrees>
              <LongitudeDegrees>-1.86579287052154541015625</LongitudeDegrees>
            </Position>
            <AltitudeMeters>668.79998779296875</AltitudeMeters>
            <DistanceMeters>17041.509700984</DistanceMeters>
          </Trackpoint>
          <Trackpoint>
            <Time>2021-08-28T06:06:11.000Z</Time>
            <Position>
              <LatitudeDegrees>38.11347462236881256103515625</LatitudeDegrees>
              <LongitudeDegrees>-1.86584089882671833038330078125</LongitudeDegrees>
            </Position>
            <AltitudeMeters>668.79998779296875</AltitudeMeters>
            <DistanceMeters>17048.238504986</DistanceMeters>
          </Trackpoint>
          <Trackpoint>
            <Time>2021-08-28T06:06:14.000Z</Time>
            <Position>
              <LatitudeDegrees>38.1136132590472698211669921875</LatitudeDegrees>
              <LongitudeDegrees>-1.86596193350851535797119140625</LongitudeDegrees>
            </Position>
            <AltitudeMeters>668.79998779296875</AltitudeMeters>
            <DistanceMeters>17066.958767716</DistanceMeters>
          </Trackpoint>
          <Trackpoint>
            <Time>2021-08-28T06:06:16.000Z</Time>
            <Position>
              <LatitudeDegrees>38.1137024424970149993896484375</LatitudeDegrees>
              <LongitudeDegrees>-1.8660273961722850799560546875</LongitudeDegrees>
            </Position>
            <AltitudeMeters>669.20001220703125</AltitudeMeters>
            <DistanceMeters>17078.421211272</DistanceMeters>
          </Trackpoint>
          <Trackpoint>
            <Time>2021-08-28T06:06:20.000Z</Time>
            <Position>
              <LatitudeDegrees>38.11389715410768985748291015625</LatitudeDegrees>
              <LongitudeDegrees>-1.86613342724740505218505859375</LongitudeDegrees>
            </Position>
            <AltitudeMeters>669.79998779296875</AltitudeMeters>
            <DistanceMeters>17101.998179816</DistanceMeters>
          </Trackpoint>
          <Trackpoint>
            <Time>2021-08-28T06:06:21.000Z</Time>
            <Position>
              <LatitudeDegrees>38.1139451824128627777099609375</LatitudeDegrees>
              <LongitudeDegrees>-1.86615823768079280853271484375</LongitudeDegrees>
            </Position>
            <AltitudeMeters>670</AltitudeMeters>
            <DistanceMeters>17107.768265764</DistanceMeters>
          </Trackpoint>
          <Trackpoint>
            <Time>2021-08-28T06:06:22.000Z</Time>
            <Position>
              <LatitudeDegrees>38.11399186961352825164794921875</LatitudeDegrees>
              <LongitudeDegrees>-1.86618254519999027252197265625</LongitudeDegrees>
            </Position>
            <AltitudeMeters>670.20001220703125</AltitudeMeters>
            <DistanceMeters>17113.383693347</DistanceMeters>
          </Trackpoint>
          <Trackpoint>
            <Time>2021-08-28T06:06:25.000Z</Time>
            <Position>
              <LatitudeDegrees>38.11411558650434017181396484375</LatitudeDegrees>
              <LongitudeDegrees>-1.86625630594789981842041015625</LongitudeDegrees>
            </Position>
            <AltitudeMeters>671.20001220703125</AltitudeMeters>
            <DistanceMeters>17128.59331196</DistanceMeters>
          </Trackpoint>
          <Trackpoint>
            <Time>2021-08-28T06:06:28.000Z</Time>
            <Position>
              <LatitudeDegrees>38.1142127327620983123779296875</LatitudeDegrees>
              <LongitudeDegrees>-1.8663576431572437286376953125</LongitudeDegrees>
            </Position>
            <AltitudeMeters>671.5999755859375</AltitudeMeters>
            <DistanceMeters>17142.58129596</DistanceMeters>
          </Trackpoint>
          <Trackpoint>
            <Time>2021-08-28T06:06:30.000Z</Time>
            <Position>
              <LatitudeDegrees>38.11427065171301364898681640625</LatitudeDegrees>
              <LongitudeDegrees>-1.8664340861141681671142578125</LongitudeDegrees>
            </Position>
            <AltitudeMeters>672.5999755859375</AltitudeMeters>
            <DistanceMeters>17151.874986357</DistanceMeters>
          </Trackpoint>
          <Trackpoint>
            <Time>2021-08-28T06:06:37.000Z</Time>
            <Position>
              <LatitudeDegrees>38.11446226201951503753662109375</LatitudeDegrees>
              <LongitudeDegrees>-1.8667251057922840118408203125</LongitudeDegrees>
            </Position>
            <AltitudeMeters>673.79998779296875</AltitudeMeters>
            <DistanceMeters>17185.105816144</DistanceMeters>
          </Trackpoint>
          <Trackpoint>
            <Time>2021-08-28T06:06:38.000Z</Time>
            <Position>
              <LatitudeDegrees>38.1144930236041545867919921875</LatitudeDegrees>
              <LongitudeDegrees>-1.8667737208306789398193359375</LongitudeDegrees>
            </Position>
            <AltitudeMeters>674</AltitudeMeters>
            <DistanceMeters>17190.569645636</DistanceMeters>
          </Trackpoint>
          <Trackpoint>
            <Time>2021-08-28T06:06:39.000Z</Time>
            <Position>
              <LatitudeDegrees>38.1145255453884601593017578125</LatitudeDegrees>
              <LongitudeDegrees>-1.866823174059391021728515625</LongitudeDegrees>
            </Position>
            <AltitudeMeters>674.4000244140625</AltitudeMeters>
            <DistanceMeters>17196.213944503</DistanceMeters>
          </Trackpoint>
          <Trackpoint>
            <Time>2021-08-28T06:06:40.000Z</Time>
            <Position>
              <LatitudeDegrees>38.11455664224922657012939453125</LatitudeDegrees>
              <LongitudeDegrees>-1.866873465478420257568359375</LongitudeDegrees>
            </Position>
            <AltitudeMeters>675.20001220703125</AltitudeMeters>
            <DistanceMeters>17201.814880636</DistanceMeters>
          </Trackpoint>
          <Trackpoint>
            <Time>2021-08-28T06:06:43.000Z</Time>
            <Position>
              <LatitudeDegrees>38.114645071327686309814453125</LatitudeDegrees>
              <LongitudeDegrees>-1.86702677048742771148681640625</LongitudeDegrees>
            </Position>
            <AltitudeMeters>676.20001220703125</AltitudeMeters>
            <DistanceMeters>17218.46110921</DistanceMeters>
          </Trackpoint>
          <Trackpoint>
            <Time>2021-08-28T06:06:44.000Z</Time>
            <Position>
              <LatitudeDegrees>38.11466694809496402740478515625</LatitudeDegrees>
              <LongitudeDegrees>-1.86708108521997928619384765625</LongitudeDegrees>
            </Position>
            <AltitudeMeters>676.4000244140625</AltitudeMeters>
            <DistanceMeters>17223.804619453</DistanceMeters>
          </Trackpoint>
          <Trackpoint>
            <Time>2021-08-28T06:06:47.000Z</Time>
            <Position>
              <LatitudeDegrees>38.114710785448551177978515625</LatitudeDegrees>
              <LongitudeDegrees>-1.86724822036921977996826171875</LongitudeDegrees>
            </Position>
            <AltitudeMeters>677</AltitudeMeters>
            <DistanceMeters>17239.23263893</DistanceMeters>
          </Trackpoint>
          <Trackpoint>
            <Time>2021-08-28T06:06:48.000Z</Time>
            <Position>
              <LatitudeDegrees>38.11472411267459392547607421875</LatitudeDegrees>
              <LongitudeDegrees>-1.8673016130924224853515625</LongitudeDegrees>
            </Position>
            <AltitudeMeters>677.20001220703125</AltitudeMeters>
            <DistanceMeters>17244.138263633</DistanceMeters>
          </Trackpoint>
          <Trackpoint>
            <Time>2021-08-28T06:06:50.000Z</Time>
            <Position>
              <LatitudeDegrees>38.1147575564682483673095703125</LatitudeDegrees>
              <LongitudeDegrees>-1.86740429140627384185791015625</LongitudeDegrees>
            </Position>
            <AltitudeMeters>677.79998779296875</AltitudeMeters>
            <DistanceMeters>17253.870038484</DistanceMeters>
          </Trackpoint>
          <Trackpoint>
            <Time>2021-08-28T06:06:53.000Z</Time>
            <Position>
              <LatitudeDegrees>38.11481698416173458099365234375</LatitudeDegrees>
              <LongitudeDegrees>-1.86754636466503143310546875</LongitudeDegrees>
            </Position>
            <AltitudeMeters>678.4000244140625</AltitudeMeters>
            <DistanceMeters>17267.960292587</DistanceMeters>
          </Trackpoint>
          <Trackpoint>
            <Time>2021-08-28T06:06:56.000Z</Time>
            <Position>
              <LatitudeDegrees>38.11487875878810882568359375</LatitudeDegrees>
              <LongitudeDegrees>-1.86767569743096828460693359375</LongitudeDegrees>
            </Position>
            <AltitudeMeters>679.5999755859375</AltitudeMeters>
            <DistanceMeters>17281.209620346</DistanceMeters>
          </Trackpoint>
          <Trackpoint>
            <Time>2021-08-28T06:07:00.000Z</Time>
            <Position>
              <LatitudeDegrees>38.11496014706790447235107421875</LatitudeDegrees>
              <LongitudeDegrees>-1.86783864162862300872802734375</LongitudeDegrees>
            </Position>
            <AltitudeMeters>680.5999755859375</AltitudeMeters>
            <DistanceMeters>17298.111023786</DistanceMeters>
          </Trackpoint>
          <Trackpoint>
            <Time>2021-08-28T06:07:03.000Z</Time>
            <Position>
              <LatitudeDegrees>38.11503642238676548004150390625</LatitudeDegrees>
              <LongitudeDegrees>-1.8679614365100860595703125</LongitudeDegrees>
            </Position>
            <AltitudeMeters>681</AltitudeMeters>
            <DistanceMeters>17311.811358416</DistanceMeters>
          </Trackpoint>
          <Trackpoint>
            <Time>2021-08-28T06:07:06.000Z</Time>
            <Position>
              <LatitudeDegrees>38.11511672101914882659912109375</LatitudeDegrees>
              <LongitudeDegrees>-1.8680794537067413330078125</LongitudeDegrees>
            </Position>
            <AltitudeMeters>681.79998779296875</AltitudeMeters>
            <DistanceMeters>17325.47473283</DistanceMeters>
          </Trackpoint>
          <Trackpoint>
            <Time>2021-08-28T06:07:07.000Z</Time>
            <Position>
              <LatitudeDegrees>38.1151382625102996826171875</LatitudeDegrees>
              <LongitudeDegrees>-1.86812194995582103729248046875</LongitudeDegrees>
            </Position>
            <AltitudeMeters>682</AltitudeMeters>
            <DistanceMeters>17329.901386858</DistanceMeters>
          </Trackpoint>
          <Trackpoint>
            <Time>2021-08-28T06:07:10.000Z</Time>
            <Position>
              <LatitudeDegrees>38.11520020477473735809326171875</LatitudeDegrees>
              <LongitudeDegrees>-1.86825723387300968170166015625</LongitudeDegrees>
            </Position>
            <AltitudeMeters>682.79998779296875</AltitudeMeters>
            <DistanceMeters>17343.608311039</DistanceMeters>
          </Trackpoint>
          <Trackpoint>
            <Time>2021-08-28T06:07:13.000Z</Time>
            <Position>
              <LatitudeDegrees>38.11525284312665462493896484375</LatitudeDegrees>
              <LongitudeDegrees>-1.8684085272252559661865234375</LongitudeDegrees>
            </Position>
            <AltitudeMeters>683.20001220703125</AltitudeMeters>
            <DistanceMeters>17358.094821197</DistanceMeters>
          </Trackpoint>
          <Trackpoint>
            <Time>2021-08-28T06:07:15.000Z</Time>
            <Position>
              <LatitudeDegrees>38.115283437073230743408203125</LatitudeDegrees>
              <LongitudeDegrees>-1.86850793659687042236328125</LongitudeDegrees>
            </Position>
            <AltitudeMeters>684</AltitudeMeters>
            <DistanceMeters>17367.442281797</DistanceMeters>
          </Trackpoint>
          <Trackpoint>
            <Time>2021-08-28T06:07:16.000Z</Time>
            <Position>
              <LatitudeDegrees>38.1153033860027790069580078125</LatitudeDegrees>
              <LongitudeDegrees>-1.86855764128267765045166015625</LongitudeDegrees>
            </Position>
            <AltitudeMeters>684.4000244140625</AltitudeMeters>
            <DistanceMeters>17372.328540296</DistanceMeters>
          </Trackpoint>
          <Trackpoint>
            <Time>2021-08-28T06:07:19.000Z</Time>
            <Position>
              <LatitudeDegrees>38.1153570301830768585205078125</LatitudeDegrees>
              <LongitudeDegrees>-1.86869971454143524169921875</LongitudeDegrees>
            </Position>
            <AltitudeMeters>685.20001220703125</AltitudeMeters>
            <DistanceMeters>17386.128696534</DistanceMeters>
          </Trackpoint>
          <Trackpoint>
            <Time>2021-08-28T06:07:20.000Z</Time>
            <Position>
              <LatitudeDegrees>38.1153784878551959991455078125</LatitudeDegrees>
              <LongitudeDegrees>-1.868738941848278045654296875</LongitudeDegrees>
            </Position>
            <AltitudeMeters>685.5999755859375</AltitudeMeters>
            <DistanceMeters>17390.31311026</DistanceMeters>
          </Trackpoint>
          <Trackpoint>
            <Time>2021-08-28T06:07:23.000Z</Time>
            <Position>
              <LatitudeDegrees>38.115428946912288665771484375</LatitudeDegrees>
              <LongitudeDegrees>-1.8688691966235637664794921875</LongitudeDegrees>
            </Position>
            <AltitudeMeters>686.20001220703125</AltitudeMeters>
            <DistanceMeters>17403.027528394</DistanceMeters>
          </Trackpoint>
          <Trackpoint>
            <Time>2021-08-28T06:07:29.000Z</Time>
            <Position>
              <LatitudeDegrees>38.11559163965284824371337890625</LatitudeDegrees>
              <LongitudeDegrees>-1.86908989213407039642333984375</LongitudeDegrees>
            </Position>
            <AltitudeMeters>687.20001220703125</AltitudeMeters>
            <DistanceMeters>17429.511526539</DistanceMeters>
          </Trackpoint>
          <Trackpoint>
            <Time>2021-08-28T06:07:30.000Z</Time>
            <Position>
              <LatitudeDegrees>38.1156229041516780853271484375</LatitudeDegrees>
              <LongitudeDegrees>-1.8691303767263889312744140625</LongitudeDegrees>
            </Position>
            <AltitudeMeters>687.20001220703125</AltitudeMeters>
            <DistanceMeters>17434.480251626</DistanceMeters>
          </Trackpoint>
          <Trackpoint>
            <Time>2021-08-28T06:07:32.000Z</Time>
            <Position>
              <LatitudeDegrees>38.11569683253765106201171875</LatitudeDegrees>
              <LongitudeDegrees>-1.8692061491310596466064453125</LongitudeDegrees>
            </Position>
            <AltitudeMeters>687.4000244140625</AltitudeMeters>
            <DistanceMeters>17445.050879135</DistanceMeters>
          </Trackpoint>
          <Trackpoint>
            <Time>2021-08-28T06:07:34.000Z</Time>
            <Position>
              <LatitudeDegrees>38.11575626023113727569580078125</LatitudeDegrees>
              <LongitudeDegrees>-1.8693003617227077484130859375</LongitudeDegrees>
            </Position>
            <AltitudeMeters>687.5999755859375</AltitudeMeters>
            <DistanceMeters>17455.624923135</DistanceMeters>
          </Trackpoint>
          <Trackpoint>
            <Time>2021-08-28T06:07:35.000Z</Time>
            <Position>
              <LatitudeDegrees>38.1158063001930713653564453125</LatitudeDegrees>
              <LongitudeDegrees>-1.86933699063956737518310546875</LongitudeDegrees>
            </Position>
            <AltitudeMeters>687.79998779296875</AltitudeMeters>
            <DistanceMeters>17462.051708464</DistanceMeters>
          </Trackpoint>
          <Trackpoint>
            <Time>2021-08-28T06:07:39.000Z</Time>
            <Position>
              <LatitudeDegrees>38.11597452498972415924072265625</LatitudeDegrees>
              <LongitudeDegrees>-1.86951720155775547027587890625</LongitudeDegrees>
            </Position>
            <AltitudeMeters>688</AltitudeMeters>
            <DistanceMeters>17486.538748628</DistanceMeters>
          </Trackpoint>
          <Trackpoint>
            <Time>2021-08-28T06:07:40.000Z</Time>
            <Position>
              <LatitudeDegrees>38.11601660214364528656005859375</LatitudeDegrees>
              <LongitudeDegrees>-1.86954603530466556549072265625</LongitudeDegrees>
            </Position>
            <AltitudeMeters>688</AltitudeMeters>
            <DistanceMeters>17491.859396113</DistanceMeters>
          </Trackpoint>
          <Trackpoint>
            <Time>2021-08-28T06:07:41.000Z</Time>
            <Position>
              <LatitudeDegrees>38.116052560508251190185546875</LatitudeDegrees>
              <LongitudeDegrees>-1.86957151629030704498291015625</LongitudeDegrees>
            </Position>
            <AltitudeMeters>688</AltitudeMeters>
            <DistanceMeters>17496.443388683</DistanceMeters>
          </Trackpoint>
          <Trackpoint>
            <Time>2021-08-28T06:07:43.000Z</Time>
            <Position>
              <LatitudeDegrees>38.11613160185515880584716796875</LatitudeDegrees>
              <LongitudeDegrees>-1.8695910461246967315673828125</LongitudeDegrees>
            </Position>
            <AltitudeMeters>688</AltitudeMeters>
            <DistanceMeters>17505.406176198</DistanceMeters>
          </Trackpoint>
          <Trackpoint>
            <Time>2021-08-28T06:07:44.000Z</Time>
            <Position>
              <LatitudeDegrees>38.11617560684680938720703125</LatitudeDegrees>
              <LongitudeDegrees>-1.8695759586989879608154296875</LongitudeDegrees>
            </Position>
            <AltitudeMeters>688</AltitudeMeters>
            <DistanceMeters>17510.479214525</DistanceMeters>
          </Trackpoint>
          <Trackpoint>
            <Time>2021-08-28T06:07:45.000Z</Time>
            <Position>
              <LatitudeDegrees>38.116226233541965484619140625</LatitudeDegrees>
              <LongitudeDegrees>-1.86954637058079242706298828125</LongitudeDegrees>
            </Position>
            <AltitudeMeters>688</AltitudeMeters>
            <DistanceMeters>17516.6807543</DistanceMeters>
          </Trackpoint>
          <Trackpoint>
            <Time>2021-08-28T06:07:48.000Z</Time>
            <Position>
              <LatitudeDegrees>38.1163440831005573272705078125</LatitudeDegrees>
              <LongitudeDegrees>-1.86940991319715976715087890625</LongitudeDegrees>
            </Position>
            <AltitudeMeters>688</AltitudeMeters>
            <DistanceMeters>17534.42430567</DistanceMeters>
          </Trackpoint>
          <Trackpoint>
            <Time>2021-08-28T06:07:50.000Z</Time>
            <Position>
              <LatitudeDegrees>38.11641491018235683441162109375</LatitudeDegrees>
              <LongitudeDegrees>-1.86930111609399318695068359375</LongitudeDegrees>
            </Position>
            <AltitudeMeters>688.20001220703125</AltitudeMeters>
            <DistanceMeters>17546.790198864</DistanceMeters>
          </Trackpoint>
          <Trackpoint>
            <Time>2021-08-28T06:07:52.000Z</Time>
            <Position>
              <LatitudeDegrees>38.1164828874170780181884765625</LatitudeDegrees>
              <LongitudeDegrees>-1.8691898882389068603515625</LongitudeDegrees>
            </Position>
            <AltitudeMeters>688.20001220703125</AltitudeMeters>
            <DistanceMeters>17559.123187457</DistanceMeters>
          </Trackpoint>
          <Trackpoint>
            <Time>2021-08-28T06:07:53.000Z</Time>
            <Position>
              <LatitudeDegrees>38.1165093742311000823974609375</LatitudeDegrees>
              <LongitudeDegrees>-1.86912811361253261566162109375</LongitudeDegrees>
            </Position>
            <AltitudeMeters>688.20001220703125</AltitudeMeters>
            <DistanceMeters>17565.283088529</DistanceMeters>
          </Trackpoint>
          <Trackpoint>
            <Time>2021-08-28T06:07:54.000Z</Time>
            <Position>
              <LatitudeDegrees>38.11652873642742633819580078125</LatitudeDegrees>
              <LongitudeDegrees>-1.86906625516712665557861328125</LongitudeDegrees>
            </Position>
            <AltitudeMeters>688.20001220703125</AltitudeMeters>
            <DistanceMeters>17571.112340424</DistanceMeters>
          </Trackpoint>
          <Trackpoint>
            <Time>2021-08-28T06:07:56.000Z</Time>
            <Position>
              <LatitudeDegrees>38.11654348857700824737548828125</LatitudeDegrees>
              <LongitudeDegrees>-1.868945471942424774169921875</LongitudeDegrees>
            </Position>
            <AltitudeMeters>688.4000244140625</AltitudeMeters>
            <DistanceMeters>17581.815824896</DistanceMeters>
          </Trackpoint>
          <Trackpoint>
            <Time>2021-08-28T06:07:58.000Z</Time>
            <Position>
              <LatitudeDegrees>38.1165241263806819915771484375</LatitudeDegrees>
              <LongitudeDegrees>-1.8688219226896762847900390625</LongitudeDegrees>
            </Position>
            <AltitudeMeters>688.79998779296875</AltitudeMeters>
            <DistanceMeters>17592.847521966</DistanceMeters>
          </Trackpoint>
          <Trackpoint>
            <Time>2021-08-28T06:08:00.000Z</Time>
            <Position>
              <LatitudeDegrees>38.11647123657166957855224609375</LatitudeDegrees>
              <LongitudeDegrees>-1.86872025020420551300048828125</LongitudeDegrees>
            </Position>
            <AltitudeMeters>689.20001220703125</AltitudeMeters>
            <DistanceMeters>17603.521014572</DistanceMeters>
          </Trackpoint>
          <Trackpoint>
            <Time>2021-08-28T06:08:01.000Z</Time>
            <Position>
              <LatitudeDegrees>38.116445504128932952880859375</LatitudeDegrees>
              <LongitudeDegrees>-1.86867632903158664703369140625</LongitudeDegrees>
            </Position>
            <AltitudeMeters>689.4000244140625</AltitudeMeters>
            <DistanceMeters>17608.315863332</DistanceMeters>
          </Trackpoint>
          <Trackpoint>
            <Time>2021-08-28T06:08:03.000Z</Time>
            <Position>
              <LatitudeDegrees>38.116392195224761962890625</LatitudeDegrees>
              <LongitudeDegrees>-1.8685989640653133392333984375</LongitudeDegrees>
            </Position>
            <AltitudeMeters>690</AltitudeMeters>
            <DistanceMeters>17617.321869473</DistanceMeters>
          </Trackpoint>
          <Trackpoint>
            <Time>2021-08-28T06:08:05.000Z</Time>
            <Position>
              <LatitudeDegrees>38.11633980832993984222412109375</LatitudeDegrees>
              <LongitudeDegrees>-1.86851958744227886199951171875</LongitudeDegrees>
            </Position>
            <AltitudeMeters>690.4000244140625</AltitudeMeters>
            <DistanceMeters>17626.39480598</DistanceMeters>
          </Trackpoint>
          <Trackpoint>
            <Time>2021-08-28T06:08:09.000Z</Time>
            <Position>
              <LatitudeDegrees>38.1162602640688419342041015625</LatitudeDegrees>
              <LongitudeDegrees>-1.86834641732275485992431640625</LongitudeDegrees>
            </Position>
            <AltitudeMeters>691.4000244140625</AltitudeMeters>
            <DistanceMeters>17643.954189801</DistanceMeters>
          </Trackpoint>
          <Trackpoint>
            <Time>2021-08-28T06:08:10.000Z</Time>
            <Position>
              <LatitudeDegrees>38.11623939312994480133056640625</LatitudeDegrees>
              <LongitudeDegrees>-1.86830819584429264068603515625</LongitudeDegrees>
            </Position>
            <AltitudeMeters>691.79998779296875</AltitudeMeters>
            <DistanceMeters>17648.028165808</DistanceMeters>
          </Trackpoint>
          <Trackpoint>
            <Time>2021-08-28T06:08:14.000Z</Time>
            <Position>
              <LatitudeDegrees>38.11615817248821258544921875</LatitudeDegrees>
              <LongitudeDegrees>-1.868145503103733062744140625</LongitudeDegrees>
            </Position>
            <AltitudeMeters>693</AltitudeMeters>
            <DistanceMeters>17664.900693478</DistanceMeters>
          </Trackpoint>
          <Trackpoint>
            <Time>2021-08-28T06:08:17.000Z</Time>
            <Position>
              <LatitudeDegrees>38.116098828613758087158203125</LatitudeDegrees>
              <LongitudeDegrees>-1.8680083751678466796875</LongitudeDegrees>
            </Position>
            <AltitudeMeters>693.4000244140625</AltitudeMeters>
            <DistanceMeters>17678.604982218</DistanceMeters>
          </Trackpoint>
          <Trackpoint>
            <Time>2021-08-28T06:08:19.000Z</Time>
            <Position>
              <LatitudeDegrees>38.11605851165950298309326171875</LatitudeDegrees>
              <LongitudeDegrees>-1.867909468710422515869140625</LongitudeDegrees>
            </Position>
            <AltitudeMeters>694.20001220703125</AltitudeMeters>
            <DistanceMeters>17688.359926891</DistanceMeters>
          </Trackpoint>
          <Trackpoint>
            <Time>2021-08-28T06:08:20.000Z</Time>
            <Position>
              <LatitudeDegrees>38.1160430051386356353759765625</LatitudeDegrees>
              <LongitudeDegrees>-1.86785959638655185699462890625</LongitudeDegrees>
            </Position>
            <AltitudeMeters>694.5999755859375</AltitudeMeters>
            <DistanceMeters>17693.055823683</DistanceMeters>
          </Trackpoint>
          <Trackpoint>
            <Time>2021-08-28T06:08:23.000Z</Time>
            <Position>
              <LatitudeDegrees>38.11601643450558185577392578125</LatitudeDegrees>
              <LongitudeDegrees>-1.86771056614816188812255859375</LongitudeDegrees>
            </Position>
            <AltitudeMeters>695.20001220703125</AltitudeMeters>
            <DistanceMeters>17706.437056279</DistanceMeters>
          </Trackpoint>
          <Trackpoint>
            <Time>2021-08-28T06:08:24.000Z</Time>
            <Position>
              <LatitudeDegrees>38.1160108186304569244384765625</LatitudeDegrees>
              <LongitudeDegrees>-1.86766211874783039093017578125</LongitudeDegrees>
            </Position>
            <AltitudeMeters>695.4000244140625</AltitudeMeters>
            <DistanceMeters>17710.725909939</DistanceMeters>
          </Trackpoint>
          <Trackpoint>
            <Time>2021-08-28T06:08:30.000Z</Time>
            <Position>
              <LatitudeDegrees>38.11595675535500049591064453125</LatitudeDegrees>
              <LongitudeDegrees>-1.86734997667372226715087890625</LongitudeDegrees>
            </Position>
            <AltitudeMeters>696.5999755859375</AltitudeMeters>
            <DistanceMeters>17738.714140883</DistanceMeters>
          </Trackpoint>
          <Trackpoint>
            <Time>2021-08-28T06:08:31.000Z</Time>
            <Position>
              <LatitudeDegrees>38.1159456074237823486328125</LatitudeDegrees>
              <LongitudeDegrees>-1.86729289591312408447265625</LongitudeDegrees>
            </Position>
            <AltitudeMeters>697</AltitudeMeters>
            <DistanceMeters>17743.864904379</DistanceMeters>
          </Trackpoint>
          <Trackpoint>
            <Time>2021-08-28T06:08:34.000Z</Time>
            <Position>
              <LatitudeDegrees>38.11593462713062763214111328125</LatitudeDegrees>
              <LongitudeDegrees>-1.86713330447673797607421875</LongitudeDegrees>
            </Position>
            <AltitudeMeters>697.79998779296875</AltitudeMeters>
            <DistanceMeters>17757.893499677</DistanceMeters>
          </Trackpoint>
          <Trackpoint>
            <Time>2021-08-28T06:08:38.000Z</Time>
            <Position>
              <LatitudeDegrees>38.11590361408889293670654296875</LatitudeDegrees>
              <LongitudeDegrees>-1.86692769639194011688232421875</LongitudeDegrees>
            </Position>
            <AltitudeMeters>698.4000244140625</AltitudeMeters>
            <DistanceMeters>17776.226268566</DistanceMeters>
          </Trackpoint>
          <Trackpoint>
            <Time>2021-08-28T06:08:40.000Z</Time>
            <Position>
              <LatitudeDegrees>38.115887604653835296630859375</LatitudeDegrees>
              <LongitudeDegrees>-1.8668282032012939453125</LongitudeDegrees>
            </Position>
            <AltitudeMeters>698.5999755859375</AltitudeMeters>
            <DistanceMeters>17785.119266345</DistanceMeters>
          </Trackpoint>
          <Trackpoint>
            <Time>2021-08-28T06:08:41.000Z</Time>
            <Position>
              <LatitudeDegrees>38.11588324606418609619140625</LatitudeDegrees>
              <LongitudeDegrees>-1.86677648685872554779052734375</LongitudeDegrees>
            </Position>
            <AltitudeMeters>698.79998779296875</AltitudeMeters>
            <DistanceMeters>17789.673614333</DistanceMeters>
          </Trackpoint>
          <Trackpoint>
            <Time>2021-08-28T06:08:45.000Z</Time>
            <Position>
              <LatitudeDegrees>38.11587243340909481048583984375</LatitudeDegrees>
              <LongitudeDegrees>-1.86656601727008819580078125</LongitudeDegrees>
            </Position>
            <AltitudeMeters>700</AltitudeMeters>
            <DistanceMeters>17808.143541996</DistanceMeters>
          </Trackpoint>
          <Trackpoint>
            <Time>2021-08-28T06:08:50.000Z</Time>
            <Position>
              <LatitudeDegrees>38.1158589385449886322021484375</LatitudeDegrees>
              <LongitudeDegrees>-1.86630005948245525360107421875</LongitudeDegrees>
            </Position>
            <AltitudeMeters>701</AltitudeMeters>
            <DistanceMeters>17831.481259552</DistanceMeters>
          </Trackpoint>
          <Trackpoint>
            <Time>2021-08-28T06:08:51.000Z</Time>
            <Position>
              <LatitudeDegrees>38.11586086638271808624267578125</LatitudeDegrees>
              <LongitudeDegrees>-1.86624608002603054046630859375</LongitudeDegrees>
            </Position>
            <AltitudeMeters>701.4000244140625</AltitudeMeters>
            <DistanceMeters>17836.211643197</DistanceMeters>
          </Trackpoint>
          <Trackpoint>
            <Time>2021-08-28T06:08:55.000Z</Time>
            <Position>
              <LatitudeDegrees>38.1158646382391452789306640625</LatitudeDegrees>
              <LongitudeDegrees>-1.8660237081348896026611328125</LongitudeDegrees>
            </Position>
            <AltitudeMeters>702.20001220703125</AltitudeMeters>
            <DistanceMeters>17855.689106368</DistanceMeters>
          </Trackpoint>
          <Trackpoint>
            <Time>2021-08-28T06:09:00.000Z</Time>
            <Position>
              <LatitudeDegrees>38.11588115058839321136474609375</LatitudeDegrees>
              <LongitudeDegrees>-1.86575322411954402923583984375</LongitudeDegrees>
            </Position>
            <AltitudeMeters>702.4000244140625</AltitudeMeters>
            <DistanceMeters>17879.446355114</DistanceMeters>
          </Trackpoint>
          <Trackpoint>
            <Time>2021-08-28T06:09:02.000Z</Time>
            <Position>
              <LatitudeDegrees>38.11588467098772525787353515625</LatitudeDegrees>
              <LongitudeDegrees>-1.8656505458056926727294921875</LongitudeDegrees>
            </Position>
            <AltitudeMeters>703.5999755859375</AltitudeMeters>
            <DistanceMeters>17888.446343208</DistanceMeters>
          </Trackpoint>
          <Trackpoint>
            <Time>2021-08-28T06:09:03.000Z</Time>
            <Position>
              <LatitudeDegrees>38.11588634736835956573486328125</LatitudeDegrees>
              <LongitudeDegrees>-1.865599416196346282958984375</LongitudeDegrees>
            </Position>
            <AltitudeMeters>703.79998779296875</AltitudeMeters>
            <DistanceMeters>17892.926729345</DistanceMeters>
          </Trackpoint>
          <Trackpoint>
            <Time>2021-08-28T06:09:07.000Z</Time>
            <Position>
              <LatitudeDegrees>38.1158985011279582977294921875</LatitudeDegrees>
              <LongitudeDegrees>-1.86539866961538791656494140625</LongitudeDegrees>
            </Position>
            <AltitudeMeters>704.79998779296875</AltitudeMeters>
            <DistanceMeters>17910.557706389</DistanceMeters>
          </Trackpoint>
          <Trackpoint>
            <Time>2021-08-28T06:09:10.000Z</Time>
            <Position>
              <LatitudeDegrees>38.1159015186131000518798828125</LatitudeDegrees>
              <LongitudeDegrees>-1.86525441706180572509765625</LongitudeDegrees>
            </Position>
            <AltitudeMeters>705.5999755859375</AltitudeMeters>
            <DistanceMeters>17923.194473057</DistanceMeters>
          </Trackpoint>
          <Trackpoint>
            <Time>2021-08-28T06:09:11.000Z</Time>
            <Position>
              <LatitudeDegrees>38.1159062124788761138916015625</LatitudeDegrees>
              <LongitudeDegrees>-1.86520521529018878936767578125</LongitudeDegrees>
            </Position>
            <AltitudeMeters>706</AltitudeMeters>
            <DistanceMeters>17927.53460433</DistanceMeters>
          </Trackpoint>
          <Trackpoint>
            <Time>2021-08-28T06:09:16.000Z</Time>
            <Position>
              <LatitudeDegrees>38.11591937206685543060302734375</LatitudeDegrees>
              <LongitudeDegrees>-1.86495878733694553375244140625</LongitudeDegrees>
            </Position>
            <AltitudeMeters>707.20001220703125</AltitudeMeters>
            <DistanceMeters>17949.163569637</DistanceMeters>
          </Trackpoint>
          <Trackpoint>
            <Time>2021-08-28T06:09:19.000Z</Time>
            <Position>
              <LatitudeDegrees>38.1159402430057525634765625</LatitudeDegrees>
              <LongitudeDegrees>-1.8648267723619937896728515625</LongitudeDegrees>
            </Position>
            <AltitudeMeters>707.5999755859375</AltitudeMeters>
            <DistanceMeters>17960.955308995</DistanceMeters>
          </Trackpoint>
          <Trackpoint>
            <Time>2021-08-28T06:09:20.000Z</Time>
            <Position>
              <LatitudeDegrees>38.115946613252162933349609375</LatitudeDegrees>
              <LongitudeDegrees>-1.86477807350456714630126953125</LongitudeDegrees>
            </Position>
            <AltitudeMeters>707.79998779296875</AltitudeMeters>
            <DistanceMeters>17965.278763428</DistanceMeters>
          </Trackpoint>
          <Trackpoint>
            <Time>2021-08-28T06:09:23.000Z</Time>
            <Position>
              <LatitudeDegrees>38.11597033403813838958740234375</LatitudeDegrees>
              <LongitudeDegrees>-1.8646274507045745849609375</LongitudeDegrees>
            </Position>
            <AltitudeMeters>708.4000244140625</AltitudeMeters>
            <DistanceMeters>17978.730331061</DistanceMeters>
          </Trackpoint>
          <Trackpoint>
            <Time>2021-08-28T06:09:27.000Z</Time>
            <Position>
              <LatitudeDegrees>38.11603210866451263427734375</LatitudeDegrees>
              <LongitudeDegrees>-1.8644485808908939361572265625</LongitudeDegrees>
            </Position>
            <AltitudeMeters>709.4000244140625</AltitudeMeters>
            <DistanceMeters>17995.835931519</DistanceMeters>
          </Trackpoint>
          <Trackpoint>
            <Time>2021-08-28T06:09:30.000Z</Time>
            <Position>
              <LatitudeDegrees>38.11610595323145389556884765625</LatitudeDegrees>
              <LongitudeDegrees>-1.86434389092028141021728515625</LongitudeDegrees>
            </Position>
            <AltitudeMeters>710.20001220703125</AltitudeMeters>
            <DistanceMeters>18008.148035046</DistanceMeters>
          </Trackpoint>
          <Trackpoint>
            <Time>2021-08-28T06:09:31.000Z</Time>
            <Position>
              <LatitudeDegrees>38.11613361351191997528076171875</LatitudeDegrees>
              <LongitudeDegrees>-1.86431170441210269927978515625</LongitudeDegrees>
            </Position>
            <AltitudeMeters>710.4000244140625</AltitudeMeters>
            <DistanceMeters>18012.322726356</DistanceMeters>
          </Trackpoint>
          <Trackpoint>
            <Time>2021-08-28T06:09:33.000Z</Time>
            <Position>
              <LatitudeDegrees>38.116196058690547943115234375</LatitudeDegrees>
              <LongitudeDegrees>-1.8642524443566799163818359375</LongitudeDegrees>
            </Position>
            <AltitudeMeters>711</AltitudeMeters>
            <DistanceMeters>18020.996224316</DistanceMeters>
          </Trackpoint>
          <Trackpoint>
            <Time>2021-08-28T06:09:35.000Z</Time>
            <Position>
              <LatitudeDegrees>38.1162669695913791656494140625</LatitudeDegrees>
              <LongitudeDegrees>-1.8642088584601879119873046875</LongitudeDegrees>
            </Position>
            <AltitudeMeters>711.79998779296875</AltitudeMeters>
            <DistanceMeters>18029.762921562</DistanceMeters>
          </Trackpoint>
          <Trackpoint>
            <Time>2021-08-28T06:09:39.000Z</Time>
            <Position>
              <LatitudeDegrees>38.1164165027439594268798828125</LatitudeDegrees>
              <LongitudeDegrees>-1.86415898613631725311279296875</LongitudeDegrees>
            </Position>
            <AltitudeMeters>712.4000244140625</AltitudeMeters>
            <DistanceMeters>18046.969843032</DistanceMeters>
          </Trackpoint>
          <Trackpoint>
            <Time>2021-08-28T06:09:40.000Z</Time>
            <Position>
              <LatitudeDegrees>38.11645564623177051544189453125</LatitudeDegrees>
              <LongitudeDegrees>-1.86415613628923892974853515625</LongitudeDegrees>
            </Position>
            <AltitudeMeters>712.4000244140625</AltitudeMeters>
            <DistanceMeters>18051.334870099</DistanceMeters>
          </Trackpoint>
          <Trackpoint>
            <Time>2021-08-28T06:09:43.000Z</Time>
            <Position>
              <LatitudeDegrees>38.11656662262976169586181640625</LatitudeDegrees>
              <LongitudeDegrees>-1.86417482793331146240234375</LongitudeDegrees>
            </Position>
            <AltitudeMeters>712.79998779296875</AltitudeMeters>
            <DistanceMeters>18063.794608227</DistanceMeters>
          </Trackpoint>
          <Trackpoint>
            <Time>2021-08-28T06:09:45.000Z</Time>
            <Position>
              <LatitudeDegrees>38.11663820408284664154052734375</LatitudeDegrees>
              <LongitudeDegrees>-1.86419134028255939483642578125</LongitudeDegrees>
            </Position>
            <AltitudeMeters>713.4000244140625</AltitudeMeters>
            <DistanceMeters>18071.892534822</DistanceMeters>
          </Trackpoint>
          <Trackpoint>
            <Time>2021-08-28T06:09:47.000Z</Time>
            <Position>
              <LatitudeDegrees>38.1167102046310901641845703125</LatitudeDegrees>
              <LongitudeDegrees>-1.86421497724950313568115234375</LongitudeDegrees>
            </Position>
            <AltitudeMeters>714.20001220703125</AltitudeMeters>
            <DistanceMeters>18080.169137984</DistanceMeters>
          </Trackpoint>
          <Trackpoint>
            <Time>2021-08-28T06:09:50.000Z</Time>
            <Position>
              <LatitudeDegrees>38.11682059429585933685302734375</LatitudeDegrees>
              <LongitudeDegrees>-1.86424917541444301605224609375</LongitudeDegrees>
            </Position>
            <AltitudeMeters>714.79998779296875</AltitudeMeters>
            <DistanceMeters>18092.815547905</DistanceMeters>
          </Trackpoint>
          <Trackpoint>
            <Time>2021-08-28T06:09:52.000Z</Time>
            <Position>
              <LatitudeDegrees>38.11689469031989574432373046875</LatitudeDegrees>
              <LongitudeDegrees>-1.86427541077136993408203125</LongitudeDegrees>
            </Position>
            <AltitudeMeters>715.4000244140625</AltitudeMeters>
            <DistanceMeters>18101.376394851</DistanceMeters>
          </Trackpoint>
          <Trackpoint>
            <Time>2021-08-28T06:09:55.000Z</Time>
            <Position>
              <LatitudeDegrees>38.11699896119534969329833984375</LatitudeDegrees>
              <LongitudeDegrees>-1.8643270432949066162109375</LongitudeDegrees>
            </Position>
            <AltitudeMeters>716</AltitudeMeters>
            <DistanceMeters>18113.831783777</DistanceMeters>
          </Trackpoint>
          <Trackpoint>
            <Time>2021-08-28T06:09:58.000Z</Time>
            <Position>
              <LatitudeDegrees>38.11708780936896800994873046875</LatitudeDegrees>
              <LongitudeDegrees>-1.8644043244421482086181640625</LongitudeDegrees>
            </Position>
            <AltitudeMeters>716.4000244140625</AltitudeMeters>
            <DistanceMeters>18125.814573333</DistanceMeters>
          </Trackpoint>
          <Trackpoint>
            <Time>2021-08-28T06:10:00.000Z</Time>
            <Position>
              <LatitudeDegrees>38.11714346520602703094482421875</LatitudeDegrees>
              <LongitudeDegrees>-1.8644697032868862152099609375</LongitudeDegrees>
            </Position>
            <AltitudeMeters>716.79998779296875</AltitudeMeters>
            <DistanceMeters>18134.250034338</DistanceMeters>
          </Trackpoint>
          <Trackpoint>
            <Time>2021-08-28T06:10:01.000Z</Time>
            <Position>
              <LatitudeDegrees>38.1171691976487636566162109375</LatitudeDegrees>
              <LongitudeDegrees>-1.86450608074665069580078125</LongitudeDegrees>
            </Position>
            <AltitudeMeters>717</AltitudeMeters>
            <DistanceMeters>18138.533621075</DistanceMeters>
          </Trackpoint>
          <Trackpoint>
            <Time>2021-08-28T06:10:03.000Z</Time>
            <Position>
              <LatitudeDegrees>38.117217980325222015380859375</LatitudeDegrees>
              <LongitudeDegrees>-1.86458277516067028045654296875</LongitudeDegrees>
            </Position>
            <AltitudeMeters>717.4000244140625</AltitudeMeters>
            <DistanceMeters>18147.170080502</DistanceMeters>
          </Trackpoint>
          <Trackpoint>
            <Time>2021-08-28T06:10:06.000Z</Time>
            <Position>
              <LatitudeDegrees>38.1172831915318965911865234375</LatitudeDegrees>
              <LongitudeDegrees>-1.864706575870513916015625</LongitudeDegrees>
            </Position>
            <AltitudeMeters>718.5999755859375</AltitudeMeters>
            <DistanceMeters>18160.216109814</DistanceMeters>
          </Trackpoint>
          <Trackpoint>
            <Time>2021-08-28T06:10:08.000Z</Time>
            <Position>
              <LatitudeDegrees>38.11732552014291286468505859375</LatitudeDegrees>
              <LongitudeDegrees>-1.86478595249354839324951171875</LongitudeDegrees>
            </Position>
            <AltitudeMeters>718.79998779296875</AltitudeMeters>
            <DistanceMeters>18168.612407022</DistanceMeters>
          </Trackpoint>
          <Trackpoint>
            <Time>2021-08-28T06:10:10.000Z</Time>
            <Position>
              <LatitudeDegrees>38.1173618137836456298828125</LatitudeDegrees>
              <LongitudeDegrees>-1.86486474238336086273193359375</LongitudeDegrees>
            </Position>
            <AltitudeMeters>719.20001220703125</AltitudeMeters>
            <DistanceMeters>18176.607085319</DistanceMeters>
          </Trackpoint>
          <Trackpoint>
            <Time>2021-08-28T06:10:12.000Z</Time>
            <Position>
              <LatitudeDegrees>38.11740162782371044158935546875</LatitudeDegrees>
              <LongitudeDegrees>-1.86494017951190471649169921875</LongitudeDegrees>
            </Position>
            <AltitudeMeters>719.5999755859375</AltitudeMeters>
            <DistanceMeters>18184.561564915</DistanceMeters>
          </Trackpoint>
          <Trackpoint>
            <Time>2021-08-28T06:10:16.000Z</Time>
            <Position>
              <LatitudeDegrees>38.11748343519866466522216796875</LatitudeDegrees>
              <LongitudeDegrees>-1.8650909699499607086181640625</LongitudeDegrees>
            </Position>
            <AltitudeMeters>720.4000244140625</AltitudeMeters>
            <DistanceMeters>18200.601105989</DistanceMeters>
          </Trackpoint>
          <Trackpoint>
            <Time>2021-08-28T06:10:17.000Z</Time>
            <Position>
              <LatitudeDegrees>38.11750061810016632080078125</LatitudeDegrees>
              <LongitudeDegrees>-1.86513111926615238189697265625</LongitudeDegrees>
            </Position>
            <AltitudeMeters>720.79998779296875</AltitudeMeters>
            <DistanceMeters>18204.60352471</DistanceMeters>
          </Trackpoint>
          <Trackpoint>
            <Time>2021-08-28T06:10:20.000Z</Time>
            <Position>
              <LatitudeDegrees>38.117565326392650604248046875</LatitudeDegrees>
              <LongitudeDegrees>-1.86523974873125553131103515625</LongitudeDegrees>
            </Position>
            <AltitudeMeters>721.5999755859375</AltitudeMeters>
            <DistanceMeters>18216.534960295</DistanceMeters>
          </Trackpoint>
          <Trackpoint>
            <Time>2021-08-28T06:10:21.000Z</Time>
            <Position>
              <LatitudeDegrees>38.11758485622704029083251953125</LatitudeDegrees>
              <LongitudeDegrees>-1.8652760423719882965087890625</LongitudeDegrees>
            </Position>
            <AltitudeMeters>721.79998779296875</AltitudeMeters>
            <DistanceMeters>18220.385594726</DistanceMeters>
          </Trackpoint>
          <Trackpoint>
            <Time>2021-08-28T06:10:24.000Z</Time>
            <Position>
              <LatitudeDegrees>38.117647133767604827880859375</LatitudeDegrees>
              <LongitudeDegrees>-1.86538928188383579254150390625</LongitudeDegrees>
            </Position>
            <AltitudeMeters>722.4000244140625</AltitudeMeters>
            <DistanceMeters>18232.483880104</DistanceMeters>
          </Trackpoint>
          <Trackpoint>
            <Time>2021-08-28T06:10:27.000Z</Time>
            <Position>
              <LatitudeDegrees>38.11770924367010593414306640625</LatitudeDegrees>
              <LongitudeDegrees>-1.8655040301382541656494140625</LongitudeDegrees>
            </Position>
            <AltitudeMeters>723.20001220703125</AltitudeMeters>
            <DistanceMeters>18244.679921232</DistanceMeters>
          </Trackpoint>
          <Trackpoint>
            <Time>2021-08-28T06:10:30.000Z</Time>
            <Position>
              <LatitudeDegrees>38.11776959337294101715087890625</LatitudeDegrees>
              <LongitudeDegrees>-1.86561651527881622314453125</LongitudeDegrees>
            </Position>
            <AltitudeMeters>723.79998779296875</AltitudeMeters>
            <DistanceMeters>18256.60189268</DistanceMeters>
          </Trackpoint>
          <Trackpoint>
            <Time>2021-08-28T06:10:32.000Z</Time>
            <Position>
              <LatitudeDegrees>38.11781083233654499053955078125</LatitudeDegrees>
              <LongitudeDegrees>-1.8656870909035205841064453125</LongitudeDegrees>
            </Position>
            <AltitudeMeters>724.4000244140625</AltitudeMeters>
            <DistanceMeters>18264.299643107</DistanceMeters>
          </Trackpoint>
          <Trackpoint>
            <Time>2021-08-28T06:10:38.000Z</Time>
            <Position>
              <LatitudeDegrees>38.1179423443973064422607421875</LatitudeDegrees>
              <LongitudeDegrees>-1.8658889271318912506103515625</LongitudeDegrees>
            </Position>
            <AltitudeMeters>725.4000244140625</AltitudeMeters>
            <DistanceMeters>18287.248151952</DistanceMeters>
          </Trackpoint>
          <Trackpoint>
            <Time>2021-08-28T06:10:39.000Z</Time>
            <Position>
              <LatitudeDegrees>38.1179653108119964599609375</LatitudeDegrees>
              <LongitudeDegrees>-1.86592253856360912322998046875</LongitudeDegrees>
            </Position>
            <AltitudeMeters>725.79998779296875</AltitudeMeters>
            <DistanceMeters>18291.145405931</DistanceMeters>
          </Trackpoint>
          <Trackpoint>
            <Time>2021-08-28T06:10:40.000Z</Time>
            <Position>
              <LatitudeDegrees>38.1179886125028133392333984375</LatitudeDegrees>
              <LongitudeDegrees>-1.86595807783305644989013671875</LongitudeDegrees>
            </Position>
            <AltitudeMeters>726</AltitudeMeters>
            <DistanceMeters>18295.197156044</DistanceMeters>
          </Trackpoint>
          <Trackpoint>
            <Time>2021-08-28T06:10:43.000Z</Time>
            <Position>
              <LatitudeDegrees>38.1180539913475513458251953125</LatitudeDegrees>
              <LongitudeDegrees>-1.86605564318597316741943359375</LongitudeDegrees>
            </Position>
            <AltitudeMeters>726.5999755859375</AltitudeMeters>
            <DistanceMeters>18306.419565596</DistanceMeters>
          </Trackpoint>
          <Trackpoint>
            <Time>2021-08-28T06:10:46.000Z</Time>
            <Position>
              <LatitudeDegrees>38.11812448315322399139404296875</LatitudeDegrees>
              <LongitudeDegrees>-1.8661470897495746612548828125</LongitudeDegrees>
            </Position>
            <AltitudeMeters>727.4000244140625</AltitudeMeters>
            <DistanceMeters>18317.630301698</DistanceMeters>
          </Trackpoint>
          <Trackpoint>
            <Time>2021-08-28T06:10:48.000Z</Time>
            <Position>
              <LatitudeDegrees>38.11817645095288753509521484375</LatitudeDegrees>
              <LongitudeDegrees>-1.866214312613010406494140625</LongitudeDegrees>
            </Position>
            <AltitudeMeters>727.79998779296875</AltitudeMeters>
            <DistanceMeters>18325.883414239</DistanceMeters>
          </Trackpoint>
          <Trackpoint>
            <Time>2021-08-28T06:10:50.000Z</Time>
            <Position>
              <LatitudeDegrees>38.11822975985705852508544921875</LatitudeDegrees>
              <LongitudeDegrees>-1.86628036201000213623046875</LongitudeDegrees>
            </Position>
            <AltitudeMeters>728</AltitudeMeters>
            <DistanceMeters>18334.169830912</DistanceMeters>
          </Trackpoint>
          <Trackpoint>
            <Time>2021-08-28T06:10:52.000Z</Time>
            <Position>
              <LatitudeDegrees>38.118282146751880645751953125</LatitudeDegrees>
              <LongitudeDegrees>-1.86634683050215244293212890625</LongitudeDegrees>
            </Position>
            <AltitudeMeters>728.4000244140625</AltitudeMeters>
            <DistanceMeters>18342.40870733</DistanceMeters>
          </Trackpoint>
          <Trackpoint>
            <Time>2021-08-28T06:10:54.000Z</Time>
            <Position>
              <LatitudeDegrees>38.1183302588760852813720703125</LatitudeDegrees>
              <LongitudeDegrees>-1.8664193339645862579345703125</LongitudeDegrees>
            </Position>
            <AltitudeMeters>729</AltitudeMeters>
            <DistanceMeters>18350.713628996</DistanceMeters>
          </Trackpoint>
          <Trackpoint>
            <Time>2021-08-28T06:10:58.000Z</Time>
            <Position>
              <LatitudeDegrees>38.11842539347708225250244140625</LatitudeDegrees>
              <LongitudeDegrees>-1.86656878329813480377197265625</LongitudeDegrees>
            </Position>
            <AltitudeMeters>730</AltitudeMeters>
            <DistanceMeters>18367.547578591</DistanceMeters>
          </Trackpoint>
          <Trackpoint>
            <Time>2021-08-28T06:10:59.000Z</Time>
            <Position>
              <LatitudeDegrees>38.11844752170145511627197265625</LatitudeDegrees>
              <LongitudeDegrees>-1.8666070885956287384033203125</LongitudeDegrees>
            </Position>
            <AltitudeMeters>730.20001220703125</AltitudeMeters>
            <DistanceMeters>18371.70927135</DistanceMeters>
          </Trackpoint>
          <Trackpoint>
            <Time>2021-08-28T06:11:00.000Z</Time>
            <Position>
              <LatitudeDegrees>38.118467219173908233642578125</LatitudeDegrees>
              <LongitudeDegrees>-1.86664438806474208831787109375</LongitudeDegrees>
            </Position>
            <AltitudeMeters>730.4000244140625</AltitudeMeters>
            <DistanceMeters>18375.643423231</DistanceMeters>
          </Trackpoint>
          <Trackpoint>
            <Time>2021-08-28T06:11:04.000Z</Time>
            <Position>
              <LatitudeDegrees>38.11854139901697635650634765625</LatitudeDegrees>
              <LongitudeDegrees>-1.8667973577976226806640625</LongitudeDegrees>
            </Position>
            <AltitudeMeters>731</AltitudeMeters>
            <DistanceMeters>18391.378309184</DistanceMeters>
          </Trackpoint>
          <Trackpoint>
            <Time>2021-08-28T06:11:05.000Z</Time>
            <Position>
              <LatitudeDegrees>38.11856688000261783599853515625</LatitudeDegrees>
              <LongitudeDegrees>-1.86682946048676967620849609375</LongitudeDegrees>
            </Position>
            <AltitudeMeters>731.20001220703125</AltitudeMeters>
            <DistanceMeters>18395.371693087</DistanceMeters>
          </Trackpoint>
          <Trackpoint>
            <Time>2021-08-28T06:11:08.000Z</Time>
            <Position>
              <LatitudeDegrees>38.1186494417488574981689453125</LatitudeDegrees>
              <LongitudeDegrees>-1.866918392479419708251953125</LongitudeDegrees>
            </Position>
            <AltitudeMeters>732.4000244140625</AltitudeMeters>
            <DistanceMeters>18407.417242817</DistanceMeters>
          </Trackpoint>
          <Trackpoint>
            <Time>2021-08-28T06:11:10.000Z</Time>
            <Position>
              <LatitudeDegrees>38.11871188692748546600341796875</LatitudeDegrees>
              <LongitudeDegrees>-1.86696725897490978240966796875</LongitudeDegrees>
            </Position>
            <AltitudeMeters>732.5999755859375</AltitudeMeters>
            <DistanceMeters>18415.579036366</DistanceMeters>
          </Trackpoint>
          <Trackpoint>
            <Time>2021-08-28T06:11:11.000Z</Time>
            <Position>
              <LatitudeDegrees>38.1187473423779010772705078125</LatitudeDegrees>
              <LongitudeDegrees>-1.86698603443801403045654296875</LongitudeDegrees>
            </Position>
            <AltitudeMeters>733</AltitudeMeters>
            <DistanceMeters>18419.85418253</DistanceMeters>
          </Trackpoint>
          <Trackpoint>
            <Time>2021-08-28T06:11:12.000Z</Time>
            <Position>
              <LatitudeDegrees>38.11878363601863384246826171875</LatitudeDegrees>
              <LongitudeDegrees>-1.86700263060629367828369140625</LongitudeDegrees>
            </Position>
            <AltitudeMeters>733.4000244140625</AltitudeMeters>
            <DistanceMeters>18424.148296652</DistanceMeters>
          </Trackpoint>
          <Trackpoint>
            <Time>2021-08-28T06:11:17.000Z</Time>
            <Position>
              <LatitudeDegrees>38.1189659424126148223876953125</LatitudeDegrees>
              <LongitudeDegrees>-1.867072619497776031494140625</LongitudeDegrees>
            </Position>
            <AltitudeMeters>734.5999755859375</AltitudeMeters>
            <DistanceMeters>18445.344579897</DistanceMeters>
          </Trackpoint>
          <Trackpoint>
            <Time>2021-08-28T06:11:19.000Z</Time>
            <Position>
              <LatitudeDegrees>38.119041882455348968505859375</LatitudeDegrees>
              <LongitudeDegrees>-1.86708904802799224853515625</LongitudeDegrees>
            </Position>
            <AltitudeMeters>735.20001220703125</AltitudeMeters>
            <DistanceMeters>18453.918075232</DistanceMeters>
          </Trackpoint>
          <Trackpoint>
            <Time>2021-08-28T06:11:20.000Z</Time>
            <Position>
              <LatitudeDegrees>38.11907968483865261077880859375</LatitudeDegrees>
              <LongitudeDegrees>-1.86709634028375148773193359375</LongitudeDegrees>
            </Position>
            <AltitudeMeters>735.5999755859375</AltitudeMeters>
            <DistanceMeters>18458.174168904</DistanceMeters>
          </Trackpoint>
          <Trackpoint>
            <Time>2021-08-28T06:11:21.000Z</Time>
            <Position>
              <LatitudeDegrees>38.119116984307765960693359375</LatitudeDegrees>
              <LongitudeDegrees>-1.86709851957857608795166015625</LongitudeDegrees>
            </Position>
            <AltitudeMeters>735.79998779296875</AltitudeMeters>
            <DistanceMeters>18462.331519781</DistanceMeters>
          </Trackpoint>
          <Trackpoint>
            <Time>2021-08-28T06:11:25.000Z</Time>
            <Position>
              <LatitudeDegrees>38.1192562915384769439697265625</LatitudeDegrees>
              <LongitudeDegrees>-1.8670751340687274932861328125</LongitudeDegrees>
            </Position>
            <AltitudeMeters>736.5999755859375</AltitudeMeters>
            <DistanceMeters>18477.971427412</DistanceMeters>
          </Trackpoint>
          <Trackpoint>
            <Time>2021-08-28T06:11:26.000Z</Time>
            <Position>
              <LatitudeDegrees>38.11929208226501941680908203125</LatitudeDegrees>
              <LongitudeDegrees>-1.86705862171947956085205078125</LongitudeDegrees>
            </Position>
            <AltitudeMeters>736.79998779296875</AltitudeMeters>
            <DistanceMeters>18482.20838292</DistanceMeters>
          </Trackpoint>
          <Trackpoint>
            <Time>2021-08-28T06:11:30.000Z</Time>
            <Position>
              <LatitudeDegrees>38.119430132210254669189453125</LatitudeDegrees>
              <LongitudeDegrees>-1.866966672241687774658203125</LongitudeDegrees>
            </Position>
            <AltitudeMeters>737.79998779296875</AltitudeMeters>
            <DistanceMeters>18499.555378839</DistanceMeters>
          </Trackpoint>
          <Trackpoint>
            <Time>2021-08-28T06:11:31.000Z</Time>
            <Position>
              <LatitudeDegrees>38.119463659822940826416015625</LatitudeDegrees>
              <LongitudeDegrees>-1.8669386766850948333740234375</LongitudeDegrees>
            </Position>
            <AltitudeMeters>738</AltitudeMeters>
            <DistanceMeters>18504.018600616</DistanceMeters>
          </Trackpoint>
          <Trackpoint>
            <Time>2021-08-28T06:11:34.000Z</Time>
            <Position>
              <LatitudeDegrees>38.11956248246133327484130859375</LatitudeDegrees>
              <LongitudeDegrees>-1.8668471463024616241455078125</LongitudeDegrees>
            </Position>
            <AltitudeMeters>739</AltitudeMeters>
            <DistanceMeters>18517.627673614</DistanceMeters>
          </Trackpoint>
          <Trackpoint>
            <Time>2021-08-28T06:11:39.000Z</Time>
            <Position>
              <LatitudeDegrees>38.1197166256606578826904296875</LatitudeDegrees>
              <LongitudeDegrees>-1.8666992895305156707763671875</LongitudeDegrees>
            </Position>
            <AltitudeMeters>740</AltitudeMeters>
            <DistanceMeters>18539.121153574</DistanceMeters>
          </Trackpoint>
          <Trackpoint>
            <Time>2021-08-28T06:11:40.000Z</Time>
            <Position>
              <LatitudeDegrees>38.1197451241314411163330078125</LatitudeDegrees>
              <LongitudeDegrees>-1.86667087487876415252685546875</LongitudeDegrees>
            </Position>
            <AltitudeMeters>740.5999755859375</AltitudeMeters>
            <DistanceMeters>18543.152795622</DistanceMeters>
          </Trackpoint>
          <Trackpoint>
            <Time>2021-08-28T06:11:42.000Z</Time>
            <Position>
              <LatitudeDegrees>38.11980195343494415283203125</LatitudeDegrees>
              <LongitudeDegrees>-1.8666117824614048004150390625</LongitudeDegrees>
            </Position>
            <AltitudeMeters>741.20001220703125</AltitudeMeters>
            <DistanceMeters>18551.325093058</DistanceMeters>
          </Trackpoint>
          <Trackpoint>
            <Time>2021-08-28T06:11:47.000Z</Time>
            <Position>
              <LatitudeDegrees>38.11994872055947780609130859375</LatitudeDegrees>
              <LongitudeDegrees>-1.8664647638797760009765625</LongitudeDegrees>
            </Position>
            <AltitudeMeters>742.20001220703125</AltitudeMeters>
            <DistanceMeters>18572.123573338</DistanceMeters>
          </Trackpoint>
          <Trackpoint>
            <Time>2021-08-28T06:11:49.000Z</Time>
            <Position>
              <LatitudeDegrees>38.12000982463359832763671875</LatitudeDegrees>
              <LongitudeDegrees>-1.8664149753749370574951171875</LongitudeDegrees>
            </Position>
            <AltitudeMeters>742.5999755859375</AltitudeMeters>
            <DistanceMeters>18580.201961943</DistanceMeters>
          </Trackpoint>
          <Trackpoint>
            <Time>2021-08-28T06:11:50.000Z</Time>
            <Position>
              <LatitudeDegrees>38.12003890983760356903076171875</LatitudeDegrees>
              <LongitudeDegrees>-1.8663925118744373321533203125</LongitudeDegrees>
            </Position>
            <AltitudeMeters>742.79998779296875</AltitudeMeters>
            <DistanceMeters>18583.988749684</DistanceMeters>
          </Trackpoint>
          <Trackpoint>
            <Time>2021-08-28T06:11:51.000Z</Time>
            <Position>
              <LatitudeDegrees>38.12006791122257709503173828125</LatitudeDegrees>
              <LongitudeDegrees>-1.86637080274522304534912109375</LongitudeDegrees>
            </Position>
            <AltitudeMeters>743.20001220703125</AltitudeMeters>
            <DistanceMeters>18587.734779422</DistanceMeters>
          </Trackpoint>
          <Trackpoint>
            <Time>2021-08-28T06:11:57.000Z</Time>
            <Position>
              <LatitudeDegrees>38.1202748604118824005126953125</LatitudeDegrees>
              <LongitudeDegrees>-1.866286061704158782958984375</LongitudeDegrees>
            </Position>
            <AltitudeMeters>744.4000244140625</AltitudeMeters>
            <DistanceMeters>18611.934335565</DistanceMeters>
          </Trackpoint>
          <Trackpoint>
            <Time>2021-08-28T06:12:00.000Z</Time>
            <Position>
              <LatitudeDegrees>38.12039195559918880462646484375</LatitudeDegrees>
              <LongitudeDegrees>-1.866279356181621551513671875</LongitudeDegrees>
            </Position>
            <AltitudeMeters>744.79998779296875</AltitudeMeters>
            <DistanceMeters>18624.980364877</DistanceMeters>
          </Trackpoint>
          <Trackpoint>
            <Time>2021-08-28T06:12:04.000Z</Time>
            <Position>
              <LatitudeDegrees>38.12054467387497425079345703125</LatitudeDegrees>
              <LongitudeDegrees>-1.86630207113921642303466796875</LongitudeDegrees>
            </Position>
            <AltitudeMeters>745.4000244140625</AltitudeMeters>
            <DistanceMeters>18642.094145856</DistanceMeters>
          </Trackpoint>
          <Trackpoint>
            <Time>2021-08-28T06:12:05.000Z</Time>
            <Position>
              <LatitudeDegrees>38.12058356590569019317626953125</LatitudeDegrees>
              <LongitudeDegrees>-1.8663086928427219390869140625</LongitudeDegrees>
            </Position>
            <AltitudeMeters>745.5999755859375</AltitudeMeters>
            <DistanceMeters>18646.462274921</DistanceMeters>
          </Trackpoint>
          <Trackpoint>
            <Time>2021-08-28T06:12:10.000Z</Time>
            <Position>
              <LatitudeDegrees>38.12076310627162456512451171875</LatitudeDegrees>
              <LongitudeDegrees>-1.8663623370230197906494140625</LongitudeDegrees>
            </Position>
            <AltitudeMeters>746.5999755859375</AltitudeMeters>
            <DistanceMeters>18666.990244799</DistanceMeters>
          </Trackpoint>
          <Trackpoint>
            <Time>2021-08-28T06:12:12.000Z</Time>
            <Position>
              <LatitudeDegrees>38.12083519063889980316162109375</LatitudeDegrees>
              <LongitudeDegrees>-1.8663896620273590087890625</LongitudeDegrees>
            </Position>
            <AltitudeMeters>747.20001220703125</AltitudeMeters>
            <DistanceMeters>18675.362847945</DistanceMeters>
          </Trackpoint>
          <Trackpoint>
            <Time>2021-08-28T06:12:15.000Z</Time>
            <Position>
              <LatitudeDegrees>38.120940215885639190673828125</LatitudeDegrees>
              <LongitudeDegrees>-1.8664421327412128448486328125</LongitudeDegrees>
            </Position>
            <AltitudeMeters>747.79998779296875</AltitudeMeters>
            <DistanceMeters>18687.922561532</DistanceMeters>
          </Trackpoint>
          <Trackpoint>
            <Time>2021-08-28T06:12:19.000Z</Time>
            <Position>
              <LatitudeDegrees>38.1210607476532459259033203125</LatitudeDegrees>
              <LongitudeDegrees>-1.8665665201842784881591796875</LongitudeDegrees>
            </Position>
            <AltitudeMeters>748.20001220703125</AltitudeMeters>
            <DistanceMeters>18705.202536584</DistanceMeters>
          </Trackpoint>
          <Trackpoint>
            <Time>2021-08-28T06:12:20.000Z</Time>
            <Position>
              <LatitudeDegrees>38.12108673155307769775390625</LatitudeDegrees>
              <LongitudeDegrees>-1.8666023947298526763916015625</LongitudeDegrees>
            </Position>
            <AltitudeMeters>748.4000244140625</AltitudeMeters>
            <DistanceMeters>18709.472398916</DistanceMeters>
          </Trackpoint>
          <Trackpoint>
            <Time>2021-08-28T06:12:22.000Z</Time>
            <Position>
              <LatitudeDegrees>38.121129982173442840576171875</LatitudeDegrees>
              <LongitudeDegrees>-1.8666848726570606231689453125</LongitudeDegrees>
            </Position>
            <AltitudeMeters>748.79998779296875</AltitudeMeters>
            <DistanceMeters>18718.151621099</DistanceMeters>
          </Trackpoint>
          <Trackpoint>
            <Time>2021-08-28T06:12:25.000Z</Time>
            <Position>
              <LatitudeDegrees>38.12116325832903385162353515625</LatitudeDegrees>
              <LongitudeDegrees>-1.86682744883000850677490234375</LongitudeDegrees>
            </Position>
            <AltitudeMeters>749.4000244140625</AltitudeMeters>
            <DistanceMeters>18731.173401909</DistanceMeters>
          </Trackpoint>
          <Trackpoint>
            <Time>2021-08-28T06:12:29.000Z</Time>
            <Position>
              <LatitudeDegrees>38.12119670212268829345703125</LatitudeDegrees>
              <LongitudeDegrees>-1.8670258484780788421630859375</LongitudeDegrees>
            </Position>
            <AltitudeMeters>750</AltitudeMeters>
            <DistanceMeters>18748.93983999</DistanceMeters>
          </Trackpoint>
          <Trackpoint>
            <Time>2021-08-28T06:12:30.000Z</Time>
            <Position>
              <LatitudeDegrees>38.1212062574923038482666015625</LatitudeDegrees>
              <LongitudeDegrees>-1.8670734576880931854248046875</LongitudeDegrees>
            </Position>
            <AltitudeMeters>750.20001220703125</AltitudeMeters>
            <DistanceMeters>18753.242357475</DistanceMeters>
          </Trackpoint>
          <Trackpoint>
            <Time>2021-08-28T06:12:33.000Z</Time>
            <Position>
              <LatitudeDegrees>38.12124171294271945953369140625</LatitudeDegrees>
              <LongitudeDegrees>-1.8672095797955989837646484375</LongitudeDegrees>
            </Position>
            <AltitudeMeters>750.79998779296875</AltitudeMeters>
            <DistanceMeters>18765.798116097</DistanceMeters>
          </Trackpoint>
          <Trackpoint>
            <Time>2021-08-28T06:12:34.000Z</Time>
            <Position>
              <LatitudeDegrees>38.1212605722248554229736328125</LatitudeDegrees>
              <LongitudeDegrees>-1.8672494776546955108642578125</LongitudeDegrees>
            </Position>
            <AltitudeMeters>751</AltitudeMeters>
            <DistanceMeters>18769.873200216</DistanceMeters>
          </Trackpoint>
          <Trackpoint>
            <Time>2021-08-28T06:12:39.000Z</Time>
            <Position>
              <LatitudeDegrees>38.12138185836374759674072265625</LatitudeDegrees>
              <LongitudeDegrees>-1.86742700636386871337890625</LongitudeDegrees>
            </Position>
            <AltitudeMeters>752.20001220703125</AltitudeMeters>
            <DistanceMeters>18790.461347007</DistanceMeters>
          </Trackpoint>
          <Trackpoint>
            <Time>2021-08-28T06:12:40.000Z</Time>
            <Position>
              <LatitudeDegrees>38.1214090995490550994873046875</LatitudeDegrees>
              <LongitudeDegrees>-1.86745843850076198577880859375</LongitudeDegrees>
            </Position>
            <AltitudeMeters>752.20001220703125</AltitudeMeters>
            <DistanceMeters>18794.556325878</DistanceMeters>
          </Trackpoint>
          <Trackpoint>
            <Time>2021-08-28T06:12:43.000Z</Time>
            <Position>
              <LatitudeDegrees>38.12148713506758213043212890625</LatitudeDegrees>
              <LongitudeDegrees>-1.8675606139004230499267578125</LongitudeDegrees>
            </Position>
            <AltitudeMeters>753.4000244140625</AltitudeMeters>
            <DistanceMeters>18807.025482073</DistanceMeters>
          </Trackpoint>
          <Trackpoint>
            <Time>2021-08-28T06:12:46.000Z</Time>
            <Position>
              <LatitudeDegrees>38.1215653382241725921630859375</LatitudeDegrees>
              <LongitudeDegrees>-1.86766974627971649169921875</LongitudeDegrees>
            </Position>
            <AltitudeMeters>754.4000244140625</AltitudeMeters>
            <DistanceMeters>18819.951211235</DistanceMeters>
          </Trackpoint>
          <Trackpoint>
            <Time>2021-08-28T06:12:50.000Z</Time>
            <Position>
              <LatitudeDegrees>38.12165678478777408599853515625</LatitudeDegrees>
              <LongitudeDegrees>-1.86783897690474987030029296875</LongitudeDegrees>
            </Position>
            <AltitudeMeters>755.4000244140625</AltitudeMeters>
            <DistanceMeters>18837.92809572</DistanceMeters>
          </Trackpoint>
          <Trackpoint>
            <Time>2021-08-28T06:12:51.000Z</Time>
            <Position>
              <LatitudeDegrees>38.12167354859411716461181640625</LatitudeDegrees>
              <LongitudeDegrees>-1.86788038350641727447509765625</LongitudeDegrees>
            </Position>
            <AltitudeMeters>755.79998779296875</AltitudeMeters>
            <DistanceMeters>18842.006502371</DistanceMeters>
          </Trackpoint>
          <Trackpoint>
            <Time>2021-08-28T06:12:52.000Z</Time>
            <Position>
              <LatitudeDegrees>38.1216863729059696197509765625</LatitudeDegrees>
              <LongitudeDegrees>-1.86792396940290927886962890625</LongitudeDegrees>
            </Position>
            <AltitudeMeters>756</AltitudeMeters>
            <DistanceMeters>18846.080478378</DistanceMeters>
          </Trackpoint>
          <Trackpoint>
            <Time>2021-08-28T06:12:55.000Z</Time>
            <Position>
              <LatitudeDegrees>38.1217386759817600250244140625</LatitudeDegrees>
              <LongitudeDegrees>-1.86805573292076587677001953125</LongitudeDegrees>
            </Position>
            <AltitudeMeters>756.79998779296875</AltitudeMeters>
            <DistanceMeters>18859.003412787</DistanceMeters>
          </Trackpoint>
          <Trackpoint>
            <Time>2021-08-28T06:13:00.000Z</Time>
            <Position>
              <LatitudeDegrees>38.1218142807483673095703125</LatitudeDegrees>
              <LongitudeDegrees>-1.86831473372876644134521484375</LongitudeDegrees>
            </Position>
            <AltitudeMeters>757.4000244140625</AltitudeMeters>
            <DistanceMeters>18883.19251846</DistanceMeters>
          </Trackpoint>
          <Trackpoint>
            <Time>2021-08-28T06:13:02.000Z</Time>
            <Position>
              <LatitudeDegrees>38.121853172779083251953125</LatitudeDegrees>
              <LongitudeDegrees>-1.86842051334679126739501953125</LongitudeDegrees>
            </Position>
            <AltitudeMeters>758</AltitudeMeters>
            <DistanceMeters>18893.416615727</DistanceMeters>
          </Trackpoint>
          <Trackpoint>
            <Time>2021-08-28T06:13:03.000Z</Time>
            <Position>
              <LatitudeDegrees>38.121878318488597869873046875</LatitudeDegrees>
              <LongitudeDegrees>-1.86847331933677196502685546875</LongitudeDegrees>
            </Position>
            <AltitudeMeters>758</AltitudeMeters>
            <DistanceMeters>18898.820620466</DistanceMeters>
          </Trackpoint>
          <Trackpoint>
            <Time>2021-08-28T06:13:06.000Z</Time>
            <Position>
              <LatitudeDegrees>38.121974878013134002685546875</LatitudeDegrees>
              <LongitudeDegrees>-1.8686267919838428497314453125</LongitudeDegrees>
            </Position>
            <AltitudeMeters>758.4000244140625</AltitudeMeters>
            <DistanceMeters>18916.02780433</DistanceMeters>
          </Trackpoint>
          <Trackpoint>
            <Time>2021-08-28T06:13:08.000Z</Time>
            <Position>
              <LatitudeDegrees>38.12204428017139434814453125</LatitudeDegrees>
              <LongitudeDegrees>-1.8687178194522857666015625</LongitudeDegrees>
            </Position>
            <AltitudeMeters>759</AltitudeMeters>
            <DistanceMeters>18927.126826937</DistanceMeters>
          </Trackpoint>
          <Trackpoint>
            <Time>2021-08-28T06:13:10.000Z</Time>
            <Position>
              <LatitudeDegrees>38.1221254169940948486328125</LatitudeDegrees>
              <LongitudeDegrees>-1.8687887303531169891357421875</LongitudeDegrees>
            </Position>
            <AltitudeMeters>759.20001220703125</AltitudeMeters>
            <DistanceMeters>18938.085842254</DistanceMeters>
          </Trackpoint>
          <Trackpoint>
            <Time>2021-08-28T06:13:11.000Z</Time>
            <Position>
              <LatitudeDegrees>38.12217109836637973785400390625</LatitudeDegrees>
              <LongitudeDegrees>-1.86881764791905879974365234375</LongitudeDegrees>
            </Position>
            <AltitudeMeters>759.79998779296875</AltitudeMeters>
            <DistanceMeters>18943.766023865</DistanceMeters>
          </Trackpoint>
          <Trackpoint>
            <Time>2021-08-28T06:13:12.000Z</Time>
            <Position>
              <LatitudeDegrees>38.122220300137996673583984375</LatitudeDegrees>
              <LongitudeDegrees>-1.86884321272373199462890625</LongitudeDegrees>
            </Position>
            <AltitudeMeters>760</AltitudeMeters>
            <DistanceMeters>18949.682152354</DistanceMeters>
          </Trackpoint>
          <Trackpoint>
            <Time>2021-08-28T06:13:15.000Z</Time>
            <Position>
              <LatitudeDegrees>38.122362457215785980224609375</LatitudeDegrees>
              <LongitudeDegrees>-1.86889224685728549957275390625</LongitudeDegrees>
            </Position>
            <AltitudeMeters>761.20001220703125</AltitudeMeters>
            <DistanceMeters>18966.076395102</DistanceMeters>
          </Trackpoint>
          <Trackpoint>
            <Time>2021-08-28T06:13:16.000Z</Time>
            <Position>
              <LatitudeDegrees>38.12240906059741973876953125</LatitudeDegrees>
              <LongitudeDegrees>-1.86889895237982273101806640625</LongitudeDegrees>
            </Position>
            <AltitudeMeters>761.5999755859375</AltitudeMeters>
            <DistanceMeters>18971.295083687</DistanceMeters>
          </Trackpoint>
          <Trackpoint>
            <Time>2021-08-28T06:13:17.000Z</Time>
            <Position>
              <LatitudeDegrees>38.12245599925518035888671875</LatitudeDegrees>
              <LongitudeDegrees>-1.86890649609267711639404296875</LongitudeDegrees>
            </Position>
            <AltitudeMeters>761.79998779296875</AltitudeMeters>
            <DistanceMeters>18976.560284033</DistanceMeters>
          </Trackpoint>
          <Trackpoint>
            <Time>2021-08-28T06:13:20.000Z</Time>
            <Position>
              <LatitudeDegrees>38.12259455211460590362548828125</LatitudeDegrees>
              <LongitudeDegrees>-1.86893315054476261138916015625</LongitudeDegrees>
            </Position>
            <AltitudeMeters>762.4000244140625</AltitudeMeters>
            <DistanceMeters>18992.157117985</DistanceMeters>
          </Trackpoint>
          <Trackpoint>
            <Time>2021-08-28T06:13:25.000Z</Time>
            <Position>
              <LatitudeDegrees>38.122829496860504150390625</LatitudeDegrees>
              <LongitudeDegrees>-1.86900456435978412628173828125</LongitudeDegrees>
            </Position>
            <AltitudeMeters>763.5999755859375</AltitudeMeters>
            <DistanceMeters>19019.044473005</DistanceMeters>
          </Trackpoint>
          <Trackpoint>
            <Time>2021-08-28T06:13:26.000Z</Time>
            <Position>
              <LatitudeDegrees>38.1228749267756938934326171875</LatitudeDegrees>
              <LongitudeDegrees>-1.86902971006929874420166015625</LongitudeDegrees>
            </Position>
            <AltitudeMeters>764</AltitudeMeters>
            <DistanceMeters>19024.559298248</DistanceMeters>
          </Trackpoint>
          <Trackpoint>
            <Time>2021-08-28T06:13:28.000Z</Time>
            <Position>
              <LatitudeDegrees>38.12297106720507144927978515625</LatitudeDegrees>
              <LongitudeDegrees>-1.86910313554108142852783203125</LongitudeDegrees>
            </Position>
            <AltitudeMeters>764.5999755859375</AltitudeMeters>
            <DistanceMeters>19037.04256822</DistanceMeters>
          </Trackpoint>
          <Trackpoint>
            <Time>2021-08-28T06:13:29.000Z</Time>
            <Position>
              <LatitudeDegrees>38.12301599420607089996337890625</LatitudeDegrees>
              <LongitudeDegrees>-1.86915208585560321807861328125</LongitudeDegrees>
            </Position>
            <AltitudeMeters>764.79998779296875</AltitudeMeters>
            <DistanceMeters>19043.628269182</DistanceMeters>
          </Trackpoint>
          <Trackpoint>
            <Time>2021-08-28T06:13:30.000Z</Time>
            <Position>
              <LatitudeDegrees>38.12306242994964122772216796875</LatitudeDegrees>
              <LongitudeDegrees>-1.86920522712171077728271484375</LongitudeDegrees>
            </Position>
            <AltitudeMeters>765.20001220703125</AltitudeMeters>
            <DistanceMeters>19050.582770561</DistanceMeters>
          </Trackpoint>
          <Trackpoint>
            <Time>2021-08-28T06:13:32.000Z</Time>
            <Position>
              <LatitudeDegrees>38.1231387890875339508056640625</LatitudeDegrees>
              <LongitudeDegrees>-1.86932190321385860443115234375</LongitudeDegrees>
            </Position>
            <AltitudeMeters>766</AltitudeMeters>
            <DistanceMeters>19063.871909172</DistanceMeters>
          </Trackpoint>
          <Trackpoint>
            <Time>2021-08-28T06:13:34.000Z</Time>
            <Position>
              <LatitudeDegrees>38.12320140190422534942626953125</LatitudeDegrees>
              <LongitudeDegrees>-1.86943271197378635406494140625</LongitudeDegrees>
            </Position>
            <AltitudeMeters>766.4000244140625</AltitudeMeters>
            <DistanceMeters>19075.817715886</DistanceMeters>
          </Trackpoint>
          <Trackpoint>
            <Time>2021-08-28T06:13:37.000Z</Time>
            <Position>
              <LatitudeDegrees>38.1232749111950397491455078125</LatitudeDegrees>
              <LongitudeDegrees>-1.86957570724189281463623046875</LongitudeDegrees>
            </Position>
            <AltitudeMeters>767.20001220703125</AltitudeMeters>
            <DistanceMeters>19090.774691309</DistanceMeters>
          </Trackpoint>
          <Trackpoint>
            <Time>2021-08-28T06:13:40.000Z</Time>
            <Position>
              <LatitudeDegrees>38.12333316542208194732666015625</LatitudeDegrees>
              <LongitudeDegrees>-1.86970143578946590423583984375</LongitudeDegrees>
            </Position>
            <AltitudeMeters>767.5999755859375</AltitudeMeters>
            <DistanceMeters>19103.551102851</DistanceMeters>
          </Trackpoint>
          <Trackpoint>
            <Time>2021-08-28T06:13:48.000Z</Time>
            <Position>
              <LatitudeDegrees>38.12347255647182464599609375</LatitudeDegrees>
              <LongitudeDegrees>-1.8699782900512218475341796875</LongitudeDegrees>
            </Position>
            <AltitudeMeters>768.20001220703125</AltitudeMeters>
            <DistanceMeters>19132.331806668</DistanceMeters>
          </Trackpoint>
          <Trackpoint>
            <Time>2021-08-28T06:13:50.000Z</Time>
            <Position>
              <LatitudeDegrees>38.12350214459002017974853515625</LatitudeDegrees>
              <LongitudeDegrees>-1.8700292520225048065185546875</LongitudeDegrees>
            </Position>
            <AltitudeMeters>768.20001220703125</AltitudeMeters>
            <DistanceMeters>19137.877655599</DistanceMeters>
          </Trackpoint>
          <Trackpoint>
            <Time>2021-08-28T06:13:54.000Z</Time>
            <Position>
              <LatitudeDegrees>38.12355704605579376220703125</LatitudeDegrees>
              <LongitudeDegrees>-1.87011164613068103790283203125</LongitudeDegrees>
            </Position>
            <AltitudeMeters>768.20001220703125</AltitudeMeters>
            <DistanceMeters>19147.331739195</DistanceMeters>
          </Trackpoint>
          <Trackpoint>
            <Time>2021-08-28T06:13:55.000Z</Time>
            <Position>
              <LatitudeDegrees>38.1235689483582973480224609375</LatitudeDegrees>
              <LongitudeDegrees>-1.8701268173754215240478515625</LongitudeDegrees>
            </Position>
            <AltitudeMeters>768.20001220703125</AltitudeMeters>
            <DistanceMeters>19149.208366439</DistanceMeters>
          </Trackpoint>
          <Trackpoint>
            <Time>2021-08-28T06:13:59.000Z</Time>
            <Position>
              <LatitudeDegrees>38.12361479736864566802978515625</LatitudeDegrees>
              <LongitudeDegrees>-1.8701992370188236236572265625</LongitudeDegrees>
            </Position>
            <AltitudeMeters>768.4000244140625</AltitudeMeters>
            <DistanceMeters>19157.347447517</DistanceMeters>
          </Trackpoint>
          <Trackpoint>
            <Time>2021-08-28T06:14:00.000Z</Time>
            <Position>
              <LatitudeDegrees>38.123628795146942138671875</LatitudeDegrees>
              <LongitudeDegrees>-1.87021809630095958709716796875</LongitudeDegrees>
            </Position>
            <AltitudeMeters>768.4000244140625</AltitudeMeters>
            <DistanceMeters>19159.620155973</DistanceMeters>
          </Trackpoint>
          <Trackpoint>
            <Time>2021-08-28T06:14:03.000Z</Time>
            <Position>
              <LatitudeDegrees>38.12367363832890987396240234375</LatitudeDegrees>
              <LongitudeDegrees>-1.87025933526456356048583984375</LongitudeDegrees>
            </Position>
            <AltitudeMeters>768.20001220703125</AltitudeMeters>
            <DistanceMeters>19165.780789974</DistanceMeters>
          </Trackpoint>
          <Trackpoint>
            <Time>2021-08-28T06:14:04.000Z</Time>
            <Position>
              <LatitudeDegrees>38.1236889772117137908935546875</LatitudeDegrees>
              <LongitudeDegrees>-1.87027894891798496246337890625</LongitudeDegrees>
            </Position>
            <AltitudeMeters>768.4000244140625</AltitudeMeters>
            <DistanceMeters>19168.203505329</DistanceMeters>
          </Trackpoint>
          <Trackpoint>
            <Time>2021-08-28T06:14:06.000Z</Time>
            <Position>
              <LatitudeDegrees>38.12367112375795841217041015625</LatitudeDegrees>
              <LongitudeDegrees>-1.8703068606555461883544921875</LongitudeDegrees>
            </Position>
            <AltitudeMeters>768.4000244140625</AltitudeMeters>
            <DistanceMeters>19171.355184895</DistanceMeters>
          </Trackpoint>
          <Trackpoint>
            <Time>2021-08-28T06:14:09.000Z</Time>
            <Position>
              <LatitudeDegrees>38.12358520925045013427734375</LatitudeDegrees>
              <LongitudeDegrees>-1.870240978896617889404296875</LongitudeDegrees>
            </Position>
            <AltitudeMeters>768.79998779296875</AltitudeMeters>
            <DistanceMeters>19182.523148713</DistanceMeters>
          </Trackpoint>
          <Trackpoint>
            <Time>2021-08-28T06:14:10.000Z</Time>
            <Position>
              <LatitudeDegrees>38.123556710779666900634765625</LatitudeDegrees>
              <LongitudeDegrees>-1.87020636163651943206787109375</LongitudeDegrees>
            </Position>
            <AltitudeMeters>768.79998779296875</AltitudeMeters>
            <DistanceMeters>19186.910872836</DistanceMeters>
          </Trackpoint>
          <Trackpoint>
            <Time>2021-08-28T06:14:11.000Z</Time>
            <Position>
              <LatitudeDegrees>38.12352812848985195159912109375</LatitudeDegrees>
              <LongitudeDegrees>-1.87016143463551998138427734375</LongitudeDegrees>
            </Position>
            <AltitudeMeters>769</AltitudeMeters>
            <DistanceMeters>19191.970543449</DistanceMeters>
          </Trackpoint>
          <Trackpoint>
            <Time>2021-08-28T06:14:14.000Z</Time>
            <Position>
              <LatitudeDegrees>38.1234422139823436737060546875</LatitudeDegrees>
              <LongitudeDegrees>-1.8700039386749267578125</LongitudeDegrees>
            </Position>
            <AltitudeMeters>769.20001220703125</AltitudeMeters>
            <DistanceMeters>19208.751572438</DistanceMeters>
          </Trackpoint>
          <Trackpoint>
            <Time>2021-08-28T06:14:17.000Z</Time>
            <Position>
              <LatitudeDegrees>38.123355209827423095703125</LatitudeDegrees>
              <LongitudeDegrees>-1.86982666142284870147705078125</LongitudeDegrees>
            </Position>
            <AltitudeMeters>769.20001220703125</AltitudeMeters>
            <DistanceMeters>19227.046868105</DistanceMeters>
          </Trackpoint>
          <Trackpoint>
            <Time>2021-08-28T06:14:20.000Z</Time>
            <Position>
              <LatitudeDegrees>38.12326191924512386322021484375</LatitudeDegrees>
              <LongitudeDegrees>-1.869646199047565460205078125</LongitudeDegrees>
            </Position>
            <AltitudeMeters>768.79998779296875</AltitudeMeters>
            <DistanceMeters>19245.954080122</DistanceMeters>
          </Trackpoint>
          <Trackpoint>
            <Time>2021-08-28T06:14:21.000Z</Time>
            <Position>
              <LatitudeDegrees>38.12322713434696197509765625</LatitudeDegrees>
              <LongitudeDegrees>-1.869585849344730377197265625</LongitudeDegrees>
            </Position>
            <AltitudeMeters>768.4000244140625</AltitudeMeters>
            <DistanceMeters>19252.504723088</DistanceMeters>
          </Trackpoint>
          <Trackpoint>
            <Time>2021-08-28T06:14:24.000Z</Time>
            <Position>
              <LatitudeDegrees>38.12313350848853588104248046875</LatitudeDegrees>
              <LongitudeDegrees>-1.86942667700350284576416015625</LongitudeDegrees>
            </Position>
            <AltitudeMeters>768</AltitudeMeters>
            <DistanceMeters>19269.906810423</DistanceMeters>
          </Trackpoint>
          <Trackpoint>
            <Time>2021-08-28T06:14:26.000Z</Time>
            <Position>
              <LatitudeDegrees>38.1230848096311092376708984375</LatitudeDegrees>
              <LongitudeDegrees>-1.86935576610267162322998046875</LongitudeDegrees>
            </Position>
            <AltitudeMeters>767.5999755859375</AltitudeMeters>
            <DistanceMeters>19278.148426467</DistanceMeters>
          </Trackpoint>
          <Trackpoint>
            <Time>2021-08-28T06:14:27.000Z</Time>
            <Position>
              <LatitudeDegrees>38.12307433225214481353759765625</LatitudeDegrees>
              <LongitudeDegrees>-1.86932735145092010498046875</LongitudeDegrees>
            </Position>
            <AltitudeMeters>767.20001220703125</AltitudeMeters>
            <DistanceMeters>19280.895997013</DistanceMeters>
          </Trackpoint>
          <Trackpoint>
            <Time>2021-08-28T06:14:29.000Z</Time>
            <Position>
              <LatitudeDegrees>38.1231045909225940704345703125</LatitudeDegrees>
              <LongitudeDegrees>-1.86929927207529544830322265625</LongitudeDegrees>
            </Position>
            <AltitudeMeters>766.4000244140625</AltitudeMeters>
            <DistanceMeters>19285.066359974</DistanceMeters>
          </Trackpoint>
          <Trackpoint>
            <Time>2021-08-28T06:14:30.000Z</Time>
            <Position>
              <LatitudeDegrees>38.12312789261341094970703125</LatitudeDegrees>
              <LongitudeDegrees>-1.86931855045258998870849609375</LongitudeDegrees>
            </Position>
            <AltitudeMeters>766.4000244140625</AltitudeMeters>
            <DistanceMeters>19288.161664662</DistanceMeters>
          </Trackpoint>
          <Trackpoint>
            <Time>2021-08-28T06:14:31.000Z</Time>
            <Position>
              <LatitudeDegrees>38.123145662248134613037109375</LatitudeDegrees>
              <LongitudeDegrees>-1.8693535029888153076171875</LongitudeDegrees>
            </Position>
            <AltitudeMeters>766.20001220703125</AltitudeMeters>
            <DistanceMeters>19291.805043914</DistanceMeters>
          </Trackpoint>
          <Trackpoint>
            <Time>2021-08-28T06:14:32.000Z</Time>
            <Position>
              <LatitudeDegrees>38.1231662817299365997314453125</LatitudeDegrees>
              <LongitudeDegrees>-1.86939767561852931976318359375</LongitudeDegrees>
            </Position>
            <AltitudeMeters>766.20001220703125</AltitudeMeters>
            <DistanceMeters>19296.302528903</DistanceMeters>
          </Trackpoint>
          <Trackpoint>
            <Time>2021-08-28T06:14:39.000Z</Time>
            <Position>
              <LatitudeDegrees>38.1233362667262554168701171875</LatitudeDegrees>
              <LongitudeDegrees>-1.86973177827894687652587890625</LongitudeDegrees>
            </Position>
            <AltitudeMeters>767.4000244140625</AltitudeMeters>
            <DistanceMeters>19331.141193844</DistanceMeters>
          </Trackpoint>
          <Trackpoint>
            <Time>2021-08-28T06:14:40.000Z</Time>
            <Position>
              <LatitudeDegrees>38.1233597360551357269287109375</LatitudeDegrees>
              <LongitudeDegrees>-1.86978190205991268157958984375</LongitudeDegrees>
            </Position>
            <AltitudeMeters>767.5999755859375</AltitudeMeters>
            <DistanceMeters>19336.248824493</DistanceMeters>
          </Trackpoint>
          <Trackpoint>
            <Time>2021-08-28T06:14:46.000Z</Time>
            <Position>
              <LatitudeDegrees>38.12350667081773281097412109375</LatitudeDegrees>
              <LongitudeDegrees>-1.870084069669246673583984375</LongitudeDegrees>
            </Position>
            <AltitudeMeters>768.20001220703125</AltitudeMeters>
            <DistanceMeters>19367.352913132</DistanceMeters>
          </Trackpoint>
          <Trackpoint>
            <Time>2021-08-28T06:14:47.000Z</Time>
            <Position>
              <LatitudeDegrees>38.123535923659801483154296875</LatitudeDegrees>
              <LongitudeDegrees>-1.87013226561248302459716796875</LongitudeDegrees>
            </Position>
            <AltitudeMeters>768.20001220703125</AltitudeMeters>
            <DistanceMeters>19372.682886912</DistanceMeters>
          </Trackpoint>
          <Trackpoint>
            <Time>2021-08-28T06:14:49.000Z</Time>
            <Position>
              <LatitudeDegrees>38.12359820120036602020263671875</LatitudeDegrees>
              <LongitudeDegrees>-1.870223544538021087646484375</LongitudeDegrees>
            </Position>
            <AltitudeMeters>768.4000244140625</AltitudeMeters>
            <DistanceMeters>19383.262480359</DistanceMeters>
          </Trackpoint>
          <Trackpoint>
            <Time>2021-08-28T06:14:50.000Z</Time>
            <Position>
              <LatitudeDegrees>38.12363608740270137786865234375</LatitudeDegrees>
              <LongitudeDegrees>-1.87026210129261016845703125</LongitudeDegrees>
            </Position>
            <AltitudeMeters>768.79998779296875</AltitudeMeters>
            <DistanceMeters>19388.663978021</DistanceMeters>
          </Trackpoint>
          <Trackpoint>
            <Time>2021-08-28T06:14:51.000Z</Time>
            <Position>
              <LatitudeDegrees>38.12367849983274936676025390625</LatitudeDegrees>
              <LongitudeDegrees>-1.8702921085059642791748046875</LongitudeDegrees>
            </Position>
            <AltitudeMeters>768.79998779296875</AltitudeMeters>
            <DistanceMeters>19394.066311505</DistanceMeters>
          </Trackpoint>
          <Trackpoint>
            <Time>2021-08-28T06:14:52.000Z</Time>
            <Position>
              <LatitudeDegrees>38.12372845597565174102783203125</LatitudeDegrees>
              <LongitudeDegrees>-1.87031440436840057373046875</LongitudeDegrees>
            </Position>
            <AltitudeMeters>769</AltitudeMeters>
            <DistanceMeters>19399.959500285</DistanceMeters>
          </Trackpoint>
          <Trackpoint>
            <Time>2021-08-28T06:14:55.000Z</Time>
            <Position>
              <LatitudeDegrees>38.12388234771788120269775390625</LatitudeDegrees>
              <LongitudeDegrees>-1.87034617178142070770263671875</LongitudeDegrees>
            </Position>
            <AltitudeMeters>769.4000244140625</AltitudeMeters>
            <DistanceMeters>19417.312221372</DistanceMeters>
          </Trackpoint>
          <Trackpoint>
            <Time>2021-08-28T06:14:56.000Z</Time>
            <Position>
              <LatitudeDegrees>38.1239300407469272613525390625</LatitudeDegrees>
              <LongitudeDegrees>-1.870347596704959869384765625</LongitudeDegrees>
            </Position>
            <AltitudeMeters>769.4000244140625</AltitudeMeters>
            <DistanceMeters>19422.62182575</DistanceMeters>
          </Trackpoint>
          <Trackpoint>
            <Time>2021-08-28T06:14:57.000Z</Time>
            <Position>
              <LatitudeDegrees>38.123981170356273651123046875</LatitudeDegrees>
              <LongitudeDegrees>-1.87034298665821552276611328125</LongitudeDegrees>
            </Position>
            <AltitudeMeters>769.5999755859375</AltitudeMeters>
            <DistanceMeters>19428.32659529</DistanceMeters>
          </Trackpoint>
          <Trackpoint>
            <Time>2021-08-28T06:15:00.000Z</Time>
            <Position>
              <LatitudeDegrees>38.1241379119455814361572265625</LatitudeDegrees>
              <LongitudeDegrees>-1.870332174003124237060546875</LongitudeDegrees>
            </Position>
            <AltitudeMeters>769.79998779296875</AltitudeMeters>
            <DistanceMeters>19445.797819461</DistanceMeters>
          </Trackpoint>
          <Trackpoint>
            <Time>2021-08-28T06:15:05.000Z</Time>
            <Position>
              <LatitudeDegrees>38.1244068033993244171142578125</LatitudeDegrees>
              <LongitudeDegrees>-1.87033896334469318389892578125</LongitudeDegrees>
            </Position>
            <AltitudeMeters>770.4000244140625</AltitudeMeters>
            <DistanceMeters>19475.731837826</DistanceMeters>
          </Trackpoint>
          <Trackpoint>
            <Time>2021-08-28T06:15:07.000Z</Time>
            <Position>
              <LatitudeDegrees>38.12451534904539585113525390625</LatitudeDegrees>
              <LongitudeDegrees>-1.87036109156906604766845703125</LongitudeDegrees>
            </Position>
            <AltitudeMeters>770.4000244140625</AltitudeMeters>
            <DistanceMeters>19487.967426793</DistanceMeters>
          </Trackpoint>
          <Trackpoint>
            <Time>2021-08-28T06:15:08.000Z</Time>
            <Position>
              <LatitudeDegrees>38.1245687417685985565185546875</LatitudeDegrees>
              <LongitudeDegrees>-1.87038053758442401885986328125</LongitudeDegrees>
            </Position>
            <AltitudeMeters>770.5999755859375</AltitudeMeters>
            <DistanceMeters>19494.149277932</DistanceMeters>
          </Trackpoint>
          <Trackpoint>
            <Time>2021-08-28T06:15:10.000Z</Time>
            <Position>
              <LatitudeDegrees>38.1246753595769405364990234375</LatitudeDegrees>
              <LongitudeDegrees>-1.87042705714702606201171875</LongitudeDegrees>
            </Position>
            <AltitudeMeters>770.79998779296875</AltitudeMeters>
            <DistanceMeters>19506.695683496</DistanceMeters>
          </Trackpoint>
          <Trackpoint>
            <Time>2021-08-28T06:15:11.000Z</Time>
            <Position>
              <LatitudeDegrees>38.124730177223682403564453125</LatitudeDegrees>
              <LongitudeDegrees>-1.870451867580413818359375</LongitudeDegrees>
            </Position>
            <AltitudeMeters>770.79998779296875</AltitudeMeters>
            <DistanceMeters>19513.171459512</DistanceMeters>
          </Trackpoint>
          <Trackpoint>
            <Time>2021-08-28T06:15:16.000Z</Time>
            <Position>
              <LatitudeDegrees>38.1250168383121490478515625</LatitudeDegrees>
              <LongitudeDegrees>-1.87054415233433246612548828125</LongitudeDegrees>
            </Position>
            <AltitudeMeters>771.4000244140625</AltitudeMeters>
            <DistanceMeters>19546.084740882</DistanceMeters>
          </Trackpoint>
          <Trackpoint>
            <Time>2021-08-28T06:15:17.000Z</Time>
            <Position>
              <LatitudeDegrees>38.125087581574916839599609375</LatitudeDegrees>
              <LongitudeDegrees>-1.8705449067056179046630859375</LongitudeDegrees>
            </Position>
            <AltitudeMeters>771.4000244140625</AltitudeMeters>
            <DistanceMeters>19553.958780814</DistanceMeters>
          </Trackpoint>
          <Trackpoint>
            <Time>2021-08-28T06:15:18.000Z</Time>
            <Position>
              <LatitudeDegrees>38.12515966594219207763671875</LatitudeDegrees>
              <LongitudeDegrees>-1.8705358542501926422119140625</LongitudeDegrees>
            </Position>
            <AltitudeMeters>771.4000244140625</AltitudeMeters>
            <DistanceMeters>19562.020944931</DistanceMeters>
          </Trackpoint>
          <Trackpoint>
            <Time>2021-08-28T06:15:20.000Z</Time>
            <Position>
              <LatitudeDegrees>38.1253083609044551849365234375</LatitudeDegrees>
              <LongitudeDegrees>-1.87046863138675689697265625</LongitudeDegrees>
            </Position>
            <AltitudeMeters>771.4000244140625</AltitudeMeters>
            <DistanceMeters>19579.58649878</DistanceMeters>
          </Trackpoint>
          <Trackpoint>
            <Time>2021-08-28T06:15:23.000Z</Time>
            <Position>
              <LatitudeDegrees>38.12551681883633136749267578125</LatitudeDegrees>
              <LongitudeDegrees>-1.87026252038776874542236328125</LongitudeDegrees>
            </Position>
            <AltitudeMeters>770.20001220703125</AltitudeMeters>
            <DistanceMeters>19608.98033681</DistanceMeters>
          </Trackpoint>
          <Trackpoint>
            <Time>2021-08-28T06:15:27.000Z</Time>
            <Position>
              <LatitudeDegrees>38.12579174526035785675048828125</LatitudeDegrees>
              <LongitudeDegrees>-1.86995440162718296051025390625</LongitudeDegrees>
            </Position>
            <AltitudeMeters>769</AltitudeMeters>
            <DistanceMeters>19649.774476315</DistanceMeters>
          </Trackpoint>
          <Trackpoint>
            <Time>2021-08-28T06:15:29.000Z</Time>
            <Position>
              <LatitudeDegrees>38.12595670111477375030517578125</LatitudeDegrees>
              <LongitudeDegrees>-1.86981593258678913116455078125</LongitudeDegrees>
            </Position>
            <AltitudeMeters>768.4000244140625</AltitudeMeters>
            <DistanceMeters>19671.776393004</DistanceMeters>
          </Trackpoint>
          <Trackpoint>
            <Time>2021-08-28T06:15:30.000Z</Time>
            <Position>
              <LatitudeDegrees>38.1260426156222820281982421875</LatitudeDegrees>
              <LongitudeDegrees>-1.869747452437877655029296875</LongitudeDegrees>
            </Position>
            <AltitudeMeters>767.79998779296875</AltitudeMeters>
            <DistanceMeters>19683.063390766</DistanceMeters>
          </Trackpoint>
          <Trackpoint>
            <Time>2021-08-28T06:15:33.000Z</Time>
            <Position>
              <LatitudeDegrees>38.1263101659715175628662109375</LatitudeDegrees>
              <LongitudeDegrees>-1.8695313669741153717041015625</LongitudeDegrees>
            </Position>
            <AltitudeMeters>767.20001220703125</AltitudeMeters>
            <DistanceMeters>19718.344290093</DistanceMeters>
          </Trackpoint>
          <Trackpoint>
            <Time>2021-08-28T06:15:35.000Z</Time>
            <Position>
              <LatitudeDegrees>38.1264835037291049957275390625</LatitudeDegrees>
              <LongitudeDegrees>-1.8693704344332218170166015625</LongitudeDegrees>
            </Position>
            <AltitudeMeters>766.79998779296875</AltitudeMeters>
            <DistanceMeters>19742.234769614</DistanceMeters>
          </Trackpoint>
          <Trackpoint>
            <Time>2021-08-28T06:15:36.000Z</Time>
            <Position>
              <LatitudeDegrees>38.1265710107982158660888671875</LatitudeDegrees>
              <LongitudeDegrees>-1.86928938142955303192138671875</LongitudeDegrees>
            </Position>
            <AltitudeMeters>766.4000244140625</AltitudeMeters>
            <DistanceMeters>19754.285565827</DistanceMeters>
          </Trackpoint>
          <Trackpoint>
            <Time>2021-08-28T06:15:38.000Z</Time>
            <Position>
              <LatitudeDegrees>38.12674392946064472198486328125</LatitudeDegrees>
              <LongitudeDegrees>-1.86912526376545429229736328125</LongitudeDegrees>
            </Position>
            <AltitudeMeters>765.4000244140625</AltitudeMeters>
            <DistanceMeters>19778.304214076</DistanceMeters>
          </Trackpoint>
          <Trackpoint>
            <Time>2021-08-28T06:15:40.000Z</Time>
            <Position>
              <LatitudeDegrees>38.12690310180187225341796875</LatitudeDegrees>
              <LongitudeDegrees>-1.868939436972141265869140625</LongitudeDegrees>
            </Position>
            <AltitudeMeters>764.4000244140625</AltitudeMeters>
            <DistanceMeters>19802.357801291</DistanceMeters>
          </Trackpoint>
          <Trackpoint>
            <Time>2021-08-28T06:15:41.000Z</Time>
            <Position>
              <LatitudeDegrees>38.12696219421923160552978515625</LatitudeDegrees>
              <LongitudeDegrees>-1.86882636509835720062255859375</LongitudeDegrees>
            </Position>
            <AltitudeMeters>763.79998779296875</AltitudeMeters>
            <DistanceMeters>19814.243360423</DistanceMeters>
          </Trackpoint>
          <Trackpoint>
            <Time>2021-08-28T06:15:42.000Z</Time>
            <Position>
              <LatitudeDegrees>38.12700427137315273284912109375</LatitudeDegrees>
              <LongitudeDegrees>-1.8687022291123867034912109375</LongitudeDegrees>
            </Position>
            <AltitudeMeters>763</AltitudeMeters>
            <DistanceMeters>19826.077906703</DistanceMeters>
          </Trackpoint>
          <Trackpoint>
            <Time>2021-08-28T06:15:44.000Z</Time>
            <Position>
              <LatitudeDegrees>38.1270370446145534515380859375</LatitudeDegrees>
              <LongitudeDegrees>-1.8684373609721660614013671875</LongitudeDegrees>
            </Position>
            <AltitudeMeters>761.4000244140625</AltitudeMeters>
            <DistanceMeters>19849.553544402</DistanceMeters>
          </Trackpoint>
          <Trackpoint>
            <Time>2021-08-28T06:15:46.000Z</Time>
            <Position>
              <LatitudeDegrees>38.127028830349445343017578125</LatitudeDegrees>
              <LongitudeDegrees>-1.86817257665097713470458984375</LongitudeDegrees>
            </Position>
            <AltitudeMeters>760.4000244140625</AltitudeMeters>
            <DistanceMeters>19872.754857231</DistanceMeters>
          </Trackpoint>
          <Trackpoint>
            <Time>2021-08-28T06:15:47.000Z</Time>
            <Position>
              <LatitudeDegrees>38.12700561247766017913818359375</LatitudeDegrees>
              <LongitudeDegrees>-1.868050284683704376220703125</LongitudeDegrees>
            </Position>
            <AltitudeMeters>760.20001220703125</AltitudeMeters>
            <DistanceMeters>19883.769761093</DistanceMeters>
          </Trackpoint>
          <Trackpoint>
            <Time>2021-08-28T06:15:48.000Z</Time>
            <Position>
              <LatitudeDegrees>38.12696320004761219024658203125</LatitudeDegrees>
              <LongitudeDegrees>-1.86792380176484584808349609375</LongitudeDegrees>
            </Position>
            <AltitudeMeters>759.79998779296875</AltitudeMeters>
            <DistanceMeters>19895.807811881</DistanceMeters>
          </Trackpoint>
          <Trackpoint>
            <Time>2021-08-28T06:15:49.000Z</Time>
            <Position>
              <LatitudeDegrees>38.12690134160220623016357421875</LatitudeDegrees>
              <LongitudeDegrees>-1.86781383119523525238037109375</LongitudeDegrees>
            </Position>
            <AltitudeMeters>759.5999755859375</AltitudeMeters>
            <DistanceMeters>19907.64464702</DistanceMeters>
          </Trackpoint>
          <Trackpoint>
            <Time>2021-08-28T06:15:50.000Z</Time>
            <Position>
              <LatitudeDegrees>38.12682338990271091461181640625</LatitudeDegrees>
              <LongitudeDegrees>-1.8677155114710330963134765625</LongitudeDegrees>
            </Position>
            <AltitudeMeters>759</AltitudeMeters>
            <DistanceMeters>19919.866944456</DistanceMeters>
          </Trackpoint>
          <Trackpoint>
            <Time>2021-08-28T06:15:51.000Z</Time>
            <Position>
              <LatitudeDegrees>38.1267369724810123443603515625</LatitudeDegrees>
              <LongitudeDegrees>-1.86762456782162189483642578125</LongitudeDegrees>
            </Position>
            <AltitudeMeters>758.5999755859375</AltitudeMeters>
            <DistanceMeters>19932.353469188</DistanceMeters>
          </Trackpoint>
          <Trackpoint>
            <Time>2021-08-28T06:15:54.000Z</Time>
            <Position>
              <LatitudeDegrees>38.126502446830272674560546875</LatitudeDegrees>
              <LongitudeDegrees>-1.86729482375085353851318359375</LongitudeDegrees>
            </Position>
            <AltitudeMeters>757.5999755859375</AltitudeMeters>
            <DistanceMeters>19971.275232822</DistanceMeters>
          </Trackpoint>
          <Trackpoint>
            <Time>2021-08-28T06:15:55.000Z</Time>
            <Position>
              <LatitudeDegrees>38.12644301913678646087646484375</LatitudeDegrees>
              <LongitudeDegrees>-1.86716004274785518646240234375</LongitudeDegrees>
            </Position>
            <AltitudeMeters>757.4000244140625</AltitudeMeters>
            <DistanceMeters>19984.803446277</DistanceMeters>
          </Trackpoint>
          <Trackpoint>
            <Time>2021-08-28T06:15:57.000Z</Time>
            <Position>
              <LatitudeDegrees>38.12632466666400432586669921875</LatitudeDegrees>
              <LongitudeDegrees>-1.8668903969228267669677734375</LongitudeDegrees>
            </Position>
            <AltitudeMeters>756.4000244140625</AltitudeMeters>
            <DistanceMeters>20011.838504764</DistanceMeters>
          </Trackpoint>
          <Trackpoint>
            <Time>2021-08-28T06:15:59.000Z</Time>
            <Position>
              <LatitudeDegrees>38.1261509098112583160400390625</LatitudeDegrees>
              <LongitudeDegrees>-1.8666739761829376220703125</LongitudeDegrees>
            </Position>
            <AltitudeMeters>755.4000244140625</AltitudeMeters>
            <DistanceMeters>20038.91378197</DistanceMeters>
          </Trackpoint>
          <Trackpoint>
            <Time>2021-08-28T06:16:00.000Z</Time>
            <Position>
              <LatitudeDegrees>38.1260419450700283050537109375</LatitudeDegrees>
              <LongitudeDegrees>-1.86658856458961963653564453125</LongitudeDegrees>
            </Position>
            <AltitudeMeters>754</AltitudeMeters>
            <DistanceMeters>20053.162086382</DistanceMeters>
          </Trackpoint>
          <Trackpoint>
            <Time>2021-08-28T06:16:01.000Z</Time>
            <Position>
              <LatitudeDegrees>38.12592568807303905487060546875</LatitudeDegrees>
              <LongitudeDegrees>-1.86650960706174373626708984375</LongitudeDegrees>
            </Position>
            <AltitudeMeters>753</AltitudeMeters>
            <DistanceMeters>20067.833177075</DistanceMeters>
          </Trackpoint>
          <Trackpoint>
            <Time>2021-08-28T06:16:02.000Z</Time>
            <Position>
              <LatitudeDegrees>38.1258109398186206817626953125</LatitudeDegrees>
              <LongitudeDegrees>-1.866426207125186920166015625</LongitudeDegrees>
            </Position>
            <AltitudeMeters>752.4000244140625</AltitudeMeters>
            <DistanceMeters>20082.544834773</DistanceMeters>
          </Trackpoint>
          <Trackpoint>
            <Time>2021-08-28T06:16:04.000Z</Time>
            <Position>
              <LatitudeDegrees>38.1255812756717205047607421875</LatitudeDegrees>
              <LongitudeDegrees>-1.86624205671250820159912109375</LongitudeDegrees>
            </Position>
            <AltitudeMeters>750.79998779296875</AltitudeMeters>
            <DistanceMeters>20112.767214433</DistanceMeters>
          </Trackpoint>
          <Trackpoint>
            <Time>2021-08-28T06:16:06.000Z</Time>
            <Position>
              <LatitudeDegrees>38.1253687106072902679443359375</LatitudeDegrees>
              <LongitudeDegrees>-1.866020858287811279296875</LongitudeDegrees>
            </Position>
            <AltitudeMeters>749.5999755859375</AltitudeMeters>
            <DistanceMeters>20143.342493564</DistanceMeters>
          </Trackpoint>
          <Trackpoint>
            <Time>2021-08-28T06:16:07.000Z</Time>
            <Position>
              <LatitudeDegrees>38.12527508474886417388916015625</LatitudeDegrees>
              <LongitudeDegrees>-1.8658934533596038818359375</LongitudeDegrees>
            </Position>
            <AltitudeMeters>749.20001220703125</AltitudeMeters>
            <DistanceMeters>20158.607818739</DistanceMeters>
          </Trackpoint>
          <Trackpoint>
            <Time>2021-08-28T06:16:08.000Z</Time>
            <Position>
              <LatitudeDegrees>38.1252030842006206512451171875</LatitudeDegrees>
              <LongitudeDegrees>-1.8657517991960048675537109375</LongitudeDegrees>
            </Position>
            <AltitudeMeters>748.20001220703125</AltitudeMeters>
            <DistanceMeters>20173.37430972</DistanceMeters>
          </Trackpoint>
          <Trackpoint>
            <Time>2021-08-28T06:16:09.000Z</Time>
            <Position>
              <LatitudeDegrees>38.12515832483768463134765625</LatitudeDegrees>
              <LongitudeDegrees>-1.8655925430357456207275390625</LongitudeDegrees>
            </Position>
            <AltitudeMeters>747.5999755859375</AltitudeMeters>
            <DistanceMeters>20188.181411261</DistanceMeters>
          </Trackpoint>
          <Trackpoint>
            <Time>2021-08-28T06:16:10.000Z</Time>
            <Position>
              <LatitudeDegrees>38.12513954937458038330078125</LatitudeDegrees>
              <LongitudeDegrees>-1.8654259108006954193115234375</LongitudeDegrees>
            </Position>
            <AltitudeMeters>746.5999755859375</AltitudeMeters>
            <DistanceMeters>20202.920357934</DistanceMeters>
          </Trackpoint>
          <Trackpoint>
            <Time>2021-08-28T06:16:11.000Z</Time>
            <Position>
              <LatitudeDegrees>38.125143907964229583740234375</LatitudeDegrees>
              <LongitudeDegrees>-1.86525232158601284027099609375</LongitudeDegrees>
            </Position>
            <AltitudeMeters>745.5999755859375</AltitudeMeters>
            <DistanceMeters>20218.127304625</DistanceMeters>
          </Trackpoint>
          <Trackpoint>
            <Time>2021-08-28T06:16:12.000Z</Time>
            <Position>
              <LatitudeDegrees>38.1251581571996212005615234375</LatitudeDegrees>
              <LongitudeDegrees>-1.865074373781681060791015625</LongitudeDegrees>
            </Position>
            <AltitudeMeters>744.79998779296875</AltitudeMeters>
            <DistanceMeters>20233.788560525</DistanceMeters>
          </Trackpoint>
          <Trackpoint>
            <Time>2021-08-28T06:16:15.000Z</Time>
            <Position>
              <LatitudeDegrees>38.12521171756088733673095703125</LatitudeDegrees>
              <LongitudeDegrees>-1.86453047208487987518310546875</LongitudeDegrees>
            </Position>
            <AltitudeMeters>742.79998779296875</AltitudeMeters>
            <DistanceMeters>20281.782790176</DistanceMeters>
          </Trackpoint>
          <Trackpoint>
            <Time>2021-08-28T06:16:16.000Z</Time>
            <Position>
              <LatitudeDegrees>38.1252278946340084075927734375</LatitudeDegrees>
              <LongitudeDegrees>-1.8643446452915668487548828125</LongitudeDegrees>
            </Position>
            <AltitudeMeters>741</AltitudeMeters>
            <DistanceMeters>20298.152503627</DistanceMeters>
          </Trackpoint>
          <Trackpoint>
            <Time>2021-08-28T06:16:17.000Z</Time>
            <Position>
              <LatitudeDegrees>38.12524490989744663238525390625</LatitudeDegrees>
              <LongitudeDegrees>-1.86415462754666805267333984375</LongitudeDegrees>
            </Position>
            <AltitudeMeters>740</AltitudeMeters>
            <DistanceMeters>20314.897440284</DistanceMeters>
          </Trackpoint>
          <Trackpoint>
            <Time>2021-08-28T06:16:18.000Z</Time>
            <Position>
              <LatitudeDegrees>38.125266619026660919189453125</LatitudeDegrees>
              <LongitudeDegrees>-1.86396293342113494873046875</LongitudeDegrees>
            </Position>
            <AltitudeMeters>738.79998779296875</AltitudeMeters>
            <DistanceMeters>20331.854850295</DistanceMeters>
          </Trackpoint>
          <Trackpoint>
            <Time>2021-08-28T06:16:20.000Z</Time>
            <Position>
              <LatitudeDegrees>38.125307857990264892578125</LatitudeDegrees>
              <LongitudeDegrees>-1.86357191763818264007568359375</LongitudeDegrees>
            </Position>
            <AltitudeMeters>737.5999755859375</AltitudeMeters>
            <DistanceMeters>20366.397289712</DistanceMeters>
          </Trackpoint>
          <Trackpoint>
            <Time>2021-08-28T06:16:21.000Z</Time>
            <Position>
              <LatitudeDegrees>38.12532470561563968658447265625</LatitudeDegrees>
              <LongitudeDegrees>-1.8633703328669071197509765625</LongitudeDegrees>
            </Position>
            <AltitudeMeters>737</AltitudeMeters>
            <DistanceMeters>20384.146692715</DistanceMeters>
          </Trackpoint>
          <Trackpoint>
            <Time>2021-08-28T06:16:23.000Z</Time>
            <Position>
              <LatitudeDegrees>38.12535488046705722808837890625</LatitudeDegrees>
              <LongitudeDegrees>-1.86297680251300334930419921875</LongitudeDegrees>
            </Position>
            <AltitudeMeters>735.79998779296875</AltitudeMeters>
            <DistanceMeters>20418.766425905</DistanceMeters>
          </Trackpoint>
          <Trackpoint>
            <Time>2021-08-28T06:16:25.000Z</Time>
            <Position>
              <LatitudeDegrees>38.12537826597690582275390625</LatitudeDegrees>
              <LongitudeDegrees>-1.862589307129383087158203125</LongitudeDegrees>
            </Position>
            <AltitudeMeters>733.5999755859375</AltitudeMeters>
            <DistanceMeters>20452.79395185</DistanceMeters>
          </Trackpoint>
          <Trackpoint>
            <Time>2021-08-28T06:16:26.000Z</Time>
            <Position>
              <LatitudeDegrees>38.125392682850360870361328125</LatitudeDegrees>
              <LongitudeDegrees>-1.86239677481353282928466796875</LongitudeDegrees>
            </Position>
            <AltitudeMeters>732.79998779296875</AltitudeMeters>
            <DistanceMeters>20469.727648359</DistanceMeters>
          </Trackpoint>
          <Trackpoint>
            <Time>2021-08-28T06:16:27.000Z</Time>
            <Position>
              <LatitudeDegrees>38.12541036866605281829833984375</LatitudeDegrees>
              <LongitudeDegrees>-1.8622039072215557098388671875</LongitudeDegrees>
            </Position>
            <AltitudeMeters>731.20001220703125</AltitudeMeters>
            <DistanceMeters>20486.728668529</DistanceMeters>
          </Trackpoint>
          <Trackpoint>
            <Time>2021-08-28T06:16:29.000Z</Time>
            <Position>
              <LatitudeDegrees>38.12546468339860439300537109375</LatitudeDegrees>
              <LongitudeDegrees>-1.86182093806564807891845703125</LongitudeDegrees>
            </Position>
            <AltitudeMeters>729.4000244140625</AltitudeMeters>
            <DistanceMeters>20520.800615899</DistanceMeters>
          </Trackpoint>
          <Trackpoint>
            <Time>2021-08-28T06:16:30.000Z</Time>
            <Position>
              <LatitudeDegrees>38.12551095150411128997802734375</LatitudeDegrees>
              <LongitudeDegrees>-1.86163435690104961395263671875</LongitudeDegrees>
            </Position>
            <AltitudeMeters>729</AltitudeMeters>
            <DistanceMeters>20537.929164689</DistanceMeters>
          </Trackpoint>
          <Trackpoint>
            <Time>2021-08-28T06:16:31.000Z</Time>
            <Position>
              <LatitudeDegrees>38.1255681999027729034423828125</LatitudeDegrees>
              <LongitudeDegrees>-1.86145163141191005706787109375</LongitudeDegrees>
            </Position>
            <AltitudeMeters>728.20001220703125</AltitudeMeters>
            <DistanceMeters>20555.150249747</DistanceMeters>
          </Trackpoint>
          <Trackpoint>
            <Time>2021-08-28T06:16:32.000Z</Time>
            <Position>
              <LatitudeDegrees>38.12563986517488956451416015625</LatitudeDegrees>
              <LongitudeDegrees>-1.86127670109272003173828125</LongitudeDegrees>
            </Position>
            <AltitudeMeters>727.4000244140625</AltitudeMeters>
            <DistanceMeters>20572.418985789</DistanceMeters>
          </Trackpoint>
          <Trackpoint>
            <Time>2021-08-28T06:16:33.000Z</Time>
            <Position>
              <LatitudeDegrees>38.1257244385778903961181640625</LatitudeDegrees>
              <LongitudeDegrees>-1.86110973358154296875</LongitudeDegrees>
            </Position>
            <AltitudeMeters>726.20001220703125</AltitudeMeters>
            <DistanceMeters>20589.80653764</DistanceMeters>
          </Trackpoint>
          <Trackpoint>
            <Time>2021-08-28T06:16:35.000Z</Time>
            <Position>
              <LatitudeDegrees>38.12592811882495880126953125</LatitudeDegrees>
              <LongitudeDegrees>-1.86078342609107494354248046875</LongitudeDegrees>
            </Position>
            <AltitudeMeters>723.5999755859375</AltitudeMeters>
            <DistanceMeters>20626.278478921</DistanceMeters>
          </Trackpoint>
          <Trackpoint>
            <Time>2021-08-28T06:16:36.000Z</Time>
            <Position>
              <LatitudeDegrees>38.12604102306067943572998046875</LatitudeDegrees>
              <LongitudeDegrees>-1.86061863787472248077392578125</LongitudeDegrees>
            </Position>
            <AltitudeMeters>722</AltitudeMeters>
            <DistanceMeters>20645.411677792</DistanceMeters>
          </Trackpoint>
          <Trackpoint>
            <Time>2021-08-28T06:16:38.000Z</Time>
            <Position>
              <LatitudeDegrees>38.12626733444631099700927734375</LatitudeDegrees>
              <LongitudeDegrees>-1.8602844513952732086181640625</LongitudeDegrees>
            </Position>
            <AltitudeMeters>720.4000244140625</AltitudeMeters>
            <DistanceMeters>20684.020366437</DistanceMeters>
          </Trackpoint>
          <Trackpoint>
            <Time>2021-08-28T06:16:39.000Z</Time>
            <Position>
              <LatitudeDegrees>38.12637747265398502349853515625</LatitudeDegrees>
              <LongitudeDegrees>-1.860118322074413299560546875</LongitudeDegrees>
            </Position>
            <AltitudeMeters>719.20001220703125</AltitudeMeters>
            <DistanceMeters>20703.042806429</DistanceMeters>
          </Trackpoint>
          <Trackpoint>
            <Time>2021-08-28T06:16:40.000Z</Time>
            <Position>
              <LatitudeDegrees>38.1264831684529781341552734375</LatitudeDegrees>
              <LongitudeDegrees>-1.85995437204837799072265625</LongitudeDegrees>
            </Position>
            <AltitudeMeters>718.20001220703125</AltitudeMeters>
            <DistanceMeters>20721.602231689</DistanceMeters>
          </Trackpoint>
          <Trackpoint>
            <Time>2021-08-28T06:16:41.000Z</Time>
            <Position>
              <LatitudeDegrees>38.1265837512910366058349609375</LatitudeDegrees>
              <LongitudeDegrees>-1.85979503206908702850341796875</LongitudeDegrees>
            </Position>
            <AltitudeMeters>717</AltitudeMeters>
            <DistanceMeters>20739.489480459</DistanceMeters>
          </Trackpoint>
          <Trackpoint>
            <Time>2021-08-28T06:16:42.000Z</Time>
            <Position>
              <LatitudeDegrees>38.1266880221664905548095703125</LatitudeDegrees>
              <LongitudeDegrees>-1.85963091440498828887939453125</LongitudeDegrees>
            </Position>
            <AltitudeMeters>715.79998779296875</AltitudeMeters>
            <DistanceMeters>20757.96038591</DistanceMeters>
          </Trackpoint>
          <Trackpoint>
            <Time>2021-08-28T06:16:43.000Z</Time>
            <Position>
              <LatitudeDegrees>38.12679153867065906524658203125</LatitudeDegrees>
              <LongitudeDegrees>-1.85947249643504619598388671875</LongitudeDegrees>
            </Position>
            <AltitudeMeters>714.20001220703125</AltitudeMeters>
            <DistanceMeters>20775.99193971</DistanceMeters>
          </Trackpoint>
          <Trackpoint>
            <Time>2021-08-28T06:16:45.000Z</Time>
            <Position>
              <LatitudeDegrees>38.12699890695512294769287109375</LatitudeDegrees>
              <LongitudeDegrees>-1.85915817506611347198486328125</LongitudeDegrees>
            </Position>
            <AltitudeMeters>712.20001220703125</AltitudeMeters>
            <DistanceMeters>20811.909649425</DistanceMeters>
          </Trackpoint>
          <Trackpoint>
            <Time>2021-08-28T06:16:47.000Z</Time>
            <Position>
              <LatitudeDegrees>38.127206526696681976318359375</LatitudeDegrees>
              <LongitudeDegrees>-1.85884603299200534820556640625</LongitudeDegrees>
            </Position>
            <AltitudeMeters>710.5999755859375</AltitudeMeters>
            <DistanceMeters>20847.699414911</DistanceMeters>
          </Trackpoint>
          <Trackpoint>
            <Time>2021-08-28T06:16:49.000Z</Time>
            <Position>
              <LatitudeDegrees>38.12741330824792385101318359375</LatitudeDegrees>
              <LongitudeDegrees>-1.85854311101138591766357421875</LongitudeDegrees>
            </Position>
            <AltitudeMeters>709.20001220703125</AltitudeMeters>
            <DistanceMeters>20882.815354013</DistanceMeters>
          </Trackpoint>
          <Trackpoint>
            <Time>2021-08-28T06:16:50.000Z</Time>
            <Position>
              <LatitudeDegrees>38.12752160243690013885498046875</LatitudeDegrees>
              <LongitudeDegrees>-1.85839743353426456451416015625</LongitudeDegrees>
            </Position>
            <AltitudeMeters>709</AltitudeMeters>
            <DistanceMeters>20900.364192352</DistanceMeters>
          </Trackpoint>
          <Trackpoint>
            <Time>2021-08-28T06:16:51.000Z</Time>
            <Position>
              <LatitudeDegrees>38.12763534486293792724609375</LatitudeDegrees>
              <LongitudeDegrees>-1.8582570366561412811279296875</LongitudeDegrees>
            </Position>
            <AltitudeMeters>708.4000244140625</AltitudeMeters>
            <DistanceMeters>20918.009504358</DistanceMeters>
          </Trackpoint>
          <Trackpoint>
            <Time>2021-08-28T06:16:52.000Z</Time>
            <Position>
              <LatitudeDegrees>38.12775327824056148529052734375</LatitudeDegrees>
              <LongitudeDegrees>-1.8581266142427921295166015625</LongitudeDegrees>
            </Position>
            <AltitudeMeters>708</AltitudeMeters>
            <DistanceMeters>20935.407439937</DistanceMeters>
          </Trackpoint>
          <Trackpoint>
            <Time>2021-08-28T06:16:54.000Z</Time>
            <Position>
              <LatitudeDegrees>38.12800507061183452606201171875</LatitudeDegrees>
              <LongitudeDegrees>-1.85789166949689388275146484375</LongitudeDegrees>
            </Position>
            <AltitudeMeters>707.20001220703125</AltitudeMeters>
            <DistanceMeters>20970.171376003</DistanceMeters>
          </Trackpoint>
          <Trackpoint>
            <Time>2021-08-28T06:16:55.000Z</Time>
            <Position>
              <LatitudeDegrees>38.12813063152134418487548828125</LatitudeDegrees>
              <LongitudeDegrees>-1.857779435813426971435546875</LongitudeDegrees>
            </Position>
            <AltitudeMeters>706.20001220703125</AltitudeMeters>
            <DistanceMeters>20987.255318778</DistanceMeters>
          </Trackpoint>
          <Trackpoint>
            <Time>2021-08-28T06:16:56.000Z</Time>
            <Position>
              <LatitudeDegrees>38.12825250439345836639404296875</LatitudeDegrees>
              <LongitudeDegrees>-1.85766837559640407562255859375</LongitudeDegrees>
            </Position>
            <AltitudeMeters>705.4000244140625</AltitudeMeters>
            <DistanceMeters>21003.945159043</DistanceMeters>
          </Trackpoint>
          <Trackpoint>
            <Time>2021-08-28T06:16:57.000Z</Time>
            <Position>
              <LatitudeDegrees>38.1283714435994625091552734375</LatitudeDegrees>
              <LongitudeDegrees>-1.857558153569698333740234375</LongitudeDegrees>
            </Position>
            <AltitudeMeters>704.79998779296875</AltitudeMeters>
            <DistanceMeters>21020.327279538</DistanceMeters>
          </Trackpoint>
          <Trackpoint>
            <Time>2021-08-28T06:17:00.000Z</Time>
            <Position>
              <LatitudeDegrees>38.128709904849529266357421875</LatitudeDegrees>
              <LongitudeDegrees>-1.8572438322007656097412109375</LongitudeDegrees>
            </Position>
            <AltitudeMeters>704</AltitudeMeters>
            <DistanceMeters>21066.98007372</DistanceMeters>
          </Trackpoint>
          <Trackpoint>
            <Time>2021-08-28T06:17:01.000Z</Time>
            <Position>
              <LatitudeDegrees>38.1288255751132965087890625</LatitudeDegrees>
              <LongitudeDegrees>-1.85715171508491039276123046875</LongitudeDegrees>
            </Position>
            <AltitudeMeters>703.4000244140625</AltitudeMeters>
            <DistanceMeters>21082.171870643</DistanceMeters>
          </Trackpoint>
          <Trackpoint>
            <Time>2021-08-28T06:17:02.000Z</Time>
            <Position>
              <LatitudeDegrees>38.12894568778574466705322265625</LatitudeDegrees>
              <LongitudeDegrees>-1.85707493685185909271240234375</LongitudeDegrees>
            </Position>
            <AltitudeMeters>702.79998779296875</AltitudeMeters>
            <DistanceMeters>21097.135485698</DistanceMeters>
          </Trackpoint>
          <Trackpoint>
            <Time>2021-08-28T06:17:04.000Z</Time>
            <Position>
              <LatitudeDegrees>38.12919965945184230804443359375</LatitudeDegrees>
              <LongitudeDegrees>-1.85699933208525180816650390625</LongitudeDegrees>
            </Position>
            <AltitudeMeters>702</AltitudeMeters>
            <DistanceMeters>21126.167663282</DistanceMeters>
          </Trackpoint>
          <Trackpoint>
            <Time>2021-08-28T06:17:07.000Z</Time>
            <Position>
              <LatitudeDegrees>38.12958572991192340850830078125</LatitudeDegrees>
              <LongitudeDegrees>-1.85702246613800525665283203125</LongitudeDegrees>
            </Position>
            <AltitudeMeters>701.20001220703125</AltitudeMeters>
            <DistanceMeters>21169.185701659</DistanceMeters>
          </Trackpoint>
          <Trackpoint>
            <Time>2021-08-28T06:17:08.000Z</Time>
            <Position>
              <LatitudeDegrees>38.12970844097435474395751953125</LatitudeDegrees>
              <LongitudeDegrees>-1.85704442672431468963623046875</LongitudeDegrees>
            </Position>
            <AltitudeMeters>700.79998779296875</AltitudeMeters>
            <DistanceMeters>21182.978658214</DistanceMeters>
          </Trackpoint>
          <Trackpoint>
            <Time>2021-08-28T06:17:10.000Z</Time>
            <Position>
              <LatitudeDegrees>38.1299428828060626983642578125</LatitudeDegrees>
              <LongitudeDegrees>-1.85709689743816852569580078125</LongitudeDegrees>
            </Position>
            <AltitudeMeters>700.20001220703125</AltitudeMeters>
            <DistanceMeters>21209.473735354</DistanceMeters>
          </Trackpoint>
          <Trackpoint>
            <Time>2021-08-28T06:17:12.000Z</Time>
            <Position>
              <LatitudeDegrees>38.1301631592214107513427734375</LatitudeDegrees>
              <LongitudeDegrees>-1.85716629959642887115478515625</LongitudeDegrees>
            </Position>
            <AltitudeMeters>699.79998779296875</AltitudeMeters>
            <DistanceMeters>21234.732615398</DistanceMeters>
          </Trackpoint>
          <Trackpoint>
            <Time>2021-08-28T06:17:13.000Z</Time>
            <Position>
              <LatitudeDegrees>38.13026969321072101593017578125</LatitudeDegrees>
              <LongitudeDegrees>-1.85720242559909820556640625</LongitudeDegrees>
            </Position>
            <AltitudeMeters>699.5999755859375</AltitudeMeters>
            <DistanceMeters>21247.004681847</DistanceMeters>
          </Trackpoint>
          <Trackpoint>
            <Time>2021-08-28T06:17:18.000Z</Time>
            <Position>
              <LatitudeDegrees>38.1307562626898288726806640625</LatitudeDegrees>
              <LongitudeDegrees>-1.85737274587154388427734375</LongitudeDegrees>
            </Position>
            <AltitudeMeters>699</AltitudeMeters>
            <DistanceMeters>21303.176322296</DistanceMeters>
          </Trackpoint>
          <Trackpoint>
            <Time>2021-08-28T06:17:20.000Z</Time>
            <Position>
              <LatitudeDegrees>38.13093504868447780609130859375</LatitudeDegrees>
              <LongitudeDegrees>-1.8574339337646961212158203125</LongitudeDegrees>
            </Position>
            <AltitudeMeters>699</AltitudeMeters>
            <DistanceMeters>21323.784196887</DistanceMeters>
          </Trackpoint>
          <Trackpoint>
            <Time>2021-08-28T06:17:25.000Z</Time>
            <Position>
              <LatitudeDegrees>38.131329752504825592041015625</LatitudeDegrees>
              <LongitudeDegrees>-1.85759377665817737579345703125</LongitudeDegrees>
            </Position>
            <AltitudeMeters>699.20001220703125</AltitudeMeters>
            <DistanceMeters>21369.890469301</DistanceMeters>
          </Trackpoint>
          <Trackpoint>
            <Time>2021-08-28T06:17:29.000Z</Time>
            <Position>
              <LatitudeDegrees>38.1316242925822734832763671875</LatitudeDegrees>
              <LongitudeDegrees>-1.85771900229156017303466796875</LongitudeDegrees>
            </Position>
            <AltitudeMeters>700</AltitudeMeters>
            <DistanceMeters>21404.457995905</DistanceMeters>
          </Trackpoint>
          <Trackpoint>
            <Time>2021-08-28T06:17:30.000Z</Time>
            <Position>
              <LatitudeDegrees>38.13169478438794612884521484375</LatitudeDegrees>
              <LongitudeDegrees>-1.85774900950491428375244140625</LongitudeDegrees>
            </Position>
            <AltitudeMeters>700</AltitudeMeters>
            <DistanceMeters>21412.73132531</DistanceMeters>
          </Trackpoint>
          <Trackpoint>
            <Time>2021-08-28T06:17:32.000Z</Time>
            <Position>
              <LatitudeDegrees>38.1318318285048007965087890625</LatitudeDegrees>
              <LongitudeDegrees>-1.8578101135790348052978515625</LongitudeDegrees>
            </Position>
            <AltitudeMeters>700.5999755859375</AltitudeMeters>
            <DistanceMeters>21428.895645955</DistanceMeters>
          </Trackpoint>
          <Trackpoint>
            <Time>2021-08-28T06:17:33.000Z</Time>
            <Position>
              <LatitudeDegrees>38.131897710263729095458984375</LatitudeDegrees>
              <LongitudeDegrees>-1.85784154571592807769775390625</LongitudeDegrees>
            </Position>
            <AltitudeMeters>700.79998779296875</AltitudeMeters>
            <DistanceMeters>21436.727715239</DistanceMeters>
          </Trackpoint>
          <Trackpoint>
            <Time>2021-08-28T06:17:38.000Z</Time>
            <Position>
              <LatitudeDegrees>38.13220054842531681060791015625</LatitudeDegrees>
              <LongitudeDegrees>-1.85799091123044490814208984375</LongitudeDegrees>
            </Position>
            <AltitudeMeters>702</AltitudeMeters>
            <DistanceMeters>21472.881977167</DistanceMeters>
          </Trackpoint>
          <Trackpoint>
            <Time>2021-08-28T06:17:39.000Z</Time>
            <Position>
              <LatitudeDegrees>38.1322616524994373321533203125</LatitudeDegrees>
              <LongitudeDegrees>-1.8580199964344501495361328125</LongitudeDegrees>
            </Position>
            <AltitudeMeters>702</AltitudeMeters>
            <DistanceMeters>21480.143908482</DistanceMeters>
          </Trackpoint>
          <Trackpoint>
            <Time>2021-08-28T06:17:40.000Z</Time>
            <Position>
              <LatitudeDegrees>38.1323226727545261383056640625</LatitudeDegrees>
              <LongitudeDegrees>-1.85804874636232852935791015625</LongitudeDegrees>
            </Position>
            <AltitudeMeters>702</AltitudeMeters>
            <DistanceMeters>21487.387163561</DistanceMeters>
          </Trackpoint>
          <Trackpoint>
            <Time>2021-08-28T06:17:44.000Z</Time>
            <Position>
              <LatitudeDegrees>38.132570274174213409423828125</LatitudeDegrees>
              <LongitudeDegrees>-1.85816324315965175628662109375</LongitudeDegrees>
            </Position>
            <AltitudeMeters>703</AltitudeMeters>
            <DistanceMeters>21516.712105844</DistanceMeters>
          </Trackpoint>
          <Trackpoint>
            <Time>2021-08-28T06:17:47.000Z</Time>
            <Position>
              <LatitudeDegrees>38.13275224529206752777099609375</LatitudeDegrees>
              <LongitudeDegrees>-1.85824153013527393341064453125</LongitudeDegrees>
            </Position>
            <AltitudeMeters>703.5999755859375</AltitudeMeters>
            <DistanceMeters>21538.094172404</DistanceMeters>
          </Trackpoint>
          <Trackpoint>
            <Time>2021-08-28T06:17:49.000Z</Time>
            <Position>
              <LatitudeDegrees>38.1328735314309597015380859375</LatitudeDegrees>
              <LongitudeDegrees>-1.8582912348210811614990234375</LongitudeDegrees>
            </Position>
            <AltitudeMeters>704</AltitudeMeters>
            <DistanceMeters>21552.277685474</DistanceMeters>
          </Trackpoint>
          <Trackpoint>
            <Time>2021-08-28T06:17:50.000Z</Time>
            <Position>
              <LatitudeDegrees>38.13293513841927051544189453125</LatitudeDegrees>
              <LongitudeDegrees>-1.85831445269286632537841796875</LongitudeDegrees>
            </Position>
            <AltitudeMeters>704.20001220703125</AltitudeMeters>
            <DistanceMeters>21559.429984619</DistanceMeters>
          </Trackpoint>
          <Trackpoint>
            <Time>2021-08-28T06:17:54.000Z</Time>
            <Position>
              <LatitudeDegrees>38.13318743370473384857177734375</LatitudeDegrees>
              <LongitudeDegrees>-1.85837815515697002410888671875</LongitudeDegrees>
            </Position>
            <AltitudeMeters>704.79998779296875</AltitudeMeters>
            <DistanceMeters>21588.059374739</DistanceMeters>
          </Trackpoint>
          <Trackpoint>
            <Time>2021-08-28T06:17:56.000Z</Time>
            <Position>
              <LatitudeDegrees>38.133320622146129608154296875</LatitudeDegrees>
              <LongitudeDegrees>-1.8583831004798412322998046875</LongitudeDegrees>
            </Position>
            <AltitudeMeters>705</AltitudeMeters>
            <DistanceMeters>21602.890241269</DistanceMeters>
          </Trackpoint>
          <Trackpoint>
            <Time>2021-08-28T06:17:59.000Z</Time>
            <Position>
              <LatitudeDegrees>38.13352170400321483612060546875</LatitudeDegrees>
              <LongitudeDegrees>-1.8583616428077220916748046875</LongitudeDegrees>
            </Position>
            <AltitudeMeters>705.4000244140625</AltitudeMeters>
            <DistanceMeters>21625.349941408</DistanceMeters>
          </Trackpoint>
          <Trackpoint>
            <Time>2021-08-28T06:18:00.000Z</Time>
            <Position>
              <LatitudeDegrees>38.13358892686665058135986328125</LatitudeDegrees>
              <LongitudeDegrees>-1.85834362171590328216552734375</LongitudeDegrees>
            </Position>
            <AltitudeMeters>705.5999755859375</AltitudeMeters>
            <DistanceMeters>21632.995902099</DistanceMeters>
          </Trackpoint>
          <Trackpoint>
            <Time>2021-08-28T06:18:08.000Z</Time>
            <Position>
              <LatitudeDegrees>38.13415939919650554656982421875</LatitudeDegrees>
              <LongitudeDegrees>-1.85822510160505771636962890625</LongitudeDegrees>
            </Position>
            <AltitudeMeters>705.4000244140625</AltitudeMeters>
            <DistanceMeters>21697.332847634</DistanceMeters>
          </Trackpoint>
          <Trackpoint>
            <Time>2021-08-28T06:18:10.000Z</Time>
            <Position>
              <LatitudeDegrees>38.134309351444244384765625</LatitudeDegrees>
              <LongitudeDegrees>-1.858195848762989044189453125</LongitudeDegrees>
            </Position>
            <AltitudeMeters>705.4000244140625</AltitudeMeters>
            <DistanceMeters>21714.218215076</DistanceMeters>
          </Trackpoint>
          <Trackpoint>
            <Time>2021-08-28T06:18:18.000Z</Time>
            <Position>
              <LatitudeDegrees>38.1349123455584049224853515625</LatitudeDegrees>
              <LongitudeDegrees>-1.85808956623077392578125</LongitudeDegrees>
            </Position>
            <AltitudeMeters>705.4000244140625</AltitudeMeters>
            <DistanceMeters>21781.974594734</DistanceMeters>
          </Trackpoint>
          <Trackpoint>
            <Time>2021-08-28T06:18:19.000Z</Time>
            <Position>
              <LatitudeDegrees>38.1349844299256801605224609375</LatitudeDegrees>
              <LongitudeDegrees>-1.858077831566333770751953125</LongitudeDegrees>
            </Position>
            <AltitudeMeters>705.4000244140625</AltitudeMeters>
            <DistanceMeters>21790.063037343</DistanceMeters>
          </Trackpoint>
          <Trackpoint>
            <Time>2021-08-28T06:18:20.000Z</Time>
            <Position>
              <LatitudeDegrees>38.1350568495690822601318359375</LatitudeDegrees>
              <LongitudeDegrees>-1.85806467197835445404052734375</LongitudeDegrees>
            </Position>
            <AltitudeMeters>705.4000244140625</AltitudeMeters>
            <DistanceMeters>21798.205446155</DistanceMeters>
          </Trackpoint>
          <Trackpoint>
            <Time>2021-08-28T06:18:27.000Z</Time>
            <Position>
              <LatitudeDegrees>38.1355364620685577392578125</LatitudeDegrees>
              <LongitudeDegrees>-1.857963167130947113037109375</LongitudeDegrees>
            </Position>
            <AltitudeMeters>706.20001220703125</AltitudeMeters>
            <DistanceMeters>21852.321971099</DistanceMeters>
          </Trackpoint>
          <Trackpoint>
            <Time>2021-08-28T06:18:28.000Z</Time>
            <Position>
              <LatitudeDegrees>38.13560150563716888427734375</LatitudeDegrees>
              <LongitudeDegrees>-1.857948414981365203857421875</LongitudeDegrees>
            </Position>
            <AltitudeMeters>706.5999755859375</AltitudeMeters>
            <DistanceMeters>21859.676572237</DistanceMeters>
          </Trackpoint>
          <Trackpoint>
            <Time>2021-08-28T06:18:30.000Z</Time>
            <Position>
              <LatitudeDegrees>38.13573637045919895172119140625</LatitudeDegrees>
              <LongitudeDegrees>-1.85791329480707645416259765625</LongitudeDegrees>
            </Position>
            <AltitudeMeters>707.20001220703125</AltitudeMeters>
            <DistanceMeters>21874.998874853</DistanceMeters>
          </Trackpoint>
          <Trackpoint>
            <Time>2021-08-28T06:18:31.000Z</Time>
            <Position>
              <LatitudeDegrees>38.135805018246173858642578125</LatitudeDegrees>
              <LongitudeDegrees>-1.85789443552494049072265625</LongitudeDegrees>
            </Position>
            <AltitudeMeters>707.4000244140625</AltitudeMeters>
            <DistanceMeters>21882.815941265</DistanceMeters>
          </Trackpoint>
          <Trackpoint>
            <Time>2021-08-28T06:18:35.000Z</Time>
            <Position>
              <LatitudeDegrees>38.13610735349357128143310546875</LatitudeDegrees>
              <LongitudeDegrees>-1.8578091077506542205810546875</LongitudeDegrees>
            </Position>
            <AltitudeMeters>707.4000244140625</AltitudeMeters>
            <DistanceMeters>21917.285629375</DistanceMeters>
          </Trackpoint>
          <Trackpoint>
            <Time>2021-08-28T06:18:40.000Z</Time>
            <Position>
              <LatitudeDegrees>38.136519491672515869140625</LatitudeDegrees>
              <LongitudeDegrees>-1.85768513940274715423583984375</LongitudeDegrees>
            </Position>
            <AltitudeMeters>706.20001220703125</AltitudeMeters>
            <DistanceMeters>21964.423669112</DistanceMeters>
          </Trackpoint>
          <Trackpoint>
            <Time>2021-08-28T06:18:42.000Z</Time>
            <Position>
              <LatitudeDegrees>38.13669878058135509490966796875</LatitudeDegrees>
              <LongitudeDegrees>-1.8576283939182758331298828125</LongitudeDegrees>
            </Position>
            <AltitudeMeters>705</AltitudeMeters>
            <DistanceMeters>21984.988117561</DistanceMeters>
          </Trackpoint>
          <Trackpoint>
            <Time>2021-08-28T06:18:45.000Z</Time>
            <Position>
              <LatitudeDegrees>38.13696809113025665283203125</LatitudeDegrees>
              <LongitudeDegrees>-1.85754247941076755523681640625</LongitudeDegrees>
            </Position>
            <AltitudeMeters>704</AltitudeMeters>
            <DistanceMeters>22015.892114148</DistanceMeters>
          </Trackpoint>
          <Trackpoint>
            <Time>2021-08-28T06:18:47.000Z</Time>
            <Position>
              <LatitudeDegrees>38.13715022988617420196533203125</LatitudeDegrees>
              <LongitudeDegrees>-1.85748229734599590301513671875</LongitudeDegrees>
            </Position>
            <AltitudeMeters>703.4000244140625</AltitudeMeters>
            <DistanceMeters>22036.837907616</DistanceMeters>
          </Trackpoint>
          <Trackpoint>
            <Time>2021-08-28T06:18:49.000Z</Time>
            <Position>
              <LatitudeDegrees>38.1373316980898380279541015625</LatitudeDegrees>
              <LongitudeDegrees>-1.85742437839508056640625</LongitudeDegrees>
            </Position>
            <AltitudeMeters>703</AltitudeMeters>
            <DistanceMeters>22057.662421804</DistanceMeters>
          </Trackpoint>
          <Trackpoint>
            <Time>2021-08-28T06:18:50.000Z</Time>
            <Position>
              <LatitudeDegrees>38.13742498867213726043701171875</LatitudeDegrees>
              <LongitudeDegrees>-1.85739680193364620208740234375</LongitudeDegrees>
            </Position>
            <AltitudeMeters>702.5999755859375</AltitudeMeters>
            <DistanceMeters>22068.322369363</DistanceMeters>
          </Trackpoint>
          <Trackpoint>
            <Time>2021-08-28T06:18:56.000Z</Time>
            <Position>
              <LatitudeDegrees>38.13798867166042327880859375</LatitudeDegrees>
              <LongitudeDegrees>-1.85722120106220245361328125</LongitudeDegrees>
            </Position>
            <AltitudeMeters>702.20001220703125</AltitudeMeters>
            <DistanceMeters>22132.917263374</DistanceMeters>
          </Trackpoint>
          <Trackpoint>
            <Time>2021-08-28T06:18:58.000Z</Time>
            <Position>
              <LatitudeDegrees>38.1381762586534023284912109375</LatitudeDegrees>
              <LongitudeDegrees>-1.85715951025485992431640625</LongitudeDegrees>
            </Position>
            <AltitudeMeters>701.79998779296875</AltitudeMeters>
            <DistanceMeters>22154.483094153</DistanceMeters>
          </Trackpoint>
          <Trackpoint>
            <Time>2021-08-28T06:18:59.000Z</Time>
            <Position>
              <LatitudeDegrees>38.1382691301405429840087890625</LatitudeDegrees>
              <LongitudeDegrees>-1.8571301735937595367431640625</LongitudeDegrees>
            </Position>
            <AltitudeMeters>701.5999755859375</AltitudeMeters>
            <DistanceMeters>22165.134567311</DistanceMeters>
          </Trackpoint>
          <Trackpoint>
            <Time>2021-08-28T06:19:00.000Z</Time>
            <Position>
              <LatitudeDegrees>38.138361163437366485595703125</LatitudeDegrees>
              <LongitudeDegrees>-1.85710184276103973388671875</LongitudeDegrees>
            </Position>
            <AltitudeMeters>701.5999755859375</AltitudeMeters>
            <DistanceMeters>22175.673968164</DistanceMeters>
          </Trackpoint>
          <Trackpoint>
            <Time>2021-08-28T06:19:06.000Z</Time>
            <Position>
              <LatitudeDegrees>38.13889886252582073211669921875</LatitudeDegrees>
              <LongitudeDegrees>-1.85694199986755847930908203125</LongitudeDegrees>
            </Position>
            <AltitudeMeters>702</AltitudeMeters>
            <DistanceMeters>22237.135025575</DistanceMeters>
          </Trackpoint>
          <Trackpoint>
            <Time>2021-08-28T06:19:08.000Z</Time>
            <Position>
              <LatitudeDegrees>38.13907739706337451934814453125</LatitudeDegrees>
              <LongitudeDegrees>-1.8569015152752399444580078125</LongitudeDegrees>
            </Position>
            <AltitudeMeters>701.79998779296875</AltitudeMeters>
            <DistanceMeters>22257.319871848</DistanceMeters>
          </Trackpoint>
          <Trackpoint>
            <Time>2021-08-28T06:19:10.000Z</Time>
            <Position>
              <LatitudeDegrees>38.139258362352848052978515625</LatitudeDegrees>
              <LongitudeDegrees>-1.85687494464218616485595703125</LongitudeDegrees>
            </Position>
            <AltitudeMeters>701.5999755859375</AltitudeMeters>
            <DistanceMeters>22277.595553345</DistanceMeters>
          </Trackpoint>
          <Trackpoint>
            <Time>2021-08-28T06:19:14.000Z</Time>
            <Position>
              <LatitudeDegrees>38.13964216969907283782958984375</LatitudeDegrees>
              <LongitudeDegrees>-1.856841333210468292236328125</LongitudeDegrees>
            </Position>
            <AltitudeMeters>701.4000244140625</AltitudeMeters>
            <DistanceMeters>22320.415185544</DistanceMeters>
          </Trackpoint>
          <Trackpoint>
            <Time>2021-08-28T06:19:17.000Z</Time>
            <Position>
              <LatitudeDegrees>38.1399394758045673370361328125</LatitudeDegrees>
              <LongitudeDegrees>-1.85681509785354137420654296875</LongitudeDegrees>
            </Position>
            <AltitudeMeters>700.5999755859375</AltitudeMeters>
            <DistanceMeters>22353.585498541</DistanceMeters>
          </Trackpoint>
          <Trackpoint>
            <Time>2021-08-28T06:19:20.000Z</Time>
            <Position>
              <LatitudeDegrees>38.14024365507066249847412109375</LatitudeDegrees>
              <LongitudeDegrees>-1.85678475536406040191650390625</LongitudeDegrees>
            </Position>
            <AltitudeMeters>699.79998779296875</AltitudeMeters>
            <DistanceMeters>22387.545286276</DistanceMeters>
          </Trackpoint>
          <Trackpoint>
            <Time>2021-08-28T06:19:21.000Z</Time>
            <Position>
              <LatitudeDegrees>38.1403461657464504241943359375</LatitudeDegrees>
              <LongitudeDegrees>-1.8567766249179840087890625</LongitudeDegrees>
            </Position>
            <AltitudeMeters>699.5999755859375</AltitudeMeters>
            <DistanceMeters>22398.976569503</DistanceMeters>
          </Trackpoint>
          <Trackpoint>
            <Time>2021-08-28T06:19:23.000Z</Time>
            <Position>
              <LatitudeDegrees>38.1405466608703136444091796875</LatitudeDegrees>
              <LongitudeDegrees>-1.8567632138729095458984375</LongitudeDegrees>
            </Position>
            <AltitudeMeters>699.20001220703125</AltitudeMeters>
            <DistanceMeters>22421.323006072</DistanceMeters>
          </Trackpoint>
          <Trackpoint>
            <Time>2021-08-28T06:19:26.000Z</Time>
            <Position>
              <LatitudeDegrees>38.1408349983394145965576171875</LatitudeDegrees>
              <LongitudeDegrees>-1.85674418695271015167236328125</LongitudeDegrees>
            </Position>
            <AltitudeMeters>698.4000244140625</AltitudeMeters>
            <DistanceMeters>22453.458618752</DistanceMeters>
          </Trackpoint>
          <Trackpoint>
            <Time>2021-08-28T06:19:29.000Z</Time>
            <Position>
              <LatitudeDegrees>38.1410737149417400360107421875</LatitudeDegrees>
              <LongitudeDegrees>-1.8567040376365184783935546875</LongitudeDegrees>
            </Position>
            <AltitudeMeters>697.4000244140625</AltitudeMeters>
            <DistanceMeters>22480.259858663</DistanceMeters>
          </Trackpoint>
          <Trackpoint>
            <Time>2021-08-28T06:19:30.000Z</Time>
            <Position>
              <LatitudeDegrees>38.1411283649504184722900390625</LatitudeDegrees>
              <LongitudeDegrees>-1.85666598379611968994140625</LongitudeDegrees>
            </Position>
            <AltitudeMeters>696.79998779296875</AltitudeMeters>
            <DistanceMeters>22487.194855934</DistanceMeters>
          </Trackpoint>
          <Trackpoint>
            <Time>2021-08-28T06:19:32.000Z</Time>
            <Position>
              <LatitudeDegrees>38.14122333191335201263427734375</LatitudeDegrees>
              <LongitudeDegrees>-1.85657487250864505767822265625</LongitudeDegrees>
            </Position>
            <AltitudeMeters>696.20001220703125</AltitudeMeters>
            <DistanceMeters>22500.43600257</DistanceMeters>
          </Trackpoint>
          <Trackpoint>
            <Time>2021-08-28T06:19:33.000Z</Time>
            <Position>
              <LatitudeDegrees>38.14127781428396701812744140625</LatitudeDegrees>
              <LongitudeDegrees>-1.85653463937342166900634765625</LongitudeDegrees>
            </Position>
            <AltitudeMeters>695.4000244140625</AltitudeMeters>
            <DistanceMeters>22507.448690807</DistanceMeters>
          </Trackpoint>
          <Trackpoint>
            <Time>2021-08-28T06:19:34.000Z</Time>
            <Position>
              <LatitudeDegrees>38.14134017564356327056884765625</LatitudeDegrees>
              <LongitudeDegrees>-1.8565045483410358428955078125</LongitudeDegrees>
            </Position>
            <AltitudeMeters>695</AltitudeMeters>
            <DistanceMeters>22514.871731051</DistanceMeters>
          </Trackpoint>
          <Trackpoint>
            <Time>2021-08-28T06:19:35.000Z</Time>
            <Position>
              <LatitudeDegrees>38.14141008071601390838623046875</LatitudeDegrees>
              <LongitudeDegrees>-1.856487281620502471923828125</LongitudeDegrees>
            </Position>
            <AltitudeMeters>694.79998779296875</AltitudeMeters>
            <DistanceMeters>22522.797209695</DistanceMeters>
          </Trackpoint>
          <Trackpoint>
            <Time>2021-08-28T06:19:37.000Z</Time>
            <Position>
              <LatitudeDegrees>38.1415602006018161773681640625</LatitudeDegrees>
              <LongitudeDegrees>-1.8564891256392002105712890625</LongitudeDegrees>
            </Position>
            <AltitudeMeters>694.5999755859375</AltitudeMeters>
            <DistanceMeters>22539.506786699</DistanceMeters>
          </Trackpoint>
          <Trackpoint>
            <Time>2021-08-28T06:19:39.000Z</Time>
            <Position>
              <LatitudeDegrees>38.14171333797276020050048828125</LatitudeDegrees>
              <LongitudeDegrees>-1.85652424581348896026611328125</LongitudeDegrees>
            </Position>
            <AltitudeMeters>694.4000244140625</AltitudeMeters>
            <DistanceMeters>22556.826171195</DistanceMeters>
          </Trackpoint>
          <Trackpoint>
            <Time>2021-08-28T06:19:40.000Z</Time>
            <Position>
              <LatitudeDegrees>38.14178994856774806976318359375</LatitudeDegrees>
              <LongitudeDegrees>-1.85654469765722751617431640625</LongitudeDegrees>
            </Position>
            <AltitudeMeters>694.5999755859375</AltitudeMeters>
            <DistanceMeters>22565.539141565</DistanceMeters>
          </Trackpoint>
          <Trackpoint>
            <Time>2021-08-28T06:19:42.000Z</Time>
            <Position>
              <LatitudeDegrees>38.14194719307124614715576171875</LatitudeDegrees>
              <LongitudeDegrees>-1.85657386668026447296142578125</LongitudeDegrees>
            </Position>
            <AltitudeMeters>694.79998779296875</AltitudeMeters>
            <DistanceMeters>22583.226112426</DistanceMeters>
          </Trackpoint>
          <Trackpoint>
            <Time>2021-08-28T06:19:45.000Z</Time>
            <Position>
              <LatitudeDegrees>38.14219395630061626434326171875</LatitudeDegrees>
              <LongitudeDegrees>-1.8565957434475421905517578125</LongitudeDegrees>
            </Position>
            <AltitudeMeters>694.79998779296875</AltitudeMeters>
            <DistanceMeters>22610.757960836</DistanceMeters>
          </Trackpoint>
          <Trackpoint>
            <Time>2021-08-28T06:19:50.000Z</Time>
            <Position>
              <LatitudeDegrees>38.14262612722814083099365234375</LatitudeDegrees>
              <LongitudeDegrees>-1.8565742857754230499267578125</LongitudeDegrees>
            </Position>
            <AltitudeMeters>695.20001220703125</AltitudeMeters>
            <DistanceMeters>22658.89619083</DistanceMeters>
          </Trackpoint>
          <Trackpoint>
            <Time>2021-08-28T06:19:52.000Z</Time>
            <Position>
              <LatitudeDegrees>38.142807595431804656982421875</LatitudeDegrees>
              <LongitudeDegrees>-1.856560371816158294677734375</LongitudeDegrees>
            </Position>
            <AltitudeMeters>695.20001220703125</AltitudeMeters>
            <DistanceMeters>22679.130857275</DistanceMeters>
          </Trackpoint>
          <Trackpoint>
            <Time>2021-08-28T06:19:57.000Z</Time>
            <Position>
              <LatitudeDegrees>38.14328745938837528228759765625</LatitudeDegrees>
              <LongitudeDegrees>-1.85651536099612712860107421875</LongitudeDegrees>
            </Position>
            <AltitudeMeters>694</AltitudeMeters>
            <DistanceMeters>22732.685809241</DistanceMeters>
          </Trackpoint>
          <Trackpoint>
            <Time>2021-08-28T06:20:00.000Z</Time>
            <Position>
              <LatitudeDegrees>38.143584765493869781494140625</LatitudeDegrees>
              <LongitudeDegrees>-1.856486611068248748779296875</LongitudeDegrees>
            </Position>
            <AltitudeMeters>693.5999755859375</AltitudeMeters>
            <DistanceMeters>22765.872044088</DistanceMeters>
          </Trackpoint>
          <Trackpoint>
            <Time>2021-08-28T06:20:01.000Z</Time>
            <Position>
              <LatitudeDegrees>38.14368509687483310699462890625</LatitudeDegrees>
              <LongitudeDegrees>-1.8564777262508869171142578125</LongitudeDegrees>
            </Position>
            <AltitudeMeters>693.5999755859375</AltitudeMeters>
            <DistanceMeters>22777.066255574</DistanceMeters>
          </Trackpoint>
          <Trackpoint>
            <Time>2021-08-28T06:20:04.000Z</Time>
            <Position>
              <LatitudeDegrees>38.14399120397865772247314453125</LatitudeDegrees>
              <LongitudeDegrees>-1.85644880868494510650634765625</LongitudeDegrees>
            </Position>
            <AltitudeMeters>692.79998779296875</AltitudeMeters>
            <DistanceMeters>22811.230440928</DistanceMeters>
          </Trackpoint>
          <Trackpoint>
            <Time>2021-08-28T06:20:08.000Z</Time>
            <Position>
              <LatitudeDegrees>38.14440275542438030242919921875</LatitudeDegrees>
              <LongitudeDegrees>-1.85644981451332569122314453125</LongitudeDegrees>
            </Position>
            <AltitudeMeters>692.20001220703125</AltitudeMeters>
            <DistanceMeters>22857.0369644</DistanceMeters>
          </Trackpoint>
          <Trackpoint>
            <Time>2021-08-28T06:20:10.000Z</Time>
            <Position>
              <LatitudeDegrees>38.1446105428040027618408203125</LatitudeDegrees>
              <LongitudeDegrees>-1.856487281620502471923828125</LongitudeDegrees>
            </Position>
            <AltitudeMeters>691.79998779296875</AltitudeMeters>
            <DistanceMeters>22880.395373568</DistanceMeters>
          </Trackpoint>
          <Trackpoint>
            <Time>2021-08-28T06:20:13.000Z</Time>
            <Position>
              <LatitudeDegrees>38.14492561854422092437744140625</LatitudeDegrees>
              <LongitudeDegrees>-1.85658174566924571990966796875</LongitudeDegrees>
            </Position>
            <AltitudeMeters>691</AltitudeMeters>
            <DistanceMeters>22916.425664294</DistanceMeters>
          </Trackpoint>
          <Trackpoint>
            <Time>2021-08-28T06:20:14.000Z</Time>
            <Position>
              <LatitudeDegrees>38.14503206871449947357177734375</LatitudeDegrees>
              <LongitudeDegrees>-1.85661778785288333892822265625</LongitudeDegrees>
            </Position>
            <AltitudeMeters>690.5999755859375</AltitudeMeters>
            <DistanceMeters>22928.68668842</DistanceMeters>
          </Trackpoint>
          <Trackpoint>
            <Time>2021-08-28T06:20:17.000Z</Time>
            <Position>
              <LatitudeDegrees>38.1453394331037998199462890625</LatitudeDegrees>
              <LongitudeDegrees>-1.856737397611141204833984375</LongitudeDegrees>
            </Position>
            <AltitudeMeters>689.4000244140625</AltitudeMeters>
            <DistanceMeters>22964.463205236</DistanceMeters>
          </Trackpoint>
          <Trackpoint>
            <Time>2021-08-28T06:20:20.000Z</Time>
            <Position>
              <LatitudeDegrees>38.1456510722637176513671875</LatitudeDegrees>
              <LongitudeDegrees>-1.85684569180011749267578125</LongitudeDegrees>
            </Position>
            <AltitudeMeters>688.79998779296875</AltitudeMeters>
            <DistanceMeters>23000.421243638</DistanceMeters>
          </Trackpoint>
          <Trackpoint>
            <Time>2021-08-28T06:20:23.000Z</Time>
            <Position>
              <LatitudeDegrees>38.1459704227745532989501953125</LatitudeDegrees>
              <LongitudeDegrees>-1.85695189051330089569091796875</LongitudeDegrees>
            </Position>
            <AltitudeMeters>688</AltitudeMeters>
            <DistanceMeters>23037.160960523</DistanceMeters>
          </Trackpoint>
          <Trackpoint>
            <Time>2021-08-28T06:20:25.000Z</Time>
            <Position>
              <LatitudeDegrees>38.1461836583912372589111328125</LatitudeDegrees>
              <LongitudeDegrees>-1.85702699236571788787841796875</LongitudeDegrees>
            </Position>
            <AltitudeMeters>687</AltitudeMeters>
            <DistanceMeters>23061.788284461</DistanceMeters>
          </Trackpoint>
          <Trackpoint>
            <Time>2021-08-28T06:20:28.000Z</Time>
            <Position>
              <LatitudeDegrees>38.146507702767848968505859375</LatitudeDegrees>
              <LongitudeDegrees>-1.85713528655469417572021484375</LongitudeDegrees>
            </Position>
            <AltitudeMeters>685.79998779296875</AltitudeMeters>
            <DistanceMeters>23099.080186435</DistanceMeters>
          </Trackpoint>
          <Trackpoint>
            <Time>2021-08-28T06:20:30.000Z</Time>
            <Position>
              <LatitudeDegrees>38.14672923646867275238037109375</LatitudeDegrees>
              <LongitudeDegrees>-1.85720854438841342926025390625</LongitudeDegrees>
            </Position>
            <AltitudeMeters>685.20001220703125</AltitudeMeters>
            <DistanceMeters>23124.557626553</DistanceMeters>
          </Trackpoint>
          <Trackpoint>
            <Time>2021-08-28T06:20:33.000Z</Time>
            <Position>
              <LatitudeDegrees>38.147064931690692901611328125</LatitudeDegrees>
              <LongitudeDegrees>-1.85732471756637096405029296875</LongitudeDegrees>
            </Position>
            <AltitudeMeters>684.79998779296875</AltitudeMeters>
            <DistanceMeters>23163.280283919</DistanceMeters>
          </Trackpoint>
          <Trackpoint>
            <Time>2021-08-28T06:20:36.000Z</Time>
            <Position>
              <LatitudeDegrees>38.14739358611404895782470703125</LatitudeDegrees>
              <LongitudeDegrees>-1.85743519105017185211181640625</LongitudeDegrees>
            </Position>
            <AltitudeMeters>683.79998779296875</AltitudeMeters>
            <DistanceMeters>23201.116671156</DistanceMeters>
          </Trackpoint>
          <Trackpoint>
            <Time>2021-08-28T06:20:40.000Z</Time>
            <Position>
              <LatitudeDegrees>38.14781117253005504608154296875</LatitudeDegrees>
              <LongitudeDegrees>-1.857579611241817474365234375</LongitudeDegrees>
            </Position>
            <AltitudeMeters>682.5999755859375</AltitudeMeters>
            <DistanceMeters>23249.283218365</DistanceMeters>
          </Trackpoint>
          <Trackpoint>
            <Time>2021-08-28T06:20:43.000Z</Time>
            <Position>
              <LatitudeDegrees>38.14810085110366344451904296875</LatitudeDegrees>
              <LongitudeDegrees>-1.85768195427954196929931640625</LongitudeDegrees>
            </Position>
            <AltitudeMeters>682.20001220703125</AltitudeMeters>
            <DistanceMeters>23282.746387066</DistanceMeters>
          </Trackpoint>
          <Trackpoint>
            <Time>2021-08-28T06:20:49.000Z</Time>
            <Position>
              <LatitudeDegrees>38.14860980026423931121826171875</LatitudeDegrees>
              <LongitudeDegrees>-1.85785680077970027923583984375</LongitudeDegrees>
            </Position>
            <AltitudeMeters>682.79998779296875</AltitudeMeters>
            <DistanceMeters>23341.42444061</DistanceMeters>
          </Trackpoint>
          <Trackpoint>
            <Time>2021-08-28T06:20:50.000Z</Time>
            <Position>
              <LatitudeDegrees>38.14868842251598834991455078125</LatitudeDegrees>
              <LongitudeDegrees>-1.8578832037746906280517578125</LongitudeDegrees>
            </Position>
            <AltitudeMeters>683.4000244140625</AltitudeMeters>
            <DistanceMeters>23350.475454558</DistanceMeters>
          </Trackpoint>
          <Trackpoint>
            <Time>2021-08-28T06:20:51.000Z</Time>
            <Position>
              <LatitudeDegrees>38.14876603893935680389404296875</LatitudeDegrees>
              <LongitudeDegrees>-1.857908852398395538330078125</LongitudeDegrees>
            </Position>
            <AltitudeMeters>683.5999755859375</AltitudeMeters>
            <DistanceMeters>23359.401898113</DistanceMeters>
          </Trackpoint>
          <Trackpoint>
            <Time>2021-08-28T06:20:55.000Z</Time>
            <Position>
              <LatitudeDegrees>38.14906862564384937286376953125</LatitudeDegrees>
              <LongitudeDegrees>-1.85801119543612003326416015625</LongitudeDegrees>
            </Position>
            <AltitudeMeters>684.5999755859375</AltitudeMeters>
            <DistanceMeters>23394.251447626</DistanceMeters>
          </Trackpoint>
          <Trackpoint>
            <Time>2021-08-28T06:20:57.000Z</Time>
            <Position>
              <LatitudeDegrees>38.14921312965452671051025390625</LatitudeDegrees>
              <LongitudeDegrees>-1.8580632470548152923583984375</LongitudeDegrees>
            </Position>
            <AltitudeMeters>685</AltitudeMeters>
            <DistanceMeters>23410.968048526</DistanceMeters>
          </Trackpoint>
          <Trackpoint>
            <Time>2021-08-28T06:21:00.000Z</Time>
            <Position>
              <LatitudeDegrees>38.14943977631628513336181640625</LatitudeDegrees>
              <LongitudeDegrees>-1.85813776217401027679443359375</LongitudeDegrees>
            </Position>
            <AltitudeMeters>685.20001220703125</AltitudeMeters>
            <DistanceMeters>23437.023742859</DistanceMeters>
          </Trackpoint>
          <Trackpoint>
            <Time>2021-08-28T06:21:05.000Z</Time>
            <Position>
              <LatitudeDegrees>38.14985685981810092926025390625</LatitudeDegrees>
              <LongitudeDegrees>-1.85827086679637432098388671875</LongitudeDegrees>
            </Position>
            <AltitudeMeters>685.4000244140625</AltitudeMeters>
            <DistanceMeters>23484.885520849</DistanceMeters>
          </Trackpoint>
          <Trackpoint>
            <Time>2021-08-28T06:21:10.000Z</Time>
            <Position>
              <LatitudeDegrees>38.1503105722367763519287109375</LatitudeDegrees>
              <LongitudeDegrees>-1.85840413905680179595947265625</LongitudeDegrees>
            </Position>
            <AltitudeMeters>685.20001220703125</AltitudeMeters>
            <DistanceMeters>23536.71438366</DistanceMeters>
          </Trackpoint>
          <Trackpoint>
            <Time>2021-08-28T06:21:13.000Z</Time>
            <Position>
              <LatitudeDegrees>38.150592036545276641845703125</LatitudeDegrees>
              <LongitudeDegrees>-1.85845443047583103179931640625</LongitudeDegrees>
            </Position>
            <AltitudeMeters>685</AltitudeMeters>
            <DistanceMeters>23568.349860142</DistanceMeters>
          </Trackpoint>
          <Trackpoint>
            <Time>2021-08-28T06:21:17.000Z</Time>
            <Position>
              <LatitudeDegrees>38.15096846781671047210693359375</LatitudeDegrees>
              <LongitudeDegrees>-1.8584082461893558502197265625</LongitudeDegrees>
            </Position>
            <AltitudeMeters>684</AltitudeMeters>
            <DistanceMeters>23610.441975184</DistanceMeters>
          </Trackpoint>
          <Trackpoint>
            <Time>2021-08-28T06:21:19.000Z</Time>
            <Position>
              <LatitudeDegrees>38.151163347065448760986328125</LatitudeDegrees>
              <LongitudeDegrees>-1.8583649955689907073974609375</LongitudeDegrees>
            </Position>
            <AltitudeMeters>683.4000244140625</AltitudeMeters>
            <DistanceMeters>23632.460302644</DistanceMeters>
          </Trackpoint>
          <Trackpoint>
            <Time>2021-08-28T06:21:20.000Z</Time>
            <Position>
              <LatitudeDegrees>38.151263929903507232666015625</LatitudeDegrees>
              <LongitudeDegrees>-1.85834278352558612823486328125</LongitudeDegrees>
            </Position>
            <AltitudeMeters>683.20001220703125</AltitudeMeters>
            <DistanceMeters>23643.823050243</DistanceMeters>
          </Trackpoint>
          <Trackpoint>
            <Time>2021-08-28T06:21:24.000Z</Time>
            <Position>
              <LatitudeDegrees>38.1516677699983119964599609375</LatitudeDegrees>
              <LongitudeDegrees>-1.85825007967650890350341796875</LongitudeDegrees>
            </Position>
            <AltitudeMeters>682.20001220703125</AltitudeMeters>
            <DistanceMeters>23689.497796444</DistanceMeters>
          </Trackpoint>
          <Trackpoint>
            <Time>2021-08-28T06:21:30.000Z</Time>
            <Position>
              <LatitudeDegrees>38.152269758284091949462890625</LatitudeDegrees>
              <LongitudeDegrees>-1.85812066309154033660888671875</LongitudeDegrees>
            </Position>
            <AltitudeMeters>681.5999755859375</AltitudeMeters>
            <DistanceMeters>23757.451000567</DistanceMeters>
          </Trackpoint>
          <Trackpoint>
            <Time>2021-08-28T06:21:32.000Z</Time>
            <Position>
              <LatitudeDegrees>38.1524704210460186004638671875</LatitudeDegrees>
              <LongitudeDegrees>-1.858097948133945465087890625</LongitudeDegrees>
            </Position>
            <AltitudeMeters>681.20001220703125</AltitudeMeters>
            <DistanceMeters>23779.873680965</DistanceMeters>
          </Trackpoint>
          <Trackpoint>
            <Time>2021-08-28T06:21:34.000Z</Time>
            <Position>
              <LatitudeDegrees>38.152671754360198974609375</LatitudeDegrees>
              <LongitudeDegrees>-1.858103983104228973388671875</LongitudeDegrees>
            </Position>
            <AltitudeMeters>680.79998779296875</AltitudeMeters>
            <DistanceMeters>23802.288708365</DistanceMeters>
          </Trackpoint>
          <Trackpoint>
            <Time>2021-08-28T06:21:35.000Z</Time>
            <Position>
              <LatitudeDegrees>38.15277032554149627685546875</LatitudeDegrees>
              <LongitudeDegrees>-1.85812887735664844512939453125</LongitudeDegrees>
            </Position>
            <AltitudeMeters>680.79998779296875</AltitudeMeters>
            <DistanceMeters>23813.474446571</DistanceMeters>
          </Trackpoint>
          <Trackpoint>
            <Time>2021-08-28T06:21:37.000Z</Time>
            <Position>
              <LatitudeDegrees>38.152953721582889556884765625</LatitudeDegrees>
              <LongitudeDegrees>-1.85821764171123504638671875</LongitudeDegrees>
            </Position>
            <AltitudeMeters>680.79998779296875</AltitudeMeters>
            <DistanceMeters>23835.315091895</DistanceMeters>
          </Trackpoint>
          <Trackpoint>
            <Time>2021-08-28T06:21:40.000Z</Time>
            <Position>
              <LatitudeDegrees>38.1531845591962337493896484375</LatitudeDegrees>
              <LongitudeDegrees>-1.8584384210407733917236328125</LongitudeDegrees>
            </Position>
            <AltitudeMeters>680.20001220703125</AltitudeMeters>
            <DistanceMeters>23867.463347044</DistanceMeters>
          </Trackpoint>
          <Trackpoint>
            <Time>2021-08-28T06:21:41.000Z</Time>
            <Position>
              <LatitudeDegrees>38.15326343290507793426513671875</LatitudeDegrees>
              <LongitudeDegrees>-1.8585200607776641845703125</LongitudeDegrees>
            </Position>
            <AltitudeMeters>680</AltitudeMeters>
            <DistanceMeters>23878.782301262</DistanceMeters>
          </Trackpoint>
          <Trackpoint>
            <Time>2021-08-28T06:21:46.000Z</Time>
            <Position>
              <LatitudeDegrees>38.1536681950092315673828125</LatitudeDegrees>
              <LongitudeDegrees>-1.85890168882906436920166015625</LongitudeDegrees>
            </Position>
            <AltitudeMeters>678.79998779296875</AltitudeMeters>
            <DistanceMeters>23934.864649697</DistanceMeters>
          </Trackpoint>
          <Trackpoint>
            <Time>2021-08-28T06:21:48.000Z</Time>
            <Position>
              <LatitudeDegrees>38.1538232602179050445556640625</LatitudeDegrees>
              <LongitudeDegrees>-1.85904644429683685302734375</LongitudeDegrees>
            </Position>
            <AltitudeMeters>678.5999755859375</AltitudeMeters>
            <DistanceMeters>23956.274571239</DistanceMeters>
          </Trackpoint>
          <Trackpoint>
            <Time>2021-08-28T06:21:50.000Z</Time>
            <Position>
              <LatitudeDegrees>38.15398192964494228363037109375</LatitudeDegrees>
              <LongitudeDegrees>-1.85918969102203845977783203125</LongitudeDegrees>
            </Position>
            <AltitudeMeters>678.20001220703125</AltitudeMeters>
            <DistanceMeters>23977.932741775</DistanceMeters>
          </Trackpoint>
          <Trackpoint>
            <Time>2021-08-28T06:21:52.000Z</Time>
            <Position>
              <LatitudeDegrees>38.15414051525294780731201171875</LatitudeDegrees>
              <LongitudeDegrees>-1.85933821834623813629150390625</LongitudeDegrees>
            </Position>
            <AltitudeMeters>677.79998779296875</AltitudeMeters>
            <DistanceMeters>23999.854068104</DistanceMeters>
          </Trackpoint>
          <Trackpoint>
            <Time>2021-08-28T06:21:58.000Z</Time>
            <Position>
              <LatitudeDegrees>38.15461032092571258544921875</LatitudeDegrees>
              <LongitudeDegrees>-1.85977491550147533416748046875</LongitudeDegrees>
            </Position>
            <AltitudeMeters>677.79998779296875</AltitudeMeters>
            <DistanceMeters>24064.623679911</DistanceMeters>
          </Trackpoint>
          <Trackpoint>
            <Time>2021-08-28T06:22:00.000Z</Time>
            <Position>
              <LatitudeDegrees>38.1547600217163562774658203125</LatitudeDegrees>
              <LongitudeDegrees>-1.85991371981799602508544921875</LongitudeDegrees>
            </Position>
            <AltitudeMeters>677.5999755859375</AltitudeMeters>
            <DistanceMeters>24085.244257972</DistanceMeters>
          </Trackpoint>
          <Trackpoint>
            <Time>2021-08-28T06:22:05.000Z</Time>
            <Position>
              <LatitudeDegrees>38.15513645298779010772705078125</LatitudeDegrees>
              <LongitudeDegrees>-1.86025285162031650543212890625</LongitudeDegrees>
            </Position>
            <AltitudeMeters>676.79998779296875</AltitudeMeters>
            <DistanceMeters>24136.590085733</DistanceMeters>
          </Trackpoint>
          <Trackpoint>
            <Time>2021-08-28T06:22:09.000Z</Time>
            <Position>
              <LatitudeDegrees>38.15540215931832790374755859375</LatitudeDegrees>
              <LongitudeDegrees>-1.86051361262798309326171875</LongitudeDegrees>
            </Position>
            <AltitudeMeters>676.5999755859375</AltitudeMeters>
            <DistanceMeters>24173.945859492</DistanceMeters>
          </Trackpoint>
          <Trackpoint>
            <Time>2021-08-28T06:22:10.000Z</Time>
            <Position>
              <LatitudeDegrees>38.15546703524887561798095703125</LatitudeDegrees>
              <LongitudeDegrees>-1.860572285950183868408203125</LongitudeDegrees>
            </Position>
            <AltitudeMeters>676.79998779296875</AltitudeMeters>
            <DistanceMeters>24182.806813994</DistanceMeters>
          </Trackpoint>
          <Trackpoint>
            <Time>2021-08-28T06:22:13.000Z</Time>
            <Position>
              <LatitudeDegrees>38.15567054785788059234619140625</LatitudeDegrees>
              <LongitudeDegrees>-1.860730536282062530517578125</LongitudeDegrees>
            </Position>
            <AltitudeMeters>677.4000244140625</AltitudeMeters>
            <DistanceMeters>24209.356876656</DistanceMeters>
          </Trackpoint>
          <Trackpoint>
            <Time>2021-08-28T06:22:14.000Z</Time>
            <Position>
              <LatitudeDegrees>38.15572938881814479827880859375</LatitudeDegrees>
              <LongitudeDegrees>-1.86078476719558238983154296875</LongitudeDegrees>
            </Position>
            <AltitudeMeters>677.5999755859375</AltitudeMeters>
            <DistanceMeters>24217.444761037</DistanceMeters>
          </Trackpoint>
          <Trackpoint>
            <Time>2021-08-28T06:22:15.000Z</Time>
            <Position>
              <LatitudeDegrees>38.1557816080749034881591796875</LatitudeDegrees>
              <LongitudeDegrees>-1.86083220876753330230712890625</LongitudeDegrees>
            </Position>
            <AltitudeMeters>678</AltitudeMeters>
            <DistanceMeters>24224.587584842</DistanceMeters>
          </Trackpoint>
          <Trackpoint>
            <Time>2021-08-28T06:22:17.000Z</Time>
            <Position>
              <LatitudeDegrees>38.1558919139206409454345703125</LatitudeDegrees>
              <LongitudeDegrees>-1.8609204702079296112060546875</LongitudeDegrees>
            </Position>
            <AltitudeMeters>678.4000244140625</AltitudeMeters>
            <DistanceMeters>24239.09278326</DistanceMeters>
          </Trackpoint>
          <Trackpoint>
            <Time>2021-08-28T06:22:19.000Z</Time>
            <Position>
              <LatitudeDegrees>38.1559854559600353240966796875</LatitudeDegrees>
              <LongitudeDegrees>-1.86101258732378482818603515625</LongitudeDegrees>
            </Position>
            <AltitudeMeters>678.79998779296875</AltitudeMeters>
            <DistanceMeters>24252.260756828</DistanceMeters>
          </Trackpoint>
          <Trackpoint>
            <Time>2021-08-28T06:22:20.000Z</Time>
            <Position>
              <LatitudeDegrees>38.15602946095168590545654296875</LatitudeDegrees>
              <LongitudeDegrees>-1.86105349101126194000244140625</LongitudeDegrees>
            </Position>
            <AltitudeMeters>679</AltitudeMeters>
            <DistanceMeters>24258.327600454</DistanceMeters>
          </Trackpoint>
          <Trackpoint>
            <Time>2021-08-28T06:22:26.000Z</Time>
            <Position>
              <LatitudeDegrees>38.1562714464962482452392578125</LatitudeDegrees>
              <LongitudeDegrees>-1.8612939678132534027099609375</LongitudeDegrees>
            </Position>
            <AltitudeMeters>679.5999755859375</AltitudeMeters>
            <DistanceMeters>24292.508961907</DistanceMeters>
          </Trackpoint>
          <Trackpoint>
            <Time>2021-08-28T06:22:30.000Z</Time>
            <Position>
              <LatitudeDegrees>38.156421147286891937255859375</LatitudeDegrees>
              <LongitudeDegrees>-1.86146018095314502716064453125</LongitudeDegrees>
            </Position>
            <AltitudeMeters>679.79998779296875</AltitudeMeters>
            <DistanceMeters>24314.627947908</DistanceMeters>
          </Trackpoint>
          <Trackpoint>
            <Time>2021-08-28T06:22:33.000Z</Time>
            <Position>
              <LatitudeDegrees>38.15654410980641841888427734375</LatitudeDegrees>
              <LongitudeDegrees>-1.861560679972171783447265625</LongitudeDegrees>
            </Position>
            <AltitudeMeters>679.79998779296875</AltitudeMeters>
            <DistanceMeters>24330.896954352</DistanceMeters>
          </Trackpoint>
          <Trackpoint>
            <Time>2021-08-28T06:22:37.000Z</Time>
            <Position>
              <LatitudeDegrees>38.15670789219439029693603515625</LatitudeDegrees>
              <LongitudeDegrees>-1.86172102577984333038330078125</LongitudeDegrees>
            </Position>
            <AltitudeMeters>680</AltitudeMeters>
            <DistanceMeters>24353.902448921</DistanceMeters>
          </Trackpoint>
          <Trackpoint>
            <Time>2021-08-28T06:22:39.000Z</Time>
            <Position>
              <LatitudeDegrees>38.15678953193128108978271484375</LatitudeDegrees>
              <LongitudeDegrees>-1.8618059344589710235595703125</LongitudeDegrees>
            </Position>
            <AltitudeMeters>680.20001220703125</AltitudeMeters>
            <DistanceMeters>24365.641229374</DistanceMeters>
          </Trackpoint>
          <Trackpoint>
            <Time>2021-08-28T06:22:40.000Z</Time>
            <Position>
              <LatitudeDegrees>38.156829513609409332275390625</LatitudeDegrees>
              <LongitudeDegrees>-1.861853040754795074462890625</LongitudeDegrees>
            </Position>
            <AltitudeMeters>680.20001220703125</AltitudeMeters>
            <DistanceMeters>24371.70732874</DistanceMeters>
          </Trackpoint>
          <Trackpoint>
            <Time>2021-08-28T06:22:47.000Z</Time>
            <Position>
              <LatitudeDegrees>38.157118856906890869140625</LatitudeDegrees>
              <LongitudeDegrees>-1.86211547814309597015380859375</LongitudeDegrees>
            </Position>
            <AltitudeMeters>680.20001220703125</AltitudeMeters>
            <DistanceMeters>24411.263332908</DistanceMeters>
          </Trackpoint>
          <Trackpoint>
            <Time>2021-08-28T06:22:48.000Z</Time>
            <Position>
              <LatitudeDegrees>38.15715515054762363433837890625</LatitudeDegrees>
              <LongitudeDegrees>-1.8621422164142131805419921875</LongitudeDegrees>
            </Position>
            <AltitudeMeters>680.4000244140625</AltitudeMeters>
            <DistanceMeters>24415.93223048</DistanceMeters>
          </Trackpoint>
          <Trackpoint>
            <Time>2021-08-28T06:22:50.000Z</Time>
            <Position>
              <LatitudeDegrees>38.15722757019102573394775390625</LatitudeDegrees>
              <LongitudeDegrees>-1.86219535768032073974609375</LongitudeDegrees>
            </Position>
            <AltitudeMeters>680.4000244140625</AltitudeMeters>
            <DistanceMeters>24425.237573193</DistanceMeters>
          </Trackpoint>
          <Trackpoint>
            <Time>2021-08-28T06:22:52.000Z</Time>
            <Position>
              <LatitudeDegrees>38.15728859044611454010009765625</LatitudeDegrees>
              <LongitudeDegrees>-1.86226299963891506195068359375</LongitudeDegrees>
            </Position>
            <AltitudeMeters>680.5999755859375</AltitudeMeters>
            <DistanceMeters>24434.246586851</DistanceMeters>
          </Trackpoint>
          <Trackpoint>
            <Time>2021-08-28T06:22:53.000Z</Time>
            <Position>
              <LatitudeDegrees>38.157323040068149566650390625</LatitudeDegrees>
              <LongitudeDegrees>-1.86229233630001544952392578125</LongitudeDegrees>
            </Position>
            <AltitudeMeters>680.79998779296875</AltitudeMeters>
            <DistanceMeters>24438.861012086</DistanceMeters>
          </Trackpoint>
          <Trackpoint>
            <Time>2021-08-28T06:22:56.000Z</Time>
            <Position>
              <LatitudeDegrees>38.15741683356463909149169921875</LatitudeDegrees>
              <LongitudeDegrees>-1.86239224858582019805908203125</LongitudeDegrees>
            </Position>
            <AltitudeMeters>681.20001220703125</AltitudeMeters>
            <DistanceMeters>24452.478708289</DistanceMeters>
          </Trackpoint>
          <Trackpoint>
            <Time>2021-08-28T06:22:57.000Z</Time>
            <Position>
              <LatitudeDegrees>38.15745346248149871826171875</LatitudeDegrees>
              <LongitudeDegrees>-1.86242426745593547821044921875</LongitudeDegrees>
            </Position>
            <AltitudeMeters>681.5999755859375</AltitudeMeters>
            <DistanceMeters>24457.424663918</DistanceMeters>
          </Trackpoint>
          <Trackpoint>
            <Time>2021-08-28T06:22:59.000Z</Time>
            <Position>
              <LatitudeDegrees>38.15752764232456684112548828125</LatitudeDegrees>
              <LongitudeDegrees>-1.86249065212905406951904296875</LongitudeDegrees>
            </Position>
            <AltitudeMeters>682</AltitudeMeters>
            <DistanceMeters>24467.519882724</DistanceMeters>
          </Trackpoint>
          <Trackpoint>
            <Time>2021-08-28T06:23:00.000Z</Time>
            <Position>
              <LatitudeDegrees>38.15756955184042453765869140625</LatitudeDegrees>
              <LongitudeDegrees>-1.86252317391335964202880859375</LongitudeDegrees>
            </Position>
            <AltitudeMeters>682.20001220703125</AltitudeMeters>
            <DistanceMeters>24472.983712217</DistanceMeters>
          </Trackpoint>
          <Trackpoint>
            <Time>2021-08-28T06:23:01.000Z</Time>
            <Position>
              <LatitudeDegrees>38.1576088629662990570068359375</LatitudeDegrees>
              <LongitudeDegrees>-1.86255686916410923004150390625</LongitudeDegrees>
            </Position>
            <AltitudeMeters>682.5999755859375</AltitudeMeters>
            <DistanceMeters>24478.25919282</DistanceMeters>
          </Trackpoint>
          <Trackpoint>
            <Time>2021-08-28T06:23:05.000Z</Time>
            <Position>
              <LatitudeDegrees>38.157774992287158966064453125</LatitudeDegrees>
              <LongitudeDegrees>-1.8626873753964900970458984375</LongitudeDegrees>
            </Position>
            <AltitudeMeters>683.5999755859375</AltitudeMeters>
            <DistanceMeters>24499.993113285</DistanceMeters>
          </Trackpoint>
          <Trackpoint>
            <Time>2021-08-28T06:23:06.000Z</Time>
            <Position>
              <LatitudeDegrees>38.15781824290752410888671875</LatitudeDegrees>
              <LongitudeDegrees>-1.862721741199493408203125</LongitudeDegrees>
            </Position>
            <AltitudeMeters>684</AltitudeMeters>
            <DistanceMeters>24505.669319127</DistanceMeters>
          </Trackpoint>
          <Trackpoint>
            <Time>2021-08-28T06:23:07.000Z</Time>
            <Position>
              <LatitudeDegrees>38.15786610357463359832763671875</LatitudeDegrees>
              <LongitudeDegrees>-1.86275325715541839599609375</LongitudeDegrees>
            </Position>
            <AltitudeMeters>684.20001220703125</AltitudeMeters>
            <DistanceMeters>24511.66805688</DistanceMeters>
          </Trackpoint>
          <Trackpoint>
            <Time>2021-08-28T06:23:09.000Z</Time>
            <Position>
              <LatitudeDegrees>38.15795210190117359161376953125</LatitudeDegrees>
              <LongitudeDegrees>-1.86282324604690074920654296875</LongitudeDegrees>
            </Position>
            <AltitudeMeters>685</AltitudeMeters>
            <DistanceMeters>24523.03159916</DistanceMeters>
          </Trackpoint>
          <Trackpoint>
            <Time>2021-08-28T06:23:10.000Z</Time>
            <Position>
              <LatitudeDegrees>38.15799686126410961151123046875</LatitudeDegrees>
              <LongitudeDegrees>-1.86285425908863544464111328125</LongitudeDegrees>
            </Position>
            <AltitudeMeters>685.20001220703125</AltitudeMeters>
            <DistanceMeters>24528.705418202</DistanceMeters>
          </Trackpoint>
          <Trackpoint>
            <Time>2021-08-28T06:23:14.000Z</Time>
            <Position>
              <LatitudeDegrees>38.15816600807011127471923828125</LatitudeDegrees>
              <LongitudeDegrees>-1.8629904650151729583740234375</LongitudeDegrees>
            </Position>
            <AltitudeMeters>686</AltitudeMeters>
            <DistanceMeters>24550.988321589</DistanceMeters>
          </Trackpoint>
          <Trackpoint>
            <Time>2021-08-28T06:23:15.000Z</Time>
            <Position>
              <LatitudeDegrees>38.15821344964206218719482421875</LatitudeDegrees>
              <LongitudeDegrees>-1.86302608810365200042724609375</LongitudeDegrees>
            </Position>
            <AltitudeMeters>686.5999755859375</AltitudeMeters>
            <DistanceMeters>24557.120306448</DistanceMeters>
          </Trackpoint>
          <Trackpoint>
            <Time>2021-08-28T06:23:18.000Z</Time>
            <Position>
              <LatitudeDegrees>38.15835627727210521697998046875</LatitudeDegrees>
              <LongitudeDegrees>-1.86312298290431499481201171875</LongitudeDegrees>
            </Position>
            <AltitudeMeters>687.20001220703125</AltitudeMeters>
            <DistanceMeters>24575.137832586</DistanceMeters>
          </Trackpoint>
          <Trackpoint>
            <Time>2021-08-28T06:23:20.000Z</Time>
            <Position>
              <LatitudeDegrees>38.15845199860632419586181640625</LatitudeDegrees>
              <LongitudeDegrees>-1.86318500898778438568115234375</LongitudeDegrees>
            </Position>
            <AltitudeMeters>687.5999755859375</AltitudeMeters>
            <DistanceMeters>24587.095350323</DistanceMeters>
          </Trackpoint>
          <Trackpoint>
            <Time>2021-08-28T06:23:24.000Z</Time>
            <Position>
              <LatitudeDegrees>38.1586716882884502410888671875</LatitudeDegrees>
              <LongitudeDegrees>-1.86331945471465587615966796875</LongitudeDegrees>
            </Position>
            <AltitudeMeters>688.20001220703125</AltitudeMeters>
            <DistanceMeters>24614.230927034</DistanceMeters>
          </Trackpoint>
          <Trackpoint>
            <Time>2021-08-28T06:23:25.000Z</Time>
            <Position>
              <LatitudeDegrees>38.158725164830684661865234375</LatitudeDegrees>
              <LongitudeDegrees>-1.86335138976573944091796875</LongitudeDegrees>
            </Position>
            <AltitudeMeters>688.20001220703125</AltitudeMeters>
            <DistanceMeters>24620.806336224</DistanceMeters>
          </Trackpoint>
          <Trackpoint>
            <Time>2021-08-28T06:23:30.000Z</Time>
            <Position>
              <LatitudeDegrees>38.15900017507374286651611328125</LatitudeDegrees>
              <LongitudeDegrees>-1.8635272420942783355712890625</LongitudeDegrees>
            </Position>
            <AltitudeMeters>688.4000244140625</AltitudeMeters>
            <DistanceMeters>24655.066596826</DistanceMeters>
          </Trackpoint>
          <Trackpoint>
            <Time>2021-08-28T06:23:34.000Z</Time>
            <Position>
              <LatitudeDegrees>38.15921558998525142669677734375</LatitudeDegrees>
              <LongitudeDegrees>-1.86368607915937900543212890625</LongitudeDegrees>
            </Position>
            <AltitudeMeters>688.4000244140625</AltitudeMeters>
            <DistanceMeters>24682.781020368</DistanceMeters>
          </Trackpoint>
          <Trackpoint>
            <Time>2021-08-28T06:23:40.000Z</Time>
            <Position>
              <LatitudeDegrees>38.1595957092940807342529296875</LatitudeDegrees>
              <LongitudeDegrees>-1.86393502168357372283935546875</LongitudeDegrees>
            </Position>
            <AltitudeMeters>688.20001220703125</AltitudeMeters>
            <DistanceMeters>24730.369009935</DistanceMeters>
          </Trackpoint>
          <Trackpoint>
            <Time>2021-08-28T06:23:41.000Z</Time>
            <Position>
              <LatitudeDegrees>38.15966066904366016387939453125</LatitudeDegrees>
              <LongitudeDegrees>-1.8639781884849071502685546875</LongitudeDegrees>
            </Position>
            <AltitudeMeters>688.20001220703125</AltitudeMeters>
            <DistanceMeters>24738.526930221</DistanceMeters>
          </Trackpoint>
          <Trackpoint>
            <Time>2021-08-28T06:23:47.000Z</Time>
            <Position>
              <LatitudeDegrees>38.160087056457996368408203125</LatitudeDegrees>
              <LongitudeDegrees>-1.86424833722412586212158203125</LongitudeDegrees>
            </Position>
            <AltitudeMeters>687.20001220703125</AltitudeMeters>
            <DistanceMeters>24791.547579199</DistanceMeters>
          </Trackpoint>
          <Trackpoint>
            <Time>2021-08-28T06:23:48.000Z</Time>
            <Position>
              <LatitudeDegrees>38.16016509197652339935302734375</LatitudeDegrees>
              <LongitudeDegrees>-1.86429678462445735931396484375</LongitudeDegrees>
            </Position>
            <AltitudeMeters>687.20001220703125</AltitudeMeters>
            <DistanceMeters>24801.212314619</DistanceMeters>
          </Trackpoint>
          <Trackpoint>
            <Time>2021-08-28T06:23:50.000Z</Time>
            <Position>
              <LatitudeDegrees>38.16031537950038909912109375</LatitudeDegrees>
              <LongitudeDegrees>-1.86439502052962779998779296875</LongitudeDegrees>
            </Position>
            <AltitudeMeters>687.20001220703125</AltitudeMeters>
            <DistanceMeters>24820.019443436</DistanceMeters>
          </Trackpoint>
          <Trackpoint>
            <Time>2021-08-28T06:23:54.000Z</Time>
            <Position>
              <LatitudeDegrees>38.16061335615813732147216796875</LatitudeDegrees>
              <LongitudeDegrees>-1.8645952641963958740234375</LongitudeDegrees>
            </Position>
            <AltitudeMeters>687.20001220703125</AltitudeMeters>
            <DistanceMeters>24857.530087943</DistanceMeters>
          </Trackpoint>
          <Trackpoint>
            <Time>2021-08-28T06:23:59.000Z</Time>
            <Position>
              <LatitudeDegrees>38.16096573136746883392333984375</LatitudeDegrees>
              <LongitudeDegrees>-1.8648401834070682525634765625</LongitudeDegrees>
            </Position>
            <AltitudeMeters>686.79998779296875</AltitudeMeters>
            <DistanceMeters>24902.22488049</DistanceMeters>
          </Trackpoint>
          <Trackpoint>
            <Time>2021-08-28T06:24:00.000Z</Time>
            <Position>
              <LatitudeDegrees>38.1610363908112049102783203125</LatitudeDegrees>
              <LongitudeDegrees>-1.86488620005548000335693359375</LongitudeDegrees>
            </Position>
            <AltitudeMeters>686.79998779296875</AltitudeMeters>
            <DistanceMeters>24911.060832105</DistanceMeters>
          </Trackpoint>
          <Trackpoint>
            <Time>2021-08-28T06:24:07.000Z</Time>
            <Position>
              <LatitudeDegrees>38.16153218038380146026611328125</LatitudeDegrees>
              <LongitudeDegrees>-1.86522114090621471405029296875</LongitudeDegrees>
            </Position>
            <AltitudeMeters>686.79998779296875</AltitudeMeters>
            <DistanceMeters>24973.54506989</DistanceMeters>
          </Trackpoint>
          <Trackpoint>
            <Time>2021-08-28T06:24:08.000Z</Time>
            <Position>
              <LatitudeDegrees>38.1616066955029964447021484375</LatitudeDegrees>
              <LongitudeDegrees>-1.8652713485062122344970703125</LongitudeDegrees>
            </Position>
            <AltitudeMeters>686.79998779296875</AltitudeMeters>
            <DistanceMeters>24982.930130659</DistanceMeters>
          </Trackpoint>
          <Trackpoint>
            <Time>2021-08-28T06:24:10.000Z</Time>
            <Position>
              <LatitudeDegrees>38.16175572574138641357421875</LatitudeDegrees>
              <LongitudeDegrees>-1.8653749488294124603271484375</LongitudeDegrees>
            </Position>
            <AltitudeMeters>686.4000244140625</AltitudeMeters>
            <DistanceMeters>25001.833521494</DistanceMeters>
          </Trackpoint>
          <Trackpoint>
            <Time>2021-08-28T06:24:11.000Z</Time>
            <Position>
              <LatitudeDegrees>38.16183309070765972137451171875</LatitudeDegrees>
              <LongitudeDegrees>-1.86542649753391742706298828125</LongitudeDegrees>
            </Position>
            <AltitudeMeters>686</AltitudeMeters>
            <DistanceMeters>25011.554155213</DistanceMeters>
          </Trackpoint>
          <Trackpoint>
            <Time>2021-08-28T06:24:16.000Z</Time>
            <Position>
              <LatitudeDegrees>38.16222435794770717620849609375</LatitudeDegrees>
              <LongitudeDegrees>-1.86567879281938076019287109375</LongitudeDegrees>
            </Position>
            <AltitudeMeters>684.79998779296875</AltitudeMeters>
            <DistanceMeters>25060.380319937</DistanceMeters>
          </Trackpoint>
          <Trackpoint>
            <Time>2021-08-28T06:24:17.000Z</Time>
            <Position>
              <LatitudeDegrees>38.1623020581901073455810546875</LatitudeDegrees>
              <LongitudeDegrees>-1.86573076061904430389404296875</LongitudeDegrees>
            </Position>
            <AltitudeMeters>684.79998779296875</AltitudeMeters>
            <DistanceMeters>25070.150988705</DistanceMeters>
          </Trackpoint>
          <Trackpoint>
            <Time>2021-08-28T06:24:18.000Z</Time>
            <Position>
              <LatitudeDegrees>38.16238059662282466888427734375</LatitudeDegrees>
              <LongitudeDegrees>-1.86578281223773956298828125</LongitudeDegrees>
            </Position>
            <AltitudeMeters>684.5999755859375</AltitudeMeters>
            <DistanceMeters>25080.008149682</DistanceMeters>
          </Trackpoint>
          <Trackpoint>
            <Time>2021-08-28T06:24:20.000Z</Time>
            <Position>
              <LatitudeDegrees>38.1625394336879253387451171875</LatitudeDegrees>
              <LongitudeDegrees>-1.865886412560939788818359375</LongitudeDegrees>
            </Position>
            <AltitudeMeters>684</AltitudeMeters>
            <DistanceMeters>25099.876233678</DistanceMeters>
          </Trackpoint>
          <Trackpoint>
            <Time>2021-08-28T06:24:21.000Z</Time>
            <Position>
              <LatitudeDegrees>38.1626178883016109466552734375</LatitudeDegrees>
              <LongitudeDegrees>-1.865939386188983917236328125</LongitudeDegrees>
            </Position>
            <AltitudeMeters>683.5999755859375</AltitudeMeters>
            <DistanceMeters>25109.762666171</DistanceMeters>
          </Trackpoint>
          <Trackpoint>
            <Time>2021-08-28T06:24:26.000Z</Time>
            <Position>
              <LatitudeDegrees>38.1630249135196208953857421875</LatitudeDegrees>
              <LongitudeDegrees>-1.86620199121534824371337890625</LongitudeDegrees>
            </Position>
            <AltitudeMeters>682.5999755859375</AltitudeMeters>
            <DistanceMeters>25160.561000444</DistanceMeters>
          </Trackpoint>
          <Trackpoint>
            <Time>2021-08-28T06:24:28.000Z</Time>
            <Position>
              <LatitudeDegrees>38.16319162957370281219482421875</LatitudeDegrees>
              <LongitudeDegrees>-1.86630324460566043853759765625</LongitudeDegrees>
            </Position>
            <AltitudeMeters>682</AltitudeMeters>
            <DistanceMeters>25181.123692374</DistanceMeters>
          </Trackpoint>
          <Trackpoint>
            <Time>2021-08-28T06:24:30.000Z</Time>
            <Position>
              <LatitudeDegrees>38.1633595190942287445068359375</LatitudeDegrees>
              <LongitudeDegrees>-1.86638656072318553924560546875</LongitudeDegrees>
            </Position>
            <AltitudeMeters>681.5999755859375</AltitudeMeters>
            <DistanceMeters>25201.182208921</DistanceMeters>
          </Trackpoint>
          <Trackpoint>
            <Time>2021-08-28T06:24:31.000Z</Time>
            <Position>
              <LatitudeDegrees>38.16344677470624446868896484375</LatitudeDegrees>
              <LongitudeDegrees>-1.866416819393634796142578125</LongitudeDegrees>
            </Position>
            <AltitudeMeters>681.5999755859375</AltitudeMeters>
            <DistanceMeters>25211.24831481</DistanceMeters>
          </Trackpoint>
          <Trackpoint>
            <Time>2021-08-28T06:24:36.000Z</Time>
            <Position>
              <LatitudeDegrees>38.1639016605913639068603515625</LatitudeDegrees>
              <LongitudeDegrees>-1.86647959984838962554931640625</LongitudeDegrees>
            </Position>
            <AltitudeMeters>681.5999755859375</AltitudeMeters>
            <DistanceMeters>25262.175187045</DistanceMeters>
          </Trackpoint>
          <Trackpoint>
            <Time>2021-08-28T06:24:40.000Z</Time>
            <Position>
              <LatitudeDegrees>38.1642577238380908966064453125</LatitudeDegrees>
              <LongitudeDegrees>-1.86650960706174373626708984375</LongitudeDegrees>
            </Position>
            <AltitudeMeters>681.79998779296875</AltitudeMeters>
            <DistanceMeters>25301.892488741</DistanceMeters>
          </Trackpoint>
          <Trackpoint>
            <Time>2021-08-28T06:24:43.000Z</Time>
            <Position>
              <LatitudeDegrees>38.16453441046178340911865234375</LatitudeDegrees>
              <LongitudeDegrees>-1.8665239401161670684814453125</LongitudeDegrees>
            </Position>
            <AltitudeMeters>681.4000244140625</AltitudeMeters>
            <DistanceMeters>25332.713682452</DistanceMeters>
          </Trackpoint>
          <Trackpoint>
            <Time>2021-08-28T06:24:45.000Z</Time>
            <Position>
              <LatitudeDegrees>38.1647296249866485595703125</LatitudeDegrees>
              <LongitudeDegrees>-1.86654129065573215484619140625</LongitudeDegrees>
            </Position>
            <AltitudeMeters>681</AltitudeMeters>
            <DistanceMeters>25354.49429461</DistanceMeters>
          </Trackpoint>
          <Trackpoint>
            <Time>2021-08-28T06:24:49.000Z</Time>
            <Position>
              <LatitudeDegrees>38.16512449644505977630615234375</LatitudeDegrees>
              <LongitudeDegrees>-1.86656727455556392669677734375</LongitudeDegrees>
            </Position>
            <AltitudeMeters>680.5999755859375</AltitudeMeters>
            <DistanceMeters>25398.50305278</DistanceMeters>
          </Trackpoint>
          <Trackpoint>
            <Time>2021-08-28T06:24:50.000Z</Time>
            <Position>
              <LatitudeDegrees>38.16522373817861080169677734375</LatitudeDegrees>
              <LongitudeDegrees>-1.8665745668113231658935546875</LongitudeDegrees>
            </Position>
            <AltitudeMeters>680.20001220703125</AltitudeMeters>
            <DistanceMeters>25409.567443697</DistanceMeters>
          </Trackpoint>
          <Trackpoint>
            <Time>2021-08-28T06:24:51.000Z</Time>
            <Position>
              <LatitudeDegrees>38.1653208844363689422607421875</LatitudeDegrees>
              <LongitudeDegrees>-1.86658403836190700531005859375</LongitudeDegrees>
            </Position>
            <AltitudeMeters>679.79998779296875</AltitudeMeters>
            <DistanceMeters>25420.41173646</DistanceMeters>
          </Trackpoint>
          <Trackpoint>
            <Time>2021-08-28T06:24:55.000Z</Time>
            <Position>
              <LatitudeDegrees>38.165721036493778228759765625</LatitudeDegrees>
              <LongitudeDegrees>-1.8666136264801025390625</LongitudeDegrees>
            </Position>
            <AltitudeMeters>678.4000244140625</AltitudeMeters>
            <DistanceMeters>25465.024729511</DistanceMeters>
          </Trackpoint>
          <Trackpoint>
            <Time>2021-08-28T06:24:57.000Z</Time>
            <Position>
              <LatitudeDegrees>38.16591490991413593292236328125</LatitudeDegrees>
              <LongitudeDegrees>-1.866633407771587371826171875</LongitudeDegrees>
            </Position>
            <AltitudeMeters>678</AltitudeMeters>
            <DistanceMeters>25486.672474131</DistanceMeters>
          </Trackpoint>
          <Trackpoint>
            <Time>2021-08-28T06:24:59.000Z</Time>
            <Position>
              <LatitudeDegrees>38.16611758433282375335693359375</LatitudeDegrees>
              <LongitudeDegrees>-1.86665142886340618133544921875</LongitudeDegrees>
            </Position>
            <AltitudeMeters>677.4000244140625</AltitudeMeters>
            <DistanceMeters>25509.285637751</DistanceMeters>
          </Trackpoint>
          <Trackpoint>
            <Time>2021-08-28T06:25:00.000Z</Time>
            <Position>
              <LatitudeDegrees>38.16622151993215084075927734375</LatitudeDegrees>
              <LongitudeDegrees>-1.86665587127208709716796875</LongitudeDegrees>
            </Position>
            <AltitudeMeters>677.4000244140625</AltitudeMeters>
            <DistanceMeters>25520.860188028</DistanceMeters>
          </Trackpoint>
          <Trackpoint>
            <Time>2021-08-28T06:25:03.000Z</Time>
            <Position>
              <LatitudeDegrees>38.16653139889240264892578125</LatitudeDegrees>
              <LongitudeDegrees>-1.8666865490376949310302734375</LongitudeDegrees>
            </Position>
            <AltitudeMeters>677.4000244140625</AltitudeMeters>
            <DistanceMeters>25555.454610863</DistanceMeters>
          </Trackpoint>
          <Trackpoint>
            <Time>2021-08-28T06:25:05.000Z</Time>
            <Position>
              <LatitudeDegrees>38.16673851571977138519287109375</LatitudeDegrees>
              <LongitudeDegrees>-1.866705156862735748291015625</LongitudeDegrees>
            </Position>
            <AltitudeMeters>677.20001220703125</AltitudeMeters>
            <DistanceMeters>25578.56467017</DistanceMeters>
          </Trackpoint>
          <Trackpoint>
            <Time>2021-08-28T06:25:09.000Z</Time>
            <Position>
              <LatitudeDegrees>38.16713581793010234832763671875</LatitudeDegrees>
              <LongitudeDegrees>-1.86675771139562129974365234375</LongitudeDegrees>
            </Position>
            <AltitudeMeters>675.79998779296875</AltitudeMeters>
            <DistanceMeters>25623.023667717</DistanceMeters>
          </Trackpoint>
          <Trackpoint>
            <Time>2021-08-28T06:25:10.000Z</Time>
            <Position>
              <LatitudeDegrees>38.1672366522252559661865234375</LatitudeDegrees>
              <LongitudeDegrees>-1.86676919460296630859375</LongitudeDegrees>
            </Position>
            <AltitudeMeters>675.4000244140625</AltitudeMeters>
            <DistanceMeters>25634.291448102</DistanceMeters>
          </Trackpoint>
          <Trackpoint>
            <Time>2021-08-28T06:25:12.000Z</Time>
            <Position>
              <LatitudeDegrees>38.16744879819452762603759765625</LatitudeDegrees>
              <LongitudeDegrees>-1.86678721569478511810302734375</LongitudeDegrees>
            </Position>
            <AltitudeMeters>674.4000244140625</AltitudeMeters>
            <DistanceMeters>25657.956343642</DistanceMeters>
          </Trackpoint>
          <Trackpoint>
            <Time>2021-08-28T06:25:14.000Z</Time>
            <Position>
              <LatitudeDegrees>38.1676641292870044708251953125</LatitudeDegrees>
              <LongitudeDegrees>-1.8668095953762531280517578125</LongitudeDegrees>
            </Position>
            <AltitudeMeters>673.5999755859375</AltitudeMeters>
            <DistanceMeters>25682.002984677</DistanceMeters>
          </Trackpoint>
          <Trackpoint>
            <Time>2021-08-28T06:25:15.000Z</Time>
            <Position>
              <LatitudeDegrees>38.1677717529237270355224609375</LatitudeDegrees>
              <LongitudeDegrees>-1.86682040803134441375732421875</LongitudeDegrees>
            </Position>
            <AltitudeMeters>673.20001220703125</AltitudeMeters>
            <DistanceMeters>25694.019262069</DistanceMeters>
          </Trackpoint>
          <Trackpoint>
            <Time>2021-08-28T06:25:19.000Z</Time>
            <Position>
              <LatitudeDegrees>38.16820970736443996429443359375</LatitudeDegrees>
              <LongitudeDegrees>-1.86688461340963840484619140625</LongitudeDegrees>
            </Position>
            <AltitudeMeters>672.20001220703125</AltitudeMeters>
            <DistanceMeters>25743.087196527</DistanceMeters>
          </Trackpoint>
          <Trackpoint>
            <Time>2021-08-28T06:25:20.000Z</Time>
            <Position>
              <LatitudeDegrees>38.16832252778112888336181640625</LatitudeDegrees>
              <LongitudeDegrees>-1.86691193841397762298583984375</LongitudeDegrees>
            </Position>
            <AltitudeMeters>672</AltitudeMeters>
            <DistanceMeters>25755.869967481</DistanceMeters>
          </Trackpoint>
          <Trackpoint>
            <Time>2021-08-28T06:25:21.000Z</Time>
            <Position>
              <LatitudeDegrees>38.16843501292169094085693359375</LatitudeDegrees>
              <LongitudeDegrees>-1.86694714240729808807373046875</LongitudeDegrees>
            </Position>
            <AltitudeMeters>671</AltitudeMeters>
            <DistanceMeters>25768.762820043</DistanceMeters>
          </Trackpoint>
          <Trackpoint>
            <Time>2021-08-28T06:25:23.000Z</Time>
            <Position>
              <LatitudeDegrees>38.16865880973637104034423828125</LatitudeDegrees>
              <LongitudeDegrees>-1.8670419417321681976318359375</LongitudeDegrees>
            </Position>
            <AltitudeMeters>669.79998779296875</AltitudeMeters>
            <DistanceMeters>25795.016862875</DistanceMeters>
          </Trackpoint>
          <Trackpoint>
            <Time>2021-08-28T06:25:24.000Z</Time>
            <Position>
              <LatitudeDegrees>38.16876844502985477447509765625</LatitudeDegrees>
              <LongitudeDegrees>-1.8671029619872570037841796875</LongitudeDegrees>
            </Position>
            <AltitudeMeters>669.4000244140625</AltitudeMeters>
            <DistanceMeters>25808.336205269</DistanceMeters>
          </Trackpoint>
          <Trackpoint>
            <Time>2021-08-28T06:25:26.000Z</Time>
            <Position>
              <LatitudeDegrees>38.16897430457174777984619140625</LatitudeDegrees>
              <LongitudeDegrees>-1.8672524951398372650146484375</LongitudeDegrees>
            </Position>
            <AltitudeMeters>668.5999755859375</AltitudeMeters>
            <DistanceMeters>25834.721823202</DistanceMeters>
          </Trackpoint>
          <Trackpoint>
            <Time>2021-08-28T06:25:28.000Z</Time>
            <Position>
              <LatitudeDegrees>38.169169016182422637939453125</LatitudeDegrees>
              <LongitudeDegrees>-1.8674342148005962371826171875</LongitudeDegrees>
            </Position>
            <AltitudeMeters>666.79998779296875</AltitudeMeters>
            <DistanceMeters>25861.60178854</DistanceMeters>
          </Trackpoint>
          <Trackpoint>
            <Time>2021-08-28T06:25:30.000Z</Time>
            <Position>
              <LatitudeDegrees>38.1693462096154689788818359375</LatitudeDegrees>
              <LongitudeDegrees>-1.8676501326262950897216796875</LongitudeDegrees>
            </Position>
            <AltitudeMeters>665.4000244140625</AltitudeMeters>
            <DistanceMeters>25888.91333252</DistanceMeters>
          </Trackpoint>
          <Trackpoint>
            <Time>2021-08-28T06:25:32.000Z</Time>
            <Position>
              <LatitudeDegrees>38.16949867643415927886962890625</LatitudeDegrees>
              <LongitudeDegrees>-1.86790150590240955352783203125</LongitudeDegrees>
            </Position>
            <AltitudeMeters>665</AltitudeMeters>
            <DistanceMeters>25916.694632592</DistanceMeters>
          </Trackpoint>
          <Trackpoint>
            <Time>2021-08-28T06:25:34.000Z</Time>
            <Position>
              <LatitudeDegrees>38.16962490789592266082763671875</LatitudeDegrees>
              <LongitudeDegrees>-1.868186406791210174560546875</LongitudeDegrees>
            </Position>
            <AltitudeMeters>664.4000244140625</AltitudeMeters>
            <DistanceMeters>25945.311087865</DistanceMeters>
          </Trackpoint>
          <Trackpoint>
            <Time>2021-08-28T06:25:36.000Z</Time>
            <Position>
              <LatitudeDegrees>38.16974745132029056549072265625</LatitudeDegrees>
              <LongitudeDegrees>-1.868485473096370697021484375</LongitudeDegrees>
            </Position>
            <AltitudeMeters>663.20001220703125</AltitudeMeters>
            <DistanceMeters>25974.821740728</DistanceMeters>
          </Trackpoint>
          <Trackpoint>
            <Time>2021-08-28T06:25:38.000Z</Time>
            <Position>
              <LatitudeDegrees>38.16986764781177043914794921875</LatitudeDegrees>
              <LongitudeDegrees>-1.8687974475324153900146484375</LongitudeDegrees>
            </Position>
            <AltitudeMeters>661.79998779296875</AltitudeMeters>
            <DistanceMeters>26005.222567425</DistanceMeters>
          </Trackpoint>
          <Trackpoint>
            <Time>2021-08-28T06:25:39.000Z</Time>
            <Position>
              <LatitudeDegrees>38.16993269138038158416748046875</LatitudeDegrees>
              <LongitudeDegrees>-1.868955530226230621337890625</LongitudeDegrees>
            </Position>
            <AltitudeMeters>660.5999755859375</AltitudeMeters>
            <DistanceMeters>26020.835314894</DistanceMeters>
          </Trackpoint>
          <Trackpoint>
            <Time>2021-08-28T06:25:40.000Z</Time>
            <Position>
              <LatitudeDegrees>38.16999840550124645233154296875</LatitudeDegrees>
              <LongitudeDegrees>-1.8691126070916652679443359375</LongitudeDegrees>
            </Position>
            <AltitudeMeters>659.4000244140625</AltitudeMeters>
            <DistanceMeters>26036.404913545</DistanceMeters>
          </Trackpoint>
          <Trackpoint>
            <Time>2021-08-28T06:25:41.000Z</Time>
            <Position>
              <LatitudeDegrees>38.17006965167820453643798828125</LatitudeDegrees>
              <LongitudeDegrees>-1.86926700174808502197265625</LongitudeDegrees>
            </Position>
            <AltitudeMeters>658.4000244140625</AltitudeMeters>
            <DistanceMeters>26052.070205034</DistanceMeters>
          </Trackpoint>
          <Trackpoint>
            <Time>2021-08-28T06:25:42.000Z</Time>
            <Position>
              <LatitudeDegrees>38.1701394729316234588623046875</LatitudeDegrees>
              <LongitudeDegrees>-1.8694240786135196685791015625</LongitudeDegrees>
            </Position>
            <AltitudeMeters>657.20001220703125</AltitudeMeters>
            <DistanceMeters>26067.860088207</DistanceMeters>
          </Trackpoint>
          <Trackpoint>
            <Time>2021-08-28T06:25:44.000Z</Time>
            <Position>
              <LatitudeDegrees>38.1702960468828678131103515625</LatitudeDegrees>
              <LongitudeDegrees>-1.869723312556743621826171875</LongitudeDegrees>
            </Position>
            <AltitudeMeters>655</AltitudeMeters>
            <DistanceMeters>26099.313212931</DistanceMeters>
          </Trackpoint>
          <Trackpoint>
            <Time>2021-08-28T06:25:45.000Z</Time>
            <Position>
              <LatitudeDegrees>38.17038732580840587615966796875</LatitudeDegrees>
              <LongitudeDegrees>-1.86986102722585201263427734375</LongitudeDegrees>
            </Position>
            <AltitudeMeters>653.79998779296875</AltitudeMeters>
            <DistanceMeters>26115.074762127</DistanceMeters>
          </Trackpoint>
          <Trackpoint>
            <Time>2021-08-28T06:25:46.000Z</Time>
            <Position>
              <LatitudeDegrees>38.17048489116132259368896484375</LatitudeDegrees>
              <LongitudeDegrees>-1.86999178491532802581787109375</LongitudeDegrees>
            </Position>
            <AltitudeMeters>652.79998779296875</AltitudeMeters>
            <DistanceMeters>26130.849196712</DistanceMeters>
          </Trackpoint>
          <Trackpoint>
            <Time>2021-08-28T06:25:47.000Z</Time>
            <Position>
              <LatitudeDegrees>38.17058446817100048065185546875</LatitudeDegrees>
              <LongitudeDegrees>-1.87012086622416973114013671875</LongitudeDegrees>
            </Position>
            <AltitudeMeters>652.20001220703125</AltitudeMeters>
            <DistanceMeters>26146.673641406</DistanceMeters>
          </Trackpoint>
          <Trackpoint>
            <Time>2021-08-28T06:25:48.000Z</Time>
            <Position>
              <LatitudeDegrees>38.1706839613616466522216796875</LatitudeDegrees>
              <LongitudeDegrees>-1.8702508695423603057861328125</LongitudeDegrees>
            </Position>
            <AltitudeMeters>651</AltitudeMeters>
            <DistanceMeters>26162.549076315</DistanceMeters>
          </Trackpoint>
          <Trackpoint>
            <Time>2021-08-28T06:25:50.000Z</Time>
            <Position>
              <LatitudeDegrees>38.17087062634527683258056640625</LatitudeDegrees>
              <LongitudeDegrees>-1.8705097027122974395751953125</LongitudeDegrees>
            </Position>
            <AltitudeMeters>650</AltitudeMeters>
            <DistanceMeters>26193.283424795</DistanceMeters>
          </Trackpoint>
          <Trackpoint>
            <Time>2021-08-28T06:25:51.000Z</Time>
            <Position>
              <LatitudeDegrees>38.1709736399352550506591796875</LatitudeDegrees>
              <LongitudeDegrees>-1.8706401251256465911865234375</LongitudeDegrees>
            </Position>
            <AltitudeMeters>649.4000244140625</AltitudeMeters>
            <DistanceMeters>26209.460868212</DistanceMeters>
          </Trackpoint>
          <Trackpoint>
            <Time>2021-08-28T06:25:53.000Z</Time>
            <Position>
              <LatitudeDegrees>38.17117723636329174041748046875</LatitudeDegrees>
              <LongitudeDegrees>-1.87090105377137660980224609375</LongitudeDegrees>
            </Position>
            <AltitudeMeters>648.20001220703125</AltitudeMeters>
            <DistanceMeters>26241.629060266</DistanceMeters>
          </Trackpoint>
          <Trackpoint>
            <Time>2021-08-28T06:25:54.000Z</Time>
            <Position>
              <LatitudeDegrees>38.17128066904842853546142578125</LatitudeDegrees>
              <LongitudeDegrees>-1.87103080563247203826904296875</LongitudeDegrees>
            </Position>
            <AltitudeMeters>647.79998779296875</AltitudeMeters>
            <DistanceMeters>26257.798128674</DistanceMeters>
          </Trackpoint>
          <Trackpoint>
            <Time>2021-08-28T06:25:56.000Z</Time>
            <Position>
              <LatitudeDegrees>38.17148803733289241790771484375</LatitudeDegrees>
              <LongitudeDegrees>-1.87129315920174121856689453125</LongitudeDegrees>
            </Position>
            <AltitudeMeters>647</AltitudeMeters>
            <DistanceMeters>26290.3512631</DistanceMeters>
          </Trackpoint>
          <Trackpoint>
            <Time>2021-08-28T06:25:58.000Z</Time>
            <Position>
              <LatitudeDegrees>38.17168987356126308441162109375</LatitudeDegrees>
              <LongitudeDegrees>-1.87155358493328094482421875</LongitudeDegrees>
            </Position>
            <AltitudeMeters>646</AltitudeMeters>
            <DistanceMeters>26322.350583222</DistanceMeters>
          </Trackpoint>
          <Trackpoint>
            <Time>2021-08-28T06:25:59.000Z</Time>
            <Position>
              <LatitudeDegrees>38.1717913784086704254150390625</LatitudeDegrees>
              <LongitudeDegrees>-1.87167805619537830352783203125</LongitudeDegrees>
            </Position>
            <AltitudeMeters>645.5999755859375</AltitudeMeters>
            <DistanceMeters>26338.043231651</DistanceMeters>
          </Trackpoint>
          <Trackpoint>
            <Time>2021-08-28T06:26:00.000Z</Time>
            <Position>
              <LatitudeDegrees>38.1718876026570796966552734375</LatitudeDegrees>
              <LongitudeDegrees>-1.871800012886524200439453125</LongitudeDegrees>
            </Position>
            <AltitudeMeters>645.4000244140625</AltitudeMeters>
            <DistanceMeters>26353.162337283</DistanceMeters>
          </Trackpoint>
          <Trackpoint>
            <Time>2021-08-28T06:26:01.000Z</Time>
            <Position>
              <LatitudeDegrees>38.17198206670582294464111328125</LatitudeDegrees>
              <LongitudeDegrees>-1.8719176948070526123046875</LongitudeDegrees>
            </Position>
            <AltitudeMeters>645.20001220703125</AltitudeMeters>
            <DistanceMeters>26367.878904594</DistanceMeters>
          </Trackpoint>
          <Trackpoint>
            <Time>2021-08-28T06:26:02.000Z</Time>
            <Position>
              <LatitudeDegrees>38.17207309417426586151123046875</LatitudeDegrees>
              <LongitudeDegrees>-1.872032023966312408447265625</LongitudeDegrees>
            </Position>
            <AltitudeMeters>644.79998779296875</AltitudeMeters>
            <DistanceMeters>26382.117065155</DistanceMeters>
          </Trackpoint>
          <Trackpoint>
            <Time>2021-08-28T06:26:03.000Z</Time>
            <Position>
              <LatitudeDegrees>38.17216294817626476287841796875</LatitudeDegrees>
              <LongitudeDegrees>-1.87214660458266735076904296875</LongitudeDegrees>
            </Position>
            <AltitudeMeters>644.79998779296875</AltitudeMeters>
            <DistanceMeters>26396.278277592</DistanceMeters>
          </Trackpoint>
          <Trackpoint>
            <Time>2021-08-28T06:26:05.000Z</Time>
            <Position>
              <LatitudeDegrees>38.1723445840179920196533203125</LatitudeDegrees>
              <LongitudeDegrees>-1.8723698146641254425048828125</LongitudeDegrees>
            </Position>
            <AltitudeMeters>644.4000244140625</AltitudeMeters>
            <DistanceMeters>26424.388201269</DistanceMeters>
          </Trackpoint>
          <Trackpoint>
            <Time>2021-08-28T06:26:08.000Z</Time>
            <Position>
              <LatitudeDegrees>38.172604925930500030517578125</LatitudeDegrees>
              <LongitudeDegrees>-1.87268438749015331268310546875</LongitudeDegrees>
            </Position>
            <AltitudeMeters>643.4000244140625</AltitudeMeters>
            <DistanceMeters>26464.354137286</DistanceMeters>
          </Trackpoint>
          <Trackpoint>
            <Time>2021-08-28T06:26:10.000Z</Time>
            <Position>
              <LatitudeDegrees>38.172767199575901031494140625</LatitudeDegrees>
              <LongitudeDegrees>-1.87288823537528514862060546875</LongitudeDegrees>
            </Position>
            <AltitudeMeters>642.79998779296875</AltitudeMeters>
            <DistanceMeters>26489.738367919</DistanceMeters>
          </Trackpoint>
          <Trackpoint>
            <Time>2021-08-28T06:26:14.000Z</Time>
            <Position>
              <LatitudeDegrees>38.1730634160339832305908203125</LatitudeDegrees>
              <LongitudeDegrees>-1.87326223589479923248291015625</LongitudeDegrees>
            </Position>
            <AltitudeMeters>642.5999755859375</AltitudeMeters>
            <DistanceMeters>26536.191757115</DistanceMeters>
          </Trackpoint>
          <Trackpoint>
            <Time>2021-08-28T06:26:18.000Z</Time>
            <Position>
              <LatitudeDegrees>38.1733420304954051971435546875</LatitudeDegrees>
              <LongitudeDegrees>-1.87361813150346279144287109375</LongitudeDegrees>
            </Position>
            <AltitudeMeters>642.4000244140625</AltitudeMeters>
            <DistanceMeters>26580.139326674</DistanceMeters>
          </Trackpoint>
          <Trackpoint>
            <Time>2021-08-28T06:26:20.000Z</Time>
            <Position>
              <LatitudeDegrees>38.17347236908972263336181640625</LatitudeDegrees>
              <LongitudeDegrees>-1.8737846799194812774658203125</LongitudeDegrees>
            </Position>
            <AltitudeMeters>642.20001220703125</AltitudeMeters>
            <DistanceMeters>26600.702018604</DistanceMeters>
          </Trackpoint>
          <Trackpoint>
            <Time>2021-08-28T06:26:21.000Z</Time>
            <Position>
              <LatitudeDegrees>38.173533976078033447265625</LatitudeDegrees>
              <LongitudeDegrees>-1.87386455945670604705810546875</LongitudeDegrees>
            </Position>
            <AltitudeMeters>642</AltitudeMeters>
            <DistanceMeters>26610.493920957</DistanceMeters>
          </Trackpoint>
          <Trackpoint>
            <Time>2021-08-28T06:26:27.000Z</Time>
            <Position>
              <LatitudeDegrees>38.173900432884693145751953125</LatitudeDegrees>
              <LongitudeDegrees>-1.874331347644329071044921875</LongitudeDegrees>
            </Position>
            <AltitudeMeters>642.79998779296875</AltitudeMeters>
            <DistanceMeters>26668.215747378</DistanceMeters>
          </Trackpoint>
          <Trackpoint>
            <Time>2021-08-28T06:26:28.000Z</Time>
            <Position>
              <LatitudeDegrees>38.17396203987300395965576171875</LatitudeDegrees>
              <LongitudeDegrees>-1.87440670095384120941162109375</LongitudeDegrees>
            </Position>
            <AltitudeMeters>642.79998779296875</AltitudeMeters>
            <DistanceMeters>26677.72791674</DistanceMeters>
          </Trackpoint>
          <Trackpoint>
            <Time>2021-08-28T06:26:30.000Z</Time>
            <Position>
              <LatitudeDegrees>38.17408039234578609466552734375</LatitudeDegrees>
              <LongitudeDegrees>-1.8745551444590091705322265625</LongitudeDegrees>
            </Position>
            <AltitudeMeters>642.79998779296875</AltitudeMeters>
            <DistanceMeters>26696.227155564</DistanceMeters>
          </Trackpoint>
          <Trackpoint>
            <Time>2021-08-28T06:26:35.000Z</Time>
            <Position>
              <LatitudeDegrees>38.17435146309435367584228515625</LatitudeDegrees>
              <LongitudeDegrees>-1.874908022582530975341796875</LongitudeDegrees>
            </Position>
            <AltitudeMeters>642.79998779296875</AltitudeMeters>
            <DistanceMeters>26739.396694783</DistanceMeters>
          </Trackpoint>
          <Trackpoint>
            <Time>2021-08-28T06:26:40.000Z</Time>
            <Position>
              <LatitudeDegrees>38.1746028363704681396484375</LatitudeDegrees>
              <LongitudeDegrees>-1.875231564044952392578125</LongitudeDegrees>
            </Position>
            <AltitudeMeters>643</AltitudeMeters>
            <DistanceMeters>26779.19871095</DistanceMeters>
          </Trackpoint>
          <Trackpoint>
            <Time>2021-08-28T06:26:44.000Z</Time>
            <Position>
              <LatitudeDegrees>38.17479126155376434326171875</LatitudeDegrees>
              <LongitudeDegrees>-1.8754734657704830169677734375</LongitudeDegrees>
            </Position>
            <AltitudeMeters>643.20001220703125</AltitudeMeters>
            <DistanceMeters>26808.995003603</DistanceMeters>
          </Trackpoint>
          <Trackpoint>
            <Time>2021-08-28T06:26:46.000Z</Time>
            <Position>
              <LatitudeDegrees>38.174880109727382659912109375</LatitudeDegrees>
              <LongitudeDegrees>-1.875588633120059967041015625</LongitudeDegrees>
            </Position>
            <AltitudeMeters>643.4000244140625</AltitudeMeters>
            <DistanceMeters>26823.113747793</DistanceMeters>
          </Trackpoint>
          <Trackpoint>
            <Time>2021-08-28T06:26:50.000Z</Time>
            <Position>
              <LatitudeDegrees>38.17504548467695713043212890625</LatitudeDegrees>
              <LongitudeDegrees>-1.8758070655167102813720703125</LongitudeDegrees>
            </Position>
            <AltitudeMeters>644</AltitudeMeters>
            <DistanceMeters>26849.648500863</DistanceMeters>
          </Trackpoint>
          <Trackpoint>
            <Time>2021-08-28T06:26:52.000Z</Time>
            <Position>
              <LatitudeDegrees>38.17512142471969127655029296875</LatitudeDegrees>
              <LongitudeDegrees>-1.87590370886027812957763671875</LongitudeDegrees>
            </Position>
            <AltitudeMeters>644.5999755859375</AltitudeMeters>
            <DistanceMeters>26861.604508144</DistanceMeters>
          </Trackpoint>
          <Trackpoint>
            <Time>2021-08-28T06:26:54.000Z</Time>
            <Position>
              <LatitudeDegrees>38.17520759068429470062255859375</LatitudeDegrees>
              <LongitudeDegrees>-1.87598249875009059906005859375</LongitudeDegrees>
            </Position>
            <AltitudeMeters>645.5999755859375</AltitudeMeters>
            <DistanceMeters>26873.415759178</DistanceMeters>
          </Trackpoint>
          <Trackpoint>
            <Time>2021-08-28T06:26:55.000Z</Time>
            <Position>
              <LatitudeDegrees>38.1752601452171802520751953125</LatitudeDegrees>
              <LongitudeDegrees>-1.87600915320217609405517578125</LongitudeDegrees>
            </Position>
            <AltitudeMeters>645.79998779296875</AltitudeMeters>
            <DistanceMeters>26879.714102279</DistanceMeters>
          </Trackpoint>
          <Trackpoint>
            <Time>2021-08-28T06:26:56.000Z</Time>
            <Position>
              <LatitudeDegrees>38.1753141246736049652099609375</LatitudeDegrees>
              <LongitudeDegrees>-1.87603547237813472747802734375</LongitudeDegrees>
            </Position>
            <AltitudeMeters>645.79998779296875</AltitudeMeters>
            <DistanceMeters>26886.147909116</DistanceMeters>
          </Trackpoint>
          <Trackpoint>
            <Time>2021-08-28T06:26:57.000Z</Time>
            <Position>
              <LatitudeDegrees>38.175368607044219970703125</LatitudeDegrees>
              <LongitudeDegrees>-1.87606983818113803863525390625</LongitudeDegrees>
            </Position>
            <AltitudeMeters>646</AltitudeMeters>
            <DistanceMeters>26892.91618643</DistanceMeters>
          </Trackpoint>
          <Trackpoint>
            <Time>2021-08-28T06:26:59.000Z</Time>
            <Position>
              <LatitudeDegrees>38.1754562817513942718505859375</LatitudeDegrees>
              <LongitudeDegrees>-1.87617343850433826446533203125</LongitudeDegrees>
            </Position>
            <AltitudeMeters>646.4000244140625</AltitudeMeters>
            <DistanceMeters>26906.23485084</DistanceMeters>
          </Trackpoint>
          <Trackpoint>
            <Time>2021-08-28T06:27:00.000Z</Time>
            <Position>
              <LatitudeDegrees>38.175484947860240936279296875</LatitudeDegrees>
              <LongitudeDegrees>-1.87624049372971057891845703125</LongitudeDegrees>
            </Position>
            <AltitudeMeters>646.5999755859375</AltitudeMeters>
            <DistanceMeters>26912.913816151</DistanceMeters>
          </Trackpoint>
          <Trackpoint>
            <Time>2021-08-28T06:27:01.000Z</Time>
            <Position>
              <LatitudeDegrees>38.17549995146691799163818359375</LatitudeDegrees>
              <LongitudeDegrees>-1.8763119913637638092041015625</LongitudeDegrees>
            </Position>
            <AltitudeMeters>646.5999755859375</AltitudeMeters>
            <DistanceMeters>26919.388197578</DistanceMeters>
          </Trackpoint>
          <Trackpoint>
            <Time>2021-08-28T06:27:02.000Z</Time>
            <Position>
              <LatitudeDegrees>38.1755159609019756317138671875</LatitudeDegrees>
              <LongitudeDegrees>-1.87638223171234130859375</LongitudeDegrees>
            </Position>
            <AltitudeMeters>646.79998779296875</AltitudeMeters>
            <DistanceMeters>26925.78681982</DistanceMeters>
          </Trackpoint>
          <Trackpoint>
            <Time>2021-08-28T06:27:05.000Z</Time>
            <Position>
              <LatitudeDegrees>38.17557983100414276123046875</LatitudeDegrees>
              <LongitudeDegrees>-1.87658951617777347564697265625</LongitudeDegrees>
            </Position>
            <AltitudeMeters>647</AltitudeMeters>
            <DistanceMeters>26945.266600936</DistanceMeters>
          </Trackpoint>
          <Trackpoint>
            <Time>2021-08-28T06:27:06.000Z</Time>
            <Position>
              <LatitudeDegrees>38.1756115145981311798095703125</LatitudeDegrees>
              <LongitudeDegrees>-1.87665472738444805145263671875</LongitudeDegrees>
            </Position>
            <AltitudeMeters>646.79998779296875</AltitudeMeters>
            <DistanceMeters>26951.973898517</DistanceMeters>
          </Trackpoint>
          <Trackpoint>
            <Time>2021-08-28T06:27:10.000Z</Time>
            <Position>
              <LatitudeDegrees>38.17575258202850818634033203125</LatitudeDegrees>
              <LongitudeDegrees>-1.8769114650785923004150390625</LongitudeDegrees>
            </Position>
            <AltitudeMeters>646.79998779296875</AltitudeMeters>
            <DistanceMeters>26979.38115812</DistanceMeters>
          </Trackpoint>
          <Trackpoint>
            <Time>2021-08-28T06:27:15.000Z</Time>
            <Position>
              <LatitudeDegrees>38.1759380735456943511962890625</LatitudeDegrees>
              <LongitudeDegrees>-1.87723726965487003326416015625</LongitudeDegrees>
            </Position>
            <AltitudeMeters>646.79998779296875</AltitudeMeters>
            <DistanceMeters>27014.578776045</DistanceMeters>
          </Trackpoint>
          <Trackpoint>
            <Time>2021-08-28T06:27:20.000Z</Time>
            <Position>
              <LatitudeDegrees>38.17611954174935817718505859375</LatitudeDegrees>
              <LongitudeDegrees>-1.87756215222179889678955078125</LongitudeDegrees>
            </Position>
            <AltitudeMeters>646.79998779296875</AltitudeMeters>
            <DistanceMeters>27049.449825556</DistanceMeters>
          </Trackpoint>
          <Trackpoint>
            <Time>2021-08-28T06:27:25.000Z</Time>
            <Position>
              <LatitudeDegrees>38.17629891447722911834716796875</LatitudeDegrees>
              <LongitudeDegrees>-1.8778975121676921844482421875</LongitudeDegrees>
            </Position>
            <AltitudeMeters>647.20001220703125</AltitudeMeters>
            <DistanceMeters>27084.940236132</DistanceMeters>
          </Trackpoint>
          <Trackpoint>
            <Time>2021-08-28T06:27:30.000Z</Time>
            <Position>
              <LatitudeDegrees>38.176487423479557037353515625</LatitudeDegrees>
              <LongitudeDegrees>-1.87823555432260036468505859375</LongitudeDegrees>
            </Position>
            <AltitudeMeters>647</AltitudeMeters>
            <DistanceMeters>27121.203730206</DistanceMeters>
          </Trackpoint>
          <Trackpoint>
            <Time>2021-08-28T06:27:33.000Z</Time>
            <Position>
              <LatitudeDegrees>38.1766037642955780029296875</LatitudeDegrees>
              <LongitudeDegrees>-1.87843470834195613861083984375</LongitudeDegrees>
            </Position>
            <AltitudeMeters>646.79998779296875</AltitudeMeters>
            <DistanceMeters>27142.913539277</DistanceMeters>
          </Trackpoint>
          <Trackpoint>
            <Time>2021-08-28T06:27:40.000Z</Time>
            <Position>
              <LatitudeDegrees>38.17685983143746852874755859375</LatitudeDegrees>
              <LongitudeDegrees>-1.87885480932891368865966796875</LongitudeDegrees>
            </Position>
            <AltitudeMeters>648.4000244140625</AltitudeMeters>
            <DistanceMeters>27189.425597219</DistanceMeters>
          </Trackpoint>
          <Trackpoint>
            <Time>2021-08-28T06:27:41.000Z</Time>
            <Position>
              <LatitudeDegrees>38.17689671181142330169677734375</LatitudeDegrees>
              <LongitudeDegrees>-1.87891356647014617919921875</LongitudeDegrees>
            </Position>
            <AltitudeMeters>648.79998779296875</AltitudeMeters>
            <DistanceMeters>27196.003752456</DistanceMeters>
          </Trackpoint>
          <Trackpoint>
            <Time>2021-08-28T06:27:44.000Z</Time>
            <Position>
              <LatitudeDegrees>38.17700735293328762054443359375</LatitudeDegrees>
              <LongitudeDegrees>-1.87909134663641452789306640625</LongitudeDegrees>
            </Position>
            <AltitudeMeters>649.5999755859375</AltitudeMeters>
            <DistanceMeters>27215.843182187</DistanceMeters>
          </Trackpoint>
          <Trackpoint>
            <Time>2021-08-28T06:27:49.000Z</Time>
            <Position>
              <LatitudeDegrees>38.17719527520239353179931640625</LatitudeDegrees>
              <LongitudeDegrees>-1.879421174526214599609375</LongitudeDegrees>
            </Position>
            <AltitudeMeters>650.4000244140625</AltitudeMeters>
            <DistanceMeters>27251.484154585</DistanceMeters>
          </Trackpoint>
          <Trackpoint>
            <Time>2021-08-28T06:27:50.000Z</Time>
            <Position>
              <LatitudeDegrees>38.17723249085247516632080078125</LatitudeDegrees>
              <LongitudeDegrees>-1.87949351035058498382568359375</LongitudeDegrees>
            </Position>
            <AltitudeMeters>650.4000244140625</AltitudeMeters>
            <DistanceMeters>27259.048185544</DistanceMeters>
          </Trackpoint>
          <Trackpoint>
            <Time>2021-08-28T06:27:54.000Z</Time>
            <Position>
              <LatitudeDegrees>38.1773931719362735748291015625</LatitudeDegrees>
              <LongitudeDegrees>-1.87979475595057010650634765625</LongitudeDegrees>
            </Position>
            <AltitudeMeters>650.5999755859375</AltitudeMeters>
            <DistanceMeters>27290.900142292</DistanceMeters>
          </Trackpoint>
          <Trackpoint>
            <Time>2021-08-28T06:27:57.000Z</Time>
            <Position>
              <LatitudeDegrees>38.177524097263813018798828125</LatitudeDegrees>
              <LongitudeDegrees>-1.8800286948680877685546875</LongitudeDegrees>
            </Position>
            <AltitudeMeters>651.20001220703125</AltitudeMeters>
            <DistanceMeters>27316.02585968</DistanceMeters>
          </Trackpoint>
          <Trackpoint>
            <Time>2021-08-28T06:28:00.000Z</Time>
            <Position>
              <LatitudeDegrees>38.17766164429485797882080078125</LatitudeDegrees>
              <LongitudeDegrees>-1.88027168624103069305419921875</LongitudeDegrees>
            </Position>
            <AltitudeMeters>651.4000244140625</AltitudeMeters>
            <DistanceMeters>27342.224640387</DistanceMeters>
          </Trackpoint>
          <Trackpoint>
            <Time>2021-08-28T06:28:05.000Z</Time>
            <Position>
              <LatitudeDegrees>38.17788342945277690887451171875</LatitudeDegrees>
              <LongitudeDegrees>-1.88069882802665233612060546875</LongitudeDegrees>
            </Position>
            <AltitudeMeters>651.4000244140625</AltitudeMeters>
            <DistanceMeters>27387.013685613</DistanceMeters>
          </Trackpoint>
          <Trackpoint>
            <Time>2021-08-28T06:28:10.000Z</Time>
            <Position>
              <LatitudeDegrees>38.17811627872288227081298828125</LatitudeDegrees>
              <LongitudeDegrees>-1.88114893622696399688720703125</LongitudeDegrees>
            </Position>
            <AltitudeMeters>650.5999755859375</AltitudeMeters>
            <DistanceMeters>27434.157950855</DistanceMeters>
          </Trackpoint>
          <Trackpoint>
            <Time>2021-08-28T06:28:12.000Z</Time>
            <Position>
              <LatitudeDegrees>38.178211748600006103515625</LatitudeDegrees>
              <LongitudeDegrees>-1.88133585266768932342529296875</LongitudeDegrees>
            </Position>
            <AltitudeMeters>650.20001220703125</AltitudeMeters>
            <DistanceMeters>27453.660896273</DistanceMeters>
          </Trackpoint>
          <Trackpoint>
            <Time>2021-08-28T06:28:19.000Z</Time>
            <Position>
              <LatitudeDegrees>38.17854057066142559051513671875</LatitudeDegrees>
              <LongitudeDegrees>-1.88199969939887523651123046875</LongitudeDegrees>
            </Position>
            <AltitudeMeters>650.20001220703125</AltitudeMeters>
            <DistanceMeters>27522.312156697</DistanceMeters>
          </Trackpoint>
          <Trackpoint>
            <Time>2021-08-28T06:28:20.000Z</Time>
            <Position>
              <LatitudeDegrees>38.178586922585964202880859375</LatitudeDegrees>
              <LongitudeDegrees>-1.8820948339998722076416015625</LongitudeDegrees>
            </Position>
            <AltitudeMeters>649.79998779296875</AltitudeMeters>
            <DistanceMeters>27532.104520138</DistanceMeters>
          </Trackpoint>
          <Trackpoint>
            <Time>2021-08-28T06:28:21.000Z</Time>
            <Position>
              <LatitudeDegrees>38.17863277159631252288818359375</LatitudeDegrees>
              <LongitudeDegrees>-1.88218980096280574798583984375</LongitudeDegrees>
            </Position>
            <AltitudeMeters>649.5999755859375</AltitudeMeters>
            <DistanceMeters>27541.855761339</DistanceMeters>
          </Trackpoint>
          <Trackpoint>
            <Time>2021-08-28T06:28:27.000Z</Time>
            <Position>
              <LatitudeDegrees>38.17889277823269367218017578125</LatitudeDegrees>
              <LongitudeDegrees>-1.88276982866227626800537109375</LongitudeDegrees>
            </Position>
            <AltitudeMeters>649</AltitudeMeters>
            <DistanceMeters>27600.275554574</DistanceMeters>
          </Trackpoint>
          <Trackpoint>
            <Time>2021-08-28T06:28:30.000Z</Time>
            <Position>
              <LatitudeDegrees>38.17902269773185253143310546875</LatitudeDegrees>
              <LongitudeDegrees>-1.883047185838222503662109375</LongitudeDegrees>
            </Position>
            <AltitudeMeters>649</AltitudeMeters>
            <DistanceMeters>27628.523913733</DistanceMeters>
          </Trackpoint>
          <Trackpoint>
            <Time>2021-08-28T06:28:34.000Z</Time>
            <Position>
              <LatitudeDegrees>38.1792108714580535888671875</LatitudeDegrees>
              <LongitudeDegrees>-1.8834020756185054779052734375</LongitudeDegrees>
            </Position>
            <AltitudeMeters>649</AltitudeMeters>
            <DistanceMeters>27665.977460896</DistanceMeters>
          </Trackpoint>
          <Trackpoint>
            <Time>2021-08-28T06:28:37.000Z</Time>
            <Position>
              <LatitudeDegrees>38.17936711013317108154296875</LatitudeDegrees>
              <LongitudeDegrees>-1.88364372588694095611572265625</LongitudeDegrees>
            </Position>
            <AltitudeMeters>648.20001220703125</AltitudeMeters>
            <DistanceMeters>27693.352742522</DistanceMeters>
          </Trackpoint>
          <Trackpoint>
            <Time>2021-08-28T06:28:40.000Z</Time>
            <Position>
              <LatitudeDegrees>38.1795382685959339141845703125</LatitudeDegrees>
              <LongitudeDegrees>-1.8838650919497013092041015625</LongitudeDegrees>
            </Position>
            <AltitudeMeters>647.5999755859375</AltitudeMeters>
            <DistanceMeters>27720.519415998</DistanceMeters>
          </Trackpoint>
          <Trackpoint>
            <Time>2021-08-28T06:28:47.000Z</Time>
            <Position>
              <LatitudeDegrees>38.17994705401360988616943359375</LatitudeDegrees>
              <LongitudeDegrees>-1.88438435085117816925048828125</LongitudeDegrees>
            </Position>
            <AltitudeMeters>647.20001220703125</AltitudeMeters>
            <DistanceMeters>27784.816347629</DistanceMeters>
          </Trackpoint>
          <Trackpoint>
            <Time>2021-08-28T06:28:50.000Z</Time>
            <Position>
              <LatitudeDegrees>38.18011720664799213409423828125</LatitudeDegrees>
              <LongitudeDegrees>-1.88460848294198513031005859375</LongitudeDegrees>
            </Position>
            <AltitudeMeters>647.5999755859375</AltitudeMeters>
            <DistanceMeters>27812.077920429</DistanceMeters>
          </Trackpoint>
          <Trackpoint>
            <Time>2021-08-28T06:28:57.000Z</Time>
            <Position>
              <LatitudeDegrees>38.18052389658987522125244140625</LatitudeDegrees>
              <LongitudeDegrees>-1.885120533406734466552734375</LongitudeDegrees>
            </Position>
            <AltitudeMeters>647.5999755859375</AltitudeMeters>
            <DistanceMeters>27875.764537986</DistanceMeters>
          </Trackpoint>
          <Trackpoint>
            <Time>2021-08-28T06:28:59.000Z</Time>
            <Position>
              <LatitudeDegrees>38.180635459721088409423828125</LatitudeDegrees>
              <LongitudeDegrees>-1.8852698989212512969970703125</LongitudeDegrees>
            </Position>
            <AltitudeMeters>647.5999755859375</AltitudeMeters>
            <DistanceMeters>27893.791584085</DistanceMeters>
          </Trackpoint>
          <Trackpoint>
            <Time>2021-08-28T06:29:00.000Z</Time>
            <Position>
              <LatitudeDegrees>38.18069052882492542266845703125</LatitudeDegrees>
              <LongitudeDegrees>-1.885343156754970550537109375</LongitudeDegrees>
            </Position>
            <AltitudeMeters>647.5999755859375</AltitudeMeters>
            <DistanceMeters>27902.66017844</DistanceMeters>
          </Trackpoint>
          <Trackpoint>
            <Time>2021-08-28T06:29:07.000Z</Time>
            <Position>
              <LatitudeDegrees>38.181076683104038238525390625</LatitudeDegrees>
              <LongitudeDegrees>-1.88585889525711536407470703125</LongitudeDegrees>
            </Position>
            <AltitudeMeters>647.5999755859375</AltitudeMeters>
            <DistanceMeters>27964.976043063</DistanceMeters>
          </Trackpoint>
          <Trackpoint>
            <Time>2021-08-28T06:29:09.000Z</Time>
            <Position>
              <LatitudeDegrees>38.18118740804493427276611328125</LatitudeDegrees>
              <LongitudeDegrees>-1.8860038183629512786865234375</LongitudeDegrees>
            </Position>
            <AltitudeMeters>647.5999755859375</AltitudeMeters>
            <DistanceMeters>27982.657652341</DistanceMeters>
          </Trackpoint>
          <Trackpoint>
            <Time>2021-08-28T06:29:10.000Z</Time>
            <Position>
              <LatitudeDegrees>38.18124423734843730926513671875</LatitudeDegrees>
              <LongitudeDegrees>-1.886076740920543670654296875</LongitudeDegrees>
            </Position>
            <AltitudeMeters>647.5999755859375</AltitudeMeters>
            <DistanceMeters>27991.642577683</DistanceMeters>
          </Trackpoint>
          <Trackpoint>
            <Time>2021-08-28T06:29:17.000Z</Time>
            <Position>
              <LatitudeDegrees>38.181599043309688568115234375</LatitudeDegrees>
              <LongitudeDegrees>-1.88659482635557651519775390625</LongitudeDegrees>
            </Position>
            <AltitudeMeters>648</AltitudeMeters>
            <DistanceMeters>28051.759649674</DistanceMeters>
          </Trackpoint>
          <Trackpoint>
            <Time>2021-08-28T06:29:20.000Z</Time>
            <Position>
              <LatitudeDegrees>38.18169183097779750823974609375</LatitudeDegrees>
              <LongitudeDegrees>-1.88684980385005474090576171875</LongitudeDegrees>
            </Position>
            <AltitudeMeters>648.20001220703125</AltitudeMeters>
            <DistanceMeters>28076.342199292</DistanceMeters>
          </Trackpoint>
          <Trackpoint>
            <Time>2021-08-28T06:29:22.000Z</Time>
            <Position>
              <LatitudeDegrees>38.181721754372119903564453125</LatitudeDegrees>
              <LongitudeDegrees>-1.88702934421598911285400390625</LongitudeDegrees>
            </Position>
            <AltitudeMeters>648.4000244140625</AltitudeMeters>
            <DistanceMeters>28092.39946471</DistanceMeters>
          </Trackpoint>
          <Trackpoint>
            <Time>2021-08-28T06:29:27.000Z</Time>
            <Position>
              <LatitudeDegrees>38.18175100721418857574462890625</LatitudeDegrees>
              <LongitudeDegrees>-1.88749353401362895965576171875</LongitudeDegrees>
            </Position>
            <AltitudeMeters>648.5999755859375</AltitudeMeters>
            <DistanceMeters>28133.141552065</DistanceMeters>
          </Trackpoint>
          <Trackpoint>
            <Time>2021-08-28T06:29:28.000Z</Time>
            <Position>
              <LatitudeDegrees>38.18175603635609149932861328125</LatitudeDegrees>
              <LongitudeDegrees>-1.88758514821529388427734375</LongitudeDegrees>
            </Position>
            <AltitudeMeters>648.5999755859375</AltitudeMeters>
            <DistanceMeters>28141.176789869</DistanceMeters>
          </Trackpoint>
          <Trackpoint>
            <Time>2021-08-28T06:29:30.000Z</Time>
            <Position>
              <LatitudeDegrees>38.18176408298313617706298828125</LatitudeDegrees>
              <LongitudeDegrees>-1.88777265138924121856689453125</LongitudeDegrees>
            </Position>
            <AltitudeMeters>648.4000244140625</AltitudeMeters>
            <DistanceMeters>28157.606246496</DistanceMeters>
          </Trackpoint>
          <Trackpoint>
            <Time>2021-08-28T06:29:35.000Z</Time>
            <Position>
              <LatitudeDegrees>38.1817862950265407562255859375</LatitudeDegrees>
              <LongitudeDegrees>-1.8882263638079166412353515625</LongitudeDegrees>
            </Position>
            <AltitudeMeters>648.79998779296875</AltitudeMeters>
            <DistanceMeters>28197.378303909</DistanceMeters>
          </Trackpoint>
          <Trackpoint>
            <Time>2021-08-28T06:29:40.000Z</Time>
            <Position>
              <LatitudeDegrees>38.181806914508342742919921875</LatitudeDegrees>
              <LongitudeDegrees>-1.8886803276836872100830078125</LongitudeDegrees>
            </Position>
            <AltitudeMeters>649</AltitudeMeters>
            <DistanceMeters>28237.161485008</DistanceMeters>
          </Trackpoint>
          <Trackpoint>
            <Time>2021-08-28T06:29:43.000Z</Time>
            <Position>
              <LatitudeDegrees>38.1818184815347194671630859375</LatitudeDegrees>
              <LongitudeDegrees>-1.88897050917148590087890625</LongitudeDegrees>
            </Position>
            <AltitudeMeters>649</AltitudeMeters>
            <DistanceMeters>28262.581797168</DistanceMeters>
          </Trackpoint>
          <Trackpoint>
            <Time>2021-08-28T06:29:49.000Z</Time>
            <Position>
              <LatitudeDegrees>38.18186114542186260223388671875</LatitudeDegrees>
              <LongitudeDegrees>-1.8896050192415714263916015625</LongitudeDegrees>
            </Position>
            <AltitudeMeters>647.5999755859375</AltitudeMeters>
            <DistanceMeters>28318.297443614</DistanceMeters>
          </Trackpoint>
          <Trackpoint>
            <Time>2021-08-28T06:29:50.000Z</Time>
            <Position>
              <LatitudeDegrees>38.18188126198947429656982421875</LatitudeDegrees>
              <LongitudeDegrees>-1.8897133134305477142333984375</LongitudeDegrees>
            </Position>
            <AltitudeMeters>647.20001220703125</AltitudeMeters>
            <DistanceMeters>28328.032929342</DistanceMeters>
          </Trackpoint>
          <Trackpoint>
            <Time>2021-08-28T06:29:51.000Z</Time>
            <Position>
              <LatitudeDegrees>38.18191244266927242279052734375</LatitudeDegrees>
              <LongitudeDegrees>-1.88982169143855571746826171875</LongitudeDegrees>
            </Position>
            <AltitudeMeters>646.79998779296875</AltitudeMeters>
            <DistanceMeters>28338.12993697</DistanceMeters>
          </Trackpoint>
          <Trackpoint>
            <Time>2021-08-28T06:29:53.000Z</Time>
            <Position>
              <LatitudeDegrees>38.1820266880095005035400390625</LatitudeDegrees>
              <LongitudeDegrees>-1.89001615159213542938232421875</LongitudeDegrees>
            </Position>
            <AltitudeMeters>646.4000244140625</AltitudeMeters>
            <DistanceMeters>28359.370055123</DistanceMeters>
          </Trackpoint>
          <Trackpoint>
            <Time>2021-08-28T06:29:55.000Z</Time>
            <Position>
              <LatitudeDegrees>38.18216909654438495635986328125</LatitudeDegrees>
              <LongitudeDegrees>-1.89018496312201023101806640625</LongitudeDegrees>
            </Position>
            <AltitudeMeters>645.5999755859375</AltitudeMeters>
            <DistanceMeters>28381.034687207</DistanceMeters>
          </Trackpoint>
          <Trackpoint>
            <Time>2021-08-28T06:29:58.000Z</Time>
            <Position>
              <LatitudeDegrees>38.18238920532166957855224609375</LatitudeDegrees>
              <LongitudeDegrees>-1.890408508479595184326171875</LongitudeDegrees>
            </Position>
            <AltitudeMeters>644.5999755859375</AltitudeMeters>
            <DistanceMeters>28412.382414538</DistanceMeters>
          </Trackpoint>
          <Trackpoint>
            <Time>2021-08-28T06:30:00.000Z</Time>
            <Position>
              <LatitudeDegrees>38.18253203295171260833740234375</LatitudeDegrees>
              <LongitudeDegrees>-1.89054496586322784423828125</LongitudeDegrees>
            </Position>
            <AltitudeMeters>644.4000244140625</AltitudeMeters>
            <DistanceMeters>28432.2629934</DistanceMeters>
          </Trackpoint>
          <Trackpoint>
            <Time>2021-08-28T06:30:04.000Z</Time>
            <Position>
              <LatitudeDegrees>38.1828236393630504608154296875</LatitudeDegrees>
              <LongitudeDegrees>-1.890769265592098236083984375</LongitudeDegrees>
            </Position>
            <AltitudeMeters>644.4000244140625</AltitudeMeters>
            <DistanceMeters>28470.190677718</DistanceMeters>
          </Trackpoint>
          <Trackpoint>
            <Time>2021-08-28T06:30:06.000Z</Time>
            <Position>
              <LatitudeDegrees>38.18295213393867015838623046875</LatitudeDegrees>
              <LongitudeDegrees>-1.89082391560077667236328125</LongitudeDegrees>
            </Position>
            <AltitudeMeters>644.4000244140625</AltitudeMeters>
            <DistanceMeters>28485.270312495</DistanceMeters>
          </Trackpoint>
          <Trackpoint>
            <Time>2021-08-28T06:30:07.000Z</Time>
            <Position>
              <LatitudeDegrees>38.1830169260501861572265625</LatitudeDegrees>
              <LongitudeDegrees>-1.8908272683620452880859375</LongitudeDegrees>
            </Position>
            <AltitudeMeters>644.4000244140625</AltitudeMeters>
            <DistanceMeters>28492.487339648</DistanceMeters>
          </Trackpoint>
          <Trackpoint>
            <Time>2021-08-28T06:30:10.000Z</Time>
            <Position>
              <LatitudeDegrees>38.1832092069089412689208984375</LatitudeDegrees>
              <LongitudeDegrees>-1.89080170355737209320068359375</LongitudeDegrees>
            </Position>
            <AltitudeMeters>644.79998779296875</AltitudeMeters>
            <DistanceMeters>28514.005173406</DistanceMeters>
          </Trackpoint>
          <Trackpoint>
            <Time>2021-08-28T06:30:13.000Z</Time>
            <Position>
              <LatitudeDegrees>38.1833869032561779022216796875</LatitudeDegrees>
              <LongitudeDegrees>-1.890778653323650360107421875</LongitudeDegrees>
            </Position>
            <AltitudeMeters>645.4000244140625</AltitudeMeters>
            <DistanceMeters>28533.885525159</DistanceMeters>
          </Trackpoint>
          <Trackpoint>
            <Time>2021-08-28T06:30:15.000Z</Time>
            <Position>
              <LatitudeDegrees>38.1834948621690273284912109375</LatitudeDegrees>
              <LongitudeDegrees>-1.890767253935337066650390625</LongitudeDegrees>
            </Position>
            <AltitudeMeters>646</AltitudeMeters>
            <DistanceMeters>28545.942689032</DistanceMeters>
          </Trackpoint>
          <Trackpoint>
            <Time>2021-08-28T06:30:19.000Z</Time>
            <Position>
              <LatitudeDegrees>38.1837050803005695343017578125</LatitudeDegrees>
              <LongitudeDegrees>-1.890737079083919525146484375</LongitudeDegrees>
            </Position>
            <AltitudeMeters>647</AltitudeMeters>
            <DistanceMeters>28569.488613804</DistanceMeters>
          </Trackpoint>
          <Trackpoint>
            <Time>2021-08-28T06:30:20.000Z</Time>
            <Position>
              <LatitudeDegrees>38.1837577186524868011474609375</LatitudeDegrees>
              <LongitudeDegrees>-1.890729367733001708984375</LongitudeDegrees>
            </Position>
            <AltitudeMeters>647</AltitudeMeters>
            <DistanceMeters>28575.386397664</DistanceMeters>
          </Trackpoint>
          <Trackpoint>
            <Time>2021-08-28T06:30:23.000Z</Time>
            <Position>
              <LatitudeDegrees>38.18391387350857257843017578125</LatitudeDegrees>
              <LongitudeDegrees>-1.890725679695606231689453125</LongitudeDegrees>
            </Position>
            <AltitudeMeters>648.20001220703125</AltitudeMeters>
            <DistanceMeters>28592.769794286</DistanceMeters>
          </Trackpoint>
          <Trackpoint>
            <Time>2021-08-28T06:30:24.000Z</Time>
            <Position>
              <LatitudeDegrees>38.1839659251272678375244140625</LatitudeDegrees>
              <LongitudeDegrees>-1.89072190783917903900146484375</LongitudeDegrees>
            </Position>
            <AltitudeMeters>648.4000244140625</AltitudeMeters>
            <DistanceMeters>28598.573429797</DistanceMeters>
          </Trackpoint>
          <Trackpoint>
            <Time>2021-08-28T06:30:27.000Z</Time>
            <Position>
              <LatitudeDegrees>38.18411596119403839111328125</LatitudeDegrees>
              <LongitudeDegrees>-1.8907121010124683380126953125</LongitudeDegrees>
            </Position>
            <AltitudeMeters>649.20001220703125</AltitudeMeters>
            <DistanceMeters>28615.294891665</DistanceMeters>
          </Trackpoint>
          <Trackpoint>
            <Time>2021-08-28T06:30:29.000Z</Time>
            <Position>
              <LatitudeDegrees>38.1842177174985408782958984375</LatitudeDegrees>
              <LongitudeDegrees>-1.89070145599544048309326171875</LongitudeDegrees>
            </Position>
            <AltitudeMeters>649.4000244140625</AltitudeMeters>
            <DistanceMeters>28626.658433945</DistanceMeters>
          </Trackpoint>
          <Trackpoint>
            <Time>2021-08-28T06:30:30.000Z</Time>
            <Position>
              <LatitudeDegrees>38.1842639856040477752685546875</LatitudeDegrees>
              <LongitudeDegrees>-1.89069324173033237457275390625</LongitudeDegrees>
            </Position>
            <AltitudeMeters>649.5999755859375</AltitudeMeters>
            <DistanceMeters>28631.858054015</DistanceMeters>
          </Trackpoint>
          <Trackpoint>
            <Time>2021-08-28T06:30:31.000Z</Time>
            <Position>
              <LatitudeDegrees>38.184311091899871826171875</LatitudeDegrees>
              <LongitudeDegrees>-1.89069190062582492828369140625</LongitudeDegrees>
            </Position>
            <AltitudeMeters>649.5999755859375</AltitudeMeters>
            <DistanceMeters>28637.102633392</DistanceMeters>
          </Trackpoint>
          <Trackpoint>
            <Time>2021-08-28T06:30:36.000Z</Time>
            <Position>
              <LatitudeDegrees>38.18453011102974414825439453125</LatitudeDegrees>
              <LongitudeDegrees>-1.89066122286021709442138671875</LongitudeDegrees>
            </Position>
            <AltitudeMeters>650.4000244140625</AltitudeMeters>
            <DistanceMeters>28661.627259213</DistanceMeters>
          </Trackpoint>
          <Trackpoint>
            <Time>2021-08-28T06:30:39.000Z</Time>
            <Position>
              <LatitudeDegrees>38.18466489203274250030517578125</LatitudeDegrees>
              <LongitudeDegrees>-1.8906527571380138397216796875</LongitudeDegrees>
            </Position>
            <AltitudeMeters>651.20001220703125</AltitudeMeters>
            <DistanceMeters>28676.646892022</DistanceMeters>
          </Trackpoint>
          <Trackpoint>
            <Time>2021-08-28T06:30:40.000Z</Time>
            <Position>
              <LatitudeDegrees>38.18470881320536136627197265625</LatitudeDegrees>
              <LongitudeDegrees>-1.89065015874803066253662109375</LongitudeDegrees>
            </Position>
            <AltitudeMeters>651.4000244140625</AltitudeMeters>
            <DistanceMeters>28681.540537159</DistanceMeters>
          </Trackpoint>
          <Trackpoint>
            <Time>2021-08-28T06:30:47.000Z</Time>
            <Position>
              <LatitudeDegrees>38.18504844792187213897705078125</LatitudeDegrees>
              <LongitudeDegrees>-1.8906155414879322052001953125</LongitudeDegrees>
            </Position>
            <AltitudeMeters>652.4000244140625</AltitudeMeters>
            <DistanceMeters>28719.46369756</DistanceMeters>
          </Trackpoint>
          <Trackpoint>
            <Time>2021-08-28T06:30:50.000Z</Time>
            <Position>
              <LatitudeDegrees>38.1852042675018310546875</LatitudeDegrees>
              <LongitudeDegrees>-1.89059232361614704132080078125</LongitudeDegrees>
            </Position>
            <AltitudeMeters>652.79998779296875</AltitudeMeters>
            <DistanceMeters>28736.925357309</DistanceMeters>
          </Trackpoint>
          <Trackpoint>
            <Time>2021-08-28T06:30:56.000Z</Time>
            <Position>
              <LatitudeDegrees>38.1855387054383754730224609375</LatitudeDegrees>
              <LongitudeDegrees>-1.89055024646222591400146484375</LongitudeDegrees>
            </Position>
            <AltitudeMeters>652.79998779296875</AltitudeMeters>
            <DistanceMeters>28774.330653252</DistanceMeters>
          </Trackpoint>
          <Trackpoint>
            <Time>2021-08-28T06:31:00.000Z</Time>
            <Position>
              <LatitudeDegrees>38.18576845340430736541748046875</LatitudeDegrees>
              <LongitudeDegrees>-1.89053599722683429718017578125</LongitudeDegrees>
            </Position>
            <AltitudeMeters>652.79998779296875</AltitudeMeters>
            <DistanceMeters>28799.932197514</DistanceMeters>
          </Trackpoint>
          <Trackpoint>
            <Time>2021-08-28T06:31:03.000Z</Time>
            <Position>
              <LatitudeDegrees>38.185943551361560821533203125</LatitudeDegrees>
              <LongitudeDegrees>-1.890527196228504180908203125</LongitudeDegrees>
            </Position>
            <AltitudeMeters>653.5999755859375</AltitudeMeters>
            <DistanceMeters>28819.436068932</DistanceMeters>
          </Trackpoint>
          <Trackpoint>
            <Time>2021-08-28T06:31:10.000Z</Time>
            <Position>
              <LatitudeDegrees>38.18635267205536365509033203125</LatitudeDegrees>
              <LongitudeDegrees>-1.890509426593780517578125</LongitudeDegrees>
            </Position>
            <AltitudeMeters>654</AltitudeMeters>
            <DistanceMeters>28864.998579111</DistanceMeters>
          </Trackpoint>
          <Trackpoint>
            <Time>2021-08-28T06:31:18.000Z</Time>
            <Position>
              <LatitudeDegrees>38.18680487573146820068359375</LatitudeDegrees>
              <LongitudeDegrees>-1.89045653678476810455322265625</LongitudeDegrees>
            </Position>
            <AltitudeMeters>654.5999755859375</AltitudeMeters>
            <DistanceMeters>28915.542072721</DistanceMeters>
          </Trackpoint>
          <Trackpoint>
            <Time>2021-08-28T06:31:19.000Z</Time>
            <Position>
              <LatitudeDegrees>38.186859525740146636962890625</LatitudeDegrees>
              <LongitudeDegrees>-1.8904519267380237579345703125</LongitudeDegrees>
            </Position>
            <AltitudeMeters>654.5999755859375</AltitudeMeters>
            <DistanceMeters>28921.637130924</DistanceMeters>
          </Trackpoint>
          <Trackpoint>
            <Time>2021-08-28T06:31:20.000Z</Time>
            <Position>
              <LatitudeDegrees>38.186913840472698211669921875</LatitudeDegrees>
              <LongitudeDegrees>-1.890447400510311126708984375</LongitudeDegrees>
            </Position>
            <AltitudeMeters>654.79998779296875</AltitudeMeters>
            <DistanceMeters>28927.695037383</DistanceMeters>
          </Trackpoint>
          <Trackpoint>
            <Time>2021-08-28T06:31:27.000Z</Time>
            <Position>
              <LatitudeDegrees>38.187282644212245941162109375</LatitudeDegrees>
              <LongitudeDegrees>-1.89041160978376865386962890625</LongitudeDegrees>
            </Position>
            <AltitudeMeters>655.4000244140625</AltitudeMeters>
            <DistanceMeters>28968.862886941</DistanceMeters>
          </Trackpoint>
          <Trackpoint>
            <Time>2021-08-28T06:31:30.000Z</Time>
            <Position>
              <LatitudeDegrees>38.18741734139621257781982421875</LatitudeDegrees>
              <LongitudeDegrees>-1.89041362144052982330322265625</LongitudeDegrees>
            </Position>
            <AltitudeMeters>655.5999755859375</AltitudeMeters>
            <DistanceMeters>28983.856042813</DistanceMeters>
          </Trackpoint>
          <Trackpoint>
            <Time>2021-08-28T06:31:31.000Z</Time>
            <Position>
              <LatitudeDegrees>38.187458328902721405029296875</LatitudeDegrees>
              <LongitudeDegrees>-1.8904183991253376007080078125</LongitudeDegrees>
            </Position>
            <AltitudeMeters>655.79998779296875</AltitudeMeters>
            <DistanceMeters>28988.437079557</DistanceMeters>
          </Trackpoint>
          <Trackpoint>
            <Time>2021-08-28T06:31:32.000Z</Time>
            <Position>
              <LatitudeDegrees>38.1874799542129039764404296875</LatitudeDegrees>
              <LongitudeDegrees>-1.89046190120279788970947265625</LongitudeDegrees>
            </Position>
            <AltitudeMeters>655.79998779296875</AltitudeMeters>
            <DistanceMeters>28992.940583937</DistanceMeters>
          </Trackpoint>
          <Trackpoint>
            <Time>2021-08-28T06:31:34.000Z</Time>
            <Position>
              <LatitudeDegrees>38.187507279217243194580078125</LatitudeDegrees>
              <LongitudeDegrees>-1.890545301139354705810546875</LongitudeDegrees>
            </Position>
            <AltitudeMeters>656</AltitudeMeters>
            <DistanceMeters>29000.845527263</DistanceMeters>
          </Trackpoint>
          <Trackpoint>
            <Time>2021-08-28T06:31:35.000Z</Time>
            <Position>
              <LatitudeDegrees>38.18751406855881214141845703125</LatitudeDegrees>
              <LongitudeDegrees>-1.89058628864586353302001953125</LongitudeDegrees>
            </Position>
            <AltitudeMeters>656</AltitudeMeters>
            <DistanceMeters>29004.508680767</DistanceMeters>
          </Trackpoint>
          <Trackpoint>
            <Time>2021-08-28T06:31:40.000Z</Time>
            <Position>
              <LatitudeDegrees>38.18749378435313701629638671875</LatitudeDegrees>
              <LongitudeDegrees>-1.8908126838505268096923828125</LongitudeDegrees>
            </Position>
            <AltitudeMeters>656.79998779296875</AltitudeMeters>
            <DistanceMeters>29024.442105553</DistanceMeters>
          </Trackpoint>
          <Trackpoint>
            <Time>2021-08-28T06:31:41.000Z</Time>
            <Position>
              <LatitudeDegrees>38.187481462955474853515625</LatitudeDegrees>
              <LongitudeDegrees>-1.8908562697470188140869140625</LongitudeDegrees>
            </Position>
            <AltitudeMeters>657</AltitudeMeters>
            <DistanceMeters>29028.493855665</DistanceMeters>
          </Trackpoint>
          <Trackpoint>
            <Time>2021-08-28T06:31:44.000Z</Time>
            <Position>
              <LatitudeDegrees>38.1874118931591510772705078125</LatitudeDegrees>
              <LongitudeDegrees>-1.8909501470625400543212890625</LongitudeDegrees>
            </Position>
            <AltitudeMeters>658</AltitudeMeters>
            <DistanceMeters>29039.781253441</DistanceMeters>
          </Trackpoint>
          <Trackpoint>
            <Time>2021-08-28T06:31:48.000Z</Time>
            <Position>
              <LatitudeDegrees>38.18729949183762073516845703125</LatitudeDegrees>
              <LongitudeDegrees>-1.89104360528290271759033203125</LongitudeDegrees>
            </Position>
            <AltitudeMeters>659.20001220703125</AltitudeMeters>
            <DistanceMeters>29054.726753464</DistanceMeters>
          </Trackpoint>
          <Trackpoint>
            <Time>2021-08-28T06:31:49.000Z</Time>
            <Position>
              <LatitudeDegrees>38.1872680597007274627685546875</LatitudeDegrees>
              <LongitudeDegrees>-1.891065649688243865966796875</LongitudeDegrees>
            </Position>
            <AltitudeMeters>659.4000244140625</AltitudeMeters>
            <DistanceMeters>29058.721267837</DistanceMeters>
          </Trackpoint>
          <Trackpoint>
            <Time>2021-08-28T06:31:50.000Z</Time>
            <Position>
              <LatitudeDegrees>38.1872345320880413055419921875</LatitudeDegrees>
              <LongitudeDegrees>-1.89108534716069698333740234375</LongitudeDegrees>
            </Position>
            <AltitudeMeters>659.79998779296875</AltitudeMeters>
            <DistanceMeters>29062.832752131</DistanceMeters>
          </Trackpoint>
          <Trackpoint>
            <Time>2021-08-28T06:31:53.000Z</Time>
            <Position>
              <LatitudeDegrees>38.1871316023170948028564453125</LatitudeDegrees>
              <LongitudeDegrees>-1.89116765744984149932861328125</LongitudeDegrees>
            </Position>
            <AltitudeMeters>660.20001220703125</AltitudeMeters>
            <DistanceMeters>29076.363969001</DistanceMeters>
          </Trackpoint>
          <Trackpoint>
            <Time>2021-08-28T06:31:56.000Z</Time>
            <Position>
              <LatitudeDegrees>38.18703328259289264678955078125</LatitudeDegrees>
              <LongitudeDegrees>-1.89121644012629985809326171875</LongitudeDegrees>
            </Position>
            <AltitudeMeters>661</AltitudeMeters>
            <DistanceMeters>29088.110055072</DistanceMeters>
          </Trackpoint>
          <Trackpoint>
            <Time>2021-08-28T06:31:57.000Z</Time>
            <Position>
              <LatitudeDegrees>38.187002353370189666748046875</LatitudeDegrees>
              <LongitudeDegrees>-1.89123555086553096771240234375</LongitudeDegrees>
            </Position>
            <AltitudeMeters>661.20001220703125</AltitudeMeters>
            <DistanceMeters>29091.937166775</DistanceMeters>
          </Trackpoint>
          <Trackpoint>
            <Time>2021-08-28T06:31:58.000Z</Time>
            <Position>
              <LatitudeDegrees>38.18696237169206142425537109375</LatitudeDegrees>
              <LongitudeDegrees>-1.8912671506404876708984375</LongitudeDegrees>
            </Position>
            <AltitudeMeters>661.4000244140625</AltitudeMeters>
            <DistanceMeters>29097.175716414</DistanceMeters>
          </Trackpoint>
          <Trackpoint>
            <Time>2021-08-28T06:32:00.000Z</Time>
            <Position>
              <LatitudeDegrees>38.1868771277368068695068359375</LatitudeDegrees>
              <LongitudeDegrees>-1.891377456486225128173828125</LongitudeDegrees>
            </Position>
            <AltitudeMeters>661.79998779296875</AltitudeMeters>
            <DistanceMeters>29110.708601559</DistanceMeters>
          </Trackpoint>
          <Trackpoint>
            <Time>2021-08-28T06:32:03.000Z</Time>
            <Position>
              <LatitudeDegrees>38.186752237379550933837890625</LatitudeDegrees>
              <LongitudeDegrees>-1.89150025136768817901611328125</LongitudeDegrees>
            </Position>
            <AltitudeMeters>662.20001220703125</AltitudeMeters>
            <DistanceMeters>29128.27646861</DistanceMeters>
          </Trackpoint>
          <Trackpoint>
            <Time>2021-08-28T06:32:05.000Z</Time>
            <Position>
              <LatitudeDegrees>38.1866726092994213104248046875</LatitudeDegrees>
              <LongitudeDegrees>-1.89156428910791873931884765625</LongitudeDegrees>
            </Position>
            <AltitudeMeters>662.5999755859375</AltitudeMeters>
            <DistanceMeters>29138.762183215</DistanceMeters>
          </Trackpoint>
          <Trackpoint>
            <Time>2021-08-28T06:32:08.000Z</Time>
            <Position>
              <LatitudeDegrees>38.18655073642730712890625</LatitudeDegrees>
              <LongitudeDegrees>-1.89168314449489116668701171875</LongitudeDegrees>
            </Position>
            <AltitudeMeters>663.20001220703125</AltitudeMeters>
            <DistanceMeters>29155.853788551</DistanceMeters>
          </Trackpoint>
          <Trackpoint>
            <Time>2021-08-28T06:32:09.000Z</Time>
            <Position>
              <LatitudeDegrees>38.18650840781629085540771484375</LatitudeDegrees>
              <LongitudeDegrees>-1.89172245562076568603515625</LongitudeDegrees>
            </Position>
            <AltitudeMeters>663.4000244140625</AltitudeMeters>
            <DistanceMeters>29161.686911903</DistanceMeters>
          </Trackpoint>
          <Trackpoint>
            <Time>2021-08-28T06:32:10.000Z</Time>
            <Position>
              <LatitudeDegrees>38.186467923223972320556640625</LatitudeDegrees>
              <LongitudeDegrees>-1.89175807870924472808837890625</LongitudeDegrees>
            </Position>
            <AltitudeMeters>663.4000244140625</AltitudeMeters>
            <DistanceMeters>29167.165595513</DistanceMeters>
          </Trackpoint>
          <Trackpoint>
            <Time>2021-08-28T06:32:11.000Z</Time>
            <Position>
              <LatitudeDegrees>38.18642643280327320098876953125</LatitudeDegrees>
              <LongitudeDegrees>-1.89179487526416778564453125</LongitudeDegrees>
            </Position>
            <AltitudeMeters>663.4000244140625</AltitudeMeters>
            <DistanceMeters>29172.793873062</DistanceMeters>
          </Trackpoint>
          <Trackpoint>
            <Time>2021-08-28T06:32:17.000Z</Time>
            <Position>
              <LatitudeDegrees>38.18619660101830959320068359375</LatitudeDegrees>
              <LongitudeDegrees>-1.8919667042791843414306640625</LongitudeDegrees>
            </Position>
            <AltitudeMeters>664.5999755859375</AltitudeMeters>
            <DistanceMeters>29202.464433429</DistanceMeters>
          </Trackpoint>
          <Trackpoint>
            <Time>2021-08-28T06:32:18.000Z</Time>
            <Position>
              <LatitudeDegrees>38.18615854717791080474853515625</LatitudeDegrees>
              <LongitudeDegrees>-1.89199713058769702911376953125</LongitudeDegrees>
            </Position>
            <AltitudeMeters>664.79998779296875</AltitudeMeters>
            <DistanceMeters>29207.467569636</DistanceMeters>
          </Trackpoint>
          <Trackpoint>
            <Time>2021-08-28T06:32:20.000Z</Time>
            <Position>
              <LatitudeDegrees>38.1860714592039585113525390625</LatitudeDegrees>
              <LongitudeDegrees>-1.892068795859813690185546875</LongitudeDegrees>
            </Position>
            <AltitudeMeters>665.20001220703125</AltitudeMeters>
            <DistanceMeters>29219.011653322</DistanceMeters>
          </Trackpoint>
          <Trackpoint>
            <Time>2021-08-28T06:32:23.000Z</Time>
            <Position>
              <LatitudeDegrees>38.1859524361789226531982421875</LatitudeDegrees>
              <LongitudeDegrees>-1.89217801205813884735107421875</LongitudeDegrees>
            </Position>
            <AltitudeMeters>665.5999755859375</AltitudeMeters>
            <DistanceMeters>29235.345471264</DistanceMeters>
          </Trackpoint>
          <Trackpoint>
            <Time>2021-08-28T06:32:26.000Z</Time>
            <Position>
              <LatitudeDegrees>38.18583785556256771087646484375</LatitudeDegrees>
              <LongitudeDegrees>-1.89227239228785037994384765625</LongitudeDegrees>
            </Position>
            <AltitudeMeters>665.79998779296875</AltitudeMeters>
            <DistanceMeters>29250.538159768</DistanceMeters>
          </Trackpoint>
          <Trackpoint>
            <Time>2021-08-28T06:32:28.000Z</Time>
            <Position>
              <LatitudeDegrees>38.185771219432353973388671875</LatitudeDegrees>
              <LongitudeDegrees>-1.8923267908394336700439453125</LongitudeDegrees>
            </Position>
            <AltitudeMeters>666</AltitudeMeters>
            <DistanceMeters>29259.349549968</DistanceMeters>
          </Trackpoint>
          <Trackpoint>
            <Time>2021-08-28T06:32:30.000Z</Time>
            <Position>
              <LatitudeDegrees>38.1857070140540599822998046875</LatitudeDegrees>
              <LongitudeDegrees>-1.8923780880868434906005859375</LongitudeDegrees>
            </Position>
            <AltitudeMeters>666.4000244140625</AltitudeMeters>
            <DistanceMeters>29267.787686774</DistanceMeters>
          </Trackpoint>
          <Trackpoint>
            <Time>2021-08-28T06:32:32.000Z</Time>
            <Position>
              <LatitudeDegrees>38.18564440123736858367919921875</LatitudeDegrees>
              <LongitudeDegrees>-1.892426200211048126220703125</LongitudeDegrees>
            </Position>
            <AltitudeMeters>666.5999755859375</AltitudeMeters>
            <DistanceMeters>29275.929541058</DistanceMeters>
          </Trackpoint>
          <Trackpoint>
            <Time>2021-08-28T06:32:34.000Z</Time>
            <Position>
              <LatitudeDegrees>38.1855784356594085693359375</LatitudeDegrees>
              <LongitudeDegrees>-1.89248831011354923248291015625</LongitudeDegrees>
            </Position>
            <AltitudeMeters>666.79998779296875</AltitudeMeters>
            <DistanceMeters>29285.063481953</DistanceMeters>
          </Trackpoint>
          <Trackpoint>
            <Time>2021-08-28T06:32:37.000Z</Time>
            <Position>
              <LatitudeDegrees>38.1854689680039882659912109375</LatitudeDegrees>
              <LongitudeDegrees>-1.89258277416229248046875</LongitudeDegrees>
            </Position>
            <AltitudeMeters>667.79998779296875</AltitudeMeters>
            <DistanceMeters>29299.785570623</DistanceMeters>
          </Trackpoint>
          <Trackpoint>
            <Time>2021-08-28T06:32:40.000Z</Time>
            <Position>
              <LatitudeDegrees>38.18536528386175632476806640625</LatitudeDegrees>
              <LongitudeDegrees>-1.892679668962955474853515625</LongitudeDegrees>
            </Position>
            <AltitudeMeters>668.20001220703125</AltitudeMeters>
            <DistanceMeters>29314.104680781</DistanceMeters>
          </Trackpoint>
          <Trackpoint>
            <Time>2021-08-28T06:32:43.000Z</Time>
            <Position>
              <LatitudeDegrees>38.1852577440440654754638671875</LatitudeDegrees>
              <LongitudeDegrees>-1.89278352074325084686279296875</LongitudeDegrees>
            </Position>
            <AltitudeMeters>668.79998779296875</AltitudeMeters>
            <DistanceMeters>29329.131526477</DistanceMeters>
          </Trackpoint>
          <Trackpoint>
            <Time>2021-08-28T06:32:49.000Z</Time>
            <Position>
              <LatitudeDegrees>38.18504400551319122314453125</LatitudeDegrees>
              <LongitudeDegrees>-1.8929530866444110870361328125</LongitudeDegrees>
            </Position>
            <AltitudeMeters>668.79998779296875</AltitudeMeters>
            <DistanceMeters>29357.167306186</DistanceMeters>
          </Trackpoint>
          <Trackpoint>
            <Time>2021-08-28T06:32:50.000Z</Time>
            <Position>
              <LatitudeDegrees>38.18500301800668239593505859375</LatitudeDegrees>
              <LongitudeDegrees>-1.892982758581638336181640625</LongitudeDegrees>
            </Position>
            <AltitudeMeters>668.5999755859375</AltitudeMeters>
            <DistanceMeters>29362.41618828</DistanceMeters>
          </Trackpoint>
          <Trackpoint>
            <Time>2021-08-28T06:32:55.000Z</Time>
            <Position>
              <LatitudeDegrees>38.1848165206611156463623046875</LatitudeDegrees>
              <LongitudeDegrees>-1.893155090510845184326171875</LongitudeDegrees>
            </Position>
            <AltitudeMeters>668.5999755859375</AltitudeMeters>
            <DistanceMeters>29388.071289368</DistanceMeters>
          </Trackpoint>
          <Trackpoint>
            <Time>2021-08-28T06:32:56.000Z</Time>
            <Position>
              <LatitudeDegrees>38.18477846682071685791015625</LatitudeDegrees>
              <LongitudeDegrees>-1.89319054596126079559326171875</LongitudeDegrees>
            </Position>
            <AltitudeMeters>668.5999755859375</AltitudeMeters>
            <DistanceMeters>29393.321031581</DistanceMeters>
          </Trackpoint>
          <Trackpoint>
            <Time>2021-08-28T06:32:59.000Z</Time>
            <Position>
              <LatitudeDegrees>38.1846678256988525390625</LatitudeDegrees>
              <LongitudeDegrees>-1.89331711269915103912353515625</LongitudeDegrees>
            </Position>
            <AltitudeMeters>668.5999755859375</AltitudeMeters>
            <DistanceMeters>29409.881600765</DistanceMeters>
          </Trackpoint>
          <Trackpoint>
            <Time>2021-08-28T06:33:00.000Z</Time>
            <Position>
              <LatitudeDegrees>38.184627592563629150390625</LatitudeDegrees>
              <LongitudeDegrees>-1.89336187206208705902099609375</LongitudeDegrees>
            </Position>
            <AltitudeMeters>668.4000244140625</AltitudeMeters>
            <DistanceMeters>29415.829696217</DistanceMeters>
          </Trackpoint>
          <Trackpoint>
            <Time>2021-08-28T06:33:03.000Z</Time>
            <Position>
              <LatitudeDegrees>38.1845107488334178924560546875</LatitudeDegrees>
              <LongitudeDegrees>-1.8934665620326995849609375</LongitudeDegrees>
            </Position>
            <AltitudeMeters>668.4000244140625</AltitudeMeters>
            <DistanceMeters>29431.736384809</DistanceMeters>
          </Trackpoint>
          <Trackpoint>
            <Time>2021-08-28T06:33:06.000Z</Time>
            <Position>
              <LatitudeDegrees>38.184393905103206634521484375</LatitudeDegrees>
              <LongitudeDegrees>-1.8935649655759334564208984375</LongitudeDegrees>
            </Position>
            <AltitudeMeters>668.4000244140625</AltitudeMeters>
            <DistanceMeters>29447.332350284</DistanceMeters>
          </Trackpoint>
          <Trackpoint>
            <Time>2021-08-28T06:33:10.000Z</Time>
            <Position>
              <LatitudeDegrees>38.184236995875835418701171875</LatitudeDegrees>
              <LongitudeDegrees>-1.89370050095021724700927734375</LongitudeDegrees>
            </Position>
            <AltitudeMeters>668.4000244140625</AltitudeMeters>
            <DistanceMeters>29468.441546199</DistanceMeters>
          </Trackpoint>
          <Trackpoint>
            <Time>2021-08-28T06:33:19.000Z</Time>
            <Position>
              <LatitudeDegrees>38.1839008815586566925048828125</LatitudeDegrees>
              <LongitudeDegrees>-1.89399671740829944610595703125</LongitudeDegrees>
            </Position>
            <AltitudeMeters>669.4000244140625</AltitudeMeters>
            <DistanceMeters>29513.950910212</DistanceMeters>
          </Trackpoint>
          <Trackpoint>
            <Time>2021-08-28T06:33:20.000Z</Time>
            <Position>
              <LatitudeDegrees>38.18386291153728961944580078125</LatitudeDegrees>
              <LongitudeDegrees>-1.89403141848742961883544921875</LongitudeDegrees>
            </Position>
            <AltitudeMeters>669.5999755859375</AltitudeMeters>
            <DistanceMeters>29519.154870172</DistanceMeters>
          </Trackpoint>
          <Trackpoint>
            <Time>2021-08-28T06:33:27.000Z</Time>
            <Position>
              <LatitudeDegrees>38.18359158933162689208984375</LatitudeDegrees>
              <LongitudeDegrees>-1.89426527358591556549072265625</LongitudeDegrees>
            </Position>
            <AltitudeMeters>669.5999755859375</AltitudeMeters>
            <DistanceMeters>29555.631515353</DistanceMeters>
          </Trackpoint>
          <Trackpoint>
            <Time>2021-08-28T06:33:30.000Z</Time>
            <Position>
              <LatitudeDegrees>38.18346016108989715576171875</LatitudeDegrees>
              <LongitudeDegrees>-1.89437256194651126861572265625</LongitudeDegrees>
            </Position>
            <AltitudeMeters>669.5999755859375</AltitudeMeters>
            <DistanceMeters>29573.01205468</DistanceMeters>
          </Trackpoint>
          <Trackpoint>
            <Time>2021-08-28T06:33:33.000Z</Time>
            <Position>
              <LatitudeDegrees>38.1833272241055965423583984375</LatitudeDegrees>
              <LongitudeDegrees>-1.89449988305568695068359375</LongitudeDegrees>
            </Position>
            <AltitudeMeters>670</AltitudeMeters>
            <DistanceMeters>29591.5322713</DistanceMeters>
          </Trackpoint>
          <Trackpoint>
            <Time>2021-08-28T06:33:34.000Z</Time>
            <Position>
              <LatitudeDegrees>38.1832799501717090606689453125</LatitudeDegrees>
              <LongitudeDegrees>-1.8945433013141155242919921875</LongitudeDegrees>
            </Position>
            <AltitudeMeters>670.20001220703125</AltitudeMeters>
            <DistanceMeters>29598.021976727</DistanceMeters>
          </Trackpoint>
          <Trackpoint>
            <Time>2021-08-28T06:33:38.000Z</Time>
            <Position>
              <LatitudeDegrees>38.18310166709125041961669921875</LatitudeDegrees>
              <LongitudeDegrees>-1.89469861797988414764404296875</LongitudeDegrees>
            </Position>
            <AltitudeMeters>671</AltitudeMeters>
            <DistanceMeters>29622.0718095</DistanceMeters>
          </Trackpoint>
          <Trackpoint>
            <Time>2021-08-28T06:33:39.000Z</Time>
            <Position>
              <LatitudeDegrees>38.18305858410894870758056640625</LatitudeDegrees>
              <LongitudeDegrees>-1.89473725855350494384765625</LongitudeDegrees>
            </Position>
            <AltitudeMeters>671</AltitudeMeters>
            <DistanceMeters>29627.938891517</DistanceMeters>
          </Trackpoint>
          <Trackpoint>
            <Time>2021-08-28T06:33:40.000Z</Time>
            <Position>
              <LatitudeDegrees>38.183015249669551849365234375</LatitudeDegrees>
              <LongitudeDegrees>-1.89477908425033092498779296875</LongitudeDegrees>
            </Position>
            <AltitudeMeters>671.20001220703125</AltitudeMeters>
            <DistanceMeters>29633.99381599</DistanceMeters>
          </Trackpoint>
          <Trackpoint>
            <Time>2021-08-28T06:33:43.000Z</Time>
            <Position>
              <LatitudeDegrees>38.18289111368358135223388671875</LatitudeDegrees>
              <LongitudeDegrees>-1.8949007056653499603271484375</LongitudeDegrees>
            </Position>
            <AltitudeMeters>671.79998779296875</AltitudeMeters>
            <DistanceMeters>29651.432706851</DistanceMeters>
          </Trackpoint>
          <Trackpoint>
            <Time>2021-08-28T06:33:46.000Z</Time>
            <Position>
              <LatitudeDegrees>38.18277217447757720947265625</LatitudeDegrees>
              <LongitudeDegrees>-1.895016543567180633544921875</LongitudeDegrees>
            </Position>
            <AltitudeMeters>672.20001220703125</AltitudeMeters>
            <DistanceMeters>29668.104682829</DistanceMeters>
          </Trackpoint>
          <Trackpoint>
            <Time>2021-08-28T06:33:50.000Z</Time>
            <Position>
              <LatitudeDegrees>38.1826073862612247467041015625</LatitudeDegrees>
              <LongitudeDegrees>-1.89516046084463596343994140625</LongitudeDegrees>
            </Position>
            <AltitudeMeters>673</AltitudeMeters>
            <DistanceMeters>29690.351895911</DistanceMeters>
          </Trackpoint>
          <Trackpoint>
            <Time>2021-08-28T06:33:51.000Z</Time>
            <Position>
              <LatitudeDegrees>38.18256019614636898040771484375</LatitudeDegrees>
              <LongitudeDegrees>-1.8951997719705104827880859375</LongitudeDegrees>
            </Position>
            <AltitudeMeters>673.20001220703125</AltitudeMeters>
            <DistanceMeters>29696.63013481</DistanceMeters>
          </Trackpoint>
          <Trackpoint>
            <Time>2021-08-28T06:33:54.000Z</Time>
            <Position>
              <LatitudeDegrees>38.18243279121816158294677734375</LatitudeDegrees>
              <LongitudeDegrees>-1.895308233797550201416015625</LongitudeDegrees>
            </Position>
            <AltitudeMeters>673.20001220703125</AltitudeMeters>
            <DistanceMeters>29713.692657032</DistanceMeters>
          </Trackpoint>
          <Trackpoint>
            <Time>2021-08-28T06:33:57.000Z</Time>
            <Position>
              <LatitudeDegrees>38.18231158889830112457275390625</LatitudeDegrees>
              <LongitudeDegrees>-1.89541577361524105072021484375</LongitudeDegrees>
            </Position>
            <AltitudeMeters>673.20001220703125</AltitudeMeters>
            <DistanceMeters>29730.139692325</DistanceMeters>
          </Trackpoint>
          <Trackpoint>
            <Time>2021-08-28T06:34:00.000Z</Time>
            <Position>
              <LatitudeDegrees>38.182187788188457489013671875</LatitudeDegrees>
              <LongitudeDegrees>-1.89553965814411640167236328125</LongitudeDegrees>
            </Position>
            <AltitudeMeters>673.4000244140625</AltitudeMeters>
            <DistanceMeters>29747.670769068</DistanceMeters>
          </Trackpoint>
          <Trackpoint>
            <Time>2021-08-28T06:34:03.000Z</Time>
            <Position>
              <LatitudeDegrees>38.18206214345991611480712890625</LatitudeDegrees>
              <LongitudeDegrees>-1.8956767022609710693359375</LongitudeDegrees>
            </Position>
            <AltitudeMeters>674</AltitudeMeters>
            <DistanceMeters>29766.091741155</DistanceMeters>
          </Trackpoint>
          <Trackpoint>
            <Time>2021-08-28T06:34:04.000Z</Time>
            <Position>
              <LatitudeDegrees>38.18202660419046878814697265625</LatitudeDegrees>
              <LongitudeDegrees>-1.89572255127131938934326171875</LongitudeDegrees>
            </Position>
            <AltitudeMeters>674.20001220703125</AltitudeMeters>
            <DistanceMeters>29771.724829883</DistanceMeters>
          </Trackpoint>
          <Trackpoint>
            <Time>2021-08-28T06:34:05.000Z</Time>
            <Position>
              <LatitudeDegrees>38.18199609406292438507080078125</LatitudeDegrees>
              <LongitudeDegrees>-1.895771920680999755859375</LongitudeDegrees>
            </Position>
            <AltitudeMeters>674.20001220703125</AltitudeMeters>
            <DistanceMeters>29777.218327447</DistanceMeters>
          </Trackpoint>
          <Trackpoint>
            <Time>2021-08-28T06:34:06.000Z</Time>
            <Position>
              <LatitudeDegrees>38.18196709267795085906982421875</LatitudeDegrees>
              <LongitudeDegrees>-1.8958287499845027923583984375</LongitudeDegrees>
            </Position>
            <AltitudeMeters>674.20001220703125</AltitudeMeters>
            <DistanceMeters>29783.146654151</DistanceMeters>
          </Trackpoint>
          <Trackpoint>
            <Time>2021-08-28T06:34:08.000Z</Time>
            <Position>
              <LatitudeDegrees>38.18191546015441417694091796875</LatitudeDegrees>
              <LongitudeDegrees>-1.89595229923725128173828125</LongitudeDegrees>
            </Position>
            <AltitudeMeters>674.79998779296875</AltitudeMeters>
            <DistanceMeters>29795.388514658</DistanceMeters>
          </Trackpoint>
          <Trackpoint>
            <Time>2021-08-28T06:34:10.000Z</Time>
            <Position>
              <LatitudeDegrees>38.18187321536242961883544921875</LatitudeDegrees>
              <LongitudeDegrees>-1.896074675023555755615234375</LongitudeDegrees>
            </Position>
            <AltitudeMeters>675.20001220703125</AltitudeMeters>
            <DistanceMeters>29807.081821184</DistanceMeters>
          </Trackpoint>
          <Trackpoint>
            <Time>2021-08-28T06:34:11.000Z</Time>
            <Position>
              <LatitudeDegrees>38.18185309879481792449951171875</LatitudeDegrees>
              <LongitudeDegrees>-1.89613594673573970794677734375</LongitudeDegrees>
            </Position>
            <AltitudeMeters>675.4000244140625</AltitudeMeters>
            <DistanceMeters>29812.891677099</DistanceMeters>
          </Trackpoint>
          <Trackpoint>
            <Time>2021-08-28T06:34:16.000Z</Time>
            <Position>
              <LatitudeDegrees>38.18176559172570705413818359375</LatitudeDegrees>
              <LongitudeDegrees>-1.89644037745893001556396484375</LongitudeDegrees>
            </Position>
            <AltitudeMeters>676.79998779296875</AltitudeMeters>
            <DistanceMeters>29841.25106229</DistanceMeters>
          </Trackpoint>
          <Trackpoint>
            <Time>2021-08-28T06:34:20.000Z</Time>
            <Position>
              <LatitudeDegrees>38.1817021407186985015869140625</LatitudeDegrees>
              <LongitudeDegrees>-1.89668278209865093231201171875</LongitudeDegrees>
            </Position>
            <AltitudeMeters>677.79998779296875</AltitudeMeters>
            <DistanceMeters>29863.603559458</DistanceMeters>
          </Trackpoint>
          <Trackpoint>
            <Time>2021-08-28T06:34:21.000Z</Time>
            <Position>
              <LatitudeDegrees>38.18168512545526027679443359375</LatitudeDegrees>
              <LongitudeDegrees>-1.89674355089664459228515625</LongitudeDegrees>
            </Position>
            <AltitudeMeters>677.79998779296875</AltitudeMeters>
            <DistanceMeters>29869.247858324</DistanceMeters>
          </Trackpoint>
          <Trackpoint>
            <Time>2021-08-28T06:34:25.000Z</Time>
            <Position>
              <LatitudeDegrees>38.181615136563777923583984375</LatitudeDegrees>
              <LongitudeDegrees>-1.89698821865022182464599609375</LongitudeDegrees>
            </Position>
            <AltitudeMeters>678.5999755859375</AltitudeMeters>
            <DistanceMeters>29892.027131418</DistanceMeters>
          </Trackpoint>
          <Trackpoint>
            <Time>2021-08-28T06:34:27.000Z</Time>
            <Position>
              <LatitudeDegrees>38.181578256189823150634765625</LatitudeDegrees>
              <LongitudeDegrees>-1.8971081636846065521240234375</LongitudeDegrees>
            </Position>
            <AltitudeMeters>679</AltitudeMeters>
            <DistanceMeters>29903.294911803</DistanceMeters>
          </Trackpoint>
          <Trackpoint>
            <Time>2021-08-28T06:34:30.000Z</Time>
            <Position>
              <LatitudeDegrees>38.181522600352764129638671875</LatitudeDegrees>
              <LongitudeDegrees>-1.89728795550763607025146484375</LongitudeDegrees>
            </Position>
            <AltitudeMeters>679.20001220703125</AltitudeMeters>
            <DistanceMeters>29920.20058894</DistanceMeters>
          </Trackpoint>
          <Trackpoint>
            <Time>2021-08-28T06:34:32.000Z</Time>
            <Position>
              <LatitudeDegrees>38.1814922578632831573486328125</LatitudeDegrees>
              <LongitudeDegrees>-1.89741075038909912109375</LongitudeDegrees>
            </Position>
            <AltitudeMeters>679.5999755859375</AltitudeMeters>
            <DistanceMeters>29931.461956245</DistanceMeters>
          </Trackpoint>
          <Trackpoint>
            <Time>2021-08-28T06:34:36.000Z</Time>
            <Position>
              <LatitudeDegrees>38.18142570555210113525390625</LatitudeDegrees>
              <LongitudeDegrees>-1.8976446054875850677490234375</LongitudeDegrees>
            </Position>
            <AltitudeMeters>680.4000244140625</AltitudeMeters>
            <DistanceMeters>29953.221621414</DistanceMeters>
          </Trackpoint>
          <Trackpoint>
            <Time>2021-08-28T06:34:40.000Z</Time>
            <Position>
              <LatitudeDegrees>38.181375078856945037841796875</LatitudeDegrees>
              <LongitudeDegrees>-1.8978900276124477386474609375</LongitudeDegrees>
            </Position>
            <AltitudeMeters>681.20001220703125</AltitudeMeters>
            <DistanceMeters>29975.420683596</DistanceMeters>
          </Trackpoint>
          <Trackpoint>
            <Time>2021-08-28T06:34:42.000Z</Time>
            <Position>
              <LatitudeDegrees>38.1813571415841579437255859375</LatitudeDegrees>
              <LongitudeDegrees>-1.89801617525517940521240234375</LongitudeDegrees>
            </Position>
            <AltitudeMeters>681.5999755859375</AltitudeMeters>
            <DistanceMeters>29986.636251565</DistanceMeters>
          </Trackpoint>
          <Trackpoint>
            <Time>2021-08-28T06:34:48.000Z</Time>
            <Position>
              <LatitudeDegrees>38.18131313659250736236572265625</LatitudeDegrees>
              <LongitudeDegrees>-1.8984026648104190826416015625</LongitudeDegrees>
            </Position>
            <AltitudeMeters>682.5999755859375</AltitudeMeters>
            <DistanceMeters>30020.803079957</DistanceMeters>
          </Trackpoint>
          <Trackpoint>
            <Time>2021-08-28T06:34:50.000Z</Time>
            <Position>
              <LatitudeDegrees>38.18130207248032093048095703125</LatitudeDegrees>
              <LongitudeDegrees>-1.8985347636044025421142578125</LongitudeDegrees>
            </Position>
            <AltitudeMeters>682.79998779296875</AltitudeMeters>
            <DistanceMeters>30032.425899908</DistanceMeters>
          </Trackpoint>
          <Trackpoint>
            <Time>2021-08-28T06:34:54.000Z</Time>
            <Position>
              <LatitudeDegrees>38.1812949478626251220703125</LatitudeDegrees>
              <LongitudeDegrees>-1.89879854209721088409423828125</LongitudeDegrees>
            </Position>
            <AltitudeMeters>683.5999755859375</AltitudeMeters>
            <DistanceMeters>30055.517587027</DistanceMeters>
          </Trackpoint>
          <Trackpoint>
            <Time>2021-08-28T06:34:58.000Z</Time>
            <Position>
              <LatitudeDegrees>38.18128966726362705230712890625</LatitudeDegrees>
              <LongitudeDegrees>-1.89906424842774868011474609375</LongitudeDegrees>
            </Position>
            <AltitudeMeters>684.4000244140625</AltitudeMeters>
            <DistanceMeters>30078.771383225</DistanceMeters>
          </Trackpoint>
          <Trackpoint>
            <Time>2021-08-28T06:35:00.000Z</Time>
            <Position>
              <LatitudeDegrees>38.18128162063658237457275390625</LatitudeDegrees>
              <LongitudeDegrees>-1.89920456148684024810791015625</LongitudeDegrees>
            </Position>
            <AltitudeMeters>684.5999755859375</AltitudeMeters>
            <DistanceMeters>30091.080185871</DistanceMeters>
          </Trackpoint>
          <Trackpoint>
            <Time>2021-08-28T06:35:03.000Z</Time>
            <Position>
              <LatitudeDegrees>38.18127307109534740447998046875</LatitudeDegrees>
              <LongitudeDegrees>-1.89942886121571063995361328125</LongitudeDegrees>
            </Position>
            <AltitudeMeters>684.79998779296875</AltitudeMeters>
            <DistanceMeters>30110.727059609</DistanceMeters>
          </Trackpoint>
          <Trackpoint>
            <Time>2021-08-28T06:35:06.000Z</Time>
            <Position>
              <LatitudeDegrees>38.181263096630573272705078125</LatitudeDegrees>
              <LongitudeDegrees>-1.89966472797095775604248046875</LongitudeDegrees>
            </Position>
            <AltitudeMeters>685</AltitudeMeters>
            <DistanceMeters>30131.392693771</DistanceMeters>
          </Trackpoint>
          <Trackpoint>
            <Time>2021-08-28T06:35:10.000Z</Time>
            <Position>
              <LatitudeDegrees>38.18125270307064056396484375</LatitudeDegrees>
              <LongitudeDegrees>-1.89998525194823741912841796875</LongitudeDegrees>
            </Position>
            <AltitudeMeters>685.20001220703125</AltitudeMeters>
            <DistanceMeters>30159.45921633</DistanceMeters>
          </Trackpoint>
          <Trackpoint>
            <Time>2021-08-28T06:35:16.000Z</Time>
            <Position>
              <LatitudeDegrees>38.18125949241220951080322265625</LatitudeDegrees>
              <LongitudeDegrees>-1.900476850569248199462890625</LongitudeDegrees>
            </Position>
            <AltitudeMeters>685.4000244140625</AltitudeMeters>
            <DistanceMeters>30202.475785286</DistanceMeters>
          </Trackpoint>
          <Trackpoint>
            <Time>2021-08-28T06:35:20.000Z</Time>
            <Position>
              <LatitudeDegrees>38.18132269196212291717529296875</LatitudeDegrees>
              <LongitudeDegrees>-1.90078404732048511505126953125</LongitudeDegrees>
            </Position>
            <AltitudeMeters>685.20001220703125</AltitudeMeters>
            <DistanceMeters>30230.257735433</DistanceMeters>
          </Trackpoint>
          <Trackpoint>
            <Time>2021-08-28T06:35:21.000Z</Time>
            <Position>
              <LatitudeDegrees>38.18134934641420841217041015625</LatitudeDegrees>
              <LongitudeDegrees>-1.9008560478687286376953125</LongitudeDegrees>
            </Position>
            <AltitudeMeters>685.4000244140625</AltitudeMeters>
            <DistanceMeters>30237.220023157</DistanceMeters>
          </Trackpoint>
          <Trackpoint>
            <Time>2021-08-28T06:35:23.000Z</Time>
            <Position>
              <LatitudeDegrees>38.18141003139317035675048828125</LatitudeDegrees>
              <LongitudeDegrees>-1.9009933434426784515380859375</LongitudeDegrees>
            </Position>
            <AltitudeMeters>685.79998779296875</AltitudeMeters>
            <DistanceMeters>30251.000535035</DistanceMeters>
          </Trackpoint>
          <Trackpoint>
            <Time>2021-08-28T06:35:27.000Z</Time>
            <Position>
              <LatitudeDegrees>38.18154481239616870880126953125</LatitudeDegrees>
              <LongitudeDegrees>-1.90124538727104663848876953125</LongitudeDegrees>
            </Position>
            <AltitudeMeters>686.79998779296875</AltitudeMeters>
            <DistanceMeters>30277.670726663</DistanceMeters>
          </Trackpoint>
          <Trackpoint>
            <Time>2021-08-28T06:35:30.000Z</Time>
            <Position>
              <LatitudeDegrees>38.1816484965384006500244140625</LatitudeDegrees>
              <LongitudeDegrees>-1.90141059458255767822265625</LongitudeDegrees>
            </Position>
            <AltitudeMeters>687</AltitudeMeters>
            <DistanceMeters>30296.166304132</DistanceMeters>
          </Trackpoint>
          <Trackpoint>
            <Time>2021-08-28T06:35:33.000Z</Time>
            <Position>
              <LatitudeDegrees>38.1817621551454067230224609375</LatitudeDegrees>
              <LongitudeDegrees>-1.9015529192984104156494140625</LongitudeDegrees>
            </Position>
            <AltitudeMeters>687.4000244140625</AltitudeMeters>
            <DistanceMeters>30313.91647025</DistanceMeters>
          </Trackpoint>
          <Trackpoint>
            <Time>2021-08-28T06:35:36.000Z</Time>
            <Position>
              <LatitudeDegrees>38.18187958560883998870849609375</LatitudeDegrees>
              <LongitudeDegrees>-1.90168191678822040557861328125</LongitudeDegrees>
            </Position>
            <AltitudeMeters>688.20001220703125</AltitudeMeters>
            <DistanceMeters>30331.184944833</DistanceMeters>
          </Trackpoint>
          <Trackpoint>
            <Time>2021-08-28T06:35:39.000Z</Time>
            <Position>
              <LatitudeDegrees>38.18198519758880138397216796875</LatitudeDegrees>
              <LongitudeDegrees>-1.9018298573791980743408203125</LongitudeDegrees>
            </Position>
            <AltitudeMeters>688.5999755859375</AltitudeMeters>
            <DistanceMeters>30348.669343819</DistanceMeters>
          </Trackpoint>
          <Trackpoint>
            <Time>2021-08-28T06:35:40.000Z</Time>
            <Position>
              <LatitudeDegrees>38.182016126811504364013671875</LatitudeDegrees>
              <LongitudeDegrees>-1.9018900394439697265625</LongitudeDegrees>
            </Position>
            <AltitudeMeters>688.79998779296875</AltitudeMeters>
            <DistanceMeters>30354.959796504</DistanceMeters>
          </Trackpoint>
          <Trackpoint>
            <Time>2021-08-28T06:35:41.000Z</Time>
            <Position>
              <LatitudeDegrees>38.1820434518158435821533203125</LatitudeDegrees>
              <LongitudeDegrees>-1.90195533446967601776123046875</LongitudeDegrees>
            </Position>
            <AltitudeMeters>689</AltitudeMeters>
            <DistanceMeters>30361.43138785</DistanceMeters>
          </Trackpoint>
          <Trackpoint>
            <Time>2021-08-28T06:35:44.000Z</Time>
            <Position>
              <LatitudeDegrees>38.182114697992801666259765625</LatitudeDegrees>
              <LongitudeDegrees>-1.9021621160209178924560546875</LongitudeDegrees>
            </Position>
            <AltitudeMeters>689.20001220703125</AltitudeMeters>
            <DistanceMeters>30381.18391966</DistanceMeters>
          </Trackpoint>
          <Trackpoint>
            <Time>2021-08-28T06:35:46.000Z</Time>
            <Position>
              <LatitudeDegrees>38.182148896157741546630859375</LatitudeDegrees>
              <LongitudeDegrees>-1.90230687148869037628173828125</LongitudeDegrees>
            </Position>
            <AltitudeMeters>689.4000244140625</AltitudeMeters>
            <DistanceMeters>30394.407664604</DistanceMeters>
          </Trackpoint>
          <Trackpoint>
            <Time>2021-08-28T06:35:50.000Z</Time>
            <Position>
              <LatitudeDegrees>38.18221695721149444580078125</LatitudeDegrees>
              <LongitudeDegrees>-1.90258649177849292755126953125</LongitudeDegrees>
            </Position>
            <AltitudeMeters>690.20001220703125</AltitudeMeters>
            <DistanceMeters>30420.017320051</DistanceMeters>
          </Trackpoint>
          <Trackpoint>
            <Time>2021-08-28T06:35:54.000Z</Time>
            <Position>
              <LatitudeDegrees>38.18231242708861827850341796875</LatitudeDegrees>
              <LongitudeDegrees>-1.9028511084616184234619140625</LongitudeDegrees>
            </Position>
            <AltitudeMeters>690.20001220703125</AltitudeMeters>
            <DistanceMeters>30445.490329356</DistanceMeters>
          </Trackpoint>
          <Trackpoint>
            <Time>2021-08-28T06:36:00.000Z</Time>
            <Position>
              <LatitudeDegrees>38.1824816577136516571044921875</LatitudeDegrees>
              <LongitudeDegrees>-1.9032185710966587066650390625</LongitudeDegrees>
            </Position>
            <AltitudeMeters>690.20001220703125</AltitudeMeters>
            <DistanceMeters>30482.750496731</DistanceMeters>
          </Trackpoint>
          <Trackpoint>
            <Time>2021-08-28T06:36:02.000Z</Time>
            <Position>
              <LatitudeDegrees>38.1825034506618976593017578125</LatitudeDegrees>
              <LongitudeDegrees>-1.903352849185466766357421875</LongitudeDegrees>
            </Position>
            <AltitudeMeters>690.4000244140625</AltitudeMeters>
            <DistanceMeters>30494.746466813</DistanceMeters>
          </Trackpoint>
          <Trackpoint>
            <Time>2021-08-28T06:36:04.000Z</Time>
            <Position>
              <LatitudeDegrees>38.18249045871198177337646484375</LatitudeDegrees>
              <LongitudeDegrees>-1.90348955802619457244873046875</LongitudeDegrees>
            </Position>
            <AltitudeMeters>690.4000244140625</AltitudeMeters>
            <DistanceMeters>30506.793890549</DistanceMeters>
          </Trackpoint>
          <Trackpoint>
            <Time>2021-08-28T06:36:10.000Z</Time>
            <Position>
              <LatitudeDegrees>38.182455338537693023681640625</LatitudeDegrees>
              <LongitudeDegrees>-1.9038569368422031402587890625</LongitudeDegrees>
            </Position>
            <AltitudeMeters>691.79998779296875</AltitudeMeters>
            <DistanceMeters>30539.1720734</DistanceMeters>
          </Trackpoint>
          <Trackpoint>
            <Time>2021-08-28T06:36:13.000Z</Time>
            <Position>
              <LatitudeDegrees>38.1824340485036373138427734375</LatitudeDegrees>
              <LongitudeDegrees>-1.904022060334682464599609375</LongitudeDegrees>
            </Position>
            <AltitudeMeters>692.5999755859375</AltitudeMeters>
            <DistanceMeters>30553.811123034</DistanceMeters>
          </Trackpoint>
          <Trackpoint>
            <Time>2021-08-28T06:36:14.000Z</Time>
            <Position>
              <LatitudeDegrees>38.1824322044849395751953125</LatitudeDegrees>
              <LongitudeDegrees>-1.9040772132575511932373046875</LongitudeDegrees>
            </Position>
            <AltitudeMeters>692.79998779296875</AltitudeMeters>
            <DistanceMeters>30558.639751967</DistanceMeters>
          </Trackpoint>
          <Trackpoint>
            <Time>2021-08-28T06:36:18.000Z</Time>
            <Position>
              <LatitudeDegrees>38.18241988308727741241455078125</LatitudeDegrees>
              <LongitudeDegrees>-1.9042865931987762451171875</LongitudeDegrees>
            </Position>
            <AltitudeMeters>693.79998779296875</AltitudeMeters>
            <DistanceMeters>30577.009671856</DistanceMeters>
          </Trackpoint>
          <Trackpoint>
            <Time>2021-08-28T06:36:19.000Z</Time>
            <Position>
              <LatitudeDegrees>38.18241518922150135040283203125</LatitudeDegrees>
              <LongitudeDegrees>-1.9043353758752346038818359375</LongitudeDegrees>
            </Position>
            <AltitudeMeters>694</AltitudeMeters>
            <DistanceMeters>30581.309040005</DistanceMeters>
          </Trackpoint>
          <Trackpoint>
            <Time>2021-08-28T06:36:20.000Z</Time>
            <Position>
              <LatitudeDegrees>38.182410411536693572998046875</LatitudeDegrees>
              <LongitudeDegrees>-1.904386840760707855224609375</LongitudeDegrees>
            </Position>
            <AltitudeMeters>694.4000244140625</AltitudeMeters>
            <DistanceMeters>30585.842521447</DistanceMeters>
          </Trackpoint>
          <Trackpoint>
            <Time>2021-08-28T06:36:22.000Z</Time>
            <Position>
              <LatitudeDegrees>38.18240161053836345672607421875</LatitudeDegrees>
              <LongitudeDegrees>-1.90449605695903301239013671875</LongitudeDegrees>
            </Position>
            <AltitudeMeters>695.5999755859375</AltitudeMeters>
            <DistanceMeters>30595.447743518</DistanceMeters>
          </Trackpoint>
          <Trackpoint>
            <Time>2021-08-28T06:36:23.000Z</Time>
            <Position>
              <LatitudeDegrees>38.182392977178096771240234375</LatitudeDegrees>
              <LongitudeDegrees>-1.904551796615123748779296875</LongitudeDegrees>
            </Position>
            <AltitudeMeters>696</AltitudeMeters>
            <DistanceMeters>30600.418285656</DistanceMeters>
          </Trackpoint>
          <Trackpoint>
            <Time>2021-08-28T06:36:25.000Z</Time>
            <Position>
              <LatitudeDegrees>38.182374201714992523193359375</LatitudeDegrees>
              <LongitudeDegrees>-1.90465950407087802886962890625</LongitudeDegrees>
            </Position>
            <AltitudeMeters>696.5999755859375</AltitudeMeters>
            <DistanceMeters>30610.070399346</DistanceMeters>
          </Trackpoint>
          <Trackpoint>
            <Time>2021-08-28T06:36:26.000Z</Time>
            <Position>
              <LatitudeDegrees>38.18236338905990123748779296875</LatitudeDegrees>
              <LongitudeDegrees>-1.9047135673463344573974609375</LongitudeDegrees>
            </Position>
            <AltitudeMeters>696.5999755859375</AltitudeMeters>
            <DistanceMeters>30614.951110529</DistanceMeters>
          </Trackpoint>
          <Trackpoint>
            <Time>2021-08-28T06:36:28.000Z</Time>
            <Position>
              <LatitudeDegrees>38.18233790807425975799560546875</LatitudeDegrees>
              <LongitudeDegrees>-1.9048203527927398681640625</LongitudeDegrees>
            </Position>
            <AltitudeMeters>697.20001220703125</AltitudeMeters>
            <DistanceMeters>30624.714382878</DistanceMeters>
          </Trackpoint>
          <Trackpoint>
            <Time>2021-08-28T06:36:30.000Z</Time>
            <Position>
              <LatitudeDegrees>38.18230035714805126190185546875</LatitudeDegrees>
              <LongitudeDegrees>-1.90491448156535625457763671875</LongitudeDegrees>
            </Position>
            <AltitudeMeters>697.4000244140625</AltitudeMeters>
            <DistanceMeters>30633.949102253</DistanceMeters>
          </Trackpoint>
          <Trackpoint>
            <Time>2021-08-28T06:36:31.000Z</Time>
            <Position>
              <LatitudeDegrees>38.18227370269596576690673828125</LatitudeDegrees>
              <LongitudeDegrees>-1.90495379269123077392578125</LongitudeDegrees>
            </Position>
            <AltitudeMeters>697.79998779296875</AltitudeMeters>
            <DistanceMeters>30638.49054416</DistanceMeters>
          </Trackpoint>
          <Trackpoint>
            <Time>2021-08-28T06:36:33.000Z</Time>
            <Position>
              <LatitudeDegrees>38.18221234716475009918212890625</LatitudeDegrees>
              <LongitudeDegrees>-1.905019842088222503662109375</LongitudeDegrees>
            </Position>
            <AltitudeMeters>698.20001220703125</AltitudeMeters>
            <DistanceMeters>30647.436692355</DistanceMeters>
          </Trackpoint>
          <Trackpoint>
            <Time>2021-08-28T06:36:36.000Z</Time>
            <Position>
              <LatitudeDegrees>38.1821101717650890350341796875</LatitudeDegrees>
              <LongitudeDegrees>-1.90509804524481296539306640625</LongitudeDegrees>
            </Position>
            <AltitudeMeters>698.79998779296875</AltitudeMeters>
            <DistanceMeters>30660.708492199</DistanceMeters>
          </Trackpoint>
          <Trackpoint>
            <Time>2021-08-28T06:36:37.000Z</Time>
            <Position>
              <LatitudeDegrees>38.1820736266672611236572265625</LatitudeDegrees>
              <LongitudeDegrees>-1.90511782653629779815673828125</LongitudeDegrees>
            </Position>
            <AltitudeMeters>699.20001220703125</AltitudeMeters>
            <DistanceMeters>30665.130043454</DistanceMeters>
          </Trackpoint>
          <Trackpoint>
            <Time>2021-08-28T06:36:40.000Z</Time>
            <Position>
              <LatitudeDegrees>38.18195183761417865753173828125</LatitudeDegrees>
              <LongitudeDegrees>-1.90514154732227325439453125</LongitudeDegrees>
            </Position>
            <AltitudeMeters>700</AltitudeMeters>
            <DistanceMeters>30678.84355402</DistanceMeters>
          </Trackpoint>
          <Trackpoint>
            <Time>2021-08-28T06:36:42.000Z</Time>
            <Position>
              <LatitudeDegrees>38.18186449818313121795654296875</LatitudeDegrees>
              <LongitudeDegrees>-1.90511514432728290557861328125</LongitudeDegrees>
            </Position>
            <AltitudeMeters>700.79998779296875</AltitudeMeters>
            <DistanceMeters>30688.835376935</DistanceMeters>
          </Trackpoint>
          <Trackpoint>
            <Time>2021-08-28T06:36:43.000Z</Time>
            <Position>
              <LatitudeDegrees>38.18182191811501979827880859375</LatitudeDegrees>
              <LongitudeDegrees>-1.90508530475199222564697265625</LongitudeDegrees>
            </Position>
            <AltitudeMeters>701.20001220703125</AltitudeMeters>
            <DistanceMeters>30694.246061534</DistanceMeters>
          </Trackpoint>
          <Trackpoint>
            <Time>2021-08-28T06:36:47.000Z</Time>
            <Position>
              <LatitudeDegrees>38.18170658312737941741943359375</LatitudeDegrees>
              <LongitudeDegrees>-1.90493308939039707183837890625</LongitudeDegrees>
            </Position>
            <AltitudeMeters>701.5999755859375</AltitudeMeters>
            <DistanceMeters>30712.742859535</DistanceMeters>
          </Trackpoint>
          <Trackpoint>
            <Time>2021-08-28T06:36:49.000Z</Time>
            <Position>
              <LatitudeDegrees>38.1816676072776317596435546875</LatitudeDegrees>
              <LongitudeDegrees>-1.90484248101711273193359375</LongitudeDegrees>
            </Position>
            <AltitudeMeters>702.5999755859375</AltitudeMeters>
            <DistanceMeters>30721.778895791</DistanceMeters>
          </Trackpoint>
          <Trackpoint>
            <Time>2021-08-28T06:36:50.000Z</Time>
            <Position>
              <LatitudeDegrees>38.181651346385478973388671875</LatitudeDegrees>
              <LongitudeDegrees>-1.90479814074933528900146484375</LongitudeDegrees>
            </Position>
            <AltitudeMeters>703</AltitudeMeters>
            <DistanceMeters>30726.058264322</DistanceMeters>
          </Trackpoint>
          <Trackpoint>
            <Time>2021-08-28T06:36:52.000Z</Time>
            <Position>
              <LatitudeDegrees>38.18162159062922000885009765625</LatitudeDegrees>
              <LongitudeDegrees>-1.90470560453832149505615234375</LongitudeDegrees>
            </Position>
            <AltitudeMeters>703.79998779296875</AltitudeMeters>
            <DistanceMeters>30734.805885015</DistanceMeters>
          </Trackpoint>
          <Trackpoint>
            <Time>2021-08-28T06:36:54.000Z</Time>
            <Position>
              <LatitudeDegrees>38.18159401416778564453125</LatitudeDegrees>
              <LongitudeDegrees>-1.9046136550605297088623046875</LongitudeDegrees>
            </Position>
            <AltitudeMeters>704.4000244140625</AltitudeMeters>
            <DistanceMeters>30743.416165359</DistanceMeters>
          </Trackpoint>
          <Trackpoint>
            <Time>2021-08-28T06:36:56.000Z</Time>
            <Position>
              <LatitudeDegrees>38.18156249821186065673828125</LatitudeDegrees>
              <LongitudeDegrees>-1.90452371723949909210205078125</LongitudeDegrees>
            </Position>
            <AltitudeMeters>705</AltitudeMeters>
            <DistanceMeters>30752.031687884</DistanceMeters>
          </Trackpoint>
          <Trackpoint>
            <Time>2021-08-28T06:36:59.000Z</Time>
            <Position>
              <LatitudeDegrees>38.18151530809700489044189453125</LatitudeDegrees>
              <LongitudeDegrees>-1.90438541583716869354248046875</LongitudeDegrees>
            </Position>
            <AltitudeMeters>706</AltitudeMeters>
            <DistanceMeters>30765.222272136</DistanceMeters>
          </Trackpoint>
          <Trackpoint>
            <Time>2021-08-28T06:37:00.000Z</Time>
            <Position>
              <LatitudeDegrees>38.181498460471630096435546875</LatitudeDegrees>
              <LongitudeDegrees>-1.9043402373790740966796875</LongitudeDegrees>
            </Position>
            <AltitudeMeters>706.20001220703125</AltitudeMeters>
            <DistanceMeters>30769.596598597</DistanceMeters>
          </Trackpoint>
          <Trackpoint>
            <Time>2021-08-28T06:37:03.000Z</Time>
            <Position>
              <LatitudeDegrees>38.181450180709362030029296875</LatitudeDegrees>
              <LongitudeDegrees>-1.9042046181857585906982421875</LongitudeDegrees>
            </Position>
            <AltitudeMeters>707.20001220703125</AltitudeMeters>
            <DistanceMeters>30782.621846242</DistanceMeters>
          </Trackpoint>
          <Trackpoint>
            <Time>2021-08-28T06:37:06.000Z</Time>
            <Position>
              <LatitudeDegrees>38.18139980547130107879638671875</LatitudeDegrees>
              <LongitudeDegrees>-1.90408349968492984771728515625</LongitudeDegrees>
            </Position>
            <AltitudeMeters>708.20001220703125</AltitudeMeters>
            <DistanceMeters>30794.610286369</DistanceMeters>
          </Trackpoint>
          <Trackpoint>
            <Time>2021-08-28T06:37:10.000Z</Time>
            <Position>
              <LatitudeDegrees>38.18133652210235595703125</LatitudeDegrees>
              <LongitudeDegrees>-1.9039189629256725311279296875</LongitudeDegrees>
            </Position>
            <AltitudeMeters>708.79998779296875</AltitudeMeters>
            <DistanceMeters>30810.636028291</DistanceMeters>
          </Trackpoint>
          <Trackpoint>
            <Time>2021-08-28T06:37:11.000Z</Time>
            <Position>
              <LatitudeDegrees>38.18132118321955204010009765625</LatitudeDegrees>
              <LongitudeDegrees>-1.90387663431465625762939453125</LongitudeDegrees>
            </Position>
            <AltitudeMeters>709.4000244140625</AltitudeMeters>
            <DistanceMeters>30814.713327732</DistanceMeters>
          </Trackpoint>
          <Trackpoint>
            <Time>2021-08-28T06:37:12.000Z</Time>
            <Position>
              <LatitudeDegrees>38.18130366504192352294921875</LatitudeDegrees>
              <LongitudeDegrees>-1.903838999569416046142578125</LongitudeDegrees>
            </Position>
            <AltitudeMeters>709.79998779296875</AltitudeMeters>
            <DistanceMeters>30818.540439436</DistanceMeters>
          </Trackpoint>
          <Trackpoint>
            <Time>2021-08-28T06:37:16.000Z</Time>
            <Position>
              <LatitudeDegrees>38.18123434670269489288330078125</LatitudeDegrees>
              <LongitudeDegrees>-1.9036866165697574615478515625</LongitudeDegrees>
            </Position>
            <AltitudeMeters>710.5999755859375</AltitudeMeters>
            <DistanceMeters>30833.943563421</DistanceMeters>
          </Trackpoint>
          <Trackpoint>
            <Time>2021-08-28T06:37:20.000Z</Time>
            <Position>
              <LatitudeDegrees>38.18115589208900928497314453125</LatitudeDegrees>
              <LongitudeDegrees>-1.90353565849363803863525390625</LongitudeDegrees>
            </Position>
            <AltitudeMeters>711.79998779296875</AltitudeMeters>
            <DistanceMeters>30849.776565415</DistanceMeters>
          </Trackpoint>
          <Trackpoint>
            <Time>2021-08-28T06:37:24.000Z</Time>
            <Position>
              <LatitudeDegrees>38.18106536753475666046142578125</LatitudeDegrees>
              <LongitudeDegrees>-1.903389729559421539306640625</LongitudeDegrees>
            </Position>
            <AltitudeMeters>712.79998779296875</AltitudeMeters>
            <DistanceMeters>30866.040853268</DistanceMeters>
          </Trackpoint>
          <Trackpoint>
            <Time>2021-08-28T06:37:29.000Z</Time>
            <Position>
              <LatitudeDegrees>38.18093997426331043243408203125</LatitudeDegrees>
              <LongitudeDegrees>-1.90321798436343669891357421875</LongitudeDegrees>
            </Position>
            <AltitudeMeters>714.20001220703125</AltitudeMeters>
            <DistanceMeters>30886.548578161</DistanceMeters>
          </Trackpoint>
          <Trackpoint>
            <Time>2021-08-28T06:37:30.000Z</Time>
            <Position>
              <LatitudeDegrees>38.18091214634478092193603515625</LatitudeDegrees>
              <LongitudeDegrees>-1.903188563883304595947265625</LongitudeDegrees>
            </Position>
            <AltitudeMeters>714.79998779296875</AltitudeMeters>
            <DistanceMeters>30890.573495196</DistanceMeters>
          </Trackpoint>
          <Trackpoint>
            <Time>2021-08-28T06:37:32.000Z</Time>
            <Position>
              <LatitudeDegrees>38.180854730308055877685546875</LatitudeDegrees>
              <LongitudeDegrees>-1.903130225837230682373046875</LongitudeDegrees>
            </Position>
            <AltitudeMeters>715.5999755859375</AltitudeMeters>
            <DistanceMeters>30898.751315575</DistanceMeters>
          </Trackpoint>
          <Trackpoint>
            <Time>2021-08-28T06:37:36.000Z</Time>
            <Position>
              <LatitudeDegrees>38.18072942085564136505126953125</LatitudeDegrees>
              <LongitudeDegrees>-1.90302754752337932586669921875</LongitudeDegrees>
            </Position>
            <AltitudeMeters>716.79998779296875</AltitudeMeters>
            <DistanceMeters>30915.341303518</DistanceMeters>
          </Trackpoint>
          <Trackpoint>
            <Time>2021-08-28T06:37:38.000Z</Time>
            <Position>
              <LatitudeDegrees>38.18066529929637908935546875</LatitudeDegrees>
              <LongitudeDegrees>-1.90297876484692096710205078125</LongitudeDegrees>
            </Position>
            <AltitudeMeters>717</AltitudeMeters>
            <DistanceMeters>30923.657091238</DistanceMeters>
          </Trackpoint>
          <Trackpoint>
            <Time>2021-08-28T06:37:40.000Z</Time>
            <Position>
              <LatitudeDegrees>38.1806041114032268524169921875</LatitudeDegrees>
              <LongitudeDegrees>-1.902933418750762939453125</LongitudeDegrees>
            </Position>
            <AltitudeMeters>717.20001220703125</AltitudeMeters>
            <DistanceMeters>30931.538581951</DistanceMeters>
          </Trackpoint>
          <Trackpoint>
            <Time>2021-08-28T06:37:43.000Z</Time>
            <Position>
              <LatitudeDegrees>38.18050570785999298095703125</LatitudeDegrees>
              <LongitudeDegrees>-1.90286326222121715545654296875</LongitudeDegrees>
            </Position>
            <AltitudeMeters>718</AltitudeMeters>
            <DistanceMeters>30944.093621354</DistanceMeters>
          </Trackpoint>
          <Trackpoint>
            <Time>2021-08-28T06:37:45.000Z</Time>
            <Position>
              <LatitudeDegrees>38.18044460378587245941162109375</LatitudeDegrees>
              <LongitudeDegrees>-1.9028061814606189727783203125</LongitudeDegrees>
            </Position>
            <AltitudeMeters>718.5999755859375</AltitudeMeters>
            <DistanceMeters>30952.531223068</DistanceMeters>
          </Trackpoint>
          <Trackpoint>
            <Time>2021-08-28T06:37:46.000Z</Time>
            <Position>
              <LatitudeDegrees>38.18041317164897918701171875</LatitudeDegrees>
              <LongitudeDegrees>-1.9027780182659626007080078125</LongitudeDegrees>
            </Position>
            <AltitudeMeters>719.20001220703125</AltitudeMeters>
            <DistanceMeters>30956.809536398</DistanceMeters>
          </Trackpoint>
          <Trackpoint>
            <Time>2021-08-28T06:37:50.000Z</Time>
            <Position>
              <LatitudeDegrees>38.18029322661459445953369140625</LatitudeDegrees>
              <LongitudeDegrees>-1.9026646949350833892822265625</LongitudeDegrees>
            </Position>
            <AltitudeMeters>719.79998779296875</AltitudeMeters>
            <DistanceMeters>30973.438668394</DistanceMeters>
          </Trackpoint>
          <Trackpoint>
            <Time>2021-08-28T06:37:53.000Z</Time>
            <Position>
              <LatitudeDegrees>38.1802081502974033355712890625</LatitudeDegrees>
              <LongitudeDegrees>-1.902570985257625579833984375</LongitudeDegrees>
            </Position>
            <AltitudeMeters>720</AltitudeMeters>
            <DistanceMeters>30985.964184277</DistanceMeters>
          </Trackpoint>
          <Trackpoint>
            <Time>2021-08-28T06:37:55.000Z</Time>
            <Position>
              <LatitudeDegrees>38.180148638784885406494140625</LatitudeDegrees>
              <LongitudeDegrees>-1.90250921063125133514404296875</LongitudeDegrees>
            </Position>
            <AltitudeMeters>720.4000244140625</AltitudeMeters>
            <DistanceMeters>30994.513420426</DistanceMeters>
          </Trackpoint>
          <Trackpoint>
            <Time>2021-08-28T06:37:58.000Z</Time>
            <Position>
              <LatitudeDegrees>38.1800649873912334442138671875</LatitudeDegrees>
              <LongitudeDegrees>-1.902406699955463409423828125</LongitudeDegrees>
            </Position>
            <AltitudeMeters>721.4000244140625</AltitudeMeters>
            <DistanceMeters>31007.441245256</DistanceMeters>
          </Trackpoint>
          <Trackpoint>
            <Time>2021-08-28T06:38:00.000Z</Time>
            <Position>
              <LatitudeDegrees>38.18000740371644496917724609375</LatitudeDegrees>
              <LongitudeDegrees>-1.9023371301591396331787109375</LongitudeDegrees>
            </Position>
            <AltitudeMeters>721.79998779296875</AltitudeMeters>
            <DistanceMeters>31016.280262248</DistanceMeters>
          </Trackpoint>
          <Trackpoint>
            <Time>2021-08-28T06:38:04.000Z</Time>
            <Position>
              <LatitudeDegrees>38.179896511137485504150390625</LatitudeDegrees>
              <LongitudeDegrees>-1.90221793949604034423828125</LongitudeDegrees>
            </Position>
            <AltitudeMeters>722.4000244140625</AltitudeMeters>
            <DistanceMeters>31032.438157227</DistanceMeters>
          </Trackpoint>
          <Trackpoint>
            <Time>2021-08-28T06:38:08.000Z</Time>
            <Position>
              <LatitudeDegrees>38.1797920726239681243896484375</LatitudeDegrees>
              <LongitudeDegrees>-1.90211199223995208740234375</LongitudeDegrees>
            </Position>
            <AltitudeMeters>723.5999755859375</AltitudeMeters>
            <DistanceMeters>31047.305814786</DistanceMeters>
          </Trackpoint>
          <Trackpoint>
            <Time>2021-08-28T06:38:10.000Z</Time>
            <Position>
              <LatitudeDegrees>38.179732896387577056884765625</LatitudeDegrees>
              <LongitudeDegrees>-1.90206983126699924468994140625</LongitudeDegrees>
            </Position>
            <AltitudeMeters>724</AltitudeMeters>
            <DistanceMeters>31054.855506336</DistanceMeters>
          </Trackpoint>
          <Trackpoint>
            <Time>2021-08-28T06:38:13.000Z</Time>
            <Position>
              <LatitudeDegrees>38.17964748479425907135009765625</LatitudeDegrees>
              <LongitudeDegrees>-1.9020172767341136932373046875</LongitudeDegrees>
            </Position>
            <AltitudeMeters>724.79998779296875</AltitudeMeters>
            <DistanceMeters>31065.415877735</DistanceMeters>
          </Trackpoint>
          <Trackpoint>
            <Time>2021-08-28T06:38:16.000Z</Time>
            <Position>
              <LatitudeDegrees>38.17955218255519866943359375</LatitudeDegrees>
              <LongitudeDegrees>-1.90196572802960872650146484375</LongitudeDegrees>
            </Position>
            <AltitudeMeters>725.4000244140625</AltitudeMeters>
            <DistanceMeters>31076.941956194</DistanceMeters>
          </Trackpoint>
          <Trackpoint>
            <Time>2021-08-28T06:38:18.000Z</Time>
            <Position>
              <LatitudeDegrees>38.1794863007962703704833984375</LatitudeDegrees>
              <LongitudeDegrees>-1.90193672664463520050048828125</LongitudeDegrees>
            </Position>
            <AltitudeMeters>726</AltitudeMeters>
            <DistanceMeters>31084.701630783</DistanceMeters>
          </Trackpoint>
          <Trackpoint>
            <Time>2021-08-28T06:38:20.000Z</Time>
            <Position>
              <LatitudeDegrees>38.179420419037342071533203125</LatitudeDegrees>
              <LongitudeDegrees>-1.90191082656383514404296875</LongitudeDegrees>
            </Position>
            <AltitudeMeters>726.4000244140625</AltitudeMeters>
            <DistanceMeters>31092.37706033</DistanceMeters>
          </Trackpoint>
          <Trackpoint>
            <Time>2021-08-28T06:38:25.000Z</Time>
            <Position>
              <LatitudeDegrees>38.1792643480002880096435546875</LatitudeDegrees>
              <LongitudeDegrees>-1.901837401092052459716796875</LongitudeDegrees>
            </Position>
            <AltitudeMeters>727</AltitudeMeters>
            <DistanceMeters>31110.898008304</DistanceMeters>
          </Trackpoint>
          <Trackpoint>
            <Time>2021-08-28T06:38:26.000Z</Time>
            <Position>
              <LatitudeDegrees>38.17923367023468017578125</LatitudeDegrees>
              <LongitudeDegrees>-1.9018265046179294586181640625</LongitudeDegrees>
            </Position>
            <AltitudeMeters>727.20001220703125</AltitudeMeters>
            <DistanceMeters>31114.443409045</DistanceMeters>
          </Trackpoint>
          <Trackpoint>
            <Time>2021-08-28T06:38:30.000Z</Time>
            <Position>
              <LatitudeDegrees>38.17910484038293361663818359375</LatitudeDegrees>
              <LongitudeDegrees>-1.90178878605365753173828125</LongitudeDegrees>
            </Position>
            <AltitudeMeters>728.20001220703125</AltitudeMeters>
            <DistanceMeters>31129.1572149</DistanceMeters>
          </Trackpoint>
          <Trackpoint>
            <Time>2021-08-28T06:38:33.000Z</Time>
            <Position>
              <LatitudeDegrees>38.17900559864938259124755859375</LatitudeDegrees>
              <LongitudeDegrees>-1.9017721898853778839111328125</LongitudeDegrees>
            </Position>
            <AltitudeMeters>729.4000244140625</AltitudeMeters>
            <DistanceMeters>31140.298463968</DistanceMeters>
          </Trackpoint>
          <Trackpoint>
            <Time>2021-08-28T06:38:35.000Z</Time>
            <Position>
              <LatitudeDegrees>38.17893669940531253814697265625</LatitudeDegrees>
              <LongitudeDegrees>-1.90177428536117076873779296875</LongitudeDegrees>
            </Position>
            <AltitudeMeters>730</AltitudeMeters>
            <DistanceMeters>31147.96977469</DistanceMeters>
          </Trackpoint>
          <Trackpoint>
            <Time>2021-08-28T06:38:37.000Z</Time>
            <Position>
              <LatitudeDegrees>38.17886863835155963897705078125</LatitudeDegrees>
              <LongitudeDegrees>-1.90178400836884975433349609375</LongitudeDegrees>
            </Position>
            <AltitudeMeters>730.4000244140625</AltitudeMeters>
            <DistanceMeters>31155.593262867</DistanceMeters>
          </Trackpoint>
          <Trackpoint>
            <Time>2021-08-28T06:38:40.000Z</Time>
            <Position>
              <LatitudeDegrees>38.1787667982280254364013671875</LatitudeDegrees>
              <LongitudeDegrees>-1.901790462434291839599609375</LongitudeDegrees>
            </Position>
            <AltitudeMeters>731.20001220703125</AltitudeMeters>
            <DistanceMeters>31166.942094539</DistanceMeters>
          </Trackpoint>
          <Trackpoint>
            <Time>2021-08-28T06:38:43.000Z</Time>
            <Position>
              <LatitudeDegrees>38.17866328172385692596435546875</LatitudeDegrees>
              <LongitudeDegrees>-1.90179054625332355499267578125</LongitudeDegrees>
            </Position>
            <AltitudeMeters>731.5999755859375</AltitudeMeters>
            <DistanceMeters>31178.463471355</DistanceMeters>
          </Trackpoint>
          <Trackpoint>
            <Time>2021-08-28T06:38:44.000Z</Time>
            <Position>
              <LatitudeDegrees>38.17862950265407562255859375</LatitudeDegrees>
              <LongitudeDegrees>-1.9017894566059112548828125</LongitudeDegrees>
            </Position>
            <AltitudeMeters>731.79998779296875</AltitudeMeters>
            <DistanceMeters>31182.223936713</DistanceMeters>
          </Trackpoint>
          <Trackpoint>
            <Time>2021-08-28T06:38:50.000Z</Time>
            <Position>
              <LatitudeDegrees>38.17842456512153148651123046875</LatitudeDegrees>
              <LongitudeDegrees>-1.90176975913345813751220703125</LongitudeDegrees>
            </Position>
            <AltitudeMeters>732.79998779296875</AltitudeMeters>
            <DistanceMeters>31205.098744026</DistanceMeters>
          </Trackpoint>
          <Trackpoint>
            <Time>2021-08-28T06:38:53.000Z</Time>
            <Position>
              <LatitudeDegrees>38.17832364700734615325927734375</LatitudeDegrees>
              <LongitudeDegrees>-1.9017463736236095428466796875</LongitudeDegrees>
            </Position>
            <AltitudeMeters>733.4000244140625</AltitudeMeters>
            <DistanceMeters>31216.515799403</DistanceMeters>
          </Trackpoint>
          <Trackpoint>
            <Time>2021-08-28T06:38:55.000Z</Time>
            <Position>
              <LatitudeDegrees>38.17825642414391040802001953125</LatitudeDegrees>
              <LongitudeDegrees>-1.90172784961760044097900390625</LongitudeDegrees>
            </Position>
            <AltitudeMeters>733.79998779296875</AltitudeMeters>
            <DistanceMeters>31224.170612663</DistanceMeters>
          </Trackpoint>
          <Trackpoint>
            <Time>2021-08-28T06:39:00.000Z</Time>
            <Position>
              <LatitudeDegrees>38.17807973362505435943603515625</LatitudeDegrees>
              <LongitudeDegrees>-1.901680491864681243896484375</LongitudeDegrees>
            </Position>
            <AltitudeMeters>734.5999755859375</AltitudeMeters>
            <DistanceMeters>31244.268257284</DistanceMeters>
          </Trackpoint>
          <Trackpoint>
            <Time>2021-08-28T06:39:02.000Z</Time>
            <Position>
              <LatitudeDegrees>38.1780065596103668212890625</LatitudeDegrees>
              <LongitudeDegrees>-1.90166213549673557281494140625</LongitudeDegrees>
            </Position>
            <AltitudeMeters>735</AltitudeMeters>
            <DistanceMeters>31252.568828546</DistanceMeters>
          </Trackpoint>
          <Trackpoint>
            <Time>2021-08-28T06:39:03.000Z</Time>
            <Position>
              <LatitudeDegrees>38.17796909250319004058837890625</LatitudeDegrees>
              <LongitudeDegrees>-1.9016553461551666259765625</LongitudeDegrees>
            </Position>
            <AltitudeMeters>735.20001220703125</AltitudeMeters>
            <DistanceMeters>31256.782274913</DistanceMeters>
          </Trackpoint>
          <Trackpoint>
            <Time>2021-08-28T06:39:07.000Z</Time>
            <Position>
              <LatitudeDegrees>38.1778189726173877716064453125</LatitudeDegrees>
              <LongitudeDegrees>-1.90164570696651935577392578125</LongitudeDegrees>
            </Position>
            <AltitudeMeters>736.20001220703125</AltitudeMeters>
            <DistanceMeters>31273.512105139</DistanceMeters>
          </Trackpoint>
          <Trackpoint>
            <Time>2021-08-28T06:39:10.000Z</Time>
            <Position>
              <LatitudeDegrees>38.1777157075703144073486328125</LatitudeDegrees>
              <LongitudeDegrees>-1.90167009830474853515625</LongitudeDegrees>
            </Position>
            <AltitudeMeters>736.79998779296875</AltitudeMeters>
            <DistanceMeters>31285.201549811</DistanceMeters>
          </Trackpoint>
          <Trackpoint>
            <Time>2021-08-28T06:39:11.000Z</Time>
            <Position>
              <LatitudeDegrees>38.17768410779535770416259765625</LatitudeDegrees>
              <LongitudeDegrees>-1.90168677829205989837646484375</LongitudeDegrees>
            </Position>
            <AltitudeMeters>736.79998779296875</AltitudeMeters>
            <DistanceMeters>31289.009738721</DistanceMeters>
          </Trackpoint>
          <Trackpoint>
            <Time>2021-08-28T06:39:15.000Z</Time>
            <Position>
              <LatitudeDegrees>38.177571035921573638916015625</LatitudeDegrees>
              <LongitudeDegrees>-1.90178870223462581634521484375</LongitudeDegrees>
            </Position>
            <AltitudeMeters>737.5999755859375</AltitudeMeters>
            <DistanceMeters>31304.434245976</DistanceMeters>
          </Trackpoint>
          <Trackpoint>
            <Time>2021-08-28T06:39:17.000Z</Time>
            <Position>
              <LatitudeDegrees>38.1775185652077198028564453125</LatitudeDegrees>
              <LongitudeDegrees>-1.90184603445231914520263671875</LongitudeDegrees>
            </Position>
            <AltitudeMeters>738</AltitudeMeters>
            <DistanceMeters>31312.13258292</DistanceMeters>
          </Trackpoint>
          <Trackpoint>
            <Time>2021-08-28T06:39:20.000Z</Time>
            <Position>
              <LatitudeDegrees>38.17744455300271511077880859375</LatitudeDegrees>
              <LongitudeDegrees>-1.90194477327167987823486328125</LongitudeDegrees>
            </Position>
            <AltitudeMeters>738.5999755859375</AltitudeMeters>
            <DistanceMeters>31324.069693386</DistanceMeters>
          </Trackpoint>
          <Trackpoint>
            <Time>2021-08-28T06:39:21.000Z</Time>
            <Position>
              <LatitudeDegrees>38.17742141894996166229248046875</LatitudeDegrees>
              <LongitudeDegrees>-1.9019770435988903045654296875</LongitudeDegrees>
            </Position>
            <AltitudeMeters>738.79998779296875</AltitudeMeters>
            <DistanceMeters>31327.892083173</DistanceMeters>
          </Trackpoint>
          <Trackpoint>
            <Time>2021-08-28T06:39:25.000Z</Time>
            <Position>
              <LatitudeDegrees>38.17734011448919773101806640625</LatitudeDegrees>
              <LongitudeDegrees>-1.90211199223995208740234375</LongitudeDegrees>
            </Position>
            <AltitudeMeters>740</AltitudeMeters>
            <DistanceMeters>31342.767937883</DistanceMeters>
          </Trackpoint>
          <Trackpoint>
            <Time>2021-08-28T06:39:30.000Z</Time>
            <Position>
              <LatitudeDegrees>38.17726652137935161590576171875</LatitudeDegrees>
              <LongitudeDegrees>-1.9022972323000431060791015625</LongitudeDegrees>
            </Position>
            <AltitudeMeters>740.79998779296875</AltitudeMeters>
            <DistanceMeters>31360.927739416</DistanceMeters>
          </Trackpoint>
          <Trackpoint>
            <Time>2021-08-28T06:39:31.000Z</Time>
            <Position>
              <LatitudeDegrees>38.17725160159170627593994140625</LatitudeDegrees>
              <LongitudeDegrees>-1.90233461558818817138671875</LongitudeDegrees>
            </Position>
            <AltitudeMeters>741</AltitudeMeters>
            <DistanceMeters>31364.595819827</DistanceMeters>
          </Trackpoint>
          <Trackpoint>
            <Time>2021-08-28T06:39:32.000Z</Time>
            <Position>
              <LatitudeDegrees>38.17723768763244152069091796875</LatitudeDegrees>
              <LongitudeDegrees>-1.90237074159085750579833984375</LongitudeDegrees>
            </Position>
            <AltitudeMeters>741</AltitudeMeters>
            <DistanceMeters>31368.115658585</DistanceMeters>
          </Trackpoint>
          <Trackpoint>
            <Time>2021-08-28T06:39:36.000Z</Time>
            <Position>
              <LatitudeDegrees>38.17717448808252811431884765625</LatitudeDegrees>
              <LongitudeDegrees>-1.9025258906185626983642578125</LongitudeDegrees>
            </Position>
            <AltitudeMeters>742</AltitudeMeters>
            <DistanceMeters>31383.404922429</DistanceMeters>
          </Trackpoint>
          <Trackpoint>
            <Time>2021-08-28T06:39:39.000Z</Time>
            <Position>
              <LatitudeDegrees>38.1771321594715118408203125</LatitudeDegrees>
              <LongitudeDegrees>-1.90263795666396617889404296875</LongitudeDegrees>
            </Position>
            <AltitudeMeters>742.79998779296875</AltitudeMeters>
            <DistanceMeters>31394.283302447</DistanceMeters>
          </Trackpoint>
          <Trackpoint>
            <Time>2021-08-28T06:39:40.000Z</Time>
            <Position>
              <LatitudeDegrees>38.1771138869225978851318359375</LatitudeDegrees>
              <LongitudeDegrees>-1.902674250304698944091796875</LongitudeDegrees>
            </Position>
            <AltitudeMeters>742.79998779296875</AltitudeMeters>
            <DistanceMeters>31398.053360844</DistanceMeters>
          </Trackpoint>
          <Trackpoint>
            <Time>2021-08-28T06:39:43.000Z</Time>
            <Position>
              <LatitudeDegrees>38.177065439522266387939453125</LatitudeDegrees>
              <LongitudeDegrees>-1.90278195776045322418212890625</LongitudeDegrees>
            </Position>
            <AltitudeMeters>743.4000244140625</AltitudeMeters>
            <DistanceMeters>31408.910552834</DistanceMeters>
          </Trackpoint>
          <Trackpoint>
            <Time>2021-08-28T06:39:48.000Z</Time>
            <Position>
              <LatitudeDegrees>38.176985643804073333740234375</LatitudeDegrees>
              <LongitudeDegrees>-1.90295596607029438018798828125</LongitudeDegrees>
            </Position>
            <AltitudeMeters>744.4000244140625</AltitudeMeters>
            <DistanceMeters>31426.536407423</DistanceMeters>
          </Trackpoint>
          <Trackpoint>
            <Time>2021-08-28T06:39:49.000Z</Time>
            <Position>
              <LatitudeDegrees>38.17696745507419109344482421875</LatitudeDegrees>
              <LongitudeDegrees>-1.90298982895910739898681640625</LongitudeDegrees>
            </Position>
            <AltitudeMeters>744.4000244140625</AltitudeMeters>
            <DistanceMeters>31430.124845664</DistanceMeters>
          </Trackpoint>
          <Trackpoint>
            <Time>2021-08-28T06:39:50.000Z</Time>
            <Position>
              <LatitudeDegrees>38.17694834433495998382568359375</LatitudeDegrees>
              <LongitudeDegrees>-1.90302930772304534912109375</LongitudeDegrees>
            </Position>
            <AltitudeMeters>744.5999755859375</AltitudeMeters>
            <DistanceMeters>31434.181050698</DistanceMeters>
          </Trackpoint>
          <Trackpoint>
            <Time>2021-08-28T06:39:54.000Z</Time>
            <Position>
              <LatitudeDegrees>38.1768714822828769683837890625</LatitudeDegrees>
              <LongitudeDegrees>-1.903201974928379058837890625</LongitudeDegrees>
            </Position>
            <AltitudeMeters>745.5999755859375</AltitudeMeters>
            <DistanceMeters>31451.542355995</DistanceMeters>
          </Trackpoint>
          <Trackpoint>
            <Time>2021-08-28T06:39:56.000Z</Time>
            <Position>
              <LatitudeDegrees>38.1768329255282878875732421875</LatitudeDegrees>
              <LongitudeDegrees>-1.90328788943588733673095703125</LongitudeDegrees>
            </Position>
            <AltitudeMeters>746.4000244140625</AltitudeMeters>
            <DistanceMeters>31460.198658574</DistanceMeters>
          </Trackpoint>
          <Trackpoint>
            <Time>2021-08-28T06:39:58.000Z</Time>
            <Position>
              <LatitudeDegrees>38.1767967157065868377685546875</LatitudeDegrees>
              <LongitudeDegrees>-1.90337003208696842193603515625</LongitudeDegrees>
            </Position>
            <AltitudeMeters>746.79998779296875</AltitudeMeters>
            <DistanceMeters>31468.438630951</DistanceMeters>
          </Trackpoint>
          <Trackpoint>
            <Time>2021-08-28T06:40:00.000Z</Time>
            <Position>
              <LatitudeDegrees>38.176764361560344696044921875</LatitudeDegrees>
              <LongitudeDegrees>-1.903448402881622314453125</LongitudeDegrees>
            </Position>
            <AltitudeMeters>747</AltitudeMeters>
            <DistanceMeters>31476.184328331</DistanceMeters>
          </Trackpoint>
          <Trackpoint>
            <Time>2021-08-28T06:40:04.000Z</Time>
            <Position>
              <LatitudeDegrees>38.17669236101210117340087890625</LatitudeDegrees>
              <LongitudeDegrees>-1.90360003150999546051025390625</LongitudeDegrees>
            </Position>
            <AltitudeMeters>747.79998779296875</AltitudeMeters>
            <DistanceMeters>31491.683590366</DistanceMeters>
          </Trackpoint>
          <Trackpoint>
            <Time>2021-08-28T06:40:07.000Z</Time>
            <Position>
              <LatitudeDegrees>38.1766361184418201446533203125</LatitudeDegrees>
              <LongitudeDegrees>-1.90371385775506496429443359375</LongitudeDegrees>
            </Position>
            <AltitudeMeters>748.4000244140625</AltitudeMeters>
            <DistanceMeters>31503.446961117</DistanceMeters>
          </Trackpoint>
          <Trackpoint>
            <Time>2021-08-28T06:40:09.000Z</Time>
            <Position>
              <LatitudeDegrees>38.1765982322394847869873046875</LatitudeDegrees>
              <LongitudeDegrees>-1.90379616804420948028564453125</LongitudeDegrees>
            </Position>
            <AltitudeMeters>749.20001220703125</AltitudeMeters>
            <DistanceMeters>31511.792016511</DistanceMeters>
          </Trackpoint>
          <Trackpoint>
            <Time>2021-08-28T06:40:10.000Z</Time>
            <Position>
              <LatitudeDegrees>38.17658054642379283905029296875</LatitudeDegrees>
              <LongitudeDegrees>-1.903831623494625091552734375</LongitudeDegrees>
            </Position>
            <AltitudeMeters>749.4000244140625</AltitudeMeters>
            <DistanceMeters>31515.467474899</DistanceMeters>
          </Trackpoint>
          <Trackpoint>
            <Time>2021-08-28T06:40:11.000Z</Time>
            <Position>
              <LatitudeDegrees>38.1765643693506717681884765625</LatitudeDegrees>
              <LongitudeDegrees>-1.90386590547859668731689453125</LongitudeDegrees>
            </Position>
            <AltitudeMeters>749.79998779296875</AltitudeMeters>
            <DistanceMeters>31518.966729628</DistanceMeters>
          </Trackpoint>
          <Trackpoint>
            <Time>2021-08-28T06:40:13.000Z</Time>
            <Position>
              <LatitudeDegrees>38.176527321338653564453125</LatitudeDegrees>
              <LongitudeDegrees>-1.9039337150752544403076171875</LongitudeDegrees>
            </Position>
            <AltitudeMeters>750.20001220703125</AltitudeMeters>
            <DistanceMeters>31526.191260191</DistanceMeters>
          </Trackpoint>
          <Trackpoint>
            <Time>2021-08-28T06:40:19.000Z</Time>
            <Position>
              <LatitudeDegrees>38.1764240562915802001953125</LatitudeDegrees>
              <LongitudeDegrees>-1.90415441058576107025146484375</LongitudeDegrees>
            </Position>
            <AltitudeMeters>751.5999755859375</AltitudeMeters>
            <DistanceMeters>31548.662817876</DistanceMeters>
          </Trackpoint>
          <Trackpoint>
            <Time>2021-08-28T06:40:20.000Z</Time>
            <Position>
              <LatitudeDegrees>38.1764121539890766143798828125</LatitudeDegrees>
              <LongitudeDegrees>-1.90418810583651065826416015625</LongitudeDegrees>
            </Position>
            <AltitudeMeters>752</AltitudeMeters>
            <DistanceMeters>31551.89651986</DistanceMeters>
          </Trackpoint>
          <Trackpoint>
            <Time>2021-08-28T06:40:23.000Z</Time>
            <Position>
              <LatitudeDegrees>38.176363371312618255615234375</LatitudeDegrees>
              <LongitudeDegrees>-1.904294304549694061279296875</LongitudeDegrees>
            </Position>
            <AltitudeMeters>752.5999755859375</AltitudeMeters>
            <DistanceMeters>31562.658478812</DistanceMeters>
          </Trackpoint>
          <Trackpoint>
            <Time>2021-08-28T06:40:27.000Z</Time>
            <Position>
              <LatitudeDegrees>38.17629355005919933319091796875</LatitudeDegrees>
              <LongitudeDegrees>-1.90443637780845165252685546875</LongitudeDegrees>
            </Position>
            <AltitudeMeters>753.5999755859375</AltitudeMeters>
            <DistanceMeters>31577.318486293</DistanceMeters>
          </Trackpoint>
          <Trackpoint>
            <Time>2021-08-28T06:40:29.000Z</Time>
            <Position>
              <LatitudeDegrees>38.17625918425619602203369140625</LatitudeDegrees>
              <LongitudeDegrees>-1.9045134074985980987548828125</LongitudeDegrees>
            </Position>
            <AltitudeMeters>753.79998779296875</AltitudeMeters>
            <DistanceMeters>31585.067680339</DistanceMeters>
          </Trackpoint>
          <Trackpoint>
            <Time>2021-08-28T06:40:30.000Z</Time>
            <Position>
              <LatitudeDegrees>38.176239319145679473876953125</LatitudeDegrees>
              <LongitudeDegrees>-1.9045533053576946258544921875</LongitudeDegrees>
            </Position>
            <AltitudeMeters>754</AltitudeMeters>
            <DistanceMeters>31589.20106934</DistanceMeters>
          </Trackpoint>
          <Trackpoint>
            <Time>2021-08-28T06:40:33.000Z</Time>
            <Position>
              <LatitudeDegrees>38.17618911154568195343017578125</LatitudeDegrees>
              <LongitudeDegrees>-1.90466721542179584503173828125</LongitudeDegrees>
            </Position>
            <AltitudeMeters>755</AltitudeMeters>
            <DistanceMeters>31600.628007048</DistanceMeters>
          </Trackpoint>
          <Trackpoint>
            <Time>2021-08-28T06:40:35.000Z</Time>
            <Position>
              <LatitudeDegrees>38.176163546741008758544921875</LatitudeDegrees>
              <LongitudeDegrees>-1.90473846159875392913818359375</LongitudeDegrees>
            </Position>
            <AltitudeMeters>755.4000244140625</AltitudeMeters>
            <DistanceMeters>31607.481139732</DistanceMeters>
          </Trackpoint>
          <Trackpoint>
            <Time>2021-08-28T06:40:37.000Z</Time>
            <Position>
              <LatitudeDegrees>38.1761389039456844329833984375</LatitudeDegrees>
              <LongitudeDegrees>-1.904807277023792266845703125</LongitudeDegrees>
            </Position>
            <AltitudeMeters>756</AltitudeMeters>
            <DistanceMeters>31614.097619959</DistanceMeters>
          </Trackpoint>
          <Trackpoint>
            <Time>2021-08-28T06:40:40.000Z</Time>
            <Position>
              <LatitudeDegrees>38.176092803478240966796875</LatitudeDegrees>
              <LongitudeDegrees>-1.9049110449850559234619140625</LongitudeDegrees>
            </Position>
            <AltitudeMeters>757</AltitudeMeters>
            <DistanceMeters>31624.526774803</DistanceMeters>
          </Trackpoint>
          <Trackpoint>
            <Time>2021-08-28T06:40:41.000Z</Time>
            <Position>
              <LatitudeDegrees>38.176076710224151611328125</LatitudeDegrees>
              <LongitudeDegrees>-1.904948763549327850341796875</LongitudeDegrees>
            </Position>
            <AltitudeMeters>757.20001220703125</AltitudeMeters>
            <DistanceMeters>31628.282434453</DistanceMeters>
          </Trackpoint>
          <Trackpoint>
            <Time>2021-08-28T06:40:43.000Z</Time>
            <Position>
              <LatitudeDegrees>38.17605189979076385498046875</LatitudeDegrees>
              <LongitudeDegrees>-1.9050257094204425811767578125</LongitudeDegrees>
            </Position>
            <AltitudeMeters>757.79998779296875</AltitudeMeters>
            <DistanceMeters>31635.558651753</DistanceMeters>
          </Trackpoint>
          <Trackpoint>
            <Time>2021-08-28T06:40:45.000Z</Time>
            <Position>
              <LatitudeDegrees>38.17602641880512237548828125</LatitudeDegrees>
              <LongitudeDegrees>-1.90509821288287639617919921875</LongitudeDegrees>
            </Position>
            <AltitudeMeters>758.4000244140625</AltitudeMeters>
            <DistanceMeters>31642.507957389</DistanceMeters>
          </Trackpoint>
          <Trackpoint>
            <Time>2021-08-28T06:40:50.000Z</Time>
            <Position>
              <LatitudeDegrees>38.17597989924252033233642578125</LatitudeDegrees>
              <LongitudeDegrees>-1.90528638660907745361328125</LongitudeDegrees>
            </Position>
            <AltitudeMeters>759.4000244140625</AltitudeMeters>
            <DistanceMeters>31659.767278399</DistanceMeters>
          </Trackpoint>
          <Trackpoint>
            <Time>2021-08-28T06:40:51.000Z</Time>
            <Position>
              <LatitudeDegrees>38.17597185261547565460205078125</LatitudeDegrees>
              <LongitudeDegrees>-1.90532661974430084228515625</LongitudeDegrees>
            </Position>
            <AltitudeMeters>759.4000244140625</AltitudeMeters>
            <DistanceMeters>31663.400730168</DistanceMeters>
          </Trackpoint>
          <Trackpoint>
            <Time>2021-08-28T06:40:54.000Z</Time>
            <Position>
              <LatitudeDegrees>38.1759417615830898284912109375</LatitudeDegrees>
              <LongitudeDegrees>-1.90544488839805126190185546875</LongitudeDegrees>
            </Position>
            <AltitudeMeters>760.5999755859375</AltitudeMeters>
            <DistanceMeters>31674.277034753</DistanceMeters>
          </Trackpoint>
          <Trackpoint>
            <Time>2021-08-28T06:40:59.000Z</Time>
            <Position>
              <LatitudeDegrees>38.17589943297207355499267578125</LatitudeDegrees>
              <LongitudeDegrees>-1.9056543521583080291748046875</LongitudeDegrees>
            </Position>
            <AltitudeMeters>761.79998779296875</AltitudeMeters>
            <DistanceMeters>31693.200478189</DistanceMeters>
          </Trackpoint>
          <Trackpoint>
            <Time>2021-08-28T06:41:00.000Z</Time>
            <Position>
              <LatitudeDegrees>38.1758918054401874542236328125</LatitudeDegrees>
              <LongitudeDegrees>-1.90569684840738773345947265625</LongitudeDegrees>
            </Position>
            <AltitudeMeters>762.20001220703125</AltitudeMeters>
            <DistanceMeters>31697.015774144</DistanceMeters>
          </Trackpoint>
          <Trackpoint>
            <Time>2021-08-28T06:41:04.000Z</Time>
            <Position>
              <LatitudeDegrees>38.17585685290396213531494140625</LatitudeDegrees>
              <LongitudeDegrees>-1.90587781369686126708984375</LongitudeDegrees>
            </Position>
            <AltitudeMeters>762.79998779296875</AltitudeMeters>
            <DistanceMeters>31713.320541867</DistanceMeters>
          </Trackpoint>
          <Trackpoint>
            <Time>2021-08-28T06:41:09.000Z</Time>
            <Position>
              <LatitudeDegrees>38.17582651041448116302490234375</LatitudeDegrees>
              <LongitudeDegrees>-1.906089372932910919189453125</LongitudeDegrees>
            </Position>
            <AltitudeMeters>764</AltitudeMeters>
            <DistanceMeters>31732.136551198</DistanceMeters>
          </Trackpoint>
          <Trackpoint>
            <Time>2021-08-28T06:41:10.000Z</Time>
            <Position>
              <LatitudeDegrees>38.17582382820546627044677734375</LatitudeDegrees>
              <LongitudeDegrees>-1.90613237209618091583251953125</LongitudeDegrees>
            </Position>
            <AltitudeMeters>764.20001220703125</AltitudeMeters>
            <DistanceMeters>31735.909004044</DistanceMeters>
          </Trackpoint>
          <Trackpoint>
            <Time>2021-08-28T06:41:13.000Z</Time>
            <Position>
              <LatitudeDegrees>38.1758274324238300323486328125</LatitudeDegrees>
              <LongitudeDegrees>-1.9062588550150394439697265625</LongitudeDegrees>
            </Position>
            <AltitudeMeters>765</AltitudeMeters>
            <DistanceMeters>31746.982776577</DistanceMeters>
          </Trackpoint>
          <Trackpoint>
            <Time>2021-08-28T06:41:17.000Z</Time>
            <Position>
              <LatitudeDegrees>38.17585852928459644317626953125</LatitudeDegrees>
              <LongitudeDegrees>-1.90641961991786956787109375</LongitudeDegrees>
            </Position>
            <AltitudeMeters>765.79998779296875</AltitudeMeters>
            <DistanceMeters>31761.468663378</DistanceMeters>
          </Trackpoint>
          <Trackpoint>
            <Time>2021-08-28T06:41:19.000Z</Time>
            <Position>
              <LatitudeDegrees>38.1758690066635608673095703125</LatitudeDegrees>
              <LongitudeDegrees>-1.9065176881849765777587890625</LongitudeDegrees>
            </Position>
            <AltitudeMeters>766</AltitudeMeters>
            <DistanceMeters>31770.128616315</DistanceMeters>
          </Trackpoint>
          <Trackpoint>
            <Time>2021-08-28T06:41:20.000Z</Time>
            <Position>
              <LatitudeDegrees>38.17587764002382755279541015625</LatitudeDegrees>
              <LongitudeDegrees>-1.90656085498631000518798828125</LongitudeDegrees>
            </Position>
            <AltitudeMeters>766.20001220703125</AltitudeMeters>
            <DistanceMeters>31774.025870294</DistanceMeters>
          </Trackpoint>
          <Trackpoint>
            <Time>2021-08-28T06:41:24.000Z</Time>
            <Position>
              <LatitudeDegrees>38.17590773105621337890625</LatitudeDegrees>
              <LongitudeDegrees>-1.9067426584661006927490234375</LongitudeDegrees>
            </Position>
            <AltitudeMeters>766.5999755859375</AltitudeMeters>
            <DistanceMeters>31790.28182788</DistanceMeters>
          </Trackpoint>
          <Trackpoint>
            <Time>2021-08-28T06:41:27.000Z</Time>
            <Position>
              <LatitudeDegrees>38.1759290210902690887451171875</LatitudeDegrees>
              <LongitudeDegrees>-1.90688372589647769927978515625</LongitudeDegrees>
            </Position>
            <AltitudeMeters>767.20001220703125</AltitudeMeters>
            <DistanceMeters>31802.850166165</DistanceMeters>
          </Trackpoint>
          <Trackpoint>
            <Time>2021-08-28T06:41:30.000Z</Time>
            <Position>
              <LatitudeDegrees>38.1759493052959442138671875</LatitudeDegrees>
              <LongitudeDegrees>-1.907017417252063751220703125</LongitudeDegrees>
            </Position>
            <AltitudeMeters>767.5999755859375</AltitudeMeters>
            <DistanceMeters>31814.763802954</DistanceMeters>
          </Trackpoint>
          <Trackpoint>
            <Time>2021-08-28T06:41:31.000Z</Time>
            <Position>
              <LatitudeDegrees>38.1759555079042911529541015625</LatitudeDegrees>
              <LongitudeDegrees>-1.90705589018762111663818359375</LongitudeDegrees>
            </Position>
            <AltitudeMeters>767.79998779296875</AltitudeMeters>
            <DistanceMeters>31818.200565964</DistanceMeters>
          </Trackpoint>
          <Trackpoint>
            <Time>2021-08-28T06:41:35.000Z</Time>
            <Position>
              <LatitudeDegrees>38.17597956396639347076416015625</LatitudeDegrees>
              <LongitudeDegrees>-1.9072214327752590179443359375</LongitudeDegrees>
            </Position>
            <AltitudeMeters>768.20001220703125</AltitudeMeters>
            <DistanceMeters>31832.930319755</DistanceMeters>
          </Trackpoint>
          <Trackpoint>
            <Time>2021-08-28T06:41:36.000Z</Time>
            <Position>
              <LatitudeDegrees>38.1759853474795818328857421875</LatitudeDegrees>
              <LongitudeDegrees>-1.9072589837014675140380859375</LongitudeDegrees>
            </Position>
            <AltitudeMeters>768.20001220703125</AltitudeMeters>
            <DistanceMeters>31836.277904685</DistanceMeters>
          </Trackpoint>
          <Trackpoint>
            <Time>2021-08-28T06:41:40.000Z</Time>
            <Position>
              <LatitudeDegrees>38.17599616013467311859130859375</LatitudeDegrees>
              <LongitudeDegrees>-1.90742134116590023040771484375</LongitudeDegrees>
            </Position>
            <AltitudeMeters>769</AltitudeMeters>
            <DistanceMeters>31850.534445661</DistanceMeters>
          </Trackpoint>
          <Trackpoint>
            <Time>2021-08-28T06:41:43.000Z</Time>
            <Position>
              <LatitudeDegrees>38.17599783651530742645263671875</LatitudeDegrees>
              <LongitudeDegrees>-1.907543130218982696533203125</LongitudeDegrees>
            </Position>
            <AltitudeMeters>769.5999755859375</AltitudeMeters>
            <DistanceMeters>31861.191851608</DistanceMeters>
          </Trackpoint>
          <Trackpoint>
            <Time>2021-08-28T06:41:47.000Z</Time>
            <Position>
              <LatitudeDegrees>38.17600764334201812744140625</LatitudeDegrees>
              <LongitudeDegrees>-1.90771378576755523681640625</LongitudeDegrees>
            </Position>
            <AltitudeMeters>770.79998779296875</AltitudeMeters>
            <DistanceMeters>31876.163309703</DistanceMeters>
          </Trackpoint>
          <Trackpoint>
            <Time>2021-08-28T06:41:50.000Z</Time>
            <Position>
              <LatitudeDegrees>38.1760131753981113433837890625</LatitudeDegrees>
              <LongitudeDegrees>-1.90784328617155551910400390625</LongitudeDegrees>
            </Position>
            <AltitudeMeters>771.4000244140625</AltitudeMeters>
            <DistanceMeters>31887.510947787</DistanceMeters>
          </Trackpoint>
          <Trackpoint>
            <Time>2021-08-28T06:41:52.000Z</Time>
            <Position>
              <LatitudeDegrees>38.1760282628238201141357421875</LatitudeDegrees>
              <LongitudeDegrees>-1.90792693756520748138427734375</LongitudeDegrees>
            </Position>
            <AltitudeMeters>772</AltitudeMeters>
            <DistanceMeters>31895.01986231</DistanceMeters>
          </Trackpoint>
          <Trackpoint>
            <Time>2021-08-28T06:41:57.000Z</Time>
            <Position>
              <LatitudeDegrees>38.1760765425860881805419921875</LatitudeDegrees>
              <LongitudeDegrees>-1.90812089480459690093994140625</LongitudeDegrees>
            </Position>
            <AltitudeMeters>772.79998779296875</AltitudeMeters>
            <DistanceMeters>31912.820575285</DistanceMeters>
          </Trackpoint>
          <Trackpoint>
            <Time>2021-08-28T06:41:59.000Z</Time>
            <Position>
              <LatitudeDegrees>38.17609883844852447509765625</LatitudeDegrees>
              <LongitudeDegrees>-1.90819482319056987762451171875</LongitudeDegrees>
            </Position>
            <AltitudeMeters>773</AltitudeMeters>
            <DistanceMeters>31919.749058985</DistanceMeters>
          </Trackpoint>
          <Trackpoint>
            <Time>2021-08-28T06:42:00.000Z</Time>
            <Position>
              <LatitudeDegrees>38.17610981874167919158935546875</LatitudeDegrees>
              <LongitudeDegrees>-1.90823203884065151214599609375</LongitudeDegrees>
            </Position>
            <AltitudeMeters>773.20001220703125</AltitudeMeters>
            <DistanceMeters>31923.227607883</DistanceMeters>
          </Trackpoint>
          <Trackpoint>
            <Time>2021-08-28T06:42:02.000Z</Time>
            <Position>
              <LatitudeDegrees>38.17613664083182811737060546875</LatitudeDegrees>
              <LongitudeDegrees>-1.908302195370197296142578125</LongitudeDegrees>
            </Position>
            <AltitudeMeters>774</AltitudeMeters>
            <DistanceMeters>31930.053675158</DistanceMeters>
          </Trackpoint>
          <Trackpoint>
            <Time>2021-08-28T06:42:04.000Z</Time>
            <Position>
              <LatitudeDegrees>38.1761680729687213897705078125</LatitudeDegrees>
              <LongitudeDegrees>-1.9083742797374725341796875</LongitudeDegrees>
            </Position>
            <AltitudeMeters>774.5999755859375</AltitudeMeters>
            <DistanceMeters>31937.266321718</DistanceMeters>
          </Trackpoint>
          <Trackpoint>
            <Time>2021-08-28T06:42:09.000Z</Time>
            <Position>
              <LatitudeDegrees>38.1762354634702205657958984375</LatitudeDegrees>
              <LongitudeDegrees>-1.908550970256328582763671875</LongitudeDegrees>
            </Position>
            <AltitudeMeters>775.4000244140625</AltitudeMeters>
            <DistanceMeters>31954.449611262</DistanceMeters>
          </Trackpoint>
          <Trackpoint>
            <Time>2021-08-28T06:42:10.000Z</Time>
            <Position>
              <LatitudeDegrees>38.17624862305819988250732421875</LatitudeDegrees>
              <LongitudeDegrees>-1.908589862287044525146484375</LongitudeDegrees>
            </Position>
            <AltitudeMeters>775.79998779296875</AltitudeMeters>
            <DistanceMeters>31958.154434631</DistanceMeters>
          </Trackpoint>
          <Trackpoint>
            <Time>2021-08-28T06:42:11.000Z</Time>
            <Position>
              <LatitudeDegrees>38.1762582622468471527099609375</LatitudeDegrees>
              <LongitudeDegrees>-1.9086289219558238983154296875</LongitudeDegrees>
            </Position>
            <AltitudeMeters>776.20001220703125</AltitudeMeters>
            <DistanceMeters>31961.735315605</DistanceMeters>
          </Trackpoint>
          <Trackpoint>
            <Time>2021-08-28T06:42:13.000Z</Time>
            <Position>
              <LatitudeDegrees>38.17627728916704654693603515625</LatitudeDegrees>
              <LongitudeDegrees>-1.90871416591107845306396484375</LongitudeDegrees>
            </Position>
            <AltitudeMeters>776.5999755859375</AltitudeMeters>
            <DistanceMeters>31969.489169419</DistanceMeters>
          </Trackpoint>
          <Trackpoint>
            <Time>2021-08-28T06:42:18.000Z</Time>
            <Position>
              <LatitudeDegrees>38.17631752230226993560791015625</LatitudeDegrees>
              <LongitudeDegrees>-1.90892505459487438201904296875</LongitudeDegrees>
            </Position>
            <AltitudeMeters>777.4000244140625</AltitudeMeters>
            <DistanceMeters>31988.476448633</DistanceMeters>
          </Trackpoint>
          <Trackpoint>
            <Time>2021-08-28T06:42:19.000Z</Time>
            <Position>
              <LatitudeDegrees>38.17632892169058322906494140625</LatitudeDegrees>
              <LongitudeDegrees>-1.9089621864259243011474609375</LongitudeDegrees>
            </Position>
            <AltitudeMeters>777.5999755859375</AltitudeMeters>
            <DistanceMeters>31991.964071458</DistanceMeters>
          </Trackpoint>
          <Trackpoint>
            <Time>2021-08-28T06:42:20.000Z</Time>
            <Position>
              <LatitudeDegrees>38.1763424165546894073486328125</LatitudeDegrees>
              <LongitudeDegrees>-1.90899680368602275848388671875</LongitudeDegrees>
            </Position>
            <AltitudeMeters>777.79998779296875</AltitudeMeters>
            <DistanceMeters>31995.345206885</DistanceMeters>
          </Trackpoint>
          <Trackpoint>
            <Time>2021-08-28T06:42:24.000Z</Time>
            <Position>
              <LatitudeDegrees>38.17636479623615741729736328125</LatitudeDegrees>
              <LongitudeDegrees>-1.9091435708105564117431640625</LongitudeDegrees>
            </Position>
            <AltitudeMeters>778.4000244140625</AltitudeMeters>
            <DistanceMeters>32008.426489262</DistanceMeters>
          </Trackpoint>
          <Trackpoint>
            <Time>2021-08-28T06:42:26.000Z</Time>
            <Position>
              <LatitudeDegrees>38.17636546678841114044189453125</LatitudeDegrees>
              <LongitudeDegrees>-1.9092166610062122344970703125</LongitudeDegrees>
            </Position>
            <AltitudeMeters>778.79998779296875</AltitudeMeters>
            <DistanceMeters>32014.822288375</DistanceMeters>
          </Trackpoint>
          <Trackpoint>
            <Time>2021-08-28T06:42:30.000Z</Time>
            <Position>
              <LatitudeDegrees>38.17635641433298587799072265625</LatitudeDegrees>
              <LongitudeDegrees>-1.90937407314777374267578125</LongitudeDegrees>
            </Position>
            <AltitudeMeters>779.79998779296875</AltitudeMeters>
            <DistanceMeters>32028.63192937</DistanceMeters>
          </Trackpoint>
          <Trackpoint>
            <Time>2021-08-28T06:42:31.000Z</Time>
            <Position>
              <LatitudeDegrees>38.17635574378073215484619140625</LatitudeDegrees>
              <LongitudeDegrees>-1.9094122946262359619140625</LongitudeDegrees>
            </Position>
            <AltitudeMeters>779.79998779296875</AltitudeMeters>
            <DistanceMeters>32031.978165284</DistanceMeters>
          </Trackpoint>
          <Trackpoint>
            <Time>2021-08-28T06:42:32.000Z</Time>
            <Position>
              <LatitudeDegrees>38.17635524086654186248779296875</LatitudeDegrees>
              <LongitudeDegrees>-1.90945185720920562744140625</LongitudeDegrees>
            </Position>
            <AltitudeMeters>780.20001220703125</AltitudeMeters>
            <DistanceMeters>32035.438494945</DistanceMeters>
          </Trackpoint>
          <Trackpoint>
            <Time>2021-08-28T06:42:38.000Z</Time>
            <Position>
              <LatitudeDegrees>38.176331855356693267822265625</LatitudeDegrees>
              <LongitudeDegrees>-1.9097225926816463470458984375</LongitudeDegrees>
            </Position>
            <AltitudeMeters>781.20001220703125</AltitudeMeters>
            <DistanceMeters>32059.269179105</DistanceMeters>
          </Trackpoint>
          <Trackpoint>
            <Time>2021-08-28T06:42:39.000Z</Time>
            <Position>
              <LatitudeDegrees>38.1763266585767269134521484375</LatitudeDegrees>
              <LongitudeDegrees>-1.9097708724439144134521484375</LongitudeDegrees>
            </Position>
            <AltitudeMeters>781.20001220703125</AltitudeMeters>
            <DistanceMeters>32063.53375106</DistanceMeters>
          </Trackpoint>
          <Trackpoint>
            <Time>2021-08-28T06:42:40.000Z</Time>
            <Position>
              <LatitudeDegrees>38.1763243116438388824462890625</LatitudeDegrees>
              <LongitudeDegrees>-1.90981722436845302581787109375</LongitudeDegrees>
            </Position>
            <AltitudeMeters>781.4000244140625</AltitudeMeters>
            <DistanceMeters>32067.598851292</DistanceMeters>
          </Trackpoint>
          <Trackpoint>
            <Time>2021-08-28T06:42:44.000Z</Time>
            <Position>
              <LatitudeDegrees>38.176365382969379425048828125</LatitudeDegrees>
              <LongitudeDegrees>-1.9099787436425685882568359375</LongitudeDegrees>
            </Position>
            <AltitudeMeters>782</AltitudeMeters>
            <DistanceMeters>32082.451924967</DistanceMeters>
          </Trackpoint>
          <Trackpoint>
            <Time>2021-08-28T06:42:45.000Z</Time>
            <Position>
              <LatitudeDegrees>38.17638583481311798095703125</LatitudeDegrees>
              <LongitudeDegrees>-1.91001302562654018402099609375</LongitudeDegrees>
            </Position>
            <AltitudeMeters>782.20001220703125</AltitudeMeters>
            <DistanceMeters>32086.2171899</DistanceMeters>
          </Trackpoint>
          <Trackpoint>
            <Time>2021-08-28T06:42:49.000Z</Time>
            <Position>
              <LatitudeDegrees>38.176488764584064483642578125</LatitudeDegrees>
              <LongitudeDegrees>-1.910126097500324249267578125</LongitudeDegrees>
            </Position>
            <AltitudeMeters>783.20001220703125</AltitudeMeters>
            <DistanceMeters>32101.354202805</DistanceMeters>
          </Trackpoint>
          <Trackpoint>
            <Time>2021-08-28T06:42:50.000Z</Time>
            <Position>
              <LatitudeDegrees>38.17651298828423023223876953125</LatitudeDegrees>
              <LongitudeDegrees>-1.910154931247234344482421875</LongitudeDegrees>
            </Position>
            <AltitudeMeters>783.5999755859375</AltitudeMeters>
            <DistanceMeters>32105.046819145</DistanceMeters>
          </Trackpoint>
          <Trackpoint>
            <Time>2021-08-28T06:42:53.000Z</Time>
            <Position>
              <LatitudeDegrees>38.1765888445079326629638671875</LatitudeDegrees>
              <LongitudeDegrees>-1.91025291569530963897705078125</LongitudeDegrees>
            </Position>
            <AltitudeMeters>784.4000244140625</AltitudeMeters>
            <DistanceMeters>32117.079617893</DistanceMeters>
          </Trackpoint>
          <Trackpoint>
            <Time>2021-08-28T06:42:57.000Z</Time>
            <Position>
              <LatitudeDegrees>38.1766823865473270416259765625</LatitudeDegrees>
              <LongitudeDegrees>-1.91040496341884136199951171875</LongitudeDegrees>
            </Position>
            <AltitudeMeters>785</AltitudeMeters>
            <DistanceMeters>32133.973005236</DistanceMeters>
          </Trackpoint>
          <Trackpoint>
            <Time>2021-08-28T06:43:00.000Z</Time>
            <Position>
              <LatitudeDegrees>38.17674315534532070159912109375</LatitudeDegrees>
              <LongitudeDegrees>-1.91051728092133998870849609375</LongitudeDegrees>
            </Position>
            <AltitudeMeters>785.5999755859375</AltitudeMeters>
            <DistanceMeters>32145.902927064</DistanceMeters>
          </Trackpoint>
          <Trackpoint>
            <Time>2021-08-28T06:43:02.000Z</Time>
            <Position>
              <LatitudeDegrees>38.17677584476768970489501953125</LatitudeDegrees>
              <LongitudeDegrees>-1.910590119659900665283203125</LongitudeDegrees>
            </Position>
            <AltitudeMeters>786</AltitudeMeters>
            <DistanceMeters>32153.241549272</DistanceMeters>
          </Trackpoint>
          <Trackpoint>
            <Time>2021-08-28T06:43:06.000Z</Time>
            <Position>
              <LatitudeDegrees>38.17683720029890537261962890625</LatitudeDegrees>
              <LongitudeDegrees>-1.9107401557266712188720703125</LongitudeDegrees>
            </Position>
            <AltitudeMeters>786.79998779296875</AltitudeMeters>
            <DistanceMeters>32168.039500271</DistanceMeters>
          </Trackpoint>
          <Trackpoint>
            <Time>2021-08-28T06:43:10.000Z</Time>
            <Position>
              <LatitudeDegrees>38.1768674589693546295166015625</LatitudeDegrees>
              <LongitudeDegrees>-1.91088776104152202606201171875</LongitudeDegrees>
            </Position>
            <AltitudeMeters>787.4000244140625</AltitudeMeters>
            <DistanceMeters>32181.3859338</DistanceMeters>
          </Trackpoint>
          <Trackpoint>
            <Time>2021-08-28T06:43:11.000Z</Time>
            <Position>
              <LatitudeDegrees>38.176865279674530029296875</LatitudeDegrees>
              <LongitudeDegrees>-1.91092732362449169158935546875</LongitudeDegrees>
            </Position>
            <AltitudeMeters>787.5999755859375</AltitudeMeters>
            <DistanceMeters>32184.855385039</DistanceMeters>
          </Trackpoint>
          <Trackpoint>
            <Time>2021-08-28T06:43:12.000Z</Time>
            <Position>
              <LatitudeDegrees>38.1768585741519927978515625</LatitudeDegrees>
              <LongitudeDegrees>-1.91096588037908077239990234375</LongitudeDegrees>
            </Position>
            <AltitudeMeters>787.79998779296875</AltitudeMeters>
            <DistanceMeters>32188.310491558</DistanceMeters>
          </Trackpoint>
          <Trackpoint>
            <Time>2021-08-28T06:43:16.000Z</Time>
            <Position>
              <LatitudeDegrees>38.176800906658172607421875</LatitudeDegrees>
              <LongitudeDegrees>-1.9111029244959354400634765625</LongitudeDegrees>
            </Position>
            <AltitudeMeters>789.20001220703125</AltitudeMeters>
            <DistanceMeters>32201.910935885</DistanceMeters>
          </Trackpoint>
          <Trackpoint>
            <Time>2021-08-28T06:43:20.000Z</Time>
            <Position>
              <LatitudeDegrees>38.17669621668756008148193359375</LatitudeDegrees>
              <LongitudeDegrees>-1.9111825525760650634765625</LongitudeDegrees>
            </Position>
            <AltitudeMeters>789.79998779296875</AltitudeMeters>
            <DistanceMeters>32215.487456808</DistanceMeters>
          </Trackpoint>
          <Trackpoint>
            <Time>2021-08-28T06:43:21.000Z</Time>
            <Position>
              <LatitudeDegrees>38.1766582466661930084228515625</LatitudeDegrees>
              <LongitudeDegrees>-1.91119755618274211883544921875</LongitudeDegrees>
            </Position>
            <AltitudeMeters>790</AltitudeMeters>
            <DistanceMeters>32219.914110836</DistanceMeters>
          </Trackpoint>
          <Trackpoint>
            <Time>2021-08-28T06:43:22.000Z</Time>
            <Position>
              <LatitudeDegrees>38.17662111483514308929443359375</LatitudeDegrees>
              <LongitudeDegrees>-1.91120727919042110443115234375</LongitudeDegrees>
            </Position>
            <AltitudeMeters>790.20001220703125</AltitudeMeters>
            <DistanceMeters>32224.132911693</DistanceMeters>
          </Trackpoint>
          <Trackpoint>
            <Time>2021-08-28T06:43:26.000Z</Time>
            <Position>
              <LatitudeDegrees>38.17648985423147678375244140625</LatitudeDegrees>
              <LongitudeDegrees>-1.9112839736044406890869140625</LongitudeDegrees>
            </Position>
            <AltitudeMeters>791.20001220703125</AltitudeMeters>
            <DistanceMeters>32240.210128744</DistanceMeters>
          </Trackpoint>
          <Trackpoint>
            <Time>2021-08-28T06:43:27.000Z</Time>
            <Position>
              <LatitudeDegrees>38.17646085284650325775146484375</LatitudeDegrees>
              <LongitudeDegrees>-1.91131624393165111541748046875</LongitudeDegrees>
            </Position>
            <AltitudeMeters>791.4000244140625</AltitudeMeters>
            <DistanceMeters>32244.500035013</DistanceMeters>
          </Trackpoint>
          <Trackpoint>
            <Time>2021-08-28T06:43:30.000Z</Time>
            <Position>
              <LatitudeDegrees>38.1763940490782260894775390625</LatitudeDegrees>
              <LongitudeDegrees>-1.91145270131528377532958984375</LongitudeDegrees>
            </Position>
            <AltitudeMeters>792.20001220703125</AltitudeMeters>
            <DistanceMeters>32258.565914825</DistanceMeters>
          </Trackpoint>
          <Trackpoint>
            <Time>2021-08-28T06:43:31.000Z</Time>
            <Position>
              <LatitudeDegrees>38.176380805671215057373046875</LatitudeDegrees>
              <LongitudeDegrees>-1.9114958681166172027587890625</LongitudeDegrees>
            </Position>
            <AltitudeMeters>792.20001220703125</AltitudeMeters>
            <DistanceMeters>32262.621006588</DistanceMeters>
          </Trackpoint>
          <Trackpoint>
            <Time>2021-08-28T06:43:32.000Z</Time>
            <Position>
              <LatitudeDegrees>38.176369406282901763916015625</LatitudeDegrees>
              <LongitudeDegrees>-1.9115414656698703765869140625</LongitudeDegrees>
            </Position>
            <AltitudeMeters>792.4000244140625</AltitudeMeters>
            <DistanceMeters>32266.808656102</DistanceMeters>
          </Trackpoint>
          <Trackpoint>
            <Time>2021-08-28T06:43:34.000Z</Time>
            <Position>
              <LatitudeDegrees>38.1763534806668758392333984375</LatitudeDegrees>
              <LongitudeDegrees>-1.91164146177470684051513671875</LongitudeDegrees>
            </Position>
            <AltitudeMeters>793.20001220703125</AltitudeMeters>
            <DistanceMeters>32275.736111209</DistanceMeters>
          </Trackpoint>
          <Trackpoint>
            <Time>2021-08-28T06:43:38.000Z</Time>
            <Position>
              <LatitudeDegrees>38.1763246469199657440185546875</LatitudeDegrees>
              <LongitudeDegrees>-1.9118298031389713287353515625</LongitudeDegrees>
            </Position>
            <AltitudeMeters>794.4000244140625</AltitudeMeters>
            <DistanceMeters>32292.524672078</DistanceMeters>
          </Trackpoint>
          <Trackpoint>
            <Time>2021-08-28T06:43:39.000Z</Time>
            <Position>
              <LatitudeDegrees>38.17631836049258708953857421875</LatitudeDegrees>
              <LongitudeDegrees>-1.91187229938805103302001953125</LongitudeDegrees>
            </Position>
            <AltitudeMeters>794.5999755859375</AltitudeMeters>
            <DistanceMeters>32296.309074441</DistanceMeters>
          </Trackpoint>
          <Trackpoint>
            <Time>2021-08-28T06:43:40.000Z</Time>
            <Position>
              <LatitudeDegrees>38.17631148733198642730712890625</LatitudeDegrees>
              <LongitudeDegrees>-1.91191487945616245269775390625</LongitudeDegrees>
            </Position>
            <AltitudeMeters>794.79998779296875</AltitudeMeters>
            <DistanceMeters>32300.112517941</DistanceMeters>
          </Trackpoint>
          <Trackpoint>
            <Time>2021-08-28T06:43:44.000Z</Time>
            <Position>
              <LatitudeDegrees>38.176296651363372802734375</LatitudeDegrees>
              <LongitudeDegrees>-1.91208033822476863861083984375</LongitudeDegrees>
            </Position>
            <AltitudeMeters>795.5999755859375</AltitudeMeters>
            <DistanceMeters>32314.682936508</DistanceMeters>
          </Trackpoint>
          <Trackpoint>
            <Time>2021-08-28T06:43:46.000Z</Time>
            <Position>
              <LatitudeDegrees>38.1762872636318206787109375</LatitudeDegrees>
              <LongitudeDegrees>-1.9121627323329448699951171875</LongitudeDegrees>
            </Position>
            <AltitudeMeters>796.20001220703125</AltitudeMeters>
            <DistanceMeters>32321.9672161</DistanceMeters>
          </Trackpoint>
          <Trackpoint>
            <Time>2021-08-28T06:43:48.000Z</Time>
            <Position>
              <LatitudeDegrees>38.1762807257473468780517578125</LatitudeDegrees>
              <LongitudeDegrees>-1.912239678204059600830078125</LongitudeDegrees>
            </Position>
            <AltitudeMeters>796.5999755859375</AltitudeMeters>
            <DistanceMeters>32328.738828034</DistanceMeters>
          </Trackpoint>
          <Trackpoint>
            <Time>2021-08-28T06:43:50.000Z</Time>
            <Position>
              <LatitudeDegrees>38.176265470683574676513671875</LatitudeDegrees>
              <LongitudeDegrees>-1.91232777200639247894287109375</LongitudeDegrees>
            </Position>
            <AltitudeMeters>796.79998779296875</AltitudeMeters>
            <DistanceMeters>32336.631195696</DistanceMeters>
          </Trackpoint>
          <Trackpoint>
            <Time>2021-08-28T06:43:52.000Z</Time>
            <Position>
              <LatitudeDegrees>38.1762658059597015380859375</LatitudeDegrees>
              <LongitudeDegrees>-1.91241125576198101043701171875</LongitudeDegrees>
            </Position>
            <AltitudeMeters>797.5999755859375</AltitudeMeters>
            <DistanceMeters>32343.93528302</DistanceMeters>
          </Trackpoint>
          <Trackpoint>
            <Time>2021-08-28T06:43:53.000Z</Time>
            <Position>
              <LatitudeDegrees>38.17626890726387500762939453125</LatitudeDegrees>
              <LongitudeDegrees>-1.91245065070688724517822265625</LongitudeDegrees>
            </Position>
            <AltitudeMeters>797.79998779296875</AltitudeMeters>
            <DistanceMeters>32347.399524869</DistanceMeters>
          </Trackpoint>
          <Trackpoint>
            <Time>2021-08-28T06:43:57.000Z</Time>
            <Position>
              <LatitudeDegrees>38.17629757337272167205810546875</LatitudeDegrees>
              <LongitudeDegrees>-1.91260303370654582977294921875</LongitudeDegrees>
            </Position>
            <AltitudeMeters>798.79998779296875</AltitudeMeters>
            <DistanceMeters>32361.109083984</DistanceMeters>
          </Trackpoint>
          <Trackpoint>
            <Time>2021-08-28T06:43:59.000Z</Time>
            <Position>
              <LatitudeDegrees>38.1763192825019359588623046875</LatitudeDegrees>
              <LongitudeDegrees>-1.912682242691516876220703125</LongitudeDegrees>
            </Position>
            <AltitudeMeters>799.20001220703125</AltitudeMeters>
            <DistanceMeters>32368.448936575</DistanceMeters>
          </Trackpoint>
          <Trackpoint>
            <Time>2021-08-28T06:44:00.000Z</Time>
            <Position>
              <LatitudeDegrees>38.1763306818902492523193359375</LatitudeDegrees>
              <LongitudeDegrees>-1.91272289492189884185791015625</LongitudeDegrees>
            </Position>
            <AltitudeMeters>799.4000244140625</AltitudeMeters>
            <DistanceMeters>32372.223782351</DistanceMeters>
          </Trackpoint>
          <Trackpoint>
            <Time>2021-08-28T06:44:02.000Z</Time>
            <Position>
              <LatitudeDegrees>38.17634250037372112274169921875</LatitudeDegrees>
              <LongitudeDegrees>-1.9128027744591236114501953125</LongitudeDegrees>
            </Position>
            <AltitudeMeters>800</AltitudeMeters>
            <DistanceMeters>32379.33620024</DistanceMeters>
          </Trackpoint>
          <Trackpoint>
            <Time>2021-08-28T06:44:06.000Z</Time>
            <Position>
              <LatitudeDegrees>38.17634451203048229217529296875</LatitudeDegrees>
              <LongitudeDegrees>-1.91295758821070194244384765625</LongitudeDegrees>
            </Position>
            <AltitudeMeters>801</AltitudeMeters>
            <DistanceMeters>32392.883424076</DistanceMeters>
          </Trackpoint>
          <Trackpoint>
            <Time>2021-08-28T06:44:07.000Z</Time>
            <Position>
              <LatitudeDegrees>38.1763357110321521759033203125</LatitudeDegrees>
              <LongitudeDegrees>-1.9129938818514347076416015625</LongitudeDegrees>
            </Position>
            <AltitudeMeters>801.5999755859375</AltitudeMeters>
            <DistanceMeters>32396.208001277</DistanceMeters>
          </Trackpoint>
          <Trackpoint>
            <Time>2021-08-28T06:44:10.000Z</Time>
            <Position>
              <LatitudeDegrees>38.17628298886120319366455078125</LatitudeDegrees>
              <LongitudeDegrees>-1.91309404559433460235595703125</LongitudeDegrees>
            </Position>
            <AltitudeMeters>802.20001220703125</AltitudeMeters>
            <DistanceMeters>32406.755538515</DistanceMeters>
          </Trackpoint>
          <Trackpoint>
            <Time>2021-08-28T06:44:11.000Z</Time>
            <Position>
              <LatitudeDegrees>38.1762579269707202911376953125</LatitudeDegrees>
              <LongitudeDegrees>-1.9131273217499256134033203125</LongitudeDegrees>
            </Position>
            <AltitudeMeters>802.4000244140625</AltitudeMeters>
            <DistanceMeters>32410.788300308</DistanceMeters>
          </Trackpoint>
          <Trackpoint>
            <Time>2021-08-28T06:44:14.000Z</Time>
            <Position>
              <LatitudeDegrees>38.1761704199016094207763671875</LatitudeDegrees>
              <LongitudeDegrees>-1.91318775527179241180419921875</LongitudeDegrees>
            </Position>
            <AltitudeMeters>802.5999755859375</AltitudeMeters>
            <DistanceMeters>32421.870631728</DistanceMeters>
          </Trackpoint>
          <Trackpoint>
            <Time>2021-08-28T06:44:17.000Z</Time>
            <Position>
              <LatitudeDegrees>38.1760726869106292724609375</LatitudeDegrees>
              <LongitudeDegrees>-1.913211978971958160400390625</LongitudeDegrees>
            </Position>
            <AltitudeMeters>803.20001220703125</AltitudeMeters>
            <DistanceMeters>32432.952555733</DistanceMeters>
          </Trackpoint>
          <Trackpoint>
            <Time>2021-08-28T06:44:19.000Z</Time>
            <Position>
              <LatitudeDegrees>38.1760081462562084197998046875</LatitudeDegrees>
              <LongitudeDegrees>-1.91322966478765010833740234375</LongitudeDegrees>
            </Position>
            <AltitudeMeters>803.79998779296875</AltitudeMeters>
            <DistanceMeters>32440.30101524</DistanceMeters>
          </Trackpoint>
          <Trackpoint>
            <Time>2021-08-28T06:44:20.000Z</Time>
            <Position>
              <LatitudeDegrees>38.175979144871234893798828125</LatitudeDegrees>
              <LongitudeDegrees>-1.9132376275956630706787109375</LongitudeDegrees>
            </Position>
            <AltitudeMeters>804.20001220703125</AltitudeMeters>
            <DistanceMeters>32443.6037917</DistanceMeters>
          </Trackpoint>
          <Trackpoint>
            <Time>2021-08-28T06:44:22.000Z</Time>
            <Position>
              <LatitudeDegrees>38.17592290230095386505126953125</LatitudeDegrees>
              <LongitudeDegrees>-1.91326059401035308837890625</LongitudeDegrees>
            </Position>
            <AltitudeMeters>804.79998779296875</AltitudeMeters>
            <DistanceMeters>32450.177827436</DistanceMeters>
          </Trackpoint>
          <Trackpoint>
            <Time>2021-08-28T06:44:24.000Z</Time>
            <Position>
              <LatitudeDegrees>38.17587353289127349853515625</LatitudeDegrees>
              <LongitudeDegrees>-1.913300491869449615478515625</LongitudeDegrees>
            </Position>
            <AltitudeMeters>805.20001220703125</AltitudeMeters>
            <DistanceMeters>32456.688371102</DistanceMeters>
          </Trackpoint>
          <Trackpoint>
            <Time>2021-08-28T06:44:28.000Z</Time>
            <Position>
              <LatitudeDegrees>38.175821565091609954833984375</LatitudeDegrees>
              <LongitudeDegrees>-1.91341507248580455780029296875</LongitudeDegrees>
            </Position>
            <AltitudeMeters>805.79998779296875</AltitudeMeters>
            <DistanceMeters>32468.26253129</DistanceMeters>
          </Trackpoint>
          <Trackpoint>
            <Time>2021-08-28T06:44:29.000Z</Time>
            <Position>
              <LatitudeDegrees>38.17581226117908954620361328125</LatitudeDegrees>
              <LongitudeDegrees>-1.9134562276303768157958984375</LongitudeDegrees>
            </Position>
            <AltitudeMeters>806.20001220703125</AltitudeMeters>
            <DistanceMeters>32472.00976612</DistanceMeters>
          </Trackpoint>
          <Trackpoint>
            <Time>2021-08-28T06:44:30.000Z</Time>
            <Position>
              <LatitudeDegrees>38.17580823786556720733642578125</LatitudeDegrees>
              <LongitudeDegrees>-1.91349419765174388885498046875</LongitudeDegrees>
            </Position>
            <AltitudeMeters>806.4000244140625</AltitudeMeters>
            <DistanceMeters>32475.36274169</DistanceMeters>
          </Trackpoint>
          <Trackpoint>
            <Time>2021-08-28T06:44:32.000Z</Time>
            <Position>
              <LatitudeDegrees>38.175804801285266876220703125</LatitudeDegrees>
              <LongitudeDegrees>-1.9135708920657634735107421875</LongitudeDegrees>
            </Position>
            <AltitudeMeters>807</AltitudeMeters>
            <DistanceMeters>32482.083488849</DistanceMeters>
          </Trackpoint>
          <Trackpoint>
            <Time>2021-08-28T06:44:34.000Z</Time>
            <Position>
              <LatitudeDegrees>38.175812177360057830810546875</LatitudeDegrees>
              <LongitudeDegrees>-1.91364423371851444244384765625</LongitudeDegrees>
            </Position>
            <AltitudeMeters>807.5999755859375</AltitudeMeters>
            <DistanceMeters>32488.552288911</DistanceMeters>
          </Trackpoint>
          <Trackpoint>
            <Time>2021-08-28T06:44:36.000Z</Time>
            <Position>
              <LatitudeDegrees>38.1758254207670688629150390625</LatitudeDegrees>
              <LongitudeDegrees>-1.913721598684787750244140625</LongitudeDegrees>
            </Position>
            <AltitudeMeters>808</AltitudeMeters>
            <DistanceMeters>32495.480120916</DistanceMeters>
          </Trackpoint>
          <Trackpoint>
            <Time>2021-08-28T06:44:40.000Z</Time>
            <Position>
              <LatitudeDegrees>38.17583975382149219512939453125</LatitudeDegrees>
              <LongitudeDegrees>-1.9138766638934612274169921875</LongitudeDegrees>
            </Position>
            <AltitudeMeters>808.79998779296875</AltitudeMeters>
            <DistanceMeters>32509.141181998</DistanceMeters>
          </Trackpoint>
          <Trackpoint>
            <Time>2021-08-28T06:44:41.000Z</Time>
            <Position>
              <LatitudeDegrees>38.17583522759377956390380859375</LatitudeDegrees>
              <LongitudeDegrees>-1.91391312517225742340087890625</LongitudeDegrees>
            </Position>
            <AltitudeMeters>809</AltitudeMeters>
            <DistanceMeters>32512.370692532</DistanceMeters>
          </Trackpoint>
          <Trackpoint>
            <Time>2021-08-28T06:44:46.000Z</Time>
            <Position>
              <LatitudeDegrees>38.17575124092400074005126953125</LatitudeDegrees>
              <LongitudeDegrees>-1.91404907964169979095458984375</LongitudeDegrees>
            </Position>
            <AltitudeMeters>810.20001220703125</AltitudeMeters>
            <DistanceMeters>32527.499649787</DistanceMeters>
          </Trackpoint>
          <Trackpoint>
            <Time>2021-08-28T06:44:50.000Z</Time>
            <Position>
              <LatitudeDegrees>38.175616376101970672607421875</LatitudeDegrees>
              <LongitudeDegrees>-1.91410825587809085845947265625</LongitudeDegrees>
            </Position>
            <AltitudeMeters>810.79998779296875</AltitudeMeters>
            <DistanceMeters>32543.378212833</DistanceMeters>
          </Trackpoint>
          <Trackpoint>
            <Time>2021-08-28T06:44:51.000Z</Time>
            <Position>
              <LatitudeDegrees>38.17558611743152141571044921875</LatitudeDegrees>
              <LongitudeDegrees>-1.91411647014319896697998046875</LongitudeDegrees>
            </Position>
            <AltitudeMeters>811</AltitudeMeters>
            <DistanceMeters>32546.821538314</DistanceMeters>
          </Trackpoint>
          <Trackpoint>
            <Time>2021-08-28T06:44:54.000Z</Time>
            <Position>
              <LatitudeDegrees>38.175483606755733489990234375</LatitudeDegrees>
              <LongitudeDegrees>-1.9141244329512119293212890625</LongitudeDegrees>
            </Position>
            <AltitudeMeters>811.20001220703125</AltitudeMeters>
            <DistanceMeters>32558.252426562</DistanceMeters>
          </Trackpoint>
          <Trackpoint>
            <Time>2021-08-28T06:44:57.000Z</Time>
            <Position>
              <LatitudeDegrees>38.1753650866448879241943359375</LatitudeDegrees>
              <LongitudeDegrees>-1.91414228640496730804443359375</LongitudeDegrees>
            </Position>
            <AltitudeMeters>812</AltitudeMeters>
            <DistanceMeters>32571.535788099</DistanceMeters>
          </Trackpoint>
          <Trackpoint>
            <Time>2021-08-28T06:44:59.000Z</Time>
            <Position>
              <LatitudeDegrees>38.175285793840885162353515625</LatitudeDegrees>
              <LongitudeDegrees>-1.91415301524102687835693359375</LongitudeDegrees>
            </Position>
            <AltitudeMeters>812.4000244140625</AltitudeMeters>
            <DistanceMeters>32580.41099834</DistanceMeters>
          </Trackpoint>
          <Trackpoint>
            <Time>2021-08-28T06:45:00.000Z</Time>
            <Position>
              <LatitudeDegrees>38.1752480752766132354736328125</LatitudeDegrees>
              <LongitudeDegrees>-1.9141593016684055328369140625</LongitudeDegrees>
            </Position>
            <AltitudeMeters>812.5999755859375</AltitudeMeters>
            <DistanceMeters>32584.64368917</DistanceMeters>
          </Trackpoint>
          <Trackpoint>
            <Time>2021-08-28T06:45:04.000Z</Time>
            <Position>
              <LatitudeDegrees>38.17511421628296375274658203125</LatitudeDegrees>
              <LongitudeDegrees>-1.91423012875020503997802734375</LongitudeDegrees>
            </Position>
            <AltitudeMeters>813.20001220703125</AltitudeMeters>
            <DistanceMeters>32600.780053515</DistanceMeters>
          </Trackpoint>
          <Trackpoint>
            <Time>2021-08-28T06:45:05.000Z</Time>
            <Position>
              <LatitudeDegrees>38.1750874780118465423583984375</LatitudeDegrees>
              <LongitudeDegrees>-1.91425896249711513519287109375</LongitudeDegrees>
            </Position>
            <AltitudeMeters>813.5999755859375</AltitudeMeters>
            <DistanceMeters>32604.681938814</DistanceMeters>
          </Trackpoint>
          <Trackpoint>
            <Time>2021-08-28T06:45:10.000Z</Time>
            <Position>
              <LatitudeDegrees>38.17497708834707736968994140625</LatitudeDegrees>
              <LongitudeDegrees>-1.914412267506122589111328125</LongitudeDegrees>
            </Position>
            <AltitudeMeters>814.5999755859375</AltitudeMeters>
            <DistanceMeters>32622.872047693</DistanceMeters>
          </Trackpoint>
          <Trackpoint>
            <Time>2021-08-28T06:45:15.000Z</Time>
            <Position>
              <LatitudeDegrees>38.17484297789633274078369140625</LatitudeDegrees>
              <LongitudeDegrees>-1.9145388342440128326416015625</LongitudeDegrees>
            </Position>
            <AltitudeMeters>815.79998779296875</AltitudeMeters>
            <DistanceMeters>32641.457970977</DistanceMeters>
          </Trackpoint>
          <Trackpoint>
            <Time>2021-08-28T06:45:17.000Z</Time>
            <Position>
              <LatitudeDegrees>38.1747830472886562347412109375</LatitudeDegrees>
              <LongitudeDegrees>-1.91457764245569705963134765625</LongitudeDegrees>
            </Position>
            <AltitudeMeters>816</AltitudeMeters>
            <DistanceMeters>32648.94279524</DistanceMeters>
          </Trackpoint>
          <Trackpoint>
            <Time>2021-08-28T06:45:20.000Z</Time>
            <Position>
              <LatitudeDegrees>38.17469562403857707977294921875</LatitudeDegrees>
              <LongitudeDegrees>-1.91463296301662921905517578125</LongitudeDegrees>
            </Position>
            <AltitudeMeters>816.79998779296875</AltitudeMeters>
            <DistanceMeters>32659.81037868</DistanceMeters>
          </Trackpoint>
          <Trackpoint>
            <Time>2021-08-28T06:45:25.000Z</Time>
            <Position>
              <LatitudeDegrees>38.1745547242462635040283203125</LatitudeDegrees>
              <LongitudeDegrees>-1.91470705904066562652587890625</LongitudeDegrees>
            </Position>
            <AltitudeMeters>817.79998779296875</AltitudeMeters>
            <DistanceMeters>32676.780032117</DistanceMeters>
          </Trackpoint>
          <Trackpoint>
            <Time>2021-08-28T06:45:26.000Z</Time>
            <Position>
              <LatitudeDegrees>38.17453117109835147857666015625</LatitudeDegrees>
              <LongitudeDegrees>-1.91472264938056468963623046875</LongitudeDegrees>
            </Position>
            <AltitudeMeters>817.79998779296875</AltitudeMeters>
            <DistanceMeters>32679.733513765</DistanceMeters>
          </Trackpoint>
          <Trackpoint>
            <Time>2021-08-28T06:45:30.000Z</Time>
            <Position>
              <LatitudeDegrees>38.17443989217281341552734375</LatitudeDegrees>
              <LongitudeDegrees>-1.91480898298323154449462890625</LongitudeDegrees>
            </Position>
            <AltitudeMeters>818.79998779296875</AltitudeMeters>
            <DistanceMeters>32692.393483228</DistanceMeters>
          </Trackpoint>
          <Trackpoint>
            <Time>2021-08-28T06:45:32.000Z</Time>
            <Position>
              <LatitudeDegrees>38.17440108396112918853759765625</LatitudeDegrees>
              <LongitudeDegrees>-1.914859525859355926513671875</LongitudeDegrees>
            </Position>
            <AltitudeMeters>819.5999755859375</AltitudeMeters>
            <DistanceMeters>32698.575334368</DistanceMeters>
          </Trackpoint>
          <Trackpoint>
            <Time>2021-08-28T06:45:34.000Z</Time>
            <Position>
              <LatitudeDegrees>38.174359761178493499755859375</LatitudeDegrees>
              <LongitudeDegrees>-1.91491015255451202392578125</LongitudeDegrees>
            </Position>
            <AltitudeMeters>820</AltitudeMeters>
            <DistanceMeters>32704.9612427</DistanceMeters>
          </Trackpoint>
          <Trackpoint>
            <Time>2021-08-28T06:45:38.000Z</Time>
            <Position>
              <LatitudeDegrees>38.17426479421555995941162109375</LatitudeDegrees>
              <LongitudeDegrees>-1.91499455831944942474365234375</LongitudeDegrees>
            </Position>
            <AltitudeMeters>820.5999755859375</AltitudeMeters>
            <DistanceMeters>32717.856196272</DistanceMeters>
          </Trackpoint>
          <Trackpoint>
            <Time>2021-08-28T06:45:39.000Z</Time>
            <Position>
              <LatitudeDegrees>38.17423696629703044891357421875</LatitudeDegrees>
              <LongitudeDegrees>-1.91501098684966564178466796875</LongitudeDegrees>
            </Position>
            <AltitudeMeters>821.20001220703125</AltitudeMeters>
            <DistanceMeters>32721.271874648</DistanceMeters>
          </Trackpoint>
          <Trackpoint>
            <Time>2021-08-28T06:45:40.000Z</Time>
            <Position>
              <LatitudeDegrees>38.17420762963593006134033203125</LatitudeDegrees>
              <LongitudeDegrees>-1.91502791829407215118408203125</LongitudeDegrees>
            </Position>
            <AltitudeMeters>821.4000244140625</AltitudeMeters>
            <DistanceMeters>32724.857795569</DistanceMeters>
          </Trackpoint>
          <Trackpoint>
            <Time>2021-08-28T06:45:45.000Z</Time>
            <Position>
              <LatitudeDegrees>38.1740528158843517303466796875</LatitudeDegrees>
              <LongitudeDegrees>-1.91509866155683994293212890625</LongitudeDegrees>
            </Position>
            <AltitudeMeters>822.20001220703125</AltitudeMeters>
            <DistanceMeters>32743.167152683</DistanceMeters>
          </Trackpoint>
          <Trackpoint>
            <Time>2021-08-28T06:45:46.000Z</Time>
            <Position>
              <LatitudeDegrees>38.17402389831840991973876953125</LatitudeDegrees>
              <LongitudeDegrees>-1.91511291079223155975341796875</LongitudeDegrees>
            </Position>
            <AltitudeMeters>822.20001220703125</AltitudeMeters>
            <DistanceMeters>32746.617028152</DistanceMeters>
          </Trackpoint>
          <Trackpoint>
            <Time>2021-08-28T06:45:50.000Z</Time>
            <Position>
              <LatitudeDegrees>38.17391392774879932403564453125</LatitudeDegrees>
              <LongitudeDegrees>-1.91518239676952362060546875</LongitudeDegrees>
            </Position>
            <AltitudeMeters>823.20001220703125</AltitudeMeters>
            <DistanceMeters>32760.28370665</DistanceMeters>
          </Trackpoint>
          <Trackpoint>
            <Time>2021-08-28T06:45:53.000Z</Time>
            <Position>
              <LatitudeDegrees>38.17384854890406131744384765625</LatitudeDegrees>
              <LongitudeDegrees>-1.915264539420604705810546875</LongitudeDegrees>
            </Position>
            <AltitudeMeters>824.20001220703125</AltitudeMeters>
            <DistanceMeters>32770.511336166</DistanceMeters>
          </Trackpoint>
          <Trackpoint>
            <Time>2021-08-28T06:45:54.000Z</Time>
            <Position>
              <LatitudeDegrees>38.17383027635514736175537109375</LatitudeDegrees>
              <LongitudeDegrees>-1.91529865376651287078857421875</LongitudeDegrees>
            </Position>
            <AltitudeMeters>824.20001220703125</AltitudeMeters>
            <DistanceMeters>32774.12485115</DistanceMeters>
          </Trackpoint>
          <Trackpoint>
            <Time>2021-08-28T06:45:59.000Z</Time>
            <Position>
              <LatitudeDegrees>38.17375995218753814697265625</LatitudeDegrees>
              <LongitudeDegrees>-1.91547551192343235015869140625</LongitudeDegrees>
            </Position>
            <AltitudeMeters>825</AltitudeMeters>
            <DistanceMeters>32791.466901086</DistanceMeters>
          </Trackpoint>
          <Trackpoint>
            <Time>2021-08-28T06:46:00.000Z</Time>
            <Position>
              <LatitudeDegrees>38.1737443618476390838623046875</LatitudeDegrees>
              <LongitudeDegrees>-1.91551406867802143096923828125</LongitudeDegrees>
            </Position>
            <AltitudeMeters>825.20001220703125</AltitudeMeters>
            <DistanceMeters>32795.260835963</DistanceMeters>
          </Trackpoint>
          <Trackpoint>
            <Time>2021-08-28T06:46:01.000Z</Time>
            <Position>
              <LatitudeDegrees>38.17372751422226428985595703125</LatitudeDegrees>
              <LongitudeDegrees>-1.915552876889705657958984375</LongitudeDegrees>
            </Position>
            <AltitudeMeters>825.4000244140625</AltitudeMeters>
            <DistanceMeters>32799.140673257</DistanceMeters>
          </Trackpoint>
          <Trackpoint>
            <Time>2021-08-28T06:46:06.000Z</Time>
            <Position>
              <LatitudeDegrees>38.1736545078456401824951171875</LatitudeDegrees>
              <LongitudeDegrees>-1.91573753021657466888427734375</LongitudeDegrees>
            </Position>
            <AltitudeMeters>826.5999755859375</AltitudeMeters>
            <DistanceMeters>32817.226231832</DistanceMeters>
          </Trackpoint>
          <Trackpoint>
            <Time>2021-08-28T06:46:07.000Z</Time>
            <Position>
              <LatitudeDegrees>38.17364637739956378936767578125</LatitudeDegrees>
              <LongitudeDegrees>-1.91577658988535404205322265625</LongitudeDegrees>
            </Position>
            <AltitudeMeters>826.79998779296875</AltitudeMeters>
            <DistanceMeters>32820.762706895</DistanceMeters>
          </Trackpoint>
          <Trackpoint>
            <Time>2021-08-28T06:46:10.000Z</Time>
            <Position>
              <LatitudeDegrees>38.17363447509706020355224609375</LatitudeDegrees>
              <LongitudeDegrees>-1.9158923439681529998779296875</LongitudeDegrees>
            </Position>
            <AltitudeMeters>827.4000244140625</AltitudeMeters>
            <DistanceMeters>32830.977084176</DistanceMeters>
          </Trackpoint>
          <Trackpoint>
            <Time>2021-08-28T06:46:11.000Z</Time>
            <Position>
              <LatitudeDegrees>38.1736320443451404571533203125</LatitudeDegrees>
              <LongitudeDegrees>-1.9159322418272495269775390625</LongitudeDegrees>
            </Position>
            <AltitudeMeters>827.5999755859375</AltitudeMeters>
            <DistanceMeters>32834.478918526</DistanceMeters>
          </Trackpoint>
          <Trackpoint>
            <Time>2021-08-28T06:46:13.000Z</Time>
            <Position>
              <LatitudeDegrees>38.17363497801125049591064453125</LatitudeDegrees>
              <LongitudeDegrees>-1.91600457765161991119384765625</LongitudeDegrees>
            </Position>
            <AltitudeMeters>828</AltitudeMeters>
            <DistanceMeters>32840.816566356</DistanceMeters>
          </Trackpoint>
          <Trackpoint>
            <Time>2021-08-28T06:46:16.000Z</Time>
            <Position>
              <LatitudeDegrees>38.17363648675382137298583984375</LatitudeDegrees>
              <LongitudeDegrees>-1.91612242721021175384521484375</LongitudeDegrees>
            </Position>
            <AltitudeMeters>828.5999755859375</AltitudeMeters>
            <DistanceMeters>32851.129482547</DistanceMeters>
          </Trackpoint>
          <Trackpoint>
            <Time>2021-08-28T06:46:20.000Z</Time>
            <Position>
              <LatitudeDegrees>38.17361854948103427886962890625</LatitudeDegrees>
              <LongitudeDegrees>-1.91627061925828456878662109375</LongitudeDegrees>
            </Position>
            <AltitudeMeters>829.5999755859375</AltitudeMeters>
            <DistanceMeters>32864.249365061</DistanceMeters>
          </Trackpoint>
          <Trackpoint>
            <Time>2021-08-28T06:46:21.000Z</Time>
            <Position>
              <LatitudeDegrees>38.17360899411141872406005859375</LatitudeDegrees>
              <LongitudeDegrees>-1.91630490124225616455078125</LongitudeDegrees>
            </Position>
            <AltitudeMeters>830</AltitudeMeters>
            <DistanceMeters>32867.429567195</DistanceMeters>
          </Trackpoint>
          <Trackpoint>
            <Time>2021-08-28T06:46:26.000Z</Time>
            <Position>
              <LatitudeDegrees>38.17354671657085418701171875</LatitudeDegrees>
              <LongitudeDegrees>-1.9165032170712947845458984375</LongitudeDegrees>
            </Position>
            <AltitudeMeters>831</AltitudeMeters>
            <DistanceMeters>32886.115308705</DistanceMeters>
          </Trackpoint>
          <Trackpoint>
            <Time>2021-08-28T06:46:27.000Z</Time>
            <Position>
              <LatitudeDegrees>38.17353137768805027008056640625</LatitudeDegrees>
              <LongitudeDegrees>-1.91655124537646770477294921875</LongitudeDegrees>
            </Position>
            <AltitudeMeters>831.20001220703125</AltitudeMeters>
            <DistanceMeters>32890.650781574</DistanceMeters>
          </Trackpoint>
          <Trackpoint>
            <Time>2021-08-28T06:46:30.000Z</Time>
            <Position>
              <LatitudeDegrees>38.17350204102694988250732421875</LatitudeDegrees>
              <LongitudeDegrees>-1.91666523925960063934326171875</LongitudeDegrees>
            </Position>
            <AltitudeMeters>831.5999755859375</AltitudeMeters>
            <DistanceMeters>32901.145964872</DistanceMeters>
          </Trackpoint>
          <Trackpoint>
            <Time>2021-08-28T06:46:34.000Z</Time>
            <Position>
              <LatitudeDegrees>38.17347203381359577178955078125</LatitudeDegrees>
              <LongitudeDegrees>-1.91681879572570323944091796875</LongitudeDegrees>
            </Position>
            <AltitudeMeters>832</AltitudeMeters>
            <DistanceMeters>32914.991197364</DistanceMeters>
          </Trackpoint>
          <Trackpoint>
            <Time>2021-08-28T06:46:35.000Z</Time>
            <Position>
              <LatitudeDegrees>38.173469603061676025390625</LatitudeDegrees>
              <LongitudeDegrees>-1.916857101023197174072265625</LongitudeDegrees>
            </Position>
            <AltitudeMeters>832.20001220703125</AltitudeMeters>
            <DistanceMeters>32918.353585757</DistanceMeters>
          </Trackpoint>
          <Trackpoint>
            <Time>2021-08-28T06:46:39.000Z</Time>
            <Position>
              <LatitudeDegrees>38.17348611541092395782470703125</LatitudeDegrees>
              <LongitudeDegrees>-1.917016021907329559326171875</LongitudeDegrees>
            </Position>
            <AltitudeMeters>833.4000244140625</AltitudeMeters>
            <DistanceMeters>32932.379606055</DistanceMeters>
          </Trackpoint>
          <Trackpoint>
            <Time>2021-08-28T06:46:40.000Z</Time>
            <Position>
              <LatitudeDegrees>38.173495419323444366455078125</LatitudeDegrees>
              <LongitudeDegrees>-1.91705466248095035552978515625</LongitudeDegrees>
            </Position>
            <AltitudeMeters>833.5999755859375</AltitudeMeters>
            <DistanceMeters>32935.917357594</DistanceMeters>
          </Trackpoint>
          <Trackpoint>
            <Time>2021-08-28T06:46:44.000Z</Time>
            <Position>
              <LatitudeDegrees>38.1735750474035739898681640625</LatitudeDegrees>
              <LongitudeDegrees>-1.91716932691633701324462890625</LongitudeDegrees>
            </Position>
            <AltitudeMeters>834.4000244140625</AltitudeMeters>
            <DistanceMeters>32949.304325029</DistanceMeters>
          </Trackpoint>
          <Trackpoint>
            <Time>2021-08-28T06:46:45.000Z</Time>
            <Position>
              <LatitudeDegrees>38.1735938228666782379150390625</LatitudeDegrees>
              <LongitudeDegrees>-1.9171992503106594085693359375</LongitudeDegrees>
            </Position>
            <AltitudeMeters>834.5999755859375</AltitudeMeters>
            <DistanceMeters>32952.653258433</DistanceMeters>
          </Trackpoint>
          <Trackpoint>
            <Time>2021-08-28T06:46:47.000Z</Time>
            <Position>
              <LatitudeDegrees>38.1736182980239391326904296875</LatitudeDegrees>
              <LongitudeDegrees>-1.9172669760882854461669921875</LongitudeDegrees>
            </Position>
            <AltitudeMeters>835.20001220703125</AltitudeMeters>
            <DistanceMeters>32959.175580882</DistanceMeters>
          </Trackpoint>
          <Trackpoint>
            <Time>2021-08-28T06:46:50.000Z</Time>
            <Position>
              <LatitudeDegrees>38.1736478023231029510498046875</LatitudeDegrees>
              <LongitudeDegrees>-1.9173819757997989654541015625</LongitudeDegrees>
            </Position>
            <AltitudeMeters>835.5999755859375</AltitudeMeters>
            <DistanceMeters>32969.760720868</DistanceMeters>
          </Trackpoint>
          <Trackpoint>
            <Time>2021-08-28T06:46:51.000Z</Time>
            <Position>
              <LatitudeDegrees>38.173649646341800689697265625</LatitudeDegrees>
              <LongitudeDegrees>-1.91742011345922946929931640625</LongitudeDegrees>
            </Position>
            <AltitudeMeters>835.79998779296875</AltitudeMeters>
            <DistanceMeters>32973.104257115</DistanceMeters>
          </Trackpoint>
          <Trackpoint>
            <Time>2021-08-28T06:46:54.000Z</Time>
            <Position>
              <LatitudeDegrees>38.17363816313445568084716796875</LatitudeDegrees>
              <LongitudeDegrees>-1.91752170212566852569580078125</LongitudeDegrees>
            </Position>
            <AltitudeMeters>836.5999755859375</AltitudeMeters>
            <DistanceMeters>32982.085161457</DistanceMeters>
          </Trackpoint>
          <Trackpoint>
            <Time>2021-08-28T06:46:57.000Z</Time>
            <Position>
              <LatitudeDegrees>38.17361016757786273956298828125</LatitudeDegrees>
              <LongitudeDegrees>-1.9176341034471988677978515625</LongitudeDegrees>
            </Position>
            <AltitudeMeters>837.20001220703125</AltitudeMeters>
            <DistanceMeters>32992.401579487</DistanceMeters>
          </Trackpoint>
          <Trackpoint>
            <Time>2021-08-28T06:46:59.000Z</Time>
            <Position>
              <LatitudeDegrees>38.1735887937247753143310546875</LatitudeDegrees>
              <LongitudeDegrees>-1.9177105464041233062744140625</LongitudeDegrees>
            </Position>
            <AltitudeMeters>837.79998779296875</AltitudeMeters>
            <DistanceMeters>32999.501289813</DistanceMeters>
          </Trackpoint>
          <Trackpoint>
            <Time>2021-08-28T06:47:00.000Z</Time>
            <Position>
              <LatitudeDegrees>38.17357865162193775177001953125</LatitudeDegrees>
              <LongitudeDegrees>-1.91775404848158359527587890625</LongitudeDegrees>
            </Position>
            <AltitudeMeters>837.79998779296875</AltitudeMeters>
            <DistanceMeters>33003.470859486</DistanceMeters>
          </Trackpoint>
          <Trackpoint>
            <Time>2021-08-28T06:47:05.000Z</Time>
            <Position>
              <LatitudeDegrees>38.173555433750152587890625</LatitudeDegrees>
              <LongitudeDegrees>-1.91796141676604747772216796875</LongitudeDegrees>
            </Position>
            <AltitudeMeters>838.79998779296875</AltitudeMeters>
            <DistanceMeters>33021.798455716</DistanceMeters>
          </Trackpoint>
          <Trackpoint>
            <Time>2021-08-28T06:47:10.000Z</Time>
            <Position>
              <LatitudeDegrees>38.17357948981225490570068359375</LatitudeDegrees>
              <LongitudeDegrees>-1.9181494228541851043701171875</LongitudeDegrees>
            </Position>
            <AltitudeMeters>839.5999755859375</AltitudeMeters>
            <DistanceMeters>33038.465285396</DistanceMeters>
          </Trackpoint>
          <Trackpoint>
            <Time>2021-08-28T06:47:11.000Z</Time>
            <Position>
              <LatitudeDegrees>38.173587284982204437255859375</LatitudeDegrees>
              <LongitudeDegrees>-1.918188147246837615966796875</LongitudeDegrees>
            </Position>
            <AltitudeMeters>840</AltitudeMeters>
            <DistanceMeters>33041.961958601</DistanceMeters>
          </Trackpoint>
          <Trackpoint>
            <Time>2021-08-28T06:47:17.000Z</Time>
            <Position>
              <LatitudeDegrees>38.17355786450207233428955078125</LatitudeDegrees>
              <LongitudeDegrees>-1.91841638647019863128662109375</LongitudeDegrees>
            </Position>
            <AltitudeMeters>841.4000244140625</AltitudeMeters>
            <DistanceMeters>33062.199302474</DistanceMeters>
          </Trackpoint>
          <Trackpoint>
            <Time>2021-08-28T06:47:20.000Z</Time>
            <Position>
              <LatitudeDegrees>38.17348158918321132659912109375</LatitudeDegrees>
              <LongitudeDegrees>-1.9185017980635166168212890625</LongitudeDegrees>
            </Position>
            <AltitudeMeters>841.79998779296875</AltitudeMeters>
            <DistanceMeters>33073.509876862</DistanceMeters>
          </Trackpoint>
          <Trackpoint>
            <Time>2021-08-28T06:47:21.000Z</Time>
            <Position>
              <LatitudeDegrees>38.17345325835049152374267578125</LatitudeDegrees>
              <LongitudeDegrees>-1.918521411716938018798828125</LongitudeDegrees>
            </Position>
            <AltitudeMeters>841.79998779296875</AltitudeMeters>
            <DistanceMeters>33077.100830658</DistanceMeters>
          </Trackpoint>
          <Trackpoint>
            <Time>2021-08-28T06:47:23.000Z</Time>
            <Position>
              <LatitudeDegrees>38.17339207045733928680419921875</LatitudeDegrees>
              <LongitudeDegrees>-1.91853892989456653594970703125</LongitudeDegrees>
            </Position>
            <AltitudeMeters>842.4000244140625</AltitudeMeters>
            <DistanceMeters>33084.080605899</DistanceMeters>
          </Trackpoint>
          <Trackpoint>
            <Time>2021-08-28T06:47:26.000Z</Time>
            <Position>
              <LatitudeDegrees>38.173292241990566253662109375</LatitudeDegrees>
              <LongitudeDegrees>-1.91854228265583515167236328125</LongitudeDegrees>
            </Position>
            <AltitudeMeters>843</AltitudeMeters>
            <DistanceMeters>33095.195076005</DistanceMeters>
          </Trackpoint>
          <Trackpoint>
            <Time>2021-08-28T06:47:28.000Z</Time>
            <Position>
              <LatitudeDegrees>38.17323365248739719390869140625</LatitudeDegrees>
              <LongitudeDegrees>-1.91855703480541706085205078125</LongitudeDegrees>
            </Position>
            <AltitudeMeters>843.79998779296875</AltitudeMeters>
            <DistanceMeters>33101.84287219</DistanceMeters>
          </Trackpoint>
          <Trackpoint>
            <Time>2021-08-28T06:47:30.000Z</Time>
            <Position>
              <LatitudeDegrees>38.17317531444132328033447265625</LatitudeDegrees>
              <LongitudeDegrees>-1.91859039478003978729248046875</LongitudeDegrees>
            </Position>
            <AltitudeMeters>844.4000244140625</AltitudeMeters>
            <DistanceMeters>33108.962269572</DistanceMeters>
          </Trackpoint>
          <Trackpoint>
            <Time>2021-08-28T06:47:31.000Z</Time>
            <Position>
              <LatitudeDegrees>38.1731499172747135162353515625</LatitudeDegrees>
              <LongitudeDegrees>-1.91861151717603206634521484375</LongitudeDegrees>
            </Position>
            <AltitudeMeters>844.5999755859375</AltitudeMeters>
            <DistanceMeters>33112.339396539</DistanceMeters>
          </Trackpoint>
          <Trackpoint>
            <Time>2021-08-28T06:47:33.000Z</Time>
            <Position>
              <LatitudeDegrees>38.1731070019304752349853515625</LatitudeDegrees>
              <LongitudeDegrees>-1.91866801120340824127197265625</LongitudeDegrees>
            </Position>
            <AltitudeMeters>845</AltitudeMeters>
            <DistanceMeters>33119.212922559</DistanceMeters>
          </Trackpoint>
          <Trackpoint>
            <Time>2021-08-28T06:47:36.000Z</Time>
            <Position>
              <LatitudeDegrees>38.173062913119792938232421875</LatitudeDegrees>
              <LongitudeDegrees>-1.91878862679004669189453125</LongitudeDegrees>
            </Position>
            <AltitudeMeters>845.4000244140625</AltitudeMeters>
            <DistanceMeters>33130.851658605</DistanceMeters>
          </Trackpoint>
          <Trackpoint>
            <Time>2021-08-28T06:47:38.000Z</Time>
            <Position>
              <LatitudeDegrees>38.173052184283733367919921875</LatitudeDegrees>
              <LongitudeDegrees>-1.91887554712593555450439453125</LongitudeDegrees>
            </Position>
            <AltitudeMeters>846</AltitudeMeters>
            <DistanceMeters>33138.549995549</DistanceMeters>
          </Trackpoint>
          <Trackpoint>
            <Time>2021-08-28T06:47:40.000Z</Time>
            <Position>
              <LatitudeDegrees>38.17306526005268096923828125</LatitudeDegrees>
              <LongitudeDegrees>-1.91895014606416225433349609375</LongitudeDegrees>
            </Position>
            <AltitudeMeters>846.4000244140625</AltitudeMeters>
            <DistanceMeters>33145.237068043</DistanceMeters>
          </Trackpoint>
          <Trackpoint>
            <Time>2021-08-28T06:47:41.000Z</Time>
            <Position>
              <LatitudeDegrees>38.1730704568326473236083984375</LatitudeDegrees>
              <LongitudeDegrees>-1.91899071447551250457763671875</LongitudeDegrees>
            </Position>
            <AltitudeMeters>846.4000244140625</AltitudeMeters>
            <DistanceMeters>33148.835557952</DistanceMeters>
          </Trackpoint>
          <Trackpoint>
            <Time>2021-08-28T06:47:44.000Z</Time>
            <Position>
              <LatitudeDegrees>38.17309878766536712646484375</LatitudeDegrees>
              <LongitudeDegrees>-1.9191076420247554779052734375</LongitudeDegrees>
            </Position>
            <AltitudeMeters>847</AltitudeMeters>
            <DistanceMeters>33159.541573098</DistanceMeters>
          </Trackpoint>
          <Trackpoint>
            <Time>2021-08-28T06:47:49.000Z</Time>
            <Position>
              <LatitudeDegrees>38.17309870384633541107177734375</LatitudeDegrees>
              <LongitudeDegrees>-1.91929967142641544342041015625</LongitudeDegrees>
            </Position>
            <AltitudeMeters>848</AltitudeMeters>
            <DistanceMeters>33176.343844073</DistanceMeters>
          </Trackpoint>
          <Trackpoint>
            <Time>2021-08-28T06:47:50.000Z</Time>
            <Position>
              <LatitudeDegrees>38.1730902381241321563720703125</LatitudeDegrees>
              <LongitudeDegrees>-1.91933671943843364715576171875</LongitudeDegrees>
            </Position>
            <AltitudeMeters>848</AltitudeMeters>
            <DistanceMeters>33179.719633829</DistanceMeters>
          </Trackpoint>
          <Trackpoint>
            <Time>2021-08-28T06:47:56.000Z</Time>
            <Position>
              <LatitudeDegrees>38.17303651012480258941650390625</LatitudeDegrees>
              <LongitudeDegrees>-1.919547021389007568359375</LongitudeDegrees>
            </Position>
            <AltitudeMeters>849.4000244140625</AltitudeMeters>
            <DistanceMeters>33199.068249004</DistanceMeters>
          </Trackpoint>
          <Trackpoint>
            <Time>2021-08-28T06:47:57.000Z</Time>
            <Position>
              <LatitudeDegrees>38.17302594892680644989013671875</LatitudeDegrees>
              <LongitudeDegrees>-1.91958314739167690277099609375</LongitudeDegrees>
            </Position>
            <AltitudeMeters>849.4000244140625</AltitudeMeters>
            <DistanceMeters>33202.438684609</DistanceMeters>
          </Trackpoint>
          <Trackpoint>
            <Time>2021-08-28T06:48:00.000Z</Time>
            <Position>
              <LatitudeDegrees>38.17297850735485553741455078125</LatitudeDegrees>
              <LongitudeDegrees>-1.91967735998332500457763671875</LongitudeDegrees>
            </Position>
            <AltitudeMeters>850.4000244140625</AltitudeMeters>
            <DistanceMeters>33212.228742391</DistanceMeters>
          </Trackpoint>
          <Trackpoint>
            <Time>2021-08-28T06:48:02.000Z</Time>
            <Position>
              <LatitudeDegrees>38.17293022759258747100830078125</LatitudeDegrees>
              <LongitudeDegrees>-1.91972966305911540985107421875</LongitudeDegrees>
            </Position>
            <AltitudeMeters>850.5999755859375</AltitudeMeters>
            <DistanceMeters>33219.286995131</DistanceMeters>
          </Trackpoint>
          <Trackpoint>
            <Time>2021-08-28T06:48:07.000Z</Time>
            <Position>
              <LatitudeDegrees>38.17277147434651851654052734375</LatitudeDegrees>
              <LongitudeDegrees>-1.9197951257228851318359375</LongitudeDegrees>
            </Position>
            <AltitudeMeters>851.5999755859375</AltitudeMeters>
            <DistanceMeters>33237.861983445</DistanceMeters>
          </Trackpoint>
          <Trackpoint>
            <Time>2021-08-28T06:48:10.000Z</Time>
            <Position>
              <LatitudeDegrees>38.17267633974552154541015625</LatitudeDegrees>
              <LongitudeDegrees>-1.91976604051887989044189453125</LongitudeDegrees>
            </Position>
            <AltitudeMeters>852.5999755859375</AltitudeMeters>
            <DistanceMeters>33248.752807752</DistanceMeters>
          </Trackpoint>
          <Trackpoint>
            <Time>2021-08-28T06:48:13.000Z</Time>
            <Position>
              <LatitudeDegrees>38.1725819595158100128173828125</LatitudeDegrees>
              <LongitudeDegrees>-1.91971440799534320831298828125</LongitudeDegrees>
            </Position>
            <AltitudeMeters>853.20001220703125</AltitudeMeters>
            <DistanceMeters>33260.188040018</DistanceMeters>
          </Trackpoint>
          <Trackpoint>
            <Time>2021-08-28T06:48:15.000Z</Time>
            <Position>
              <LatitudeDegrees>38.172515071928501129150390625</LatitudeDegrees>
              <LongitudeDegrees>-1.9196900166571140289306640625</LongitudeDegrees>
            </Position>
            <AltitudeMeters>853.5999755859375</AltitudeMeters>
            <DistanceMeters>33267.932571492</DistanceMeters>
          </Trackpoint>
          <Trackpoint>
            <Time>2021-08-28T06:48:20.000Z</Time>
            <Position>
              <LatitudeDegrees>38.17234374582767486572265625</LatitudeDegrees>
              <LongitudeDegrees>-1.91968942992389202117919921875</LongitudeDegrees>
            </Position>
            <AltitudeMeters>854.20001220703125</AltitudeMeters>
            <DistanceMeters>33287.0012392</DistanceMeters>
          </Trackpoint>
          <Trackpoint>
            <Time>2021-08-28T06:48:24.000Z</Time>
            <Position>
              <LatitudeDegrees>38.1722282432019710540771484375</LatitudeDegrees>
              <LongitudeDegrees>-1.919786743819713592529296875</LongitudeDegrees>
            </Position>
            <AltitudeMeters>854.79998779296875</AltitudeMeters>
            <DistanceMeters>33302.421355053</DistanceMeters>
          </Trackpoint>
          <Trackpoint>
            <Time>2021-08-28T06:48:25.000Z</Time>
            <Position>
              <LatitudeDegrees>38.1722067855298519134521484375</LatitudeDegrees>
              <LongitudeDegrees>-1.91982035525143146514892578125</LongitudeDegrees>
            </Position>
            <AltitudeMeters>854.79998779296875</AltitudeMeters>
            <DistanceMeters>33306.20933492</DistanceMeters>
          </Trackpoint>
          <Trackpoint>
            <Time>2021-08-28T06:48:29.000Z</Time>
            <Position>
              <LatitudeDegrees>38.17214484326541423797607421875</LatitudeDegrees>
              <LongitudeDegrees>-1.91997106187045574188232421875</LongitudeDegrees>
            </Position>
            <AltitudeMeters>855.79998779296875</AltitudeMeters>
            <DistanceMeters>33321.090045069</DistanceMeters>
          </Trackpoint>
          <Trackpoint>
            <Time>2021-08-28T06:48:30.000Z</Time>
            <Position>
              <LatitudeDegrees>38.17213587462902069091796875</LatitudeDegrees>
              <LongitudeDegrees>-1.9200169108808040618896484375</LongitudeDegrees>
            </Position>
            <AltitudeMeters>856</AltitudeMeters>
            <DistanceMeters>33325.22343407</DistanceMeters>
          </Trackpoint>
          <Trackpoint>
            <Time>2021-08-28T06:48:31.000Z</Time>
            <Position>
              <LatitudeDegrees>38.1721353717148303985595703125</LatitudeDegrees>
              <LongitudeDegrees>-1.92005890421569347381591796875</LongitudeDegrees>
            </Position>
            <AltitudeMeters>856.20001220703125</AltitudeMeters>
            <DistanceMeters>33328.898892458</DistanceMeters>
          </Trackpoint>
          <Trackpoint>
            <Time>2021-08-28T06:48:37.000Z</Time>
            <Position>
              <LatitudeDegrees>38.172193877398967742919921875</LatitudeDegrees>
              <LongitudeDegrees>-1.92029468715190887451171875</LongitudeDegrees>
            </Position>
            <AltitudeMeters>857</AltitudeMeters>
            <DistanceMeters>33350.533284574</DistanceMeters>
          </Trackpoint>
          <Trackpoint>
            <Time>2021-08-28T06:48:40.000Z</Time>
            <Position>
              <LatitudeDegrees>38.1722396425902843475341796875</LatitudeDegrees>
              <LongitudeDegrees>-1.920409016311168670654296875</LongitudeDegrees>
            </Position>
            <AltitudeMeters>858</AltitudeMeters>
            <DistanceMeters>33361.759314453</DistanceMeters>
          </Trackpoint>
          <Trackpoint>
            <Time>2021-08-28T06:48:41.000Z</Time>
            <Position>
              <LatitudeDegrees>38.17225347273051738739013671875</LatitudeDegrees>
              <LongitudeDegrees>-1.92044899798929691314697265625</LongitudeDegrees>
            </Position>
            <AltitudeMeters>858.20001220703125</AltitudeMeters>
            <DistanceMeters>33365.58052285</DistanceMeters>
          </Trackpoint>
          <Trackpoint>
            <Time>2021-08-28T06:48:43.000Z</Time>
            <Position>
              <LatitudeDegrees>38.17227425985038280487060546875</LatitudeDegrees>
              <LongitudeDegrees>-1.92053139209747314453125</LongitudeDegrees>
            </Position>
            <AltitudeMeters>859</AltitudeMeters>
            <DistanceMeters>33373.151713329</DistanceMeters>
          </Trackpoint>
          <Trackpoint>
            <Time>2021-08-28T06:48:45.000Z</Time>
            <Position>
              <LatitudeDegrees>38.172275684773921966552734375</LatitudeDegrees>
              <LongitudeDegrees>-1.92061630077660083770751953125</LongitudeDegrees>
            </Position>
            <AltitudeMeters>859.4000244140625</AltitudeMeters>
            <DistanceMeters>33380.58265657</DistanceMeters>
          </Trackpoint>
          <Trackpoint>
            <Time>2021-08-28T06:48:49.000Z</Time>
            <Position>
              <LatitudeDegrees>38.17224207334220409393310546875</LatitudeDegrees>
              <LongitudeDegrees>-1.92076809704303741455078125</LongitudeDegrees>
            </Position>
            <AltitudeMeters>860</AltitudeMeters>
            <DistanceMeters>33394.381504054</DistanceMeters>
          </Trackpoint>
          <Trackpoint>
            <Time>2021-08-28T06:48:50.000Z</Time>
            <Position>
              <LatitudeDegrees>38.17222648300230503082275390625</LatitudeDegrees>
              <LongitudeDegrees>-1.9208001159131526947021484375</LongitudeDegrees>
            </Position>
            <AltitudeMeters>860.20001220703125</AltitudeMeters>
            <DistanceMeters>33397.676068045</DistanceMeters>
          </Trackpoint>
          <Trackpoint>
            <Time>2021-08-28T06:48:52.000Z</Time>
            <Position>
              <LatitudeDegrees>38.17218147218227386474609375</LatitudeDegrees>
              <LongitudeDegrees>-1.92085267044603824615478515625</LongitudeDegrees>
            </Position>
            <AltitudeMeters>860.4000244140625</AltitudeMeters>
            <DistanceMeters>33404.476290208</DistanceMeters>
          </Trackpoint>
          <Trackpoint>
            <Time>2021-08-28T06:48:53.000Z</Time>
            <Position>
              <LatitudeDegrees>38.1721514649689197540283203125</LatitudeDegrees>
              <LongitudeDegrees>-1.920877732336521148681640625</LongitudeDegrees>
            </Position>
            <AltitudeMeters>860.5999755859375</AltitudeMeters>
            <DistanceMeters>33408.471934731</DistanceMeters>
          </Trackpoint>
          <Trackpoint>
            <Time>2021-08-28T06:48:58.000Z</Time>
            <Position>
              <LatitudeDegrees>38.1720113195478916168212890625</LatitudeDegrees>
              <LongitudeDegrees>-1.92098275758326053619384765625</LongitudeDegrees>
            </Position>
            <AltitudeMeters>861.5999755859375</AltitudeMeters>
            <DistanceMeters>33426.575957892</DistanceMeters>
          </Trackpoint>
          <Trackpoint>
            <Time>2021-08-28T06:49:00.000Z</Time>
            <Position>
              <LatitudeDegrees>38.17196614108979701995849609375</LatitudeDegrees>
              <LongitudeDegrees>-1.921031959354877471923828125</LongitudeDegrees>
            </Position>
            <AltitudeMeters>862</AltitudeMeters>
            <DistanceMeters>33433.195849204</DistanceMeters>
          </Trackpoint>
          <Trackpoint>
            <Time>2021-08-28T06:49:01.000Z</Time>
            <Position>
              <LatitudeDegrees>38.1719486229121685028076171875</LatitudeDegrees>
              <LongitudeDegrees>-1.92105777561664581298828125</LongitudeDegrees>
            </Position>
            <AltitudeMeters>862.20001220703125</AltitudeMeters>
            <DistanceMeters>33436.179748561</DistanceMeters>
          </Trackpoint>
          <Trackpoint>
            <Time>2021-08-28T06:49:05.000Z</Time>
            <Position>
              <LatitudeDegrees>38.17189975641667842864990234375</LatitudeDegrees>
              <LongitudeDegrees>-1.9211890362203121185302734375</LongitudeDegrees>
            </Position>
            <AltitudeMeters>863</AltitudeMeters>
            <DistanceMeters>33448.888483639</DistanceMeters>
          </Trackpoint>
          <Trackpoint>
            <Time>2021-08-28T06:49:07.000Z</Time>
            <Position>
              <LatitudeDegrees>38.1718859262764453887939453125</LatitudeDegrees>
              <LongitudeDegrees>-1.92126371897757053375244140625</LongitudeDegrees>
            </Position>
            <AltitudeMeters>863.5999755859375</AltitudeMeters>
            <DistanceMeters>33455.602509376</DistanceMeters>
          </Trackpoint>
          <Trackpoint>
            <Time>2021-08-28T06:49:09.000Z</Time>
            <Position>
              <LatitudeDegrees>38.17188248969614505767822265625</LatitudeDegrees>
              <LongitudeDegrees>-1.92133412696421146392822265625</LongitudeDegrees>
            </Position>
            <AltitudeMeters>864</AltitudeMeters>
            <DistanceMeters>33461.775589855</DistanceMeters>
          </Trackpoint>
          <Trackpoint>
            <Time>2021-08-28T06:49:10.000Z</Time>
            <Position>
              <LatitudeDegrees>38.1718808971345424652099609375</LatitudeDegrees>
              <LongitudeDegrees>-1.92137134261429309844970703125</LongitudeDegrees>
            </Position>
            <AltitudeMeters>864.4000244140625</AltitudeMeters>
            <DistanceMeters>33465.037097183</DistanceMeters>
          </Trackpoint>
          <Trackpoint>
            <Time>2021-08-28T06:49:13.000Z</Time>
            <Position>
              <LatitudeDegrees>38.17186555825173854827880859375</LatitudeDegrees>
              <LongitudeDegrees>-1.9214902818202972412109375</LongitudeDegrees>
            </Position>
            <AltitudeMeters>864.79998779296875</AltitudeMeters>
            <DistanceMeters>33475.583350146</DistanceMeters>
          </Trackpoint>
          <Trackpoint>
            <Time>2021-08-28T06:49:14.000Z</Time>
            <Position>
              <LatitudeDegrees>38.17185583524405956268310546875</LatitudeDegrees>
              <LongitudeDegrees>-1.921526156365871429443359375</LongitudeDegrees>
            </Position>
            <AltitudeMeters>865.20001220703125</AltitudeMeters>
            <DistanceMeters>33478.902490586</DistanceMeters>
          </Trackpoint>
          <Trackpoint>
            <Time>2021-08-28T06:49:18.000Z</Time>
            <Position>
              <LatitudeDegrees>38.171770088374614715576171875</LatitudeDegrees>
              <LongitudeDegrees>-1.92164559848606586456298828125</LongitudeDegrees>
            </Position>
            <AltitudeMeters>866</AltitudeMeters>
            <DistanceMeters>33493.05541098</DistanceMeters>
          </Trackpoint>
          <Trackpoint>
            <Time>2021-08-28T06:49:19.000Z</Time>
            <Position>
              <LatitudeDegrees>38.1717444397509098052978515625</LatitudeDegrees>
              <LongitudeDegrees>-1.92166521213948726654052734375</LongitudeDegrees>
            </Position>
            <AltitudeMeters>866.20001220703125</AltitudeMeters>
            <DistanceMeters>33496.385416066</DistanceMeters>
          </Trackpoint>
          <Trackpoint>
            <Time>2021-08-28T06:49:20.000Z</Time>
            <Position>
              <LatitudeDegrees>38.17171786911785602569580078125</LatitudeDegrees>
              <LongitudeDegrees>-1.92168013192713260650634765625</LongitudeDegrees>
            </Position>
            <AltitudeMeters>866.5999755859375</AltitudeMeters>
            <DistanceMeters>33499.617721504</DistanceMeters>
          </Trackpoint>
          <Trackpoint>
            <Time>2021-08-28T06:49:22.000Z</Time>
            <Position>
              <LatitudeDegrees>38.17165751941502094268798828125</LatitudeDegrees>
              <LongitudeDegrees>-1.92170125432312488555908203125</LongitudeDegrees>
            </Position>
            <AltitudeMeters>867.4000244140625</AltitudeMeters>
            <DistanceMeters>33506.583899137</DistanceMeters>
          </Trackpoint>
          <Trackpoint>
            <Time>2021-08-28T06:49:24.000Z</Time>
            <Position>
              <LatitudeDegrees>38.17159549333155155181884765625</LatitudeDegrees>
              <LongitudeDegrees>-1.92173511721193790435791015625</LongitudeDegrees>
            </Position>
            <AltitudeMeters>868</AltitudeMeters>
            <DistanceMeters>33514.096420536</DistanceMeters>
          </Trackpoint>
          <Trackpoint>
            <Time>2021-08-28T06:49:27.000Z</Time>
            <Position>
              <LatitudeDegrees>38.171516619622707366943359375</LatitudeDegrees>
              <LongitudeDegrees>-1.92181013524532318115234375</LongitudeDegrees>
            </Position>
            <AltitudeMeters>868.4000244140625</AltitudeMeters>
            <DistanceMeters>33525.057907532</DistanceMeters>
          </Trackpoint>
          <Trackpoint>
            <Time>2021-08-28T06:49:29.000Z</Time>
            <Position>
              <LatitudeDegrees>38.17148451693356037139892578125</LatitudeDegrees>
              <LongitudeDegrees>-1.9218602590262889862060546875</LongitudeDegrees>
            </Position>
            <AltitudeMeters>868.79998779296875</AltitudeMeters>
            <DistanceMeters>33530.714990784</DistanceMeters>
          </Trackpoint>
          <Trackpoint>
            <Time>2021-08-28T06:49:30.000Z</Time>
            <Position>
              <LatitudeDegrees>38.171467669308185577392578125</LatitudeDegrees>
              <LongitudeDegrees>-1.92188431508839130401611328125</LongitudeDegrees>
            </Position>
            <AltitudeMeters>868.79998779296875</AltitudeMeters>
            <DistanceMeters>33533.533938685</DistanceMeters>
          </Trackpoint>
          <Trackpoint>
            <Time>2021-08-28T06:49:33.000Z</Time>
            <Position>
              <LatitudeDegrees>38.1714017875492572784423828125</LatitudeDegrees>
              <LongitudeDegrees>-1.9219625182449817657470703125</LongitudeDegrees>
            </Position>
            <AltitudeMeters>869.5999755859375</AltitudeMeters>
            <DistanceMeters>33543.563647135</DistanceMeters>
          </Trackpoint>
          <Trackpoint>
            <Time>2021-08-28T06:49:35.000Z</Time>
            <Position>
              <LatitudeDegrees>38.17135476507246494293212890625</LatitudeDegrees>
              <LongitudeDegrees>-1.92200082354247570037841796875</LongitudeDegrees>
            </Position>
            <AltitudeMeters>869.79998779296875</AltitudeMeters>
            <DistanceMeters>33549.778278013</DistanceMeters>
          </Trackpoint>
          <Trackpoint>
            <Time>2021-08-28T06:49:39.000Z</Time>
            <Position>
              <LatitudeDegrees>38.17124127410352230072021484375</LatitudeDegrees>
              <LongitudeDegrees>-1.9220738299190998077392578125</LongitudeDegrees>
            </Position>
            <AltitudeMeters>870.79998779296875</AltitudeMeters>
            <DistanceMeters>33563.933750322</DistanceMeters>
          </Trackpoint>
          <Trackpoint>
            <Time>2021-08-28T06:49:40.000Z</Time>
            <Position>
              <LatitudeDegrees>38.17121227271854877471923828125</LatitudeDegrees>
              <LongitudeDegrees>-1.9220912642776966094970703125</LongitudeDegrees>
            </Position>
            <AltitudeMeters>871</AltitudeMeters>
            <DistanceMeters>33567.50453006</DistanceMeters>
          </Trackpoint>
          <Trackpoint>
            <Time>2021-08-28T06:49:42.000Z</Time>
            <Position>
              <LatitudeDegrees>38.1711520068347454071044921875</LatitudeDegrees>
              <LongitudeDegrees>-1.9221288152039051055908203125</LongitudeDegrees>
            </Position>
            <AltitudeMeters>871.4000244140625</AltitudeMeters>
            <DistanceMeters>33574.97365399</DistanceMeters>
          </Trackpoint>
          <Trackpoint>
            <Time>2021-08-28T06:49:43.000Z</Time>
            <Position>
              <LatitudeDegrees>38.17112426273524761199951171875</LatitudeDegrees>
              <LongitudeDegrees>-1.92214717157185077667236328125</LongitudeDegrees>
            </Position>
            <AltitudeMeters>871.79998779296875</AltitudeMeters>
            <DistanceMeters>33578.454797852</DistanceMeters>
          </Trackpoint>
          <Trackpoint>
            <Time>2021-08-28T06:49:47.000Z</Time>
            <Position>
              <LatitudeDegrees>38.171019069850444793701171875</LatitudeDegrees>
              <LongitudeDegrees>-1.9222092814743518829345703125</LongitudeDegrees>
            </Position>
            <AltitudeMeters>872.4000244140625</AltitudeMeters>
            <DistanceMeters>33591.363049885</DistanceMeters>
          </Trackpoint>
          <Trackpoint>
            <Time>2021-08-28T06:49:48.000Z</Time>
            <Position>
              <LatitudeDegrees>38.1709947623312473297119140625</LatitudeDegrees>
              <LongitudeDegrees>-1.92222864367067813873291015625</LongitudeDegrees>
            </Position>
            <AltitudeMeters>872.79998779296875</AltitudeMeters>
            <DistanceMeters>33594.554589674</DistanceMeters>
          </Trackpoint>
          <Trackpoint>
            <Time>2021-08-28T06:49:50.000Z</Time>
            <Position>
              <LatitudeDegrees>38.17094254307448863983154296875</LatitudeDegrees>
              <LongitudeDegrees>-1.9222739897668361663818359375</LongitudeDegrees>
            </Position>
            <AltitudeMeters>873.20001220703125</AltitudeMeters>
            <DistanceMeters>33601.591701242</DistanceMeters>
          </Trackpoint>
          <Trackpoint>
            <Time>2021-08-28T06:49:54.000Z</Time>
            <Position>
              <LatitudeDegrees>38.17084011621773242950439453125</LatitudeDegrees>
              <LongitudeDegrees>-1.922352612018585205078125</LongitudeDegrees>
            </Position>
            <AltitudeMeters>873.79998779296875</AltitudeMeters>
            <DistanceMeters>33614.906975212</DistanceMeters>
          </Trackpoint>
          <Trackpoint>
            <Time>2021-08-28T06:49:55.000Z</Time>
            <Position>
              <LatitudeDegrees>38.1708153896033763885498046875</LatitudeDegrees>
              <LongitudeDegrees>-1.9223712198436260223388671875</LongitudeDegrees>
            </Position>
            <AltitudeMeters>874</AltitudeMeters>
            <DistanceMeters>33618.105580629</DistanceMeters>
          </Trackpoint>
          <Trackpoint>
            <Time>2021-08-28T06:50:00.000Z</Time>
            <Position>
              <LatitudeDegrees>38.1706997193396091461181640625</LatitudeDegrees>
              <LongitudeDegrees>-1.9224746525287628173828125</LongitudeDegrees>
            </Position>
            <AltitudeMeters>875</AltitudeMeters>
            <DistanceMeters>33633.84276197</DistanceMeters>
          </Trackpoint>
          <Trackpoint>
            <Time>2021-08-28T06:50:03.000Z</Time>
            <Position>
              <LatitudeDegrees>38.1706511043012142181396484375</LatitudeDegrees>
              <LongitudeDegrees>-1.92256777547299861907958984375</LongitudeDegrees>
            </Position>
            <AltitudeMeters>875.5999755859375</AltitudeMeters>
            <DistanceMeters>33643.624053292</DistanceMeters>
          </Trackpoint>
          <Trackpoint>
            <Time>2021-08-28T06:50:05.000Z</Time>
            <Position>
              <LatitudeDegrees>38.17062570713460445404052734375</LatitudeDegrees>
              <LongitudeDegrees>-1.92263298667967319488525390625</LongitudeDegrees>
            </Position>
            <AltitudeMeters>876</AltitudeMeters>
            <DistanceMeters>33649.992261306</DistanceMeters>
          </Trackpoint>
          <Trackpoint>
            <Time>2021-08-28T06:50:09.000Z</Time>
            <Position>
              <LatitudeDegrees>38.17058782093226909637451171875</LatitudeDegrees>
              <LongitudeDegrees>-1.9227735511958599090576171875</LongitudeDegrees>
            </Position>
            <AltitudeMeters>877.20001220703125</AltitudeMeters>
            <DistanceMeters>33662.994610754</DistanceMeters>
          </Trackpoint>
          <Trackpoint>
            <Time>2021-08-28T06:50:10.000Z</Time>
            <Position>
              <LatitudeDegrees>38.17058019340038299560546875</LatitudeDegrees>
              <LongitudeDegrees>-1.922801546752452850341796875</LongitudeDegrees>
            </Position>
            <AltitudeMeters>877.4000244140625</AltitudeMeters>
            <DistanceMeters>33665.586593947</DistanceMeters>
          </Trackpoint>
          <Trackpoint>
            <Time>2021-08-28T06:50:14.000Z</Time>
            <Position>
              <LatitudeDegrees>38.17053015343844890594482421875</LatitudeDegrees>
              <LongitudeDegrees>-1.922970525920391082763671875</LongitudeDegrees>
            </Position>
            <AltitudeMeters>878.20001220703125</AltitudeMeters>
            <DistanceMeters>33681.386767787</DistanceMeters>
          </Trackpoint>
          <Trackpoint>
            <Time>2021-08-28T06:50:15.000Z</Time>
            <Position>
              <LatitudeDegrees>38.17051841877400875091552734375</LatitudeDegrees>
              <LongitudeDegrees>-1.923008076846599578857421875</LongitudeDegrees>
            </Position>
            <AltitudeMeters>878.4000244140625</AltitudeMeters>
            <DistanceMeters>33684.921965914</DistanceMeters>
          </Trackpoint>
          <Trackpoint>
            <Time>2021-08-28T06:50:19.000Z</Time>
            <Position>
              <LatitudeDegrees>38.17048405297100543975830078125</LatitudeDegrees>
              <LongitudeDegrees>-1.923152916133403778076171875</LongitudeDegrees>
            </Position>
            <AltitudeMeters>879.4000244140625</AltitudeMeters>
            <DistanceMeters>33698.160384386</DistanceMeters>
          </Trackpoint>
          <Trackpoint>
            <Time>2021-08-28T06:50:20.000Z</Time>
            <Position>
              <LatitudeDegrees>38.17047500051558017730712890625</LatitudeDegrees>
              <LongitudeDegrees>-1.92319390363991260528564453125</LongitudeDegrees>
            </Position>
            <AltitudeMeters>879.5999755859375</AltitudeMeters>
            <DistanceMeters>33701.885867911</DistanceMeters>
          </Trackpoint>
          <Trackpoint>
            <Time>2021-08-28T06:50:24.000Z</Time>
            <Position>
              <LatitudeDegrees>38.170463852584362030029296875</LatitudeDegrees>
              <LongitudeDegrees>-1.923354752361774444580078125</LongitudeDegrees>
            </Position>
            <AltitudeMeters>880.5999755859375</AltitudeMeters>
            <DistanceMeters>33716.015161241</DistanceMeters>
          </Trackpoint>
          <Trackpoint>
            <Time>2021-08-28T06:50:27.000Z</Time>
            <Position>
              <LatitudeDegrees>38.17047349177300930023193359375</LatitudeDegrees>
              <LongitudeDegrees>-1.9234699197113513946533203125</LongitudeDegrees>
            </Position>
            <AltitudeMeters>881.5999755859375</AltitudeMeters>
            <DistanceMeters>33726.149215682</DistanceMeters>
          </Trackpoint>
          <Trackpoint>
            <Time>2021-08-28T06:50:30.000Z</Time>
            <Position>
              <LatitudeDegrees>38.17048589698970317840576171875</LatitudeDegrees>
              <LongitudeDegrees>-1.923586092889308929443359375</LongitudeDegrees>
            </Position>
            <AltitudeMeters>882.20001220703125</AltitudeMeters>
            <DistanceMeters>33736.408580722</DistanceMeters>
          </Trackpoint>
          <Trackpoint>
            <Time>2021-08-28T06:50:34.000Z</Time>
            <Position>
              <LatitudeDegrees>38.17049528472125530242919921875</LatitudeDegrees>
              <LongitudeDegrees>-1.92374023608863353729248046875</LongitudeDegrees>
            </Position>
            <AltitudeMeters>883</AltitudeMeters>
            <DistanceMeters>33749.937127923</DistanceMeters>
          </Trackpoint>
          <Trackpoint>
            <Time>2021-08-28T06:50:35.000Z</Time>
            <Position>
              <LatitudeDegrees>38.1704935245215892791748046875</LatitudeDegrees>
              <LongitudeDegrees>-1.9237740151584148406982421875</LongitudeDegrees>
            </Position>
            <AltitudeMeters>883.20001220703125</AltitudeMeters>
            <DistanceMeters>33752.899767675</DistanceMeters>
          </Trackpoint>
          <Trackpoint>
            <Time>2021-08-28T06:50:38.000Z</Time>
            <Position>
              <LatitudeDegrees>38.1704724021255970001220703125</LatitudeDegrees>
              <LongitudeDegrees>-1.92387199960649013519287109375</LongitudeDegrees>
            </Position>
            <AltitudeMeters>884</AltitudeMeters>
            <DistanceMeters>33761.790734394</DistanceMeters>
          </Trackpoint>
          <Trackpoint>
            <Time>2021-08-28T06:50:40.000Z</Time>
            <Position>
              <LatitudeDegrees>38.17043996416032314300537109375</LatitudeDegrees>
              <LongitudeDegrees>-1.92393654026091098785400390625</LongitudeDegrees>
            </Position>
            <AltitudeMeters>884.79998779296875</AltitudeMeters>
            <DistanceMeters>33768.49399184</DistanceMeters>
          </Trackpoint>
          <Trackpoint>
            <Time>2021-08-28T06:50:41.000Z</Time>
            <Position>
              <LatitudeDegrees>38.17041833885014057159423828125</LatitudeDegrees>
              <LongitudeDegrees>-1.92397073842585086822509765625</LongitudeDegrees>
            </Position>
            <AltitudeMeters>885</AltitudeMeters>
            <DistanceMeters>33772.332882924</DistanceMeters>
          </Trackpoint>
          <Trackpoint>
            <Time>2021-08-28T06:50:42.000Z</Time>
            <Position>
              <LatitudeDegrees>38.17039503715932369232177734375</LatitudeDegrees>
              <LongitudeDegrees>-1.92400560714304447174072265625</LongitudeDegrees>
            </Position>
            <AltitudeMeters>885.20001220703125</AltitudeMeters>
            <DistanceMeters>33776.337557164</DistanceMeters>
          </Trackpoint>
          <Trackpoint>
            <Time>2021-08-28T06:50:47.000Z</Time>
            <Position>
              <LatitudeDegrees>38.17028456367552280426025390625</LatitudeDegrees>
              <LongitudeDegrees>-1.9241468422114849090576171875</LongitudeDegrees>
            </Position>
            <AltitudeMeters>886.20001220703125</AltitudeMeters>
            <DistanceMeters>33793.771269131</DistanceMeters>
          </Trackpoint>
          <Trackpoint>
            <Time>2021-08-28T06:50:49.000Z</Time>
            <Position>
              <LatitudeDegrees>38.17023829557001590728759765625</LatitudeDegrees>
              <LongitudeDegrees>-1.9241984747350215911865234375</LongitudeDegrees>
            </Position>
            <AltitudeMeters>886.5999755859375</AltitudeMeters>
            <DistanceMeters>33800.621765994</DistanceMeters>
          </Trackpoint>
          <Trackpoint>
            <Time>2021-08-28T06:50:50.000Z</Time>
            <Position>
              <LatitudeDegrees>38.1702122278511524200439453125</LatitudeDegrees>
              <LongitudeDegrees>-1.924219429492950439453125</LongitudeDegrees>
            </Position>
            <AltitudeMeters>887</AltitudeMeters>
            <DistanceMeters>33804.053269991</DistanceMeters>
          </Trackpoint>
          <Trackpoint>
            <Time>2021-08-28T06:50:52.000Z</Time>
            <Position>
              <LatitudeDegrees>38.17015481181442737579345703125</LatitudeDegrees>
              <LongitudeDegrees>-1.92425756715238094329833984375</LongitudeDegrees>
            </Position>
            <AltitudeMeters>887.4000244140625</AltitudeMeters>
            <DistanceMeters>33811.262785926</DistanceMeters>
          </Trackpoint>
          <Trackpoint>
            <Time>2021-08-28T06:50:55.000Z</Time>
            <Position>
              <LatitudeDegrees>38.1700618565082550048828125</LatitudeDegrees>
              <LongitudeDegrees>-1.92430282942950725555419921875</LongitudeDegrees>
            </Position>
            <AltitudeMeters>887.79998779296875</AltitudeMeters>
            <DistanceMeters>33822.34104251</DistanceMeters>
          </Trackpoint>
          <Trackpoint>
            <Time>2021-08-28T06:50:58.000Z</Time>
            <Position>
              <LatitudeDegrees>38.1699627824127674102783203125</LatitudeDegrees>
              <LongitudeDegrees>-1.92434792406857013702392578125</LongitudeDegrees>
            </Position>
            <AltitudeMeters>888.4000244140625</AltitudeMeters>
            <DistanceMeters>33834.052868209</DistanceMeters>
          </Trackpoint>
          <Trackpoint>
            <Time>2021-08-28T06:51:00.000Z</Time>
            <Position>
              <LatitudeDegrees>38.1699020974338054656982421875</LatitudeDegrees>
              <LongitudeDegrees>-1.92437223158776760101318359375</LongitudeDegrees>
            </Position>
            <AltitudeMeters>888.79998779296875</AltitudeMeters>
            <DistanceMeters>33841.134749637</DistanceMeters>
          </Trackpoint>
          <Trackpoint>
            <Time>2021-08-28T06:51:03.000Z</Time>
            <Position>
              <LatitudeDegrees>38.1698212958872318267822265625</LatitudeDegrees>
              <LongitudeDegrees>-1.92441833205521106719970703125</LongitudeDegrees>
            </Position>
            <AltitudeMeters>889.4000244140625</AltitudeMeters>
            <DistanceMeters>33850.991910615</DistanceMeters>
          </Trackpoint>
          <Trackpoint>
            <Time>2021-08-28T06:51:04.000Z</Time>
            <Position>
              <LatitudeDegrees>38.1697961501777172088623046875</LatitudeDegrees>
              <LongitudeDegrees>-1.92443333566188812255859375</LongitudeDegrees>
            </Position>
            <AltitudeMeters>889.4000244140625</AltitudeMeters>
            <DistanceMeters>33854.082836185</DistanceMeters>
          </Trackpoint>
          <Trackpoint>
            <Time>2021-08-28T06:51:08.000Z</Time>
            <Position>
              <LatitudeDegrees>38.1696948967874050140380859375</LatitudeDegrees>
              <LongitudeDegrees>-1.92450684495270252227783203125</LongitudeDegrees>
            </Position>
            <AltitudeMeters>890.5999755859375</AltitudeMeters>
            <DistanceMeters>33867.059115908</DistanceMeters>
          </Trackpoint>
          <Trackpoint>
            <Time>2021-08-28T06:51:10.000Z</Time>
            <Position>
              <LatitudeDegrees>38.16964971832931041717529296875</LatitudeDegrees>
              <LongitudeDegrees>-1.92454607225954532623291015625</LongitudeDegrees>
            </Position>
            <AltitudeMeters>890.79998779296875</AltitudeMeters>
            <DistanceMeters>33873.148245064</DistanceMeters>
          </Trackpoint>
          <Trackpoint>
            <Time>2021-08-28T06:51:13.000Z</Time>
            <Position>
              <LatitudeDegrees>38.16957629285752773284912109375</LatitudeDegrees>
              <LongitudeDegrees>-1.92462452687323093414306640625</LongitudeDegrees>
            </Position>
            <AltitudeMeters>891.5999755859375</AltitudeMeters>
            <DistanceMeters>33883.821314647</DistanceMeters>
          </Trackpoint>
          <Trackpoint>
            <Time>2021-08-28T06:51:16.000Z</Time>
            <Position>
              <LatitudeDegrees>38.16952340304851531982421875</LatitudeDegrees>
              <LongitudeDegrees>-1.92470968700945377349853515625</LongitudeDegrees>
            </Position>
            <AltitudeMeters>892.20001220703125</AltitudeMeters>
            <DistanceMeters>33893.317331885</DistanceMeters>
          </Trackpoint>
          <Trackpoint>
            <Time>2021-08-28T06:51:19.000Z</Time>
            <Position>
              <LatitudeDegrees>38.16951108165085315704345703125</LatitudeDegrees>
              <LongitudeDegrees>-1.92482485435903072357177734375</LongitudeDegrees>
            </Position>
            <AltitudeMeters>892.5999755859375</AltitudeMeters>
            <DistanceMeters>33903.48741033</DistanceMeters>
          </Trackpoint>
          <Trackpoint>
            <Time>2021-08-28T06:51:20.000Z</Time>
            <Position>
              <LatitudeDegrees>38.1695066392421722412109375</LatitudeDegrees>
              <LongitudeDegrees>-1.92486424930393695831298828125</LongitudeDegrees>
            </Position>
            <AltitudeMeters>892.79998779296875</AltitudeMeters>
            <DistanceMeters>33906.968554192</DistanceMeters>
          </Trackpoint>
          <Trackpoint>
            <Time>2021-08-28T06:51:21.000Z</Time>
            <Position>
              <LatitudeDegrees>38.16950286738574504852294921875</LatitudeDegrees>
              <LongitudeDegrees>-1.92490406334400177001953125</LongitudeDegrees>
            </Position>
            <AltitudeMeters>893.4000244140625</AltitudeMeters>
            <DistanceMeters>33910.476829294</DistanceMeters>
          </Trackpoint>
          <Trackpoint>
            <Time>2021-08-28T06:51:22.000Z</Time>
            <Position>
              <LatitudeDegrees>38.1695001013576984405517578125</LatitudeDegrees>
              <LongitudeDegrees>-1.92494505085051059722900390625</LongitudeDegrees>
            </Position>
            <AltitudeMeters>893.79998779296875</AltitudeMeters>
            <DistanceMeters>33914.077827736</DistanceMeters>
          </Trackpoint>
          <Trackpoint>
            <Time>2021-08-28T06:51:28.000Z</Time>
            <Position>
              <LatitudeDegrees>38.16948493011295795440673828125</LatitudeDegrees>
              <LongitudeDegrees>-1.9251747988164424896240234375</LongitudeDegrees>
            </Position>
            <AltitudeMeters>894.79998779296875</AltitudeMeters>
            <DistanceMeters>33934.252381896</DistanceMeters>
          </Trackpoint>
          <Trackpoint>
            <Time>2021-08-28T06:51:30.000Z</Time>
            <Position>
              <LatitudeDegrees>38.1694809906184673309326171875</LatitudeDegrees>
              <LongitudeDegrees>-1.92523992620408535003662109375</LongitudeDegrees>
            </Position>
            <AltitudeMeters>895.4000244140625</AltitudeMeters>
            <DistanceMeters>33939.968220992</DistanceMeters>
          </Trackpoint>
          <Trackpoint>
            <Time>2021-08-28T06:51:33.000Z</Time>
            <Position>
              <LatitudeDegrees>38.16946648992598056793212890625</LatitudeDegrees>
              <LongitudeDegrees>-1.92534386180341243743896484375</LongitudeDegrees>
            </Position>
            <AltitudeMeters>896</AltitudeMeters>
            <DistanceMeters>33949.205384643</DistanceMeters>
          </Trackpoint>
          <Trackpoint>
            <Time>2021-08-28T06:51:35.000Z</Time>
            <Position>
              <LatitudeDegrees>38.16945408470928668975830078125</LatitudeDegrees>
              <LongitudeDegrees>-1.9254161976277828216552734375</LongitudeDegrees>
            </Position>
            <AltitudeMeters>896.5999755859375</AltitudeMeters>
            <DistanceMeters>33955.683948937</DistanceMeters>
          </Trackpoint>
          <Trackpoint>
            <Time>2021-08-28T06:51:38.000Z</Time>
            <Position>
              <LatitudeDegrees>38.1694236584007740020751953125</LatitudeDegrees>
              <LongitudeDegrees>-1.92552340216934680938720703125</LongitudeDegrees>
            </Position>
            <AltitudeMeters>897.20001220703125</AltitudeMeters>
            <DistanceMeters>33965.657680541</DistanceMeters>
          </Trackpoint>
          <Trackpoint>
            <Time>2021-08-28T06:51:40.000Z</Time>
            <Position>
              <LatitudeDegrees>38.16938904114067554473876953125</LatitudeDegrees>
              <LongitudeDegrees>-1.92559582181274890899658203125</LongitudeDegrees>
            </Position>
            <AltitudeMeters>897.4000244140625</AltitudeMeters>
            <DistanceMeters>33973.074027055</DistanceMeters>
          </Trackpoint>
          <Trackpoint>
            <Time>2021-08-28T06:51:41.000Z</Time>
            <Position>
              <LatitudeDegrees>38.169365823268890380859375</LatitudeDegrees>
              <LongitudeDegrees>-1.92562767304480075836181640625</LongitudeDegrees>
            </Position>
            <AltitudeMeters>897.5999755859375</AltitudeMeters>
            <DistanceMeters>33976.873907611</DistanceMeters>
          </Trackpoint>
          <Trackpoint>
            <Time>2021-08-28T06:51:43.000Z</Time>
            <Position>
              <LatitudeDegrees>38.16931360401213169097900390625</LatitudeDegrees>
              <LongitudeDegrees>-1.92568995058536529541015625</LongitudeDegrees>
            </Position>
            <AltitudeMeters>898.20001220703125</AltitudeMeters>
            <DistanceMeters>33984.840864829</DistanceMeters>
          </Trackpoint>
          <Trackpoint>
            <Time>2021-08-28T06:51:46.000Z</Time>
            <Position>
              <LatitudeDegrees>38.16923464648425579071044921875</LatitudeDegrees>
              <LongitudeDegrees>-1.9257484562695026397705078125</LongitudeDegrees>
            </Position>
            <AltitudeMeters>898.5999755859375</AltitudeMeters>
            <DistanceMeters>33995.011387218</DistanceMeters>
          </Trackpoint>
          <Trackpoint>
            <Time>2021-08-28T06:51:48.000Z</Time>
            <Position>
              <LatitudeDegrees>38.1691815890371799468994140625</LatitudeDegrees>
              <LongitudeDegrees>-1.925788186490535736083984375</LongitudeDegrees>
            </Position>
            <AltitudeMeters>899.20001220703125</AltitudeMeters>
            <DistanceMeters>34001.863861042</DistanceMeters>
          </Trackpoint>
          <Trackpoint>
            <Time>2021-08-28T06:51:50.000Z</Time>
            <Position>
              <LatitudeDegrees>38.16912836395204067230224609375</LatitudeDegrees>
              <LongitudeDegrees>-1.92582967691123485565185546875</LongitudeDegrees>
            </Position>
            <AltitudeMeters>899.5999755859375</AltitudeMeters>
            <DistanceMeters>34008.811867135</DistanceMeters>
          </Trackpoint>
          <Trackpoint>
            <Time>2021-08-28T06:51:54.000Z</Time>
            <Position>
              <LatitudeDegrees>38.169036246836185455322265625</LatitudeDegrees>
              <LongitudeDegrees>-1.92593528889119625091552734375</LongitudeDegrees>
            </Position>
            <AltitudeMeters>900.5999755859375</AltitudeMeters>
            <DistanceMeters>34022.614640509</DistanceMeters>
          </Trackpoint>
          <Trackpoint>
            <Time>2021-08-28T06:51:58.000Z</Time>
            <Position>
              <LatitudeDegrees>38.16899576224386692047119140625</LatitudeDegrees>
              <LongitudeDegrees>-1.926086582243442535400390625</LongitudeDegrees>
            </Position>
            <AltitudeMeters>901.5999755859375</AltitudeMeters>
            <DistanceMeters>34036.599396339</DistanceMeters>
          </Trackpoint>
          <Trackpoint>
            <Time>2021-08-28T06:51:59.000Z</Time>
            <Position>
              <LatitudeDegrees>38.16898905672132968902587890625</LatitudeDegrees>
              <LongitudeDegrees>-1.9261316768825054168701171875</LongitudeDegrees>
            </Position>
            <AltitudeMeters>902</AltitudeMeters>
            <DistanceMeters>34040.615329174</DistanceMeters>
          </Trackpoint>
          <Trackpoint>
            <Time>2021-08-28T06:52:00.000Z</Time>
            <Position>
              <LatitudeDegrees>38.16898620687425136566162109375</LatitudeDegrees>
              <LongitudeDegrees>-1.9261725805699825286865234375</LongitudeDegrees>
            </Position>
            <AltitudeMeters>902.20001220703125</AltitudeMeters>
            <DistanceMeters>34044.208796763</DistanceMeters>
          </Trackpoint>
          <Trackpoint>
            <Time>2021-08-28T06:52:02.000Z</Time>
            <Position>
              <LatitudeDegrees>38.1689777411520481109619140625</LatitudeDegrees>
              <LongitudeDegrees>-1.92624893970787525177001953125</LongitudeDegrees>
            </Position>
            <AltitudeMeters>902.5999755859375</AltitudeMeters>
            <DistanceMeters>34050.956362652</DistanceMeters>
          </Trackpoint>
          <Trackpoint>
            <Time>2021-08-28T06:52:05.000Z</Time>
            <Position>
              <LatitudeDegrees>38.16896416246891021728515625</LatitudeDegrees>
              <LongitudeDegrees>-1.9263653643429279327392578125</LongitudeDegrees>
            </Position>
            <AltitudeMeters>903.20001220703125</AltitudeMeters>
            <DistanceMeters>34061.255259579</DistanceMeters>
          </Trackpoint>
          <Trackpoint>
            <Time>2021-08-28T06:52:08.000Z</Time>
            <Position>
              <LatitudeDegrees>38.16893868148326873779296875</LatitudeDegrees>
              <LongitudeDegrees>-1.92647852003574371337890625</LongitudeDegrees>
            </Position>
            <AltitudeMeters>903.79998779296875</AltitudeMeters>
            <DistanceMeters>34071.555033269</DistanceMeters>
          </Trackpoint>
          <Trackpoint>
            <Time>2021-08-28T06:52:10.000Z</Time>
            <Position>
              <LatitudeDegrees>38.16891311667859554290771484375</LatitudeDegrees>
              <LongitudeDegrees>-1.92654557526111602783203125</LongitudeDegrees>
            </Position>
            <AltitudeMeters>904.4000244140625</AltitudeMeters>
            <DistanceMeters>34078.076663437</DistanceMeters>
          </Trackpoint>
          <Trackpoint>
            <Time>2021-08-28T06:52:11.000Z</Time>
            <Position>
              <LatitudeDegrees>38.16890121437609195709228515625</LatitudeDegrees>
              <LongitudeDegrees>-1.92657499574124813079833984375</LongitudeDegrees>
            </Position>
            <AltitudeMeters>904.79998779296875</AltitudeMeters>
            <DistanceMeters>34080.97147102</DistanceMeters>
          </Trackpoint>
          <Trackpoint>
            <Time>2021-08-28T06:52:12.000Z</Time>
            <Position>
              <LatitudeDegrees>38.16888730041682720184326171875</LatitudeDegrees>
              <LongitudeDegrees>-1.9266060926020145416259765625</LongitudeDegrees>
            </Position>
            <AltitudeMeters>905</AltitudeMeters>
            <DistanceMeters>34084.103030219</DistanceMeters>
          </Trackpoint>
          <Trackpoint>
            <Time>2021-08-28T06:52:18.000Z</Time>
            <Position>
              <LatitudeDegrees>38.16880834288895130157470703125</LatitudeDegrees>
              <LongitudeDegrees>-1.92678521387279033660888671875</LongitudeDegrees>
            </Position>
            <AltitudeMeters>906.20001220703125</AltitudeMeters>
            <DistanceMeters>34102.072629646</DistanceMeters>
          </Trackpoint>
          <Trackpoint>
            <Time>2021-08-28T06:52:20.000Z</Time>
            <Position>
              <LatitudeDegrees>38.168775737285614013671875</LatitudeDegrees>
              <LongitudeDegrees>-1.92684992216527462005615234375</LongitudeDegrees>
            </Position>
            <AltitudeMeters>906.5999755859375</AltitudeMeters>
            <DistanceMeters>34108.797406432</DistanceMeters>
          </Trackpoint>
          <Trackpoint>
            <Time>2021-08-28T06:52:22.000Z</Time>
            <Position>
              <LatitudeDegrees>38.1687423773109912872314453125</LatitudeDegrees>
              <LongitudeDegrees>-1.92691798321902751922607421875</LongitudeDegrees>
            </Position>
            <AltitudeMeters>907.4000244140625</AltitudeMeters>
            <DistanceMeters>34115.815243487</DistanceMeters>
          </Trackpoint>
          <Trackpoint>
            <Time>2021-08-28T06:52:27.000Z</Time>
            <Position>
              <LatitudeDegrees>38.16865436732769012451171875</LatitudeDegrees>
              <LongitudeDegrees>-1.927100121974945068359375</LongitudeDegrees>
            </Position>
            <AltitudeMeters>908.5999755859375</AltitudeMeters>
            <DistanceMeters>34134.522719069</DistanceMeters>
          </Trackpoint>
          <Trackpoint>
            <Time>2021-08-28T06:52:28.000Z</Time>
            <Position>
              <LatitudeDegrees>38.1686417944729328155517578125</LatitudeDegrees>
              <LongitudeDegrees>-1.9271311350166797637939453125</LongitudeDegrees>
            </Position>
            <AltitudeMeters>909</AltitudeMeters>
            <DistanceMeters>34137.575429159</DistanceMeters>
          </Trackpoint>
          <Trackpoint>
            <Time>2021-08-28T06:52:30.000Z</Time>
            <Position>
              <LatitudeDegrees>38.1686139665544033050537109375</LatitudeDegrees>
              <LongitudeDegrees>-1.92719559185206890106201171875</LongitudeDegrees>
            </Position>
            <AltitudeMeters>909.4000244140625</AltitudeMeters>
            <DistanceMeters>34144.009937726</DistanceMeters>
          </Trackpoint>
          <Trackpoint>
            <Time>2021-08-28T06:52:31.000Z</Time>
            <Position>
              <LatitudeDegrees>38.16860139369964599609375</LatitudeDegrees>
              <LongitudeDegrees>-1.92722358740866184234619140625</LongitudeDegrees>
            </Position>
            <AltitudeMeters>909.5999755859375</AltitudeMeters>
            <DistanceMeters>34146.832087159</DistanceMeters>
          </Trackpoint>
          <Trackpoint>
            <Time>2021-08-28T06:52:34.000Z</Time>
            <Position>
              <LatitudeDegrees>38.16855973564088344573974609375</LatitudeDegrees>
              <LongitudeDegrees>-1.92731444723904132843017578125</LongitudeDegrees>
            </Position>
            <AltitudeMeters>910.20001220703125</AltitudeMeters>
            <DistanceMeters>34156.036443584</DistanceMeters>
          </Trackpoint>
          <Trackpoint>
            <Time>2021-08-28T06:52:37.000Z</Time>
            <Position>
              <LatitudeDegrees>38.1684952788054943084716796875</LatitudeDegrees>
              <LongitudeDegrees>-1.92741469480097293853759765625</LongitudeDegrees>
            </Position>
            <AltitudeMeters>911</AltitudeMeters>
            <DistanceMeters>34167.368952008</DistanceMeters>
          </Trackpoint>
          <Trackpoint>
            <Time>2021-08-28T06:52:40.000Z</Time>
            <Position>
              <LatitudeDegrees>38.16840626299381256103515625</LatitudeDegrees>
              <LongitudeDegrees>-1.9274932332336902618408203125</LongitudeDegrees>
            </Position>
            <AltitudeMeters>911.5999755859375</AltitudeMeters>
            <DistanceMeters>34179.426490345</DistanceMeters>
          </Trackpoint>
          <Trackpoint>
            <Time>2021-08-28T06:52:43.000Z</Time>
            <Position>
              <LatitudeDegrees>38.16830375231802463531494140625</LatitudeDegrees>
              <LongitudeDegrees>-1.92751795984804630279541015625</LongitudeDegrees>
            </Position>
            <AltitudeMeters>912</AltitudeMeters>
            <DistanceMeters>34191.039983436</DistanceMeters>
          </Trackpoint>
          <Trackpoint>
            <Time>2021-08-28T06:52:45.000Z</Time>
            <Position>
              <LatitudeDegrees>38.1682401336729526519775390625</LatitudeDegrees>
              <LongitudeDegrees>-1.92751519381999969482421875</LongitudeDegrees>
            </Position>
            <AltitudeMeters>912.4000244140625</AltitudeMeters>
            <DistanceMeters>34198.124414597</DistanceMeters>
          </Trackpoint>
          <Trackpoint>
            <Time>2021-08-28T06:52:48.000Z</Time>
            <Position>
              <LatitudeDegrees>38.16813963465392589569091796875</LatitudeDegrees>
              <LongitudeDegrees>-1.9274999387562274932861328125</LongitudeDegrees>
            </Position>
            <AltitudeMeters>913.20001220703125</AltitudeMeters>
            <DistanceMeters>34209.389389708</DistanceMeters>
          </Trackpoint>
          <Trackpoint>
            <Time>2021-08-28T06:52:50.000Z</Time>
            <Position>
              <LatitudeDegrees>38.1680792011320590972900390625</LatitudeDegrees>
              <LongitudeDegrees>-1.9274791516363620758056640625</LongitudeDegrees>
            </Position>
            <AltitudeMeters>913.5999755859375</AltitudeMeters>
            <DistanceMeters>34216.357511481</DistanceMeters>
          </Trackpoint>
          <Trackpoint>
            <Time>2021-08-28T06:52:52.000Z</Time>
            <Position>
              <LatitudeDegrees>38.1680215336382389068603515625</LatitudeDegrees>
              <LongitudeDegrees>-1.92745962180197238922119140625</LongitudeDegrees>
            </Position>
            <AltitudeMeters>913.79998779296875</AltitudeMeters>
            <DistanceMeters>34222.999192249</DistanceMeters>
          </Trackpoint>
          <Trackpoint>
            <Time>2021-08-28T06:52:56.000Z</Time>
            <Position>
              <LatitudeDegrees>38.167907707393169403076171875</LatitudeDegrees>
              <LongitudeDegrees>-1.927427016198635101318359375</LongitudeDegrees>
            </Position>
            <AltitudeMeters>914.5999755859375</AltitudeMeters>
            <DistanceMeters>34235.985906143</DistanceMeters>
          </Trackpoint>
          <Trackpoint>
            <Time>2021-08-28T06:53:00.000Z</Time>
            <Position>
              <LatitudeDegrees>38.1677992455661296844482421875</LatitudeDegrees>
              <LongitudeDegrees>-1.92741016857326030731201171875</LongitudeDegrees>
            </Position>
            <AltitudeMeters>915.79998779296875</AltitudeMeters>
            <DistanceMeters>34248.147840699</DistanceMeters>
          </Trackpoint>
          <Trackpoint>
            <Time>2021-08-28T06:53:01.000Z</Time>
            <Position>
              <LatitudeDegrees>38.1677700765430927276611328125</LatitudeDegrees>
              <LongitudeDegrees>-1.927413605153560638427734375</LongitudeDegrees>
            </Position>
            <AltitudeMeters>916</AltitudeMeters>
            <DistanceMeters>34251.409348027</DistanceMeters>
          </Trackpoint>
          <Trackpoint>
            <Time>2021-08-28T06:53:05.000Z</Time>
            <Position>
              <LatitudeDegrees>38.16767343319952487945556640625</LatitudeDegrees>
              <LongitudeDegrees>-1.92748711444437503814697265625</LongitudeDegrees>
            </Position>
            <AltitudeMeters>916.5999755859375</AltitudeMeters>
            <DistanceMeters>34263.942791681</DistanceMeters>
          </Trackpoint>
          <Trackpoint>
            <Time>2021-08-28T06:53:06.000Z</Time>
            <Position>
              <LatitudeDegrees>38.167658932507038116455078125</LatitudeDegrees>
              <LongitudeDegrees>-1.92752458155155181884765625</LongitudeDegrees>
            </Position>
            <AltitudeMeters>916.79998779296875</AltitudeMeters>
            <DistanceMeters>34267.597307115</DistanceMeters>
          </Trackpoint>
          <Trackpoint>
            <Time>2021-08-28T06:53:09.000Z</Time>
            <Position>
              <LatitudeDegrees>38.1676304340362548828125</LatitudeDegrees>
              <LongitudeDegrees>-1.92764771170914173126220703125</LongitudeDegrees>
            </Position>
            <AltitudeMeters>918</AltitudeMeters>
            <DistanceMeters>34278.828966294</DistanceMeters>
          </Trackpoint>
          <Trackpoint>
            <Time>2021-08-28T06:53:10.000Z</Time>
            <Position>
              <LatitudeDegrees>38.1676269136369228363037109375</LatitudeDegrees>
              <LongitudeDegrees>-1.92769565619528293609619140625</LongitudeDegrees>
            </Position>
            <AltitudeMeters>918.4000244140625</AltitudeMeters>
            <DistanceMeters>34283.042412662</DistanceMeters>
          </Trackpoint>
          <Trackpoint>
            <Time>2021-08-28T06:53:13.000Z</Time>
            <Position>
              <LatitudeDegrees>38.16761811263859272003173828125</LatitudeDegrees>
              <LongitudeDegrees>-1.92783161066472530364990234375</LongitudeDegrees>
            </Position>
            <AltitudeMeters>919.20001220703125</AltitudeMeters>
            <DistanceMeters>34294.979523128</DistanceMeters>
          </Trackpoint>
          <Trackpoint>
            <Time>2021-08-28T06:53:18.000Z</Time>
            <Position>
              <LatitudeDegrees>38.1675947271287441253662109375</LatitudeDegrees>
              <LongitudeDegrees>-1.92805892787873744964599609375</LongitudeDegrees>
            </Position>
            <AltitudeMeters>920.20001220703125</AltitudeMeters>
            <DistanceMeters>34315.040740612</DistanceMeters>
          </Trackpoint>
          <Trackpoint>
            <Time>2021-08-28T06:53:20.000Z</Time>
            <Position>
              <LatitudeDegrees>38.16759615205228328704833984375</LatitudeDegrees>
              <LongitudeDegrees>-1.92815079353749752044677734375</LongitudeDegrees>
            </Position>
            <AltitudeMeters>920.79998779296875</AltitudeMeters>
            <DistanceMeters>34323.081595501</DistanceMeters>
          </Trackpoint>
          <Trackpoint>
            <Time>2021-08-28T06:53:23.000Z</Time>
            <Position>
              <LatitudeDegrees>38.16761392168700695037841796875</LatitudeDegrees>
              <LongitudeDegrees>-1.92828339524567127227783203125</LongitudeDegrees>
            </Position>
            <AltitudeMeters>921.4000244140625</AltitudeMeters>
            <DistanceMeters>34334.852256607</DistanceMeters>
          </Trackpoint>
          <Trackpoint>
            <Time>2021-08-28T06:53:24.000Z</Time>
            <Position>
              <LatitudeDegrees>38.16762917675077915191650390625</LatitudeDegrees>
              <LongitudeDegrees>-1.9283237121999263763427734375</LongitudeDegrees>
            </Position>
            <AltitudeMeters>921.4000244140625</AltitudeMeters>
            <DistanceMeters>34338.768002999</DistanceMeters>
          </Trackpoint>
          <Trackpoint>
            <Time>2021-08-28T06:53:28.000Z</Time>
            <Position>
              <LatitudeDegrees>38.1677264906466007232666015625</LatitudeDegrees>
              <LongitudeDegrees>-1.92841499112546443939208984375</LongitudeDegrees>
            </Position>
            <AltitudeMeters>922</AltitudeMeters>
            <DistanceMeters>34352.225611001</DistanceMeters>
          </Trackpoint>
          <Trackpoint>
            <Time>2021-08-28T06:53:30.000Z</Time>
            <Position>
              <LatitudeDegrees>38.16778826527297496795654296875</LatitudeDegrees>
              <LongitudeDegrees>-1.92840836942195892333984375</LongitudeDegrees>
            </Position>
            <AltitudeMeters>922.79998779296875</AltitudeMeters>
            <DistanceMeters>34359.12536194</DistanceMeters>
          </Trackpoint>
          <Trackpoint>
            <Time>2021-08-28T06:53:32.000Z</Time>
            <Position>
              <LatitudeDegrees>38.1678535602986812591552734375</LatitudeDegrees>
              <LongitudeDegrees>-1.9283927790820598602294921875</LongitudeDegrees>
            </Position>
            <AltitudeMeters>923.79998779296875</AltitudeMeters>
            <DistanceMeters>34366.520369915</DistanceMeters>
          </Trackpoint>
          <Trackpoint>
            <Time>2021-08-28T06:53:33.000Z</Time>
            <Position>
              <LatitudeDegrees>38.1678840704262256622314453125</LatitudeDegrees>
              <LongitudeDegrees>-1.9283776916563510894775390625</LongitudeDegrees>
            </Position>
            <AltitudeMeters>924.20001220703125</AltitudeMeters>
            <DistanceMeters>34370.163749166</DistanceMeters>
          </Trackpoint>
          <Trackpoint>
            <Time>2021-08-28T06:53:36.000Z</Time>
            <Position>
              <LatitudeDegrees>38.1679702363908290863037109375</LatitudeDegrees>
              <LongitudeDegrees>-1.928339637815952301025390625</LongitudeDegrees>
            </Position>
            <AltitudeMeters>925</AltitudeMeters>
            <DistanceMeters>34380.316053955</DistanceMeters>
          </Trackpoint>
          <Trackpoint>
            <Time>2021-08-28T06:53:39.000Z</Time>
            <Position>
              <LatitudeDegrees>38.16807324998080730438232421875</LatitudeDegrees>
              <LongitudeDegrees>-1.92829445935785770416259765625</LongitudeDegrees>
            </Position>
            <AltitudeMeters>926</AltitudeMeters>
            <DistanceMeters>34392.444158308</DistanceMeters>
          </Trackpoint>
          <Trackpoint>
            <Time>2021-08-28T06:53:40.000Z</Time>
            <Position>
              <LatitudeDegrees>38.16810761578381061553955078125</LatitudeDegrees>
              <LongitudeDegrees>-1.92828037776052951812744140625</LongitudeDegrees>
            </Position>
            <AltitudeMeters>926.20001220703125</AltitudeMeters>
            <DistanceMeters>34396.462339076</DistanceMeters>
          </Trackpoint>
          <Trackpoint>
            <Time>2021-08-28T06:53:44.000Z</Time>
            <Position>
              <LatitudeDegrees>38.16824658773839473724365234375</LatitudeDegrees>
              <LongitudeDegrees>-1.9282502867281436920166015625</LongitudeDegrees>
            </Position>
            <AltitudeMeters>927.20001220703125</AltitudeMeters>
            <DistanceMeters>34412.152973358</DistanceMeters>
          </Trackpoint>
          <Trackpoint>
            <Time>2021-08-28T06:53:46.000Z</Time>
            <Position>
              <LatitudeDegrees>38.1683055125176906585693359375</LatitudeDegrees>
              <LongitudeDegrees>-1.9282653741538524627685546875</LongitudeDegrees>
            </Position>
            <AltitudeMeters>928</AltitudeMeters>
            <DistanceMeters>34418.842746064</DistanceMeters>
          </Trackpoint>
          <Trackpoint>
            <Time>2021-08-28T06:53:47.000Z</Time>
            <Position>
              <LatitudeDegrees>38.1683343462646007537841796875</LatitudeDegrees>
              <LongitudeDegrees>-1.92828121595084667205810546875</LongitudeDegrees>
            </Position>
            <AltitudeMeters>928.4000244140625</AltitudeMeters>
            <DistanceMeters>34422.339419269</DistanceMeters>
          </Trackpoint>
          <Trackpoint>
            <Time>2021-08-28T06:53:50.000Z</Time>
            <Position>
              <LatitudeDegrees>38.1683940254151821136474609375</LatitudeDegrees>
              <LongitudeDegrees>-1.92836017347872257232666015625</LongitudeDegrees>
            </Position>
            <AltitudeMeters>929</AltitudeMeters>
            <DistanceMeters>34431.924407414</DistanceMeters>
          </Trackpoint>
          <Trackpoint>
            <Time>2021-08-28T06:53:51.000Z</Time>
            <Position>
              <LatitudeDegrees>38.168402574956417083740234375</LatitudeDegrees>
              <LongitudeDegrees>-1.92839722149074077606201171875</LongitudeDegrees>
            </Position>
            <AltitudeMeters>929.20001220703125</AltitudeMeters>
            <DistanceMeters>34435.302871063</DistanceMeters>
          </Trackpoint>
          <Trackpoint>
            <Time>2021-08-28T06:53:52.000Z</Time>
            <Position>
              <LatitudeDegrees>38.16841162741184234619140625</LatitudeDegrees>
              <LongitudeDegrees>-1.92843175493180751800537109375</LongitudeDegrees>
            </Position>
            <AltitudeMeters>929.5999755859375</AltitudeMeters>
            <DistanceMeters>34438.487329549</DistanceMeters>
          </Trackpoint>
          <Trackpoint>
            <Time>2021-08-28T06:53:57.000Z</Time>
            <Position>
              <LatitudeDegrees>38.1684754975140094757080078125</LatitudeDegrees>
              <LongitudeDegrees>-1.92861397750675678253173828125</LongitudeDegrees>
            </Position>
            <AltitudeMeters>930.5999755859375</AltitudeMeters>
            <DistanceMeters>34455.945627582</DistanceMeters>
          </Trackpoint>
          <Trackpoint>
            <Time>2021-08-28T06:53:58.000Z</Time>
            <Position>
              <LatitudeDegrees>38.16848999820649623870849609375</LatitudeDegrees>
              <LongitudeDegrees>-1.92864616401493549346923828125</LongitudeDegrees>
            </Position>
            <AltitudeMeters>930.79998779296875</AltitudeMeters>
            <DistanceMeters>34459.190480295</DistanceMeters>
          </Trackpoint>
          <Trackpoint>
            <Time>2021-08-28T06:54:00.000Z</Time>
            <Position>
              <LatitudeDegrees>38.1685308180749416351318359375</LatitudeDegrees>
              <LongitudeDegrees>-1.9286988861858844757080078125</LongitudeDegrees>
            </Position>
            <AltitudeMeters>931.20001220703125</AltitudeMeters>
            <DistanceMeters>34465.665559054</DistanceMeters>
          </Trackpoint>
          <Trackpoint>
            <Time>2021-08-28T06:54:01.000Z</Time>
            <Position>
              <LatitudeDegrees>38.16855202428996562957763671875</LatitudeDegrees>
              <LongitudeDegrees>-1.92871749401092529296875</LongitudeDegrees>
            </Position>
            <AltitudeMeters>931.5999755859375</AltitudeMeters>
            <DistanceMeters>34468.535302896</DistanceMeters>
          </Trackpoint>
          <Trackpoint>
            <Time>2021-08-28T06:54:03.000Z</Time>
            <Position>
              <LatitudeDegrees>38.1686092726886272430419921875</LatitudeDegrees>
              <LongitudeDegrees>-1.9287384487688541412353515625</LongitudeDegrees>
            </Position>
            <AltitudeMeters>932.4000244140625</AltitudeMeters>
            <DistanceMeters>34475.165416931</DistanceMeters>
          </Trackpoint>
          <Trackpoint>
            <Time>2021-08-28T06:54:04.000Z</Time>
            <Position>
              <LatitudeDegrees>38.1686389446258544921875</LatitudeDegrees>
              <LongitudeDegrees>-1.92874523811042308807373046875</LongitudeDegrees>
            </Position>
            <AltitudeMeters>932.5999755859375</AltitudeMeters>
            <DistanceMeters>34478.519738808</DistanceMeters>
          </Trackpoint>
          <Trackpoint>
            <Time>2021-08-28T06:54:08.000Z</Time>
            <Position>
              <LatitudeDegrees>38.16878370009362697601318359375</LatitudeDegrees>
              <LongitudeDegrees>-1.9287585653364658355712890625</LongitudeDegrees>
            </Position>
            <AltitudeMeters>933.79998779296875</AltitudeMeters>
            <DistanceMeters>34494.67372126</DistanceMeters>
          </Trackpoint>
          <Trackpoint>
            <Time>2021-08-28T06:54:10.000Z</Time>
            <Position>
              <LatitudeDegrees>38.16884891130030155181884765625</LatitudeDegrees>
              <LongitudeDegrees>-1.928767450153827667236328125</LongitudeDegrees>
            </Position>
            <AltitudeMeters>934.5999755859375</AltitudeMeters>
            <DistanceMeters>34501.974098728</DistanceMeters>
          </Trackpoint>
          <Trackpoint>
            <Time>2021-08-28T06:54:11.000Z</Time>
            <Position>
              <LatitudeDegrees>38.16888109780848026275634765625</LatitudeDegrees>
              <LongitudeDegrees>-1.92877541296184062957763671875</LongitudeDegrees>
            </Position>
            <AltitudeMeters>934.79998779296875</AltitudeMeters>
            <DistanceMeters>34505.624905876</DistanceMeters>
          </Trackpoint>
          <Trackpoint>
            <Time>2021-08-28T06:54:16.000Z</Time>
            <Position>
              <LatitudeDegrees>38.1690280325710773468017578125</LatitudeDegrees>
              <LongitudeDegrees>-1.92875965498387813568115234375</LongitudeDegrees>
            </Position>
            <AltitudeMeters>935.20001220703125</AltitudeMeters>
            <DistanceMeters>34522.037315215</DistanceMeters>
          </Trackpoint>
          <Trackpoint>
            <Time>2021-08-28T06:54:19.000Z</Time>
            <Position>
              <LatitudeDegrees>38.1691043078899383544921875</LatitudeDegrees>
              <LongitudeDegrees>-1.92870299331843852996826171875</LongitudeDegrees>
            </Position>
            <AltitudeMeters>935.79998779296875</AltitudeMeters>
            <DistanceMeters>34531.868792127</DistanceMeters>
          </Trackpoint>
          <Trackpoint>
            <Time>2021-08-28T06:54:20.000Z</Time>
            <Position>
              <LatitudeDegrees>38.169126771390438079833984375</LatitudeDegrees>
              <LongitudeDegrees>-1.92868120037019252777099609375</LongitudeDegrees>
            </Position>
            <AltitudeMeters>936</AltitudeMeters>
            <DistanceMeters>34535.013300626</DistanceMeters>
          </Trackpoint>
          <Trackpoint>
            <Time>2021-08-28T06:54:22.000Z</Time>
            <Position>
              <LatitudeDegrees>38.1691691838204860687255859375</LatitudeDegrees>
              <LongitudeDegrees>-1.92862940020859241485595703125</LongitudeDegrees>
            </Position>
            <AltitudeMeters>936.5999755859375</AltitudeMeters>
            <DistanceMeters>34541.557047451</DistanceMeters>
          </Trackpoint>
          <Trackpoint>
            <Time>2021-08-28T06:54:23.000Z</Time>
            <Position>
              <LatitudeDegrees>38.16918988712131977081298828125</LatitudeDegrees>
              <LongitudeDegrees>-1.9285972975194454193115234375</LongitudeDegrees>
            </Position>
            <AltitudeMeters>936.79998779296875</AltitudeMeters>
            <DistanceMeters>34545.19049922</DistanceMeters>
          </Trackpoint>
          <Trackpoint>
            <Time>2021-08-28T06:54:28.000Z</Time>
            <Position>
              <LatitudeDegrees>38.16926532424986362457275390625</LatitudeDegrees>
              <LongitudeDegrees>-1.92842739634215831756591796875</LongitudeDegrees>
            </Position>
            <AltitudeMeters>938</AltitudeMeters>
            <DistanceMeters>34562.264660632</DistanceMeters>
          </Trackpoint>
          <Trackpoint>
            <Time>2021-08-28T06:54:29.000Z</Time>
            <Position>
              <LatitudeDegrees>38.16928192041814327239990234375</LatitudeDegrees>
              <LongitudeDegrees>-1.9283927790820598602294921875</LongitudeDegrees>
            </Position>
            <AltitudeMeters>938.20001220703125</AltitudeMeters>
            <DistanceMeters>34565.810061372</DistanceMeters>
          </Trackpoint>
          <Trackpoint>
            <Time>2021-08-28T06:54:30.000Z</Time>
            <Position>
              <LatitudeDegrees>38.16929734311997890472412109375</LatitudeDegrees>
              <LongitudeDegrees>-1.9283592514693737030029296875</LongitudeDegrees>
            </Position>
            <AltitudeMeters>938.4000244140625</AltitudeMeters>
            <DistanceMeters>34569.207183345</DistanceMeters>
          </Trackpoint>
          <Trackpoint>
            <Time>2021-08-28T06:54:33.000Z</Time>
            <Position>
              <LatitudeDegrees>38.16934101283550262451171875</LatitudeDegrees>
              <LongitudeDegrees>-1.9282620213925838470458984375</LongitudeDegrees>
            </Position>
            <AltitudeMeters>939</AltitudeMeters>
            <DistanceMeters>34579.005538959</DistanceMeters>
          </Trackpoint>
          <Trackpoint>
            <Time>2021-08-28T06:54:37.000Z</Time>
            <Position>
              <LatitudeDegrees>38.1693911366164684295654296875</LatitudeDegrees>
              <LongitudeDegrees>-1.92812765948474407196044921875</LongitudeDegrees>
            </Position>
            <AltitudeMeters>940.20001220703125</AltitudeMeters>
            <DistanceMeters>34592.019342543</DistanceMeters>
          </Trackpoint>
          <Trackpoint>
            <Time>2021-08-28T06:54:40.000Z</Time>
            <Position>
              <LatitudeDegrees>38.16945056430995464324951171875</LatitudeDegrees>
              <LongitudeDegrees>-1.92803495563566684722900390625</LongitudeDegrees>
            </Position>
            <AltitudeMeters>941</AltitudeMeters>
            <DistanceMeters>34602.486525425</DistanceMeters>
          </Trackpoint>
          <Trackpoint>
            <Time>2021-08-28T06:54:41.000Z</Time>
            <Position>
              <LatitudeDegrees>38.16947378218173980712890625</LatitudeDegrees>
              <LongitudeDegrees>-1.92801182158291339874267578125</LongitudeDegrees>
            </Position>
            <AltitudeMeters>941.20001220703125</AltitudeMeters>
            <DistanceMeters>34605.770107505</DistanceMeters>
          </Trackpoint>
          <Trackpoint>
            <Time>2021-08-28T06:54:43.000Z</Time>
            <Position>
              <LatitudeDegrees>38.1695292703807353973388671875</LatitudeDegrees>
              <LongitudeDegrees>-1.9279683195054531097412109375</LongitudeDegrees>
            </Position>
            <AltitudeMeters>941.79998779296875</AltitudeMeters>
            <DistanceMeters>34613.02581875</DistanceMeters>
          </Trackpoint>
          <Trackpoint>
            <Time>2021-08-28T06:54:45.000Z</Time>
            <Position>
              <LatitudeDegrees>38.1695929728448390960693359375</LatitudeDegrees>
              <LongitudeDegrees>-1.92793286405503749847412109375</LongitudeDegrees>
            </Position>
            <AltitudeMeters>942.4000244140625</AltitudeMeters>
            <DistanceMeters>34620.765101472</DistanceMeters>
          </Trackpoint>
          <Trackpoint>
            <Time>2021-08-28T06:54:49.000Z</Time>
            <Position>
              <LatitudeDegrees>38.169725239276885986328125</LatitudeDegrees>
              <LongitudeDegrees>-1.92786832340061664581298828125</LongitudeDegrees>
            </Position>
            <AltitudeMeters>943.4000244140625</AltitudeMeters>
            <DistanceMeters>34636.53266516</DistanceMeters>
          </Trackpoint>
          <Trackpoint>
            <Time>2021-08-28T06:54:50.000Z</Time>
            <Position>
              <LatitudeDegrees>38.16975809633731842041015625</LatitudeDegrees>
              <LongitudeDegrees>-1.9278563372790813446044921875</LongitudeDegrees>
            </Position>
            <AltitudeMeters>943.5999755859375</AltitudeMeters>
            <DistanceMeters>34640.338482104</DistanceMeters>
          </Trackpoint>
          <Trackpoint>
            <Time>2021-08-28T06:54:54.000Z</Time>
            <Position>
              <LatitudeDegrees>38.16987611353397369384765625</LatitudeDegrees>
              <LongitudeDegrees>-1.92781501449644565582275390625</LongitudeDegrees>
            </Position>
            <AltitudeMeters>944.5999755859375</AltitudeMeters>
            <DistanceMeters>34653.962807827</DistanceMeters>
          </Trackpoint>
          <Trackpoint>
            <Time>2021-08-28T06:54:57.000Z</Time>
            <Position>
              <LatitudeDegrees>38.169971667230129241943359375</LatitudeDegrees>
              <LongitudeDegrees>-1.92777494899928569793701171875</LongitudeDegrees>
            </Position>
            <AltitudeMeters>945.4000244140625</AltitudeMeters>
            <DistanceMeters>34665.161051956</DistanceMeters>
          </Trackpoint>
          <Trackpoint>
            <Time>2021-08-28T06:54:58.000Z</Time>
            <Position>
              <LatitudeDegrees>38.170004189014434814453125</LatitudeDegrees>
              <LongitudeDegrees>-1.9277612864971160888671875</LongitudeDegrees>
            </Position>
            <AltitudeMeters>945.5999755859375</AltitudeMeters>
            <DistanceMeters>34668.972796044</DistanceMeters>
          </Trackpoint>
          <Trackpoint>
            <Time>2021-08-28T06:55:00.000Z</Time>
            <Position>
              <LatitudeDegrees>38.17006512545049190521240234375</LatitudeDegrees>
              <LongitudeDegrees>-1.92772817797958850860595703125</LongitudeDegrees>
            </Position>
            <AltitudeMeters>946</AltitudeMeters>
            <DistanceMeters>34676.348240472</DistanceMeters>
          </Trackpoint>
          <Trackpoint>
            <Time>2021-08-28T06:55:04.000Z</Time>
            <Position>
              <LatitudeDegrees>38.170189596712589263916015625</LatitudeDegrees>
              <LongitudeDegrees>-1.9276674091815948486328125</LongitudeDegrees>
            </Position>
            <AltitudeMeters>947</AltitudeMeters>
            <DistanceMeters>34691.187628739</DistanceMeters>
          </Trackpoint>
          <Trackpoint>
            <Time>2021-08-28T06:55:05.000Z</Time>
            <Position>
              <LatitudeDegrees>38.1702201068401336669921875</LatitudeDegrees>
              <LongitudeDegrees>-1.927650310099124908447265625</LongitudeDegrees>
            </Position>
            <AltitudeMeters>947.20001220703125</AltitudeMeters>
            <DistanceMeters>34694.899757058</DistanceMeters>
          </Trackpoint>
          <Trackpoint>
            <Time>2021-08-28T06:55:08.000Z</Time>
            <Position>
              <LatitudeDegrees>38.1703101284801959991455078125</LatitudeDegrees>
              <LongitudeDegrees>-1.9276008568704128265380859375</LongitudeDegrees>
            </Position>
            <AltitudeMeters>948.20001220703125</AltitudeMeters>
            <DistanceMeters>34705.814186427</DistanceMeters>
          </Trackpoint>
          <Trackpoint>
            <Time>2021-08-28T06:55:10.000Z</Time>
            <Position>
              <LatitudeDegrees>38.17036083899438381195068359375</LatitudeDegrees>
              <LongitudeDegrees>-1.92755282856523990631103515625</LongitudeDegrees>
            </Position>
            <AltitudeMeters>948.79998779296875</AltitudeMeters>
            <DistanceMeters>34712.851939569</DistanceMeters>
          </Trackpoint>
          <Trackpoint>
            <Time>2021-08-28T06:55:12.000Z</Time>
            <Position>
              <LatitudeDegrees>38.17040459252893924713134765625</LatitudeDegrees>
              <LongitudeDegrees>-1.9274982623755931854248046875</LongitudeDegrees>
            </Position>
            <AltitudeMeters>949.20001220703125</AltitudeMeters>
            <DistanceMeters>34719.672051281</DistanceMeters>
          </Trackpoint>
          <Trackpoint>
            <Time>2021-08-28T06:55:13.000Z</Time>
            <Position>
              <LatitudeDegrees>38.17042806185781955718994140625</LatitudeDegrees>
              <LongitudeDegrees>-1.92746951244771480560302734375</LongitudeDegrees>
            </Position>
            <AltitudeMeters>949.4000244140625</AltitudeMeters>
            <DistanceMeters>34723.298039602</DistanceMeters>
          </Trackpoint>
          <Trackpoint>
            <Time>2021-08-28T06:55:17.000Z</Time>
            <Position>
              <LatitudeDegrees>38.1705280579626560211181640625</LatitudeDegrees>
              <LongitudeDegrees>-1.92734445445239543914794921875</LongitudeDegrees>
            </Position>
            <AltitudeMeters>950.5999755859375</AltitudeMeters>
            <DistanceMeters>34738.906737897</DistanceMeters>
          </Trackpoint>
          <Trackpoint>
            <Time>2021-08-28T06:55:20.000Z</Time>
            <Position>
              <LatitudeDegrees>38.170603327453136444091796875</LatitudeDegrees>
              <LongitudeDegrees>-1.92726113833487033843994140625</LongitudeDegrees>
            </Position>
            <AltitudeMeters>951.20001220703125</AltitudeMeters>
            <DistanceMeters>34750.012267334</DistanceMeters>
          </Trackpoint>
          <Trackpoint>
            <Time>2021-08-28T06:55:22.000Z</Time>
            <Position>
              <LatitudeDegrees>38.17065537907183170318603515625</LatitudeDegrees>
              <LongitudeDegrees>-1.9272206537425518035888671875</LongitudeDegrees>
            </Position>
            <AltitudeMeters>952</AltitudeMeters>
            <DistanceMeters>34756.802522876</DistanceMeters>
          </Trackpoint>
          <Trackpoint>
            <Time>2021-08-28T06:55:26.000Z</Time>
            <Position>
              <LatitudeDegrees>38.17078831605613231658935546875</LatitudeDegrees>
              <LongitudeDegrees>-1.92718067206442356109619140625</LongitudeDegrees>
            </Position>
            <AltitudeMeters>953.20001220703125</AltitudeMeters>
            <DistanceMeters>34772.006797175</DistanceMeters>
          </Trackpoint>
          <Trackpoint>
            <Time>2021-08-28T06:55:30.000Z</Time>
            <Position>
              <LatitudeDegrees>38.17089560441672801971435546875</LatitudeDegrees>
              <LongitudeDegrees>-1.92727454937994480133056640625</LongitudeDegrees>
            </Position>
            <AltitudeMeters>954</AltitudeMeters>
            <DistanceMeters>34786.500474014</DistanceMeters>
          </Trackpoint>
          <Trackpoint>
            <Time>2021-08-28T06:55:31.000Z</Time>
            <Position>
              <LatitudeDegrees>38.17091706208884716033935546875</LatitudeDegrees>
              <LongitudeDegrees>-1.927305646240711212158203125</LongitudeDegrees>
            </Position>
            <AltitudeMeters>954.4000244140625</AltitudeMeters>
            <DistanceMeters>34790.121478156</DistanceMeters>
          </Trackpoint>
          <Trackpoint>
            <Time>2021-08-28T06:55:35.000Z</Time>
            <Position>
              <LatitudeDegrees>38.17095595411956310272216796875</LatitudeDegrees>
              <LongitudeDegrees>-1.92746649496257305145263671875</LongitudeDegrees>
            </Position>
            <AltitudeMeters>955.4000244140625</AltitudeMeters>
            <DistanceMeters>34804.847246581</DistanceMeters>
          </Trackpoint>
          <Trackpoint>
            <Time>2021-08-28T06:55:36.000Z</Time>
            <Position>
              <LatitudeDegrees>38.17096299491822719573974609375</LatitudeDegrees>
              <LongitudeDegrees>-1.9275066442787647247314453125</LongitudeDegrees>
            </Position>
            <AltitudeMeters>955.5999755859375</AltitudeMeters>
            <DistanceMeters>34808.446990975</DistanceMeters>
          </Trackpoint>
          <Trackpoint>
            <Time>2021-08-28T06:55:40.000Z</Time>
            <Position>
              <LatitudeDegrees>38.17097824998199939727783203125</LatitudeDegrees>
              <LongitudeDegrees>-1.9276754558086395263671875</LongitudeDegrees>
            </Position>
            <AltitudeMeters>956.5999755859375</AltitudeMeters>
            <DistanceMeters>34823.315559551</DistanceMeters>
          </Trackpoint>
          <Trackpoint>
            <Time>2021-08-28T06:55:41.000Z</Time>
            <Position>
              <LatitudeDegrees>38.17097875289618968963623046875</LatitudeDegrees>
              <LongitudeDegrees>-1.92772096954286098480224609375</LongitudeDegrees>
            </Position>
            <AltitudeMeters>956.79998779296875</AltitudeMeters>
            <DistanceMeters>34827.29875479</DistanceMeters>
          </Trackpoint>
          <Trackpoint>
            <Time>2021-08-28T06:55:42.000Z</Time>
            <Position>
              <LatitudeDegrees>38.17098244093358516693115234375</LatitudeDegrees>
              <LongitudeDegrees>-1.9277612864971160888671875</LongitudeDegrees>
            </Position>
            <AltitudeMeters>957</AltitudeMeters>
            <DistanceMeters>34830.849245843</DistanceMeters>
          </Trackpoint>
          <Trackpoint>
            <Time>2021-08-28T06:55:46.000Z</Time>
            <Position>
              <LatitudeDegrees>38.17097405903041362762451171875</LatitudeDegrees>
              <LongitudeDegrees>-1.9279351271688938140869140625</LongitudeDegrees>
            </Position>
            <AltitudeMeters>957.79998779296875</AltitudeMeters>
            <DistanceMeters>34846.089113497</DistanceMeters>
          </Trackpoint>
          <Trackpoint>
            <Time>2021-08-28T06:55:48.000Z</Time>
            <Position>
              <LatitudeDegrees>38.17096710205078125</LatitudeDegrees>
              <LongitudeDegrees>-1.9280031882226467132568359375</LongitudeDegrees>
            </Position>
            <AltitudeMeters>958.5999755859375</AltitudeMeters>
            <DistanceMeters>34852.094621412</DistanceMeters>
          </Trackpoint>
          <Trackpoint>
            <Time>2021-08-28T06:55:49.000Z</Time>
            <Position>
              <LatitudeDegrees>38.17095863632857799530029296875</LatitudeDegrees>
              <LongitudeDegrees>-1.9280387274920940399169921875</LongitudeDegrees>
            </Position>
            <AltitudeMeters>958.79998779296875</AltitudeMeters>
            <DistanceMeters>34855.343645783</DistanceMeters>
          </Trackpoint>
          <Trackpoint>
            <Time>2021-08-28T06:55:50.000Z</Time>
            <Position>
              <LatitudeDegrees>38.17094740457832813262939453125</LatitudeDegrees>
              <LongitudeDegrees>-1.92807720042765140533447265625</LongitudeDegrees>
            </Position>
            <AltitudeMeters>959.20001220703125</AltitudeMeters>
            <DistanceMeters>34858.934599579</DistanceMeters>
          </Trackpoint>
          <Trackpoint>
            <Time>2021-08-28T06:55:53.000Z</Time>
            <Position>
              <LatitudeDegrees>38.170913793146610260009765625</LatitudeDegrees>
              <LongitudeDegrees>-1.92818180657923221588134765625</LongitudeDegrees>
            </Position>
            <AltitudeMeters>959.79998779296875</AltitudeMeters>
            <DistanceMeters>34868.822858664</DistanceMeters>
          </Trackpoint>
          <Trackpoint>
            <Time>2021-08-28T06:55:54.000Z</Time>
            <Position>
              <LatitudeDegrees>38.17089803516864776611328125</LatitudeDegrees>
              <LongitudeDegrees>-1.928212232887744903564453125</LongitudeDegrees>
            </Position>
            <AltitudeMeters>960</AltitudeMeters>
            <DistanceMeters>34872.011567819</DistanceMeters>
          </Trackpoint>
          <Trackpoint>
            <Time>2021-08-28T06:55:58.000Z</Time>
            <Position>
              <LatitudeDegrees>38.17081865854561328887939453125</LatitudeDegrees>
              <LongitudeDegrees>-1.928340308368206024169921875</LongitudeDegrees>
            </Position>
            <AltitudeMeters>961</AltitudeMeters>
            <DistanceMeters>34886.282036766</DistanceMeters>
          </Trackpoint>
          <Trackpoint>
            <Time>2021-08-28T06:56:00.000Z</Time>
            <Position>
              <LatitudeDegrees>38.17076417617499828338623046875</LatitudeDegrees>
              <LongitudeDegrees>-1.9284004904329776763916015625</LongitudeDegrees>
            </Position>
            <AltitudeMeters>961.4000244140625</AltitudeMeters>
            <DistanceMeters>34894.313902435</DistanceMeters>
          </Trackpoint>
          <Trackpoint>
            <Time>2021-08-28T06:56:01.000Z</Time>
            <Position>
              <LatitudeDegrees>38.17073307931423187255859375</LatitudeDegrees>
              <LongitudeDegrees>-1.928432174026966094970703125</LongitudeDegrees>
            </Position>
            <AltitudeMeters>961.4000244140625</AltitudeMeters>
            <DistanceMeters>34898.748708687</DistanceMeters>
          </Trackpoint>
          <Trackpoint>
            <Time>2021-08-28T06:56:04.000Z</Time>
            <Position>
              <LatitudeDegrees>38.170652948319911956787109375</LatitudeDegrees>
              <LongitudeDegrees>-1.92850953899323940277099609375</LongitudeDegrees>
            </Position>
            <AltitudeMeters>962.4000244140625</AltitudeMeters>
            <DistanceMeters>34909.945339933</DistanceMeters>
          </Trackpoint>
          <Trackpoint>
            <Time>2021-08-28T06:56:09.000Z</Time>
            <Position>
              <LatitudeDegrees>38.17052386701107025146484375</LatitudeDegrees>
              <LongitudeDegrees>-1.92862453870475292205810546875</LongitudeDegrees>
            </Position>
            <AltitudeMeters>963.5999755859375</AltitudeMeters>
            <DistanceMeters>34927.485943247</DistanceMeters>
          </Trackpoint>
          <Trackpoint>
            <Time>2021-08-28T06:56:10.000Z</Time>
            <Position>
              <LatitudeDegrees>38.17049972712993621826171875</LatitudeDegrees>
              <LongitudeDegrees>-1.92864666692912578582763671875</LongitudeDegrees>
            </Position>
            <AltitudeMeters>963.79998779296875</AltitudeMeters>
            <DistanceMeters>34930.796911806</DistanceMeters>
          </Trackpoint>
          <Trackpoint>
            <Time>2021-08-28T06:56:14.000Z</Time>
            <Position>
              <LatitudeDegrees>38.1704200990498065948486328125</LatitudeDegrees>
              <LongitudeDegrees>-1.92876233719289302825927734375</LongitudeDegrees>
            </Position>
            <AltitudeMeters>964.79998779296875</AltitudeMeters>
            <DistanceMeters>34944.249821978</DistanceMeters>
          </Trackpoint>
          <Trackpoint>
            <Time>2021-08-28T06:56:15.000Z</Time>
            <Position>
              <LatitudeDegrees>38.17040928639471530914306640625</LatitudeDegrees>
              <LongitudeDegrees>-1.928796283900737762451171875</LongitudeDegrees>
            </Position>
            <AltitudeMeters>965</AltitudeMeters>
            <DistanceMeters>34947.454068679</DistanceMeters>
          </Trackpoint>
          <Trackpoint>
            <Time>2021-08-28T06:56:20.000Z</Time>
            <Position>
              <LatitudeDegrees>38.1703936122357845306396484375</LatitudeDegrees>
              <LongitudeDegrees>-1.92898076958954334259033203125</LongitudeDegrees>
            </Position>
            <AltitudeMeters>966.20001220703125</AltitudeMeters>
            <DistanceMeters>34963.691128507</DistanceMeters>
          </Trackpoint>
          <Trackpoint>
            <Time>2021-08-28T06:56:21.000Z</Time>
            <Position>
              <LatitudeDegrees>38.17039151675999164581298828125</LatitudeDegrees>
              <LongitudeDegrees>-1.929020248353481292724609375</LongitudeDegrees>
            </Position>
            <AltitudeMeters>966.5999755859375</AltitudeMeters>
            <DistanceMeters>34967.152762722</DistanceMeters>
          </Trackpoint>
          <Trackpoint>
            <Time>2021-08-28T06:56:24.000Z</Time>
            <Position>
              <LatitudeDegrees>38.17037961445748805999755859375</LatitudeDegrees>
              <LongitudeDegrees>-1.92914220504462718963623046875</LongitudeDegrees>
            </Position>
            <AltitudeMeters>967.4000244140625</AltitudeMeters>
            <DistanceMeters>34977.906327663</DistanceMeters>
          </Trackpoint>
          <Trackpoint>
            <Time>2021-08-28T06:56:28.000Z</Time>
            <Position>
              <LatitudeDegrees>38.17037156783044338226318359375</LatitudeDegrees>
              <LongitudeDegrees>-1.9292896427214145660400390625</LongitudeDegrees>
            </Position>
            <AltitudeMeters>968.20001220703125</AltitudeMeters>
            <DistanceMeters>34990.838342809</DistanceMeters>
          </Trackpoint>
          <Trackpoint>
            <Time>2021-08-28T06:56:30.000Z</Time>
            <Position>
              <LatitudeDegrees>38.1703724898397922515869140625</LatitudeDegrees>
              <LongitudeDegrees>-1.929350830614566802978515625</LongitudeDegrees>
            </Position>
            <AltitudeMeters>968.4000244140625</AltitudeMeters>
            <DistanceMeters>34996.192826231</DistanceMeters>
          </Trackpoint>
          <Trackpoint>
            <Time>2021-08-28T06:56:31.000Z</Time>
            <Position>
              <LatitudeDegrees>38.1703724898397922515869140625</LatitudeDegrees>
              <LongitudeDegrees>-1.92938293330371379852294921875</LongitudeDegrees>
            </Position>
            <AltitudeMeters>968.4000244140625</AltitudeMeters>
            <DistanceMeters>34999.002147645</DistanceMeters>
          </Trackpoint>
          <Trackpoint>
            <Time>2021-08-28T06:56:35.000Z</Time>
            <Position>
              <LatitudeDegrees>38.17036067135632038116455078125</LatitudeDegrees>
              <LongitudeDegrees>-1.92952978424727916717529296875</LongitudeDegrees>
            </Position>
            <AltitudeMeters>969.4000244140625</AltitudeMeters>
            <DistanceMeters>35011.919490736</DistanceMeters>
          </Trackpoint>
          <Trackpoint>
            <Time>2021-08-28T06:56:37.000Z</Time>
            <Position>
              <LatitudeDegrees>38.1703500263392925262451171875</LatitudeDegrees>
              <LongitudeDegrees>-1.9296064786612987518310546875</LongitudeDegrees>
            </Position>
            <AltitudeMeters>969.5999755859375</AltitudeMeters>
            <DistanceMeters>35018.734304245</DistanceMeters>
          </Trackpoint>
          <Trackpoint>
            <Time>2021-08-28T06:56:40.000Z</Time>
            <Position>
              <LatitudeDegrees>38.17034591920673847198486328125</LatitudeDegrees>
              <LongitudeDegrees>-1.92972105927765369415283203125</LongitudeDegrees>
            </Position>
            <AltitudeMeters>970</AltitudeMeters>
            <DistanceMeters>35028.771212773</DistanceMeters>
          </Trackpoint>
          <Trackpoint>
            <Time>2021-08-28T06:56:43.000Z</Time>
            <Position>
              <LatitudeDegrees>38.17033988423645496368408203125</LatitudeDegrees>
              <LongitudeDegrees>-1.929846368730068206787109375</LongitudeDegrees>
            </Position>
            <AltitudeMeters>970.5999755859375</AltitudeMeters>
            <DistanceMeters>35039.756564001</DistanceMeters>
          </Trackpoint>
          <Trackpoint>
            <Time>2021-08-28T06:56:45.000Z</Time>
            <Position>
              <LatitudeDegrees>38.1703349389135837554931640625</LatitudeDegrees>
              <LongitudeDegrees>-1.92992239259183406829833984375</LongitudeDegrees>
            </Position>
            <AltitudeMeters>971.20001220703125</AltitudeMeters>
            <DistanceMeters>35046.432148414</DistanceMeters>
          </Trackpoint>
          <Trackpoint>
            <Time>2021-08-28T06:56:49.000Z</Time>
            <Position>
              <LatitudeDegrees>38.17033569328486919403076171875</LatitudeDegrees>
              <LongitudeDegrees>-1.93007410503923892974853515625</LongitudeDegrees>
            </Position>
            <AltitudeMeters>971.79998779296875</AltitudeMeters>
            <DistanceMeters>35059.708030005</DistanceMeters>
          </Trackpoint>
          <Trackpoint>
            <Time>2021-08-28T06:56:50.000Z</Time>
            <Position>
              <LatitudeDegrees>38.17033619619905948638916015625</LatitudeDegrees>
              <LongitudeDegrees>-1.9301137514412403106689453125</LongitudeDegrees>
            </Position>
            <AltitudeMeters>972</AltitudeMeters>
            <DistanceMeters>35063.17878237</DistanceMeters>
          </Trackpoint>
          <Trackpoint>
            <Time>2021-08-28T06:56:51.000Z</Time>
            <Position>
              <LatitudeDegrees>38.17033686675131320953369140625</LatitudeDegrees>
              <LongitudeDegrees>-1.93015222437679767608642578125</LongitudeDegrees>
            </Position>
            <AltitudeMeters>972.20001220703125</AltitudeMeters>
            <DistanceMeters>35066.546537707</DistanceMeters>
          </Trackpoint>
          <Trackpoint>
            <Time>2021-08-28T06:56:54.000Z</Time>
            <Position>
              <LatitudeDegrees>38.17034373991191387176513671875</LatitudeDegrees>
              <LongitudeDegrees>-1.930267810821533203125</LongitudeDegrees>
            </Position>
            <AltitudeMeters>972.79998779296875</AltitudeMeters>
            <DistanceMeters>35076.689943989</DistanceMeters>
          </Trackpoint>
          <Trackpoint>
            <Time>2021-08-28T06:56:59.000Z</Time>
            <Position>
              <LatitudeDegrees>38.1703584082424640655517578125</LatitudeDegrees>
              <LongitudeDegrees>-1.930468641221523284912109375</LongitudeDegrees>
            </Position>
            <AltitudeMeters>974</AltitudeMeters>
            <DistanceMeters>35094.338837917</DistanceMeters>
          </Trackpoint>
          <Trackpoint>
            <Time>2021-08-28T06:57:00.000Z</Time>
            <Position>
              <LatitudeDegrees>38.1703610904514789581298828125</LatitudeDegrees>
              <LongitudeDegrees>-1.9305087067186832427978515625</LongitudeDegrees>
            </Position>
            <AltitudeMeters>974.20001220703125</AltitudeMeters>
            <DistanceMeters>35097.857393701</DistanceMeters>
          </Trackpoint>
          <Trackpoint>
            <Time>2021-08-28T06:57:02.000Z</Time>
            <Position>
              <LatitudeDegrees>38.17036536522209644317626953125</LatitudeDegrees>
              <LongitudeDegrees>-1.93058908917009830474853515625</LongitudeDegrees>
            </Position>
            <AltitudeMeters>974.4000244140625</AltitudeMeters>
            <DistanceMeters>35104.907325668</DistanceMeters>
          </Trackpoint>
          <Trackpoint>
            <Time>2021-08-28T06:57:06.000Z</Time>
            <Position>
              <LatitudeDegrees>38.17037290893495082855224609375</LatitudeDegrees>
              <LongitudeDegrees>-1.9307470880448818206787109375</LongitudeDegrees>
            </Position>
            <AltitudeMeters>975.20001220703125</AltitudeMeters>
            <DistanceMeters>35118.757774902</DistanceMeters>
          </Trackpoint>
          <Trackpoint>
            <Time>2021-08-28T06:57:09.000Z</Time>
            <Position>
              <LatitudeDegrees>38.17036469466984272003173828125</LatitudeDegrees>
              <LongitudeDegrees>-1.93088136613368988037109375</LongitudeDegrees>
            </Position>
            <AltitudeMeters>975.5999755859375</AltitudeMeters>
            <DistanceMeters>35130.543003189</DistanceMeters>
          </Trackpoint>
          <Trackpoint>
            <Time>2021-08-28T06:57:10.000Z</Time>
            <Position>
              <LatitudeDegrees>38.1703557260334491729736328125</LatitudeDegrees>
              <LongitudeDegrees>-1.93092436529695987701416015625</LongitudeDegrees>
            </Position>
            <AltitudeMeters>975.5999755859375</AltitudeMeters>
            <DistanceMeters>35134.435620339</DistanceMeters>
          </Trackpoint>
          <Trackpoint>
            <Time>2021-08-28T06:57:13.000Z</Time>
            <Position>
              <LatitudeDegrees>38.170321024954319000244140625</LatitudeDegrees>
              <LongitudeDegrees>-1.93104539997875690460205078125</LongitudeDegrees>
            </Position>
            <AltitudeMeters>976.4000244140625</AltitudeMeters>
            <DistanceMeters>35145.708208139</DistanceMeters>
          </Trackpoint>
          <Trackpoint>
            <Time>2021-08-28T06:57:15.000Z</Time>
            <Position>
              <LatitudeDegrees>38.17029093392193317413330078125</LatitudeDegrees>
              <LongitudeDegrees>-1.931121759116649627685546875</LongitudeDegrees>
            </Position>
            <AltitudeMeters>977</AltitudeMeters>
            <DistanceMeters>35153.182166453</DistanceMeters>
          </Trackpoint>
          <Trackpoint>
            <Time>2021-08-28T06:57:17.000Z</Time>
            <Position>
              <LatitudeDegrees>38.1702538020908832550048828125</LatitudeDegrees>
              <LongitudeDegrees>-1.93120054900646209716796875</LongitudeDegrees>
            </Position>
            <AltitudeMeters>977.4000244140625</AltitudeMeters>
            <DistanceMeters>35161.220774979</DistanceMeters>
          </Trackpoint>
          <Trackpoint>
            <Time>2021-08-28T06:57:20.000Z</Time>
            <Position>
              <LatitudeDegrees>38.17019521258771419525146484375</LatitudeDegrees>
              <LongitudeDegrees>-1.93130507133901119232177734375</LongitudeDegrees>
            </Position>
            <AltitudeMeters>978</AltitudeMeters>
            <DistanceMeters>35172.454042012</DistanceMeters>
          </Trackpoint>
          <Trackpoint>
            <Time>2021-08-28T06:57:22.000Z</Time>
            <Position>
              <LatitudeDegrees>38.170150704681873321533203125</LatitudeDegrees>
              <LongitudeDegrees>-1.9313760660588741302490234375</LongitudeDegrees>
            </Position>
            <AltitudeMeters>978.5999755859375</AltitudeMeters>
            <DistanceMeters>35180.400002904</DistanceMeters>
          </Trackpoint>
          <Trackpoint>
            <Time>2021-08-28T06:57:23.000Z</Time>
            <Position>
              <LatitudeDegrees>38.17013234831392765045166015625</LatitudeDegrees>
              <LongitudeDegrees>-1.9314089231193065643310546875</LongitudeDegrees>
            </Position>
            <AltitudeMeters>978.79998779296875</AltitudeMeters>
            <DistanceMeters>35183.924968888</DistanceMeters>
          </Trackpoint>
          <Trackpoint>
            <Time>2021-08-28T06:57:27.000Z</Time>
            <Position>
              <LatitudeDegrees>38.17005054093897342681884765625</LatitudeDegrees>
              <LongitudeDegrees>-1.9315437041223049163818359375</LongitudeDegrees>
            </Position>
            <AltitudeMeters>979.79998779296875</AltitudeMeters>
            <DistanceMeters>35198.824478923</DistanceMeters>
          </Trackpoint>
          <Trackpoint>
            <Time>2021-08-28T06:57:30.000Z</Time>
            <Position>
              <LatitudeDegrees>38.16998415626585483551025390625</LatitudeDegrees>
              <LongitudeDegrees>-1.93162710405886173248291015625</LongitudeDegrees>
            </Position>
            <AltitudeMeters>980.5999755859375</AltitudeMeters>
            <DistanceMeters>35209.20981633</DistanceMeters>
          </Trackpoint>
          <Trackpoint>
            <Time>2021-08-28T06:57:31.000Z</Time>
            <Position>
              <LatitudeDegrees>38.16995934583246707916259765625</LatitudeDegrees>
              <LongitudeDegrees>-1.9316504895687103271484375</LongitudeDegrees>
            </Position>
            <AltitudeMeters>980.79998779296875</AltitudeMeters>
            <DistanceMeters>35212.64657934</DistanceMeters>
          </Trackpoint>
          <Trackpoint>
            <Time>2021-08-28T06:57:35.000Z</Time>
            <Position>
              <LatitudeDegrees>38.16984417848289012908935546875</LatitudeDegrees>
              <LongitudeDegrees>-1.93172852508723735809326171875</LongitudeDegrees>
            </Position>
            <AltitudeMeters>982</AltitudeMeters>
            <DistanceMeters>35227.170441971</DistanceMeters>
          </Trackpoint>
          <Trackpoint>
            <Time>2021-08-28T06:57:37.000Z</Time>
            <Position>
              <LatitudeDegrees>38.16978148184716701507568359375</LatitudeDegrees>
              <LongitudeDegrees>-1.93175710737705230712890625</LongitudeDegrees>
            </Position>
            <AltitudeMeters>982.20001220703125</AltitudeMeters>
            <DistanceMeters>35234.583743883</DistanceMeters>
          </Trackpoint>
          <Trackpoint>
            <Time>2021-08-28T06:57:40.000Z</Time>
            <Position>
              <LatitudeDegrees>38.169685341417789459228515625</LatitudeDegrees>
              <LongitudeDegrees>-1.931790970265865325927734375</LongitudeDegrees>
            </Position>
            <AltitudeMeters>982.5999755859375</AltitudeMeters>
            <DistanceMeters>35245.686833706</DistanceMeters>
          </Trackpoint>
          <Trackpoint>
            <Time>2021-08-28T06:57:42.000Z</Time>
            <Position>
              <LatitudeDegrees>38.169618956744670867919921875</LatitudeDegrees>
              <LongitudeDegrees>-1.93182055838406085968017578125</LongitudeDegrees>
            </Position>
            <AltitudeMeters>983</AltitudeMeters>
            <DistanceMeters>35253.516020056</DistanceMeters>
          </Trackpoint>
          <Trackpoint>
            <Time>2021-08-28T06:57:44.000Z</Time>
            <Position>
              <LatitudeDegrees>38.1695594452321529388427734375</LatitudeDegrees>
              <LongitudeDegrees>-1.93184503354132175445556640625</LongitudeDegrees>
            </Position>
            <AltitudeMeters>983.20001220703125</AltitudeMeters>
            <DistanceMeters>35260.477010661</DistanceMeters>
          </Trackpoint>
          <Trackpoint>
            <Time>2021-08-28T06:57:48.000Z</Time>
            <Position>
              <LatitudeDegrees>38.16944603808224201202392578125</LatitudeDegrees>
              <LongitudeDegrees>-1.9318883679807186126708984375</LongitudeDegrees>
            </Position>
            <AltitudeMeters>984.4000244140625</AltitudeMeters>
            <DistanceMeters>35273.656637001</DistanceMeters>
          </Trackpoint>
          <Trackpoint>
            <Time>2021-08-28T06:57:50.000Z</Time>
            <Position>
              <LatitudeDegrees>38.169380910694599151611328125</LatitudeDegrees>
              <LongitudeDegrees>-1.93191661499440670013427734375</LongitudeDegrees>
            </Position>
            <AltitudeMeters>984.79998779296875</AltitudeMeters>
            <DistanceMeters>35281.316167447</DistanceMeters>
          </Trackpoint>
          <Trackpoint>
            <Time>2021-08-28T06:57:53.000Z</Time>
            <Position>
              <LatitudeDegrees>38.169279657304286956787109375</LatitudeDegrees>
              <LongitudeDegrees>-1.93193723447620868682861328125</LongitudeDegrees>
            </Position>
            <AltitudeMeters>985.5999755859375</AltitudeMeters>
            <DistanceMeters>35292.729267495</DistanceMeters>
          </Trackpoint>
          <Trackpoint>
            <Time>2021-08-28T06:57:57.000Z</Time>
            <Position>
              <LatitudeDegrees>38.16914194263517856597900390625</LatitudeDegrees>
              <LongitudeDegrees>-1.93193136714398860931396484375</LongitudeDegrees>
            </Position>
            <AltitudeMeters>986.5999755859375</AltitudeMeters>
            <DistanceMeters>35308.065707797</DistanceMeters>
          </Trackpoint>
          <Trackpoint>
            <Time>2021-08-28T06:58:00.000Z</Time>
            <Position>
              <LatitudeDegrees>38.16904169507324695587158203125</LatitudeDegrees>
              <LongitudeDegrees>-1.93192684091627597808837890625</LongitudeDegrees>
            </Position>
            <AltitudeMeters>987.20001220703125</AltitudeMeters>
            <DistanceMeters>35319.230436868</DistanceMeters>
          </Trackpoint>
          <Trackpoint>
            <Time>2021-08-28T06:58:02.000Z</Time>
            <Position>
              <LatitudeDegrees>38.16897757351398468017578125</LatitudeDegrees>
              <LongitudeDegrees>-1.9319215603172779083251953125</LongitudeDegrees>
            </Position>
            <AltitudeMeters>987.5999755859375</AltitudeMeters>
            <DistanceMeters>35326.38147336</DistanceMeters>
          </Trackpoint>
          <Trackpoint>
            <Time>2021-08-28T06:58:04.000Z</Time>
            <Position>
              <LatitudeDegrees>38.16891252994537353515625</LatitudeDegrees>
              <LongitudeDegrees>-1.9319192133843898773193359375</LongitudeDegrees>
            </Position>
            <AltitudeMeters>988.20001220703125</AltitudeMeters>
            <DistanceMeters>35333.623481644</DistanceMeters>
          </Trackpoint>
          <Trackpoint>
            <Time>2021-08-28T06:58:07.000Z</Time>
            <Position>
              <LatitudeDegrees>38.16880599595606327056884765625</LatitudeDegrees>
              <LongitudeDegrees>-1.93194209598004817962646484375</LongitudeDegrees>
            </Position>
            <AltitudeMeters>988.5999755859375</AltitudeMeters>
            <DistanceMeters>35345.648773498</DistanceMeters>
          </Trackpoint>
          <Trackpoint>
            <Time>2021-08-28T06:58:09.000Z</Time>
            <Position>
              <LatitudeDegrees>38.16874464042484760284423828125</LatitudeDegrees>
              <LongitudeDegrees>-1.93198266439139842987060546875</LongitudeDegrees>
            </Position>
            <AltitudeMeters>989.4000244140625</AltitudeMeters>
            <DistanceMeters>35353.345350755</DistanceMeters>
          </Trackpoint>
          <Trackpoint>
            <Time>2021-08-28T06:58:10.000Z</Time>
            <Position>
              <LatitudeDegrees>38.16871899180114269256591796875</LatitudeDegrees>
              <LongitudeDegrees>-1.9320053793489933013916015625</LongitudeDegrees>
            </Position>
            <AltitudeMeters>989.5999755859375</AltitudeMeters>
            <DistanceMeters>35356.823899653</DistanceMeters>
          </Trackpoint>
          <Trackpoint>
            <Time>2021-08-28T06:58:11.000Z</Time>
            <Position>
              <LatitudeDegrees>38.1686934269964694976806640625</LatitudeDegrees>
              <LongitudeDegrees>-1.93203278817236423492431640625</LongitudeDegrees>
            </Position>
            <AltitudeMeters>990</AltitudeMeters>
            <DistanceMeters>35360.545745601</DistanceMeters>
          </Trackpoint>
          <Trackpoint>
            <Time>2021-08-28T06:58:15.000Z</Time>
            <Position>
              <LatitudeDegrees>38.16860206425189971923828125</LatitudeDegrees>
              <LongitudeDegrees>-1.93216538988053798675537109375</LongitudeDegrees>
            </Position>
            <AltitudeMeters>990.79998779296875</AltitudeMeters>
            <DistanceMeters>35375.974643009</DistanceMeters>
          </Trackpoint>
          <Trackpoint>
            <Time>2021-08-28T06:58:17.000Z</Time>
            <Position>
              <LatitudeDegrees>38.1685687042772769927978515625</LatitudeDegrees>
              <LongitudeDegrees>-1.93223462440073490142822265625</LongitudeDegrees>
            </Position>
            <AltitudeMeters>991</AltitudeMeters>
            <DistanceMeters>35383.080709957</DistanceMeters>
          </Trackpoint>
          <Trackpoint>
            <Time>2021-08-28T06:58:20.000Z</Time>
            <Position>
              <LatitudeDegrees>38.168536685407161712646484375</LatitudeDegrees>
              <LongitudeDegrees>-1.93235381506383419036865234375</LongitudeDegrees>
            </Position>
            <AltitudeMeters>992.20001220703125</AltitudeMeters>
            <DistanceMeters>35394.102579962</DistanceMeters>
          </Trackpoint>
          <Trackpoint>
            <Time>2021-08-28T06:58:26.000Z</Time>
            <Position>
              <LatitudeDegrees>38.16854364238679409027099609375</LatitudeDegrees>
              <LongitudeDegrees>-1.9325998239219188690185546875</LongitudeDegrees>
            </Position>
            <AltitudeMeters>993.20001220703125</AltitudeMeters>
            <DistanceMeters>35415.643692007</DistanceMeters>
          </Trackpoint>
          <Trackpoint>
            <Time>2021-08-28T06:58:30.000Z</Time>
            <Position>
              <LatitudeDegrees>38.1685651838779449462890625</LatitudeDegrees>
              <LongitudeDegrees>-1.93276167847216129302978515625</LongitudeDegrees>
            </Position>
            <AltitudeMeters>993.79998779296875</AltitudeMeters>
            <DistanceMeters>35430.008135844</DistanceMeters>
          </Trackpoint>
          <Trackpoint>
            <Time>2021-08-28T06:58:33.000Z</Time>
            <Position>
              <LatitudeDegrees>38.16857616417109966278076171875</LatitudeDegrees>
              <LongitudeDegrees>-1.93287483416497707366943359375</LongitudeDegrees>
            </Position>
            <AltitudeMeters>994.20001220703125</AltitudeMeters>
            <DistanceMeters>35439.984583236</DistanceMeters>
          </Trackpoint>
          <Trackpoint>
            <Time>2021-08-28T06:58:40.000Z</Time>
            <Position>
              <LatitudeDegrees>38.1686220131814479827880859375</LatitudeDegrees>
              <LongitudeDegrees>-1.93314204923808574676513671875</LongitudeDegrees>
            </Position>
            <AltitudeMeters>995.4000244140625</AltitudeMeters>
            <DistanceMeters>35463.917736163</DistanceMeters>
          </Trackpoint>
          <Trackpoint>
            <Time>2021-08-28T06:58:45.000Z</Time>
            <Position>
              <LatitudeDegrees>38.16866015084087848663330078125</LatitudeDegrees>
              <LongitudeDegrees>-1.93334455601871013641357421875</LongitudeDegrees>
            </Position>
            <AltitudeMeters>995.79998779296875</AltitudeMeters>
            <DistanceMeters>35482.139588726</DistanceMeters>
          </Trackpoint>
          <Trackpoint>
            <Time>2021-08-28T06:58:47.000Z</Time>
            <Position>
              <LatitudeDegrees>38.168678842484951019287109375</LatitudeDegrees>
              <LongitudeDegrees>-1.9334353320300579071044921875</LongitudeDegrees>
            </Position>
            <AltitudeMeters>996.4000244140625</AltitudeMeters>
            <DistanceMeters>35490.351568444</DistanceMeters>
          </Trackpoint>
          <Trackpoint>
            <Time>2021-08-28T06:58:50.000Z</Time>
            <Position>
              <LatitudeDegrees>38.1687038205564022064208984375</LatitudeDegrees>
              <LongitudeDegrees>-1.933566592633724212646484375</LongitudeDegrees>
            </Position>
            <AltitudeMeters>997.20001220703125</AltitudeMeters>
            <DistanceMeters>35502.169316211</DistanceMeters>
          </Trackpoint>
          <Trackpoint>
            <Time>2021-08-28T06:58:52.000Z</Time>
            <Position>
              <LatitudeDegrees>38.168717734515666961669921875</LatitudeDegrees>
              <LongitudeDegrees>-1.93365745246410369873046875</LongitudeDegrees>
            </Position>
            <AltitudeMeters>997.20001220703125</AltitudeMeters>
            <DistanceMeters>35510.2700301</DistanceMeters>
          </Trackpoint>
          <Trackpoint>
            <Time>2021-08-28T06:58:53.000Z</Time>
            <Position>
              <LatitudeDegrees>38.16872410476207733154296875</LatitudeDegrees>
              <LongitudeDegrees>-1.93370531313121318817138671875</LongitudeDegrees>
            </Position>
            <AltitudeMeters>997.4000244140625</AltitudeMeters>
            <DistanceMeters>35514.517628567</DistanceMeters>
          </Trackpoint>
          <Trackpoint>
            <Time>2021-08-28T06:58:59.000Z</Time>
            <Position>
              <LatitudeDegrees>38.16881018690764904022216796875</LatitudeDegrees>
              <LongitudeDegrees>-1.93398862145841121673583984375</LongitudeDegrees>
            </Position>
            <AltitudeMeters>998.4000244140625</AltitudeMeters>
            <DistanceMeters>35541.095566032</DistanceMeters>
          </Trackpoint>
          <Trackpoint>
            <Time>2021-08-28T06:59:00.000Z</Time>
            <Position>
              <LatitudeDegrees>38.1688288785517215728759765625</LatitudeDegrees>
              <LongitudeDegrees>-1.934031285345554351806640625</LongitudeDegrees>
            </Position>
            <AltitudeMeters>998.5999755859375</AltitudeMeters>
            <DistanceMeters>35545.368599447</DistanceMeters>
          </Trackpoint>
          <Trackpoint>
            <Time>2021-08-28T06:59:05.000Z</Time>
            <Position>
              <LatitudeDegrees>38.16892803646624088287353515625</LatitudeDegrees>
              <LongitudeDegrees>-1.9342363066971302032470703125</LongitudeDegrees>
            </Position>
            <AltitudeMeters>999.5999755859375</AltitudeMeters>
            <DistanceMeters>35566.431973248</DistanceMeters>
          </Trackpoint>
          <Trackpoint>
            <Time>2021-08-28T06:59:06.000Z</Time>
            <Position>
              <LatitudeDegrees>38.16895301453769207000732421875</LatitudeDegrees>
              <LongitudeDegrees>-1.93427192978560924530029296875</LongitudeDegrees>
            </Position>
            <AltitudeMeters>999.79998779296875</AltitudeMeters>
            <DistanceMeters>35570.60882705</DistanceMeters>
          </Trackpoint>
          <Trackpoint>
            <Time>2021-08-28T06:59:10.000Z</Time>
            <Position>
              <LatitudeDegrees>38.16903281025588512420654296875</LatitudeDegrees>
              <LongitudeDegrees>-1.9344421662390232086181640625</LongitudeDegrees>
            </Position>
            <AltitudeMeters>1000.4000244140625</AltitudeMeters>
            <DistanceMeters>35587.952178697</DistanceMeters>
          </Trackpoint>
          <Trackpoint>
            <Time>2021-08-28T06:59:12.000Z</Time>
            <Position>
              <LatitudeDegrees>38.16907907836139202117919921875</LatitudeDegrees>
              <LongitudeDegrees>-1.9345259852707386016845703125</LongitudeDegrees>
            </Position>
            <AltitudeMeters>1000.5999755859375</AltitudeMeters>
            <DistanceMeters>35596.913958648</DistanceMeters>
          </Trackpoint>
          <Trackpoint>
            <Time>2021-08-28T06:59:14.000Z</Time>
            <Position>
              <LatitudeDegrees>38.169126100838184356689453125</LatitudeDegrees>
              <LongitudeDegrees>-1.93460829555988311767578125</LongitudeDegrees>
            </Position>
            <AltitudeMeters>1001</AltitudeMeters>
            <DistanceMeters>35605.817611893</DistanceMeters>
          </Trackpoint>
          <Trackpoint>
            <Time>2021-08-28T06:59:18.000Z</Time>
            <Position>
              <LatitudeDegrees>38.1692107580602169036865234375</LatitudeDegrees>
              <LongitudeDegrees>-1.93476847372949123382568359375</LongitudeDegrees>
            </Position>
            <AltitudeMeters>1001.79998779296875</AltitudeMeters>
            <DistanceMeters>35622.70672243</DistanceMeters>
          </Trackpoint>
          <Trackpoint>
            <Time>2021-08-28T06:59:19.000Z</Time>
            <Position>
              <LatitudeDegrees>38.1692291982471942901611328125</LatitudeDegrees>
              <LongitudeDegrees>-1.93480803631246089935302734375</LongitudeDegrees>
            </Position>
            <AltitudeMeters>1002</AltitudeMeters>
            <DistanceMeters>35626.729395296</DistanceMeters>
          </Trackpoint>
          <Trackpoint>
            <Time>2021-08-28T06:59:20.000Z</Time>
            <Position>
              <LatitudeDegrees>38.1692489795386791229248046875</LatitudeDegrees>
              <LongitudeDegrees>-1.93484592251479625701904296875</LongitudeDegrees>
            </Position>
            <AltitudeMeters>1002.20001220703125</AltitudeMeters>
            <DistanceMeters>35630.709188517</DistanceMeters>
          </Trackpoint>
          <Trackpoint>
            <Time>2021-08-28T06:59:26.000Z</Time>
            <Position>
              <LatitudeDegrees>38.16936071030795574188232421875</LatitudeDegrees>
              <LongitudeDegrees>-1.93509989418089389801025390625</LongitudeDegrees>
            </Position>
            <AltitudeMeters>1003.20001220703125</AltitudeMeters>
            <DistanceMeters>35656.175638803</DistanceMeters>
          </Trackpoint>
          <Trackpoint>
            <Time>2021-08-28T06:59:30.000Z</Time>
            <Position>
              <LatitudeDegrees>38.16942290402948856353759765625</LatitudeDegrees>
              <LongitudeDegrees>-1.9352662749588489532470703125</LongitudeDegrees>
            </Position>
            <AltitudeMeters>1003.5999755859375</AltitudeMeters>
            <DistanceMeters>35672.296326443</DistanceMeters>
          </Trackpoint>
          <Trackpoint>
            <Time>2021-08-28T06:59:32.000Z</Time>
            <Position>
              <LatitudeDegrees>38.16945743747055530548095703125</LatitudeDegrees>
              <LongitudeDegrees>-1.935348249971866607666015625</LongitudeDegrees>
            </Position>
            <AltitudeMeters>1004.20001220703125</AltitudeMeters>
            <DistanceMeters>35680.434297974</DistanceMeters>
          </Trackpoint>
          <Trackpoint>
            <Time>2021-08-28T06:59:33.000Z</Time>
            <Position>
              <LatitudeDegrees>38.16947319544851779937744140625</LatitudeDegrees>
              <LongitudeDegrees>-1.93538873456418514251708984375</LongitudeDegrees>
            </Position>
            <AltitudeMeters>1004.4000244140625</AltitudeMeters>
            <DistanceMeters>35684.386769637</DistanceMeters>
          </Trackpoint>
          <Trackpoint>
            <Time>2021-08-28T06:59:38.000Z</Time>
            <Position>
              <LatitudeDegrees>38.16951267421245574951171875</LatitudeDegrees>
              <LongitudeDegrees>-1.9356062449514865875244140625</LongitudeDegrees>
            </Position>
            <AltitudeMeters>1005.20001220703125</AltitudeMeters>
            <DistanceMeters>35703.920249872</DistanceMeters>
          </Trackpoint>
          <Trackpoint>
            <Time>2021-08-28T06:59:39.000Z</Time>
            <Position>
              <LatitudeDegrees>38.16951326094567775726318359375</LatitudeDegrees>
              <LongitudeDegrees>-1.935651339590549468994140625</LongitudeDegrees>
            </Position>
            <AltitudeMeters>1005.4000244140625</AltitudeMeters>
            <DistanceMeters>35707.867005738</DistanceMeters>
          </Trackpoint>
          <Trackpoint>
            <Time>2021-08-28T06:59:40.000Z</Time>
            <Position>
              <LatitudeDegrees>38.169509656727313995361328125</LatitudeDegrees>
              <LongitudeDegrees>-1.93569660186767578125</LongitudeDegrees>
            </Position>
            <AltitudeMeters>1005.5999755859375</AltitudeMeters>
            <DistanceMeters>35711.847933288</DistanceMeters>
          </Trackpoint>
          <Trackpoint>
            <Time>2021-08-28T06:59:43.000Z</Time>
            <Position>
              <LatitudeDegrees>38.16946766339242458343505859375</LatitudeDegrees>
              <LongitudeDegrees>-1.93582610227167606353759765625</LongitudeDegrees>
            </Position>
            <AltitudeMeters>1006.4000244140625</AltitudeMeters>
            <DistanceMeters>35724.10527443</DistanceMeters>
          </Trackpoint>
          <Trackpoint>
            <Time>2021-08-28T06:59:44.000Z</Time>
            <Position>
              <LatitudeDegrees>38.16944771446287631988525390625</LatitudeDegrees>
              <LongitudeDegrees>-1.93586700595915317535400390625</LongitudeDegrees>
            </Position>
            <AltitudeMeters>1006.5999755859375</AltitudeMeters>
            <DistanceMeters>35728.317649082</DistanceMeters>
          </Trackpoint>
          <Trackpoint>
            <Time>2021-08-28T06:59:48.000Z</Time>
            <Position>
              <LatitudeDegrees>38.169368170201778411865234375</LatitudeDegrees>
              <LongitudeDegrees>-1.9360251724720001220703125</LongitudeDegrees>
            </Position>
            <AltitudeMeters>1007.4000244140625</AltitudeMeters>
            <DistanceMeters>35744.747655328</DistanceMeters>
          </Trackpoint>
          <Trackpoint>
            <Time>2021-08-28T06:59:50.000Z</Time>
            <Position>
              <LatitudeDegrees>38.1693403422832489013671875</LatitudeDegrees>
              <LongitudeDegrees>-1.936111338436603546142578125</LongitudeDegrees>
            </Position>
            <AltitudeMeters>1007.5999755859375</AltitudeMeters>
            <DistanceMeters>35752.898931453</DistanceMeters>
          </Trackpoint>
          <Trackpoint>
            <Time>2021-08-28T06:59:51.000Z</Time>
            <Position>
              <LatitudeDegrees>38.1693384982645511627197265625</LatitudeDegrees>
              <LongitudeDegrees>-1.936152242124080657958984375</LongitudeDegrees>
            </Position>
            <AltitudeMeters>1007.79998779296875</AltitudeMeters>
            <DistanceMeters>35756.484852375</DistanceMeters>
          </Trackpoint>
          <Trackpoint>
            <Time>2021-08-28T06:59:57.000Z</Time>
            <Position>
              <LatitudeDegrees>38.16935710608959197998046875</LatitudeDegrees>
              <LongitudeDegrees>-1.9364454410970211029052734375</LongitudeDegrees>
            </Position>
            <AltitudeMeters>1008.4000244140625</AltitudeMeters>
            <DistanceMeters>35782.224465399</DistanceMeters>
          </Trackpoint>
          <Trackpoint>
            <Time>2021-08-28T06:59:58.000Z</Time>
            <Position>
              <LatitudeDegrees>38.169363476336002349853515625</LatitudeDegrees>
              <LongitudeDegrees>-1.93649296648800373077392578125</LongitudeDegrees>
            </Position>
            <AltitudeMeters>1008.79998779296875</AltitudeMeters>
            <DistanceMeters>35786.443266256</DistanceMeters>
          </Trackpoint>
          <Trackpoint>
            <Time>2021-08-28T07:00:00.000Z</Time>
            <Position>
              <LatitudeDegrees>38.16937663592398166656494140625</LatitudeDegrees>
              <LongitudeDegrees>-1.93658935837447643280029296875</LongitudeDegrees>
            </Position>
            <AltitudeMeters>1009</AltitudeMeters>
            <DistanceMeters>35795.00464059</DistanceMeters>
          </Trackpoint>
          <Trackpoint>
            <Time>2021-08-28T07:00:04.000Z</Time>
            <Position>
              <LatitudeDegrees>38.1693978421390056610107421875</LatitudeDegrees>
              <LongitudeDegrees>-1.9367922842502593994140625</LongitudeDegrees>
            </Position>
            <AltitudeMeters>1009.79998779296875</AltitudeMeters>
            <DistanceMeters>35812.917617349</DistanceMeters>
          </Trackpoint>
          <Trackpoint>
            <Time>2021-08-28T07:00:05.000Z</Time>
            <Position>
              <LatitudeDegrees>38.16940429620444774627685546875</LatitudeDegrees>
              <LongitudeDegrees>-1.93684081546962261199951171875</LongitudeDegrees>
            </Position>
            <AltitudeMeters>1010</AltitudeMeters>
            <DistanceMeters>35817.224330366</DistanceMeters>
          </Trackpoint>
          <Trackpoint>
            <Time>2021-08-28T07:00:09.000Z</Time>
            <Position>
              <LatitudeDegrees>38.16942441277205944061279296875</LatitudeDegrees>
              <LongitudeDegrees>-1.9370418973267078399658203125</LongitudeDegrees>
            </Position>
            <AltitudeMeters>1011</AltitudeMeters>
            <DistanceMeters>35834.961519076</DistanceMeters>
          </Trackpoint>
          <Trackpoint>
            <Time>2021-08-28T07:00:10.000Z</Time>
            <Position>
              <LatitudeDegrees>38.169425837695598602294921875</LatitudeDegrees>
              <LongitudeDegrees>-1.9370975531637668609619140625</LongitudeDegrees>
            </Position>
            <AltitudeMeters>1011.20001220703125</AltitudeMeters>
            <DistanceMeters>35839.832970697</DistanceMeters>
          </Trackpoint>
          <Trackpoint>
            <Time>2021-08-28T07:00:12.000Z</Time>
            <Position>
              <LatitudeDegrees>38.1694327108561992645263671875</LatitudeDegrees>
              <LongitudeDegrees>-1.93720333278179168701171875</LongitudeDegrees>
            </Position>
            <AltitudeMeters>1011.4000244140625</AltitudeMeters>
            <DistanceMeters>35849.120343317</DistanceMeters>
          </Trackpoint>
          <Trackpoint>
            <Time>2021-08-28T07:00:17.000Z</Time>
            <Position>
              <LatitudeDegrees>38.1694529950618743896484375</LatitudeDegrees>
              <LongitudeDegrees>-1.93746887147426605224609375</LongitudeDegrees>
            </Position>
            <AltitudeMeters>1012.20001220703125</AltitudeMeters>
            <DistanceMeters>35872.4656048</DistanceMeters>
          </Trackpoint>
          <Trackpoint>
            <Time>2021-08-28T07:00:20.000Z</Time>
            <Position>
              <LatitudeDegrees>38.16946397535502910614013671875</LatitudeDegrees>
              <LongitudeDegrees>-1.93762184120714664459228515625</LongitudeDegrees>
            </Position>
            <AltitudeMeters>1012.5999755859375</AltitudeMeters>
            <DistanceMeters>35885.90676321</DistanceMeters>
          </Trackpoint>
          <Trackpoint>
            <Time>2021-08-28T07:00:21.000Z</Time>
            <Position>
              <LatitudeDegrees>38.1694662384688854217529296875</LatitudeDegrees>
              <LongitudeDegrees>-1.93767297081649303436279296875</LongitudeDegrees>
            </Position>
            <AltitudeMeters>1012.5999755859375</AltitudeMeters>
            <DistanceMeters>35890.387149347</DistanceMeters>
          </Trackpoint>
          <Trackpoint>
            <Time>2021-08-28T07:00:25.000Z</Time>
            <Position>
              <LatitudeDegrees>38.16946900449693202972412109375</LatitudeDegrees>
              <LongitudeDegrees>-1.937881596386432647705078125</LongitudeDegrees>
            </Position>
            <AltitudeMeters>1013.4000244140625</AltitudeMeters>
            <DistanceMeters>35908.645389462</DistanceMeters>
          </Trackpoint>
          <Trackpoint>
            <Time>2021-08-28T07:00:27.000Z</Time>
            <Position>
              <LatitudeDegrees>38.1694518215954303741455078125</LatitudeDegrees>
              <LongitudeDegrees>-1.937992908060550689697265625</LongitudeDegrees>
            </Position>
            <AltitudeMeters>1013.5999755859375</AltitudeMeters>
            <DistanceMeters>35918.571474495</DistanceMeters>
          </Trackpoint>
          <Trackpoint>
            <Time>2021-08-28T07:00:28.000Z</Time>
            <Position>
              <LatitudeDegrees>38.169431202113628387451171875</LatitudeDegrees>
              <LongitudeDegrees>-1.93804630078375339508056640625</LongitudeDegrees>
            </Position>
            <AltitudeMeters>1013.79998779296875</AltitudeMeters>
            <DistanceMeters>35923.776301997</DistanceMeters>
          </Trackpoint>
          <Trackpoint>
            <Time>2021-08-28T07:00:29.000Z</Time>
            <Position>
              <LatitudeDegrees>38.16940161399543285369873046875</LatitudeDegrees>
              <LongitudeDegrees>-1.938091814517974853515625</LongitudeDegrees>
            </Position>
            <AltitudeMeters>1014</AltitudeMeters>
            <DistanceMeters>35928.944567288</DistanceMeters>
          </Trackpoint>
          <Trackpoint>
            <Time>2021-08-28T07:00:30.000Z</Time>
            <Position>
              <LatitudeDegrees>38.16936423070728778839111328125</LatitudeDegrees>
              <LongitudeDegrees>-1.93813229911029338836669921875</LongitudeDegrees>
            </Position>
            <AltitudeMeters>1014</AltitudeMeters>
            <DistanceMeters>35934.408396781</DistanceMeters>
          </Trackpoint>
          <Trackpoint>
            <Time>2021-08-28T07:00:31.000Z</Time>
            <Position>
              <LatitudeDegrees>38.169322572648525238037109375</LatitudeDegrees>
              <LongitudeDegrees>-1.93816364742815494537353515625</LongitudeDegrees>
            </Position>
            <AltitudeMeters>1014</AltitudeMeters>
            <DistanceMeters>35939.794827474</DistanceMeters>
          </Trackpoint>
          <Trackpoint>
            <Time>2021-08-28T07:00:32.000Z</Time>
            <Position>
              <LatitudeDegrees>38.169278316199779510498046875</LatitudeDegrees>
              <LongitudeDegrees>-1.9381882064044475555419921875</LongitudeDegrees>
            </Position>
            <AltitudeMeters>1014</AltitudeMeters>
            <DistanceMeters>35945.168670091</DistanceMeters>
          </Trackpoint>
          <Trackpoint>
            <Time>2021-08-28T07:00:33.000Z</Time>
            <Position>
              <LatitudeDegrees>38.1692305393517017364501953125</LatitudeDegrees>
              <LongitudeDegrees>-1.9382089935243129730224609375</LongitudeDegrees>
            </Position>
            <AltitudeMeters>1014.20001220703125</AltitudeMeters>
            <DistanceMeters>35950.788919854</DistanceMeters>
          </Trackpoint>
          <Trackpoint>
            <Time>2021-08-28T07:00:38.000Z</Time>
            <Position>
              <LatitudeDegrees>38.16897262819111347198486328125</LatitudeDegrees>
              <LongitudeDegrees>-1.9382737018167972564697265625</LongitudeDegrees>
            </Position>
            <AltitudeMeters>1014.4000244140625</AltitudeMeters>
            <DistanceMeters>35980.047890567</DistanceMeters>
          </Trackpoint>
          <Trackpoint>
            <Time>2021-08-28T07:00:39.000Z</Time>
            <Position>
              <LatitudeDegrees>38.16892183385789394378662109375</LatitudeDegrees>
              <LongitudeDegrees>-1.938284933567047119140625</LongitudeDegrees>
            </Position>
            <AltitudeMeters>1014.79998779296875</AltitudeMeters>
            <DistanceMeters>35985.786591535</DistanceMeters>
          </Trackpoint>
          <Trackpoint>
            <Time>2021-08-28T07:00:40.000Z</Time>
            <Position>
              <LatitudeDegrees>38.16886802203953266143798828125</LatitudeDegrees>
              <LongitudeDegrees>-1.93829742260277271270751953125</LongitudeDegrees>
            </Position>
            <AltitudeMeters>1015</AltitudeMeters>
            <DistanceMeters>35991.874237527</DistanceMeters>
          </Trackpoint>
          <Trackpoint>
            <Time>2021-08-28T07:00:46.000Z</Time>
            <Position>
              <LatitudeDegrees>38.16853241063654422760009765625</LatitudeDegrees>
              <LongitudeDegrees>-1.938370764255523681640625</LongitudeDegrees>
            </Position>
            <AltitudeMeters>1015.79998779296875</AltitudeMeters>
            <DistanceMeters>36029.775604135</DistanceMeters>
          </Trackpoint>
          <Trackpoint>
            <Time>2021-08-28T07:00:47.000Z</Time>
            <Position>
              <LatitudeDegrees>38.1684771738946437835693359375</LatitudeDegrees>
              <LongitudeDegrees>-1.93838442675769329071044921875</LongitudeDegrees>
            </Position>
            <AltitudeMeters>1015.79998779296875</AltitudeMeters>
            <DistanceMeters>36036.038722534</DistanceMeters>
          </Trackpoint>
          <Trackpoint>
            <Time>2021-08-28T07:00:50.000Z</Time>
            <Position>
              <LatitudeDegrees>38.168310038745403289794921875</LatitudeDegrees>
              <LongitudeDegrees>-1.93842130713164806365966796875</LongitudeDegrees>
            </Position>
            <AltitudeMeters>1016.20001220703125</AltitudeMeters>
            <DistanceMeters>36054.919170031</DistanceMeters>
          </Trackpoint>
          <Trackpoint>
            <Time>2021-08-28T07:00:55.000Z</Time>
            <Position>
              <LatitudeDegrees>38.168011642992496490478515625</LatitudeDegrees>
              <LongitudeDegrees>-1.93849087692797183990478515625</LongitudeDegrees>
            </Position>
            <AltitudeMeters>1015.79998779296875</AltitudeMeters>
            <DistanceMeters>36088.68455662</DistanceMeters>
          </Trackpoint>
          <Trackpoint>
            <Time>2021-08-28T07:01:00.000Z</Time>
            <Position>
              <LatitudeDegrees>38.16770243458449840545654296875</LatitudeDegrees>
              <LongitudeDegrees>-1.938570924103260040283203125</LongitudeDegrees>
            </Position>
            <AltitudeMeters>1015.5999755859375</AltitudeMeters>
            <DistanceMeters>36123.805638353</DistanceMeters>
          </Trackpoint>
          <Trackpoint>
            <Time>2021-08-28T07:01:03.000Z</Time>
            <Position>
              <LatitudeDegrees>38.167525492608547210693359375</LatitudeDegrees>
              <LongitudeDegrees>-1.9386135041713714599609375</LongitudeDegrees>
            </Position>
            <AltitudeMeters>1015.79998779296875</AltitudeMeters>
            <DistanceMeters>36143.848842709</DistanceMeters>
          </Trackpoint>
          <Trackpoint>
            <Time>2021-08-28T07:01:06.000Z</Time>
            <Position>
              <LatitudeDegrees>38.16736179403960704803466796875</LatitudeDegrees>
              <LongitudeDegrees>-1.938652060925960540771484375</LongitudeDegrees>
            </Position>
            <AltitudeMeters>1015.4000244140625</AltitudeMeters>
            <DistanceMeters>36162.378321022</DistanceMeters>
          </Trackpoint>
          <Trackpoint>
            <Time>2021-08-28T07:01:09.000Z</Time>
            <Position>
              <LatitudeDegrees>38.16721058450639247894287109375</LatitudeDegrees>
              <LongitudeDegrees>-1.93872691132128238677978515625</LongitudeDegrees>
            </Position>
            <AltitudeMeters>1015.79998779296875</AltitudeMeters>
            <DistanceMeters>36180.437897456</DistanceMeters>
          </Trackpoint>
          <Trackpoint>
            <Time>2021-08-28T07:01:10.000Z</Time>
            <Position>
              <LatitudeDegrees>38.1671628914773464202880859375</LatitudeDegrees>
              <LongitudeDegrees>-1.93876580335199832916259765625</LongitudeDegrees>
            </Position>
            <AltitudeMeters>1016</AltitudeMeters>
            <DistanceMeters>36186.742689008</DistanceMeters>
          </Trackpoint>
          <Trackpoint>
            <Time>2021-08-28T07:01:14.000Z</Time>
            <Position>
              <LatitudeDegrees>38.16701075993478298187255859375</LatitudeDegrees>
              <LongitudeDegrees>-1.93896445445716381072998046875</LongitudeDegrees>
            </Position>
            <AltitudeMeters>1016.4000244140625</AltitudeMeters>
            <DistanceMeters>36211.009691402</DistanceMeters>
          </Trackpoint>
          <Trackpoint>
            <Time>2021-08-28T07:01:16.000Z</Time>
            <Position>
              <LatitudeDegrees>38.1669506616890430450439453125</LatitudeDegrees>
              <LongitudeDegrees>-1.93907107226550579071044921875</LongitudeDegrees>
            </Position>
            <AltitudeMeters>1016.79998779296875</AltitudeMeters>
            <DistanceMeters>36222.489453404</DistanceMeters>
          </Trackpoint>
          <Trackpoint>
            <Time>2021-08-28T07:01:20.000Z</Time>
            <Position>
              <LatitudeDegrees>38.166857622563838958740234375</LatitudeDegrees>
              <LongitudeDegrees>-1.9392721541225910186767578125</LongitudeDegrees>
            </Position>
            <AltitudeMeters>1017.4000244140625</AltitudeMeters>
            <DistanceMeters>36242.90671201</DistanceMeters>
          </Trackpoint>
          <Trackpoint>
            <Time>2021-08-28T07:01:22.000Z</Time>
            <Position>
              <LatitudeDegrees>38.166826777160167694091796875</LatitudeDegrees>
              <LongitudeDegrees>-1.93938220851123332977294921875</LongitudeDegrees>
            </Position>
            <AltitudeMeters>1017.5999755859375</AltitudeMeters>
            <DistanceMeters>36253.131692453</DistanceMeters>
          </Trackpoint>
          <Trackpoint>
            <Time>2021-08-28T07:01:24.000Z</Time>
            <Position>
              <LatitudeDegrees>38.16681479103863239288330078125</LatitudeDegrees>
              <LongitudeDegrees>-1.9394998066127300262451171875</LongitudeDegrees>
            </Position>
            <AltitudeMeters>1017.79998779296875</AltitudeMeters>
            <DistanceMeters>36263.508331192</DistanceMeters>
          </Trackpoint>
          <Trackpoint>
            <Time>2021-08-28T07:01:25.000Z</Time>
            <Position>
              <LatitudeDegrees>38.16681529395282268524169921875</LatitudeDegrees>
              <LongitudeDegrees>-1.9395564682781696319580078125</LongitudeDegrees>
            </Position>
            <AltitudeMeters>1018.20001220703125</AltitudeMeters>
            <DistanceMeters>36268.46613999</DistanceMeters>
          </Trackpoint>
          <Trackpoint>
            <Time>2021-08-28T07:01:26.000Z</Time>
            <Position>
              <LatitudeDegrees>38.16682216711342334747314453125</LatitudeDegrees>
              <LongitudeDegrees>-1.939610280096530914306640625</LongitudeDegrees>
            </Position>
            <AltitudeMeters>1018.5999755859375</AltitudeMeters>
            <DistanceMeters>36273.236443192</DistanceMeters>
          </Trackpoint>
          <Trackpoint>
            <Time>2021-08-28T07:01:27.000Z</Time>
            <Position>
              <LatitudeDegrees>38.1668324768543243408203125</LatitudeDegrees>
              <LongitudeDegrees>-1.93966157734394073486328125</LongitudeDegrees>
            </Position>
            <AltitudeMeters>1018.5999755859375</AltitudeMeters>
            <DistanceMeters>36277.8694219</DistanceMeters>
          </Trackpoint>
          <Trackpoint>
            <Time>2021-08-28T07:01:30.000Z</Time>
            <Position>
              <LatitudeDegrees>38.166871704161167144775390625</LatitudeDegrees>
              <LongitudeDegrees>-1.9398042373359203338623046875</LongitudeDegrees>
            </Position>
            <AltitudeMeters>1019.20001220703125</AltitudeMeters>
            <DistanceMeters>36291.09453251</DistanceMeters>
          </Trackpoint>
          <Trackpoint>
            <Time>2021-08-28T07:01:31.000Z</Time>
            <Position>
              <LatitudeDegrees>38.1668856181204319000244140625</LatitudeDegrees>
              <LongitudeDegrees>-1.93985058926045894622802734375</LongitudeDegrees>
            </Position>
            <AltitudeMeters>1019.4000244140625</AltitudeMeters>
            <DistanceMeters>36295.436743884</DistanceMeters>
          </Trackpoint>
          <Trackpoint>
            <Time>2021-08-28T07:01:32.000Z</Time>
            <Position>
              <LatitudeDegrees>38.166901879012584686279296875</LatitudeDegrees>
              <LongitudeDegrees>-1.9398954324424266815185546875</LongitudeDegrees>
            </Position>
            <AltitudeMeters>1019.5999755859375</AltitudeMeters>
            <DistanceMeters>36299.758109187</DistanceMeters>
          </Trackpoint>
          <Trackpoint>
            <Time>2021-08-28T07:01:35.000Z</Time>
            <Position>
              <LatitudeDegrees>38.16695342771708965301513671875</LatitudeDegrees>
              <LongitudeDegrees>-1.9400295428931713104248046875</LongitudeDegrees>
            </Position>
            <AltitudeMeters>1020.20001220703125</AltitudeMeters>
            <DistanceMeters>36312.821085669</DistanceMeters>
          </Trackpoint>
          <Trackpoint>
            <Time>2021-08-28T07:01:37.000Z</Time>
            <Position>
              <LatitudeDegrees>38.166992403566837310791015625</LatitudeDegrees>
              <LongitudeDegrees>-1.940127275884151458740234375</LongitudeDegrees>
            </Position>
            <AltitudeMeters>1020.5999755859375</AltitudeMeters>
            <DistanceMeters>36322.410783188</DistanceMeters>
          </Trackpoint>
          <Trackpoint>
            <Time>2021-08-28T07:01:38.000Z</Time>
            <Position>
              <LatitudeDegrees>38.167011849582195281982421875</LatitudeDegrees>
              <LongitudeDegrees>-1.9401753880083560943603515625</LongitudeDegrees>
            </Position>
            <AltitudeMeters>1021</AltitudeMeters>
            <DistanceMeters>36327.144983198</DistanceMeters>
          </Trackpoint>
          <Trackpoint>
            <Time>2021-08-28T07:01:40.000Z</Time>
            <Position>
              <LatitudeDegrees>38.16704571247100830078125</LatitudeDegrees>
              <LongitudeDegrees>-1.9402722828090190887451171875</LongitudeDegrees>
            </Position>
            <AltitudeMeters>1021.79998779296875</AltitudeMeters>
            <DistanceMeters>36336.424574189</DistanceMeters>
          </Trackpoint>
          <Trackpoint>
            <Time>2021-08-28T07:01:45.000Z</Time>
            <Position>
              <LatitudeDegrees>38.16712592728435993194580078125</LatitudeDegrees>
              <LongitudeDegrees>-1.940495073795318603515625</LongitudeDegrees>
            </Position>
            <AltitudeMeters>1022.4000244140625</AltitudeMeters>
            <DistanceMeters>36357.867579166</DistanceMeters>
          </Trackpoint>
          <Trackpoint>
            <Time>2021-08-28T07:01:47.000Z</Time>
            <Position>
              <LatitudeDegrees>38.16715694032609462738037109375</LatitudeDegrees>
              <LongitudeDegrees>-1.9405827485024929046630859375</LongitudeDegrees>
            </Position>
            <AltitudeMeters>1022.79998779296875</AltitudeMeters>
            <DistanceMeters>36366.280529848</DistanceMeters>
          </Trackpoint>
          <Trackpoint>
            <Time>2021-08-28T07:01:50.000Z</Time>
            <Position>
              <LatitudeDegrees>38.16720622591674327850341796875</LatitudeDegrees>
              <LongitudeDegrees>-1.9407056272029876708984375</LongitudeDegrees>
            </Position>
            <AltitudeMeters>1024</AltitudeMeters>
            <DistanceMeters>36378.351541135</DistanceMeters>
          </Trackpoint>
          <Trackpoint>
            <Time>2021-08-28T07:01:53.000Z</Time>
            <Position>
              <LatitudeDegrees>38.16726255230605602264404296875</LatitudeDegrees>
              <LongitudeDegrees>-1.94082163274288177490234375</LongitudeDegrees>
            </Position>
            <AltitudeMeters>1024.5999755859375</AltitudeMeters>
            <DistanceMeters>36390.2825983</DistanceMeters>
          </Trackpoint>
          <Trackpoint>
            <Time>2021-08-28T07:01:55.000Z</Time>
            <Position>
              <LatitudeDegrees>38.16729842685163021087646484375</LatitudeDegrees>
              <LongitudeDegrees>-1.940899081528186798095703125</LongitudeDegrees>
            </Position>
            <AltitudeMeters>1025</AltitudeMeters>
            <DistanceMeters>36398.149180396</DistanceMeters>
          </Trackpoint>
          <Trackpoint>
            <Time>2021-08-28T07:02:00.000Z</Time>
            <Position>
              <LatitudeDegrees>38.1674059666693210601806640625</LatitudeDegrees>
              <LongitudeDegrees>-1.94109027273952960968017578125</LongitudeDegrees>
            </Position>
            <AltitudeMeters>1025.5999755859375</AltitudeMeters>
            <DistanceMeters>36418.720653422</DistanceMeters>
          </Trackpoint>
          <Trackpoint>
            <Time>2021-08-28T07:02:05.000Z</Time>
            <Position>
              <LatitudeDegrees>38.1675109080970287322998046875</LatitudeDegrees>
              <LongitudeDegrees>-1.9412586651742458343505859375</LongitudeDegrees>
            </Position>
            <AltitudeMeters>1026</AltitudeMeters>
            <DistanceMeters>36437.523940716</DistanceMeters>
          </Trackpoint>
          <Trackpoint>
            <Time>2021-08-28T07:02:08.000Z</Time>
            <Position>
              <LatitudeDegrees>38.1675699166953563690185546875</LatitudeDegrees>
              <LongitudeDegrees>-1.94135145284235477447509765625</LongitudeDegrees>
            </Position>
            <AltitudeMeters>1026.5999755859375</AltitudeMeters>
            <DistanceMeters>36447.966939961</DistanceMeters>
          </Trackpoint>
          <Trackpoint>
            <Time>2021-08-28T07:02:10.000Z</Time>
            <Position>
              <LatitudeDegrees>38.1676088087260723114013671875</LatitudeDegrees>
              <LongitudeDegrees>-1.94140878506004810333251953125</LongitudeDegrees>
            </Position>
            <AltitudeMeters>1026.800048828125</AltitudeMeters>
            <DistanceMeters>36454.5929668</DistanceMeters>
          </Trackpoint>
          <Trackpoint>
            <Time>2021-08-28T07:02:12.000Z</Time>
            <Position>
              <LatitudeDegrees>38.16764912568032741546630859375</LatitudeDegrees>
              <LongitudeDegrees>-1.9414662010967731475830078125</LongitudeDegrees>
            </Position>
            <AltitudeMeters>1027.199951171875</AltitudeMeters>
            <DistanceMeters>36461.329818008</DistanceMeters>
          </Trackpoint>
          <Trackpoint>
            <Time>2021-08-28T07:02:16.000Z</Time>
            <Position>
              <LatitudeDegrees>38.1677365489304065704345703125</LatitudeDegrees>
              <LongitudeDegrees>-1.94159318692982196807861328125</LongitudeDegrees>
            </Position>
            <AltitudeMeters>1027.800048828125</AltitudeMeters>
            <DistanceMeters>36476.099671993</DistanceMeters>
          </Trackpoint>
          <Trackpoint>
            <Time>2021-08-28T07:02:17.000Z</Time>
            <Position>
              <LatitudeDegrees>38.16775607876479625701904296875</LatitudeDegrees>
              <LongitudeDegrees>-1.94162034429609775543212890625</LongitudeDegrees>
            </Position>
            <AltitudeMeters>1028.4000244140625</AltitudeMeters>
            <DistanceMeters>36479.320783266</DistanceMeters>
          </Trackpoint>
          <Trackpoint>
            <Time>2021-08-28T07:02:20.000Z</Time>
            <Position>
              <LatitudeDegrees>38.16781223751604557037353515625</LatitudeDegrees>
              <LongitudeDegrees>-1.94171170704066753387451171875</LongitudeDegrees>
            </Position>
            <AltitudeMeters>1029.199951171875</AltitudeMeters>
            <DistanceMeters>36489.468639777</DistanceMeters>
          </Trackpoint>
          <Trackpoint>
            <Time>2021-08-28T07:02:22.000Z</Time>
            <Position>
              <LatitudeDegrees>38.1678545661270618438720703125</LatitudeDegrees>
              <LongitudeDegrees>-1.94177306257188320159912109375</LongitudeDegrees>
            </Position>
            <AltitudeMeters>1029.5999755859375</AltitudeMeters>
            <DistanceMeters>36496.611463582</DistanceMeters>
          </Trackpoint>
          <Trackpoint>
            <Time>2021-08-28T07:02:23.000Z</Time>
            <Position>
              <LatitudeDegrees>38.16787091083824634552001953125</LatitudeDegrees>
              <LongitudeDegrees>-1.941804997622966766357421875</LongitudeDegrees>
            </Position>
            <AltitudeMeters>1029.800048828125</AltitudeMeters>
            <DistanceMeters>36499.945533783</DistanceMeters>
          </Trackpoint>
          <Trackpoint>
            <Time>2021-08-28T07:02:27.000Z</Time>
            <Position>
              <LatitudeDegrees>38.16795204766094684600830078125</LatitudeDegrees>
              <LongitudeDegrees>-1.9419238530099391937255859375</LongitudeDegrees>
            </Position>
            <AltitudeMeters>1030.4000244140625</AltitudeMeters>
            <DistanceMeters>36513.719491315</DistanceMeters>
          </Trackpoint>
          <Trackpoint>
            <Time>2021-08-28T07:02:28.000Z</Time>
            <Position>
              <LatitudeDegrees>38.16797484643757343292236328125</LatitudeDegrees>
              <LongitudeDegrees>-1.941949166357517242431640625</LongitudeDegrees>
            </Position>
            <AltitudeMeters>1030.800048828125</AltitudeMeters>
            <DistanceMeters>36517.087246652</DistanceMeters>
          </Trackpoint>
          <Trackpoint>
            <Time>2021-08-28T07:02:30.000Z</Time>
            <Position>
              <LatitudeDegrees>38.16800904460251331329345703125</LatitudeDegrees>
              <LongitudeDegrees>-1.9420100189745426177978515625</LongitudeDegrees>
            </Position>
            <AltitudeMeters>1031.199951171875</AltitudeMeters>
            <DistanceMeters>36523.632373286</DistanceMeters>
          </Trackpoint>
          <Trackpoint>
            <Time>2021-08-28T07:02:33.000Z</Time>
            <Position>
              <LatitudeDegrees>38.16806696355342864990234375</LatitudeDegrees>
              <LongitudeDegrees>-1.94211102090775966644287109375</LongitudeDegrees>
            </Position>
            <AltitudeMeters>1032.199951171875</AltitudeMeters>
            <DistanceMeters>36534.57159506</DistanceMeters>
          </Trackpoint>
          <Trackpoint>
            <Time>2021-08-28T07:02:37.000Z</Time>
            <Position>
              <LatitudeDegrees>38.1681532971560955047607421875</LatitudeDegrees>
              <LongitudeDegrees>-1.94222845137119293212890625</LongitudeDegrees>
            </Position>
            <AltitudeMeters>1033</AltitudeMeters>
            <DistanceMeters>36548.640363506</DistanceMeters>
          </Trackpoint>
          <Trackpoint>
            <Time>2021-08-28T07:02:38.000Z</Time>
            <Position>
              <LatitudeDegrees>38.16817215643823146820068359375</LatitudeDegrees>
              <LongitudeDegrees>-1.9422577880322933197021484375</LongitudeDegrees>
            </Position>
            <AltitudeMeters>1033.199951171875</AltitudeMeters>
            <DistanceMeters>36551.958143364</DistanceMeters>
          </Trackpoint>
          <Trackpoint>
            <Time>2021-08-28T07:02:40.000Z</Time>
            <Position>
              <LatitudeDegrees>38.16821574233472347259521484375</LatitudeDegrees>
              <LongitudeDegrees>-1.94230849854648113250732421875</LongitudeDegrees>
            </Position>
            <AltitudeMeters>1033.4000244140625</AltitudeMeters>
            <DistanceMeters>36558.533552554</DistanceMeters>
          </Trackpoint>
          <Trackpoint>
            <Time>2021-08-28T07:02:43.000Z</Time>
            <Position>
              <LatitudeDegrees>38.1683024950325489044189453125</LatitudeDegrees>
              <LongitudeDegrees>-1.94239047355949878692626953125</LongitudeDegrees>
            </Position>
            <AltitudeMeters>1034</AltitudeMeters>
            <DistanceMeters>36570.56222309</DistanceMeters>
          </Trackpoint>
          <Trackpoint>
            <Time>2021-08-28T07:02:45.000Z</Time>
            <Position>
              <LatitudeDegrees>38.1683601625263690948486328125</LatitudeDegrees>
              <LongitudeDegrees>-1.9424458779394626617431640625</LongitudeDegrees>
            </Position>
            <AltitudeMeters>1034.4000244140625</AltitudeMeters>
            <DistanceMeters>36578.606446346</DistanceMeters>
          </Trackpoint>
          <Trackpoint>
            <Time>2021-08-28T07:02:48.000Z</Time>
            <Position>
              <LatitudeDegrees>38.16844339482486248016357421875</LatitudeDegrees>
              <LongitudeDegrees>-1.942531205713748931884765625</LongitudeDegrees>
            </Position>
            <AltitudeMeters>1035.4000244140625</AltitudeMeters>
            <DistanceMeters>36590.504914251</DistanceMeters>
          </Trackpoint>
          <Trackpoint>
            <Time>2021-08-28T07:02:50.000Z</Time>
            <Position>
              <LatitudeDegrees>38.1685073487460613250732421875</LatitudeDegrees>
              <LongitudeDegrees>-1.9425786472856998443603515625</LongitudeDegrees>
            </Position>
            <AltitudeMeters>1036</AltitudeMeters>
            <DistanceMeters>36598.745434554</DistanceMeters>
          </Trackpoint>
          <Trackpoint>
            <Time>2021-08-28T07:02:54.000Z</Time>
            <Position>
              <LatitudeDegrees>38.1686174869537353515625</LatitudeDegrees>
              <LongitudeDegrees>-1.942671351134777069091796875</LongitudeDegrees>
            </Position>
            <AltitudeMeters>1036.5999755859375</AltitudeMeters>
            <DistanceMeters>36613.445118197</DistanceMeters>
          </Trackpoint>
          <Trackpoint>
            <Time>2021-08-28T07:02:55.000Z</Time>
            <Position>
              <LatitudeDegrees>38.1686456501483917236328125</LatitudeDegrees>
              <LongitudeDegrees>-1.9426956586539745330810546875</LongitudeDegrees>
            </Position>
            <AltitudeMeters>1036.800048828125</AltitudeMeters>
            <DistanceMeters>36617.233098064</DistanceMeters>
          </Trackpoint>
          <Trackpoint>
            <Time>2021-08-28T07:02:58.000Z</Time>
            <Position>
              <LatitudeDegrees>38.16873307339847087860107421875</LatitudeDegrees>
              <LongitudeDegrees>-1.9427583552896976470947265625</LongitudeDegrees>
            </Position>
            <AltitudeMeters>1037.5999755859375</AltitudeMeters>
            <DistanceMeters>36628.403487328</DistanceMeters>
          </Trackpoint>
          <Trackpoint>
            <Time>2021-08-28T07:03:00.000Z</Time>
            <Position>
              <LatitudeDegrees>38.16878939978778362274169921875</LatitudeDegrees>
              <LongitudeDegrees>-1.94280018098652362823486328125</LongitudeDegrees>
            </Position>
            <AltitudeMeters>1038</AltitudeMeters>
            <DistanceMeters>36635.662931254</DistanceMeters>
          </Trackpoint>
          <Trackpoint>
            <Time>2021-08-28T07:03:02.000Z</Time>
            <Position>
              <LatitudeDegrees>38.16884388215839862823486328125</LatitudeDegrees>
              <LongitudeDegrees>-1.9428465329110622406005859375</LongitudeDegrees>
            </Position>
            <AltitudeMeters>1038</AltitudeMeters>
            <DistanceMeters>36642.958359313</DistanceMeters>
          </Trackpoint>
          <Trackpoint>
            <Time>2021-08-28T07:03:06.000Z</Time>
            <Position>
              <LatitudeDegrees>38.16894848830997943878173828125</LatitudeDegrees>
              <LongitudeDegrees>-1.9429256580770015716552734375</LongitudeDegrees>
            </Position>
            <AltitudeMeters>1038.800048828125</AltitudeMeters>
            <DistanceMeters>36656.504249957</DistanceMeters>
          </Trackpoint>
          <Trackpoint>
            <Time>2021-08-28T07:03:08.000Z</Time>
            <Position>
              <LatitudeDegrees>38.16899836063385009765625</LatitudeDegrees>
              <LongitudeDegrees>-1.94296605885028839111328125</LongitudeDegrees>
            </Position>
            <AltitudeMeters>1039.199951171875</AltitudeMeters>
            <DistanceMeters>36663.085150095</DistanceMeters>
          </Trackpoint>
          <Trackpoint>
            <Time>2021-08-28T07:03:10.000Z</Time>
            <Position>
              <LatitudeDegrees>38.169063068926334381103515625</LatitudeDegrees>
              <LongitudeDegrees>-1.942995898425579071044921875</LongitudeDegrees>
            </Position>
            <AltitudeMeters>1039.4000244140625</AltitudeMeters>
            <DistanceMeters>36670.746448737</DistanceMeters>
          </Trackpoint>
          <Trackpoint>
            <Time>2021-08-28T07:03:12.000Z</Time>
            <Position>
              <LatitudeDegrees>38.16911847330629825592041015625</LatitudeDegrees>
              <LongitudeDegrees>-1.94303923286497592926025390625</LongitudeDegrees>
            </Position>
            <AltitudeMeters>1040</AltitudeMeters>
            <DistanceMeters>36677.985339095</DistanceMeters>
          </Trackpoint>
          <Trackpoint>
            <Time>2021-08-28T07:03:15.000Z</Time>
            <Position>
              <LatitudeDegrees>38.1691866181790828704833984375</LatitudeDegrees>
              <LongitudeDegrees>-1.94311517290771007537841796875</LongitudeDegrees>
            </Position>
            <AltitudeMeters>1040.800048828125</AltitudeMeters>
            <DistanceMeters>36688.069370572</DistanceMeters>
          </Trackpoint>
          <Trackpoint>
            <Time>2021-08-28T07:03:16.000Z</Time>
            <Position>
              <LatitudeDegrees>38.1692063994705677032470703125</LatitudeDegrees>
              <LongitudeDegrees>-1.94314635358750820159912109375</LongitudeDegrees>
            </Position>
            <AltitudeMeters>1041</AltitudeMeters>
            <DistanceMeters>36691.57635847</DistanceMeters>
          </Trackpoint>
          <Trackpoint>
            <Time>2021-08-28T07:03:20.000Z</Time>
            <Position>
              <LatitudeDegrees>38.16926096566021442413330078125</LatitudeDegrees>
              <LongitudeDegrees>-1.9433020055294036865234375</LongitudeDegrees>
            </Position>
            <AltitudeMeters>1041.800048828125</AltitudeMeters>
            <DistanceMeters>36706.489195982</DistanceMeters>
          </Trackpoint>
          <Trackpoint>
            <Time>2021-08-28T07:03:21.000Z</Time>
            <Position>
              <LatitudeDegrees>38.16927018575370311737060546875</LatitudeDegrees>
              <LongitudeDegrees>-1.9433474354445934295654296875</LongitudeDegrees>
            </Position>
            <AltitudeMeters>1041.800048828125</AltitudeMeters>
            <DistanceMeters>36710.595185841</DistanceMeters>
          </Trackpoint>
          <Trackpoint>
            <Time>2021-08-28T07:03:22.000Z</Time>
            <Position>
              <LatitudeDegrees>38.16927722655236721038818359375</LatitudeDegrees>
              <LongitudeDegrees>-1.94338993169367313385009765625</LongitudeDegrees>
            </Position>
            <AltitudeMeters>1042.199951171875</AltitudeMeters>
            <DistanceMeters>36714.397442064</DistanceMeters>
          </Trackpoint>
          <Trackpoint>
            <Time>2021-08-28T07:03:27.000Z</Time>
            <Position>
              <LatitudeDegrees>38.16932081244885921478271484375</LatitudeDegrees>
              <LongitudeDegrees>-1.94359411485493183135986328125</LongitudeDegrees>
            </Position>
            <AltitudeMeters>1043.199951171875</AltitudeMeters>
            <DistanceMeters>36732.911319067</DistanceMeters>
          </Trackpoint>
          <Trackpoint>
            <Time>2021-08-28T07:03:30.000Z</Time>
            <Position>
              <LatitudeDegrees>38.16934344358742237091064453125</LatitudeDegrees>
              <LongitudeDegrees>-1.94371213205158710479736328125</LongitudeDegrees>
            </Position>
            <AltitudeMeters>1043.5999755859375</AltitudeMeters>
            <DistanceMeters>36743.541151922</DistanceMeters>
          </Trackpoint>
          <Trackpoint>
            <Time>2021-08-28T07:03:34.000Z</Time>
            <Position>
              <LatitudeDegrees>38.169372193515300750732421875</LatitudeDegrees>
              <LongitudeDegrees>-1.94385780952870845794677734375</LongitudeDegrees>
            </Position>
            <AltitudeMeters>1044.199951171875</AltitudeMeters>
            <DistanceMeters>36756.683727858</DistanceMeters>
          </Trackpoint>
          <Trackpoint>
            <Time>2021-08-28T07:03:36.000Z</Time>
            <Position>
              <LatitudeDegrees>38.169390298426151275634765625</LatitudeDegrees>
              <LongitudeDegrees>-1.94392603822052478790283203125</LongitudeDegrees>
            </Position>
            <AltitudeMeters>1044.5999755859375</AltitudeMeters>
            <DistanceMeters>36762.984221176</DistanceMeters>
          </Trackpoint>
          <Trackpoint>
            <Time>2021-08-28T07:03:39.000Z</Time>
            <Position>
              <LatitudeDegrees>38.16941133700311183929443359375</LatitudeDegrees>
              <LongitudeDegrees>-1.9440583884716033935546875</LongitudeDegrees>
            </Position>
            <AltitudeMeters>1045.199951171875</AltitudeMeters>
            <DistanceMeters>36774.799676386</DistanceMeters>
          </Trackpoint>
          <Trackpoint>
            <Time>2021-08-28T07:03:40.000Z</Time>
            <Position>
              <LatitudeDegrees>38.16941821016371250152587890625</LatitudeDegrees>
              <LongitudeDegrees>-1.94410490803420543670654296875</LongitudeDegrees>
            </Position>
            <AltitudeMeters>1045.4000244140625</AltitudeMeters>
            <DistanceMeters>36778.94070466</DistanceMeters>
          </Trackpoint>
          <Trackpoint>
            <Time>2021-08-28T07:03:43.000Z</Time>
            <Position>
              <LatitudeDegrees>38.1694437749683856964111328125</LatitudeDegrees>
              <LongitudeDegrees>-1.944234408438205718994140625</LongitudeDegrees>
            </Position>
            <AltitudeMeters>1046.199951171875</AltitudeMeters>
            <DistanceMeters>36790.623967711</DistanceMeters>
          </Trackpoint>
          <Trackpoint>
            <Time>2021-08-28T07:03:44.000Z</Time>
            <Position>
              <LatitudeDegrees>38.16944972611963748931884765625</LatitudeDegrees>
              <LongitudeDegrees>-1.94427774287760257720947265625</LongitudeDegrees>
            </Position>
            <AltitudeMeters>1046.4000244140625</AltitudeMeters>
            <DistanceMeters>36794.47342942</DistanceMeters>
          </Trackpoint>
          <Trackpoint>
            <Time>2021-08-28T07:03:49.000Z</Time>
            <Position>
              <LatitudeDegrees>38.16947839222848415374755859375</LatitudeDegrees>
              <LongitudeDegrees>-1.94449181668460369110107421875</LongitudeDegrees>
            </Position>
            <AltitudeMeters>1047.5999755859375</AltitudeMeters>
            <DistanceMeters>36813.475683675</DistanceMeters>
          </Trackpoint>
          <Trackpoint>
            <Time>2021-08-28T07:03:50.000Z</Time>
            <Position>
              <LatitudeDegrees>38.16948543302714824676513671875</LatitudeDegrees>
              <LongitudeDegrees>-1.94453506730496883392333984375</LongitudeDegrees>
            </Position>
            <AltitudeMeters>1048</AltitudeMeters>
            <DistanceMeters>36817.340363019</DistanceMeters>
          </Trackpoint>
          <Trackpoint>
            <Time>2021-08-28T07:03:54.000Z</Time>
            <Position>
              <LatitudeDegrees>38.16952734254300594329833984375</LatitudeDegrees>
              <LongitudeDegrees>-1.94468929432332515716552734375</LongitudeDegrees>
            </Position>
            <AltitudeMeters>1048.800048828125</AltitudeMeters>
            <DistanceMeters>36831.61937195</DistanceMeters>
          </Trackpoint>
          <Trackpoint>
            <Time>2021-08-28T07:03:56.000Z</Time>
            <Position>
              <LatitudeDegrees>38.169560618698596954345703125</LatitudeDegrees>
              <LongitudeDegrees>-1.94474645890295505523681640625</LongitudeDegrees>
            </Position>
            <AltitudeMeters>1049</AltitudeMeters>
            <DistanceMeters>36837.843440389</DistanceMeters>
          </Trackpoint>
          <Trackpoint>
            <Time>2021-08-28T07:03:59.000Z</Time>
            <Position>
              <LatitudeDegrees>38.1696278415620326995849609375</LatitudeDegrees>
              <LongitudeDegrees>-1.94480278529226779937744140625</LongitudeDegrees>
            </Position>
            <AltitudeMeters>1050</AltitudeMeters>
            <DistanceMeters>36846.803204872</DistanceMeters>
          </Trackpoint>
          <Trackpoint>
            <Time>2021-08-28T07:04:00.000Z</Time>
            <Position>
              <LatitudeDegrees>38.16965290345251560211181640625</LatitudeDegrees>
              <LongitudeDegrees>-1.9448152743279933929443359375</LongitudeDegrees>
            </Position>
            <AltitudeMeters>1050.199951171875</AltitudeMeters>
            <DistanceMeters>36849.799184843</DistanceMeters>
          </Trackpoint>
          <Trackpoint>
            <Time>2021-08-28T07:04:02.000Z</Time>
            <Position>
              <LatitudeDegrees>38.16970738582313060760498046875</LatitudeDegrees>
              <LongitudeDegrees>-1.9448313675820827484130859375</LongitudeDegrees>
            </Position>
            <AltitudeMeters>1050.5999755859375</AltitudeMeters>
            <DistanceMeters>36856.023253283</DistanceMeters>
          </Trackpoint>
          <Trackpoint>
            <Time>2021-08-28T07:04:05.000Z</Time>
            <Position>
              <LatitudeDegrees>38.16978491842746734619140625</LatitudeDegrees>
              <LongitudeDegrees>-1.94482625462114810943603515625</LongitudeDegrees>
            </Position>
            <AltitudeMeters>1051.199951171875</AltitudeMeters>
            <DistanceMeters>36864.663894002</DistanceMeters>
          </Trackpoint>
          <Trackpoint>
            <Time>2021-08-28T07:04:08.000Z</Time>
            <Position>
              <LatitudeDegrees>38.16986530087888240814208984375</LatitudeDegrees>
              <LongitudeDegrees>-1.94482072256505489349365234375</LongitudeDegrees>
            </Position>
            <AltitudeMeters>1051.800048828125</AltitudeMeters>
            <DistanceMeters>36873.623658485</DistanceMeters>
          </Trackpoint>
          <Trackpoint>
            <Time>2021-08-28T07:04:10.000Z</Time>
            <Position>
              <LatitudeDegrees>38.1699141673743724822998046875</LatitudeDegrees>
              <LongitudeDegrees>-1.94481301121413707733154296875</LongitudeDegrees>
            </Position>
            <AltitudeMeters>1052.199951171875</AltitudeMeters>
            <DistanceMeters>36879.103990067</DistanceMeters>
          </Trackpoint>
          <Trackpoint>
            <Time>2021-08-28T07:04:14.000Z</Time>
            <Position>
              <LatitudeDegrees>38.17001827061176300048828125</LatitudeDegrees>
              <LongitudeDegrees>-1.9447985105216503143310546875</LongitudeDegrees>
            </Position>
            <AltitudeMeters>1053</AltitudeMeters>
            <DistanceMeters>36890.760169981</DistanceMeters>
          </Trackpoint>
          <Trackpoint>
            <Time>2021-08-28T07:04:15.000Z</Time>
            <Position>
              <LatitudeDegrees>38.17004584707319736480712890625</LatitudeDegrees>
              <LongitudeDegrees>-1.9447906315326690673828125</LongitudeDegrees>
            </Position>
            <AltitudeMeters>1053.4000244140625</AltitudeMeters>
            <DistanceMeters>36893.906114002</DistanceMeters>
          </Trackpoint>
          <Trackpoint>
            <Time>2021-08-28T07:04:20.000Z</Time>
            <Position>
              <LatitudeDegrees>38.1701981462538242340087890625</LatitudeDegrees>
              <LongitudeDegrees>-1.944757439196109771728515625</LongitudeDegrees>
            </Position>
            <AltitudeMeters>1054.199951171875</AltitudeMeters>
            <DistanceMeters>36911.104111671</DistanceMeters>
          </Trackpoint>
          <Trackpoint>
            <Time>2021-08-28T07:04:21.000Z</Time>
            <Position>
              <LatitudeDegrees>38.1702299974858760833740234375</LatitudeDegrees>
              <LongitudeDegrees>-1.94475836120545864105224609375</LongitudeDegrees>
            </Position>
            <AltitudeMeters>1054.4000244140625</AltitudeMeters>
            <DistanceMeters>36914.652058481</DistanceMeters>
          </Trackpoint>
          <Trackpoint>
            <Time>2021-08-28T07:04:25.000Z</Time>
            <Position>
              <LatitudeDegrees>38.1703456677496433258056640625</LatitudeDegrees>
              <LongitudeDegrees>-1.9447646476328372955322265625</LongitudeDegrees>
            </Position>
            <AltitudeMeters>1055.5999755859375</AltitudeMeters>
            <DistanceMeters>36927.537905199</DistanceMeters>
          </Trackpoint>
          <Trackpoint>
            <Time>2021-08-28T07:04:28.000Z</Time>
            <Position>
              <LatitudeDegrees>38.17043242044746875762939453125</LatitudeDegrees>
              <LongitudeDegrees>-1.9447850994765758514404296875</LongitudeDegrees>
            </Position>
            <AltitudeMeters>1056.199951171875</AltitudeMeters>
            <DistanceMeters>36937.35835409</DistanceMeters>
          </Trackpoint>
          <Trackpoint>
            <Time>2021-08-28T07:04:30.000Z</Time>
            <Position>
              <LatitudeDegrees>38.170485980808734893798828125</LatitudeDegrees>
              <LongitudeDegrees>-1.9447938166558742523193359375</LongitudeDegrees>
            </Position>
            <AltitudeMeters>1056.5999755859375</AltitudeMeters>
            <DistanceMeters>36943.367619911</DistanceMeters>
          </Trackpoint>
          <Trackpoint>
            <Time>2021-08-28T07:04:31.000Z</Time>
            <Position>
              <LatitudeDegrees>38.170506767928600311279296875</LatitudeDegrees>
              <LongitudeDegrees>-1.94479272700846195220947265625</LongitudeDegrees>
            </Position>
            <AltitudeMeters>1056.800048828125</AltitudeMeters>
            <DistanceMeters>36945.683621942</DistanceMeters>
          </Trackpoint>
          <Trackpoint>
            <Time>2021-08-28T07:04:33.000Z</Time>
            <Position>
              <LatitudeDegrees>38.1705374456942081451416015625</LatitudeDegrees>
              <LongitudeDegrees>-1.9448001869022846221923828125</LongitudeDegrees>
            </Position>
            <AltitudeMeters>1057</AltitudeMeters>
            <DistanceMeters>36949.159573938</DistanceMeters>
          </Trackpoint>
          <Trackpoint>
            <Time>2021-08-28T07:04:38.000Z</Time>
            <Position>
              <LatitudeDegrees>38.1705971248447895050048828125</LatitudeDegrees>
              <LongitudeDegrees>-1.94483698345720767974853515625</LongitudeDegrees>
            </Position>
            <AltitudeMeters>1057.5999755859375</AltitudeMeters>
            <DistanceMeters>36956.541137544</DistanceMeters>
          </Trackpoint>
          <Trackpoint>
            <Time>2021-08-28T07:04:40.000Z</Time>
            <Position>
              <LatitudeDegrees>38.170608021318912506103515625</LatitudeDegrees>
              <LongitudeDegrees>-1.94486279971897602081298828125</LongitudeDegrees>
            </Position>
            <AltitudeMeters>1057.5999755859375</AltitudeMeters>
            <DistanceMeters>36959.105098474</DistanceMeters>
          </Trackpoint>
          <Trackpoint>
            <Time>2021-08-28T07:04:41.000Z</Time>
            <Position>
              <LatitudeDegrees>38.17061648704111576080322265625</LatitudeDegrees>
              <LongitudeDegrees>-1.9448685832321643829345703125</LongitudeDegrees>
            </Position>
            <AltitudeMeters>1057.5999755859375</AltitudeMeters>
            <DistanceMeters>36960.171770697</DistanceMeters>
          </Trackpoint>
          <Trackpoint>
            <Time>2021-08-28T07:04:43.000Z</Time>
            <Position>
              <LatitudeDegrees>38.17063710652291774749755859375</LatitudeDegrees>
              <LongitudeDegrees>-1.94487000815570354461669921875</LongitudeDegrees>
            </Position>
            <AltitudeMeters>1057.800048828125</AltitudeMeters>
            <DistanceMeters>36962.47016029</DistanceMeters>
          </Trackpoint>
          <Trackpoint>
            <Time>2021-08-28T07:04:44.000Z</Time>
            <Position>
              <LatitudeDegrees>38.1706454046070575714111328125</LatitudeDegrees>
              <LongitudeDegrees>-1.94487579166889190673828125</LongitudeDegrees>
            </Position>
            <AltitudeMeters>1058</AltitudeMeters>
            <DistanceMeters>36963.519764656</DistanceMeters>
          </Trackpoint>
          <Trackpoint>
            <Time>2021-08-28T07:04:46.000Z</Time>
            <Position>
              <LatitudeDegrees>38.17065889947116374969482421875</LatitudeDegrees>
              <LongitudeDegrees>-1.9448933936655521392822265625</LongitudeDegrees>
            </Position>
            <AltitudeMeters>1058.199951171875</AltitudeMeters>
            <DistanceMeters>36965.669973748</DistanceMeters>
          </Trackpoint>
          <Trackpoint>
            <Time>2021-08-28T07:04:48.000Z</Time>
            <Position>
              <LatitudeDegrees>38.17067809402942657470703125</LatitudeDegrees>
              <LongitudeDegrees>-1.94490353576838970184326171875</LongitudeDegrees>
            </Position>
            <AltitudeMeters>1058.199951171875</AltitudeMeters>
            <DistanceMeters>36967.984025461</DistanceMeters>
          </Trackpoint>
          <Trackpoint>
            <Time>2021-08-28T07:04:49.000Z</Time>
            <Position>
              <LatitudeDegrees>38.1706883199512958526611328125</LatitudeDegrees>
              <LongitudeDegrees>-1.94491007365286350250244140625</LongitudeDegrees>
            </Position>
            <AltitudeMeters>1058.4000244140625</AltitudeMeters>
            <DistanceMeters>36969.258942619</DistanceMeters>
          </Trackpoint>
          <Trackpoint>
            <Time>2021-08-28T07:04:50.000Z</Time>
            <Position>
              <LatitudeDegrees>38.17069686949253082275390625</LatitudeDegrees>
              <LongitudeDegrees>-1.94491929374635219573974609375</LongitudeDegrees>
            </Position>
            <AltitudeMeters>1058.4000244140625</AltitudeMeters>
            <DistanceMeters>36970.505206295</DistanceMeters>
          </Trackpoint>
          <Trackpoint>
            <Time>2021-08-28T07:04:52.000Z</Time>
            <Position>
              <LatitudeDegrees>38.170723356306552886962890625</LatitudeDegrees>
              <LongitudeDegrees>-1.9449366442859172821044921875</LongitudeDegrees>
            </Position>
            <AltitudeMeters>1058.4000244140625</AltitudeMeters>
            <DistanceMeters>36973.820263313</DistanceMeters>
          </Trackpoint>
          <Trackpoint>
            <Time>2021-08-28T07:04:54.000Z</Time>
            <Position>
              <LatitudeDegrees>38.17076216451823711395263671875</LatitudeDegrees>
              <LongitudeDegrees>-1.94494259543716907501220703125</LongitudeDegrees>
            </Position>
            <AltitudeMeters>1058.5999755859375</AltitudeMeters>
            <DistanceMeters>36978.170785147</DistanceMeters>
          </Trackpoint>
          <Trackpoint>
            <Time>2021-08-28T07:04:55.000Z</Time>
            <Position>
              <LatitudeDegrees>38.1707806885242462158203125</LatitudeDegrees>
              <LongitudeDegrees>-1.944948546588420867919921875</LongitudeDegrees>
            </Position>
            <AltitudeMeters>1058.800048828125</AltitudeMeters>
            <DistanceMeters>36980.295647077</DistanceMeters>
          </Trackpoint>
          <Trackpoint>
            <Time>2021-08-28T07:05:00.000Z</Time>
            <Position>
              <LatitudeDegrees>38.17088923417031764984130859375</LatitudeDegrees>
              <LongitudeDegrees>-1.9449835829436779022216796875</LongitudeDegrees>
            </Position>
            <AltitudeMeters>1059.800048828125</AltitudeMeters>
            <DistanceMeters>36992.759732889</DistanceMeters>
          </Trackpoint>
          <Trackpoint>
            <Time>2021-08-28T07:05:02.000Z</Time>
            <Position>
              <LatitudeDegrees>38.17093382589519023895263671875</LatitudeDegrees>
              <LongitudeDegrees>-1.9449748657643795013427734375</LongitudeDegrees>
            </Position>
            <AltitudeMeters>1060.199951171875</AltitudeMeters>
            <DistanceMeters>36997.780885489</DistanceMeters>
          </Trackpoint>
          <Trackpoint>
            <Time>2021-08-28T07:05:07.000Z</Time>
            <Position>
              <LatitudeDegrees>38.171029798686504364013671875</LatitudeDegrees>
              <LongitudeDegrees>-1.94493454881012439727783203125</LongitudeDegrees>
            </Position>
            <AltitudeMeters>1061.4000244140625</AltitudeMeters>
            <DistanceMeters>37009.029817048</DistanceMeters>
          </Trackpoint>
          <Trackpoint>
            <Time>2021-08-28T07:05:10.000Z</Time>
            <Position>
              <LatitudeDegrees>38.17109777592122554779052734375</LatitudeDegrees>
              <LongitudeDegrees>-1.944856345653533935546875</LongitudeDegrees>
            </Position>
            <AltitudeMeters>1062</AltitudeMeters>
            <DistanceMeters>37019.230924877</DistanceMeters>
          </Trackpoint>
          <Trackpoint>
            <Time>2021-08-28T07:05:13.000Z</Time>
            <Position>
              <LatitudeDegrees>38.17114806734025478363037109375</LatitudeDegrees>
              <LongitudeDegrees>-1.94475903175771236419677734375</LongitudeDegrees>
            </Position>
            <AltitudeMeters>1062.199951171875</AltitudeMeters>
            <DistanceMeters>37029.42096163</DistanceMeters>
          </Trackpoint>
          <Trackpoint>
            <Time>2021-08-28T07:05:18.000Z</Time>
            <Position>
              <LatitudeDegrees>38.17123993299901485443115234375</LatitudeDegrees>
              <LongitudeDegrees>-1.944578401744365692138671875</LongitudeDegrees>
            </Position>
            <AltitudeMeters>1062.5999755859375</AltitudeMeters>
            <DistanceMeters>37048.24512774</DistanceMeters>
          </Trackpoint>
          <Trackpoint>
            <Time>2021-08-28T07:05:20.000Z</Time>
            <Position>
              <LatitudeDegrees>38.1712743826210498809814453125</LatitudeDegrees>
              <LongitudeDegrees>-1.9444991089403629302978515625</LongitudeDegrees>
            </Position>
            <AltitudeMeters>1062.5999755859375</AltitudeMeters>
            <DistanceMeters>37056.171745675</DistanceMeters>
          </Trackpoint>
          <Trackpoint>
            <Time>2021-08-28T07:05:21.000Z</Time>
            <Position>
              <LatitudeDegrees>38.17129173316061496734619140625</LatitudeDegrees>
              <LongitudeDegrees>-1.94446382112801074981689453125</LongitudeDegrees>
            </Position>
            <AltitudeMeters>1062.5999755859375</AltitudeMeters>
            <DistanceMeters>37059.813885472</DistanceMeters>
          </Trackpoint>
          <Trackpoint>
            <Time>2021-08-28T07:05:28.000Z</Time>
            <Position>
              <LatitudeDegrees>38.171464316546916961669921875</LatitudeDegrees>
              <LongitudeDegrees>-1.9442372582852840423583984375</LongitudeDegrees>
            </Position>
            <AltitudeMeters>1063</AltitudeMeters>
            <DistanceMeters>37087.418287308</DistanceMeters>
          </Trackpoint>
          <Trackpoint>
            <Time>2021-08-28T07:05:30.000Z</Time>
            <Position>
              <LatitudeDegrees>38.171540759503841400146484375</LatitudeDegrees>
              <LongitudeDegrees>-1.9442074187099933624267578125</LongitudeDegrees>
            </Position>
            <AltitudeMeters>1063.199951171875</AltitudeMeters>
            <DistanceMeters>37096.318390148</DistanceMeters>
          </Trackpoint>
          <Trackpoint>
            <Time>2021-08-28T07:05:32.000Z</Time>
            <Position>
              <LatitudeDegrees>38.17161242477595806121826171875</LatitudeDegrees>
              <LongitudeDegrees>-1.94421269930899143218994140625</LongitudeDegrees>
            </Position>
            <AltitudeMeters>1063.199951171875</AltitudeMeters>
            <DistanceMeters>37104.308549124</DistanceMeters>
          </Trackpoint>
          <Trackpoint>
            <Time>2021-08-28T07:05:34.000Z</Time>
            <Position>
              <LatitudeDegrees>38.1716861017048358917236328125</LatitudeDegrees>
              <LongitudeDegrees>-1.9442474842071533203125</LongitudeDegrees>
            </Position>
            <AltitudeMeters>1063.5999755859375</AltitudeMeters>
            <DistanceMeters>37113.056169817</DistanceMeters>
          </Trackpoint>
          <Trackpoint>
            <Time>2021-08-28T07:05:35.000Z</Time>
            <Position>
              <LatitudeDegrees>38.17172541283071041107177734375</LatitudeDegrees>
              <LongitudeDegrees>-1.9442754797637462615966796875</LongitudeDegrees>
            </Position>
            <AltitudeMeters>1063.5999755859375</AltitudeMeters>
            <DistanceMeters>37118.070123628</DistanceMeters>
          </Trackpoint>
          <Trackpoint>
            <Time>2021-08-28T07:05:37.000Z</Time>
            <Position>
              <LatitudeDegrees>38.17180101759731769561767578125</LatitudeDegrees>
              <LongitudeDegrees>-1.94434345699846744537353515625</LongitudeDegrees>
            </Position>
            <AltitudeMeters>1063.5999755859375</AltitudeMeters>
            <DistanceMeters>37128.375156329</DistanceMeters>
          </Trackpoint>
          <Trackpoint>
            <Time>2021-08-28T07:05:40.000Z</Time>
            <Position>
              <LatitudeDegrees>38.17189984023571014404296875</LatitudeDegrees>
              <LongitudeDegrees>-1.94445669651031494140625</LongitudeDegrees>
            </Position>
            <AltitudeMeters>1063.5999755859375</AltitudeMeters>
            <DistanceMeters>37143.179513302</DistanceMeters>
          </Trackpoint>
          <Trackpoint>
            <Time>2021-08-28T07:05:44.000Z</Time>
            <Position>
              <LatitudeDegrees>38.17200754769146442413330078125</LatitudeDegrees>
              <LongitudeDegrees>-1.944626010954380035400390625</LongitudeDegrees>
            </Position>
            <AltitudeMeters>1064</AltitudeMeters>
            <DistanceMeters>37162.237523028</DistanceMeters>
          </Trackpoint>
          <Trackpoint>
            <Time>2021-08-28T07:05:45.000Z</Time>
            <Position>
              <LatitudeDegrees>38.172028921544551849365234375</LatitudeDegrees>
              <LongitudeDegrees>-1.94467521272599697113037109375</LongitudeDegrees>
            </Position>
            <AltitudeMeters>1064</AltitudeMeters>
            <DistanceMeters>37167.156934057</DistanceMeters>
          </Trackpoint>
          <Trackpoint>
            <Time>2021-08-28T07:05:47.000Z</Time>
            <Position>
              <LatitudeDegrees>38.17205012775957584381103515625</LatitudeDegrees>
              <LongitudeDegrees>-1.9447887875139713287353515625</LongitudeDegrees>
            </Position>
            <AltitudeMeters>1064.199951171875</AltitudeMeters>
            <DistanceMeters>37177.3708693</DistanceMeters>
          </Trackpoint>
          <Trackpoint>
            <Time>2021-08-28T07:05:48.000Z</Time>
            <Position>
              <LatitudeDegrees>38.17205280996859073638916015625</LatitudeDegrees>
              <LongitudeDegrees>-1.94484670646488666534423828125</LongitudeDegrees>
            </Position>
            <AltitudeMeters>1064.4000244140625</AltitudeMeters>
            <DistanceMeters>37182.447466406</DistanceMeters>
          </Trackpoint>
          <Trackpoint>
            <Time>2021-08-28T07:05:50.000Z</Time>
            <Position>
              <LatitudeDegrees>38.17204778082668781280517578125</LatitudeDegrees>
              <LongitudeDegrees>-1.9449611194431781768798828125</LongitudeDegrees>
            </Position>
            <AltitudeMeters>1064.4000244140625</AltitudeMeters>
            <DistanceMeters>37192.474473493</DistanceMeters>
          </Trackpoint>
          <Trackpoint>
            <Time>2021-08-28T07:05:53.000Z</Time>
            <Position>
              <LatitudeDegrees>38.17200654186308383941650390625</LatitudeDegrees>
              <LongitudeDegrees>-1.9451401568949222564697265625</LongitudeDegrees>
            </Position>
            <AltitudeMeters>1064.5999755859375</AltitudeMeters>
            <DistanceMeters>37208.799166936</DistanceMeters>
          </Trackpoint>
          <Trackpoint>
            <Time>2021-08-28T07:05:55.000Z</Time>
            <Position>
              <LatitudeDegrees>38.171972930431365966796875</LatitudeDegrees>
              <LongitudeDegrees>-1.94525406695902347564697265625</LongitudeDegrees>
            </Position>
            <AltitudeMeters>1064.5999755859375</AltitudeMeters>
            <DistanceMeters>37219.445552216</DistanceMeters>
          </Trackpoint>
          <Trackpoint>
            <Time>2021-08-28T07:05:59.000Z</Time>
            <Position>
              <LatitudeDegrees>38.17190746776759624481201171875</LatitudeDegrees>
              <LongitudeDegrees>-1.94546160288155078887939453125</LongitudeDegrees>
            </Position>
            <AltitudeMeters>1065</AltitudeMeters>
            <DistanceMeters>37239.012288813</DistanceMeters>
          </Trackpoint>
          <Trackpoint>
            <Time>2021-08-28T07:06:00.000Z</Time>
            <Position>
              <LatitudeDegrees>38.1718899495899677276611328125</LatitudeDegrees>
              <LongitudeDegrees>-1.94551910273730754852294921875</LongitudeDegrees>
            </Position>
            <AltitudeMeters>1065.199951171875</AltitudeMeters>
            <DistanceMeters>37244.407932098</DistanceMeters>
          </Trackpoint>
          <Trackpoint>
            <Time>2021-08-28T07:06:04.000Z</Time>
            <Position>
              <LatitudeDegrees>38.17184024490416049957275390625</LatitudeDegrees>
              <LongitudeDegrees>-1.9457460008561611175537109375</LongitudeDegrees>
            </Position>
            <AltitudeMeters>1065.4000244140625</AltitudeMeters>
            <DistanceMeters>37265.018435636</DistanceMeters>
          </Trackpoint>
          <Trackpoint>
            <Time>2021-08-28T07:06:06.000Z</Time>
            <Position>
              <LatitudeDegrees>38.1718386523425579071044921875</LatitudeDegrees>
              <LongitudeDegrees>-1.94586477242410182952880859375</LongitudeDegrees>
            </Position>
            <AltitudeMeters>1065.800048828125</AltitudeMeters>
            <DistanceMeters>37275.41246443</DistanceMeters>
          </Trackpoint>
          <Trackpoint>
            <Time>2021-08-28T07:06:08.000Z</Time>
            <Position>
              <LatitudeDegrees>38.1718708388507366180419921875</LatitudeDegrees>
              <LongitudeDegrees>-1.945980526506900787353515625</LongitudeDegrees>
            </Position>
            <AltitudeMeters>1066.199951171875</AltitudeMeters>
            <DistanceMeters>37286.155947902</DistanceMeters>
          </Trackpoint>
          <Trackpoint>
            <Time>2021-08-28T07:06:10.000Z</Time>
            <Position>
              <LatitudeDegrees>38.17191417329013347625732421875</LatitudeDegrees>
              <LongitudeDegrees>-1.94608571939170360565185546875</LongitudeDegrees>
            </Position>
            <AltitudeMeters>1066.4000244140625</AltitudeMeters>
            <DistanceMeters>37296.548239</DistanceMeters>
          </Trackpoint>
          <Trackpoint>
            <Time>2021-08-28T07:06:11.000Z</Time>
            <Position>
              <LatitudeDegrees>38.17193764261901378631591796875</LatitudeDegrees>
              <LongitudeDegrees>-1.9461419619619846343994140625</LongitudeDegrees>
            </Position>
            <AltitudeMeters>1066.4000244140625</AltitudeMeters>
            <DistanceMeters>37302.119268773</DistanceMeters>
          </Trackpoint>
          <Trackpoint>
            <Time>2021-08-28T07:06:13.000Z</Time>
            <Position>
              <LatitudeDegrees>38.17195759154856204986572265625</LatitudeDegrees>
              <LongitudeDegrees>-1.9462556205689907073974609375</LongitudeDegrees>
            </Position>
            <AltitudeMeters>1066.4000244140625</AltitudeMeters>
            <DistanceMeters>37312.309305526</DistanceMeters>
          </Trackpoint>
          <Trackpoint>
            <Time>2021-08-28T07:06:14.000Z</Time>
            <Position>
              <LatitudeDegrees>38.17196010611951351165771484375</LatitudeDegrees>
              <LongitudeDegrees>-1.94631504826247692108154296875</LongitudeDegrees>
            </Position>
            <AltitudeMeters>1066.4000244140625</AltitudeMeters>
            <DistanceMeters>37317.515867683</DistanceMeters>
          </Trackpoint>
          <Trackpoint>
            <Time>2021-08-28T07:06:15.000Z</Time>
            <Position>
              <LatitudeDegrees>38.1719581782817840576171875</LatitudeDegrees>
              <LongitudeDegrees>-1.946378163993358612060546875</LongitudeDegrees>
            </Position>
            <AltitudeMeters>1066.4000244140625</AltitudeMeters>
            <DistanceMeters>37323.043776753</DistanceMeters>
          </Trackpoint>
          <Trackpoint>
            <Time>2021-08-28T07:06:19.000Z</Time>
            <Position>
              <LatitudeDegrees>38.17192205227911472320556640625</LatitudeDegrees>
              <LongitudeDegrees>-1.9466348178684711456298828125</LongitudeDegrees>
            </Position>
            <AltitudeMeters>1066.4000244140625</AltitudeMeters>
            <DistanceMeters>37345.858501524</DistanceMeters>
          </Trackpoint>
          <Trackpoint>
            <Time>2021-08-28T07:06:20.000Z</Time>
            <Position>
              <LatitudeDegrees>38.17191031761467456817626953125</LatitudeDegrees>
              <LongitudeDegrees>-1.946696676313877105712890625</LongitudeDegrees>
            </Position>
            <AltitudeMeters>1066.4000244140625</AltitudeMeters>
            <DistanceMeters>37351.426288556</DistanceMeters>
          </Trackpoint>
          <Trackpoint>
            <Time>2021-08-28T07:06:22.000Z</Time>
            <Position>
              <LatitudeDegrees>38.17188517190515995025634765625</LatitudeDegrees>
              <LongitudeDegrees>-1.946819387376308441162109375</LongitudeDegrees>
            </Position>
            <AltitudeMeters>1066.4000244140625</AltitudeMeters>
            <DistanceMeters>37362.522870119</DistanceMeters>
          </Trackpoint>
          <Trackpoint>
            <Time>2021-08-28T07:06:25.000Z</Time>
            <Position>
              <LatitudeDegrees>38.1718547455966472625732421875</LatitudeDegrees>
              <LongitudeDegrees>-1.9469979219138622283935546875</LongitudeDegrees>
            </Position>
            <AltitudeMeters>1066.5999755859375</AltitudeMeters>
            <DistanceMeters>37378.50770803</DistanceMeters>
          </Trackpoint>
          <Trackpoint>
            <Time>2021-08-28T07:06:29.000Z</Time>
            <Position>
              <LatitudeDegrees>38.17181325517594814300537109375</LatitudeDegrees>
              <LongitudeDegrees>-1.9472527317702770233154296875</LongitudeDegrees>
            </Position>
            <AltitudeMeters>1066.800048828125</AltitudeMeters>
            <DistanceMeters>37401.276671966</DistanceMeters>
          </Trackpoint>
          <Trackpoint>
            <Time>2021-08-28T07:06:30.000Z</Time>
            <Position>
              <LatitudeDegrees>38.1718074716627597808837890625</LatitudeDegrees>
              <LongitudeDegrees>-1.94731936790049076080322265625</LongitudeDegrees>
            </Position>
            <AltitudeMeters>1067</AltitudeMeters>
            <DistanceMeters>37407.142214674</DistanceMeters>
          </Trackpoint>
          <Trackpoint>
            <Time>2021-08-28T07:06:31.000Z</Time>
            <Position>
              <LatitudeDegrees>38.171807639300823211669921875</LatitudeDegrees>
              <LongitudeDegrees>-1.9473821483552455902099609375</LongitudeDegrees>
            </Position>
            <AltitudeMeters>1067.199951171875</AltitudeMeters>
            <DistanceMeters>37412.635712237</DistanceMeters>
          </Trackpoint>
          <Trackpoint>
            <Time>2021-08-28T07:06:32.000Z</Time>
            <Position>
              <LatitudeDegrees>38.17181241698563098907470703125</LatitudeDegrees>
              <LongitudeDegrees>-1.94744777865707874298095703125</LongitudeDegrees>
            </Position>
            <AltitudeMeters>1067.199951171875</AltitudeMeters>
            <DistanceMeters>37418.403450235</DistanceMeters>
          </Trackpoint>
          <Trackpoint>
            <Time>2021-08-28T07:06:33.000Z</Time>
            <Position>
              <LatitudeDegrees>38.17182867787778377532958984375</LatitudeDegrees>
              <LongitudeDegrees>-1.9475085474550724029541015625</LongitudeDegrees>
            </Position>
            <AltitudeMeters>1067.199951171875</AltitudeMeters>
            <DistanceMeters>37424.020485672</DistanceMeters>
          </Trackpoint>
          <Trackpoint>
            <Time>2021-08-28T07:06:35.000Z</Time>
            <Position>
              <LatitudeDegrees>38.1718785502016544342041015625</LatitudeDegrees>
              <LongitudeDegrees>-1.947615332901477813720703125</LongitudeDegrees>
            </Position>
            <AltitudeMeters>1067.199951171875</AltitudeMeters>
            <DistanceMeters>37434.889315418</DistanceMeters>
          </Trackpoint>
          <Trackpoint>
            <Time>2021-08-28T07:06:36.000Z</Time>
            <Position>
              <LatitudeDegrees>38.1719107367098331451416015625</LatitudeDegrees>
              <LongitudeDegrees>-1.94766034372150897979736328125</LongitudeDegrees>
            </Position>
            <AltitudeMeters>1067.199951171875</AltitudeMeters>
            <DistanceMeters>37440.212508057</DistanceMeters>
          </Trackpoint>
          <Trackpoint>
            <Time>2021-08-28T07:06:40.000Z</Time>
            <Position>
              <LatitudeDegrees>38.1720451824367046356201171875</LatitudeDegrees>
              <LongitudeDegrees>-1.94783451966941356658935546875</LongitudeDegrees>
            </Position>
            <AltitudeMeters>1067.5999755859375</AltitudeMeters>
            <DistanceMeters>37461.571334382</DistanceMeters>
          </Trackpoint>
          <Trackpoint>
            <Time>2021-08-28T07:06:43.000Z</Time>
            <Position>
              <LatitudeDegrees>38.17214936949312686920166015625</LatitudeDegrees>
              <LongitudeDegrees>-1.9479635171592235565185546875</LongitudeDegrees>
            </Position>
            <AltitudeMeters>1068</AltitudeMeters>
            <DistanceMeters>37477.753800723</DistanceMeters>
          </Trackpoint>
          <Trackpoint>
            <Time>2021-08-28T07:06:44.000Z</Time>
            <Position>
              <LatitudeDegrees>38.17218340002000331878662109375</LatitudeDegrees>
              <LongitudeDegrees>-1.948004923760890960693359375</LongitudeDegrees>
            </Position>
            <AltitudeMeters>1068</AltitudeMeters>
            <DistanceMeters>37482.995796776</DistanceMeters>
          </Trackpoint>
          <Trackpoint>
            <Time>2021-08-28T07:06:48.000Z</Time>
            <Position>
              <LatitudeDegrees>38.17227593623101711273193359375</LatitudeDegrees>
              <LongitudeDegrees>-1.94818924181163311004638671875</LongitudeDegrees>
            </Position>
            <AltitudeMeters>1069</AltitudeMeters>
            <DistanceMeters>37502.131827188</DistanceMeters>
          </Trackpoint>
          <Trackpoint>
            <Time>2021-08-28T07:06:49.000Z</Time>
            <Position>
              <LatitudeDegrees>38.17229270003736019134521484375</LatitudeDegrees>
              <LongitudeDegrees>-1.94823869504034519195556640625</LongitudeDegrees>
            </Position>
            <AltitudeMeters>1069.199951171875</AltitudeMeters>
            <DistanceMeters>37506.84404089</DistanceMeters>
          </Trackpoint>
          <Trackpoint>
            <Time>2021-08-28T07:06:50.000Z</Time>
            <Position>
              <LatitudeDegrees>38.17230694927275180816650390625</LatitudeDegrees>
              <LongitudeDegrees>-1.9482867233455181121826171875</LongitudeDegrees>
            </Position>
            <AltitudeMeters>1069.4000244140625</AltitudeMeters>
            <DistanceMeters>37511.335498424</DistanceMeters>
          </Trackpoint>
          <Trackpoint>
            <Time>2021-08-28T07:06:54.000Z</Time>
            <Position>
              <LatitudeDegrees>38.17233058623969554901123046875</LatitudeDegrees>
              <LongitudeDegrees>-1.94848579354584217071533203125</LongitudeDegrees>
            </Position>
            <AltitudeMeters>1070.199951171875</AltitudeMeters>
            <DistanceMeters>37528.951616245</DistanceMeters>
          </Trackpoint>
          <Trackpoint>
            <Time>2021-08-28T07:06:56.000Z</Time>
            <Position>
              <LatitudeDegrees>38.17233502864837646484375</LatitudeDegrees>
              <LongitudeDegrees>-1.948585622012615203857421875</LongitudeDegrees>
            </Position>
            <AltitudeMeters>1070.5999755859375</AltitudeMeters>
            <DistanceMeters>37537.700269166</DistanceMeters>
          </Trackpoint>
          <Trackpoint>
            <Time>2021-08-28T07:06:59.000Z</Time>
            <Position>
              <LatitudeDegrees>38.17234667949378490447998046875</LatitudeDegrees>
              <LongitudeDegrees>-1.94873942993581295013427734375</LongitudeDegrees>
            </Position>
            <AltitudeMeters>1071.4000244140625</AltitudeMeters>
            <DistanceMeters>37551.220804197</DistanceMeters>
          </Trackpoint>
          <Trackpoint>
            <Time>2021-08-28T07:07:00.000Z</Time>
            <Position>
              <LatitudeDegrees>38.17234869115054607391357421875</LatitudeDegrees>
              <LongitudeDegrees>-1.94879139773547649383544921875</LongitudeDegrees>
            </Position>
            <AltitudeMeters>1071.5999755859375</AltitudeMeters>
            <DistanceMeters>37555.774160708</DistanceMeters>
          </Trackpoint>
          <Trackpoint>
            <Time>2021-08-28T07:07:02.000Z</Time>
            <Position>
              <LatitudeDegrees>38.17235640250146389007568359375</LatitudeDegrees>
              <LongitudeDegrees>-1.94889248348772525787353515625</LongitudeDegrees>
            </Position>
            <AltitudeMeters>1072.199951171875</AltitudeMeters>
            <DistanceMeters>37564.661063913</DistanceMeters>
          </Trackpoint>
          <Trackpoint>
            <Time>2021-08-28T07:07:04.000Z</Time>
            <Position>
              <LatitudeDegrees>38.17237148992717266082763671875</LatitudeDegrees>
              <LongitudeDegrees>-1.948987282812595367431640625</LongitudeDegrees>
            </Position>
            <AltitudeMeters>1072.4000244140625</AltitudeMeters>
            <DistanceMeters>37573.124845363</DistanceMeters>
          </Trackpoint>
          <Trackpoint>
            <Time>2021-08-28T07:07:07.000Z</Time>
            <Position>
              <LatitudeDegrees>38.17241080105304718017578125</LatitudeDegrees>
              <LongitudeDegrees>-1.94912482984364032745361328125</LongitudeDegrees>
            </Position>
            <AltitudeMeters>1073</AltitudeMeters>
            <DistanceMeters>37585.931259708</DistanceMeters>
          </Trackpoint>
          <Trackpoint>
            <Time>2021-08-28T07:07:10.000Z</Time>
            <Position>
              <LatitudeDegrees>38.1724672950804233551025390625</LatitudeDegrees>
              <LongitudeDegrees>-1.949244439601898193359375</LongitudeDegrees>
            </Position>
            <AltitudeMeters>1073.199951171875</AltitudeMeters>
            <DistanceMeters>37598.140990746</DistanceMeters>
          </Trackpoint>
          <Trackpoint>
            <Time>2021-08-28T07:07:11.000Z</Time>
            <Position>
              <LatitudeDegrees>38.1724850647151470184326171875</LatitudeDegrees>
              <LongitudeDegrees>-1.949282325804233551025390625</LongitudeDegrees>
            </Position>
            <AltitudeMeters>1073.800048828125</AltitudeMeters>
            <DistanceMeters>37602.000994131</DistanceMeters>
          </Trackpoint>
          <Trackpoint>
            <Time>2021-08-28T07:07:14.000Z</Time>
            <Position>
              <LatitudeDegrees>38.172543235123157501220703125</LatitudeDegrees>
              <LongitudeDegrees>-1.9493881054222583770751953125</LongitudeDegrees>
            </Position>
            <AltitudeMeters>1074.199951171875</AltitudeMeters>
            <DistanceMeters>37613.296389214</DistanceMeters>
          </Trackpoint>
          <Trackpoint>
            <Time>2021-08-28T07:07:17.000Z</Time>
            <Position>
              <LatitudeDegrees>38.17260601557791233062744140625</LatitudeDegrees>
              <LongitudeDegrees>-1.94948575459420680999755859375</LongitudeDegrees>
            </Position>
            <AltitudeMeters>1074.800048828125</AltitudeMeters>
            <DistanceMeters>37624.334223756</DistanceMeters>
          </Trackpoint>
          <Trackpoint>
            <Time>2021-08-28T07:07:20.000Z</Time>
            <Position>
              <LatitudeDegrees>38.17267105914652347564697265625</LatitudeDegrees>
              <LongitudeDegrees>-1.94959086365997791290283203125</LongitudeDegrees>
            </Position>
            <AltitudeMeters>1075.5999755859375</AltitudeMeters>
            <DistanceMeters>37636.039108198</DistanceMeters>
          </Trackpoint>
          <Trackpoint>
            <Time>2021-08-28T07:07:23.000Z</Time>
            <Position>
              <LatitudeDegrees>38.17272587679326534271240234375</LatitudeDegrees>
              <LongitudeDegrees>-1.94969714619219303131103515625</LongitudeDegrees>
            </Position>
            <AltitudeMeters>1076.199951171875</AltitudeMeters>
            <DistanceMeters>37647.162105877</DistanceMeters>
          </Trackpoint>
          <Trackpoint>
            <Time>2021-08-28T07:07:25.000Z</Time>
            <Position>
              <LatitudeDegrees>38.1727754138410091400146484375</LatitudeDegrees>
              <LongitudeDegrees>-1.94976084865629673004150390625</LongitudeDegrees>
            </Position>
            <AltitudeMeters>1076.5999755859375</AltitudeMeters>
            <DistanceMeters>37655.002817607</DistanceMeters>
          </Trackpoint>
          <Trackpoint>
            <Time>2021-08-28T07:07:27.000Z</Time>
            <Position>
              <LatitudeDegrees>38.17282260395586490631103515625</LatitudeDegrees>
              <LongitudeDegrees>-1.94982438348233699798583984375</LongitudeDegrees>
            </Position>
            <AltitudeMeters>1077.199951171875</AltitudeMeters>
            <DistanceMeters>37662.651139985</DistanceMeters>
          </Trackpoint>
          <Trackpoint>
            <Time>2021-08-28T07:07:30.000Z</Time>
            <Position>
              <LatitudeDegrees>38.17288815043866634368896484375</LatitudeDegrees>
              <LongitudeDegrees>-1.9499082863330841064453125</LongitudeDegrees>
            </Position>
            <AltitudeMeters>1078</AltitudeMeters>
            <DistanceMeters>37673.001202635</DistanceMeters>
          </Trackpoint>
          <Trackpoint>
            <Time>2021-08-28T07:07:31.000Z</Time>
            <Position>
              <LatitudeDegrees>38.172916732728481292724609375</LatitudeDegrees>
              <LongitudeDegrees>-1.9499299116432666778564453125</LongitudeDegrees>
            </Position>
            <AltitudeMeters>1078.5999755859375</AltitudeMeters>
            <DistanceMeters>37676.703587818</DistanceMeters>
          </Trackpoint>
          <Trackpoint>
            <Time>2021-08-28T07:07:36.000Z</Time>
            <Position>
              <LatitudeDegrees>38.1730176508426666259765625</LatitudeDegrees>
              <LongitudeDegrees>-1.95004306733608245849609375</LongitudeDegrees>
            </Position>
            <AltitudeMeters>1079.5999755859375</AltitudeMeters>
            <DistanceMeters>37691.676855262</DistanceMeters>
          </Trackpoint>
          <Trackpoint>
            <Time>2021-08-28T07:07:38.000Z</Time>
            <Position>
              <LatitudeDegrees>38.1730627454817295074462890625</LatitudeDegrees>
              <LongitudeDegrees>-1.9500891678035259246826171875</LongitudeDegrees>
            </Position>
            <AltitudeMeters>1080</AltitudeMeters>
            <DistanceMeters>37698.1155726</DistanceMeters>
          </Trackpoint>
          <Trackpoint>
            <Time>2021-08-28T07:07:40.000Z</Time>
            <Position>
              <LatitudeDegrees>38.173111192882061004638671875</LatitudeDegrees>
              <LongitudeDegrees>-1.95014591328799724578857421875</LongitudeDegrees>
            </Position>
            <AltitudeMeters>1080.4000244140625</AltitudeMeters>
            <DistanceMeters>37705.44557634</DistanceMeters>
          </Trackpoint>
          <Trackpoint>
            <Time>2021-08-28T07:07:41.000Z</Time>
            <Position>
              <LatitudeDegrees>38.17313097417354583740234375</LatitudeDegrees>
              <LongitudeDegrees>-1.95017156191170215606689453125</LongitudeDegrees>
            </Position>
            <AltitudeMeters>1080.5999755859375</AltitudeMeters>
            <DistanceMeters>37708.588648664</DistanceMeters>
          </Trackpoint>
          <Trackpoint>
            <Time>2021-08-28T07:07:44.000Z</Time>
            <Position>
              <LatitudeDegrees>38.1731981970369815826416015625</LatitudeDegrees>
              <LongitudeDegrees>-1.950241886079311370849609375</LongitudeDegrees>
            </Position>
            <AltitudeMeters>1081.5999755859375</AltitudeMeters>
            <DistanceMeters>37718.27578211</DistanceMeters>
          </Trackpoint>
          <Trackpoint>
            <Time>2021-08-28T07:07:46.000Z</Time>
            <Position>
              <LatitudeDegrees>38.173239938914775848388671875</LatitudeDegrees>
              <LongitudeDegrees>-1.95029108785092830657958984375</LongitudeDegrees>
            </Position>
            <AltitudeMeters>1082</AltitudeMeters>
            <DistanceMeters>37724.609866862</DistanceMeters>
          </Trackpoint>
          <Trackpoint>
            <Time>2021-08-28T07:07:50.000Z</Time>
            <Position>
              <LatitudeDegrees>38.17333121784031391143798828125</LatitudeDegrees>
              <LongitudeDegrees>-1.9503976218402385711669921875</LongitudeDegrees>
            </Position>
            <AltitudeMeters>1082.5999755859375</AltitudeMeters>
            <DistanceMeters>37738.398239842</DistanceMeters>
          </Trackpoint>
          <Trackpoint>
            <Time>2021-08-28T07:07:54.000Z</Time>
            <Position>
              <LatitudeDegrees>38.17342475987970829010009765625</LatitudeDegrees>
              <LongitudeDegrees>-1.95049904286861419677734375</LongitudeDegrees>
            </Position>
            <AltitudeMeters>1083.5999755859375</AltitudeMeters>
            <DistanceMeters>37752.078126692</DistanceMeters>
          </Trackpoint>
          <Trackpoint>
            <Time>2021-08-28T07:07:55.000Z</Time>
            <Position>
              <LatitudeDegrees>38.17344479262828826904296875</LatitudeDegrees>
              <LongitudeDegrees>-1.95052527822554111480712890625</LongitudeDegrees>
            </Position>
            <AltitudeMeters>1083.800048828125</AltitudeMeters>
            <DistanceMeters>37755.276732109</DistanceMeters>
          </Trackpoint>
          <Trackpoint>
            <Time>2021-08-28T07:08:00.000Z</Time>
            <Position>
              <LatitudeDegrees>38.17354680038988590240478515625</LatitudeDegrees>
              <LongitudeDegrees>-1.95065804757177829742431640625</LongitudeDegrees>
            </Position>
            <AltitudeMeters>1084.5999755859375</AltitudeMeters>
            <DistanceMeters>37771.520742198</DistanceMeters>
          </Trackpoint>
          <Trackpoint>
            <Time>2021-08-28T07:08:01.000Z</Time>
            <Position>
              <LatitudeDegrees>38.17356842570006847381591796875</LatitudeDegrees>
              <LongitudeDegrees>-1.95068352855741977691650390625</LongitudeDegrees>
            </Position>
            <AltitudeMeters>1084.800048828125</AltitudeMeters>
            <DistanceMeters>37774.801573056</DistanceMeters>
          </Trackpoint>
          <Trackpoint>
            <Time>2021-08-28T07:08:03.000Z</Time>
            <Position>
              <LatitudeDegrees>38.1736209802329540252685546875</LatitudeDegrees>
              <LongitudeDegrees>-1.95072929374873638153076171875</LongitudeDegrees>
            </Position>
            <AltitudeMeters>1085.5999755859375</AltitudeMeters>
            <DistanceMeters>37781.889827096</DistanceMeters>
          </Trackpoint>
          <Trackpoint>
            <Time>2021-08-28T07:08:04.000Z</Time>
            <Position>
              <LatitudeDegrees>38.17364805378019809722900390625</LatitudeDegrees>
              <LongitudeDegrees>-1.95075443945825099945068359375</LongitudeDegrees>
            </Position>
            <AltitudeMeters>1086</AltitudeMeters>
            <DistanceMeters>37785.621365368</DistanceMeters>
          </Trackpoint>
          <Trackpoint>
            <Time>2021-08-28T07:08:09.000Z</Time>
            <Position>
              <LatitudeDegrees>38.17377529107034206390380859375</LatitudeDegrees>
              <LongitudeDegrees>-1.95090363733470439910888671875</LongitudeDegrees>
            </Position>
            <AltitudeMeters>1086.800048828125</AltitudeMeters>
            <DistanceMeters>37804.882509172</DistanceMeters>
          </Trackpoint>
          <Trackpoint>
            <Time>2021-08-28T07:08:10.000Z</Time>
            <Position>
              <LatitudeDegrees>38.173799850046634674072265625</LatitudeDegrees>
              <LongitudeDegrees>-1.95093180052936077117919921875</LongitudeDegrees>
            </Position>
            <AltitudeMeters>1087</AltitudeMeters>
            <DistanceMeters>37808.561650999</DistanceMeters>
          </Trackpoint>
          <Trackpoint>
            <Time>2021-08-28T07:08:11.000Z</Time>
            <Position>
              <LatitudeDegrees>38.17381753586232662200927734375</LatitudeDegrees>
              <LongitudeDegrees>-1.95096130482852458953857421875</LongitudeDegrees>
            </Position>
            <AltitudeMeters>1087.199951171875</AltitudeMeters>
            <DistanceMeters>37811.806503713</DistanceMeters>
          </Trackpoint>
          <Trackpoint>
            <Time>2021-08-28T07:08:15.000Z</Time>
            <Position>
              <LatitudeDegrees>38.173885680735111236572265625</LatitudeDegrees>
              <LongitudeDegrees>-1.95109038613736629486083984375</LongitudeDegrees>
            </Position>
            <AltitudeMeters>1087.800048828125</AltitudeMeters>
            <DistanceMeters>37825.411594927</DistanceMeters>
          </Trackpoint>
          <Trackpoint>
            <Time>2021-08-28T07:08:17.000Z</Time>
            <Position>
              <LatitudeDegrees>38.17391627468168735504150390625</LatitudeDegrees>
              <LongitudeDegrees>-1.95115886628627777099609375</LongitudeDegrees>
            </Position>
            <AltitudeMeters>1088.199951171875</AltitudeMeters>
            <DistanceMeters>37832.30414396</DistanceMeters>
          </Trackpoint>
          <Trackpoint>
            <Time>2021-08-28T07:08:20.000Z</Time>
            <Position>
              <LatitudeDegrees>38.173948712646961212158203125</LatitudeDegrees>
              <LongitudeDegrees>-1.9512636400759220123291015625</LongitudeDegrees>
            </Position>
            <AltitudeMeters>1088.5999755859375</AltitudeMeters>
            <DistanceMeters>37842.156723408</DistanceMeters>
          </Trackpoint>
          <Trackpoint>
            <Time>2021-08-28T07:08:22.000Z</Time>
            <Position>
              <LatitudeDegrees>38.1739753670990467071533203125</LatitudeDegrees>
              <LongitudeDegrees>-1.951342262327671051025390625</LongitudeDegrees>
            </Position>
            <AltitudeMeters>1089.199951171875</AltitudeMeters>
            <DistanceMeters>37849.648782883</DistanceMeters>
          </Trackpoint>
          <Trackpoint>
            <Time>2021-08-28T07:08:23.000Z</Time>
            <Position>
              <LatitudeDegrees>38.173990286886692047119140625</LatitudeDegrees>
              <LongitudeDegrees>-1.95138190872967243194580078125</LongitudeDegrees>
            </Position>
            <AltitudeMeters>1089.199951171875</AltitudeMeters>
            <DistanceMeters>37853.493550124</DistanceMeters>
          </Trackpoint>
          <Trackpoint>
            <Time>2021-08-28T07:08:28.000Z</Time>
            <Position>
              <LatitudeDegrees>38.1740447692573070526123046875</LatitudeDegrees>
              <LongitudeDegrees>-1.9515710882842540740966796875</LongitudeDegrees>
            </Position>
            <AltitudeMeters>1090.800048828125</AltitudeMeters>
            <DistanceMeters>37871.121966126</DistanceMeters>
          </Trackpoint>
          <Trackpoint>
            <Time>2021-08-28T07:08:29.000Z</Time>
            <Position>
              <LatitudeDegrees>38.17405541427433490753173828125</LatitudeDegrees>
              <LongitudeDegrees>-1.9516066275537014007568359375</LongitudeDegrees>
            </Position>
            <AltitudeMeters>1091.199951171875</AltitudeMeters>
            <DistanceMeters>37874.449258377</DistanceMeters>
          </Trackpoint>
          <Trackpoint>
            <Time>2021-08-28T07:08:30.000Z</Time>
            <Position>
              <LatitudeDegrees>38.1740672327578067779541015625</LatitudeDegrees>
              <LongitudeDegrees>-1.95164610631763935089111328125</LongitudeDegrees>
            </Position>
            <AltitudeMeters>1091.4000244140625</AltitudeMeters>
            <DistanceMeters>37878.144319348</DistanceMeters>
          </Trackpoint>
          <Trackpoint>
            <Time>2021-08-28T07:08:32.000Z</Time>
            <Position>
              <LatitudeDegrees>38.17408910952508449554443359375</LatitudeDegrees>
              <LongitudeDegrees>-1.95172405801713466644287109375</LongitudeDegrees>
            </Position>
            <AltitudeMeters>1092</AltitudeMeters>
            <DistanceMeters>37885.386327632</DistanceMeters>
          </Trackpoint>
          <Trackpoint>
            <Time>2021-08-28T07:08:35.000Z</Time>
            <Position>
              <LatitudeDegrees>38.17412816919386386871337890625</LatitudeDegrees>
              <LongitudeDegrees>-1.9518436677753925323486328125</LongitudeDegrees>
            </Position>
            <AltitudeMeters>1093</AltitudeMeters>
            <DistanceMeters>37896.719234464</DistanceMeters>
          </Trackpoint>
          <Trackpoint>
            <Time>2021-08-28T07:08:36.000Z</Time>
            <Position>
              <LatitudeDegrees>38.17413873039186000823974609375</LatitudeDegrees>
              <LongitudeDegrees>-1.95188331417739391326904296875</LongitudeDegrees>
            </Position>
            <AltitudeMeters>1093.199951171875</AltitudeMeters>
            <DistanceMeters>37900.381155206</DistanceMeters>
          </Trackpoint>
          <Trackpoint>
            <Time>2021-08-28T07:08:40.000Z</Time>
            <Position>
              <LatitudeDegrees>38.1741862557828426361083984375</LatitudeDegrees>
              <LongitudeDegrees>-1.95202731527388095855712890625</LongitudeDegrees>
            </Position>
            <AltitudeMeters>1094</AltitudeMeters>
            <DistanceMeters>37914.046512167</DistanceMeters>
          </Trackpoint>
          <Trackpoint>
            <Time>2021-08-28T07:08:41.000Z</Time>
            <Position>
              <LatitudeDegrees>38.1741969846189022064208984375</LatitudeDegrees>
              <LongitudeDegrees>-1.95206251926720142364501953125</LongitudeDegrees>
            </Position>
            <AltitudeMeters>1094.199951171875</AltitudeMeters>
            <DistanceMeters>37917.350655387</DistanceMeters>
          </Trackpoint>
          <Trackpoint>
            <Time>2021-08-28T07:08:43.000Z</Time>
            <Position>
              <LatitudeDegrees>38.1742174364626407623291015625</LatitudeDegrees>
              <LongitudeDegrees>-1.95213862694799900054931640625</LongitudeDegrees>
            </Position>
            <AltitudeMeters>1094.800048828125</AltitudeMeters>
            <DistanceMeters>37924.387766955</DistanceMeters>
          </Trackpoint>
          <Trackpoint>
            <Time>2021-08-28T07:08:45.000Z</Time>
            <Position>
              <LatitudeDegrees>38.17423797212541103363037109375</LatitudeDegrees>
              <LongitudeDegrees>-1.95221540518105030059814453125</LongitudeDegrees>
            </Position>
            <AltitudeMeters>1095.199951171875</AltitudeMeters>
            <DistanceMeters>37931.483660574</DistanceMeters>
          </Trackpoint>
          <Trackpoint>
            <Time>2021-08-28T07:08:50.000Z</Time>
            <Position>
              <LatitudeDegrees>38.174296058714389801025390625</LatitudeDegrees>
              <LongitudeDegrees>-1.9524190016090869903564453125</LongitudeDegrees>
            </Position>
            <AltitudeMeters>1096.199951171875</AltitudeMeters>
            <DistanceMeters>37950.435237302</DistanceMeters>
          </Trackpoint>
          <Trackpoint>
            <Time>2021-08-28T07:08:51.000Z</Time>
            <Position>
              <LatitudeDegrees>38.17431257106363773345947265625</LatitudeDegrees>
              <LongitudeDegrees>-1.9524588994681835174560546875</LongitudeDegrees>
            </Position>
            <AltitudeMeters>1096.4000244140625</AltitudeMeters>
            <DistanceMeters>37954.381993168</DistanceMeters>
          </Trackpoint>
          <Trackpoint>
            <Time>2021-08-28T07:08:57.000Z</Time>
            <Position>
              <LatitudeDegrees>38.174406699836254119873046875</LatitudeDegrees>
              <LongitudeDegrees>-1.95267624221742153167724609375</LongitudeDegrees>
            </Position>
            <AltitudeMeters>1097.4000244140625</AltitudeMeters>
            <DistanceMeters>37976.094089814</DistanceMeters>
          </Trackpoint>
          <Trackpoint>
            <Time>2021-08-28T07:08:59.000Z</Time>
            <Position>
              <LatitudeDegrees>38.17443880252540111541748046875</LatitudeDegrees>
              <LongitudeDegrees>-1.95273994468152523040771484375</LongitudeDegrees>
            </Position>
            <AltitudeMeters>1097.5999755859375</AltitudeMeters>
            <DistanceMeters>37982.714663132</DistanceMeters>
          </Trackpoint>
          <Trackpoint>
            <Time>2021-08-28T07:09:00.000Z</Time>
            <Position>
              <LatitudeDegrees>38.17445422522723674774169921875</LatitudeDegrees>
              <LongitudeDegrees>-1.95277079008519649505615234375</LongitudeDegrees>
            </Position>
            <AltitudeMeters>1097.800048828125</AltitudeMeters>
            <DistanceMeters>37985.911856672</DistanceMeters>
          </Trackpoint>
          <Trackpoint>
            <Time>2021-08-28T07:09:04.000Z</Time>
            <Position>
              <LatitudeDegrees>38.1744923628866672515869140625</LatitudeDegrees>
              <LongitudeDegrees>-1.95289425551891326904296875</LongitudeDegrees>
            </Position>
            <AltitudeMeters>1098.199951171875</AltitudeMeters>
            <DistanceMeters>37997.519127693</DistanceMeters>
          </Trackpoint>
          <Trackpoint>
            <Time>2021-08-28T07:09:09.000Z</Time>
            <Position>
              <LatitudeDegrees>38.17457190714776515960693359375</LatitudeDegrees>
              <LongitudeDegrees>-1.95300062187016010284423828125</LongitudeDegrees>
            </Position>
            <AltitudeMeters>1098.5999755859375</AltitudeMeters>
            <DistanceMeters>38010.364265169</DistanceMeters>
          </Trackpoint>
          <Trackpoint>
            <Time>2021-08-28T07:09:10.000Z</Time>
            <Position>
              <LatitudeDegrees>38.17458883859217166900634765625</LatitudeDegrees>
              <LongitudeDegrees>-1.95302174426615238189697265625</LongitudeDegrees>
            </Position>
            <AltitudeMeters>1098.5999755859375</AltitudeMeters>
            <DistanceMeters>38013.001149479</DistanceMeters>
          </Trackpoint>
          <Trackpoint>
            <Time>2021-08-28T07:09:11.000Z</Time>
            <Position>
              <LatitudeDegrees>38.17460929043591022491455078125</LatitudeDegrees>
              <LongitudeDegrees>-1.95304202847182750701904296875</LongitudeDegrees>
            </Position>
            <AltitudeMeters>1098.800048828125</AltitudeMeters>
            <DistanceMeters>38015.886583671</DistanceMeters>
          </Trackpoint>
          <Trackpoint>
            <Time>2021-08-28T07:09:16.000Z</Time>
            <Position>
              <LatitudeDegrees>38.174727894365787506103515625</LatitudeDegrees>
              <LongitudeDegrees>-1.9531524181365966796875</LongitudeDegrees>
            </Position>
            <AltitudeMeters>1099.5999755859375</AltitudeMeters>
            <DistanceMeters>38032.243328607</DistanceMeters>
          </Trackpoint>
          <Trackpoint>
            <Time>2021-08-28T07:09:19.000Z</Time>
            <Position>
              <LatitudeDegrees>38.1747798621654510498046875</LatitudeDegrees>
              <LongitudeDegrees>-1.95322684943675994873046875</LongitudeDegrees>
            </Position>
            <AltitudeMeters>1099.800048828125</AltitudeMeters>
            <DistanceMeters>38040.953707604</DistanceMeters>
          </Trackpoint>
          <Trackpoint>
            <Time>2021-08-28T07:09:20.000Z</Time>
            <Position>
              <LatitudeDegrees>38.1748041696846485137939453125</LatitudeDegrees>
              <LongitudeDegrees>-1.95325258187949657440185546875</LongitudeDegrees>
            </Position>
            <AltitudeMeters>1100</AltitudeMeters>
            <DistanceMeters>38044.470979946</DistanceMeters>
          </Trackpoint>
          <Trackpoint>
            <Time>2021-08-28T07:09:23.000Z</Time>
            <Position>
              <LatitudeDegrees>38.174870051443576812744140625</LatitudeDegrees>
              <LongitudeDegrees>-1.95332072675228118896484375</LongitudeDegrees>
            </Position>
            <AltitudeMeters>1100.5999755859375</AltitudeMeters>
            <DistanceMeters>38053.921719923</DistanceMeters>
          </Trackpoint>
          <Trackpoint>
            <Time>2021-08-28T07:09:24.000Z</Time>
            <Position>
              <LatitudeDegrees>38.17488840781152248382568359375</LatitudeDegrees>
              <LongitudeDegrees>-1.953347884118556976318359375</LongitudeDegrees>
            </Position>
            <AltitudeMeters>1100.800048828125</AltitudeMeters>
            <DistanceMeters>38057.056161368</DistanceMeters>
          </Trackpoint>
          <Trackpoint>
            <Time>2021-08-28T07:09:30.000Z</Time>
            <Position>
              <LatitudeDegrees>38.1750271283090114593505859375</LatitudeDegrees>
              <LongitudeDegrees>-1.95354108698666095733642578125</LongitudeDegrees>
            </Position>
            <AltitudeMeters>1101.5999755859375</AltitudeMeters>
            <DistanceMeters>38079.950698211</DistanceMeters>
          </Trackpoint>
          <Trackpoint>
            <Time>2021-08-28T07:09:31.000Z</Time>
            <Position>
              <LatitudeDegrees>38.17505504004657268524169921875</LatitudeDegrees>
              <LongitudeDegrees>-1.95357243530452251434326171875</LongitudeDegrees>
            </Position>
            <AltitudeMeters>1101.800048828125</AltitudeMeters>
            <DistanceMeters>38084.094996149</DistanceMeters>
          </Trackpoint>
          <Trackpoint>
            <Time>2021-08-28T07:09:38.000Z</Time>
            <Position>
              <LatitudeDegrees>38.17524983547627925872802734375</LatitudeDegrees>
              <LongitudeDegrees>-1.95376018993556499481201171875</LongitudeDegrees>
            </Position>
            <AltitudeMeters>1102.4000244140625</AltitudeMeters>
            <DistanceMeters>38111.297046697</DistanceMeters>
          </Trackpoint>
          <Trackpoint>
            <Time>2021-08-28T07:09:40.000Z</Time>
            <Position>
              <LatitudeDegrees>38.1752993725240230560302734375</LatitudeDegrees>
              <LongitudeDegrees>-1.95381014607846736907958984375</LongitudeDegrees>
            </Position>
            <AltitudeMeters>1102.5999755859375</AltitudeMeters>
            <DistanceMeters>38118.333516632</DistanceMeters>
          </Trackpoint>
          <Trackpoint>
            <Time>2021-08-28T07:09:42.000Z</Time>
            <Position>
              <LatitudeDegrees>38.17535092122852802276611328125</LatitudeDegrees>
              <LongitudeDegrees>-1.95386144332587718963623046875</LongitudeDegrees>
            </Position>
            <AltitudeMeters>1103</AltitudeMeters>
            <DistanceMeters>38125.618416032</DistanceMeters>
          </Trackpoint>
          <Trackpoint>
            <Time>2021-08-28T07:09:46.000Z</Time>
            <Position>
              <LatitudeDegrees>38.17544865421950817108154296875</LatitudeDegrees>
              <LongitudeDegrees>-1.95397946052253246307373046875</LongitudeDegrees>
            </Position>
            <AltitudeMeters>1104.199951171875</AltitudeMeters>
            <DistanceMeters>38140.616991443</DistanceMeters>
          </Trackpoint>
          <Trackpoint>
            <Time>2021-08-28T07:09:50.000Z</Time>
            <Position>
              <LatitudeDegrees>38.17555443383753299713134765625</LatitudeDegrees>
              <LongitudeDegrees>-1.95410384796559810638427734375</LongitudeDegrees>
            </Position>
            <AltitudeMeters>1104.5999755859375</AltitudeMeters>
            <DistanceMeters>38156.649775233</DistanceMeters>
          </Trackpoint>
          <Trackpoint>
            <Time>2021-08-28T07:09:54.000Z</Time>
            <Position>
              <LatitudeDegrees>38.175678066909313201904296875</LatitudeDegrees>
              <LongitudeDegrees>-1.95423309691250324249267578125</LongitudeDegrees>
            </Position>
            <AltitudeMeters>1105.5999755859375</AltitudeMeters>
            <DistanceMeters>38174.461138057</DistanceMeters>
          </Trackpoint>
          <Trackpoint>
            <Time>2021-08-28T07:09:55.000Z</Time>
            <Position>
              <LatitudeDegrees>38.1757077388465404510498046875</LatitudeDegrees>
              <LongitudeDegrees>-1.9542660377919673919677734375</LongitudeDegrees>
            </Position>
            <AltitudeMeters>1105.800048828125</AltitudeMeters>
            <DistanceMeters>38178.844744183</DistanceMeters>
          </Trackpoint>
          <Trackpoint>
            <Time>2021-08-28T07:09:59.000Z</Time>
            <Position>
              <LatitudeDegrees>38.1758234091103076934814453125</LatitudeDegrees>
              <LongitudeDegrees>-1.954395286738872528076171875</LongitudeDegrees>
            </Position>
            <AltitudeMeters>1106.5999755859375</AltitudeMeters>
            <DistanceMeters>38195.980935588</DistanceMeters>
          </Trackpoint>
          <Trackpoint>
            <Time>2021-08-28T07:10:00.000Z</Time>
            <Position>
              <LatitudeDegrees>38.17585199140012264251708984375</LatitudeDegrees>
              <LongitudeDegrees>-1.95442856289446353912353515625</LongitudeDegrees>
            </Position>
            <AltitudeMeters>1106.800048828125</AltitudeMeters>
            <DistanceMeters>38200.293934252</DistanceMeters>
          </Trackpoint>
          <Trackpoint>
            <Time>2021-08-28T07:10:03.000Z</Time>
            <Position>
              <LatitudeDegrees>38.17590831778943538665771484375</LatitudeDegrees>
              <LongitudeDegrees>-1.9545386172831058502197265625</LongitudeDegrees>
            </Position>
            <AltitudeMeters>1107</AltitudeMeters>
            <DistanceMeters>38211.783917612</DistanceMeters>
          </Trackpoint>
          <Trackpoint>
            <Time>2021-08-28T07:10:07.000Z</Time>
            <Position>
              <LatitudeDegrees>38.17593949846923351287841796875</LatitudeDegrees>
              <LongitudeDegrees>-1.9547109492123126983642578125</LongitudeDegrees>
            </Position>
            <AltitudeMeters>1107.800048828125</AltitudeMeters>
            <DistanceMeters>38227.256648033</DistanceMeters>
          </Trackpoint>
          <Trackpoint>
            <Time>2021-08-28T07:10:08.000Z</Time>
            <Position>
              <LatitudeDegrees>38.17593731917440891265869140625</LatitudeDegrees>
              <LongitudeDegrees>-1.954759061336517333984375</LongitudeDegrees>
            </Position>
            <AltitudeMeters>1108.199951171875</AltitudeMeters>
            <DistanceMeters>38231.47330791</DistanceMeters>
          </Trackpoint>
          <Trackpoint>
            <Time>2021-08-28T07:10:10.000Z</Time>
            <Position>
              <LatitudeDegrees>38.1759239919483661651611328125</LatitudeDegrees>
              <LongitudeDegrees>-1.9548514299094676971435546875</LongitudeDegrees>
            </Position>
            <AltitudeMeters>1108.5999755859375</AltitudeMeters>
            <DistanceMeters>38239.690234439</DistanceMeters>
          </Trackpoint>
          <Trackpoint>
            <Time>2021-08-28T07:10:14.000Z</Time>
            <Position>
              <LatitudeDegrees>38.175871185958385467529296875</LatitudeDegrees>
              <LongitudeDegrees>-1.9550286233425140380859375</LongitudeDegrees>
            </Position>
            <AltitudeMeters>1108.800048828125</AltitudeMeters>
            <DistanceMeters>38256.270694241</DistanceMeters>
          </Trackpoint>
          <Trackpoint>
            <Time>2021-08-28T07:10:20.000Z</Time>
            <Position>
              <LatitudeDegrees>38.1757878698408603668212890625</LatitudeDegrees>
              <LongitudeDegrees>-1.95526809431612491607666015625</LongitudeDegrees>
            </Position>
            <AltitudeMeters>1110</AltitudeMeters>
            <DistanceMeters>38279.183761352</DistanceMeters>
          </Trackpoint>
          <Trackpoint>
            <Time>2021-08-28T07:10:25.000Z</Time>
            <Position>
              <LatitudeDegrees>38.17577269859611988067626953125</LatitudeDegrees>
              <LongitudeDegrees>-1.9554649852216243743896484375</LongitudeDegrees>
            </Position>
            <AltitudeMeters>1111</AltitudeMeters>
            <DistanceMeters>38296.493497528</DistanceMeters>
          </Trackpoint>
          <Trackpoint>
            <Time>2021-08-28T07:10:26.000Z</Time>
            <Position>
              <LatitudeDegrees>38.1757814995944499969482421875</LatitudeDegrees>
              <LongitudeDegrees>-1.95550127886235713958740234375</LongitudeDegrees>
            </Position>
            <AltitudeMeters>1111.199951171875</AltitudeMeters>
            <DistanceMeters>38299.816716373</DistanceMeters>
          </Trackpoint>
          <Trackpoint>
            <Time>2021-08-28T07:10:30.000Z</Time>
            <Position>
              <LatitudeDegrees>38.17584042437374591827392578125</LatitudeDegrees>
              <LongitudeDegrees>-1.95563455112278461456298828125</LongitudeDegrees>
            </Position>
            <AltitudeMeters>1112</AltitudeMeters>
            <DistanceMeters>38313.195249372</DistanceMeters>
          </Trackpoint>
          <Trackpoint>
            <Time>2021-08-28T07:10:31.000Z</Time>
            <Position>
              <LatitudeDegrees>38.17585903219878673553466796875</LatitudeDegrees>
              <LongitudeDegrees>-1.95566170848906040191650390625</LongitudeDegrees>
            </Position>
            <AltitudeMeters>1112.4000244140625</AltitudeMeters>
            <DistanceMeters>38316.348361194</DistanceMeters>
          </Trackpoint>
          <Trackpoint>
            <Time>2021-08-28T07:10:37.000Z</Time>
            <Position>
              <LatitudeDegrees>38.17597822286188602447509765625</LatitudeDegrees>
              <LongitudeDegrees>-1.95580403320491313934326171875</LongitudeDegrees>
            </Position>
            <AltitudeMeters>1113.199951171875</AltitudeMeters>
            <DistanceMeters>38334.543929961</DistanceMeters>
          </Trackpoint>
          <Trackpoint>
            <Time>2021-08-28T07:10:38.000Z</Time>
            <Position>
              <LatitudeDegrees>38.17599850706756114959716796875</LatitudeDegrees>
              <LongitudeDegrees>-1.955827586352825164794921875</LongitudeDegrees>
            </Position>
            <AltitudeMeters>1113.4000244140625</AltitudeMeters>
            <DistanceMeters>38337.601073909</DistanceMeters>
          </Trackpoint>
          <Trackpoint>
            <Time>2021-08-28T07:10:40.000Z</Time>
            <Position>
              <LatitudeDegrees>38.1760383211076259613037109375</LatitudeDegrees>
              <LongitudeDegrees>-1.9558773748576641082763671875</LongitudeDegrees>
            </Position>
            <AltitudeMeters>1113.800048828125</AltitudeMeters>
            <DistanceMeters>38343.814978227</DistanceMeters>
          </Trackpoint>
          <Trackpoint>
            <Time>2021-08-28T07:10:43.000Z</Time>
            <Position>
              <LatitudeDegrees>38.176096491515636444091796875</LatitudeDegrees>
              <LongitudeDegrees>-1.95595876313745975494384765625</LongitudeDegrees>
            </Position>
            <AltitudeMeters>1114.4000244140625</AltitudeMeters>
            <DistanceMeters>38353.439453494</DistanceMeters>
          </Trackpoint>
          <Trackpoint>
            <Time>2021-08-28T07:10:46.000Z</Time>
            <Position>
              <LatitudeDegrees>38.176152817904949188232421875</LatitudeDegrees>
              <LongitudeDegrees>-1.95603621192276477813720703125</LongitudeDegrees>
            </Position>
            <AltitudeMeters>1115.4000244140625</AltitudeMeters>
            <DistanceMeters>38362.671238884</DistanceMeters>
          </Trackpoint>
          <Trackpoint>
            <Time>2021-08-28T07:10:50.000Z</Time>
            <Position>
              <LatitudeDegrees>38.17623018287122249603271484375</LatitudeDegrees>
              <LongitudeDegrees>-1.95613428018987178802490234375</LongitudeDegrees>
            </Position>
            <AltitudeMeters>1116</AltitudeMeters>
            <DistanceMeters>38374.827974921</DistanceMeters>
          </Trackpoint>
          <Trackpoint>
            <Time>2021-08-28T07:10:52.000Z</Time>
            <Position>
              <LatitudeDegrees>38.17626823671162128448486328125</LatitudeDegrees>
              <LongitudeDegrees>-1.95619580335915088653564453125</LongitudeDegrees>
            </Position>
            <AltitudeMeters>1116.5999755859375</AltitudeMeters>
            <DistanceMeters>38381.677153494</DistanceMeters>
          </Trackpoint>
          <Trackpoint>
            <Time>2021-08-28T07:10:54.000Z</Time>
            <Position>
              <LatitudeDegrees>38.176306374371051788330078125</LatitudeDegrees>
              <LongitudeDegrees>-1.95624391548335552215576171875</LongitudeDegrees>
            </Position>
            <AltitudeMeters>1117.199951171875</AltitudeMeters>
            <DistanceMeters>38387.65553476</DistanceMeters>
          </Trackpoint>
          <Trackpoint>
            <Time>2021-08-28T07:10:57.000Z</Time>
            <Position>
              <LatitudeDegrees>38.17635557614266872406005859375</LatitudeDegrees>
              <LongitudeDegrees>-1.95631809532642364501953125</LongitudeDegrees>
            </Position>
            <AltitudeMeters>1117.800048828125</AltitudeMeters>
            <DistanceMeters>38396.147542207</DistanceMeters>
          </Trackpoint>
          <Trackpoint>
            <Time>2021-08-28T07:11:00.000Z</Time>
            <Position>
              <LatitudeDegrees>38.1764077953994274139404296875</LatitudeDegrees>
              <LongitudeDegrees>-1.9563950411975383758544921875</LongitudeDegrees>
            </Position>
            <AltitudeMeters>1119</AltitudeMeters>
            <DistanceMeters>38405.041047679</DistanceMeters>
          </Trackpoint>
          <Trackpoint>
            <Time>2021-08-28T07:11:04.000Z</Time>
            <Position>
              <LatitudeDegrees>38.17647007293999195098876953125</LatitudeDegrees>
              <LongitudeDegrees>-1.9565036706626415252685546875</LongitudeDegrees>
            </Position>
            <AltitudeMeters>1119.800048828125</AltitudeMeters>
            <DistanceMeters>38416.804802246</DistanceMeters>
          </Trackpoint>
          <Trackpoint>
            <Time>2021-08-28T07:11:05.000Z</Time>
            <Position>
              <LatitudeDegrees>38.17648666910827159881591796875</LatitudeDegrees>
              <LongitudeDegrees>-1.9565311633050441741943359375</LongitudeDegrees>
            </Position>
            <AltitudeMeters>1120</AltitudeMeters>
            <DistanceMeters>38419.838224059</DistanceMeters>
          </Trackpoint>
          <Trackpoint>
            <Time>2021-08-28T07:11:10.000Z</Time>
            <Position>
              <LatitudeDegrees>38.17655774764716625213623046875</LatitudeDegrees>
              <LongitudeDegrees>-1.95668262429535388946533203125</LongitudeDegrees>
            </Position>
            <AltitudeMeters>1120.800048828125</AltitudeMeters>
            <DistanceMeters>38435.271802919</DistanceMeters>
          </Trackpoint>
          <Trackpoint>
            <Time>2021-08-28T07:11:11.000Z</Time>
            <Position>
              <LatitudeDegrees>38.17656847648322582244873046875</LatitudeDegrees>
              <LongitudeDegrees>-1.956714056432247161865234375</LongitudeDegrees>
            </Position>
            <AltitudeMeters>1121</AltitudeMeters>
            <DistanceMeters>38438.26778289</DistanceMeters>
          </Trackpoint>
          <Trackpoint>
            <Time>2021-08-28T07:11:12.000Z</Time>
            <Position>
              <LatitudeDegrees>38.1765791215002536773681640625</LatitudeDegrees>
              <LongitudeDegrees>-1.956746578216552734375</LongitudeDegrees>
            </Position>
            <AltitudeMeters>1121.199951171875</AltitudeMeters>
            <DistanceMeters>38441.349931559</DistanceMeters>
          </Trackpoint>
          <Trackpoint>
            <Time>2021-08-28T07:11:17.000Z</Time>
            <Position>
              <LatitudeDegrees>38.1766351126134395599365234375</LatitudeDegrees>
              <LongitudeDegrees>-1.95690239779651165008544921875</LongitudeDegrees>
            </Position>
            <AltitudeMeters>1122</AltitudeMeters>
            <DistanceMeters>38456.340678118</DistanceMeters>
          </Trackpoint>
          <Trackpoint>
            <Time>2021-08-28T07:11:19.000Z</Time>
            <Position>
              <LatitudeDegrees>38.17665648646652698516845703125</LatitudeDegrees>
              <LongitudeDegrees>-1.95695914328098297119140625</LongitudeDegrees>
            </Position>
            <AltitudeMeters>1122.199951171875</AltitudeMeters>
            <DistanceMeters>38461.845670084</DistanceMeters>
          </Trackpoint>
          <Trackpoint>
            <Time>2021-08-28T07:11:20.000Z</Time>
            <Position>
              <LatitudeDegrees>38.176667131483554840087890625</LatitudeDegrees>
              <LongitudeDegrees>-1.9569893181324005126953125</LongitudeDegrees>
            </Position>
            <AltitudeMeters>1122.5999755859375</AltitudeMeters>
            <DistanceMeters>38464.740477666</DistanceMeters>
          </Trackpoint>
          <Trackpoint>
            <Time>2021-08-28T07:11:24.000Z</Time>
            <Position>
              <LatitudeDegrees>38.176718093454837799072265625</LatitudeDegrees>
              <LongitudeDegrees>-1.9571125321090221405029296875</LongitudeDegrees>
            </Position>
            <AltitudeMeters>1123.199951171875</AltitudeMeters>
            <DistanceMeters>38476.922072234</DistanceMeters>
          </Trackpoint>
          <Trackpoint>
            <Time>2021-08-28T07:11:26.000Z</Time>
            <Position>
              <LatitudeDegrees>38.1767434068024158477783203125</LatitudeDegrees>
              <LongitudeDegrees>-1.9571663439273834228515625</LongitudeDegrees>
            </Position>
            <AltitudeMeters>1123.800048828125</AltitudeMeters>
            <DistanceMeters>38482.408990755</DistanceMeters>
          </Trackpoint>
          <Trackpoint>
            <Time>2021-08-28T07:11:29.000Z</Time>
            <Position>
              <LatitudeDegrees>38.17676327191293239593505859375</LatitudeDegrees>
              <LongitudeDegrees>-1.95724018849432468414306640625</LongitudeDegrees>
            </Position>
            <AltitudeMeters>1124.4000244140625</AltitudeMeters>
            <DistanceMeters>38489.238364433</DistanceMeters>
          </Trackpoint>
          <Trackpoint>
            <Time>2021-08-28T07:11:30.000Z</Time>
            <Position>
              <LatitudeDegrees>38.1767729111015796661376953125</LatitudeDegrees>
              <LongitudeDegrees>-1.95726432837545871734619140625</LongitudeDegrees>
            </Position>
            <AltitudeMeters>1124.800048828125</AltitudeMeters>
            <DistanceMeters>38491.608323831</DistanceMeters>
          </Trackpoint>
          <Trackpoint>
            <Time>2021-08-28T07:11:31.000Z</Time>
            <Position>
              <LatitudeDegrees>38.1767822988331317901611328125</LatitudeDegrees>
              <LongitudeDegrees>-1.957290060818195343017578125</LongitudeDegrees>
            </Position>
            <AltitudeMeters>1124.800048828125</AltitudeMeters>
            <DistanceMeters>38494.086317371</DistanceMeters>
          </Trackpoint>
          <Trackpoint>
            <Time>2021-08-28T07:11:34.000Z</Time>
            <Position>
              <LatitudeDegrees>38.17682395689189434051513671875</LatitudeDegrees>
              <LongitudeDegrees>-1.95736373774707317352294921875</LongitudeDegrees>
            </Position>
            <AltitudeMeters>1125.4000244140625</AltitudeMeters>
            <DistanceMeters>38502.026594049</DistanceMeters>
          </Trackpoint>
          <Trackpoint>
            <Time>2021-08-28T07:11:39.000Z</Time>
            <Position>
              <LatitudeDegrees>38.17688900046050548553466796875</LatitudeDegrees>
              <LongitudeDegrees>-1.957496590912342071533203125</LongitudeDegrees>
            </Position>
            <AltitudeMeters>1126.5999755859375</AltitudeMeters>
            <DistanceMeters>38515.720335957</DistanceMeters>
          </Trackpoint>
          <Trackpoint>
            <Time>2021-08-28T07:11:40.000Z</Time>
            <Position>
              <LatitudeDegrees>38.176901154220104217529296875</LatitudeDegrees>
              <LongitudeDegrees>-1.95752651430666446685791015625</LongitudeDegrees>
            </Position>
            <AltitudeMeters>1126.800048828125</AltitudeMeters>
            <DistanceMeters>38518.667696393</DistanceMeters>
          </Trackpoint>
          <Trackpoint>
            <Time>2021-08-28T07:11:46.000Z</Time>
            <Position>
              <LatitudeDegrees>38.176962845027446746826171875</LatitudeDegrees>
              <LongitudeDegrees>-1.9577006064355373382568359375</LongitudeDegrees>
            </Position>
            <AltitudeMeters>1127.4000244140625</AltitudeMeters>
            <DistanceMeters>38535.376192535</DistanceMeters>
          </Trackpoint>
          <Trackpoint>
            <Time>2021-08-28T07:11:48.000Z</Time>
            <Position>
              <LatitudeDegrees>38.17698639817535877227783203125</LatitudeDegrees>
              <LongitudeDegrees>-1.9577616266906261444091796875</LongitudeDegrees>
            </Position>
            <AltitudeMeters>1127.800048828125</AltitudeMeters>
            <DistanceMeters>38541.324287988</DistanceMeters>
          </Trackpoint>
          <Trackpoint>
            <Time>2021-08-28T07:11:50.000Z</Time>
            <Position>
              <LatitudeDegrees>38.17701020278036594390869140625</LatitudeDegrees>
              <LongitudeDegrees>-1.9578229822218418121337890625</LongitudeDegrees>
            </Position>
            <AltitudeMeters>1127.800048828125</AltitudeMeters>
            <DistanceMeters>38547.310970993</DistanceMeters>
          </Trackpoint>
          <Trackpoint>
            <Time>2021-08-28T07:11:54.000Z</Time>
            <Position>
              <LatitudeDegrees>38.17706837318837642669677734375</LatitudeDegrees>
              <LongitudeDegrees>-1.95794359780848026275634765625</LongitudeDegrees>
            </Position>
            <AltitudeMeters>1128.800048828125</AltitudeMeters>
            <DistanceMeters>38559.691460384</DistanceMeters>
          </Trackpoint>
          <Trackpoint>
            <Time>2021-08-28T07:11:59.000Z</Time>
            <Position>
              <LatitudeDegrees>38.177123777568340301513671875</LatitudeDegrees>
              <LongitudeDegrees>-1.95807368494570255279541015625</LongitudeDegrees>
            </Position>
            <AltitudeMeters>1130</AltitudeMeters>
            <DistanceMeters>38572.636735918</DistanceMeters>
          </Trackpoint>
          <Trackpoint>
            <Time>2021-08-28T07:12:00.000Z</Time>
            <Position>
              <LatitudeDegrees>38.17713073454797267913818359375</LatitudeDegrees>
              <LongitudeDegrees>-1.9581086374819278717041015625</LongitudeDegrees>
            </Position>
            <AltitudeMeters>1130.199951171875</AltitudeMeters>
            <DistanceMeters>38575.792710302</DistanceMeters>
          </Trackpoint>
          <Trackpoint>
            <Time>2021-08-28T07:12:01.000Z</Time>
            <Position>
              <LatitudeDegrees>38.17713526077568531036376953125</LatitudeDegrees>
              <LongitudeDegrees>-1.95814124308526515960693359375</LongitudeDegrees>
            </Position>
            <AltitudeMeters>1130.800048828125</AltitudeMeters>
            <DistanceMeters>38578.689077167</DistanceMeters>
          </Trackpoint>
          <Trackpoint>
            <Time>2021-08-28T07:12:02.000Z</Time>
            <Position>
              <LatitudeDegrees>38.17714112810790538787841796875</LatitudeDegrees>
              <LongitudeDegrees>-1.95817342959344387054443359375</LongitudeDegrees>
            </Position>
            <AltitudeMeters>1131</AltitudeMeters>
            <DistanceMeters>38581.579201855</DistanceMeters>
          </Trackpoint>
          <Trackpoint>
            <Time>2021-08-28T07:12:06.000Z</Time>
            <Position>
              <LatitudeDegrees>38.1771804392337799072265625</LatitudeDegrees>
              <LongitudeDegrees>-1.95827870629727840423583984375</LongitudeDegrees>
            </Position>
            <AltitudeMeters>1131.800048828125</AltitudeMeters>
            <DistanceMeters>38591.776768248</DistanceMeters>
          </Trackpoint>
          <Trackpoint>
            <Time>2021-08-28T07:12:08.000Z</Time>
            <Position>
              <LatitudeDegrees>38.17720030434429645538330078125</LatitudeDegrees>
              <LongitudeDegrees>-1.95833737961947917938232421875</LongitudeDegrees>
            </Position>
            <AltitudeMeters>1132.199951171875</AltitudeMeters>
            <DistanceMeters>38597.366407279</DistanceMeters>
          </Trackpoint>
          <Trackpoint>
            <Time>2021-08-28T07:12:10.000Z</Time>
            <Position>
              <LatitudeDegrees>38.17721975035965442657470703125</LatitudeDegrees>
              <LongitudeDegrees>-1.95840510539710521697998046875</LongitudeDegrees>
            </Position>
            <AltitudeMeters>1132.4000244140625</AltitudeMeters>
            <DistanceMeters>38603.674778454</DistanceMeters>
          </Trackpoint>
          <Trackpoint>
            <Time>2021-08-28T07:12:13.000Z</Time>
            <Position>
              <LatitudeDegrees>38.17723743617534637451171875</LatitudeDegrees>
              <LongitudeDegrees>-1.95851105265319347381591796875</LongitudeDegrees>
            </Position>
            <AltitudeMeters>1132.800048828125</AltitudeMeters>
            <DistanceMeters>38613.151757947</DistanceMeters>
          </Trackpoint>
          <Trackpoint>
            <Time>2021-08-28T07:12:15.000Z</Time>
            <Position>
              <LatitudeDegrees>38.17724221386015415191650390625</LatitudeDegrees>
              <LongitudeDegrees>-1.9585880823433399200439453125</LongitudeDegrees>
            </Position>
            <AltitudeMeters>1133.4000244140625</AltitudeMeters>
            <DistanceMeters>38619.912025463</DistanceMeters>
          </Trackpoint>
          <Trackpoint>
            <Time>2021-08-28T07:12:20.000Z</Time>
            <Position>
              <LatitudeDegrees>38.1772251985967159271240234375</LatitudeDegrees>
              <LongitudeDegrees>-1.9588003121316432952880859375</LongitudeDegrees>
            </Position>
            <AltitudeMeters>1133.800048828125</AltitudeMeters>
            <DistanceMeters>38638.577459006</DistanceMeters>
          </Trackpoint>
          <Trackpoint>
            <Time>2021-08-28T07:12:28.000Z</Time>
            <Position>
              <LatitudeDegrees>38.17719309590756893157958984375</LatitudeDegrees>
              <LongitudeDegrees>-1.95914053358137607574462890625</LongitudeDegrees>
            </Position>
            <AltitudeMeters>1134.4000244140625</AltitudeMeters>
            <DistanceMeters>38668.558650933</DistanceMeters>
          </Trackpoint>
          <Trackpoint>
            <Time>2021-08-28T07:12:30.000Z</Time>
            <Position>
              <LatitudeDegrees>38.17718186415731906890869140625</LatitudeDegrees>
              <LongitudeDegrees>-1.95922770537436008453369140625</LongitudeDegrees>
            </Position>
            <AltitudeMeters>1135.199951171875</AltitudeMeters>
            <DistanceMeters>38676.28742546</DistanceMeters>
          </Trackpoint>
          <Trackpoint>
            <Time>2021-08-28T07:12:32.000Z</Time>
            <Position>
              <LatitudeDegrees>38.17716996185481548309326171875</LatitudeDegrees>
              <LongitudeDegrees>-1.959318816661834716796875</LongitudeDegrees>
            </Position>
            <AltitudeMeters>1135.5999755859375</AltitudeMeters>
            <DistanceMeters>38684.368049369</DistanceMeters>
          </Trackpoint>
          <Trackpoint>
            <Time>2021-08-28T07:12:36.000Z</Time>
            <Position>
              <LatitudeDegrees>38.1771527789533138275146484375</LatitudeDegrees>
              <LongitudeDegrees>-1.95948570035398006439208984375</LongitudeDegrees>
            </Position>
            <AltitudeMeters>1136.199951171875</AltitudeMeters>
            <DistanceMeters>38699.0941244</DistanceMeters>
          </Trackpoint>
          <Trackpoint>
            <Time>2021-08-28T07:12:39.000Z</Time>
            <Position>
              <LatitudeDegrees>38.1771390326321125030517578125</LatitudeDegrees>
              <LongitudeDegrees>-1.95960656739771366119384765625</LongitudeDegrees>
            </Position>
            <AltitudeMeters>1136.5999755859375</AltitudeMeters>
            <DistanceMeters>38709.779454837</DistanceMeters>
          </Trackpoint>
          <Trackpoint>
            <Time>2021-08-28T07:12:40.000Z</Time>
            <Position>
              <LatitudeDegrees>38.17713509313762187957763671875</LatitudeDegrees>
              <LongitudeDegrees>-1.95964847691357135772705078125</LongitudeDegrees>
            </Position>
            <AltitudeMeters>1136.800048828125</AltitudeMeters>
            <DistanceMeters>38713.472071176</DistanceMeters>
          </Trackpoint>
          <Trackpoint>
            <Time>2021-08-28T07:12:44.000Z</Time>
            <Position>
              <LatitudeDegrees>38.1771209277212619781494140625</LatitudeDegrees>
              <LongitudeDegrees>-1.95981008000671863555908203125</LongitudeDegrees>
            </Position>
            <AltitudeMeters>1137.5999755859375</AltitudeMeters>
            <DistanceMeters>38727.699445972</DistanceMeters>
          </Trackpoint>
          <Trackpoint>
            <Time>2021-08-28T07:12:45.000Z</Time>
            <Position>
              <LatitudeDegrees>38.17711547948420047760009765625</LatitudeDegrees>
              <LongitudeDegrees>-1.9598520733416080474853515625</LongitudeDegrees>
            </Position>
            <AltitudeMeters>1137.800048828125</AltitudeMeters>
            <DistanceMeters>38731.423717366</DistanceMeters>
          </Trackpoint>
          <Trackpoint>
            <Time>2021-08-28T07:12:50.000Z</Time>
            <Position>
              <LatitudeDegrees>38.17709796130657196044921875</LatitudeDegrees>
              <LongitudeDegrees>-1.9600524008274078369140625</LongitudeDegrees>
            </Position>
            <AltitudeMeters>1138.800048828125</AltitudeMeters>
            <DistanceMeters>38749.059559363</DistanceMeters>
          </Trackpoint>
          <Trackpoint>
            <Time>2021-08-28T07:12:53.000Z</Time>
            <Position>
              <LatitudeDegrees>38.1770887412130832672119140625</LatitudeDegrees>
              <LongitudeDegrees>-1.96016840636730194091796875</LongitudeDegrees>
            </Position>
            <AltitudeMeters>1139</AltitudeMeters>
            <DistanceMeters>38759.26155236</DistanceMeters>
          </Trackpoint>
          <Trackpoint>
            <Time>2021-08-28T07:12:57.000Z</Time>
            <Position>
              <LatitudeDegrees>38.177072815597057342529296875</LatitudeDegrees>
              <LongitudeDegrees>-1.96034065447747707366943359375</LongitudeDegrees>
            </Position>
            <AltitudeMeters>1140</AltitudeMeters>
            <DistanceMeters>38774.436101754</DistanceMeters>
          </Trackpoint>
          <Trackpoint>
            <Time>2021-08-28T07:13:00.000Z</Time>
            <Position>
              <LatitudeDegrees>38.1770624220371246337890625</LatitudeDegrees>
              <LongitudeDegrees>-1.960472501814365386962890625</LongitudeDegrees>
            </Position>
            <AltitudeMeters>1140.5999755859375</AltitudeMeters>
            <DistanceMeters>38786.029360907</DistanceMeters>
          </Trackpoint>
          <Trackpoint>
            <Time>2021-08-28T07:13:03.000Z</Time>
            <Position>
              <LatitudeDegrees>38.17706569097936153411865234375</LatitudeDegrees>
              <LongitudeDegrees>-1.96059831418097019195556640625</LongitudeDegrees>
            </Position>
            <AltitudeMeters>1141.199951171875</AltitudeMeters>
            <DistanceMeters>38797.043444934</DistanceMeters>
          </Trackpoint>
          <Trackpoint>
            <Time>2021-08-28T07:13:07.000Z</Time>
            <Position>
              <LatitudeDegrees>38.17710475064814090728759765625</LatitudeDegrees>
              <LongitudeDegrees>-1.96076444350183010101318359375</LongitudeDegrees>
            </Position>
            <AltitudeMeters>1142</AltitudeMeters>
            <DistanceMeters>38812.215018635</DistanceMeters>
          </Trackpoint>
          <Trackpoint>
            <Time>2021-08-28T07:13:09.000Z</Time>
            <Position>
              <LatitudeDegrees>38.1771363504230976104736328125</LatitudeDegrees>
              <LongitudeDegrees>-1.96084071882069110870361328125</LongitudeDegrees>
            </Position>
            <AltitudeMeters>1142.5999755859375</AltitudeMeters>
            <DistanceMeters>38819.758727388</DistanceMeters>
          </Trackpoint>
          <Trackpoint>
            <Time>2021-08-28T07:13:10.000Z</Time>
            <Position>
              <LatitudeDegrees>38.17715537734329700469970703125</LatitudeDegrees>
              <LongitudeDegrees>-1.9608750008046627044677734375</LongitudeDegrees>
            </Position>
            <AltitudeMeters>1142.800048828125</AltitudeMeters>
            <DistanceMeters>38823.43049864</DistanceMeters>
          </Trackpoint>
          <Trackpoint>
            <Time>2021-08-28T07:13:14.000Z</Time>
            <Position>
              <LatitudeDegrees>38.17723617888987064361572265625</LatitudeDegrees>
              <LongitudeDegrees>-1.96101372130215167999267578125</LongitudeDegrees>
            </Position>
            <AltitudeMeters>1143.5999755859375</AltitudeMeters>
            <DistanceMeters>38838.53645878</DistanceMeters>
          </Trackpoint>
          <Trackpoint>
            <Time>2021-08-28T07:13:18.000Z</Time>
            <Position>
              <LatitudeDegrees>38.177322931587696075439453125</LatitudeDegrees>
              <LongitudeDegrees>-1.961147077381610870361328125</LongitudeDegrees>
            </Position>
            <AltitudeMeters>1144.800048828125</AltitudeMeters>
            <DistanceMeters>38853.681224928</DistanceMeters>
          </Trackpoint>
          <Trackpoint>
            <Time>2021-08-28T07:13:20.000Z</Time>
            <Position>
              <LatitudeDegrees>38.17736090160906314849853515625</LatitudeDegrees>
              <LongitudeDegrees>-1.96121790446341037750244140625</LongitudeDegrees>
            </Position>
            <AltitudeMeters>1145.199951171875</AltitudeMeters>
            <DistanceMeters>38861.182920496</DistanceMeters>
          </Trackpoint>
          <Trackpoint>
            <Time>2021-08-28T07:13:22.000Z</Time>
            <Position>
              <LatitudeDegrees>38.17739811725914478302001953125</LatitudeDegrees>
              <LongitudeDegrees>-1.96128998883068561553955078125</LongitudeDegrees>
            </Position>
            <AltitudeMeters>1145.5999755859375</AltitudeMeters>
            <DistanceMeters>38868.729022937</DistanceMeters>
          </Trackpoint>
          <Trackpoint>
            <Time>2021-08-28T07:13:23.000Z</Time>
            <Position>
              <LatitudeDegrees>38.17742007784545421600341796875</LatitudeDegrees>
              <LongitudeDegrees>-1.9613264501094818115234375</LongitudeDegrees>
            </Position>
            <AltitudeMeters>1145.800048828125</AltitudeMeters>
            <DistanceMeters>38872.747203705</DistanceMeters>
          </Trackpoint>
          <Trackpoint>
            <Time>2021-08-28T07:13:27.000Z</Time>
            <Position>
              <LatitudeDegrees>38.17750708200037479400634765625</LatitudeDegrees>
              <LongitudeDegrees>-1.96147422306239604949951171875</LongitudeDegrees>
            </Position>
            <AltitudeMeters>1147</AltitudeMeters>
            <DistanceMeters>38888.900627148</DistanceMeters>
          </Trackpoint>
          <Trackpoint>
            <Time>2021-08-28T07:13:29.000Z</Time>
            <Position>
              <LatitudeDegrees>38.1775380112230777740478515625</LatitudeDegrees>
              <LongitudeDegrees>-1.9615542702376842498779296875</LongitudeDegrees>
            </Position>
            <AltitudeMeters>1147</AltitudeMeters>
            <DistanceMeters>38896.704397745</DistanceMeters>
          </Trackpoint>
          <Trackpoint>
            <Time>2021-08-28T07:13:30.000Z</Time>
            <Position>
              <LatitudeDegrees>38.17755527794361114501953125</LatitudeDegrees>
              <LongitudeDegrees>-1.961588300764560699462890625</LongitudeDegrees>
            </Position>
            <AltitudeMeters>1147.199951171875</AltitudeMeters>
            <DistanceMeters>38900.247250587</DistanceMeters>
          </Trackpoint>
          <Trackpoint>
            <Time>2021-08-28T07:13:35.000Z</Time>
            <Position>
              <LatitudeDegrees>38.177658878266811370849609375</LatitudeDegrees>
              <LongitudeDegrees>-1.961759962141513824462890625</LongitudeDegrees>
            </Position>
            <AltitudeMeters>1148.199951171875</AltitudeMeters>
            <DistanceMeters>38919.182381566</DistanceMeters>
          </Trackpoint>
          <Trackpoint>
            <Time>2021-08-28T07:13:36.000Z</Time>
            <Position>
              <LatitudeDegrees>38.17768326960504055023193359375</LatitudeDegrees>
              <LongitudeDegrees>-1.96179474703967571258544921875</LongitudeDegrees>
            </Position>
            <AltitudeMeters>1148.4000244140625</AltitudeMeters>
            <DistanceMeters>38923.260788217</DistanceMeters>
          </Trackpoint>
          <Trackpoint>
            <Time>2021-08-28T07:13:40.000Z</Time>
            <Position>
              <LatitudeDegrees>38.17776826210319995880126953125</LatitudeDegrees>
              <LongitudeDegrees>-1.96193589828908443450927734375</LongitudeDegrees>
            </Position>
            <AltitudeMeters>1149.199951171875</AltitudeMeters>
            <DistanceMeters>38938.817331815</DistanceMeters>
          </Trackpoint>
          <Trackpoint>
            <Time>2021-08-28T07:13:41.000Z</Time>
            <Position>
              <LatitudeDegrees>38.17778502590954303741455078125</LatitudeDegrees>
              <LongitudeDegrees>-1.961975209414958953857421875</LongitudeDegrees>
            </Position>
            <AltitudeMeters>1149.199951171875</AltitudeMeters>
            <DistanceMeters>38942.729617537</DistanceMeters>
          </Trackpoint>
          <Trackpoint>
            <Time>2021-08-28T07:13:43.000Z</Time>
            <Position>
              <LatitudeDegrees>38.1778199784457683563232421875</LatitudeDegrees>
              <LongitudeDegrees>-1.9620615430176258087158203125</LongitudeDegrees>
            </Position>
            <AltitudeMeters>1149.4000244140625</AltitudeMeters>
            <DistanceMeters>38951.225877366</DistanceMeters>
          </Trackpoint>
          <Trackpoint>
            <Time>2021-08-28T07:13:48.000Z</Time>
            <Position>
              <LatitudeDegrees>38.17793154157698154449462890625</LatitudeDegrees>
              <LongitudeDegrees>-1.9622352160513401031494140625</LongitudeDegrees>
            </Position>
            <AltitudeMeters>1150.4000244140625</AltitudeMeters>
            <DistanceMeters>38970.849296535</DistanceMeters>
          </Trackpoint>
          <Trackpoint>
            <Time>2021-08-28T07:13:49.000Z</Time>
            <Position>
              <LatitudeDegrees>38.177953250706195831298828125</LatitudeDegrees>
              <LongitudeDegrees>-1.962271593511104583740234375</LongitudeDegrees>
            </Position>
            <AltitudeMeters>1150.5999755859375</AltitudeMeters>
            <DistanceMeters>38974.844941058</DistanceMeters>
          </Trackpoint>
          <Trackpoint>
            <Time>2021-08-28T07:13:50.000Z</Time>
            <Position>
              <LatitudeDegrees>38.1779743731021881103515625</LatitudeDegrees>
              <LongitudeDegrees>-1.9623062945902347564697265625</LongitudeDegrees>
            </Position>
            <AltitudeMeters>1150.800048828125</AltitudeMeters>
            <DistanceMeters>38978.685008093</DistanceMeters>
          </Trackpoint>
          <Trackpoint>
            <Time>2021-08-28T07:13:55.000Z</Time>
            <Position>
              <LatitudeDegrees>38.178076632320880889892578125</LatitudeDegrees>
              <LongitudeDegrees>-1.96248055435717105865478515625</LongitudeDegrees>
            </Position>
            <AltitudeMeters>1151.5999755859375</AltitudeMeters>
            <DistanceMeters>38997.711245359</DistanceMeters>
          </Trackpoint>
          <Trackpoint>
            <Time>2021-08-28T07:13:57.000Z</Time>
            <Position>
              <LatitudeDegrees>38.178117536008358001708984375</LatitudeDegrees>
              <LongitudeDegrees>-1.9625520519912242889404296875</LongitudeDegrees>
            </Position>
            <AltitudeMeters>1151.800048828125</AltitudeMeters>
            <DistanceMeters>39005.448194159</DistanceMeters>
          </Trackpoint>
          <Trackpoint>
            <Time>2021-08-28T07:14:00.000Z</Time>
            <Position>
              <LatitudeDegrees>38.17817042581737041473388671875</LatitudeDegrees>
              <LongitudeDegrees>-1.96266126818954944610595703125</LongitudeDegrees>
            </Position>
            <AltitudeMeters>1152.800048828125</AltitudeMeters>
            <DistanceMeters>39016.671006028</DistanceMeters>
          </Trackpoint>
          <Trackpoint>
            <Time>2021-08-28T07:14:05.000Z</Time>
            <Position>
              <LatitudeDegrees>38.1782253272831439971923828125</LatitudeDegrees>
              <LongitudeDegrees>-1.96285405196249485015869140625</LongitudeDegrees>
            </Position>
            <AltitudeMeters>1153.800048828125</AltitudeMeters>
            <DistanceMeters>39034.610932297</DistanceMeters>
          </Trackpoint>
          <Trackpoint>
            <Time>2021-08-28T07:14:06.000Z</Time>
            <Position>
              <LatitudeDegrees>38.1782420910894870758056640625</LatitudeDegrees>
              <LongitudeDegrees>-1.9628923572599887847900390625</LongitudeDegrees>
            </Position>
            <AltitudeMeters>1154</AltitudeMeters>
            <DistanceMeters>39038.446293366</DistanceMeters>
          </Trackpoint>
          <Trackpoint>
            <Time>2021-08-28T07:14:10.000Z</Time>
            <Position>
              <LatitudeDegrees>38.1782962381839752197265625</LatitudeDegrees>
              <LongitudeDegrees>-1.96305035613477230072021484375</LongitudeDegrees>
            </Position>
            <AltitudeMeters>1154.800048828125</AltitudeMeters>
            <DistanceMeters>39053.526826355</DistanceMeters>
          </Trackpoint>
          <Trackpoint>
            <Time>2021-08-28T07:14:11.000Z</Time>
            <Position>
              <LatitudeDegrees>38.17830386571586132049560546875</LatitudeDegrees>
              <LongitudeDegrees>-1.96309109218418598175048828125</LongitudeDegrees>
            </Position>
            <AltitudeMeters>1155.199951171875</AltitudeMeters>
            <DistanceMeters>39057.189979859</DistanceMeters>
          </Trackpoint>
          <Trackpoint>
            <Time>2021-08-28T07:14:12.000Z</Time>
            <Position>
              <LatitudeDegrees>38.178313337266445159912109375</LatitudeDegrees>
              <LongitudeDegrees>-1.96313031949102878570556640625</LongitudeDegrees>
            </Position>
            <AltitudeMeters>1155.4000244140625</AltitudeMeters>
            <DistanceMeters>39060.7784181</DistanceMeters>
          </Trackpoint>
          <Trackpoint>
            <Time>2021-08-28T07:14:17.000Z</Time>
            <Position>
              <LatitudeDegrees>38.17838181741535663604736328125</LatitudeDegrees>
              <LongitudeDegrees>-1.9633161462843418121337890625</LongitudeDegrees>
            </Position>
            <AltitudeMeters>1156.4000244140625</AltitudeMeters>
            <DistanceMeters>39078.735198704</DistanceMeters>
          </Trackpoint>
          <Trackpoint>
            <Time>2021-08-28T07:14:20.000Z</Time>
            <Position>
              <LatitudeDegrees>38.178448118269443511962890625</LatitudeDegrees>
              <LongitudeDegrees>-1.96340440772473812103271484375</LongitudeDegrees>
            </Position>
            <AltitudeMeters>1157.199951171875</AltitudeMeters>
            <DistanceMeters>39089.416302851</DistanceMeters>
          </Trackpoint>
          <Trackpoint>
            <Time>2021-08-28T07:14:23.000Z</Time>
            <Position>
              <LatitudeDegrees>38.17853520624339580535888671875</LatitudeDegrees>
              <LongitudeDegrees>-1.9634722173213958740234375</LongitudeDegrees>
            </Position>
            <AltitudeMeters>1157.5999755859375</AltitudeMeters>
            <DistanceMeters>39100.781434327</DistanceMeters>
          </Trackpoint>
          <Trackpoint>
            <Time>2021-08-28T07:14:26.000Z</Time>
            <Position>
              <LatitudeDegrees>38.1786340288817882537841796875</LatitudeDegrees>
              <LongitudeDegrees>-1.96352996863424777984619140625</LongitudeDegrees>
            </Position>
            <AltitudeMeters>1158</AltitudeMeters>
            <DistanceMeters>39112.886062383</DistanceMeters>
          </Trackpoint>
          <Trackpoint>
            <Time>2021-08-28T07:14:28.000Z</Time>
            <Position>
              <LatitudeDegrees>38.17869798280298709869384765625</LatitudeDegrees>
              <LongitudeDegrees>-1.9635830260813236236572265625</LongitudeDegrees>
            </Position>
            <AltitudeMeters>1158.5999755859375</AltitudeMeters>
            <DistanceMeters>39121.383916307</DistanceMeters>
          </Trackpoint>
          <Trackpoint>
            <Time>2021-08-28T07:14:30.000Z</Time>
            <Position>
              <LatitudeDegrees>38.17876369692385196685791015625</LatitudeDegrees>
              <LongitudeDegrees>-1.96365016512572765350341796875</LongitudeDegrees>
            </Position>
            <AltitudeMeters>1159</AltitudeMeters>
            <DistanceMeters>39130.764164964</DistanceMeters>
          </Trackpoint>
          <Trackpoint>
            <Time>2021-08-28T07:14:32.000Z</Time>
            <Position>
              <LatitudeDegrees>38.17882689647376537322998046875</LatitudeDegrees>
              <LongitudeDegrees>-1.96372224949300289154052734375</LongitudeDegrees>
            </Position>
            <AltitudeMeters>1159</AltitudeMeters>
            <DistanceMeters>39140.211560138</DistanceMeters>
          </Trackpoint>
          <Trackpoint>
            <Time>2021-08-28T07:14:35.000Z</Time>
            <Position>
              <LatitudeDegrees>38.17891490645706653594970703125</LatitudeDegrees>
              <LongitudeDegrees>-1.9638472236692905426025390625</LongitudeDegrees>
            </Position>
            <AltitudeMeters>1159.4000244140625</AltitudeMeters>
            <DistanceMeters>39154.891880449</DistanceMeters>
          </Trackpoint>
          <Trackpoint>
            <Time>2021-08-28T07:14:37.000Z</Time>
            <Position>
              <LatitudeDegrees>38.17895296029746532440185546875</LatitudeDegrees>
              <LongitudeDegrees>-1.96394227445125579833984375</LongitudeDegrees>
            </Position>
            <AltitudeMeters>1159.5999755859375</AltitudeMeters>
            <DistanceMeters>39164.224355324</DistanceMeters>
          </Trackpoint>
          <Trackpoint>
            <Time>2021-08-28T07:14:40.000Z</Time>
            <Position>
              <LatitudeDegrees>38.17896855063736438751220703125</LatitudeDegrees>
              <LongitudeDegrees>-1.9640864431858062744140625</LongitudeDegrees>
            </Position>
            <AltitudeMeters>1160.199951171875</AltitudeMeters>
            <DistanceMeters>39176.956871273</DistanceMeters>
          </Trackpoint>
          <Trackpoint>
            <Time>2021-08-28T07:14:42.000Z</Time>
            <Position>
              <LatitudeDegrees>38.178971819579601287841796875</LatitudeDegrees>
              <LongitudeDegrees>-1.96418727748095989227294921875</LongitudeDegrees>
            </Position>
            <AltitudeMeters>1160.800048828125</AltitudeMeters>
            <DistanceMeters>39185.78668894</DistanceMeters>
          </Trackpoint>
          <Trackpoint>
            <Time>2021-08-28T07:14:48.000Z</Time>
            <Position>
              <LatitudeDegrees>38.17897810600697994232177734375</LatitudeDegrees>
              <LongitudeDegrees>-1.96449371986091136932373046875</LongitudeDegrees>
            </Position>
            <AltitudeMeters>1162</AltitudeMeters>
            <DistanceMeters>39212.607463531</DistanceMeters>
          </Trackpoint>
          <Trackpoint>
            <Time>2021-08-28T07:14:50.000Z</Time>
            <Position>
              <LatitudeDegrees>38.178977183997631072998046875</LatitudeDegrees>
              <LongitudeDegrees>-1.9645888544619083404541015625</LongitudeDegrees>
            </Position>
            <AltitudeMeters>1162.5999755859375</AltitudeMeters>
            <DistanceMeters>39220.931933882</DistanceMeters>
          </Trackpoint>
          <Trackpoint>
            <Time>2021-08-28T07:14:52.000Z</Time>
            <Position>
              <LatitudeDegrees>38.17898196168243885040283203125</LatitudeDegrees>
              <LongitudeDegrees>-1.96468197740614414215087890625</LongitudeDegrees>
            </Position>
            <AltitudeMeters>1163</AltitudeMeters>
            <DistanceMeters>39229.096492922</DistanceMeters>
          </Trackpoint>
          <Trackpoint>
            <Time>2021-08-28T07:14:57.000Z</Time>
            <Position>
              <LatitudeDegrees>38.17899403162300586700439453125</LatitudeDegrees>
              <LongitudeDegrees>-1.96491801179945468902587890625</LongitudeDegrees>
            </Position>
            <AltitudeMeters>1164.199951171875</AltitudeMeters>
            <DistanceMeters>39249.791382764</DistanceMeters>
          </Trackpoint>
          <Trackpoint>
            <Time>2021-08-28T07:15:00.000Z</Time>
            <Position>
              <LatitudeDegrees>38.1790001504123210906982421875</LatitudeDegrees>
              <LongitudeDegrees>-1.96506285108625888824462890625</LongitudeDegrees>
            </Position>
            <AltitudeMeters>1164.4000244140625</AltitudeMeters>
            <DistanceMeters>39262.482341887</DistanceMeters>
          </Trackpoint>
          <Trackpoint>
            <Time>2021-08-28T07:15:03.000Z</Time>
            <Position>
              <LatitudeDegrees>38.17900593392550945281982421875</LatitudeDegrees>
              <LongitudeDegrees>-1.96521540172398090362548828125</LongitudeDegrees>
            </Position>
            <AltitudeMeters>1165.199951171875</AltitudeMeters>
            <DistanceMeters>39275.844327946</DistanceMeters>
          </Trackpoint>
          <Trackpoint>
            <Time>2021-08-28T07:15:07.000Z</Time>
            <Position>
              <LatitudeDegrees>38.17902035079896450042724609375</LatitudeDegrees>
              <LongitudeDegrees>-1.96541614830493927001953125</LongitudeDegrees>
            </Position>
            <AltitudeMeters>1165.5999755859375</AltitudeMeters>
            <DistanceMeters>39293.480937972</DistanceMeters>
          </Trackpoint>
          <Trackpoint>
            <Time>2021-08-28T07:15:10.000Z</Time>
            <Position>
              <LatitudeDegrees>38.1790336780250072479248046875</LatitudeDegrees>
              <LongitudeDegrees>-1.9655624963343143463134765625</LongitudeDegrees>
            </Position>
            <AltitudeMeters>1166</AltitudeMeters>
            <DistanceMeters>39306.370288088</DistanceMeters>
          </Trackpoint>
          <Trackpoint>
            <Time>2021-08-28T07:15:13.000Z</Time>
            <Position>
              <LatitudeDegrees>38.179054297506809234619140625</LatitudeDegrees>
              <LongitudeDegrees>-1.96570021100342273712158203125</LongitudeDegrees>
            </Position>
            <AltitudeMeters>1166.199951171875</AltitudeMeters>
            <DistanceMeters>39318.635730336</DistanceMeters>
          </Trackpoint>
          <Trackpoint>
            <Time>2021-08-28T07:15:20.000Z</Time>
            <Position>
              <LatitudeDegrees>38.17906561307609081268310546875</LatitudeDegrees>
              <LongitudeDegrees>-1.96607999503612518310546875</LongitudeDegrees>
            </Position>
            <AltitudeMeters>1167.199951171875</AltitudeMeters>
            <DistanceMeters>39351.888020489</DistanceMeters>
          </Trackpoint>
          <Trackpoint>
            <Time>2021-08-28T07:15:21.000Z</Time>
            <Position>
              <LatitudeDegrees>38.17906930111348628997802734375</LatitudeDegrees>
              <LongitudeDegrees>-1.96613623760640621185302734375</LongitudeDegrees>
            </Position>
            <AltitudeMeters>1167.4000244140625</AltitudeMeters>
            <DistanceMeters>39356.826667721</DistanceMeters>
          </Trackpoint>
          <Trackpoint>
            <Time>2021-08-28T07:15:26.000Z</Time>
            <Position>
              <LatitudeDegrees>38.17908053286373615264892578125</LatitudeDegrees>
              <LongitudeDegrees>-1.9664147682487964630126953125</LongitudeDegrees>
            </Position>
            <AltitudeMeters>1168.4000244140625</AltitudeMeters>
            <DistanceMeters>39381.228003351</DistanceMeters>
          </Trackpoint>
          <Trackpoint>
            <Time>2021-08-28T07:15:27.000Z</Time>
            <Position>
              <LatitudeDegrees>38.17908036522567272186279296875</LatitudeDegrees>
              <LongitudeDegrees>-1.96647251956164836883544921875</LongitudeDegrees>
            </Position>
            <AltitudeMeters>1168.5999755859375</AltitudeMeters>
            <DistanceMeters>39386.279636358</DistanceMeters>
          </Trackpoint>
          <Trackpoint>
            <Time>2021-08-28T07:15:30.000Z</Time>
            <Position>
              <LatitudeDegrees>38.17908950150012969970703125</LatitudeDegrees>
              <LongitudeDegrees>-1.96663663722574710845947265625</LongitudeDegrees>
            </Position>
            <AltitudeMeters>1169.199951171875</AltitudeMeters>
            <DistanceMeters>39400.67485064</DistanceMeters>
          </Trackpoint>
          <Trackpoint>
            <Time>2021-08-28T07:15:32.000Z</Time>
            <Position>
              <LatitudeDegrees>38.17910165525972843170166015625</LatitudeDegrees>
              <LongitudeDegrees>-1.96673177182674407958984375</LongitudeDegrees>
            </Position>
            <AltitudeMeters>1169.5999755859375</AltitudeMeters>
            <DistanceMeters>39409.107634996</DistanceMeters>
          </Trackpoint>
          <Trackpoint>
            <Time>2021-08-28T07:15:34.000Z</Time>
            <Position>
              <LatitudeDegrees>38.17910651676356792449951171875</LatitudeDegrees>
              <LongitudeDegrees>-1.966827325522899627685546875</LongitudeDegrees>
            </Position>
            <AltitudeMeters>1170.199951171875</AltitudeMeters>
            <DistanceMeters>39417.485090106</DistanceMeters>
          </Trackpoint>
          <Trackpoint>
            <Time>2021-08-28T07:15:37.000Z</Time>
            <Position>
              <LatitudeDegrees>38.17912076599895954132080078125</LatitudeDegrees>
              <LongitudeDegrees>-1.96697174571454524993896484375</LongitudeDegrees>
            </Position>
            <AltitudeMeters>1170.800048828125</AltitudeMeters>
            <DistanceMeters>39430.219733519</DistanceMeters>
          </Trackpoint>
          <Trackpoint>
            <Time>2021-08-28T07:15:40.000Z</Time>
            <Position>
              <LatitudeDegrees>38.17912629805505275726318359375</LatitudeDegrees>
              <LongitudeDegrees>-1.9671227037906646728515625</LongitudeDegrees>
            </Position>
            <AltitudeMeters>1171.5999755859375</AltitudeMeters>
            <DistanceMeters>39443.441771182</DistanceMeters>
          </Trackpoint>
          <Trackpoint>
            <Time>2021-08-28T07:15:41.000Z</Time>
            <Position>
              <LatitudeDegrees>38.17912629805505275726318359375</LatitudeDegrees>
              <LongitudeDegrees>-1.9671790301799774169921875</LongitudeDegrees>
            </Position>
            <AltitudeMeters>1171.800048828125</AltitudeMeters>
            <DistanceMeters>39448.368519144</DistanceMeters>
          </Trackpoint>
          <Trackpoint>
            <Time>2021-08-28T07:15:42.000Z</Time>
            <Position>
              <LatitudeDegrees>38.17912638187408447265625</LatitudeDegrees>
              <LongitudeDegrees>-1.96723309345543384552001953125</LongitudeDegrees>
            </Position>
            <AltitudeMeters>1172</AltitudeMeters>
            <DistanceMeters>39453.098902789</DistanceMeters>
          </Trackpoint>
          <Trackpoint>
            <Time>2021-08-28T07:15:47.000Z</Time>
            <Position>
              <LatitudeDegrees>38.1791392900049686431884765625</LatitudeDegrees>
              <LongitudeDegrees>-1.96749511174857616424560546875</LongitudeDegrees>
            </Position>
            <AltitudeMeters>1173.199951171875</AltitudeMeters>
            <DistanceMeters>39476.068650425</DistanceMeters>
          </Trackpoint>
          <Trackpoint>
            <Time>2021-08-28T07:15:50.000Z</Time>
            <Position>
              <LatitudeDegrees>38.17915580235421657562255859375</LatitudeDegrees>
              <LongitudeDegrees>-1.9676465727388858795166015625</LongitudeDegrees>
            </Position>
            <AltitudeMeters>1173.800048828125</AltitudeMeters>
            <DistanceMeters>39489.447183424</DistanceMeters>
          </Trackpoint>
          <Trackpoint>
            <Time>2021-08-28T07:15:52.000Z</Time>
            <Position>
              <LatitudeDegrees>38.1791919283568859100341796875</LatitudeDegrees>
              <LongitudeDegrees>-1.9677448086440563201904296875</LongitudeDegrees>
            </Position>
            <AltitudeMeters>1174.199951171875</AltitudeMeters>
            <DistanceMeters>39498.935590147</DistanceMeters>
          </Trackpoint>
          <Trackpoint>
            <Time>2021-08-28T07:15:55.000Z</Time>
            <Position>
              <LatitudeDegrees>38.17926761694252490997314453125</LatitudeDegrees>
              <LongitudeDegrees>-1.9679020531475543975830078125</LongitudeDegrees>
            </Position>
            <AltitudeMeters>1175</AltitudeMeters>
            <DistanceMeters>39515.067756868</DistanceMeters>
          </Trackpoint>
          <Trackpoint>
            <Time>2021-08-28T07:15:58.000Z</Time>
            <Position>
              <LatitudeDegrees>38.17933618091046810150146484375</LatitudeDegrees>
              <LongitudeDegrees>-1.96805301122367382049560546875</LongitudeDegrees>
            </Position>
            <AltitudeMeters>1175.199951171875</AltitudeMeters>
            <DistanceMeters>39530.321542619</DistanceMeters>
          </Trackpoint>
          <Trackpoint>
            <Time>2021-08-28T07:16:00.000Z</Time>
            <Position>
              <LatitudeDegrees>38.17938010208308696746826171875</LatitudeDegrees>
              <LongitudeDegrees>-1.9681511633098125457763671875</LongitudeDegrees>
            </Position>
            <AltitudeMeters>1175.199951171875</AltitudeMeters>
            <DistanceMeters>39540.202493307</DistanceMeters>
          </Trackpoint>
          <Trackpoint>
            <Time>2021-08-28T07:16:03.000Z</Time>
            <Position>
              <LatitudeDegrees>38.17944900132715702056884765625</LatitudeDegrees>
              <LongitudeDegrees>-1.9683020375669002532958984375</LongitudeDegrees>
            </Position>
            <AltitudeMeters>1175.800048828125</AltitudeMeters>
            <DistanceMeters>39555.468410013</DistanceMeters>
          </Trackpoint>
          <Trackpoint>
            <Time>2021-08-28T07:16:08.000Z</Time>
            <Position>
              <LatitudeDegrees>38.1795560382306575775146484375</LatitudeDegrees>
              <LongitudeDegrees>-1.96857755072414875030517578125</LongitudeDegrees>
            </Position>
            <AltitudeMeters>1176.4000244140625</AltitudeMeters>
            <DistanceMeters>39582.357108393</DistanceMeters>
          </Trackpoint>
          <Trackpoint>
            <Time>2021-08-28T07:16:10.000Z</Time>
            <Position>
              <LatitudeDegrees>38.1796013005077838897705078125</LatitudeDegrees>
              <LongitudeDegrees>-1.96867897175252437591552734375</LongitudeDegrees>
            </Position>
            <AltitudeMeters>1176.4000244140625</AltitudeMeters>
            <DistanceMeters>39592.560871493</DistanceMeters>
          </Trackpoint>
          <Trackpoint>
            <Time>2021-08-28T07:16:17.000Z</Time>
            <Position>
              <LatitudeDegrees>38.1797927431762218475341796875</LatitudeDegrees>
              <LongitudeDegrees>-1.9690647907555103302001953125</LongitudeDegrees>
            </Position>
            <AltitudeMeters>1176.800048828125</AltitudeMeters>
            <DistanceMeters>39632.479557215</DistanceMeters>
          </Trackpoint>
          <Trackpoint>
            <Time>2021-08-28T07:16:20.000Z</Time>
            <Position>
              <LatitudeDegrees>38.1798825971782207489013671875</LatitudeDegrees>
              <LongitudeDegrees>-1.969256736338138580322265625</LongitudeDegrees>
            </Position>
            <AltitudeMeters>1176.5999755859375</AltitudeMeters>
            <DistanceMeters>39652.025515216</DistanceMeters>
          </Trackpoint>
          <Trackpoint>
            <Time>2021-08-28T07:16:22.000Z</Time>
            <Position>
              <LatitudeDegrees>38.17992903292179107666015625</LatitudeDegrees>
              <LongitudeDegrees>-1.9694010727107524871826171875</LongitudeDegrees>
            </Position>
            <AltitudeMeters>1176.4000244140625</AltitudeMeters>
            <DistanceMeters>39665.670371981</DistanceMeters>
          </Trackpoint>
          <Trackpoint>
            <Time>2021-08-28T07:16:24.000Z</Time>
            <Position>
              <LatitudeDegrees>38.17995342426002025604248046875</LatitudeDegrees>
              <LongitudeDegrees>-1.9695563055574893951416015625</LongitudeDegrees>
            </Position>
            <AltitudeMeters>1176.5999755859375</AltitudeMeters>
            <DistanceMeters>39679.520169229</DistanceMeters>
          </Trackpoint>
          <Trackpoint>
            <Time>2021-08-28T07:16:30.000Z</Time>
            <Position>
              <LatitudeDegrees>38.1799908913671970367431640625</LatitudeDegrees>
              <LongitudeDegrees>-1.969968862831592559814453125</LongitudeDegrees>
            </Position>
            <AltitudeMeters>1176.5999755859375</AltitudeMeters>
            <DistanceMeters>39715.855556755</DistanceMeters>
          </Trackpoint>
          <Trackpoint>
            <Time>2021-08-28T07:16:34.000Z</Time>
            <Position>
              <LatitudeDegrees>38.1799887120723724365234375</LatitudeDegrees>
              <LongitudeDegrees>-1.97023347951471805572509765625</LongitudeDegrees>
            </Position>
            <AltitudeMeters>1176.800048828125</AltitudeMeters>
            <DistanceMeters>39739.008557813</DistanceMeters>
          </Trackpoint>
          <Trackpoint>
            <Time>2021-08-28T07:16:36.000Z</Time>
            <Position>
              <LatitudeDegrees>38.17998343147337436676025390625</LatitudeDegrees>
              <LongitudeDegrees>-1.9703723676502704620361328125</LongitudeDegrees>
            </Position>
            <AltitudeMeters>1177.199951171875</AltitudeMeters>
            <DistanceMeters>39751.174204237</DistanceMeters>
          </Trackpoint>
          <Trackpoint>
            <Time>2021-08-28T07:16:37.000Z</Time>
            <Position>
              <LatitudeDegrees>38.179976306855678558349609375</LatitudeDegrees>
              <LongitudeDegrees>-1.9704390875995159149169921875</LongitudeDegrees>
            </Position>
            <AltitudeMeters>1177.199951171875</AltitudeMeters>
            <DistanceMeters>39757.065860528</DistanceMeters>
          </Trackpoint>
          <Trackpoint>
            <Time>2021-08-28T07:16:38.000Z</Time>
            <Position>
              <LatitudeDegrees>38.17996515892446041107177734375</LatitudeDegrees>
              <LongitudeDegrees>-1.97050102986395359039306640625</LongitudeDegrees>
            </Position>
            <AltitudeMeters>1177.5999755859375</AltitudeMeters>
            <DistanceMeters>39762.626344477</DistanceMeters>
          </Trackpoint>
          <Trackpoint>
            <Time>2021-08-28T07:16:40.000Z</Time>
            <Position>
              <LatitudeDegrees>38.179930709302425384521484375</LatitudeDegrees>
              <LongitudeDegrees>-1.97061426937580108642578125</LongitudeDegrees>
            </Position>
            <AltitudeMeters>1178.199951171875</AltitudeMeters>
            <DistanceMeters>39773.249804149</DistanceMeters>
          </Trackpoint>
          <Trackpoint>
            <Time>2021-08-28T07:16:41.000Z</Time>
            <Position>
              <LatitudeDegrees>38.17990933544933795928955078125</LatitudeDegrees>
              <LongitudeDegrees>-1.9706643931567668914794921875</LongitudeDegrees>
            </Position>
            <AltitudeMeters>1178.800048828125</AltitudeMeters>
            <DistanceMeters>39778.239385369</DistanceMeters>
          </Trackpoint>
          <Trackpoint>
            <Time>2021-08-28T07:16:42.000Z</Time>
            <Position>
              <LatitudeDegrees>38.17988251335918903350830078125</LatitudeDegrees>
              <LongitudeDegrees>-1.9707114994525909423828125</LongitudeDegrees>
            </Position>
            <AltitudeMeters>1179</AltitudeMeters>
            <DistanceMeters>39783.328418602</DistanceMeters>
          </Trackpoint>
          <Trackpoint>
            <Time>2021-08-28T07:16:46.000Z</Time>
            <Position>
              <LatitudeDegrees>38.17974303849041461944580078125</LatitudeDegrees>
              <LongitudeDegrees>-1.9708777964115142822265625</LongitudeDegrees>
            </Position>
            <AltitudeMeters>1179.5999755859375</AltitudeMeters>
            <DistanceMeters>39804.604643176</DistanceMeters>
          </Trackpoint>
          <Trackpoint>
            <Time>2021-08-28T07:16:47.000Z</Time>
            <Position>
              <LatitudeDegrees>38.179697357118129730224609375</LatitudeDegrees>
              <LongitudeDegrees>-1.970910318195819854736328125</LongitudeDegrees>
            </Position>
            <AltitudeMeters>1180</AltitudeMeters>
            <DistanceMeters>39810.431570963</DistanceMeters>
          </Trackpoint>
          <Trackpoint>
            <Time>2021-08-28T07:16:50.000Z</Time>
            <Position>
              <LatitudeDegrees>38.17955276928842067718505859375</LatitudeDegrees>
              <LongitudeDegrees>-1.97099774144589900970458984375</LongitudeDegrees>
            </Position>
            <AltitudeMeters>1180.4000244140625</AltitudeMeters>
            <DistanceMeters>39828.250030149</DistanceMeters>
          </Trackpoint>
          <Trackpoint>
            <Time>2021-08-28T07:16:52.000Z</Time>
            <Position>
              <LatitudeDegrees>38.17946107126772403717041015625</LatitudeDegrees>
              <LongitudeDegrees>-1.97105289436876773834228515625</LongitudeDegrees>
            </Position>
            <AltitudeMeters>1180.4000244140625</AltitudeMeters>
            <DistanceMeters>39839.539427782</DistanceMeters>
          </Trackpoint>
          <Trackpoint>
            <Time>2021-08-28T07:16:58.000Z</Time>
            <Position>
              <LatitudeDegrees>38.17921581678092479705810546875</LatitudeDegrees>
              <LongitudeDegrees>-1.9711931236088275909423828125</LongitudeDegrees>
            </Position>
            <AltitudeMeters>1181</AltitudeMeters>
            <DistanceMeters>39869.467261355</DistanceMeters>
          </Trackpoint>
          <Trackpoint>
            <Time>2021-08-28T07:16:59.000Z</Time>
            <Position>
              <LatitudeDegrees>38.17918195389211177825927734375</LatitudeDegrees>
              <LongitudeDegrees>-1.9712103903293609619140625</LongitudeDegrees>
            </Position>
            <AltitudeMeters>1181.199951171875</AltitudeMeters>
            <DistanceMeters>39873.527916423</DistanceMeters>
          </Trackpoint>
          <Trackpoint>
            <Time>2021-08-28T07:17:00.000Z</Time>
            <Position>
              <LatitudeDegrees>38.17914909683167934417724609375</LatitudeDegrees>
              <LongitudeDegrees>-1.971232853829860687255859375</LongitudeDegrees>
            </Position>
            <AltitudeMeters>1181.4000244140625</AltitudeMeters>
            <DistanceMeters>39877.680920879</DistanceMeters>
          </Trackpoint>
          <Trackpoint>
            <Time>2021-08-28T07:17:02.000Z</Time>
            <Position>
              <LatitudeDegrees>38.17908438853919506072998046875</LatitudeDegrees>
              <LongitudeDegrees>-1.971294879913330078125</LongitudeDegrees>
            </Position>
            <AltitudeMeters>1182.199951171875</AltitudeMeters>
            <DistanceMeters>39886.698951066</DistanceMeters>
          </Trackpoint>
          <Trackpoint>
            <Time>2021-08-28T07:17:04.000Z</Time>
            <Position>
              <LatitudeDegrees>38.17903007380664348602294921875</LatitudeDegrees>
              <LongitudeDegrees>-1.9713704846799373626708984375</LongitudeDegrees>
            </Position>
            <AltitudeMeters>1182.800048828125</AltitudeMeters>
            <DistanceMeters>39895.660227192</DistanceMeters>
          </Trackpoint>
          <Trackpoint>
            <Time>2021-08-28T07:17:07.000Z</Time>
            <Position>
              <LatitudeDegrees>38.17896570079028606414794921875</LatitudeDegrees>
              <LongitudeDegrees>-1.9715173356235027313232421875</LongitudeDegrees>
            </Position>
            <AltitudeMeters>1183.4000244140625</AltitudeMeters>
            <DistanceMeters>39910.370964155</DistanceMeters>
          </Trackpoint>
          <Trackpoint>
            <Time>2021-08-28T07:17:09.000Z</Time>
            <Position>
              <LatitudeDegrees>38.17893468774855136871337890625</LatitudeDegrees>
              <LongitudeDegrees>-1.97161783464252948760986328125</LongitudeDegrees>
            </Position>
            <AltitudeMeters>1184.199951171875</AltitudeMeters>
            <DistanceMeters>39919.817403453</DistanceMeters>
          </Trackpoint>
          <Trackpoint>
            <Time>2021-08-28T07:17:10.000Z</Time>
            <Position>
              <LatitudeDegrees>38.17891876213252544403076171875</LatitudeDegrees>
              <LongitudeDegrees>-1.97166728787124156951904296875</LongitudeDegrees>
            </Position>
            <AltitudeMeters>1184.5999755859375</AltitudeMeters>
            <DistanceMeters>39924.4920997</DistanceMeters>
          </Trackpoint>
          <Trackpoint>
            <Time>2021-08-28T07:17:15.000Z</Time>
            <Position>
              <LatitudeDegrees>38.17884852178394794464111328125</LatitudeDegrees>
              <LongitudeDegrees>-1.9719411246478557586669921875</LongitudeDegrees>
            </Position>
            <AltitudeMeters>1185.800048828125</AltitudeMeters>
            <DistanceMeters>39949.694072971</DistanceMeters>
          </Trackpoint>
          <Trackpoint>
            <Time>2021-08-28T07:17:17.000Z</Time>
            <Position>
              <LatitudeDegrees>38.1788154132664203643798828125</LatitudeDegrees>
              <LongitudeDegrees>-1.9720477424561977386474609375</LongitudeDegrees>
            </Position>
            <AltitudeMeters>1186.5999755859375</AltitudeMeters>
            <DistanceMeters>39959.724231577</DistanceMeters>
          </Trackpoint>
          <Trackpoint>
            <Time>2021-08-28T07:17:19.000Z</Time>
            <Position>
              <LatitudeDegrees>38.17879236303269863128662109375</LatitudeDegrees>
              <LongitudeDegrees>-1.972150169312953948974609375</LongitudeDegrees>
            </Position>
            <AltitudeMeters>1187</AltitudeMeters>
            <DistanceMeters>39969.045572443</DistanceMeters>
          </Trackpoint>
          <Trackpoint>
            <Time>2021-08-28T07:17:20.000Z</Time>
            <Position>
              <LatitudeDegrees>38.17877962253987789154052734375</LatitudeDegrees>
              <LongitudeDegrees>-1.9721947610378265380859375</LongitudeDegrees>
            </Position>
            <AltitudeMeters>1187.4000244140625</AltitudeMeters>
            <DistanceMeters>39973.197489582</DistanceMeters>
          </Trackpoint>
          <Trackpoint>
            <Time>2021-08-28T07:17:23.000Z</Time>
            <Position>
              <LatitudeDegrees>38.17874123342335224151611328125</LatitudeDegrees>
              <LongitudeDegrees>-1.972359716892242431640625</LongitudeDegrees>
            </Position>
            <AltitudeMeters>1187.800048828125</AltitudeMeters>
            <DistanceMeters>39988.248953226</DistanceMeters>
          </Trackpoint>
          <Trackpoint>
            <Time>2021-08-28T07:17:25.000Z</Time>
            <Position>
              <LatitudeDegrees>38.17871642298996448516845703125</LatitudeDegrees>
              <LongitudeDegrees>-1.97247278876602649688720703125</LongitudeDegrees>
            </Position>
            <AltitudeMeters>1188</AltitudeMeters>
            <DistanceMeters>39998.519754218</DistanceMeters>
          </Trackpoint>
          <Trackpoint>
            <Time>2021-08-28T07:17:30.000Z</Time>
            <Position>
              <LatitudeDegrees>38.17867753095924854278564453125</LatitudeDegrees>
              <LongitudeDegrees>-1.9727526605129241943359375</LongitudeDegrees>
            </Position>
            <AltitudeMeters>1188.5999755859375</AltitudeMeters>
            <DistanceMeters>40023.386268139</DistanceMeters>
          </Trackpoint>
          <Trackpoint>
            <Time>2021-08-28T07:17:34.000Z</Time>
            <Position>
              <LatitudeDegrees>38.17866026423871517181396484375</LatitudeDegrees>
              <LongitudeDegrees>-1.97299263440072536468505859375</LongitudeDegrees>
            </Position>
            <AltitudeMeters>1189.199951171875</AltitudeMeters>
            <DistanceMeters>40044.470209971</DistanceMeters>
          </Trackpoint>
          <Trackpoint>
            <Time>2021-08-28T07:17:36.000Z</Time>
            <Position>
              <LatitudeDegrees>38.17865121178328990936279296875</LatitudeDegrees>
              <LongitudeDegrees>-1.973105706274509429931640625</LongitudeDegrees>
            </Position>
            <AltitudeMeters>1189.5999755859375</AltitudeMeters>
            <DistanceMeters>40054.414927022</DistanceMeters>
          </Trackpoint>
          <Trackpoint>
            <Time>2021-08-28T07:17:37.000Z</Time>
            <Position>
              <LatitudeDegrees>38.17864366807043552398681640625</LatitudeDegrees>
              <LongitudeDegrees>-1.97316027246415615081787109375</LongitudeDegrees>
            </Position>
            <AltitudeMeters>1190</AltitudeMeters>
            <DistanceMeters>40059.262221</DistanceMeters>
          </Trackpoint>
          <Trackpoint>
            <Time>2021-08-28T07:17:38.000Z</Time>
            <Position>
              <LatitudeDegrees>38.17863394506275653839111328125</LatitudeDegrees>
              <LongitudeDegrees>-1.973210312426090240478515625</LongitudeDegrees>
            </Position>
            <AltitudeMeters>1190.4000244140625</AltitudeMeters>
            <DistanceMeters>40063.771736733</DistanceMeters>
          </Trackpoint>
          <Trackpoint>
            <Time>2021-08-28T07:17:40.000Z</Time>
            <Position>
              <LatitudeDegrees>38.17860997281968593597412109375</LatitudeDegrees>
              <LongitudeDegrees>-1.97331064380705356597900390625</LongitudeDegrees>
            </Position>
            <AltitudeMeters>1191.199951171875</AltitudeMeters>
            <DistanceMeters>40072.946613986</DistanceMeters>
          </Trackpoint>
          <Trackpoint>
            <Time>2021-08-28T07:17:42.000Z</Time>
            <Position>
              <LatitudeDegrees>38.17858382128179073333740234375</LatitudeDegrees>
              <LongitudeDegrees>-1.973416842520236968994140625</LongitudeDegrees>
            </Position>
            <AltitudeMeters>1191.800048828125</AltitudeMeters>
            <DistanceMeters>40082.683490929</DistanceMeters>
          </Trackpoint>
          <Trackpoint>
            <Time>2021-08-28T07:17:44.000Z</Time>
            <Position>
              <LatitudeDegrees>38.17856387235224246978759765625</LatitudeDegrees>
              <LongitudeDegrees>-1.9735135696828365325927734375</LongitudeDegrees>
            </Position>
            <AltitudeMeters>1192.199951171875</AltitudeMeters>
            <DistanceMeters>40091.432659919</DistanceMeters>
          </Trackpoint>
          <Trackpoint>
            <Time>2021-08-28T07:17:47.000Z</Time>
            <Position>
              <LatitudeDegrees>38.178523890674114227294921875</LatitudeDegrees>
              <LongitudeDegrees>-1.97365899570286273956298828125</LongitudeDegrees>
            </Position>
            <AltitudeMeters>1193</AltitudeMeters>
            <DistanceMeters>40104.91172287</DistanceMeters>
          </Trackpoint>
          <Trackpoint>
            <Time>2021-08-28T07:17:50.000Z</Time>
            <Position>
              <LatitudeDegrees>38.1784759461879730224609375</LatitudeDegrees>
              <LongitudeDegrees>-1.97382026351988315582275390625</LongitudeDegrees>
            </Position>
            <AltitudeMeters>1193.800048828125</AltitudeMeters>
            <DistanceMeters>40119.996746118</DistanceMeters>
          </Trackpoint>
          <Trackpoint>
            <Time>2021-08-28T07:17:51.000Z</Time>
            <Position>
              <LatitudeDegrees>38.17845574580132961273193359375</LatitudeDegrees>
              <LongitudeDegrees>-1.9738791882991790771484375</LongitudeDegrees>
            </Position>
            <AltitudeMeters>1194.4000244140625</AltitudeMeters>
            <DistanceMeters>40125.620208371</DistanceMeters>
          </Trackpoint>
          <Trackpoint>
            <Time>2021-08-28T07:17:53.000Z</Time>
            <Position>
              <LatitudeDegrees>38.1783981621265411376953125</LatitudeDegrees>
              <LongitudeDegrees>-1.973981447517871856689453125</LongitudeDegrees>
            </Position>
            <AltitudeMeters>1195.199951171875</AltitudeMeters>
            <DistanceMeters>40136.62609068</DistanceMeters>
          </Trackpoint>
          <Trackpoint>
            <Time>2021-08-28T07:17:54.000Z</Time>
            <Position>
              <LatitudeDegrees>38.17836237139999866485595703125</LatitudeDegrees>
              <LongitudeDegrees>-1.97401992045342922210693359375</LongitudeDegrees>
            </Position>
            <AltitudeMeters>1195.4000244140625</AltitudeMeters>
            <DistanceMeters>40141.843048645</DistanceMeters>
          </Trackpoint>
          <Trackpoint>
            <Time>2021-08-28T07:17:56.000Z</Time>
            <Position>
              <LatitudeDegrees>38.178284168243408203125</LatitudeDegrees>
              <LongitudeDegrees>-1.9740939326584339141845703125</LongitudeDegrees>
            </Position>
            <AltitudeMeters>1195.5999755859375</AltitudeMeters>
            <DistanceMeters>40152.692336476</DistanceMeters>
          </Trackpoint>
          <Trackpoint>
            <Time>2021-08-28T07:17:57.000Z</Time>
            <Position>
              <LatitudeDegrees>38.17824686877429485321044921875</LatitudeDegrees>
              <LongitudeDegrees>-1.97412393987178802490234375</LongitudeDegrees>
            </Position>
            <AltitudeMeters>1195.800048828125</AltitudeMeters>
            <DistanceMeters>40157.604399613</DistanceMeters>
          </Trackpoint>
          <Trackpoint>
            <Time>2021-08-28T07:18:00.000Z</Time>
            <Position>
              <LatitudeDegrees>38.178122229874134063720703125</LatitudeDegrees>
              <LongitudeDegrees>-1.97420968674123287200927734375</LongitudeDegrees>
            </Position>
            <AltitudeMeters>1196</AltitudeMeters>
            <DistanceMeters>40173.375399124</DistanceMeters>
          </Trackpoint>
          <Trackpoint>
            <Time>2021-08-28T07:18:02.000Z</Time>
            <Position>
              <LatitudeDegrees>38.17803832702338695526123046875</LatitudeDegrees>
              <LongitudeDegrees>-1.9742669351398944854736328125</LongitudeDegrees>
            </Position>
            <AltitudeMeters>1196.199951171875</AltitudeMeters>
            <DistanceMeters>40183.972049565</DistanceMeters>
          </Trackpoint>
          <Trackpoint>
            <Time>2021-08-28T07:18:04.000Z</Time>
            <Position>
              <LatitudeDegrees>38.1779654882848262786865234375</LatitudeDegrees>
              <LongitudeDegrees>-1.97431043721735477447509765625</LongitudeDegrees>
            </Position>
            <AltitudeMeters>1196.4000244140625</AltitudeMeters>
            <DistanceMeters>40192.927781751</DistanceMeters>
          </Trackpoint>
          <Trackpoint>
            <Time>2021-08-28T07:18:08.000Z</Time>
            <Position>
              <LatitudeDegrees>38.177818469703197479248046875</LatitudeDegrees>
              <LongitudeDegrees>-1.97440012358129024505615234375</LongitudeDegrees>
            </Position>
            <AltitudeMeters>1197.4000244140625</AltitudeMeters>
            <DistanceMeters>40211.075147618</DistanceMeters>
          </Trackpoint>
          <Trackpoint>
            <Time>2021-08-28T07:18:10.000Z</Time>
            <Position>
              <LatitudeDegrees>38.17774437367916107177734375</LatitudeDegrees>
              <LongitudeDegrees>-1.9744558632373809814453125</LongitudeDegrees>
            </Position>
            <AltitudeMeters>1198</AltitudeMeters>
            <DistanceMeters>40220.656366597</DistanceMeters>
          </Trackpoint>
          <Trackpoint>
            <Time>2021-08-28T07:18:11.000Z</Time>
            <Position>
              <LatitudeDegrees>38.1777063198387622833251953125</LatitudeDegrees>
              <LongitudeDegrees>-1.97449048049747943878173828125</LongitudeDegrees>
            </Position>
            <AltitudeMeters>1198</AltitudeMeters>
            <DistanceMeters>40225.863795863</DistanceMeters>
          </Trackpoint>
          <Trackpoint>
            <Time>2021-08-28T07:18:12.000Z</Time>
            <Position>
              <LatitudeDegrees>38.17766793072223663330078125</LatitudeDegrees>
              <LongitudeDegrees>-1.97452769614756107330322265625</LongitudeDegrees>
            </Position>
            <AltitudeMeters>1198.5999755859375</AltitudeMeters>
            <DistanceMeters>40231.235957841</DistanceMeters>
          </Trackpoint>
          <Trackpoint>
            <Time>2021-08-28T07:18:15.000Z</Time>
            <Position>
              <LatitudeDegrees>38.17756609059870243072509765625</LatitudeDegrees>
              <LongitudeDegrees>-1.97463884018361568450927734375</LongitudeDegrees>
            </Position>
            <AltitudeMeters>1200</AltitudeMeters>
            <DistanceMeters>40246.170578297</DistanceMeters>
          </Trackpoint>
          <Trackpoint>
            <Time>2021-08-28T07:18:18.000Z</Time>
            <Position>
              <LatitudeDegrees>38.17748663015663623809814453125</LatitudeDegrees>
              <LongitudeDegrees>-1.9747483916580677032470703125</LongitudeDegrees>
            </Position>
            <AltitudeMeters>1201</AltitudeMeters>
            <DistanceMeters>40259.213146297</DistanceMeters>
          </Trackpoint>
          <Trackpoint>
            <Time>2021-08-28T07:18:20.000Z</Time>
            <Position>
              <LatitudeDegrees>38.17744798958301544189453125</LatitudeDegrees>
              <LongitudeDegrees>-1.9748348928987979888916015625</LongitudeDegrees>
            </Position>
            <AltitudeMeters>1201.5999755859375</AltitudeMeters>
            <DistanceMeters>40267.917821561</DistanceMeters>
          </Trackpoint>
          <Trackpoint>
            <Time>2021-08-28T07:18:22.000Z</Time>
            <Position>
              <LatitudeDegrees>38.17741236649453639984130859375</LatitudeDegrees>
              <LongitudeDegrees>-1.974940001964569091796875</LongitudeDegrees>
            </Position>
            <AltitudeMeters>1201.5999755859375</AltitudeMeters>
            <DistanceMeters>40277.9326635</DistanceMeters>
          </Trackpoint>
          <Trackpoint>
            <Time>2021-08-28T07:18:24.000Z</Time>
            <Position>
              <LatitudeDegrees>38.177389316260814666748046875</LatitudeDegrees>
              <LongitudeDegrees>-1.97506296448409557342529296875</LongitudeDegrees>
            </Position>
            <AltitudeMeters>1201.800048828125</AltitudeMeters>
            <DistanceMeters>40288.993381183</DistanceMeters>
          </Trackpoint>
          <Trackpoint>
            <Time>2021-08-28T07:18:29.000Z</Time>
            <Position>
              <LatitudeDegrees>38.1773519329726696014404296875</LatitudeDegrees>
              <LongitudeDegrees>-1.97537275962531566619873046875</LongitudeDegrees>
            </Position>
            <AltitudeMeters>1202.199951171875</AltitudeMeters>
            <DistanceMeters>40316.416451147</DistanceMeters>
          </Trackpoint>
          <Trackpoint>
            <Time>2021-08-28T07:18:30.000Z</Time>
            <Position>
              <LatitudeDegrees>38.177345730364322662353515625</LatitudeDegrees>
              <LongitudeDegrees>-1.97544048540294170379638671875</LongitudeDegrees>
            </Position>
            <AltitudeMeters>1202.4000244140625</AltitudeMeters>
            <DistanceMeters>40322.382736536</DistanceMeters>
          </Trackpoint>
          <Trackpoint>
            <Time>2021-08-28T07:18:31.000Z</Time>
            <Position>
              <LatitudeDegrees>38.17733793519437313079833984375</LatitudeDegrees>
              <LongitudeDegrees>-1.97550988756120204925537109375</LongitudeDegrees>
            </Position>
            <AltitudeMeters>1202.5999755859375</AltitudeMeters>
            <DistanceMeters>40328.516929925</DistanceMeters>
          </Trackpoint>
          <Trackpoint>
            <Time>2021-08-28T07:18:35.000Z</Time>
            <Position>
              <LatitudeDegrees>38.17729468457400798797607421875</LatitudeDegrees>
              <LongitudeDegrees>-1.975786574184894561767578125</LongitudeDegrees>
            </Position>
            <AltitudeMeters>1203.199951171875</AltitudeMeters>
            <DistanceMeters>40353.199741708</DistanceMeters>
          </Trackpoint>
          <Trackpoint>
            <Time>2021-08-28T07:18:38.000Z</Time>
            <Position>
              <LatitudeDegrees>38.1772671081125736236572265625</LatitudeDegrees>
              <LongitudeDegrees>-1.97598765604197978973388671875</LongitudeDegrees>
            </Position>
            <AltitudeMeters>1203.5999755859375</AltitudeMeters>
            <DistanceMeters>40371.058697445</DistanceMeters>
          </Trackpoint>
          <Trackpoint>
            <Time>2021-08-28T07:18:40.000Z</Time>
            <Position>
              <LatitudeDegrees>38.177246153354644775390625</LatitudeDegrees>
              <LongitudeDegrees>-1.97611774317920207977294921875</LongitudeDegrees>
            </Position>
            <AltitudeMeters>1204</AltitudeMeters>
            <DistanceMeters>40382.676854902</DistanceMeters>
          </Trackpoint>
          <Trackpoint>
            <Time>2021-08-28T07:18:42.000Z</Time>
            <Position>
              <LatitudeDegrees>38.17722947336733341217041015625</LatitudeDegrees>
              <LongitudeDegrees>-1.97624514810740947723388671875</LongitudeDegrees>
            </Position>
            <AltitudeMeters>1204.4000244140625</AltitudeMeters>
            <DistanceMeters>40393.977445199</DistanceMeters>
          </Trackpoint>
          <Trackpoint>
            <Time>2021-08-28T07:18:47.000Z</Time>
            <Position>
              <LatitudeDegrees>38.17718873731791973114013671875</LatitudeDegrees>
              <LongitudeDegrees>-1.97656399570405483245849609375</LongitudeDegrees>
            </Position>
            <AltitudeMeters>1205.199951171875</AltitudeMeters>
            <DistanceMeters>40422.241144223</DistanceMeters>
          </Trackpoint>
          <Trackpoint>
            <Time>2021-08-28T07:18:48.000Z</Time>
            <Position>
              <LatitudeDegrees>38.17717884667217731475830078125</LatitudeDegrees>
              <LongitudeDegrees>-1.976632811129093170166015625</LongitudeDegrees>
            </Position>
            <AltitudeMeters>1205.4000244140625</AltitudeMeters>
            <DistanceMeters>40428.362812071</DistanceMeters>
          </Trackpoint>
          <Trackpoint>
            <Time>2021-08-28T07:18:50.000Z</Time>
            <Position>
              <LatitudeDegrees>38.1771598197519779205322265625</LatitudeDegrees>
              <LongitudeDegrees>-1.97677262127399444580078125</LongitudeDegrees>
            </Position>
            <AltitudeMeters>1205.800048828125</AltitudeMeters>
            <DistanceMeters>40440.777534974</DistanceMeters>
          </Trackpoint>
          <Trackpoint>
            <Time>2021-08-28T07:18:54.000Z</Time>
            <Position>
              <LatitudeDegrees>38.17713081836700439453125</LatitudeDegrees>
              <LongitudeDegrees>-1.97702533565461635589599609375</LongitudeDegrees>
            </Position>
            <AltitudeMeters>1206</AltitudeMeters>
            <DistanceMeters>40463.123163339</DistanceMeters>
          </Trackpoint>
          <Trackpoint>
            <Time>2021-08-28T07:18:58.000Z</Time>
            <Position>
              <LatitudeDegrees>38.1770961172878742218017578125</LatitudeDegrees>
              <LongitudeDegrees>-1.9772708415985107421875</LongitudeDegrees>
            </Position>
            <AltitudeMeters>1206.5999755859375</AltitudeMeters>
            <DistanceMeters>40484.948298675</DistanceMeters>
          </Trackpoint>
          <Trackpoint>
            <Time>2021-08-28T07:19:00.000Z</Time>
            <Position>
              <LatitudeDegrees>38.177082203328609466552734375</LatitudeDegrees>
              <LongitudeDegrees>-1.9773896969854831695556640625</LongitudeDegrees>
            </Position>
            <AltitudeMeters>1207.199951171875</AltitudeMeters>
            <DistanceMeters>40495.462393778</DistanceMeters>
          </Trackpoint>
          <Trackpoint>
            <Time>2021-08-28T07:19:03.000Z</Time>
            <Position>
              <LatitudeDegrees>38.17706183530390262603759765625</LatitudeDegrees>
              <LongitudeDegrees>-1.97754786349833011627197265625</LongitudeDegrees>
            </Position>
            <AltitudeMeters>1207.800048828125</AltitudeMeters>
            <DistanceMeters>40509.485516637</DistanceMeters>
          </Trackpoint>
          <Trackpoint>
            <Time>2021-08-28T07:19:04.000Z</Time>
            <Position>
              <LatitudeDegrees>38.1770532019436359405517578125</LatitudeDegrees>
              <LongitudeDegrees>-1.9775938801467418670654296875</LongitudeDegrees>
            </Position>
            <AltitudeMeters>1207.800048828125</AltitudeMeters>
            <DistanceMeters>40513.625454449</DistanceMeters>
          </Trackpoint>
          <Trackpoint>
            <Time>2021-08-28T07:19:10.000Z</Time>
            <Position>
              <LatitudeDegrees>38.1770112924277782440185546875</LatitudeDegrees>
              <LongitudeDegrees>-1.97784273885190486907958984375</LongitudeDegrees>
            </Position>
            <AltitudeMeters>1208.199951171875</AltitudeMeters>
            <DistanceMeters>40535.893358654</DistanceMeters>
          </Trackpoint>
          <Trackpoint>
            <Time>2021-08-28T07:19:11.000Z</Time>
            <Position>
              <LatitudeDegrees>38.1770025752484798431396484375</LatitudeDegrees>
              <LongitudeDegrees>-1.97788783349096775054931640625</LongitudeDegrees>
            </Position>
            <AltitudeMeters>1208.4000244140625</AltitudeMeters>
            <DistanceMeters>40539.956236912</DistanceMeters>
          </Trackpoint>
          <Trackpoint>
            <Time>2021-08-28T07:19:14.000Z</Time>
            <Position>
              <LatitudeDegrees>38.1769650243222713470458984375</LatitudeDegrees>
              <LongitudeDegrees>-1.97805144824087619781494140625</LongitudeDegrees>
            </Position>
            <AltitudeMeters>1208.199951171875</AltitudeMeters>
            <DistanceMeters>40554.869679936</DistanceMeters>
          </Trackpoint>
          <Trackpoint>
            <Time>2021-08-28T07:19:15.000Z</Time>
            <Position>
              <LatitudeDegrees>38.17695119418203830718994140625</LatitudeDegrees>
              <LongitudeDegrees>-1.9781192578375339508056640625</LongitudeDegrees>
            </Position>
            <AltitudeMeters>1208.199951171875</AltitudeMeters>
            <DistanceMeters>40560.99871885</DistanceMeters>
          </Trackpoint>
          <Trackpoint>
            <Time>2021-08-28T07:19:19.000Z</Time>
            <Position>
              <LatitudeDegrees>38.17690760828554630279541015625</LatitudeDegrees>
              <LongitudeDegrees>-1.978335343301296234130859375</LongitudeDegrees>
            </Position>
            <AltitudeMeters>1207.199951171875</AltitudeMeters>
            <DistanceMeters>40580.517862922</DistanceMeters>
          </Trackpoint>
          <Trackpoint>
            <Time>2021-08-28T07:19:20.000Z</Time>
            <Position>
              <LatitudeDegrees>38.17690392024815082550048828125</LatitudeDegrees>
              <LongitudeDegrees>-1.9783562980592250823974609375</LongitudeDegrees>
            </Position>
            <AltitudeMeters>1207</AltitudeMeters>
            <DistanceMeters>40582.396894558</DistanceMeters>
          </Trackpoint>
          <Trackpoint>
            <Time>2021-08-28T07:19:21.000Z</Time>
            <Position>
              <LatitudeDegrees>38.17690174095332622528076171875</LatitudeDegrees>
              <LongitudeDegrees>-1.9783633388578891754150390625</LongitudeDegrees>
            </Position>
            <AltitudeMeters>1206.5999755859375</AltitudeMeters>
            <DistanceMeters>40583.055258948</DistanceMeters>
          </Trackpoint>
          <Trackpoint>
            <Time>2021-08-28T07:19:22.000Z</Time>
            <Position>
              <LatitudeDegrees>38.1769014894962310791015625</LatitudeDegrees>
              <LongitudeDegrees>-1.97836317121982574462890625</LongitudeDegrees>
            </Position>
            <AltitudeMeters>1206.199951171875</AltitudeMeters>
            <DistanceMeters>40583.055258948</DistanceMeters>
          </Trackpoint>
          <Trackpoint>
            <Time>2021-08-28T07:19:23.000Z</Time>
            <Position>
              <LatitudeDegrees>38.17690190859138965606689453125</LatitudeDegrees>
              <LongitudeDegrees>-1.9783599860966205596923828125</LongitudeDegrees>
            </Position>
            <AltitudeMeters>1205.800048828125</AltitudeMeters>
            <DistanceMeters>40583.355759804</DistanceMeters>
          </Trackpoint>
          <Trackpoint>
            <Time>2021-08-28T07:20:57.000Z</Time>
            <Position>
              <LatitudeDegrees>38.17689905874431133270263671875</LatitudeDegrees>
              <LongitudeDegrees>-1.97840533219277858734130859375</LongitudeDegrees>
            </Position>
            <AltitudeMeters>1205.4000244140625</AltitudeMeters>
            <DistanceMeters>40587.335553025</DistanceMeters>
          </Trackpoint>
          <Trackpoint>
            <Time>2021-08-28T07:20:58.000Z</Time>
            <Position>
              <LatitudeDegrees>38.176892101764678955078125</LatitudeDegrees>
              <LongitudeDegrees>-1.97843316011130809783935546875</LongitudeDegrees>
            </Position>
            <AltitudeMeters>1205.5999755859375</AltitudeMeters>
            <DistanceMeters>40589.890693974</DistanceMeters>
          </Trackpoint>
          <Trackpoint>
            <Time>2021-08-28T07:21:00.000Z</Time>
            <Position>
              <LatitudeDegrees>38.1768744997680187225341796875</LatitudeDegrees>
              <LongitudeDegrees>-1.9785135425627231597900390625</LongitudeDegrees>
            </Position>
            <AltitudeMeters>1205.800048828125</AltitudeMeters>
            <DistanceMeters>40597.191071441</DistanceMeters>
          </Trackpoint>
          <Trackpoint>
            <Time>2021-08-28T07:21:01.000Z</Time>
            <Position>
              <LatitudeDegrees>38.17686301656067371368408203125</LatitudeDegrees>
              <LongitudeDegrees>-1.97856299579143524169921875</LongitudeDegrees>
            </Position>
            <AltitudeMeters>1205.800048828125</AltitudeMeters>
            <DistanceMeters>40601.701588289</DistanceMeters>
          </Trackpoint>
          <Trackpoint>
            <Time>2021-08-28T07:21:06.000Z</Time>
            <Position>
              <LatitudeDegrees>38.1768104620277881622314453125</LatitudeDegrees>
              <LongitudeDegrees>-1.9788826815783977508544921875</LongitudeDegrees>
            </Position>
            <AltitudeMeters>1205.199951171875</AltitudeMeters>
            <DistanceMeters>40630.277623927</DistanceMeters>
          </Trackpoint>
          <Trackpoint>
            <Time>2021-08-28T07:21:10.000Z</Time>
            <Position>
              <LatitudeDegrees>38.17674801684916019439697265625</LatitudeDegrees>
              <LongitudeDegrees>-1.9792276807129383087158203125</LongitudeDegrees>
            </Position>
            <AltitudeMeters>1205</AltitudeMeters>
            <DistanceMeters>40661.253417745</DistanceMeters>
          </Trackpoint>
          <Trackpoint>
            <Time>2021-08-28T07:21:11.000Z</Time>
            <Position>
              <LatitudeDegrees>38.176731504499912261962890625</LatitudeDegrees>
              <LongitudeDegrees>-1.9793171994388103485107421875</LongitudeDegrees>
            </Position>
            <AltitudeMeters>1205</AltitudeMeters>
            <DistanceMeters>40669.298763477</DistanceMeters>
          </Trackpoint>
          <Trackpoint>
            <Time>2021-08-28T07:21:15.000Z</Time>
            <Position>
              <LatitudeDegrees>38.17665648646652698516845703125</LatitudeDegrees>
              <LongitudeDegrees>-1.9796888530254364013671875</LongitudeDegrees>
            </Position>
            <AltitudeMeters>1204</AltitudeMeters>
            <DistanceMeters>40702.871581973</DistanceMeters>
          </Trackpoint>
          <Trackpoint>
            <Time>2021-08-28T07:21:16.000Z</Time>
            <Position>
              <LatitudeDegrees>38.17664776928722858428955078125</LatitudeDegrees>
              <LongitudeDegrees>-1.97979069314897060394287109375</LongitudeDegrees>
            </Position>
            <AltitudeMeters>1203.800048828125</AltitudeMeters>
            <DistanceMeters>40711.834369488</DistanceMeters>
          </Trackpoint>
          <Trackpoint>
            <Time>2021-08-28T07:21:17.000Z</Time>
            <Position>
              <LatitudeDegrees>38.17664642818272113800048828125</LatitudeDegrees>
              <LongitudeDegrees>-1.97989580221474170684814453125</LongitudeDegrees>
            </Position>
            <AltitudeMeters>1203.5999755859375</AltitudeMeters>
            <DistanceMeters>40721.032346777</DistanceMeters>
          </Trackpoint>
          <Trackpoint>
            <Time>2021-08-28T07:21:20.000Z</Time>
            <Position>
              <LatitudeDegrees>38.17668699659407138824462890625</LatitudeDegrees>
              <LongitudeDegrees>-1.9802150689065456390380859375</LongitudeDegrees>
            </Position>
            <AltitudeMeters>1202.5999755859375</AltitudeMeters>
            <DistanceMeters>40749.329413206</DistanceMeters>
          </Trackpoint>
          <Trackpoint>
            <Time>2021-08-28T07:21:22.000Z</Time>
            <Position>
              <LatitudeDegrees>38.1767437420785427093505859375</LatitudeDegrees>
              <LongitudeDegrees>-1.9804371893405914306640625</LongitudeDegrees>
            </Position>
            <AltitudeMeters>1201.800048828125</AltitudeMeters>
            <DistanceMeters>40769.764576165</DistanceMeters>
          </Trackpoint>
          <Trackpoint>
            <Time>2021-08-28T07:21:23.000Z</Time>
            <Position>
              <LatitudeDegrees>38.17677685059607028961181640625</LatitudeDegrees>
              <LongitudeDegrees>-1.9805490039288997650146484375</LongitudeDegrees>
            </Position>
            <AltitudeMeters>1201.5999755859375</AltitudeMeters>
            <DistanceMeters>40780.218810484</DistanceMeters>
          </Trackpoint>
          <Trackpoint>
            <Time>2021-08-28T07:21:25.000Z</Time>
            <Position>
              <LatitudeDegrees>38.17685144953429698944091796875</LatitudeDegrees>
              <LongitudeDegrees>-1.9807783327996730804443359375</LongitudeDegrees>
            </Position>
            <AltitudeMeters>1200.800048828125</AltitudeMeters>
            <DistanceMeters>40801.934026161</DistanceMeters>
          </Trackpoint>
          <Trackpoint>
            <Time>2021-08-28T07:21:26.000Z</Time>
            <Position>
              <LatitudeDegrees>38.17689000628888607025146484375</LatitudeDegrees>
              <LongitudeDegrees>-1.980897523462772369384765625</LongitudeDegrees>
            </Position>
            <AltitudeMeters>1200.199951171875</AltitudeMeters>
            <DistanceMeters>40813.210218179</DistanceMeters>
          </Trackpoint>
          <Trackpoint>
            <Time>2021-08-28T07:21:28.000Z</Time>
            <Position>
              <LatitudeDegrees>38.17697047255933284759521484375</LatitudeDegrees>
              <LongitudeDegrees>-1.98114328086376190185546875</LongitudeDegrees>
            </Position>
            <AltitudeMeters>1199</AltitudeMeters>
            <DistanceMeters>40836.503590051</DistanceMeters>
          </Trackpoint>
          <Trackpoint>
            <Time>2021-08-28T07:21:30.000Z</Time>
            <Position>
              <LatitudeDegrees>38.17705462686717510223388671875</LatitudeDegrees>
              <LongitudeDegrees>-1.98139884509146213531494140625</LongitudeDegrees>
            </Position>
            <AltitudeMeters>1198.199951171875</AltitudeMeters>
            <DistanceMeters>40860.746765492</DistanceMeters>
          </Trackpoint>
          <Trackpoint>
            <Time>2021-08-28T07:21:31.000Z</Time>
            <Position>
              <LatitudeDegrees>38.17709519527852535247802734375</LatitudeDegrees>
              <LongitudeDegrees>-1.9815296865999698638916015625</LongitudeDegrees>
            </Position>
            <AltitudeMeters>1197.800048828125</AltitudeMeters>
            <DistanceMeters>40873.053367058</DistanceMeters>
          </Trackpoint>
          <Trackpoint>
            <Time>2021-08-28T07:21:33.000Z</Time>
            <Position>
              <LatitudeDegrees>38.17718052305281162261962890625</LatitudeDegrees>
              <LongitudeDegrees>-1.9817958958446979522705078125</LongitudeDegrees>
            </Position>
            <AltitudeMeters>1196.800048828125</AltitudeMeters>
            <DistanceMeters>40898.207281193</DistanceMeters>
          </Trackpoint>
          <Trackpoint>
            <Time>2021-08-28T07:21:36.000Z</Time>
            <Position>
              <LatitudeDegrees>38.1773428805172443389892578125</LatitudeDegrees>
              <LongitudeDegrees>-1.9821858219802379608154296875</LongitudeDegrees>
            </Position>
            <AltitudeMeters>1195.800048828125</AltitudeMeters>
            <DistanceMeters>40936.814098695</DistanceMeters>
          </Trackpoint>
          <Trackpoint>
            <Time>2021-08-28T07:21:37.000Z</Time>
            <Position>
              <LatitudeDegrees>38.1774153001606464385986328125</LatitudeDegrees>
              <LongitudeDegrees>-1.98230828158557415008544921875</LongitudeDegrees>
            </Position>
            <AltitudeMeters>1195</AltitudeMeters>
            <DistanceMeters>40950.221960637</DistanceMeters>
          </Trackpoint>
          <Trackpoint>
            <Time>2021-08-28T07:21:39.000Z</Time>
            <Position>
              <LatitudeDegrees>38.17757531069219112396240234375</LatitudeDegrees>
              <LongitudeDegrees>-1.98253325186669826507568359375</LongitudeDegrees>
            </Position>
            <AltitudeMeters>1193.199951171875</AltitudeMeters>
            <DistanceMeters>40976.766750992</DistanceMeters>
          </Trackpoint>
          <Trackpoint>
            <Time>2021-08-28T07:21:40.000Z</Time>
            <Position>
              <LatitudeDegrees>38.17765829153358936309814453125</LatitudeDegrees>
              <LongitudeDegrees>-1.9826417975127696990966796875</LongitudeDegrees>
            </Position>
            <AltitudeMeters>1192.4000244140625</AltitudeMeters>
            <DistanceMeters>40990.014715582</DistanceMeters>
          </Trackpoint>
          <Trackpoint>
            <Time>2021-08-28T07:21:41.000Z</Time>
            <Position>
              <LatitudeDegrees>38.17774076946079730987548828125</LatitudeDegrees>
              <LongitudeDegrees>-1.98275621049106121063232421875</LongitudeDegrees>
            </Position>
            <AltitudeMeters>1191.800048828125</AltitudeMeters>
            <DistanceMeters>41003.597221306</DistanceMeters>
          </Trackpoint>
          <Trackpoint>
            <Time>2021-08-28T07:21:43.000Z</Time>
            <Position>
              <LatitudeDegrees>38.1778984330594539642333984375</LatitudeDegrees>
              <LongitudeDegrees>-1.9829797558486461639404296875</LongitudeDegrees>
            </Position>
            <AltitudeMeters>1190.5999755859375</AltitudeMeters>
            <DistanceMeters>41029.874470503</DistanceMeters>
          </Trackpoint>
          <Trackpoint>
            <Time>2021-08-28T07:21:45.000Z</Time>
            <Position>
              <LatitudeDegrees>38.178056180477142333984375</LatitudeDegrees>
              <LongitudeDegrees>-1.98320061899721622467041015625</LongitudeDegrees>
            </Position>
            <AltitudeMeters>1189.800048828125</AltitudeMeters>
            <DistanceMeters>41055.983827655</DistanceMeters>
          </Trackpoint>
          <Trackpoint>
            <Time>2021-08-28T07:21:46.000Z</Time>
            <Position>
              <LatitudeDegrees>38.17813371308147907257080078125</LatitudeDegrees>
              <LongitudeDegrees>-1.98331528343260288238525390625</LongitudeDegrees>
            </Position>
            <AltitudeMeters>1189.199951171875</AltitudeMeters>
            <DistanceMeters>41069.217129302</DistanceMeters>
          </Trackpoint>
          <Trackpoint>
            <Time>2021-08-28T07:21:48.000Z</Time>
            <Position>
              <LatitudeDegrees>38.1782774627208709716796875</LatitudeDegrees>
              <LongitudeDegrees>-1.98355534113943576812744140625</LongitudeDegrees>
            </Position>
            <AltitudeMeters>1187.800048828125</AltitudeMeters>
            <DistanceMeters>41095.620537446</DistanceMeters>
          </Trackpoint>
          <Trackpoint>
            <Time>2021-08-28T07:21:50.000Z</Time>
            <Position>
              <LatitudeDegrees>38.1783835776150226593017578125</LatitudeDegrees>
              <LongitudeDegrees>-1.98382817208766937255859375</LongitudeDegrees>
            </Position>
            <AltitudeMeters>1187</AltitudeMeters>
            <DistanceMeters>41122.253628419</DistanceMeters>
          </Trackpoint>
          <Trackpoint>
            <Time>2021-08-28T07:21:51.000Z</Time>
            <Position>
              <LatitudeDegrees>38.17841953597962856292724609375</LatitudeDegrees>
              <LongitudeDegrees>-1.9839751906692981719970703125</LongitudeDegrees>
            </Position>
            <AltitudeMeters>1186.4000244140625</AltitudeMeters>
            <DistanceMeters>41135.724649769</DistanceMeters>
          </Trackpoint>
          <Trackpoint>
            <Time>2021-08-28T07:21:53.000Z</Time>
            <Position>
              <LatitudeDegrees>38.1784657202661037445068359375</LatitudeDegrees>
              <LongitudeDegrees>-1.98427618481218814849853515625</LongitudeDegrees>
            </Position>
            <AltitudeMeters>1185.199951171875</AltitudeMeters>
            <DistanceMeters>41162.556532572</DistanceMeters>
          </Trackpoint>
          <Trackpoint>
            <Time>2021-08-28T07:21:54.000Z</Time>
            <Position>
              <LatitudeDegrees>38.17848893813788890838623046875</LatitudeDegrees>
              <LongitudeDegrees>-1.98442705906927585601806640625</LongitudeDegrees>
            </Position>
            <AltitudeMeters>1184.5999755859375</AltitudeMeters>
            <DistanceMeters>41176.007428885</DistanceMeters>
          </Trackpoint>
          <Trackpoint>
            <Time>2021-08-28T07:21:56.000Z</Time>
            <Position>
              <LatitudeDegrees>38.1785284169018268585205078125</LatitudeDegrees>
              <LongitudeDegrees>-1.98473165743052959442138671875</LongitudeDegrees>
            </Position>
            <AltitudeMeters>1184</AltitudeMeters>
            <DistanceMeters>41203.017759058</DistanceMeters>
          </Trackpoint>
          <Trackpoint>
            <Time>2021-08-28T07:21:59.000Z</Time>
            <Position>
              <LatitudeDegrees>38.17859052680432796478271484375</LatitudeDegrees>
              <LongitudeDegrees>-1.98519215919077396392822265625</LongitudeDegrees>
            </Position>
            <AltitudeMeters>1182.800048828125</AltitudeMeters>
            <DistanceMeters>41243.897363594</DistanceMeters>
          </Trackpoint>
          <Trackpoint>
            <Time>2021-08-28T07:22:00.000Z</Time>
            <Position>
              <LatitudeDegrees>38.17861332558095455169677734375</LatitudeDegrees>
              <LongitudeDegrees>-1.98534873314201831817626953125</LongitudeDegrees>
            </Position>
            <AltitudeMeters>1182.4000244140625</AltitudeMeters>
            <DistanceMeters>41257.82971886</DistanceMeters>
          </Trackpoint>
          <Trackpoint>
            <Time>2021-08-28T07:22:02.000Z</Time>
            <Position>
              <LatitudeDegrees>38.17865842022001743316650390625</LatitudeDegrees>
              <LongitudeDegrees>-1.9856703467667102813720703125</LongitudeDegrees>
            </Position>
            <AltitudeMeters>1181</AltitudeMeters>
            <DistanceMeters>41286.412705691</DistanceMeters>
          </Trackpoint>
          <Trackpoint>
            <Time>2021-08-28T07:22:03.000Z</Time>
            <Position>
              <LatitudeDegrees>38.1786813028156757354736328125</LatitudeDegrees>
              <LongitudeDegrees>-1.9858322851359844207763671875</LongitudeDegrees>
            </Position>
            <AltitudeMeters>1179.4000244140625</AltitudeMeters>
            <DistanceMeters>41300.808547257</DistanceMeters>
          </Trackpoint>
          <Trackpoint>
            <Time>2021-08-28T07:22:04.000Z</Time>
            <Position>
              <LatitudeDegrees>38.178704939782619476318359375</LatitudeDegrees>
              <LongitudeDegrees>-1.985995061695575714111328125</LongitudeDegrees>
            </Position>
            <AltitudeMeters>1178.199951171875</AltitudeMeters>
            <DistanceMeters>41315.291316869</DistanceMeters>
          </Trackpoint>
          <Trackpoint>
            <Time>2021-08-28T07:22:06.000Z</Time>
            <Position>
              <LatitudeDegrees>38.17875665612518787384033203125</LatitudeDegrees>
              <LongitudeDegrees>-1.9863246381282806396484375</LongitudeDegrees>
            </Position>
            <AltitudeMeters>1177</AltitudeMeters>
            <DistanceMeters>41344.695905278</DistanceMeters>
          </Trackpoint>
          <Trackpoint>
            <Time>2021-08-28T07:22:08.000Z</Time>
            <Position>
              <LatitudeDegrees>38.178810887038707733154296875</LatitudeDegrees>
              <LongitudeDegrees>-1.9866570644080638885498046875</LongitudeDegrees>
            </Position>
            <AltitudeMeters>1175.4000244140625</AltitudeMeters>
            <DistanceMeters>41374.400532689</DistanceMeters>
          </Trackpoint>
          <Trackpoint>
            <Time>2021-08-28T07:22:10.000Z</Time>
            <Position>
              <LatitudeDegrees>38.17886008881032466888427734375</LatitudeDegrees>
              <LongitudeDegrees>-1.9869879819452762603759765625</LongitudeDegrees>
            </Position>
            <AltitudeMeters>1173.800048828125</AltitudeMeters>
            <DistanceMeters>41403.866783049</DistanceMeters>
          </Trackpoint>
          <Trackpoint>
            <Time>2021-08-28T07:22:11.000Z</Time>
            <Position>
              <LatitudeDegrees>38.17888607271015644073486328125</LatitudeDegrees>
              <LongitudeDegrees>-1.98715335689485073089599609375</LongitudeDegrees>
            </Position>
            <AltitudeMeters>1173.199951171875</AltitudeMeters>
            <DistanceMeters>41418.621956482</DistanceMeters>
          </Trackpoint>
          <Trackpoint>
            <Time>2021-08-28T07:22:12.000Z</Time>
            <Position>
              <LatitudeDegrees>38.17891205660998821258544921875</LatitudeDegrees>
              <LongitudeDegrees>-1.9873162172734737396240234375</LongitudeDegrees>
            </Position>
            <AltitudeMeters>1172</AltitudeMeters>
            <DistanceMeters>41433.161354323</DistanceMeters>
          </Trackpoint>
          <Trackpoint>
            <Time>2021-08-28T07:22:14.000Z</Time>
            <Position>
              <LatitudeDegrees>38.1789458356797695159912109375</LatitudeDegrees>
              <LongitudeDegrees>-1.98764738626778125762939453125</LongitudeDegrees>
            </Position>
            <AltitudeMeters>1170.199951171875</AltitudeMeters>
            <DistanceMeters>41462.378939895</DistanceMeters>
          </Trackpoint>
          <Trackpoint>
            <Time>2021-08-28T07:22:15.000Z</Time>
            <Position>
              <LatitudeDegrees>38.1789438240230083465576171875</LatitudeDegrees>
              <LongitudeDegrees>-1.98781854473054409027099609375</LongitudeDegrees>
            </Position>
            <AltitudeMeters>1169</AltitudeMeters>
            <DistanceMeters>41477.355222435</DistanceMeters>
          </Trackpoint>
          <Trackpoint>
            <Time>2021-08-28T07:22:17.000Z</Time>
            <Position>
              <LatitudeDegrees>38.17889110185205936431884765625</LatitudeDegrees>
              <LongitudeDegrees>-1.988151557743549346923828125</LongitudeDegrees>
            </Position>
            <AltitudeMeters>1167.5999755859375</AltitudeMeters>
            <DistanceMeters>41507.07641299</DistanceMeters>
          </Trackpoint>
          <Trackpoint>
            <Time>2021-08-28T07:22:18.000Z</Time>
            <Position>
              <LatitudeDegrees>38.17884743213653564453125</LatitudeDegrees>
              <LongitudeDegrees>-1.98830754496157169342041015625</LongitudeDegrees>
            </Position>
            <AltitudeMeters>1166.800048828125</AltitudeMeters>
            <DistanceMeters>41521.563858133</DistanceMeters>
          </Trackpoint>
          <Trackpoint>
            <Time>2021-08-28T07:22:19.000Z</Time>
            <Position>
              <LatitudeDegrees>38.178798817098140716552734375</LatitudeDegrees>
              <LongitudeDegrees>-1.9884621910750865936279296875</LongitudeDegrees>
            </Position>
            <AltitudeMeters>1166.4000244140625</AltitudeMeters>
            <DistanceMeters>41536.136445678</DistanceMeters>
          </Trackpoint>
          <Trackpoint>
            <Time>2021-08-28T07:22:20.000Z</Time>
            <Position>
              <LatitudeDegrees>38.17874525673687458038330078125</LatitudeDegrees>
              <LongitudeDegrees>-1.98861214332282543182373046875</LongitudeDegrees>
            </Position>
            <AltitudeMeters>1165.5999755859375</AltitudeMeters>
            <DistanceMeters>41550.547020544</DistanceMeters>
          </Trackpoint>
          <Trackpoint>
            <Time>2021-08-28T07:22:21.000Z</Time>
            <Position>
              <LatitudeDegrees>38.178691528737545013427734375</LatitudeDegrees>
              <LongitudeDegrees>-1.98876352049410343170166015625</LongitudeDegrees>
            </Position>
            <AltitudeMeters>1165.199951171875</AltitudeMeters>
            <DistanceMeters>41565.078963557</DistanceMeters>
          </Trackpoint>
          <Trackpoint>
            <Time>2021-08-28T07:22:23.000Z</Time>
            <Position>
              <LatitudeDegrees>38.17858482711017131805419921875</LatitudeDegrees>
              <LongitudeDegrees>-1.98907013051211833953857421875</LongitudeDegrees>
            </Position>
            <AltitudeMeters>1164.4000244140625</AltitudeMeters>
            <DistanceMeters>41594.416528319</DistanceMeters>
          </Trackpoint>
          <Trackpoint>
            <Time>2021-08-28T07:22:24.000Z</Time>
            <Position>
              <LatitudeDegrees>38.17853386513888835906982421875</LatitudeDegrees>
              <LongitudeDegrees>-1.98922335170209407806396484375</LongitudeDegrees>
            </Position>
            <AltitudeMeters>1164</AltitudeMeters>
            <DistanceMeters>41608.97330591</DistanceMeters>
          </Trackpoint>
          <Trackpoint>
            <Time>2021-08-28T07:22:26.000Z</Time>
            <Position>
              <LatitudeDegrees>38.17843680270016193389892578125</LatitudeDegrees>
              <LongitudeDegrees>-1.989537589251995086669921875</LongitudeDegrees>
            </Position>
            <AltitudeMeters>1162.5999755859375</AltitudeMeters>
            <DistanceMeters>41638.513319571</DistanceMeters>
          </Trackpoint>
          <Trackpoint>
            <Time>2021-08-28T07:22:27.000Z</Time>
            <Position>
              <LatitudeDegrees>38.17838198505342006683349609375</LatitudeDegrees>
              <LongitudeDegrees>-1.98970279656350612640380859375</LongitudeDegrees>
            </Position>
            <AltitudeMeters>1161.800048828125</AltitudeMeters>
            <DistanceMeters>41654.202802796</DistanceMeters>
          </Trackpoint>
          <Trackpoint>
            <Time>2021-08-28T07:22:28.000Z</Time>
            <Position>
              <LatitudeDegrees>38.178330101072788238525390625</LatitudeDegrees>
              <LongitudeDegrees>-1.98986238799989223480224609375</LongitudeDegrees>
            </Position>
            <AltitudeMeters>1161</AltitudeMeters>
            <DistanceMeters>41669.312946832</DistanceMeters>
          </Trackpoint>
          <Trackpoint>
            <Time>2021-08-28T07:22:30.000Z</Time>
            <Position>
              <LatitudeDegrees>38.17822926677763462066650390625</LatitudeDegrees>
              <LongitudeDegrees>-1.99018173851072788238525390625</LongitudeDegrees>
            </Position>
            <AltitudeMeters>1159.4000244140625</AltitudeMeters>
            <DistanceMeters>41699.423822365</DistanceMeters>
          </Trackpoint>
          <Trackpoint>
            <Time>2021-08-28T07:22:31.000Z</Time>
            <Position>
              <LatitudeDegrees>38.178182579576969146728515625</LatitudeDegrees>
              <LongitudeDegrees>-1.99033713899552822113037109375</LongitudeDegrees>
            </Position>
            <AltitudeMeters>1158</AltitudeMeters>
            <DistanceMeters>41713.979359234</DistanceMeters>
          </Trackpoint>
          <Trackpoint>
            <Time>2021-08-28T07:22:32.000Z</Time>
            <Position>
              <LatitudeDegrees>38.17813186906278133392333984375</LatitudeDegrees>
              <LongitudeDegrees>-1.990502178668975830078125</LongitudeDegrees>
            </Position>
            <AltitudeMeters>1156.800048828125</AltitudeMeters>
            <DistanceMeters>41729.482990253</DistanceMeters>
          </Trackpoint>
          <Trackpoint>
            <Time>2021-08-28T07:22:34.000Z</Time>
            <Position>
              <LatitudeDegrees>38.178020976483821868896484375</LatitudeDegrees>
              <LongitudeDegrees>-1.99082446284592151641845703125</LongitudeDegrees>
            </Position>
            <AltitudeMeters>1155.800048828125</AltitudeMeters>
            <DistanceMeters>41760.263872481</DistanceMeters>
          </Trackpoint>
          <Trackpoint>
            <Time>2021-08-28T07:22:35.000Z</Time>
            <Position>
              <LatitudeDegrees>38.17794688045978546142578125</LatitudeDegrees>
              <LongitudeDegrees>-1.99097801931202411651611328125</LongitudeDegrees>
            </Position>
            <AltitudeMeters>1155.4000244140625</AltitudeMeters>
            <DistanceMeters>41776.027999597</DistanceMeters>
          </Trackpoint>
          <Trackpoint>
            <Time>2021-08-28T07:22:36.000Z</Time>
            <Position>
              <LatitudeDegrees>38.17786683328449726104736328125</LatitudeDegrees>
              <LongitudeDegrees>-1.991119086742401123046875</LongitudeDegrees>
            </Position>
            <AltitudeMeters>1154.800048828125</AltitudeMeters>
            <DistanceMeters>41791.250080978</DistanceMeters>
          </Trackpoint>
          <Trackpoint>
            <Time>2021-08-28T07:22:37.000Z</Time>
            <Position>
              <LatitudeDegrees>38.177782259881496429443359375</LatitudeDegrees>
              <LongitudeDegrees>-1.99126048944890499114990234375</LongitudeDegrees>
            </Position>
            <AltitudeMeters>1154.4000244140625</AltitudeMeters>
            <DistanceMeters>41806.79559177</DistanceMeters>
          </Trackpoint>
          <Trackpoint>
            <Time>2021-08-28T07:22:38.000Z</Time>
            <Position>
              <LatitudeDegrees>38.17769751884043216705322265625</LatitudeDegrees>
              <LongitudeDegrees>-1.99140449054539203643798828125</LongitudeDegrees>
            </Position>
            <AltitudeMeters>1153.4000244140625</AltitudeMeters>
            <DistanceMeters>41822.533920679</DistanceMeters>
          </Trackpoint>
          <Trackpoint>
            <Time>2021-08-28T07:22:40.000Z</Time>
            <Position>
              <LatitudeDegrees>38.177529461681842803955078125</LatitudeDegrees>
              <LongitudeDegrees>-1.991690061986446380615234375</LongitudeDegrees>
            </Position>
            <AltitudeMeters>1152</AltitudeMeters>
            <DistanceMeters>41853.745820764</DistanceMeters>
          </Trackpoint>
          <Trackpoint>
            <Time>2021-08-28T07:22:41.000Z</Time>
            <Position>
              <LatitudeDegrees>38.17744740284979343414306640625</LatitudeDegrees>
              <LongitudeDegrees>-1.9918297044932842254638671875</LongitudeDegrees>
            </Position>
            <AltitudeMeters>1150.800048828125</AltitudeMeters>
            <DistanceMeters>41869.000198493</DistanceMeters>
          </Trackpoint>
          <Trackpoint>
            <Time>2021-08-28T07:22:43.000Z</Time>
            <Position>
              <LatitudeDegrees>38.17728546448051929473876953125</LatitudeDegrees>
              <LongitudeDegrees>-1.99211074970662593841552734375</LongitudeDegrees>
            </Position>
            <AltitudeMeters>1149</AltitudeMeters>
            <DistanceMeters>41899.488524275</DistanceMeters>
          </Trackpoint>
          <Trackpoint>
            <Time>2021-08-28T07:22:44.000Z</Time>
            <Position>
              <LatitudeDegrees>38.17721002735197544097900390625</LatitudeDegrees>
              <LongitudeDegrees>-1.99224938638508319854736328125</LongitudeDegrees>
            </Position>
            <AltitudeMeters>1148.199951171875</AltitudeMeters>
            <DistanceMeters>41914.240637422</DistanceMeters>
          </Trackpoint>
          <Trackpoint>
            <Time>2021-08-28T07:22:45.000Z</Time>
            <Position>
              <LatitudeDegrees>38.177141211926937103271484375</LatitudeDegrees>
              <LongitudeDegrees>-1.9923933036625385284423828125</LongitudeDegrees>
            </Position>
            <AltitudeMeters>1147.800048828125</AltitudeMeters>
            <DistanceMeters>41928.979277757</DistanceMeters>
          </Trackpoint>
          <Trackpoint>
            <Time>2021-08-28T07:22:46.000Z</Time>
            <Position>
              <LatitudeDegrees>38.17708379589021205902099609375</LatitudeDegrees>
              <LongitudeDegrees>-1.99254459701478481292724609375</LongitudeDegrees>
            </Position>
            <AltitudeMeters>1147</AltitudeMeters>
            <DistanceMeters>41943.678347084</DistanceMeters>
          </Trackpoint>
          <Trackpoint>
            <Time>2021-08-28T07:22:47.000Z</Time>
            <Position>
              <LatitudeDegrees>38.1770377792418003082275390625</LatitudeDegrees>
              <LongitudeDegrees>-1.99270150624215602874755859375</LongitudeDegrees>
            </Position>
            <AltitudeMeters>1146.4000244140625</AltitudeMeters>
            <DistanceMeters>41958.330961101</DistanceMeters>
          </Trackpoint>
          <Trackpoint>
            <Time>2021-08-28T07:22:49.000Z</Time>
            <Position>
              <LatitudeDegrees>38.1769623421132564544677734375</LatitudeDegrees>
              <LongitudeDegrees>-1.99302806518971920013427734375</LongitudeDegrees>
            </Position>
            <AltitudeMeters>1145.4000244140625</AltitudeMeters>
            <DistanceMeters>41988.111338832</DistanceMeters>
          </Trackpoint>
          <Trackpoint>
            <Time>2021-08-28T07:22:50.000Z</Time>
            <Position>
              <LatitudeDegrees>38.17692755721509456634521484375</LatitudeDegrees>
              <LongitudeDegrees>-1.9931922666728496551513671875</LongitudeDegrees>
            </Position>
            <AltitudeMeters>1144.5999755859375</AltitudeMeters>
            <DistanceMeters>42002.99083527</DistanceMeters>
          </Trackpoint>
          <Trackpoint>
            <Time>2021-08-28T07:22:51.000Z</Time>
            <Position>
              <LatitudeDegrees>38.1768915988504886627197265625</LatitudeDegrees>
              <LongitudeDegrees>-1.9933588989078998565673828125</LongitudeDegrees>
            </Position>
            <AltitudeMeters>1144</AltitudeMeters>
            <DistanceMeters>42018.109343627</DistanceMeters>
          </Trackpoint>
          <Trackpoint>
            <Time>2021-08-28T07:22:53.000Z</Time>
            <Position>
              <LatitudeDegrees>38.17679679952561855316162109375</LatitudeDegrees>
              <LongitudeDegrees>-1.9936817698180675506591796875</LongitudeDegrees>
            </Position>
            <AltitudeMeters>1142.199951171875</AltitudeMeters>
            <DistanceMeters>42048.265020012</DistanceMeters>
          </Trackpoint>
          <Trackpoint>
            <Time>2021-08-28T07:22:55.000Z</Time>
            <Position>
              <LatitudeDegrees>38.17664064466953277587890625</LatitudeDegrees>
              <LongitudeDegrees>-1.9939362443983554840087890625</LongitudeDegrees>
            </Position>
            <AltitudeMeters>1141.199951171875</AltitudeMeters>
            <DistanceMeters>42076.510661869</DistanceMeters>
          </Trackpoint>
          <Trackpoint>
            <Time>2021-08-28T07:22:56.000Z</Time>
            <Position>
              <LatitudeDegrees>38.1765465997159481048583984375</LatitudeDegrees>
              <LongitudeDegrees>-1.99404110200703144073486328125</LongitudeDegrees>
            </Position>
            <AltitudeMeters>1140</AltitudeMeters>
            <DistanceMeters>42090.4293996</DistanceMeters>
          </Trackpoint>
          <Trackpoint>
            <Time>2021-08-28T07:22:58.000Z</Time>
            <Position>
              <LatitudeDegrees>38.17637451924383640289306640625</LatitudeDegrees>
              <LongitudeDegrees>-1.99427814222872257232666015625</LongitudeDegrees>
            </Position>
            <AltitudeMeters>1138.4000244140625</AltitudeMeters>
            <DistanceMeters>42118.660171583</DistanceMeters>
          </Trackpoint>
          <Trackpoint>
            <Time>2021-08-28T07:22:59.000Z</Time>
            <Position>
              <LatitudeDegrees>38.17630469799041748046875</LatitudeDegrees>
              <LongitudeDegrees>-1.9944116659462451934814453125</LongitudeDegrees>
            </Position>
            <AltitudeMeters>1138</AltitudeMeters>
            <DistanceMeters>42132.69166319</DistanceMeters>
          </Trackpoint>
          <Trackpoint>
            <Time>2021-08-28T07:23:00.000Z</Time>
            <Position>
              <LatitudeDegrees>38.17624275572597980499267578125</LatitudeDegrees>
              <LongitudeDegrees>-1.9945504702627658843994140625</LongitudeDegrees>
            </Position>
            <AltitudeMeters>1137.199951171875</AltitudeMeters>
            <DistanceMeters>42146.657034329</DistanceMeters>
          </Trackpoint>
          <Trackpoint>
            <Time>2021-08-28T07:23:02.000Z</Time>
            <Position>
              <LatitudeDegrees>38.17612297832965850830078125</LatitudeDegrees>
              <LongitudeDegrees>-1.99483461678028106689453125</LongitudeDegrees>
            </Position>
            <AltitudeMeters>1136</AltitudeMeters>
            <DistanceMeters>42174.867487481</DistanceMeters>
          </Trackpoint>
          <Trackpoint>
            <Time>2021-08-28T07:23:04.000Z</Time>
            <Position>
              <LatitudeDegrees>38.1760037876665592193603515625</LatitudeDegrees>
              <LongitudeDegrees>-1.9951217807829380035400390625</LongitudeDegrees>
            </Position>
            <AltitudeMeters>1134.800048828125</AltitudeMeters>
            <DistanceMeters>42203.28031617</DistanceMeters>
          </Trackpoint>
          <Trackpoint>
            <Time>2021-08-28T07:23:06.000Z</Time>
            <Position>
              <LatitudeDegrees>38.17588317207992076873779296875</LatitudeDegrees>
              <LongitudeDegrees>-1.99540860950946807861328125</LongitudeDegrees>
            </Position>
            <AltitudeMeters>1134</AltitudeMeters>
            <DistanceMeters>42231.741729302</DistanceMeters>
          </Trackpoint>
          <Trackpoint>
            <Time>2021-08-28T07:23:07.000Z</Time>
            <Position>
              <LatitudeDegrees>38.175820894539356231689453125</LatitudeDegrees>
              <LongitudeDegrees>-1.9955514371395111083984375</LongitudeDegrees>
            </Position>
            <AltitudeMeters>1133.199951171875</AltitudeMeters>
            <DistanceMeters>42246.032432884</DistanceMeters>
          </Trackpoint>
          <Trackpoint>
            <Time>2021-08-28T07:23:09.000Z</Time>
            <Position>
              <LatitudeDegrees>38.17569675855338573455810546875</LatitudeDegrees>
              <LongitudeDegrees>-1.9958372600376605987548828125</LongitudeDegrees>
            </Position>
            <AltitudeMeters>1131.5999755859375</AltitudeMeters>
            <DistanceMeters>42274.603728104</DistanceMeters>
          </Trackpoint>
          <Trackpoint>
            <Time>2021-08-28T07:23:10.000Z</Time>
            <Position>
              <LatitudeDegrees>38.1756354868412017822265625</LatitudeDegrees>
              <LongitudeDegrees>-1.9959832727909088134765625</LongitudeDegrees>
            </Position>
            <AltitudeMeters>1131</AltitudeMeters>
            <DistanceMeters>42289.085250652</DistanceMeters>
          </Trackpoint>
          <Trackpoint>
            <Time>2021-08-28T07:23:11.000Z</Time>
            <Position>
              <LatitudeDegrees>38.1755793280899524688720703125</LatitudeDegrees>
              <LongitudeDegrees>-1.99613322503864765167236328125</LongitudeDegrees>
            </Position>
            <AltitudeMeters>1130.4000244140625</AltitudeMeters>
            <DistanceMeters>42303.618436402</DistanceMeters>
          </Trackpoint>
          <Trackpoint>
            <Time>2021-08-28T07:23:12.000Z</Time>
            <Position>
              <LatitudeDegrees>38.175534904003143310546875</LatitudeDegrees>
              <LongitudeDegrees>-1.99629063718020915985107421875</LongitudeDegrees>
            </Position>
            <AltitudeMeters>1129.4000244140625</AltitudeMeters>
            <DistanceMeters>42318.251933345</DistanceMeters>
          </Trackpoint>
          <Trackpoint>
            <Time>2021-08-28T07:23:13.000Z</Time>
            <Position>
              <LatitudeDegrees>38.1755102612078189849853515625</LatitudeDegrees>
              <LongitudeDegrees>-1.99645743705332279205322265625</LongitudeDegrees>
            </Position>
            <AltitudeMeters>1128.800048828125</AltitudeMeters>
            <DistanceMeters>42333.101966909</DistanceMeters>
          </Trackpoint>
          <Trackpoint>
            <Time>2021-08-28T07:23:14.000Z</Time>
            <Position>
              <LatitudeDegrees>38.175507076084613800048828125</LatitudeDegrees>
              <LongitudeDegrees>-1.996628679335117340087890625</LongitudeDegrees>
            </Position>
            <AltitudeMeters>1128.199951171875</AltitudeMeters>
            <DistanceMeters>42348.089701281</DistanceMeters>
          </Trackpoint>
          <Trackpoint>
            <Time>2021-08-28T07:23:15.000Z</Time>
            <Position>
              <LatitudeDegrees>38.17552023567259311676025390625</LatitudeDegrees>
              <LongitudeDegrees>-1.996800340712070465087890625</LongitudeDegrees>
            </Position>
            <AltitudeMeters>1127.199951171875</AltitudeMeters>
            <DistanceMeters>42363.181307825</DistanceMeters>
          </Trackpoint>
          <Trackpoint>
            <Time>2021-08-28T07:23:16.000Z</Time>
            <Position>
              <LatitudeDegrees>38.175533898174762725830078125</LatitudeDegrees>
              <LongitudeDegrees>-1.99697175063192844390869140625</LongitudeDegrees>
            </Position>
            <AltitudeMeters>1126.5999755859375</AltitudeMeters>
            <DistanceMeters>42378.256151233</DistanceMeters>
          </Trackpoint>
          <Trackpoint>
            <Time>2021-08-28T07:23:17.000Z</Time>
            <Position>
              <LatitudeDegrees>38.17553314380347728729248046875</LatitudeDegrees>
              <LongitudeDegrees>-1.99714106507599353790283203125</LongitudeDegrees>
            </Position>
            <AltitudeMeters>1125.800048828125</AltitudeMeters>
            <DistanceMeters>42393.070569139</DistanceMeters>
          </Trackpoint>
          <Trackpoint>
            <Time>2021-08-28T07:23:19.000Z</Time>
            <Position>
              <LatitudeDegrees>38.17549156956374645233154296875</LatitudeDegrees>
              <LongitudeDegrees>-1.99745689518749713897705078125</LongitudeDegrees>
            </Position>
            <AltitudeMeters>1124.800048828125</AltitudeMeters>
            <DistanceMeters>42421.089433961</DistanceMeters>
          </Trackpoint>
          <Trackpoint>
            <Time>2021-08-28T07:23:20.000Z</Time>
            <Position>
              <LatitudeDegrees>38.17546944133937358856201171875</LatitudeDegrees>
              <LongitudeDegrees>-1.99760399758815765380859375</LongitudeDegrees>
            </Position>
            <AltitudeMeters>1124.4000244140625</AltitudeMeters>
            <DistanceMeters>42434.194165694</DistanceMeters>
          </Trackpoint>
          <Trackpoint>
            <Time>2021-08-28T07:23:23.000Z</Time>
            <Position>
              <LatitudeDegrees>38.17542887292802333831787109375</LatitudeDegrees>
              <LongitudeDegrees>-1.99800574220716953277587890625</LongitudeDegrees>
            </Position>
            <AltitudeMeters>1123.800048828125</AltitudeMeters>
            <DistanceMeters>42469.63441672</DistanceMeters>
          </Trackpoint>
          <Trackpoint>
            <Time>2021-08-28T07:23:28.000Z</Time>
            <Position>
              <LatitudeDegrees>38.17541663534939289093017578125</LatitudeDegrees>
              <LongitudeDegrees>-1.99856431223452091217041015625</LongitudeDegrees>
            </Position>
            <AltitudeMeters>1125.199951171875</AltitudeMeters>
            <DistanceMeters>42518.526561654</DistanceMeters>
          </Trackpoint>
          <Trackpoint>
            <Time>2021-08-28T07:23:29.000Z</Time>
            <Position>
              <LatitudeDegrees>38.17541898228228092193603515625</LatitudeDegrees>
              <LongitudeDegrees>-1.99866841547191143035888671875</LongitudeDegrees>
            </Position>
            <AltitudeMeters>1125.5999755859375</AltitudeMeters>
            <DistanceMeters>42527.639222241</DistanceMeters>
          </Trackpoint>
          <Trackpoint>
            <Time>2021-08-28T07:23:30.000Z</Time>
            <Position>
              <LatitudeDegrees>38.17542132921516895294189453125</LatitudeDegrees>
              <LongitudeDegrees>-1.9987742789089679718017578125</LongitudeDegrees>
            </Position>
            <AltitudeMeters>1125.5999755859375</AltitudeMeters>
            <DistanceMeters>42536.906154149</DistanceMeters>
          </Trackpoint>
          <Trackpoint>
            <Time>2021-08-28T07:23:35.000Z</Time>
            <Position>
              <LatitudeDegrees>38.17543876357376575469970703125</LatitudeDegrees>
              <LongitudeDegrees>-1.9993291608989238739013671875</LongitudeDegrees>
            </Position>
            <AltitudeMeters>1125.5999755859375</AltitudeMeters>
            <DistanceMeters>42585.495386354</DistanceMeters>
          </Trackpoint>
          <Trackpoint>
            <Time>2021-08-28T07:23:40.000Z</Time>
            <Position>
              <LatitudeDegrees>38.17549274303019046783447265625</LatitudeDegrees>
              <LongitudeDegrees>-1.9999065063893795013427734375</LongitudeDegrees>
            </Position>
            <AltitudeMeters>1125</AltitudeMeters>
            <DistanceMeters>42636.367261376</DistanceMeters>
          </Trackpoint>
          <Trackpoint>
            <Time>2021-08-28T07:23:41.000Z</Time>
            <Position>
              <LatitudeDegrees>38.1755089201033115386962890625</LatitudeDegrees>
              <LongitudeDegrees>-2.00001924298703670501708984375</LongitudeDegrees>
            </Position>
            <AltitudeMeters>1124.800048828125</AltitudeMeters>
            <DistanceMeters>42646.394268463</DistanceMeters>
          </Trackpoint>
          <Trackpoint>
            <Time>2021-08-28T07:23:42.000Z</Time>
            <Position>
              <LatitudeDegrees>38.17552342079579830169677734375</LatitudeDegrees>
              <LongitudeDegrees>-2.00013063848018646240234375</LongitudeDegrees>
            </Position>
            <AltitudeMeters>1124.4000244140625</AltitudeMeters>
            <DistanceMeters>42656.274305222</DistanceMeters>
          </Trackpoint>
          <Trackpoint>
            <Time>2021-08-28T07:23:48.000Z</Time>
            <Position>
              <LatitudeDegrees>38.1756115145981311798095703125</LatitudeDegrees>
              <LongitudeDegrees>-2.00077193789184093475341796875</LongitudeDegrees>
            </Position>
            <AltitudeMeters>1123.5999755859375</AltitudeMeters>
            <DistanceMeters>42713.236222128</DistanceMeters>
          </Trackpoint>
          <Trackpoint>
            <Time>2021-08-28T07:23:50.000Z</Time>
            <Position>
              <LatitudeDegrees>38.1756193935871124267578125</LatitudeDegrees>
              <LongitudeDegrees>-2.0009814016520977020263671875</LongitudeDegrees>
            </Position>
            <AltitudeMeters>1123.800048828125</AltitudeMeters>
            <DistanceMeters>42731.584500249</DistanceMeters>
          </Trackpoint>
          <Trackpoint>
            <Time>2021-08-28T07:23:55.000Z</Time>
            <Position>
              <LatitudeDegrees>38.17562215961515903472900390625</LatitudeDegrees>
              <LongitudeDegrees>-2.001483477652072906494140625</LongitudeDegrees>
            </Position>
            <AltitudeMeters>1124</AltitudeMeters>
            <DistanceMeters>42775.515628824</DistanceMeters>
          </Trackpoint>
          <Trackpoint>
            <Time>2021-08-28T07:23:57.000Z</Time>
            <Position>
              <LatitudeDegrees>38.17560128867626190185546875</LatitudeDegrees>
              <LongitudeDegrees>-2.001673914492130279541015625</LongitudeDegrees>
            </Position>
            <AltitudeMeters>1123.800048828125</AltitudeMeters>
            <DistanceMeters>42792.339383342</DistanceMeters>
          </Trackpoint>
          <Trackpoint>
            <Time>2021-08-28T07:24:00.000Z</Time>
            <Position>
              <LatitudeDegrees>38.1755320541560649871826171875</LatitudeDegrees>
              <LongitudeDegrees>-2.00194573961198329925537109375</LongitudeDegrees>
            </Position>
            <AltitudeMeters>1123.5999755859375</AltitudeMeters>
            <DistanceMeters>42817.340259952</DistanceMeters>
          </Trackpoint>
          <Trackpoint>
            <Time>2021-08-28T07:24:01.000Z</Time>
            <Position>
              <LatitudeDegrees>38.17550741136074066162109375</LatitudeDegrees>
              <LongitudeDegrees>-2.00203391723334789276123046875</LongitudeDegrees>
            </Position>
            <AltitudeMeters>1123.199951171875</AltitudeMeters>
            <DistanceMeters>42825.52801224</DistanceMeters>
          </Trackpoint>
          <Trackpoint>
            <Time>2021-08-28T07:24:09.000Z</Time>
            <Position>
              <LatitudeDegrees>38.17530498839914798736572265625</LatitudeDegrees>
              <LongitudeDegrees>-2.00271050445735454559326171875</LongitudeDegrees>
            </Position>
            <AltitudeMeters>1123.4000244140625</AltitudeMeters>
            <DistanceMeters>42888.869643849</DistanceMeters>
          </Trackpoint>
          <Trackpoint>
            <Time>2021-08-28T07:24:10.000Z</Time>
            <Position>
              <LatitudeDegrees>38.1752812676131725311279296875</LatitudeDegrees>
              <LongitudeDegrees>-2.00279348529875278472900390625</LongitudeDegrees>
            </Position>
            <AltitudeMeters>1123.5999755859375</AltitudeMeters>
            <DistanceMeters>42896.595496895</DistanceMeters>
          </Trackpoint>
          <Trackpoint>
            <Time>2021-08-28T07:24:13.000Z</Time>
            <Position>
              <LatitudeDegrees>38.175207674503326416015625</LatitudeDegrees>
              <LongitudeDegrees>-2.00303890742361545562744140625</LongitudeDegrees>
            </Position>
            <AltitudeMeters>1124.199951171875</AltitudeMeters>
            <DistanceMeters>42919.578410583</DistanceMeters>
          </Trackpoint>
          <Trackpoint>
            <Time>2021-08-28T07:24:19.000Z</Time>
            <Position>
              <LatitudeDegrees>38.17505788989365100860595703125</LatitudeDegrees>
              <LongitudeDegrees>-2.00352774001657962799072265625</LongitudeDegrees>
            </Position>
            <AltitudeMeters>1124.199951171875</AltitudeMeters>
            <DistanceMeters>42965.484084302</DistanceMeters>
          </Trackpoint>
          <Trackpoint>
            <Time>2021-08-28T07:24:20.000Z</Time>
            <Position>
              <LatitudeDegrees>38.175033666193485260009765625</LatitudeDegrees>
              <LongitudeDegrees>-2.00360954739153385162353515625</LongitudeDegrees>
            </Position>
            <AltitudeMeters>1124.199951171875</AltitudeMeters>
            <DistanceMeters>42973.132996988</DistanceMeters>
          </Trackpoint>
          <Trackpoint>
            <Time>2021-08-28T07:24:27.000Z</Time>
            <Position>
              <LatitudeDegrees>38.1748822890222072601318359375</LatitudeDegrees>
              <LongitudeDegrees>-2.004185132682323455810546875</LongitudeDegrees>
            </Position>
            <AltitudeMeters>1124.5999755859375</AltitudeMeters>
            <DistanceMeters>43026.238903954</DistanceMeters>
          </Trackpoint>
          <Trackpoint>
            <Time>2021-08-28T07:24:30.000Z</Time>
            <Position>
              <LatitudeDegrees>38.174821771681308746337890625</LatitudeDegrees>
              <LongitudeDegrees>-2.0044303871691226959228515625</LongitudeDegrees>
            </Position>
            <AltitudeMeters>1124.800048828125</AltitudeMeters>
            <DistanceMeters>43048.730344157</DistanceMeters>
          </Trackpoint>
          <Trackpoint>
            <Time>2021-08-28T07:24:35.000Z</Time>
            <Position>
              <LatitudeDegrees>38.174732588231563568115234375</LatitudeDegrees>
              <LongitudeDegrees>-2.00485778041183948516845703125</LongitudeDegrees>
            </Position>
            <AltitudeMeters>1125</AltitudeMeters>
            <DistanceMeters>43087.421273491</DistanceMeters>
          </Trackpoint>
          <Trackpoint>
            <Time>2021-08-28T07:24:38.000Z</Time>
            <Position>
              <LatitudeDegrees>38.17470082081854343414306640625</LatitudeDegrees>
              <LongitudeDegrees>-2.0051177032291889190673828125</LongitudeDegrees>
            </Position>
            <AltitudeMeters>1125.199951171875</AltitudeMeters>
            <DistanceMeters>43110.437167444</DistanceMeters>
          </Trackpoint>
          <Trackpoint>
            <Time>2021-08-28T07:24:40.000Z</Time>
            <Position>
              <LatitudeDegrees>38.1746888346970081329345703125</LatitudeDegrees>
              <LongitudeDegrees>-2.00529229827225208282470703125</LongitudeDegrees>
            </Position>
            <AltitudeMeters>1125.4000244140625</AltitudeMeters>
            <DistanceMeters>43125.771841248</DistanceMeters>
          </Trackpoint>
          <Trackpoint>
            <Time>2021-08-28T07:24:43.000Z</Time>
            <Position>
              <LatitudeDegrees>38.174678273499011993408203125</LatitudeDegrees>
              <LongitudeDegrees>-2.0055626146495342254638671875</LongitudeDegrees>
            </Position>
            <AltitudeMeters>1125.5999755859375</AltitudeMeters>
            <DistanceMeters>43149.453139089</DistanceMeters>
          </Trackpoint>
          <Trackpoint>
            <Time>2021-08-28T07:24:50.000Z</Time>
            <Position>
              <LatitudeDegrees>38.1746677123010158538818359375</LatitudeDegrees>
              <LongitudeDegrees>-2.006220258772373199462890625</LongitudeDegrees>
            </Position>
            <AltitudeMeters>1124.800048828125</AltitudeMeters>
            <DistanceMeters>43207.00764371</DistanceMeters>
          </Trackpoint>
          <Trackpoint>
            <Time>2021-08-28T07:24:53.000Z</Time>
            <Position>
              <LatitudeDegrees>38.174655139446258544921875</LatitudeDegrees>
              <LongitudeDegrees>-2.006514631211757659912109375</LongitudeDegrees>
            </Position>
            <AltitudeMeters>1124.800048828125</AltitudeMeters>
            <DistanceMeters>43232.802627385</DistanceMeters>
          </Trackpoint>
          <Trackpoint>
            <Time>2021-08-28T07:25:00.000Z</Time>
            <Position>
              <LatitudeDegrees>38.1746304966509342193603515625</LatitudeDegrees>
              <LongitudeDegrees>-2.007201276719570159912109375</LongitudeDegrees>
            </Position>
            <AltitudeMeters>1124.5999755859375</AltitudeMeters>
            <DistanceMeters>43292.945154275</DistanceMeters>
          </Trackpoint>
          <Trackpoint>
            <Time>2021-08-28T07:25:04.000Z</Time>
            <Position>
              <LatitudeDegrees>38.17461918108165264129638671875</LatitudeDegrees>
              <LongitudeDegrees>-2.00759128667414188385009765625</LongitudeDegrees>
            </Position>
            <AltitudeMeters>1124</AltitudeMeters>
            <DistanceMeters>43327.093477098</DistanceMeters>
          </Trackpoint>
          <Trackpoint>
            <Time>2021-08-28T07:25:10.000Z</Time>
            <Position>
              <LatitudeDegrees>38.17460954189300537109375</LatitudeDegrees>
              <LongitudeDegrees>-2.0081633515655994415283203125</LongitudeDegrees>
            </Position>
            <AltitudeMeters>1123.800048828125</AltitudeMeters>
            <DistanceMeters>43377.159390748</DistanceMeters>
          </Trackpoint>
          <Trackpoint>
            <Time>2021-08-28T07:25:12.000Z</Time>
            <Position>
              <LatitudeDegrees>38.1746036745607852935791015625</LatitudeDegrees>
              <LongitudeDegrees>-2.0083511061966419219970703125</LongitudeDegrees>
            </Position>
            <AltitudeMeters>1124</AltitudeMeters>
            <DistanceMeters>43393.600385495</DistanceMeters>
          </Trackpoint>
          <Trackpoint>
            <Time>2021-08-28T07:25:20.000Z</Time>
            <Position>
              <LatitudeDegrees>38.17457576282322406768798828125</LatitudeDegrees>
              <LongitudeDegrees>-2.0090960897505283355712890625</LongitudeDegrees>
            </Position>
            <AltitudeMeters>1123.800048828125</AltitudeMeters>
            <DistanceMeters>43458.858904876</DistanceMeters>
          </Trackpoint>
          <Trackpoint>
            <Time>2021-08-28T07:25:21.000Z</Time>
            <Position>
              <LatitudeDegrees>38.17457458935678005218505859375</LatitudeDegrees>
              <LongitudeDegrees>-2.00918887741863727569580078125</LongitudeDegrees>
            </Position>
            <AltitudeMeters>1124</AltitudeMeters>
            <DistanceMeters>43466.97799091</DistanceMeters>
          </Trackpoint>
          <Trackpoint>
            <Time>2021-08-28T07:25:29.000Z</Time>
            <Position>
              <LatitudeDegrees>38.17455464042723178863525390625</LatitudeDegrees>
              <LongitudeDegrees>-2.0099265687167644500732421875</LongitudeDegrees>
            </Position>
            <AltitudeMeters>1124.4000244140625</AltitudeMeters>
            <DistanceMeters>43531.562609134</DistanceMeters>
          </Trackpoint>
          <Trackpoint>
            <Time>2021-08-28T07:25:30.000Z</Time>
            <Position>
              <LatitudeDegrees>38.17455162294209003448486328125</LatitudeDegrees>
              <LongitudeDegrees>-2.01001751236617565155029296875</LongitudeDegrees>
            </Position>
            <AltitudeMeters>1124.199951171875</AltitudeMeters>
            <DistanceMeters>43539.526732246</DistanceMeters>
          </Trackpoint>
          <Trackpoint>
            <Time>2021-08-28T07:25:31.000Z</Time>
            <Position>
              <LatitudeDegrees>38.17454877309501171112060546875</LatitudeDegrees>
              <LongitudeDegrees>-2.0101072825491428375244140625</LongitudeDegrees>
            </Position>
            <AltitudeMeters>1124.199951171875</AltitudeMeters>
            <DistanceMeters>43547.388147079</DistanceMeters>
          </Trackpoint>
          <Trackpoint>
            <Time>2021-08-28T07:25:37.000Z</Time>
            <Position>
              <LatitudeDegrees>38.17453519441187381744384765625</LatitudeDegrees>
              <LongitudeDegrees>-2.01063274405896663665771484375</LongitudeDegrees>
            </Position>
            <AltitudeMeters>1125</AltitudeMeters>
            <DistanceMeters>43593.389714815</DistanceMeters>
          </Trackpoint>
          <Trackpoint>
            <Time>2021-08-28T07:25:40.000Z</Time>
            <Position>
              <LatitudeDegrees>38.17452262155711650848388671875</LatitudeDegrees>
              <LongitudeDegrees>-2.0108898170292377471923828125</LongitudeDegrees>
            </Position>
            <AltitudeMeters>1125.199951171875</AltitudeMeters>
            <DistanceMeters>43615.926277321</DistanceMeters>
          </Trackpoint>
          <Trackpoint>
            <Time>2021-08-28T07:25:42.000Z</Time>
            <Position>
              <LatitudeDegrees>38.174510635435581207275390625</LatitudeDegrees>
              <LongitudeDegrees>-2.01105519197881221771240234375</LongitudeDegrees>
            </Position>
            <AltitudeMeters>1125.4000244140625</AltitudeMeters>
            <DistanceMeters>43630.457598925</DistanceMeters>
          </Trackpoint>
          <Trackpoint>
            <Time>2021-08-28T07:25:48.000Z</Time>
            <Position>
              <LatitudeDegrees>38.1744169257581233978271484375</LatitudeDegrees>
              <LongitudeDegrees>-2.01152256689965724945068359375</LongitudeDegrees>
            </Position>
            <AltitudeMeters>1126</AltitudeMeters>
            <DistanceMeters>43672.661229791</DistanceMeters>
          </Trackpoint>
          <Trackpoint>
            <Time>2021-08-28T07:25:49.000Z</Time>
            <Position>
              <LatitudeDegrees>38.17439697682857513427734375</LatitudeDegrees>
              <LongitudeDegrees>-2.01159616000950336456298828125</LongitudeDegrees>
            </Position>
            <AltitudeMeters>1126</AltitudeMeters>
            <DistanceMeters>43679.472066942</DistanceMeters>
          </Trackpoint>
          <Trackpoint>
            <Time>2021-08-28T07:25:50.000Z</Time>
            <Position>
              <LatitudeDegrees>38.17437828518450260162353515625</LatitudeDegrees>
              <LongitudeDegrees>-2.01166975311934947967529296875</LongitudeDegrees>
            </Position>
            <AltitudeMeters>1126.199951171875</AltitudeMeters>
            <DistanceMeters>43686.239009948</DistanceMeters>
          </Trackpoint>
          <Trackpoint>
            <Time>2021-08-28T07:25:54.000Z</Time>
            <Position>
              <LatitudeDegrees>38.1742970645427703857421875</LatitudeDegrees>
              <LongitudeDegrees>-2.01196596957743167877197265625</LongitudeDegrees>
            </Position>
            <AltitudeMeters>1127.199951171875</AltitudeMeters>
            <DistanceMeters>43713.688739248</DistanceMeters>
          </Trackpoint>
          <Trackpoint>
            <Time>2021-08-28T07:25:56.000Z</Time>
            <Position>
              <LatitudeDegrees>38.1742620281875133514404296875</LatitudeDegrees>
              <LongitudeDegrees>-2.012117095291614532470703125</LongitudeDegrees>
            </Position>
            <AltitudeMeters>1127.4000244140625</AltitudeMeters>
            <DistanceMeters>43727.47481987</DistanceMeters>
          </Trackpoint>
          <Trackpoint>
            <Time>2021-08-28T07:26:00.000Z</Time>
            <Position>
              <LatitudeDegrees>38.17421860992908477783203125</LatitudeDegrees>
              <LongitudeDegrees>-2.0124263875186443328857421875</LongitudeDegrees>
            </Position>
            <AltitudeMeters>1127.800048828125</AltitudeMeters>
            <DistanceMeters>43754.965639388</DistanceMeters>
          </Trackpoint>
          <Trackpoint>
            <Time>2021-08-28T07:26:03.000Z</Time>
            <Position>
              <LatitudeDegrees>38.174200840294361114501953125</LatitudeDegrees>
              <LongitudeDegrees>-2.01265211217105388641357421875</LongitudeDegrees>
            </Position>
            <AltitudeMeters>1128.199951171875</AltitudeMeters>
            <DistanceMeters>43774.81508007</DistanceMeters>
          </Trackpoint>
          <Trackpoint>
            <Time>2021-08-28T07:26:04.000Z</Time>
            <Position>
              <LatitudeDegrees>38.17419740371406078338623046875</LatitudeDegrees>
              <LongitudeDegrees>-2.01272537000477313995361328125</LongitudeDegrees>
            </Position>
            <AltitudeMeters>1128.4000244140625</AltitudeMeters>
            <DistanceMeters>43781.236242663</DistanceMeters>
          </Trackpoint>
          <Trackpoint>
            <Time>2021-08-28T07:26:10.000Z</Time>
            <Position>
              <LatitudeDegrees>38.1741782091557979583740234375</LatitudeDegrees>
              <LongitudeDegrees>-2.0131653361022472381591796875</LongitudeDegrees>
            </Position>
            <AltitudeMeters>1129.4000244140625</AltitudeMeters>
            <DistanceMeters>43819.791802368</DistanceMeters>
          </Trackpoint>
          <Trackpoint>
            <Time>2021-08-28T07:26:13.000Z</Time>
            <Position>
              <LatitudeDegrees>38.17416856996715068817138671875</LatitudeDegrees>
              <LongitudeDegrees>-2.01336910016834735870361328125</LongitudeDegrees>
            </Position>
            <AltitudeMeters>1129.5999755859375</AltitudeMeters>
            <DistanceMeters>43837.653286091</DistanceMeters>
          </Trackpoint>
          <Trackpoint>
            <Time>2021-08-28T07:26:19.000Z</Time>
            <Position>
              <LatitudeDegrees>38.17414795048534870147705078125</LatitudeDegrees>
              <LongitudeDegrees>-2.013728432357311248779296875</LongitudeDegrees>
            </Position>
            <AltitudeMeters>1130.4000244140625</AltitudeMeters>
            <DistanceMeters>43869.17810319</DistanceMeters>
          </Trackpoint>
          <Trackpoint>
            <Time>2021-08-28T07:26:20.000Z</Time>
            <Position>
              <LatitudeDegrees>38.17414342425763607025146484375</LatitudeDegrees>
              <LongitudeDegrees>-2.013788111507892608642578125</LongitudeDegrees>
            </Position>
            <AltitudeMeters>1130.4000244140625</AltitudeMeters>
            <DistanceMeters>43874.424404077</DistanceMeters>
          </Trackpoint>
          <Trackpoint>
            <Time>2021-08-28T07:26:21.000Z</Time>
            <Position>
              <LatitudeDegrees>38.17413705401122570037841796875</LatitudeDegrees>
              <LongitudeDegrees>-2.01384737156331539154052734375</LongitudeDegrees>
            </Position>
            <AltitudeMeters>1130.5999755859375</AltitudeMeters>
            <DistanceMeters>43879.658642506</DistanceMeters>
          </Trackpoint>
          <Trackpoint>
            <Time>2021-08-28T07:26:25.000Z</Time>
            <Position>
              <LatitudeDegrees>38.1741165183484554290771484375</LatitudeDegrees>
              <LongitudeDegrees>-2.01409162022173404693603515625</LongitudeDegrees>
            </Position>
            <AltitudeMeters>1131.5999755859375</AltitudeMeters>
            <DistanceMeters>43901.1519124</DistanceMeters>
          </Trackpoint>
          <Trackpoint>
            <Time>2021-08-28T07:26:29.000Z</Time>
            <Position>
              <LatitudeDegrees>38.17410503514111042022705078125</LatitudeDegrees>
              <LongitudeDegrees>-2.01433268375694751739501953125</LongitudeDegrees>
            </Position>
            <AltitudeMeters>1132.800048828125</AltitudeMeters>
            <DistanceMeters>43922.283341129</DistanceMeters>
          </Trackpoint>
          <Trackpoint>
            <Time>2021-08-28T07:26:30.000Z</Time>
            <Position>
              <LatitudeDegrees>38.17409983836114406585693359375</LatitudeDegrees>
              <LongitudeDegrees>-2.01439118944108486175537109375</LongitudeDegrees>
            </Position>
            <AltitudeMeters>1132.800048828125</AltitudeMeters>
            <DistanceMeters>43927.434104625</DistanceMeters>
          </Trackpoint>
          <Trackpoint>
            <Time>2021-08-28T07:26:33.000Z</Time>
            <Position>
              <LatitudeDegrees>38.17408994771540164947509765625</LatitudeDegrees>
              <LongitudeDegrees>-2.01456494629383087158203125</LongitudeDegrees>
            </Position>
            <AltitudeMeters>1133.800048828125</AltitudeMeters>
            <DistanceMeters>43942.676934641</DistanceMeters>
          </Trackpoint>
          <Trackpoint>
            <Time>2021-08-28T07:26:36.000Z</Time>
            <Position>
              <LatitudeDegrees>38.174081481993198394775390625</LatitudeDegrees>
              <LongitudeDegrees>-2.01473853550851345062255859375</LongitudeDegrees>
            </Position>
            <AltitudeMeters>1134.4000244140625</AltitudeMeters>
            <DistanceMeters>43957.8948629</DistanceMeters>
          </Trackpoint>
          <Trackpoint>
            <Time>2021-08-28T07:26:40.000Z</Time>
            <Position>
              <LatitudeDegrees>38.17406530492007732391357421875</LatitudeDegrees>
              <LongitudeDegrees>-2.01498194597661495208740234375</LongitudeDegrees>
            </Position>
            <AltitudeMeters>1134.5999755859375</AltitudeMeters>
            <DistanceMeters>43979.268903872</DistanceMeters>
          </Trackpoint>
          <Trackpoint>
            <Time>2021-08-28T07:26:41.000Z</Time>
            <Position>
              <LatitudeDegrees>38.1740605272352695465087890625</LatitudeDegrees>
              <LongitudeDegrees>-2.015043385326862335205078125</LongitudeDegrees>
            </Position>
            <AltitudeMeters>1135</AltitudeMeters>
            <DistanceMeters>43984.671237355</DistanceMeters>
          </Trackpoint>
          <Trackpoint>
            <Time>2021-08-28T07:26:45.000Z</Time>
            <Position>
              <LatitudeDegrees>38.17404284141957759857177734375</LatitudeDegrees>
              <LongitudeDegrees>-2.01529408805072307586669921875</LongitudeDegrees>
            </Position>
            <AltitudeMeters>1135.800048828125</AltitudeMeters>
            <DistanceMeters>44006.695715701</DistanceMeters>
          </Trackpoint>
          <Trackpoint>
            <Time>2021-08-28T07:26:47.000Z</Time>
            <Position>
              <LatitudeDegrees>38.1740342080593109130859375</LatitudeDegrees>
              <LongitudeDegrees>-2.01542166061699390411376953125</LongitudeDegrees>
            </Position>
            <AltitudeMeters>1136</AltitudeMeters>
            <DistanceMeters>44017.899603091</DistanceMeters>
          </Trackpoint>
          <Trackpoint>
            <Time>2021-08-28T07:26:50.000Z</Time>
            <Position>
              <LatitudeDegrees>38.174017779529094696044921875</LatitudeDegrees>
              <LongitudeDegrees>-2.01560497283935546875</LongitudeDegrees>
            </Position>
            <AltitudeMeters>1136.800048828125</AltitudeMeters>
            <DistanceMeters>44034.042961049</DistanceMeters>
          </Trackpoint>
          <Trackpoint>
            <Time>2021-08-28T07:26:51.000Z</Time>
            <Position>
              <LatitudeDegrees>38.17401099018752574920654296875</LatitudeDegrees>
              <LongitudeDegrees>-2.0156661607325077056884765625</LongitudeDegrees>
            </Position>
            <AltitudeMeters>1137</AltitudeMeters>
            <DistanceMeters>44039.448636527</DistanceMeters>
          </Trackpoint>
          <Trackpoint>
            <Time>2021-08-28T07:26:54.000Z</Time>
            <Position>
              <LatitudeDegrees>38.17399975843727588653564453125</LatitudeDegrees>
              <LongitudeDegrees>-2.015856094658374786376953125</LongitudeDegrees>
            </Position>
            <AltitudeMeters>1137.5999755859375</AltitudeMeters>
            <DistanceMeters>44056.114382573</DistanceMeters>
          </Trackpoint>
          <Trackpoint>
            <Time>2021-08-28T07:26:58.000Z</Time>
            <Position>
              <LatitudeDegrees>38.17398131825029850006103515625</LatitudeDegrees>
              <LongitudeDegrees>-2.01611333526670932769775390625</LongitudeDegrees>
            </Position>
            <AltitudeMeters>1138</AltitudeMeters>
            <DistanceMeters>44078.715962705</DistanceMeters>
          </Trackpoint>
          <Trackpoint>
            <Time>2021-08-28T07:27:00.000Z</Time>
            <Position>
              <LatitudeDegrees>38.1739730201661586761474609375</LatitudeDegrees>
              <LongitudeDegrees>-2.0162455178797245025634765625</LongitudeDegrees>
            </Position>
            <AltitudeMeters>1138.199951171875</AltitudeMeters>
            <DistanceMeters>44090.318564983</DistanceMeters>
          </Trackpoint>
          <Trackpoint>
            <Time>2021-08-28T07:27:05.000Z</Time>
            <Position>
              <LatitudeDegrees>38.17393706180155277252197265625</LatitudeDegrees>
              <LongitudeDegrees>-2.01657149009406566619873046875</LongitudeDegrees>
            </Position>
            <AltitudeMeters>1138.4000244140625</AltitudeMeters>
            <DistanceMeters>44119.120125919</DistanceMeters>
          </Trackpoint>
          <Trackpoint>
            <Time>2021-08-28T07:27:08.000Z</Time>
            <Position>
              <LatitudeDegrees>38.1739240698516368865966796875</LatitudeDegrees>
              <LongitudeDegrees>-2.01676712371408939361572265625</LongitudeDegrees>
            </Position>
            <AltitudeMeters>1139</AltitudeMeters>
            <DistanceMeters>44136.298685177</DistanceMeters>
          </Trackpoint>
          <Trackpoint>
            <Time>2021-08-28T07:27:10.000Z</Time>
            <Position>
              <LatitudeDegrees>38.17391308955848217010498046875</LatitudeDegrees>
              <LongitudeDegrees>-2.016896121203899383544921875</LongitudeDegrees>
            </Position>
            <AltitudeMeters>1139.800048828125</AltitudeMeters>
            <DistanceMeters>44147.651494569</DistanceMeters>
          </Trackpoint>
          <Trackpoint>
            <Time>2021-08-28T07:27:11.000Z</Time>
            <Position>
              <LatitudeDegrees>38.1739069707691669464111328125</LatitudeDegrees>
              <LongitudeDegrees>-2.01695940457284450531005859375</LongitudeDegrees>
            </Position>
            <AltitudeMeters>1140.199951171875</AltitudeMeters>
            <DistanceMeters>44153.229813619</DistanceMeters>
          </Trackpoint>
          <Trackpoint>
            <Time>2021-08-28T07:27:16.000Z</Time>
            <Position>
              <LatitudeDegrees>38.1738798134028911590576171875</LatitudeDegrees>
              <LongitudeDegrees>-2.01726718805730342864990234375</LongitudeDegrees>
            </Position>
            <AltitudeMeters>1141.199951171875</AltitudeMeters>
            <DistanceMeters>44180.329593269</DistanceMeters>
          </Trackpoint>
          <Trackpoint>
            <Time>2021-08-28T07:27:20.000Z</Time>
            <Position>
              <LatitudeDegrees>38.1738560087978839874267578125</LatitudeDegrees>
              <LongitudeDegrees>-2.0174967683851718902587890625</LongitudeDegrees>
            </Position>
            <AltitudeMeters>1142.199951171875</AltitudeMeters>
            <DistanceMeters>44200.591909415</DistanceMeters>
          </Trackpoint>
          <Trackpoint>
            <Time>2021-08-28T07:27:24.000Z</Time>
            <Position>
              <LatitudeDegrees>38.1738375686109066009521484375</LatitudeDegrees>
              <LongitudeDegrees>-2.01772735454142093658447265625</LongitudeDegrees>
            </Position>
            <AltitudeMeters>1143.4000244140625</AltitudeMeters>
            <DistanceMeters>44220.872489334</DistanceMeters>
          </Trackpoint>
          <Trackpoint>
            <Time>2021-08-28T07:27:26.000Z</Time>
            <Position>
              <LatitudeDegrees>38.1738278456032276153564453125</LatitudeDegrees>
              <LongitudeDegrees>-2.01784118078649044036865234375</LongitudeDegrees>
            </Position>
            <AltitudeMeters>1143.800048828125</AltitudeMeters>
            <DistanceMeters>44230.890937301</DistanceMeters>
          </Trackpoint>
          <Trackpoint>
            <Time>2021-08-28T07:27:29.000Z</Time>
            <Position>
              <LatitudeDegrees>38.17381284199655055999755859375</LatitudeDegrees>
              <LongitudeDegrees>-2.0180130936205387115478515625</LongitudeDegrees>
            </Position>
            <AltitudeMeters>1144.4000244140625</AltitudeMeters>
            <DistanceMeters>44246.025563794</DistanceMeters>
          </Trackpoint>
          <Trackpoint>
            <Time>2021-08-28T07:27:30.000Z</Time>
            <Position>
              <LatitudeDegrees>38.17380823194980621337890625</LatitudeDegrees>
              <LongitudeDegrees>-2.01807168312370777130126953125</LongitudeDegrees>
            </Position>
            <AltitudeMeters>1144.5999755859375</AltitudeMeters>
            <DistanceMeters>44251.177203792</DistanceMeters>
          </Trackpoint>
          <Trackpoint>
            <Time>2021-08-28T07:27:31.000Z</Time>
            <Position>
              <LatitudeDegrees>38.173804543912410736083984375</LatitudeDegrees>
              <LongitudeDegrees>-2.01812918297946453094482421875</LongitudeDegrees>
            </Position>
            <AltitudeMeters>1144.800048828125</AltitudeMeters>
            <DistanceMeters>44256.225260421</DistanceMeters>
          </Trackpoint>
          <Trackpoint>
            <Time>2021-08-28T07:27:35.000Z</Time>
            <Position>
              <LatitudeDegrees>38.17379021085798740386962890625</LatitudeDegrees>
              <LongitudeDegrees>-2.01836069114506244659423828125</LongitudeDegrees>
            </Position>
            <AltitudeMeters>1145.199951171875</AltitudeMeters>
            <DistanceMeters>44276.544540801</DistanceMeters>
          </Trackpoint>
          <Trackpoint>
            <Time>2021-08-28T07:27:36.000Z</Time>
            <Position>
              <LatitudeDegrees>38.173785768449306488037109375</LatitudeDegrees>
              <LongitudeDegrees>-2.018418610095977783203125</LongitudeDegrees>
            </Position>
            <AltitudeMeters>1145.4000244140625</AltitudeMeters>
            <DistanceMeters>44281.635348143</DistanceMeters>
          </Trackpoint>
          <Trackpoint>
            <Time>2021-08-28T07:27:40.000Z</Time>
            <Position>
              <LatitudeDegrees>38.17376322112977504730224609375</LatitudeDegrees>
              <LongitudeDegrees>-2.01865263283252716064453125</LongitudeDegrees>
            </Position>
            <AltitudeMeters>1145.5999755859375</AltitudeMeters>
            <DistanceMeters>44302.265120386</DistanceMeters>
          </Trackpoint>
          <Trackpoint>
            <Time>2021-08-28T07:27:45.000Z</Time>
            <Position>
              <LatitudeDegrees>38.17373924888670444488525390625</LatitudeDegrees>
              <LongitudeDegrees>-2.01893434859812259674072265625</LongitudeDegrees>
            </Position>
            <AltitudeMeters>1146.4000244140625</AltitudeMeters>
            <DistanceMeters>44327.058899525</DistanceMeters>
          </Trackpoint>
          <Trackpoint>
            <Time>2021-08-28T07:27:46.000Z</Time>
            <Position>
              <LatitudeDegrees>38.173732459545135498046875</LatitudeDegrees>
              <LongitudeDegrees>-2.01899218373000621795654296875</LongitudeDegrees>
            </Position>
            <AltitudeMeters>1146.4000244140625</AltitudeMeters>
            <DistanceMeters>44332.174479799</DistanceMeters>
          </Trackpoint>
          <Trackpoint>
            <Time>2021-08-28T07:27:49.000Z</Time>
            <Position>
              <LatitudeDegrees>38.17370153032243251800537109375</LatitudeDegrees>
              <LongitudeDegrees>-2.019169293344020843505859375</LongitudeDegrees>
            </Position>
            <AltitudeMeters>1147</AltitudeMeters>
            <DistanceMeters>44348.049345889</DistanceMeters>
          </Trackpoint>
          <Trackpoint>
            <Time>2021-08-28T07:27:50.000Z</Time>
            <Position>
              <LatitudeDegrees>38.173685856163501739501953125</LatitudeDegrees>
              <LongitudeDegrees>-2.019226960837841033935546875</LongitudeDegrees>
            </Position>
            <AltitudeMeters>1147</AltitudeMeters>
            <DistanceMeters>44353.387783981</DistanceMeters>
          </Trackpoint>
          <Trackpoint>
            <Time>2021-08-28T07:27:52.000Z</Time>
            <Position>
              <LatitudeDegrees>38.173648305237293243408203125</LatitudeDegrees>
              <LongitudeDegrees>-2.019335925579071044921875</LongitudeDegrees>
            </Position>
            <AltitudeMeters>1147.4000244140625</AltitudeMeters>
            <DistanceMeters>44363.798306421</DistanceMeters>
          </Trackpoint>
          <Trackpoint>
            <Time>2021-08-28T07:27:53.000Z</Time>
            <Position>
              <LatitudeDegrees>38.1736276857554912567138671875</LatitudeDegrees>
              <LongitudeDegrees>-2.01938965357840061187744140625</LongitudeDegrees>
            </Position>
            <AltitudeMeters>1147.5999755859375</AltitudeMeters>
            <DistanceMeters>44369.029093324</DistanceMeters>
          </Trackpoint>
          <Trackpoint>
            <Time>2021-08-28T07:27:57.000Z</Time>
            <Position>
              <LatitudeDegrees>38.1735522486269474029541015625</LatitudeDegrees>
              <LongitudeDegrees>-2.019601128995418548583984375</LongitudeDegrees>
            </Position>
            <AltitudeMeters>1148.800048828125</AltitudeMeters>
            <DistanceMeters>44389.348818109</DistanceMeters>
          </Trackpoint>
          <Trackpoint>
            <Time>2021-08-28T07:28:00.000Z</Time>
            <Position>
              <LatitudeDegrees>38.17350137047469615936279296875</LatitudeDegrees>
              <LongitudeDegrees>-2.01975510455667972564697265625</LongitudeDegrees>
            </Position>
            <AltitudeMeters>1150</AltitudeMeters>
            <DistanceMeters>44403.963172972</DistanceMeters>
          </Trackpoint>
          <Trackpoint>
            <Time>2021-08-28T07:28:02.000Z</Time>
            <Position>
              <LatitudeDegrees>38.17346566356718540191650390625</LatitudeDegrees>
              <LongitudeDegrees>-2.0198549330234527587890625</LongitudeDegrees>
            </Position>
            <AltitudeMeters>1150.4000244140625</AltitudeMeters>
            <DistanceMeters>44413.559930218</DistanceMeters>
          </Trackpoint>
          <Trackpoint>
            <Time>2021-08-28T07:28:10.000Z</Time>
            <Position>
              <LatitudeDegrees>38.17331068217754364013671875</LatitudeDegrees>
              <LongitudeDegrees>-2.02026732265949249267578125</LongitudeDegrees>
            </Position>
            <AltitudeMeters>1150.800048828125</AltitudeMeters>
            <DistanceMeters>44453.554776652</DistanceMeters>
          </Trackpoint>
          <Trackpoint>
            <Time>2021-08-28T07:28:11.000Z</Time>
            <Position>
              <LatitudeDegrees>38.173288889229297637939453125</LatitudeDegrees>
              <LongitudeDegrees>-2.0203211344778537750244140625</LongitudeDegrees>
            </Position>
            <AltitudeMeters>1151.199951171875</AltitudeMeters>
            <DistanceMeters>44458.850757906</DistanceMeters>
          </Trackpoint>
          <Trackpoint>
            <Time>2021-08-28T07:28:13.000Z</Time>
            <Position>
              <LatitudeDegrees>38.17325142212212085723876953125</LatitudeDegrees>
              <LongitudeDegrees>-2.020432949066162109375</LongitudeDegrees>
            </Position>
            <AltitudeMeters>1151.5999755859375</AltitudeMeters>
            <DistanceMeters>44469.486111099</DistanceMeters>
          </Trackpoint>
          <Trackpoint>
            <Time>2021-08-28T07:28:16.000Z</Time>
            <Position>
              <LatitudeDegrees>38.17319040186703205108642578125</LatitudeDegrees>
              <LongitudeDegrees>-2.0206004194915294647216796875</LongitudeDegrees>
            </Position>
            <AltitudeMeters>1152.4000244140625</AltitudeMeters>
            <DistanceMeters>44485.637298309</DistanceMeters>
          </Trackpoint>
          <Trackpoint>
            <Time>2021-08-28T07:28:20.000Z</Time>
            <Position>
              <LatitudeDegrees>38.17312435247004032135009765625</LatitudeDegrees>
              <LongitudeDegrees>-2.020815499126911163330078125</LongitudeDegrees>
            </Position>
            <AltitudeMeters>1153.4000244140625</AltitudeMeters>
            <DistanceMeters>44505.841819234</DistanceMeters>
          </Trackpoint>
          <Trackpoint>
            <Time>2021-08-28T07:28:21.000Z</Time>
            <Position>
              <LatitudeDegrees>38.17310607992112636566162109375</LatitudeDegrees>
              <LongitudeDegrees>-2.0208726637065410614013671875</LongitudeDegrees>
            </Position>
            <AltitudeMeters>1153.5999755859375</AltitudeMeters>
            <DistanceMeters>44511.242480945</DistanceMeters>
          </Trackpoint>
          <Trackpoint>
            <Time>2021-08-28T07:28:25.000Z</Time>
            <Position>
              <LatitudeDegrees>38.1730339117348194122314453125</LatitudeDegrees>
              <LongitudeDegrees>-2.02110593207180500030517578125</LongitudeDegrees>
            </Position>
            <AltitudeMeters>1154.5999755859375</AltitudeMeters>
            <DistanceMeters>44533.176985109</DistanceMeters>
          </Trackpoint>
          <Trackpoint>
            <Time>2021-08-28T07:28:26.000Z</Time>
            <Position>
              <LatitudeDegrees>38.17301371134817600250244140625</LatitudeDegrees>
              <LongitudeDegrees>-2.0211636833846569061279296875</LongitudeDegrees>
            </Position>
            <AltitudeMeters>1155</AltitudeMeters>
            <DistanceMeters>44538.7081603</DistanceMeters>
          </Trackpoint>
          <Trackpoint>
            <Time>2021-08-28T07:28:29.000Z</Time>
            <Position>
              <LatitudeDegrees>38.1729505956172943115234375</LatitudeDegrees>
              <LongitudeDegrees>-2.0213403739035129547119140625</LongitudeDegrees>
            </Position>
            <AltitudeMeters>1155.5999755859375</AltitudeMeters>
            <DistanceMeters>44555.690048337</DistanceMeters>
          </Trackpoint>
          <Trackpoint>
            <Time>2021-08-28T07:28:30.000Z</Time>
            <Position>
              <LatitudeDegrees>38.1729304790496826171875</LatitudeDegrees>
              <LongitudeDegrees>-2.0213990472257137298583984375</LongitudeDegrees>
            </Position>
            <AltitudeMeters>1155.800048828125</AltitudeMeters>
            <DistanceMeters>44561.29017829</DistanceMeters>
          </Trackpoint>
          <Trackpoint>
            <Time>2021-08-28T07:28:31.000Z</Time>
            <Position>
              <LatitudeDegrees>38.17291094921529293060302734375</LatitudeDegrees>
              <LongitudeDegrees>-2.021460235118865966796875</LongitudeDegrees>
            </Position>
            <AltitudeMeters>1156.199951171875</AltitudeMeters>
            <DistanceMeters>44567.067302362</DistanceMeters>
          </Trackpoint>
          <Trackpoint>
            <Time>2021-08-28T07:28:39.000Z</Time>
            <Position>
              <LatitudeDegrees>38.17274549044668674468994140625</LatitudeDegrees>
              <LongitudeDegrees>-2.02194479294121265411376953125</LongitudeDegrees>
            </Position>
            <AltitudeMeters>1157.5999755859375</AltitudeMeters>
            <DistanceMeters>44613.292891045</DistanceMeters>
          </Trackpoint>
          <Trackpoint>
            <Time>2021-08-28T07:28:40.000Z</Time>
            <Position>
              <LatitudeDegrees>38.17272470332682132720947265625</LatitudeDegrees>
              <LongitudeDegrees>-2.02200313098728656768798828125</LongitudeDegrees>
            </Position>
            <AltitudeMeters>1157.800048828125</AltitudeMeters>
            <DistanceMeters>44618.898661824</DistanceMeters>
          </Trackpoint>
          <Trackpoint>
            <Time>2021-08-28T07:28:46.000Z</Time>
            <Position>
              <LatitudeDegrees>38.17260467447340488433837890625</LatitudeDegrees>
              <LongitudeDegrees>-2.0223519019782543182373046875</LongitudeDegrees>
            </Position>
            <AltitudeMeters>1158.5999755859375</AltitudeMeters>
            <DistanceMeters>44652.212268578</DistanceMeters>
          </Trackpoint>
          <Trackpoint>
            <Time>2021-08-28T07:28:50.000Z</Time>
            <Position>
              <LatitudeDegrees>38.1725222803652286529541015625</LatitudeDegrees>
              <LongitudeDegrees>-2.02258466742932796478271484375</LongitudeDegrees>
            </Position>
            <AltitudeMeters>1159.4000244140625</AltitudeMeters>
            <DistanceMeters>44674.549004769</DistanceMeters>
          </Trackpoint>
          <Trackpoint>
            <Time>2021-08-28T07:28:53.000Z</Time>
            <Position>
              <LatitudeDegrees>38.172461092472076416015625</LatitudeDegrees>
              <LongitudeDegrees>-2.022763788700103759765625</LongitudeDegrees>
            </Position>
            <AltitudeMeters>1159.5999755859375</AltitudeMeters>
            <DistanceMeters>44691.637968231</DistanceMeters>
          </Trackpoint>
          <Trackpoint>
            <Time>2021-08-28T07:28:56.000Z</Time>
            <Position>
              <LatitudeDegrees>38.1723911873996257781982421875</LatitudeDegrees>
              <LongitudeDegrees>-2.02295347116887569427490234375</LongitudeDegrees>
            </Position>
            <AltitudeMeters>1159.800048828125</AltitudeMeters>
            <DistanceMeters>44709.968520445</DistanceMeters>
          </Trackpoint>
          <Trackpoint>
            <Time>2021-08-28T07:29:00.000Z</Time>
            <Position>
              <LatitudeDegrees>38.17229236476123332977294921875</LatitudeDegrees>
              <LongitudeDegrees>-2.02323527075350284576416015625</LongitudeDegrees>
            </Position>
            <AltitudeMeters>1159.800048828125</AltitudeMeters>
            <DistanceMeters>44736.968150279</DistanceMeters>
          </Trackpoint>
          <Trackpoint>
            <Time>2021-08-28T07:29:04.000Z</Time>
            <Position>
              <LatitudeDegrees>38.17219220101833343505859375</LatitudeDegrees>
              <LongitudeDegrees>-2.02351522631943225860595703125</LongitudeDegrees>
            </Position>
            <AltitudeMeters>1159.800048828125</AltitudeMeters>
            <DistanceMeters>44763.882024248</DistanceMeters>
          </Trackpoint>
          <Trackpoint>
            <Time>2021-08-28T07:29:10.000Z</Time>
            <Position>
              <LatitudeDegrees>38.17204870283603668212890625</LatitudeDegrees>
              <LongitudeDegrees>-2.0239149592816829681396484375</LongitudeDegrees>
            </Position>
            <AltitudeMeters>1160.199951171875</AltitudeMeters>
            <DistanceMeters>44802.333219499</DistanceMeters>
          </Trackpoint>
          <Trackpoint>
            <Time>2021-08-28T07:29:12.000Z</Time>
            <Position>
              <LatitudeDegrees>38.172005452215671539306640625</LatitudeDegrees>
              <LongitudeDegrees>-2.02405200339853763580322265625</LongitudeDegrees>
            </Position>
            <AltitudeMeters>1160.800048828125</AltitudeMeters>
            <DistanceMeters>44815.254756305</DistanceMeters>
          </Trackpoint>
          <Trackpoint>
            <Time>2021-08-28T07:29:13.000Z</Time>
            <Position>
              <LatitudeDegrees>38.17198164761066436767578125</LatitudeDegrees>
              <LongitudeDegrees>-2.02411972917616367340087890625</LongitudeDegrees>
            </Position>
            <AltitudeMeters>1160.800048828125</AltitudeMeters>
            <DistanceMeters>44821.74585303</DistanceMeters>
          </Trackpoint>
          <Trackpoint>
            <Time>2021-08-28T07:29:20.000Z</Time>
            <Position>
              <LatitudeDegrees>38.1718289293348789215087890625</LatitudeDegrees>
              <LongitudeDegrees>-2.0245788060128688812255859375</LongitudeDegrees>
            </Position>
            <AltitudeMeters>1161.5999755859375</AltitudeMeters>
            <DistanceMeters>44865.36404655</DistanceMeters>
          </Trackpoint>
          <Trackpoint>
            <Time>2021-08-28T07:29:22.000Z</Time>
            <Position>
              <LatitudeDegrees>38.17178450524806976318359375</LatitudeDegrees>
              <LongitudeDegrees>-2.02469908632338047027587890625</LongitudeDegrees>
            </Position>
            <AltitudeMeters>1161.800048828125</AltitudeMeters>
            <DistanceMeters>44876.992303714</DistanceMeters>
          </Trackpoint>
          <Trackpoint>
            <Time>2021-08-28T07:29:25.000Z</Time>
            <Position>
              <LatitudeDegrees>38.17172390408813953399658203125</LatitudeDegrees>
              <LongitudeDegrees>-2.02487745322287082672119140625</LongitudeDegrees>
            </Position>
            <AltitudeMeters>1162.800048828125</AltitudeMeters>
            <DistanceMeters>44893.994917257</DistanceMeters>
          </Trackpoint>
          <Trackpoint>
            <Time>2021-08-28T07:29:30.000Z</Time>
            <Position>
              <LatitudeDegrees>38.17163321189582347869873046875</LatitudeDegrees>
              <LongitudeDegrees>-2.02518691308796405792236328125</LongitudeDegrees>
            </Position>
            <AltitudeMeters>1164</AltitudeMeters>
            <DistanceMeters>44922.893351984</DistanceMeters>
          </Trackpoint>
          <Trackpoint>
            <Time>2021-08-28T07:29:34.000Z</Time>
            <Position>
              <LatitudeDegrees>38.17159096710383892059326171875</LatitudeDegrees>
              <LongitudeDegrees>-2.025420852005481719970703125</LongitudeDegrees>
            </Position>
            <AltitudeMeters>1165</AltitudeMeters>
            <DistanceMeters>44943.896190704</DistanceMeters>
          </Trackpoint>
          <Trackpoint>
            <Time>2021-08-28T07:29:37.000Z</Time>
            <Position>
              <LatitudeDegrees>38.171570599079132080078125</LatitudeDegrees>
              <LongitudeDegrees>-2.02560416422784328460693359375</LongitudeDegrees>
            </Position>
            <AltitudeMeters>1165.199951171875</AltitudeMeters>
            <DistanceMeters>44960.095667595</DistanceMeters>
          </Trackpoint>
          <Trackpoint>
            <Time>2021-08-28T07:29:40.000Z</Time>
            <Position>
              <LatitudeDegrees>38.17154771648347377777099609375</LatitudeDegrees>
              <LongitudeDegrees>-2.02579510398209095001220703125</LongitudeDegrees>
            </Position>
            <AltitudeMeters>1165.4000244140625</AltitudeMeters>
            <DistanceMeters>44976.996536746</DistanceMeters>
          </Trackpoint>
          <Trackpoint>
            <Time>2021-08-28T07:29:46.000Z</Time>
            <Position>
              <LatitudeDegrees>38.1714896298944950103759765625</LatitudeDegrees>
              <LongitudeDegrees>-2.02618251554667949676513671875</LongitudeDegrees>
            </Position>
            <AltitudeMeters>1166</AltitudeMeters>
            <DistanceMeters>45011.506806552</DistanceMeters>
          </Trackpoint>
          <Trackpoint>
            <Time>2021-08-28T07:29:48.000Z</Time>
            <Position>
              <LatitudeDegrees>38.1714782305061817169189453125</LatitudeDegrees>
              <LongitudeDegrees>-2.02631704509258270263671875</LongitudeDegrees>
            </Position>
            <AltitudeMeters>1166.199951171875</AltitudeMeters>
            <DistanceMeters>45023.346311467</DistanceMeters>
          </Trackpoint>
          <Trackpoint>
            <Time>2021-08-28T07:29:50.000Z</Time>
            <Position>
              <LatitudeDegrees>38.17147026769816875457763671875</LatitudeDegrees>
              <LongitudeDegrees>-2.02644906006753444671630859375</LongitudeDegrees>
            </Position>
            <AltitudeMeters>1166.199951171875</AltitudeMeters>
            <DistanceMeters>45034.931778927</DistanceMeters>
          </Trackpoint>
          <Trackpoint>
            <Time>2021-08-28T07:29:54.000Z</Time>
            <Position>
              <LatitudeDegrees>38.17143891938030719757080078125</LatitudeDegrees>
              <LongitudeDegrees>-2.026704289019107818603515625</LongitudeDegrees>
            </Position>
            <AltitudeMeters>1166.4000244140625</AltitudeMeters>
            <DistanceMeters>45057.535356635</DistanceMeters>
          </Trackpoint>
          <Trackpoint>
            <Time>2021-08-28T07:29:55.000Z</Time>
            <Position>
              <LatitudeDegrees>38.171431124210357666015625</LatitudeDegrees>
              <LongitudeDegrees>-2.02676497399806976318359375</LongitudeDegrees>
            </Position>
            <AltitudeMeters>1166.4000244140625</AltitudeMeters>
            <DistanceMeters>45062.914238017</DistanceMeters>
          </Trackpoint>
          <Trackpoint>
            <Time>2021-08-28T07:29:59.000Z</Time>
            <Position>
              <LatitudeDegrees>38.17138829268515110015869140625</LatitudeDegrees>
              <LongitudeDegrees>-2.0270092226564884185791015625</LongitudeDegrees>
            </Position>
            <AltitudeMeters>1167.199951171875</AltitudeMeters>
            <DistanceMeters>45084.811659308</DistanceMeters>
          </Trackpoint>
          <Trackpoint>
            <Time>2021-08-28T07:30:00.000Z</Time>
            <Position>
              <LatitudeDegrees>38.1713761389255523681640625</LatitudeDegrees>
              <LongitudeDegrees>-2.02707267366349697113037109375</LongitudeDegrees>
            </Position>
            <AltitudeMeters>1167.5999755859375</AltitudeMeters>
            <DistanceMeters>45090.525918352</DistanceMeters>
          </Trackpoint>
          <Trackpoint>
            <Time>2021-08-28T07:30:02.000Z</Time>
            <Position>
              <LatitudeDegrees>38.17135275341570377349853515625</LatitudeDegrees>
              <LongitudeDegrees>-2.02720292843878269195556640625</LongitudeDegrees>
            </Position>
            <AltitudeMeters>1168.199951171875</AltitudeMeters>
            <DistanceMeters>45102.216907919</DistanceMeters>
          </Trackpoint>
          <Trackpoint>
            <Time>2021-08-28T07:30:03.000Z</Time>
            <Position>
              <LatitudeDegrees>38.1713384203612804412841796875</LatitudeDegrees>
              <LongitudeDegrees>-2.02726713381707668304443359375</LongitudeDegrees>
            </Position>
            <AltitudeMeters>1168.4000244140625</AltitudeMeters>
            <DistanceMeters>45108.056220263</DistanceMeters>
          </Trackpoint>
          <Trackpoint>
            <Time>2021-08-28T07:30:09.000Z</Time>
            <Position>
              <LatitudeDegrees>38.1712368316948413848876953125</LatitudeDegrees>
              <LongitudeDegrees>-2.0276475884020328521728515625</LongitudeDegrees>
            </Position>
            <AltitudeMeters>1169.5999755859375</AltitudeMeters>
            <DistanceMeters>45143.214563572</DistanceMeters>
          </Trackpoint>
          <Trackpoint>
            <Time>2021-08-28T07:30:10.000Z</Time>
            <Position>
              <LatitudeDegrees>38.17122082225978374481201171875</LatitudeDegrees>
              <LongitudeDegrees>-2.02770601026713848114013671875</LongitudeDegrees>
            </Position>
            <AltitudeMeters>1169.5999755859375</AltitudeMeters>
            <DistanceMeters>45148.628585011</DistanceMeters>
          </Trackpoint>
          <Trackpoint>
            <Time>2021-08-28T07:30:16.000Z</Time>
            <Position>
              <LatitudeDegrees>38.17111621610820293426513671875</LatitudeDegrees>
              <LongitudeDegrees>-2.0280826091766357421875</LongitudeDegrees>
            </Position>
            <AltitudeMeters>1170.800048828125</AltitudeMeters>
            <DistanceMeters>45183.578010189</DistanceMeters>
          </Trackpoint>
          <Trackpoint>
            <Time>2021-08-28T07:30:19.000Z</Time>
            <Position>
              <LatitudeDegrees>38.17106139846146106719970703125</LatitudeDegrees>
              <LongitudeDegrees>-2.02826625667512416839599609375</LongitudeDegrees>
            </Position>
            <AltitudeMeters>1171.199951171875</AltitudeMeters>
            <DistanceMeters>45200.76655408</DistanceMeters>
          </Trackpoint>
          <Trackpoint>
            <Time>2021-08-28T07:30:20.000Z</Time>
            <Position>
              <LatitudeDegrees>38.17104597575962543487548828125</LatitudeDegrees>
              <LongitudeDegrees>-2.02832736074924468994140625</LongitudeDegrees>
            </Position>
            <AltitudeMeters>1171.4000244140625</AltitudeMeters>
            <DistanceMeters>45206.381981663</DistanceMeters>
          </Trackpoint>
          <Trackpoint>
            <Time>2021-08-28T07:30:23.000Z</Time>
            <Position>
              <LatitudeDegrees>38.1709991209208965301513671875</LatitudeDegrees>
              <LongitudeDegrees>-2.0285142771899700164794921875</LongitudeDegrees>
            </Position>
            <AltitudeMeters>1171.800048828125</AltitudeMeters>
            <DistanceMeters>45223.548709503</DistanceMeters>
          </Trackpoint>
          <Trackpoint>
            <Time>2021-08-28T07:30:27.000Z</Time>
            <Position>
              <LatitudeDegrees>38.17093449644744396209716796875</LatitudeDegrees>
              <LongitudeDegrees>-2.02875089831650257110595703125</LongitudeDegrees>
            </Position>
            <AltitudeMeters>1172.4000244140625</AltitudeMeters>
            <DistanceMeters>45245.467564107</DistanceMeters>
          </Trackpoint>
          <Trackpoint>
            <Time>2021-08-28T07:30:30.000Z</Time>
            <Position>
              <LatitudeDegrees>38.17088328301906585693359375</LatitudeDegrees>
              <LongitudeDegrees>-2.02893228270113468170166015625</LongitudeDegrees>
            </Position>
            <AltitudeMeters>1172.5999755859375</AltitudeMeters>
            <DistanceMeters>45262.331526498</DistanceMeters>
          </Trackpoint>
          <Trackpoint>
            <Time>2021-08-28T07:30:31.000Z</Time>
            <Position>
              <LatitudeDegrees>38.17086425609886646270751953125</LatitudeDegrees>
              <LongitudeDegrees>-2.028991542756557464599609375</LongitudeDegrees>
            </Position>
            <AltitudeMeters>1173</AltitudeMeters>
            <DistanceMeters>45267.932462631</DistanceMeters>
          </Trackpoint>
          <Trackpoint>
            <Time>2021-08-28T07:30:36.000Z</Time>
            <Position>
              <LatitudeDegrees>38.17078228108584880828857421875</LatitudeDegrees>
              <LongitudeDegrees>-2.0292917825281620025634765625</LongitudeDegrees>
            </Position>
            <AltitudeMeters>1173.5999755859375</AltitudeMeters>
            <DistanceMeters>45295.743325753</DistanceMeters>
          </Trackpoint>
          <Trackpoint>
            <Time>2021-08-28T07:30:40.000Z</Time>
            <Position>
              <LatitudeDegrees>38.17071430385112762451171875</LatitudeDegrees>
              <LongitudeDegrees>-2.0295361988246440887451171875</LongitudeDegrees>
            </Position>
            <AltitudeMeters>1174</AltitudeMeters>
            <DistanceMeters>45318.429050707</DistanceMeters>
          </Trackpoint>
          <Trackpoint>
            <Time>2021-08-28T07:30:43.000Z</Time>
            <Position>
              <LatitudeDegrees>38.1706594862043857574462890625</LatitudeDegrees>
              <LongitudeDegrees>-2.02971146441996097564697265625</LongitudeDegrees>
            </Position>
            <AltitudeMeters>1174.4000244140625</AltitudeMeters>
            <DistanceMeters>45334.934181611</DistanceMeters>
          </Trackpoint>
          <Trackpoint>
            <Time>2021-08-28T07:30:47.000Z</Time>
            <Position>
              <LatitudeDegrees>38.170594274997711181640625</LatitudeDegrees>
              <LongitudeDegrees>-2.029954455792903900146484375</LongitudeDegrees>
            </Position>
            <AltitudeMeters>1175.199951171875</AltitudeMeters>
            <DistanceMeters>45357.401519531</DistanceMeters>
          </Trackpoint>
          <Trackpoint>
            <Time>2021-08-28T07:30:50.000Z</Time>
            <Position>
              <LatitudeDegrees>38.17054331302642822265625</LatitudeDegrees>
              <LongitudeDegrees>-2.03013692982494831085205078125</LongitudeDegrees>
            </Position>
            <AltitudeMeters>1175.800048828125</AltitudeMeters>
            <DistanceMeters>45374.346144361</DistanceMeters>
          </Trackpoint>
          <Trackpoint>
            <Time>2021-08-28T07:30:51.000Z</Time>
            <Position>
              <LatitudeDegrees>38.170526884496212005615234375</LatitudeDegrees>
              <LongitudeDegrees>-2.030198872089385986328125</LongitudeDegrees>
            </Position>
            <AltitudeMeters>1176</AltitudeMeters>
            <DistanceMeters>45380.066720995</DistanceMeters>
          </Trackpoint>
          <Trackpoint>
            <Time>2021-08-28T07:30:54.000Z</Time>
            <Position>
              <LatitudeDegrees>38.170471899211406707763671875</LatitudeDegrees>
              <LongitudeDegrees>-2.03038587234914302825927734375</LongitudeDegrees>
            </Position>
            <AltitudeMeters>1176.199951171875</AltitudeMeters>
            <DistanceMeters>45397.536911427</DistanceMeters>
          </Trackpoint>
          <Trackpoint>
            <Time>2021-08-28T07:30:59.000Z</Time>
            <Position>
              <LatitudeDegrees>38.17034826613962650299072265625</LatitudeDegrees>
              <LongitudeDegrees>-2.03067504800856113433837890625</LongitudeDegrees>
            </Position>
            <AltitudeMeters>1177.199951171875</AltitudeMeters>
            <DistanceMeters>45426.340196712</DistanceMeters>
          </Trackpoint>
          <Trackpoint>
            <Time>2021-08-28T07:31:00.000Z</Time>
            <Position>
              <LatitudeDegrees>38.170313648879528045654296875</LatitudeDegrees>
              <LongitudeDegrees>-2.030727602541446685791015625</LongitudeDegrees>
            </Position>
            <AltitudeMeters>1177.4000244140625</AltitudeMeters>
            <DistanceMeters>45432.339687083</DistanceMeters>
          </Trackpoint>
          <Trackpoint>
            <Time>2021-08-28T07:31:05.000Z</Time>
            <Position>
              <LatitudeDegrees>38.17010334692895412445068359375</LatitudeDegrees>
              <LongitudeDegrees>-2.03103060834109783172607421875</LongitudeDegrees>
            </Position>
            <AltitudeMeters>1177</AltitudeMeters>
            <DistanceMeters>45467.707374019</DistanceMeters>
          </Trackpoint>
          <Trackpoint>
            <Time>2021-08-28T07:31:10.000Z</Time>
            <Position>
              <LatitudeDegrees>38.1698714196681976318359375</LatitudeDegrees>
              <LongitudeDegrees>-2.03138097189366817474365234375</LongitudeDegrees>
            </Position>
            <AltitudeMeters>1176.4000244140625</AltitudeMeters>
            <DistanceMeters>45507.78567236</DistanceMeters>
          </Trackpoint>
          <Trackpoint>
            <Time>2021-08-28T07:31:13.000Z</Time>
            <Position>
              <LatitudeDegrees>38.16973202861845493316650390625</LatitudeDegrees>
              <LongitudeDegrees>-2.03159521333873271942138671875</LongitudeDegrees>
            </Position>
            <AltitudeMeters>1176.4000244140625</AltitudeMeters>
            <DistanceMeters>45532.11956298</DistanceMeters>
          </Trackpoint>
          <Trackpoint>
            <Time>2021-08-28T07:31:14.000Z</Time>
            <Position>
              <LatitudeDegrees>38.1696756184101104736328125</LatitudeDegrees>
              <LongitudeDegrees>-2.03165757469832897186279296875</LongitudeDegrees>
            </Position>
            <AltitudeMeters>1176.4000244140625</AltitudeMeters>
            <DistanceMeters>45540.437522208</DistanceMeters>
          </Trackpoint>
          <Trackpoint>
            <Time>2021-08-28T07:31:16.000Z</Time>
            <Position>
              <LatitudeDegrees>38.1695517338812351226806640625</LatitudeDegrees>
              <LongitudeDegrees>-2.031764946877956390380859375</LongitudeDegrees>
            </Position>
            <AltitudeMeters>1176</AltitudeMeters>
            <DistanceMeters>45557.122762895</DistanceMeters>
          </Trackpoint>
          <Trackpoint>
            <Time>2021-08-28T07:31:17.000Z</Time>
            <Position>
              <LatitudeDegrees>38.16948241554200649261474609375</LatitudeDegrees>
              <LongitudeDegrees>-2.031808197498321533203125</LongitudeDegrees>
            </Position>
            <AltitudeMeters>1176</AltitudeMeters>
            <DistanceMeters>45565.715721354</DistanceMeters>
          </Trackpoint>
          <Trackpoint>
            <Time>2021-08-28T07:31:20.000Z</Time>
            <Position>
              <LatitudeDegrees>38.16925828345119953155517578125</LatitudeDegrees>
              <LongitudeDegrees>-2.0319112949073314666748046875</LongitudeDegrees>
            </Position>
            <AltitudeMeters>1175.5999755859375</AltitudeMeters>
            <DistanceMeters>45592.243326924</DistanceMeters>
          </Trackpoint>
          <Trackpoint>
            <Time>2021-08-28T07:31:23.000Z</Time>
            <Position>
              <LatitudeDegrees>38.16902576945722103118896484375</LatitudeDegrees>
              <LongitudeDegrees>-2.03201682306826114654541015625</LongitudeDegrees>
            </Position>
            <AltitudeMeters>1175</AltitudeMeters>
            <DistanceMeters>45619.720675622</DistanceMeters>
          </Trackpoint>
          <Trackpoint>
            <Time>2021-08-28T07:31:27.000Z</Time>
            <Position>
              <LatitudeDegrees>38.16873525269329547882080078125</LatitudeDegrees>
              <LongitudeDegrees>-2.03217926435172557830810546875</LongitudeDegrees>
            </Position>
            <AltitudeMeters>1174.4000244140625</AltitudeMeters>
            <DistanceMeters>45655.042247241</DistanceMeters>
          </Trackpoint>
          <Trackpoint>
            <Time>2021-08-28T07:31:29.000Z</Time>
            <Position>
              <LatitudeDegrees>38.16861472092568874359130859375</LatitudeDegrees>
              <LongitudeDegrees>-2.03229828737676143646240234375</LongitudeDegrees>
            </Position>
            <AltitudeMeters>1174.4000244140625</AltitudeMeters>
            <DistanceMeters>45672.026262135</DistanceMeters>
          </Trackpoint>
          <Trackpoint>
            <Time>2021-08-28T07:31:30.000Z</Time>
            <Position>
              <LatitudeDegrees>38.16855789162218570709228515625</LatitudeDegrees>
              <LongitudeDegrees>-2.03236400149762630462646484375</LongitudeDegrees>
            </Position>
            <AltitudeMeters>1174.4000244140625</AltitudeMeters>
            <DistanceMeters>45680.574970147</DistanceMeters>
          </Trackpoint>
          <Trackpoint>
            <Time>2021-08-28T07:31:31.000Z</Time>
            <Position>
              <LatitudeDegrees>38.1685060076415538787841796875</LatitudeDegrees>
              <LongitudeDegrees>-2.03243290074169635772705078125</LongitudeDegrees>
            </Position>
            <AltitudeMeters>1174.199951171875</AltitudeMeters>
            <DistanceMeters>45688.923271171</DistanceMeters>
          </Trackpoint>
          <Trackpoint>
            <Time>2021-08-28T07:31:32.000Z</Time>
            <Position>
              <LatitudeDegrees>38.16846066154539585113525390625</LatitudeDegrees>
              <LongitudeDegrees>-2.032511271536350250244140625</LongitudeDegrees>
            </Position>
            <AltitudeMeters>1173.800048828125</AltitudeMeters>
            <DistanceMeters>45697.437579933</DistanceMeters>
          </Trackpoint>
          <Trackpoint>
            <Time>2021-08-28T07:31:33.000Z</Time>
            <Position>
              <LatitudeDegrees>38.1684272177517414093017578125</LatitudeDegrees>
              <LongitudeDegrees>-2.03259877860546112060546875</LongitudeDegrees>
            </Position>
            <AltitudeMeters>1173.5999755859375</AltitudeMeters>
            <DistanceMeters>45705.951888695</DistanceMeters>
          </Trackpoint>
          <Trackpoint>
            <Time>2021-08-28T07:31:37.000Z</Time>
            <Position>
              <LatitudeDegrees>38.168365024030208587646484375</LatitudeDegrees>
              <LongitudeDegrees>-2.03296883963048458099365234375</LongitudeDegrees>
            </Position>
            <AltitudeMeters>1173.5999755859375</AltitudeMeters>
            <DistanceMeters>45739.065937718</DistanceMeters>
          </Trackpoint>
          <Trackpoint>
            <Time>2021-08-28T07:31:39.000Z</Time>
            <Position>
              <LatitudeDegrees>38.168292604386806488037109375</LatitudeDegrees>
              <LongitudeDegrees>-2.03312926925718784332275390625</LongitudeDegrees>
            </Position>
            <AltitudeMeters>1173.5999755859375</AltitudeMeters>
            <DistanceMeters>45755.253983258</DistanceMeters>
          </Trackpoint>
          <Trackpoint>
            <Time>2021-08-28T07:31:40.000Z</Time>
            <Position>
              <LatitudeDegrees>38.16825178451836109161376953125</LatitudeDegrees>
              <LongitudeDegrees>-2.03320361673831939697265625</LongitudeDegrees>
            </Position>
            <AltitudeMeters>1173.4000244140625</AltitudeMeters>
            <DistanceMeters>45763.189709635</DistanceMeters>
          </Trackpoint>
          <Trackpoint>
            <Time>2021-08-28T07:31:41.000Z</Time>
            <Position>
              <LatitudeDegrees>38.16820300184190273284912109375</LatitudeDegrees>
              <LongitudeDegrees>-2.03327293507754802703857421875</LongitudeDegrees>
            </Position>
            <AltitudeMeters>1173.4000244140625</AltitudeMeters>
            <DistanceMeters>45771.331009353</DistanceMeters>
          </Trackpoint>
          <Trackpoint>
            <Time>2021-08-28T07:31:43.000Z</Time>
            <Position>
              <LatitudeDegrees>38.168116919696331024169921875</LatitudeDegrees>
              <LongitudeDegrees>-2.0334103144705295562744140625</LongitudeDegrees>
            </Position>
            <AltitudeMeters>1173.199951171875</AltitudeMeters>
            <DistanceMeters>45786.703618127</DistanceMeters>
          </Trackpoint>
          <Trackpoint>
            <Time>2021-08-28T07:31:45.000Z</Time>
            <Position>
              <LatitudeDegrees>38.1680984795093536376953125</LatitudeDegrees>
              <LongitudeDegrees>-2.0335757732391357421875</LongitudeDegrees>
            </Position>
            <AltitudeMeters>1172.800048828125</AltitudeMeters>
            <DistanceMeters>45801.326929663</DistanceMeters>
          </Trackpoint>
          <Trackpoint>
            <Time>2021-08-28T07:31:47.000Z</Time>
            <Position>
              <LatitudeDegrees>38.1681549735367298126220703125</LatitudeDegrees>
              <LongitudeDegrees>-2.0337259769439697265625</LongitudeDegrees>
            </Position>
            <AltitudeMeters>1172.4000244140625</AltitudeMeters>
            <DistanceMeters>45815.897348229</DistanceMeters>
          </Trackpoint>
          <Trackpoint>
            <Time>2021-08-28T07:31:48.000Z</Time>
            <Position>
              <LatitudeDegrees>38.16820048727095127105712890625</LatitudeDegrees>
              <LongitudeDegrees>-2.0337875001132488250732421875</LongitudeDegrees>
            </Position>
            <AltitudeMeters>1172.199951171875</AltitudeMeters>
            <DistanceMeters>45823.289913592</DistanceMeters>
          </Trackpoint>
          <Trackpoint>
            <Time>2021-08-28T07:31:49.000Z</Time>
            <Position>
              <LatitudeDegrees>38.168257735669612884521484375</LatitudeDegrees>
              <LongitudeDegrees>-2.033830583095550537109375</LongitudeDegrees>
            </Position>
            <AltitudeMeters>1172.199951171875</AltitudeMeters>
            <DistanceMeters>45830.693464363</DistanceMeters>
          </Trackpoint>
          <Trackpoint>
            <Time>2021-08-28T07:31:50.000Z</Time>
            <Position>
              <LatitudeDegrees>38.16832269541919231414794921875</LatitudeDegrees>
              <LongitudeDegrees>-2.033857740461826324462890625</LongitudeDegrees>
            </Position>
            <AltitudeMeters>1172</AltitudeMeters>
            <DistanceMeters>45838.305098252</DistanceMeters>
          </Trackpoint>
          <Trackpoint>
            <Time>2021-08-28T07:31:51.000Z</Time>
            <Position>
              <LatitudeDegrees>38.16839528270065784454345703125</LatitudeDegrees>
              <LongitudeDegrees>-2.033865116536617279052734375</LongitudeDegrees>
            </Position>
            <AltitudeMeters>1172</AltitudeMeters>
            <DistanceMeters>45846.410269819</DistanceMeters>
          </Trackpoint>
          <Trackpoint>
            <Time>2021-08-28T07:31:52.000Z</Time>
            <Position>
              <LatitudeDegrees>38.16847063601016998291015625</LatitudeDegrees>
              <LongitudeDegrees>-2.033856399357318878173828125</LongitudeDegrees>
            </Position>
            <AltitudeMeters>1172.4000244140625</AltitudeMeters>
            <DistanceMeters>45854.831802957</DistanceMeters>
          </Trackpoint>
          <Trackpoint>
            <Time>2021-08-28T07:31:53.000Z</Time>
            <Position>
              <LatitudeDegrees>38.16853794269263744354248046875</LatitudeDegrees>
              <LongitudeDegrees>-2.033822201192378997802734375</LongitudeDegrees>
            </Position>
            <AltitudeMeters>1172.800048828125</AltitudeMeters>
            <DistanceMeters>45862.898446054</DistanceMeters>
          </Trackpoint>
          <Trackpoint>
            <Time>2021-08-28T07:31:54.000Z</Time>
            <Position>
              <LatitudeDegrees>38.16860114224255084991455078125</LatitudeDegrees>
              <LongitudeDegrees>-2.03376914374530315399169921875</LongitudeDegrees>
            </Position>
            <AltitudeMeters>1173</AltitudeMeters>
            <DistanceMeters>45871.326946002</DistanceMeters>
          </Trackpoint>
          <Trackpoint>
            <Time>2021-08-28T07:31:57.000Z</Time>
            <Position>
              <LatitudeDegrees>38.16877841949462890625</LatitudeDegrees>
              <LongitudeDegrees>-2.033627741038799285888671875</LongitudeDegrees>
            </Position>
            <AltitudeMeters>1173.5999755859375</AltitudeMeters>
            <DistanceMeters>45894.617216331</DistanceMeters>
          </Trackpoint>
          <Trackpoint>
            <Time>2021-08-28T07:31:59.000Z</Time>
            <Position>
              <LatitudeDegrees>38.16890540532767772674560546875</LatitudeDegrees>
              <LongitudeDegrees>-2.0335873402655124664306640625</LongitudeDegrees>
            </Position>
            <AltitudeMeters>1173.5999755859375</AltitudeMeters>
            <DistanceMeters>45909.186395337</DistanceMeters>
          </Trackpoint>
          <Trackpoint>
            <Time>2021-08-28T07:32:00.000Z</Time>
            <Position>
              <LatitudeDegrees>38.16897355020046234130859375</LatitudeDegrees>
              <LongitudeDegrees>-2.03358289785683155059814453125</LongitudeDegrees>
            </Position>
            <AltitudeMeters>1173.5999755859375</AltitudeMeters>
            <DistanceMeters>45916.781402139</DistanceMeters>
          </Trackpoint>
          <Trackpoint>
            <Time>2021-08-28T07:32:03.000Z</Time>
            <Position>
              <LatitudeDegrees>38.16919256933033466339111328125</LatitudeDegrees>
              <LongitudeDegrees>-2.03360150568187236785888671875</LongitudeDegrees>
            </Position>
            <AltitudeMeters>1173.5999755859375</AltitudeMeters>
            <DistanceMeters>45941.213064241</DistanceMeters>
          </Trackpoint>
          <Trackpoint>
            <Time>2021-08-28T07:32:06.000Z</Time>
            <Position>
              <LatitudeDegrees>38.16942458041012287139892578125</LatitudeDegrees>
              <LongitudeDegrees>-2.0336929522454738616943359375</LongitudeDegrees>
            </Position>
            <AltitudeMeters>1172.800048828125</AltitudeMeters>
            <DistanceMeters>45968.247788712</DistanceMeters>
          </Trackpoint>
          <Trackpoint>
            <Time>2021-08-28T07:32:07.000Z</Time>
            <Position>
              <LatitudeDegrees>38.16949347965419292449951171875</LatitudeDegrees>
              <LongitudeDegrees>-2.03375992365181446075439453125</LongitudeDegrees>
            </Position>
            <AltitudeMeters>1172.5999755859375</AltitudeMeters>
            <DistanceMeters>45977.898966802</DistanceMeters>
          </Trackpoint>
          <Trackpoint>
            <Time>2021-08-28T07:32:08.000Z</Time>
            <Position>
              <LatitudeDegrees>38.16955131478607654571533203125</LatitudeDegrees>
              <LongitudeDegrees>-2.033838964998722076416015625</LongitudeDegrees>
            </Position>
            <AltitudeMeters>1172.4000244140625</AltitudeMeters>
            <DistanceMeters>45987.347317755</DistanceMeters>
          </Trackpoint>
          <Trackpoint>
            <Time>2021-08-28T07:32:10.000Z</Time>
            <Position>
              <LatitudeDegrees>38.16964217461645603179931640625</LatitudeDegrees>
              <LongitudeDegrees>-2.03402378596365451812744140625</LongitudeDegrees>
            </Position>
            <AltitudeMeters>1172.199951171875</AltitudeMeters>
            <DistanceMeters>46006.421430576</DistanceMeters>
          </Trackpoint>
          <Trackpoint>
            <Time>2021-08-28T07:32:16.000Z</Time>
            <Position>
              <LatitudeDegrees>38.1699051149189472198486328125</LatitudeDegrees>
              <LongitudeDegrees>-2.03456458635628223419189453125</LongitudeDegrees>
            </Position>
            <AltitudeMeters>1171.800048828125</AltitudeMeters>
            <DistanceMeters>46062.061823708</DistanceMeters>
          </Trackpoint>
          <Trackpoint>
            <Time>2021-08-28T07:32:17.000Z</Time>
            <Position>
              <LatitudeDegrees>38.16996068693697452545166015625</LatitudeDegrees>
              <LongitudeDegrees>-2.03464169986546039581298828125</LongitudeDegrees>
            </Position>
            <AltitudeMeters>1171.5999755859375</AltitudeMeters>
            <DistanceMeters>46071.215022562</DistanceMeters>
          </Trackpoint>
          <Trackpoint>
            <Time>2021-08-28T07:32:20.000Z</Time>
            <Position>
              <LatitudeDegrees>38.17013620398938655853271484375</LatitudeDegrees>
              <LongitudeDegrees>-2.0348815061151981353759765625</LongitudeDegrees>
            </Position>
            <AltitudeMeters>1171.5999755859375</AltitudeMeters>
            <DistanceMeters>46099.884757095</DistanceMeters>
          </Trackpoint>
          <Trackpoint>
            <Time>2021-08-28T07:32:23.000Z</Time>
            <Position>
              <LatitudeDegrees>38.170320354402065277099609375</LatitudeDegrees>
              <LongitudeDegrees>-2.03510438092052936553955078125</LongitudeDegrees>
            </Position>
            <AltitudeMeters>1171.800048828125</AltitudeMeters>
            <DistanceMeters>46128.176717191</DistanceMeters>
          </Trackpoint>
          <Trackpoint>
            <Time>2021-08-28T07:32:24.000Z</Time>
            <Position>
              <LatitudeDegrees>38.17037902772426605224609375</LatitudeDegrees>
              <LongitudeDegrees>-2.03517981804907321929931640625</LongitudeDegrees>
            </Position>
            <AltitudeMeters>1172</AltitudeMeters>
            <DistanceMeters>46137.461658753</DistanceMeters>
          </Trackpoint>
          <Trackpoint>
            <Time>2021-08-28T07:32:27.000Z</Time>
            <Position>
              <LatitudeDegrees>38.17055328749120235443115234375</LatitudeDegrees>
              <LongitudeDegrees>-2.03540713526308536529541015625</LongitudeDegrees>
            </Position>
            <AltitudeMeters>1171.5999755859375</AltitudeMeters>
            <DistanceMeters>46165.2436089</DistanceMeters>
          </Trackpoint>
          <Trackpoint>
            <Time>2021-08-28T07:32:29.000Z</Time>
            <Position>
              <LatitudeDegrees>38.17066795192658901214599609375</LatitudeDegrees>
              <LongitudeDegrees>-2.03554518520832061767578125</LongitudeDegrees>
            </Position>
            <AltitudeMeters>1171.4000244140625</AltitudeMeters>
            <DistanceMeters>46182.816358377</DistanceMeters>
          </Trackpoint>
          <Trackpoint>
            <Time>2021-08-28T07:32:30.000Z</Time>
            <Position>
              <LatitudeDegrees>38.170726038515567779541015625</LatitudeDegrees>
              <LongitudeDegrees>-2.03561098314821720123291015625</LongitudeDegrees>
            </Position>
            <AltitudeMeters>1171.5999755859375</AltitudeMeters>
            <DistanceMeters>46191.473704072</DistanceMeters>
          </Trackpoint>
          <Trackpoint>
            <Time>2021-08-28T07:32:35.000Z</Time>
            <Position>
              <LatitudeDegrees>38.17104765214025974273681640625</LatitudeDegrees>
              <LongitudeDegrees>-2.0358839817345142364501953125</LongitudeDegrees>
            </Position>
            <AltitudeMeters>1171.5999755859375</AltitudeMeters>
            <DistanceMeters>46234.508637186</DistanceMeters>
          </Trackpoint>
          <Trackpoint>
            <Time>2021-08-28T07:32:37.000Z</Time>
            <Position>
              <LatitudeDegrees>38.17119986750185489654541015625</LatitudeDegrees>
              <LongitudeDegrees>-2.0359537191689014434814453125</LongitudeDegrees>
            </Position>
            <AltitudeMeters>1171.5999755859375</AltitudeMeters>
            <DistanceMeters>46252.516136876</DistanceMeters>
          </Trackpoint>
          <Trackpoint>
            <Time>2021-08-28T07:32:39.000Z</Time>
            <Position>
              <LatitudeDegrees>38.17134839482605457305908203125</LatitudeDegrees>
              <LongitudeDegrees>-2.03597174026072025299072265625</LongitudeDegrees>
            </Position>
            <AltitudeMeters>1171.5999755859375</AltitudeMeters>
            <DistanceMeters>46269.122717939</DistanceMeters>
          </Trackpoint>
          <Trackpoint>
            <Time>2021-08-28T07:32:40.000Z</Time>
            <Position>
              <LatitudeDegrees>38.17142240703105926513671875</LatitudeDegrees>
              <LongitudeDegrees>-2.0359503664076328277587890625</LongitudeDegrees>
            </Position>
            <AltitudeMeters>1171.5999755859375</AltitudeMeters>
            <DistanceMeters>46277.569946127</DistanceMeters>
          </Trackpoint>
          <Trackpoint>
            <Time>2021-08-28T07:32:43.000Z</Time>
            <Position>
              <LatitudeDegrees>38.171629942953586578369140625</LatitudeDegrees>
              <LongitudeDegrees>-2.03588155098259449005126953125</LongitudeDegrees>
            </Position>
            <AltitudeMeters>1172</AltitudeMeters>
            <DistanceMeters>46301.441140985</DistanceMeters>
          </Trackpoint>
          <Trackpoint>
            <Time>2021-08-28T07:32:45.000Z</Time>
            <Position>
              <LatitudeDegrees>38.1717615388333797454833984375</LatitudeDegrees>
              <LongitudeDegrees>-2.03590334393084049224853515625</LongitudeDegrees>
            </Position>
            <AltitudeMeters>1172.4000244140625</AltitudeMeters>
            <DistanceMeters>46316.211606342</DistanceMeters>
          </Trackpoint>
          <Trackpoint>
            <Time>2021-08-28T07:32:46.000Z</Time>
            <Position>
              <LatitudeDegrees>38.171824403107166290283203125</LatitudeDegrees>
              <LongitudeDegrees>-2.03592647798359394073486328125</LongitudeDegrees>
            </Position>
            <AltitudeMeters>1172.5999755859375</AltitudeMeters>
            <DistanceMeters>46323.495885935</DistanceMeters>
          </Trackpoint>
          <Trackpoint>
            <Time>2021-08-28T07:32:48.000Z</Time>
            <Position>
              <LatitudeDegrees>38.17193697206676006317138671875</LatitudeDegrees>
              <LongitudeDegrees>-2.03598364256322383880615234375</LongitudeDegrees>
            </Position>
            <AltitudeMeters>1172.5999755859375</AltitudeMeters>
            <DistanceMeters>46336.987002301</DistanceMeters>
          </Trackpoint>
          <Trackpoint>
            <Time>2021-08-28T07:32:50.000Z</Time>
            <Position>
              <LatitudeDegrees>38.17204660736024379730224609375</LatitudeDegrees>
              <LongitudeDegrees>-2.03603410162031650543212890625</LongitudeDegrees>
            </Position>
            <AltitudeMeters>1173.199951171875</AltitudeMeters>
            <DistanceMeters>46349.963977897</DistanceMeters>
          </Trackpoint>
          <Trackpoint>
            <Time>2021-08-28T07:32:52.000Z</Time>
            <Position>
              <LatitudeDegrees>38.17214232869446277618408203125</LatitudeDegrees>
              <LongitudeDegrees>-2.036083973944187164306640625</LongitudeDegrees>
            </Position>
            <AltitudeMeters>1173.4000244140625</AltitudeMeters>
            <DistanceMeters>46361.477514373</DistanceMeters>
          </Trackpoint>
          <Trackpoint>
            <Time>2021-08-28T07:32:53.000Z</Time>
            <Position>
              <LatitudeDegrees>38.17219345830380916595458984375</LatitudeDegrees>
              <LongitudeDegrees>-2.03610132448375225067138671875</LongitudeDegrees>
            </Position>
            <AltitudeMeters>1173.4000244140625</AltitudeMeters>
            <DistanceMeters>46367.366871182</DistanceMeters>
          </Trackpoint>
          <Trackpoint>
            <Time>2021-08-28T07:32:55.000Z</Time>
            <Position>
              <LatitudeDegrees>38.1722989864647388458251953125</LatitudeDegrees>
              <LongitudeDegrees>-2.03612294979393482208251953125</LongitudeDegrees>
            </Position>
            <AltitudeMeters>1173.800048828125</AltitudeMeters>
            <DistanceMeters>46379.263821135</DistanceMeters>
          </Trackpoint>
          <Trackpoint>
            <Time>2021-08-28T07:32:57.000Z</Time>
            <Position>
              <LatitudeDegrees>38.17240283824503421783447265625</LatitudeDegrees>
              <LongitudeDegrees>-2.0361354388296604156494140625</LongitudeDegrees>
            </Position>
            <AltitudeMeters>1173.800048828125</AltitudeMeters>
            <DistanceMeters>46390.874203607</DistanceMeters>
          </Trackpoint>
          <Trackpoint>
            <Time>2021-08-28T07:33:00.000Z</Time>
            <Position>
              <LatitudeDegrees>38.172557651996612548828125</LatitudeDegrees>
              <LongitudeDegrees>-2.0361461676657199859619140625</LongitudeDegrees>
            </Position>
            <AltitudeMeters>1174.5999755859375</AltitudeMeters>
            <DistanceMeters>46408.130908419</DistanceMeters>
          </Trackpoint>
          <Trackpoint>
            <Time>2021-08-28T07:33:01.000Z</Time>
            <Position>
              <LatitudeDegrees>38.17260702140629291534423828125</LatitudeDegrees>
              <LongitudeDegrees>-2.036151029169559478759765625</LongitudeDegrees>
            </Position>
            <AltitudeMeters>1175</AltitudeMeters>
            <DistanceMeters>46413.641638596</DistanceMeters>
          </Trackpoint>
          <Trackpoint>
            <Time>2021-08-28T07:33:04.000Z</Time>
            <Position>
              <LatitudeDegrees>38.17275957204401493072509765625</LatitudeDegrees>
              <LongitudeDegrees>-2.036163099110126495361328125</LongitudeDegrees>
            </Position>
            <AltitudeMeters>1176</AltitudeMeters>
            <DistanceMeters>46430.65380924</DistanceMeters>
          </Trackpoint>
          <Trackpoint>
            <Time>2021-08-28T07:33:05.000Z</Time>
            <Position>
              <LatitudeDegrees>38.1728106178343296051025390625</LatitudeDegrees>
              <LongitudeDegrees>-2.03616569750010967254638671875</LongitudeDegrees>
            </Position>
            <AltitudeMeters>1176.199951171875</AltitudeMeters>
            <DistanceMeters>46436.341140233</DistanceMeters>
          </Trackpoint>
          <Trackpoint>
            <Time>2021-08-28T07:33:09.000Z</Time>
            <Position>
              <LatitudeDegrees>38.17301429808139801025390625</LatitudeDegrees>
              <LongitudeDegrees>-2.0361761748790740966796875</LongitudeDegrees>
            </Position>
            <AltitudeMeters>1177.5999755859375</AltitudeMeters>
            <DistanceMeters>46459.029850374</DistanceMeters>
          </Trackpoint>
          <Trackpoint>
            <Time>2021-08-28T07:33:10.000Z</Time>
            <Position>
              <LatitudeDegrees>38.17306467331945896148681640625</LatitudeDegrees>
              <LongitudeDegrees>-2.0361773483455181121826171875</LongitudeDegrees>
            </Position>
            <AltitudeMeters>1178</AltitudeMeters>
            <DistanceMeters>46464.638036912</DistanceMeters>
          </Trackpoint>
          <Trackpoint>
            <Time>2021-08-28T07:33:13.000Z</Time>
            <Position>
              <LatitudeDegrees>38.1732183136045932769775390625</LatitudeDegrees>
              <LongitudeDegrees>-2.036184556782245635986328125</LongitudeDegrees>
            </Position>
            <AltitudeMeters>1178.4000244140625</AltitudeMeters>
            <DistanceMeters>46481.75023487</DistanceMeters>
          </Trackpoint>
          <Trackpoint>
            <Time>2021-08-28T07:33:14.000Z</Time>
            <Position>
              <LatitudeDegrees>38.17326835356652736663818359375</LatitudeDegrees>
              <LongitudeDegrees>-2.0361874066293239593505859375</LongitudeDegrees>
            </Position>
            <AltitudeMeters>1179</AltitudeMeters>
            <DistanceMeters>46487.325315418</DistanceMeters>
          </Trackpoint>
          <Trackpoint>
            <Time>2021-08-28T07:33:19.000Z</Time>
            <Position>
              <LatitudeDegrees>38.1735183857381343841552734375</LatitudeDegrees>
              <LongitudeDegrees>-2.03620827756822109222412109375</LongitudeDegrees>
            </Position>
            <AltitudeMeters>1180.4000244140625</AltitudeMeters>
            <DistanceMeters>46515.214320499</DistanceMeters>
          </Trackpoint>
          <Trackpoint>
            <Time>2021-08-28T07:33:20.000Z</Time>
            <Position>
              <LatitudeDegrees>38.1735686771571636199951171875</LatitudeDegrees>
              <LongitudeDegrees>-2.036214061081409454345703125</LongitudeDegrees>
            </Position>
            <AltitudeMeters>1180.800048828125</AltitudeMeters>
            <DistanceMeters>46520.833766853</DistanceMeters>
          </Trackpoint>
          <Trackpoint>
            <Time>2021-08-28T07:33:22.000Z</Time>
            <Position>
              <LatitudeDegrees>38.1736689247190952301025390625</LatitudeDegrees>
              <LongitudeDegrees>-2.03623183071613311767578125</LongitudeDegrees>
            </Position>
            <AltitudeMeters>1181.199951171875</AltitudeMeters>
            <DistanceMeters>46532.099142761</DistanceMeters>
          </Trackpoint>
          <Trackpoint>
            <Time>2021-08-28T07:33:23.000Z</Time>
            <Position>
              <LatitudeDegrees>38.17371929995715618133544921875</LatitudeDegrees>
              <LongitudeDegrees>-2.0362444035708904266357421875</LongitudeDegrees>
            </Position>
            <AltitudeMeters>1181.5999755859375</AltitudeMeters>
            <DistanceMeters>46537.813401805</DistanceMeters>
          </Trackpoint>
          <Trackpoint>
            <Time>2021-08-28T07:33:29.000Z</Time>
            <Position>
              <LatitudeDegrees>38.174008391797542572021484375</LatitudeDegrees>
              <LongitudeDegrees>-2.036383710801601409912109375</LongitudeDegrees>
            </Position>
            <AltitudeMeters>1182.5999755859375</AltitudeMeters>
            <DistanceMeters>46572.221209091</DistanceMeters>
          </Trackpoint>
          <Trackpoint>
            <Time>2021-08-28T07:33:30.000Z</Time>
            <Position>
              <LatitudeDegrees>38.174054659903049468994140625</LatitudeDegrees>
              <LongitudeDegrees>-2.03641422092914581298828125</LongitudeDegrees>
            </Position>
            <AltitudeMeters>1182.5999755859375</AltitudeMeters>
            <DistanceMeters>46578.020953461</DistanceMeters>
          </Trackpoint>
          <Trackpoint>
            <Time>2021-08-28T07:33:35.000Z</Time>
            <Position>
              <LatitudeDegrees>38.174310810863971710205078125</LatitudeDegrees>
              <LongitudeDegrees>-2.0366252772510051727294921875</LongitudeDegrees>
            </Position>
            <AltitudeMeters>1182.800048828125</AltitudeMeters>
            <DistanceMeters>46611.989514926</DistanceMeters>
          </Trackpoint>
          <Trackpoint>
            <Time>2021-08-28T07:33:37.000Z</Time>
            <Position>
              <LatitudeDegrees>38.17443964071571826934814453125</LatitudeDegrees>
              <LongitudeDegrees>-2.03673130832612514495849609375</LongitudeDegrees>
            </Position>
            <AltitudeMeters>1182.800048828125</AltitudeMeters>
            <DistanceMeters>46629.068435539</DistanceMeters>
          </Trackpoint>
          <Trackpoint>
            <Time>2021-08-28T07:33:39.000Z</Time>
            <Position>
              <LatitudeDegrees>38.1745916046202182769775390625</LatitudeDegrees>
              <LongitudeDegrees>-2.03679911792278289794921875</LongitudeDegrees>
            </Position>
            <AltitudeMeters>1182.5999755859375</AltitudeMeters>
            <DistanceMeters>46646.993003034</DistanceMeters>
          </Trackpoint>
          <Trackpoint>
            <Time>2021-08-28T07:33:40.000Z</Time>
            <Position>
              <LatitudeDegrees>38.1746717356145381927490234375</LatitudeDegrees>
              <LongitudeDegrees>-2.0368180610239505767822265625</LongitudeDegrees>
            </Position>
            <AltitudeMeters>1182.4000244140625</AltitudeMeters>
            <DistanceMeters>46656.06394877</DistanceMeters>
          </Trackpoint>
          <Trackpoint>
            <Time>2021-08-28T07:33:46.000Z</Time>
            <Position>
              <LatitudeDegrees>38.17514405585825443267822265625</LatitudeDegrees>
              <LongitudeDegrees>-2.03689659945666790008544921875</LongitudeDegrees>
            </Position>
            <AltitudeMeters>1182</AltitudeMeters>
            <DistanceMeters>46709.081361713</DistanceMeters>
          </Trackpoint>
          <Trackpoint>
            <Time>2021-08-28T07:33:50.000Z</Time>
            <Position>
              <LatitudeDegrees>38.17544303834438323974609375</LatitudeDegrees>
              <LongitudeDegrees>-2.03694529831409454345703125</LongitudeDegrees>
            </Position>
            <AltitudeMeters>1182.5999755859375</AltitudeMeters>
            <DistanceMeters>46742.630502511</DistanceMeters>
          </Trackpoint>
          <Trackpoint>
            <Time>2021-08-28T07:33:55.000Z</Time>
            <Position>
              <LatitudeDegrees>38.175802789628505706787109375</LatitudeDegrees>
              <LongitudeDegrees>-2.03701059333980083465576171875</LongitudeDegrees>
            </Position>
            <AltitudeMeters>1182.199951171875</AltitudeMeters>
            <DistanceMeters>46783.077069348</DistanceMeters>
          </Trackpoint>
          <Trackpoint>
            <Time>2021-08-28T07:33:58.000Z</Time>
            <Position>
              <LatitudeDegrees>38.17601527087390422821044921875</LatitudeDegrees>
              <LongitudeDegrees>-2.037048898637294769287109375</LongitudeDegrees>
            </Position>
            <AltitudeMeters>1181.5999755859375</AltitudeMeters>
            <DistanceMeters>46806.963012702</DistanceMeters>
          </Trackpoint>
          <Trackpoint>
            <Time>2021-08-28T07:34:00.000Z</Time>
            <Position>
              <LatitudeDegrees>38.17615759558975696563720703125</LatitudeDegrees>
              <LongitudeDegrees>-2.0370765589177608489990234375</LongitudeDegrees>
            </Position>
            <AltitudeMeters>1181.5999755859375</AltitudeMeters>
            <DistanceMeters>46822.98819114</DistanceMeters>
          </Trackpoint>
          <Trackpoint>
            <Time>2021-08-28T07:34:05.000Z</Time>
            <Position>
              <LatitudeDegrees>38.176508210599422454833984375</LatitudeDegrees>
              <LongitudeDegrees>-2.03714319504797458648681640625</LongitudeDegrees>
            </Position>
            <AltitudeMeters>1182.4000244140625</AltitudeMeters>
            <DistanceMeters>46862.445681429</DistanceMeters>
          </Trackpoint>
          <Trackpoint>
            <Time>2021-08-28T07:34:10.000Z</Time>
            <Position>
              <LatitudeDegrees>38.176859579980373382568359375</LatitudeDegrees>
              <LongitudeDegrees>-2.03721159137785434722900390625</LongitudeDegrees>
            </Position>
            <AltitudeMeters>1182</AltitudeMeters>
            <DistanceMeters>46902.009104192</DistanceMeters>
          </Trackpoint>
          <Trackpoint>
            <Time>2021-08-28T07:34:13.000Z</Time>
            <Position>
              <LatitudeDegrees>38.177063427865505218505859375</LatitudeDegrees>
              <LongitudeDegrees>-2.0372659899294376373291015625</LongitudeDegrees>
            </Position>
            <AltitudeMeters>1181.5999755859375</AltitudeMeters>
            <DistanceMeters>46925.191727633</DistanceMeters>
          </Trackpoint>
          <Trackpoint>
            <Time>2021-08-28T07:34:19.000Z</Time>
            <Position>
              <LatitudeDegrees>38.17739761434495449066162109375</LatitudeDegrees>
              <LongitudeDegrees>-2.037397585809230804443359375</LongitudeDegrees>
            </Position>
            <AltitudeMeters>1182</AltitudeMeters>
            <DistanceMeters>46964.128684685</DistanceMeters>
          </Trackpoint>
          <Trackpoint>
            <Time>2021-08-28T07:34:20.000Z</Time>
            <Position>
              <LatitudeDegrees>38.17744723521173000335693359375</LatitudeDegrees>
              <LongitudeDegrees>-2.0374185405671596527099609375</LongitudeDegrees>
            </Position>
            <AltitudeMeters>1182.199951171875</AltitudeMeters>
            <DistanceMeters>46969.947858738</DistanceMeters>
          </Trackpoint>
          <Trackpoint>
            <Time>2021-08-28T07:34:22.000Z</Time>
            <Position>
              <LatitudeDegrees>38.1775398552417755126953125</LatitudeDegrees>
              <LongitudeDegrees>-2.03745424747467041015625</LongitudeDegrees>
            </Position>
            <AltitudeMeters>1183</AltitudeMeters>
            <DistanceMeters>46980.719881868</DistanceMeters>
          </Trackpoint>
          <Trackpoint>
            <Time>2021-08-28T07:34:24.000Z</Time>
            <Position>
              <LatitudeDegrees>38.17763247527182102203369140625</LatitudeDegrees>
              <LongitudeDegrees>-2.0374936424195766448974609375</LongitudeDegrees>
            </Position>
            <AltitudeMeters>1183.4000244140625</AltitudeMeters>
            <DistanceMeters>46991.590373133</DistanceMeters>
          </Trackpoint>
          <Trackpoint>
            <Time>2021-08-28T07:34:27.000Z</Time>
            <Position>
              <LatitudeDegrees>38.177766501903533935546875</LatitudeDegrees>
              <LongitudeDegrees>-2.037543766200542449951171875</LongitudeDegrees>
            </Position>
            <AltitudeMeters>1184</AltitudeMeters>
            <DistanceMeters>47007.139368815</DistanceMeters>
          </Trackpoint>
          <Trackpoint>
            <Time>2021-08-28T07:34:29.000Z</Time>
            <Position>
              <LatitudeDegrees>38.17785610444843769073486328125</LatitudeDegrees>
              <LongitudeDegrees>-2.03757829964160919189453125</LongitudeDegrees>
            </Position>
            <AltitudeMeters>1185.199951171875</AltitudeMeters>
            <DistanceMeters>47017.559861569</DistanceMeters>
          </Trackpoint>
          <Trackpoint>
            <Time>2021-08-28T07:34:30.000Z</Time>
            <Position>
              <LatitudeDegrees>38.17790036089718341827392578125</LatitudeDegrees>
              <LongitudeDegrees>-2.037594728171825408935546875</LongitudeDegrees>
            </Position>
            <AltitudeMeters>1185.4000244140625</AltitudeMeters>
            <DistanceMeters>47022.691304145</DistanceMeters>
          </Trackpoint>
          <Trackpoint>
            <Time>2021-08-28T07:34:33.000Z</Time>
            <Position>
              <LatitudeDegrees>38.1780392490327358245849609375</LatitudeDegrees>
              <LongitudeDegrees>-2.0376406610012054443359375</LongitudeDegrees>
            </Position>
            <AltitudeMeters>1186.4000244140625</AltitudeMeters>
            <DistanceMeters>47038.663426409</DistanceMeters>
          </Trackpoint>
          <Trackpoint>
            <Time>2021-08-28T07:34:35.000Z</Time>
            <Position>
              <LatitudeDegrees>38.17813396453857421875</LatitudeDegrees>
              <LongitudeDegrees>-2.0376710034906864166259765625</LongitudeDegrees>
            </Position>
            <AltitudeMeters>1187</AltitudeMeters>
            <DistanceMeters>47049.534748339</DistanceMeters>
          </Trackpoint>
          <Trackpoint>
            <Time>2021-08-28T07:34:38.000Z</Time>
            <Position>
              <LatitudeDegrees>38.17827679216861724853515625</LatitudeDegrees>
              <LongitudeDegrees>-2.037714086472988128662109375</LongitudeDegrees>
            </Position>
            <AltitudeMeters>1187.5999755859375</AltitudeMeters>
            <DistanceMeters>47065.87215938</DistanceMeters>
          </Trackpoint>
          <Trackpoint>
            <Time>2021-08-28T07:34:40.000Z</Time>
            <Position>
              <LatitudeDegrees>38.1783718429505825042724609375</LatitudeDegrees>
              <LongitudeDegrees>-2.0377434231340885162353515625</LongitudeDegrees>
            </Position>
            <AltitudeMeters>1187.800048828125</AltitudeMeters>
            <DistanceMeters>47076.758837171</DistanceMeters>
          </Trackpoint>
          <Trackpoint>
            <Time>2021-08-28T07:34:43.000Z</Time>
            <Position>
              <LatitudeDegrees>38.178515173494815826416015625</LatitudeDegrees>
              <LongitudeDegrees>-2.03778189606964588165283203125</LongitudeDegrees>
            </Position>
            <AltitudeMeters>1188.4000244140625</AltitudeMeters>
            <DistanceMeters>47093.063604894</DistanceMeters>
          </Trackpoint>
          <Trackpoint>
            <Time>2021-08-28T07:34:44.000Z</Time>
            <Position>
              <LatitudeDegrees>38.17856051959097385406494140625</LatitudeDegrees>
              <LongitudeDegrees>-2.03779564239084720611572265625</LongitudeDegrees>
            </Position>
            <AltitudeMeters>1189</AltitudeMeters>
            <DistanceMeters>47098.252794422</DistanceMeters>
          </Trackpoint>
          <Trackpoint>
            <Time>2021-08-28T07:34:47.000Z</Time>
            <Position>
              <LatitudeDegrees>38.1787030957639217376708984375</LatitudeDegrees>
              <LongitudeDegrees>-2.037844173610210418701171875</LongitudeDegrees>
            </Position>
            <AltitudeMeters>1190</AltitudeMeters>
            <DistanceMeters>47114.680052393</DistanceMeters>
          </Trackpoint>
          <Trackpoint>
            <Time>2021-08-28T07:34:49.000Z</Time>
            <Position>
              <LatitudeDegrees>38.1788013316690921783447265625</LatitudeDegrees>
              <LongitudeDegrees>-2.03789991326630115509033203125</LongitudeDegrees>
            </Position>
            <AltitudeMeters>1190.199951171875</AltitudeMeters>
            <DistanceMeters>47126.6526642</DistanceMeters>
          </Trackpoint>
          <Trackpoint>
            <Time>2021-08-28T07:34:50.000Z</Time>
            <Position>
              <LatitudeDegrees>38.1788506172597408294677734375</LatitudeDegrees>
              <LongitudeDegrees>-2.03793662600219249725341796875</LongitudeDegrees>
            </Position>
            <AltitudeMeters>1190.4000244140625</AltitudeMeters>
            <DistanceMeters>47133.010228369</DistanceMeters>
          </Trackpoint>
          <Trackpoint>
            <Time>2021-08-28T07:34:54.000Z</Time>
            <Position>
              <LatitudeDegrees>38.17906175740063190460205078125</LatitudeDegrees>
              <LongitudeDegrees>-2.0381273142993450164794921875</LongitudeDegrees>
            </Position>
            <AltitudeMeters>1190.4000244140625</AltitudeMeters>
            <DistanceMeters>47161.830751466</DistanceMeters>
          </Trackpoint>
          <Trackpoint>
            <Time>2021-08-28T07:34:59.000Z</Time>
            <Position>
              <LatitudeDegrees>38.17939502187073230743408203125</LatitudeDegrees>
              <LongitudeDegrees>-2.0383838005363941192626953125</LongitudeDegrees>
            </Position>
            <AltitudeMeters>1189.5999755859375</AltitudeMeters>
            <DistanceMeters>47205.18355911</DistanceMeters>
          </Trackpoint>
          <Trackpoint>
            <Time>2021-08-28T07:35:00.000Z</Time>
            <Position>
              <LatitudeDegrees>38.179465346038341522216796875</LatitudeDegrees>
              <LongitudeDegrees>-2.0384347625076770782470703125</LongitudeDegrees>
            </Position>
            <AltitudeMeters>1189.5999755859375</AltitudeMeters>
            <DistanceMeters>47214.192071585</DistanceMeters>
          </Trackpoint>
          <Trackpoint>
            <Time>2021-08-28T07:35:02.000Z</Time>
            <Position>
              <LatitudeDegrees>38.17960524000227451324462890625</LatitudeDegrees>
              <LongitudeDegrees>-2.0385293103754520416259765625</LongitudeDegrees>
            </Position>
            <AltitudeMeters>1188.800048828125</AltitudeMeters>
            <DistanceMeters>47231.823560792</DistanceMeters>
          </Trackpoint>
          <Trackpoint>
            <Time>2021-08-28T07:35:06.000Z</Time>
            <Position>
              <LatitudeDegrees>38.17989475093781948089599609375</LatitudeDegrees>
              <LongitudeDegrees>-2.0386942662298679351806640625</LongitudeDegrees>
            </Position>
            <AltitudeMeters>1188.199951171875</AltitudeMeters>
            <DistanceMeters>47267.131068679</DistanceMeters>
          </Trackpoint>
          <Trackpoint>
            <Time>2021-08-28T07:35:10.000Z</Time>
            <Position>
              <LatitudeDegrees>38.18018325604498386383056640625</LatitudeDegrees>
              <LongitudeDegrees>-2.03886081464588642120361328125</LongitudeDegrees>
            </Position>
            <AltitudeMeters>1188.199951171875</AltitudeMeters>
            <DistanceMeters>47302.393791015</DistanceMeters>
          </Trackpoint>
          <Trackpoint>
            <Time>2021-08-28T07:35:12.000Z</Time>
            <Position>
              <LatitudeDegrees>38.18031937815248966217041015625</LatitudeDegrees>
              <LongitudeDegrees>-2.038972377777099609375</LongitudeDegrees>
            </Position>
            <AltitudeMeters>1188.5999755859375</AltitudeMeters>
            <DistanceMeters>47320.416829322</DistanceMeters>
          </Trackpoint>
          <Trackpoint>
            <Time>2021-08-28T07:35:14.000Z</Time>
            <Position>
              <LatitudeDegrees>38.18046874366700649261474609375</LatitudeDegrees>
              <LongitudeDegrees>-2.0390714518725872039794921875</LongitudeDegrees>
            </Position>
            <AltitudeMeters>1187.800048828125</AltitudeMeters>
            <DistanceMeters>47339.165771047</DistanceMeters>
          </Trackpoint>
          <Trackpoint>
            <Time>2021-08-28T07:35:15.000Z</Time>
            <Position>
              <LatitudeDegrees>38.18054535426199436187744140625</LatitudeDegrees>
              <LongitudeDegrees>-2.039110846817493438720703125</LongitudeDegrees>
            </Position>
            <AltitudeMeters>1187.5999755859375</AltitudeMeters>
            <DistanceMeters>47348.36325745</DistanceMeters>
          </Trackpoint>
          <Trackpoint>
            <Time>2021-08-28T07:35:16.000Z</Time>
            <Position>
              <LatitudeDegrees>38.18062397651374340057373046875</LatitudeDegrees>
              <LongitudeDegrees>-2.0391432009637355804443359375</LongitudeDegrees>
            </Position>
            <AltitudeMeters>1187.4000244140625</AltitudeMeters>
            <DistanceMeters>47357.560743853</DistanceMeters>
          </Trackpoint>
          <Trackpoint>
            <Time>2021-08-28T07:35:17.000Z</Time>
            <Position>
              <LatitudeDegrees>38.18070695735514163970947265625</LatitudeDegrees>
              <LongitudeDegrees>-2.0391663350164890289306640625</LongitudeDegrees>
            </Position>
            <AltitudeMeters>1187.199951171875</AltitudeMeters>
            <DistanceMeters>47367.016260067</DistanceMeters>
          </Trackpoint>
          <Trackpoint>
            <Time>2021-08-28T07:35:20.000Z</Time>
            <Position>
              <LatitudeDegrees>38.18095187656581401824951171875</LatitudeDegrees>
              <LongitudeDegrees>-2.0391807518899440765380859375</LongitudeDegrees>
            </Position>
            <AltitudeMeters>1187.199951171875</AltitudeMeters>
            <DistanceMeters>47394.305311794</DistanceMeters>
          </Trackpoint>
          <Trackpoint>
            <Time>2021-08-28T07:35:25.000Z</Time>
            <Position>
              <LatitudeDegrees>38.18134247325360774993896484375</LatitudeDegrees>
              <LongitudeDegrees>-2.03925945796072483062744140625</LongitudeDegrees>
            </Position>
            <AltitudeMeters>1187.4000244140625</AltitudeMeters>
            <DistanceMeters>47438.321456119</DistanceMeters>
          </Trackpoint>
          <Trackpoint>
            <Time>2021-08-28T07:35:27.000Z</Time>
            <Position>
              <LatitudeDegrees>38.1814895756542682647705078125</LatitudeDegrees>
              <LongitudeDegrees>-2.03933489508926868438720703125</LongitudeDegrees>
            </Position>
            <AltitudeMeters>1187.800048828125</AltitudeMeters>
            <DistanceMeters>47455.974442781</DistanceMeters>
          </Trackpoint>
          <Trackpoint>
            <Time>2021-08-28T07:35:29.000Z</Time>
            <Position>
              <LatitudeDegrees>38.18161287344992160797119140625</LatitudeDegrees>
              <LongitudeDegrees>-2.03944704495370388031005859375</LongitudeDegrees>
            </Position>
            <AltitudeMeters>1188</AltitudeMeters>
            <DistanceMeters>47472.844829538</DistanceMeters>
          </Trackpoint>
          <Trackpoint>
            <Time>2021-08-28T07:35:30.000Z</Time>
            <Position>
              <LatitudeDegrees>38.18166685290634632110595703125</LatitudeDegrees>
              <LongitudeDegrees>-2.0395113341510295867919921875</LongitudeDegrees>
            </Position>
            <AltitudeMeters>1188</AltitudeMeters>
            <DistanceMeters>47481.074384407</DistanceMeters>
          </Trackpoint>
          <Trackpoint>
            <Time>2021-08-28T07:35:35.000Z</Time>
            <Position>
              <LatitudeDegrees>38.18191512487828731536865234375</LatitudeDegrees>
              <LongitudeDegrees>-2.039841748774051666259765625</LongitudeDegrees>
            </Position>
            <AltitudeMeters>1188.4000244140625</AltitudeMeters>
            <DistanceMeters>47521.065053674</DistanceMeters>
          </Trackpoint>
          <Trackpoint>
            <Time>2021-08-28T07:35:39.000Z</Time>
            <Position>
              <LatitudeDegrees>38.18209215067327022552490234375</LatitudeDegrees>
              <LongitudeDegrees>-2.04013704322278499603271484375</LongitudeDegrees>
            </Position>
            <AltitudeMeters>1188.4000244140625</AltitudeMeters>
            <DistanceMeters>47553.556131169</DistanceMeters>
          </Trackpoint>
          <Trackpoint>
            <Time>2021-08-28T07:35:40.000Z</Time>
            <Position>
              <LatitudeDegrees>38.18211997859179973602294921875</LatitudeDegrees>
              <LongitudeDegrees>-2.040219604969024658203125</LongitudeDegrees>
            </Position>
            <AltitudeMeters>1188.4000244140625</AltitudeMeters>
            <DistanceMeters>47561.41524835</DistanceMeters>
          </Trackpoint>
          <Trackpoint>
            <Time>2021-08-28T07:35:41.000Z</Time>
            <Position>
              <LatitudeDegrees>38.18213959224522113800048828125</LatitudeDegrees>
              <LongitudeDegrees>-2.04030878841876983642578125</LongitudeDegrees>
            </Position>
            <AltitudeMeters>1188.5999755859375</AltitudeMeters>
            <DistanceMeters>47569.517634156</DistanceMeters>
          </Trackpoint>
          <Trackpoint>
            <Time>2021-08-28T07:35:42.000Z</Time>
            <Position>
              <LatitudeDegrees>38.18215099163353443145751953125</LatitudeDegrees>
              <LongitudeDegrees>-2.040401659905910491943359375</LongitudeDegrees>
            </Position>
            <AltitudeMeters>1188.5999755859375</AltitudeMeters>
            <DistanceMeters>47577.741700825</DistanceMeters>
          </Trackpoint>
          <Trackpoint>
            <Time>2021-08-28T07:35:45.000Z</Time>
            <Position>
              <LatitudeDegrees>38.182144872844219207763671875</LatitudeDegrees>
              <LongitudeDegrees>-2.0406861416995525360107421875</LongitudeDegrees>
            </Position>
            <AltitudeMeters>1188.5999755859375</AltitudeMeters>
            <DistanceMeters>47602.640150737</DistanceMeters>
          </Trackpoint>
          <Trackpoint>
            <Time>2021-08-28T07:35:50.000Z</Time>
            <Position>
              <LatitudeDegrees>38.18210824392735958099365234375</LatitudeDegrees>
              <LongitudeDegrees>-2.04115376807749271392822265625</LongitudeDegrees>
            </Position>
            <AltitudeMeters>1188.199951171875</AltitudeMeters>
            <DistanceMeters>47643.754883866</DistanceMeters>
          </Trackpoint>
          <Trackpoint>
            <Time>2021-08-28T07:35:53.000Z</Time>
            <Position>
              <LatitudeDegrees>38.18207639269530773162841796875</LatitudeDegrees>
              <LongitudeDegrees>-2.041434310376644134521484375</LongitudeDegrees>
            </Position>
            <AltitudeMeters>1188.4000244140625</AltitudeMeters>
            <DistanceMeters>47668.554125513</DistanceMeters>
          </Trackpoint>
          <Trackpoint>
            <Time>2021-08-28T07:35:58.000Z</Time>
            <Position>
              <LatitudeDegrees>38.1820337288081645965576171875</LatitudeDegrees>
              <LongitudeDegrees>-2.041901014745235443115234375</LongitudeDegrees>
            </Position>
            <AltitudeMeters>1188.800048828125</AltitudeMeters>
            <DistanceMeters>47709.660841323</DistanceMeters>
          </Trackpoint>
          <Trackpoint>
            <Time>2021-08-28T07:36:00.000Z</Time>
            <Position>
              <LatitudeDegrees>38.182052336633205413818359375</LatitudeDegrees>
              <LongitudeDegrees>-2.04208667390048503875732421875</LongitudeDegrees>
            </Position>
            <AltitudeMeters>1189</AltitudeMeters>
            <DistanceMeters>47726.035242984</DistanceMeters>
          </Trackpoint>
          <Trackpoint>
            <Time>2021-08-28T07:36:06.000Z</Time>
            <Position>
              <LatitudeDegrees>38.18209282122552394866943359375</LatitudeDegrees>
              <LongitudeDegrees>-2.0426215231418609619140625</LongitudeDegrees>
            </Position>
            <AltitudeMeters>1189</AltitudeMeters>
            <DistanceMeters>47773.045142028</DistanceMeters>
          </Trackpoint>
          <Trackpoint>
            <Time>2021-08-28T07:36:08.000Z</Time>
            <Position>
              <LatitudeDegrees>38.18206549622118473052978515625</LatitudeDegrees>
              <LongitudeDegrees>-2.04279595054686069488525390625</LongitudeDegrees>
            </Position>
            <AltitudeMeters>1189</AltitudeMeters>
            <DistanceMeters>47788.605748372</DistanceMeters>
          </Trackpoint>
          <Trackpoint>
            <Time>2021-08-28T07:36:10.000Z</Time>
            <Position>
              <LatitudeDegrees>38.1820196472108364105224609375</LatitudeDegrees>
              <LongitudeDegrees>-2.0429646782577037811279296875</LongitudeDegrees>
            </Position>
            <AltitudeMeters>1189.199951171875</AltitudeMeters>
            <DistanceMeters>47804.224856708</DistanceMeters>
          </Trackpoint>
          <Trackpoint>
            <Time>2021-08-28T07:36:11.000Z</Time>
            <Position>
              <LatitudeDegrees>38.18199760280549526214599609375</LatitudeDegrees>
              <LongitudeDegrees>-2.04304891638457775115966796875</LongitudeDegrees>
            </Position>
            <AltitudeMeters>1189.199951171875</AltitudeMeters>
            <DistanceMeters>47811.992091783</DistanceMeters>
          </Trackpoint>
          <Trackpoint>
            <Time>2021-08-28T07:36:13.000Z</Time>
            <Position>
              <LatitudeDegrees>38.18196952342987060546875</LatitudeDegrees>
              <LongitudeDegrees>-2.0432211644947528839111328125</LongitudeDegrees>
            </Position>
            <AltitudeMeters>1189.199951171875</AltitudeMeters>
            <DistanceMeters>47827.382606239</DistanceMeters>
          </Trackpoint>
          <Trackpoint>
            <Time>2021-08-28T07:36:15.000Z</Time>
            <Position>
              <LatitudeDegrees>38.18200347013771533966064453125</LatitudeDegrees>
              <LongitudeDegrees>-2.04339492134749889373779296875</LongitudeDegrees>
            </Position>
            <AltitudeMeters>1189.4000244140625</AltitudeMeters>
            <DistanceMeters>47843.047033046</DistanceMeters>
          </Trackpoint>
          <Trackpoint>
            <Time>2021-08-28T07:36:17.000Z</Time>
            <Position>
              <LatitudeDegrees>38.18207605741918087005615234375</LatitudeDegrees>
              <LongitudeDegrees>-2.0435540936887264251708984375</LongitudeDegrees>
            </Position>
            <AltitudeMeters>1189.800048828125</AltitudeMeters>
            <DistanceMeters>47859.146701187</DistanceMeters>
          </Trackpoint>
          <Trackpoint>
            <Time>2021-08-28T07:36:20.000Z</Time>
            <Position>
              <LatitudeDegrees>38.18220044486224651336669921875</LatitudeDegrees>
              <LongitudeDegrees>-2.04377613030374050140380859375</LongitudeDegrees>
            </Position>
            <AltitudeMeters>1190.4000244140625</AltitudeMeters>
            <DistanceMeters>47883.001245769</DistanceMeters>
          </Trackpoint>
          <Trackpoint>
            <Time>2021-08-28T07:36:23.000Z</Time>
            <Position>
              <LatitudeDegrees>38.18231695331633090972900390625</LatitudeDegrees>
              <LongitudeDegrees>-2.04397880472242832183837890625</LongitudeDegrees>
            </Position>
            <AltitudeMeters>1190.5999755859375</AltitudeMeters>
            <DistanceMeters>47904.968659935</DistanceMeters>
          </Trackpoint>
          <Trackpoint>
            <Time>2021-08-28T07:36:24.000Z</Time>
            <Position>
              <LatitudeDegrees>38.18235333077609539031982421875</LatitudeDegrees>
              <LongitudeDegrees>-2.0440457761287689208984375</LongitudeDegrees>
            </Position>
            <AltitudeMeters>1190.800048828125</AltitudeMeters>
            <DistanceMeters>47912.091227553</DistanceMeters>
          </Trackpoint>
          <Trackpoint>
            <Time>2021-08-28T07:36:26.000Z</Time>
            <Position>
              <LatitudeDegrees>38.18242457695305347442626953125</LatitudeDegrees>
              <LongitudeDegrees>-2.04418097622692584991455078125</LongitudeDegrees>
            </Position>
            <AltitudeMeters>1191.4000244140625</AltitudeMeters>
            <DistanceMeters>47926.331924754</DistanceMeters>
          </Trackpoint>
          <Trackpoint>
            <Time>2021-08-28T07:36:27.000Z</Time>
            <Position>
              <LatitudeDegrees>38.1824568472802639007568359375</LatitudeDegrees>
              <LongitudeDegrees>-2.0442484505474567413330078125</LongitudeDegrees>
            </Position>
            <AltitudeMeters>1191.5999755859375</AltitudeMeters>
            <DistanceMeters>47933.242137792</DistanceMeters>
          </Trackpoint>
          <Trackpoint>
            <Time>2021-08-28T07:36:28.000Z</Time>
            <Position>
              <LatitudeDegrees>38.1824876926839351654052734375</LatitudeDegrees>
              <LongitudeDegrees>-2.04431525431573390960693359375</LongitudeDegrees>
            </Position>
            <AltitudeMeters>1192</AltitudeMeters>
            <DistanceMeters>47940.020414044</DistanceMeters>
          </Trackpoint>
          <Trackpoint>
            <Time>2021-08-28T07:36:30.000Z</Time>
            <Position>
              <LatitudeDegrees>38.1825503893196582794189453125</LatitudeDegrees>
              <LongitudeDegrees>-2.044442407786846160888671875</LongitudeDegrees>
            </Position>
            <AltitudeMeters>1192.5999755859375</AltitudeMeters>
            <DistanceMeters>47953.152335832</DistanceMeters>
          </Trackpoint>
          <Trackpoint>
            <Time>2021-08-28T07:36:32.000Z</Time>
            <Position>
              <LatitudeDegrees>38.1826161034405231475830078125</LatitudeDegrees>
              <LongitudeDegrees>-2.04457157291471958160400390625</LongitudeDegrees>
            </Position>
            <AltitudeMeters>1193.199951171875</AltitudeMeters>
            <DistanceMeters>47966.613298425</DistanceMeters>
          </Trackpoint>
          <Trackpoint>
            <Time>2021-08-28T07:36:35.000Z</Time>
            <Position>
              <LatitudeDegrees>38.18270243704319000244140625</LatitudeDegrees>
              <LongitudeDegrees>-2.04476687125861644744873046875</LongitudeDegrees>
            </Position>
            <AltitudeMeters>1193.800048828125</AltitudeMeters>
            <DistanceMeters>47986.21645973</DistanceMeters>
          </Trackpoint>
          <Trackpoint>
            <Time>2021-08-28T07:36:37.000Z</Time>
            <Position>
              <LatitudeDegrees>38.18275147117674350738525390625</LatitudeDegrees>
              <LongitudeDegrees>-2.044901736080646514892578125</LongitudeDegrees>
            </Position>
            <AltitudeMeters>1194.199951171875</AltitudeMeters>
            <DistanceMeters>47999.216725524</DistanceMeters>
          </Trackpoint>
          <Trackpoint>
            <Time>2021-08-28T07:36:40.000Z</Time>
            <Position>
              <LatitudeDegrees>38.1828336976468563079833984375</LatitudeDegrees>
              <LongitudeDegrees>-2.0451107807457447052001953125</LongitudeDegrees>
            </Position>
            <AltitudeMeters>1195.4000244140625</AltitudeMeters>
            <DistanceMeters>48019.667790305</DistanceMeters>
          </Trackpoint>
          <Trackpoint>
            <Time>2021-08-28T07:36:42.000Z</Time>
            <Position>
              <LatitudeDegrees>38.18289631046354770660400390625</LatitudeDegrees>
              <LongitudeDegrees>-2.0452375151216983795166015625</LongitudeDegrees>
            </Position>
            <AltitudeMeters>1195.800048828125</AltitudeMeters>
            <DistanceMeters>48032.764250589</DistanceMeters>
          </Trackpoint>
          <Trackpoint>
            <Time>2021-08-28T07:36:44.000Z</Time>
            <Position>
              <LatitudeDegrees>38.1829731725156307220458984375</LatitudeDegrees>
              <LongitudeDegrees>-2.04535041935741901397705078125</LongitudeDegrees>
            </Position>
            <AltitudeMeters>1196.199951171875</AltitudeMeters>
            <DistanceMeters>48045.83171957</DistanceMeters>
          </Trackpoint>
          <Trackpoint>
            <Time>2021-08-28T07:36:46.000Z</Time>
            <Position>
              <LatitudeDegrees>38.18307283334434032440185546875</LatitudeDegrees>
              <LongitudeDegrees>-2.04544899053871631622314453125</LongitudeDegrees>
            </Position>
            <AltitudeMeters>1196.4000244140625</AltitudeMeters>
            <DistanceMeters>48059.882504647</DistanceMeters>
          </Trackpoint>
          <Trackpoint>
            <Time>2021-08-28T07:36:50.000Z</Time>
            <Position>
              <LatitudeDegrees>38.18328313529491424560546875</LatitudeDegrees>
              <LongitudeDegrees>-2.04560422338545322418212890625</LongitudeDegrees>
            </Position>
            <AltitudeMeters>1197.4000244140625</AltitudeMeters>
            <DistanceMeters>48086.943937341</DistanceMeters>
          </Trackpoint>
          <Trackpoint>
            <Time>2021-08-28T07:36:51.000Z</Time>
            <Position>
              <LatitudeDegrees>38.18333954550325870513916015625</LatitudeDegrees>
              <LongitudeDegrees>-2.04563791863620281219482421875</LongitudeDegrees>
            </Position>
            <AltitudeMeters>1197.5999755859375</AltitudeMeters>
            <DistanceMeters>48093.880236592</DistanceMeters>
          </Trackpoint>
          <Trackpoint>
            <Time>2021-08-28T07:36:52.000Z</Time>
            <Position>
              <LatitudeDegrees>38.1834003143012523651123046875</LatitudeDegrees>
              <LongitudeDegrees>-2.04566876403987407684326171875</LongitudeDegrees>
            </Position>
            <AltitudeMeters>1197.800048828125</AltitudeMeters>
            <DistanceMeters>48101.16203643</DistanceMeters>
          </Trackpoint>
          <Trackpoint>
            <Time>2021-08-28T07:36:56.000Z</Time>
            <Position>
              <LatitudeDegrees>38.183661997318267822265625</LatitudeDegrees>
              <LongitudeDegrees>-2.04577454365789890289306640625</LongitudeDegrees>
            </Position>
            <AltitudeMeters>1198.4000244140625</AltitudeMeters>
            <DistanceMeters>48131.722840517</DistanceMeters>
          </Trackpoint>
          <Trackpoint>
            <Time>2021-08-28T07:36:58.000Z</Time>
            <Position>
              <LatitudeDegrees>38.18378563039004802703857421875</LatitudeDegrees>
              <LongitudeDegrees>-2.0458601228892803192138671875</LongitudeDegrees>
            </Position>
            <AltitudeMeters>1198.4000244140625</AltitudeMeters>
            <DistanceMeters>48147.388708434</DistanceMeters>
          </Trackpoint>
          <Trackpoint>
            <Time>2021-08-28T07:37:00.000Z</Time>
            <Position>
              <LatitudeDegrees>38.1839035637676715850830078125</LatitudeDegrees>
              <LongitudeDegrees>-2.0459650643169879913330078125</LongitudeDegrees>
            </Position>
            <AltitudeMeters>1198.4000244140625</AltitudeMeters>
            <DistanceMeters>48163.406841661</DistanceMeters>
          </Trackpoint>
          <Trackpoint>
            <Time>2021-08-28T07:37:05.000Z</Time>
            <Position>
              <LatitudeDegrees>38.184182010591030120849609375</LatitudeDegrees>
              <LongitudeDegrees>-2.046236805617809295654296875</LongitudeDegrees>
            </Position>
            <AltitudeMeters>1198.5999755859375</AltitudeMeters>
            <DistanceMeters>48202.466751614</DistanceMeters>
          </Trackpoint>
          <Trackpoint>
            <Time>2021-08-28T07:37:10.000Z</Time>
            <Position>
              <LatitudeDegrees>38.184402287006378173828125</LatitudeDegrees>
              <LongitudeDegrees>-2.04651433043181896209716796875</LongitudeDegrees>
            </Position>
            <AltitudeMeters>1199</AltitudeMeters>
            <DistanceMeters>48236.971787754</DistanceMeters>
          </Trackpoint>
          <Trackpoint>
            <Time>2021-08-28T07:37:16.000Z</Time>
            <Position>
              <LatitudeDegrees>38.18457889370620250701904296875</LatitudeDegrees>
              <LongitudeDegrees>-2.04686284996569156646728515625</LongitudeDegrees>
            </Position>
            <AltitudeMeters>1200</AltitudeMeters>
            <DistanceMeters>48273.249348326</DistanceMeters>
          </Trackpoint>
          <Trackpoint>
            <Time>2021-08-28T07:37:17.000Z</Time>
            <Position>
              <LatitudeDegrees>38.18460186012089252471923828125</LatitudeDegrees>
              <LongitudeDegrees>-2.04691850580275058746337890625</LongitudeDegrees>
            </Position>
            <AltitudeMeters>1200</AltitudeMeters>
            <DistanceMeters>48278.747775005</DistanceMeters>
          </Trackpoint>
          <Trackpoint>
            <Time>2021-08-28T07:37:20.000Z</Time>
            <Position>
              <LatitudeDegrees>38.184664808213710784912109375</LatitudeDegrees>
              <LongitudeDegrees>-2.04709720797836780548095703125</LongitudeDegrees>
            </Position>
            <AltitudeMeters>1200.800048828125</AltitudeMeters>
            <DistanceMeters>48295.879750216</DistanceMeters>
          </Trackpoint>
          <Trackpoint>
            <Time>2021-08-28T07:37:21.000Z</Time>
            <Position>
              <LatitudeDegrees>38.18468567915260791778564453125</LatitudeDegrees>
              <LongitudeDegrees>-2.0471596531569957733154296875</LongitudeDegrees>
            </Position>
            <AltitudeMeters>1201.199951171875</AltitudeMeters>
            <DistanceMeters>48301.815688077</DistanceMeters>
          </Trackpoint>
          <Trackpoint>
            <Time>2021-08-28T07:37:23.000Z</Time>
            <Position>
              <LatitudeDegrees>38.184741921722888946533203125</LatitudeDegrees>
              <LongitudeDegrees>-2.0472733117640018463134765625</LongitudeDegrees>
            </Position>
            <AltitudeMeters>1201.5999755859375</AltitudeMeters>
            <DistanceMeters>48313.565233118</DistanceMeters>
          </Trackpoint>
          <Trackpoint>
            <Time>2021-08-28T07:37:24.000Z</Time>
            <Position>
              <LatitudeDegrees>38.18477871827781200408935546875</LatitudeDegrees>
              <LongitudeDegrees>-2.047321759164333343505859375</LongitudeDegrees>
            </Position>
            <AltitudeMeters>1202.199951171875</AltitudeMeters>
            <DistanceMeters>48319.458421899</DistanceMeters>
          </Trackpoint>
          <Trackpoint>
            <Time>2021-08-28T07:37:25.000Z</Time>
            <Position>
              <LatitudeDegrees>38.18482029251754283905029296875</LatitudeDegrees>
              <LongitudeDegrees>-2.04736157320439815521240234375</LongitudeDegrees>
            </Position>
            <AltitudeMeters>1202.5999755859375</AltitudeMeters>
            <DistanceMeters>48325.250376145</DistanceMeters>
          </Trackpoint>
          <Trackpoint>
            <Time>2021-08-28T07:37:26.000Z</Time>
            <Position>
              <LatitudeDegrees>38.18486505188047885894775390625</LatitudeDegrees>
              <LongitudeDegrees>-2.04739878885447978973388671875</LongitudeDegrees>
            </Position>
            <AltitudeMeters>1203.4000244140625</AltitudeMeters>
            <DistanceMeters>48331.201507114</DistanceMeters>
          </Trackpoint>
          <Trackpoint>
            <Time>2021-08-28T07:37:27.000Z</Time>
            <Position>
              <LatitudeDegrees>38.18490981124341487884521484375</LatitudeDegrees>
              <LongitudeDegrees>-2.04743516631424427032470703125</LongitudeDegrees>
            </Position>
            <AltitudeMeters>1204</AltitudeMeters>
            <DistanceMeters>48337.113054783</DistanceMeters>
          </Trackpoint>
          <Trackpoint>
            <Time>2021-08-28T07:37:28.000Z</Time>
            <Position>
              <LatitudeDegrees>38.1849502958357334136962890625</LatitudeDegrees>
              <LongitudeDegrees>-2.04747422598302364349365234375</LongitudeDegrees>
            </Position>
            <AltitudeMeters>1204.199951171875</AltitudeMeters>
            <DistanceMeters>48342.766944648</DistanceMeters>
          </Trackpoint>
          <Trackpoint>
            <Time>2021-08-28T07:37:30.000Z</Time>
            <Position>
              <LatitudeDegrees>38.18502682261168956756591796875</LatitudeDegrees>
              <LongitudeDegrees>-2.04755770973861217498779296875</LongitudeDegrees>
            </Position>
            <AltitudeMeters>1204.5999755859375</AltitudeMeters>
            <DistanceMeters>48353.986537583</DistanceMeters>
          </Trackpoint>
          <Trackpoint>
            <Time>2021-08-28T07:37:32.000Z</Time>
            <Position>
              <LatitudeDegrees>38.18509555421769618988037109375</LatitudeDegrees>
              <LongitudeDegrees>-2.04765091650187969207763671875</LongitudeDegrees>
            </Position>
            <AltitudeMeters>1205</AltitudeMeters>
            <DistanceMeters>48365.167027206</DistanceMeters>
          </Trackpoint>
          <Trackpoint>
            <Time>2021-08-28T07:37:36.000Z</Time>
            <Position>
              <LatitudeDegrees>38.18519295193254947662353515625</LatitudeDegrees>
              <LongitudeDegrees>-2.04784981906414031982421875</LongitudeDegrees>
            </Position>
            <AltitudeMeters>1206</AltitudeMeters>
            <DistanceMeters>48385.668586614</DistanceMeters>
          </Trackpoint>
          <Trackpoint>
            <Time>2021-08-28T07:37:39.000Z</Time>
            <Position>
              <LatitudeDegrees>38.185257576406002044677734375</LatitudeDegrees>
              <LongitudeDegrees>-2.04800748266279697418212890625</LongitudeDegrees>
            </Position>
            <AltitudeMeters>1206.800048828125</AltitudeMeters>
            <DistanceMeters>48401.224549733</DistanceMeters>
          </Trackpoint>
          <Trackpoint>
            <Time>2021-08-28T07:37:40.000Z</Time>
            <Position>
              <LatitudeDegrees>38.18527727387845516204833984375</LatitudeDegrees>
              <LongitudeDegrees>-2.04805844463407993316650390625</LongitudeDegrees>
            </Position>
            <AltitudeMeters>1207.199951171875</AltitudeMeters>
            <DistanceMeters>48406.191457105</DistanceMeters>
          </Trackpoint>
          <Trackpoint>
            <Time>2021-08-28T07:37:42.000Z</Time>
            <Position>
              <LatitudeDegrees>38.18531163968145847320556640625</LatitudeDegrees>
              <LongitudeDegrees>-2.0481656491756439208984375</LongitudeDegrees>
            </Position>
            <AltitudeMeters>1207.5999755859375</AltitudeMeters>
            <DistanceMeters>48416.319717983</DistanceMeters>
          </Trackpoint>
          <Trackpoint>
            <Time>2021-08-28T07:37:45.000Z</Time>
            <Position>
              <LatitudeDegrees>38.1853402219712734222412109375</LatitudeDegrees>
              <LongitudeDegrees>-2.04833353869616985321044921875</LongitudeDegrees>
            </Position>
            <AltitudeMeters>1208.4000244140625</AltitudeMeters>
            <DistanceMeters>48431.34776549</DistanceMeters>
          </Trackpoint>
          <Trackpoint>
            <Time>2021-08-28T07:37:50.000Z</Time>
            <Position>
              <LatitudeDegrees>38.1853764317929744720458984375</LatitudeDegrees>
              <LongitudeDegrees>-2.04860477708280086517333984375</LongitudeDegrees>
            </Position>
            <AltitudeMeters>1209.5999755859375</AltitudeMeters>
            <DistanceMeters>48455.416927383</DistanceMeters>
          </Trackpoint>
          <Trackpoint>
            <Time>2021-08-28T07:37:51.000Z</Time>
            <Position>
              <LatitudeDegrees>38.1853881664574146270751953125</LatitudeDegrees>
              <LongitudeDegrees>-2.048658840358257293701171875</LongitudeDegrees>
            </Position>
            <AltitudeMeters>1209.800048828125</AltitudeMeters>
            <DistanceMeters>48460.323472379</DistanceMeters>
          </Trackpoint>
          <Trackpoint>
            <Time>2021-08-28T07:37:53.000Z</Time>
            <Position>
              <LatitudeDegrees>38.18542647175490856170654296875</LatitudeDegrees>
              <LongitudeDegrees>-2.04875933937728404998779296875</LongitudeDegrees>
            </Position>
            <AltitudeMeters>1210.4000244140625</AltitudeMeters>
            <DistanceMeters>48470.094603237</DistanceMeters>
          </Trackpoint>
          <Trackpoint>
            <Time>2021-08-28T07:37:54.000Z</Time>
            <Position>
              <LatitudeDegrees>38.18545295856893062591552734375</LatitudeDegrees>
              <LongitudeDegrees>-2.04880108125507831573486328125</LongitudeDegrees>
            </Position>
            <AltitudeMeters>1210.5999755859375</AltitudeMeters>
            <DistanceMeters>48474.787614685</DistanceMeters>
          </Trackpoint>
          <Trackpoint>
            <Time>2021-08-28T07:37:55.000Z</Time>
            <Position>
              <LatitudeDegrees>38.18548631854355335235595703125</LatitudeDegrees>
              <LongitudeDegrees>-2.04883863218128681182861328125</LongitudeDegrees>
            </Position>
            <AltitudeMeters>1211</AltitudeMeters>
            <DistanceMeters>48479.745423483</DistanceMeters>
          </Trackpoint>
          <Trackpoint>
            <Time>2021-08-28T07:37:57.000Z</Time>
            <Position>
              <LatitudeDegrees>38.18556393496692180633544921875</LatitudeDegrees>
              <LongitudeDegrees>-2.04890367574989795684814453125</LongitudeDegrees>
            </Position>
            <AltitudeMeters>1211.199951171875</AltitudeMeters>
            <DistanceMeters>48490.090250013</DistanceMeters>
          </Trackpoint>
          <Trackpoint>
            <Time>2021-08-28T07:37:59.000Z</Time>
            <Position>
              <LatitudeDegrees>38.1856423057615756988525390625</LatitudeDegrees>
              <LongitudeDegrees>-2.0489631034433841705322265625</LongitudeDegrees>
            </Position>
            <AltitudeMeters>1211.5999755859375</AltitudeMeters>
            <DistanceMeters>48500.244778211</DistanceMeters>
          </Trackpoint>
          <Trackpoint>
            <Time>2021-08-28T07:38:00.000Z</Time>
            <Position>
              <LatitudeDegrees>38.1856835447251796722412109375</LatitudeDegrees>
              <LongitudeDegrees>-2.0489882491528987884521484375</LongitudeDegrees>
            </Position>
            <AltitudeMeters>1212</AltitudeMeters>
            <DistanceMeters>48505.334698575</DistanceMeters>
          </Trackpoint>
          <Trackpoint>
            <Time>2021-08-28T07:38:01.000Z</Time>
            <Position>
              <LatitudeDegrees>38.18572704680263996124267578125</LatitudeDegrees>
              <LongitudeDegrees>-2.0490107126533985137939453125</LongitudeDegrees>
            </Position>
            <AltitudeMeters>1212.199951171875</AltitudeMeters>
            <DistanceMeters>48510.560303915</DistanceMeters>
          </Trackpoint>
          <Trackpoint>
            <Time>2021-08-28T07:38:03.000Z</Time>
            <Position>
              <LatitudeDegrees>38.1858158111572265625</LatitudeDegrees>
              <LongitudeDegrees>-2.04904532991349697113037109375</LongitudeDegrees>
            </Position>
            <AltitudeMeters>1212.4000244140625</AltitudeMeters>
            <DistanceMeters>48520.894213341</DistanceMeters>
          </Trackpoint>
          <Trackpoint>
            <Time>2021-08-28T07:38:05.000Z</Time>
            <Position>
              <LatitudeDegrees>38.1859011389315128326416015625</LatitudeDegrees>
              <LongitudeDegrees>-2.04907952807843685150146484375</LongitudeDegrees>
            </Position>
            <AltitudeMeters>1213</AltitudeMeters>
            <DistanceMeters>48530.851181217</DistanceMeters>
          </Trackpoint>
          <Trackpoint>
            <Time>2021-08-28T07:38:07.000Z</Time>
            <Position>
              <LatitudeDegrees>38.185977078974246978759765625</LatitudeDegrees>
              <LongitudeDegrees>-2.04912965185940265655517578125</LongitudeDegrees>
            </Position>
            <AltitudeMeters>1213.199951171875</AltitudeMeters>
            <DistanceMeters>48540.373313204</DistanceMeters>
          </Trackpoint>
          <Trackpoint>
            <Time>2021-08-28T07:38:09.000Z</Time>
            <Position>
              <LatitudeDegrees>38.18604639731347560882568359375</LatitudeDegrees>
              <LongitudeDegrees>-2.04920341260731220245361328125</LongitudeDegrees>
            </Position>
            <AltitudeMeters>1213.5999755859375</AltitudeMeters>
            <DistanceMeters>48550.431342156</DistanceMeters>
          </Trackpoint>
          <Trackpoint>
            <Time>2021-08-28T07:38:10.000Z</Time>
            <Position>
              <LatitudeDegrees>38.18607657216489315032958984375</LatitudeDegrees>
              <LongitudeDegrees>-2.0492457412183284759521484375</LongitudeDegrees>
            </Position>
            <AltitudeMeters>1213.5999755859375</AltitudeMeters>
            <DistanceMeters>48555.431770305</DistanceMeters>
          </Trackpoint>
          <Trackpoint>
            <Time>2021-08-28T07:38:12.000Z</Time>
            <Position>
              <LatitudeDegrees>38.18611948750913143157958984375</LatitudeDegrees>
              <LongitudeDegrees>-2.0493399538099765777587890625</LongitudeDegrees>
            </Position>
            <AltitudeMeters>1214</AltitudeMeters>
            <DistanceMeters>48564.958168798</DistanceMeters>
          </Trackpoint>
          <Trackpoint>
            <Time>2021-08-28T07:38:14.000Z</Time>
            <Position>
              <LatitudeDegrees>38.1861462257802486419677734375</LatitudeDegrees>
              <LongitudeDegrees>-2.0494365133345127105712890625</LongitudeDegrees>
            </Position>
            <AltitudeMeters>1214.4000244140625</AltitudeMeters>
            <DistanceMeters>48573.913900984</DistanceMeters>
          </Trackpoint>
          <Trackpoint>
            <Time>2021-08-28T07:38:16.000Z</Time>
            <Position>
              <LatitudeDegrees>38.18615351803600788116455078125</LatitudeDegrees>
              <LongitudeDegrees>-2.0495424605906009674072265625</LongitudeDegrees>
            </Position>
            <AltitudeMeters>1214.800048828125</AltitudeMeters>
            <DistanceMeters>48583.218273228</DistanceMeters>
          </Trackpoint>
          <Trackpoint>
            <Time>2021-08-28T07:38:17.000Z</Time>
            <Position>
              <LatitudeDegrees>38.18614798597991466522216796875</LatitudeDegrees>
              <LongitudeDegrees>-2.0495937578380107879638671875</LongitudeDegrees>
            </Position>
            <AltitudeMeters>1215.4000244140625</AltitudeMeters>
            <DistanceMeters>48587.747769192</DistanceMeters>
          </Trackpoint>
          <Trackpoint>
            <Time>2021-08-28T07:38:19.000Z</Time>
            <Position>
              <LatitudeDegrees>38.1861217506229877471923828125</LatitudeDegrees>
              <LongitudeDegrees>-2.0496886409819126129150390625</LongitudeDegrees>
            </Position>
            <AltitudeMeters>1215.800048828125</AltitudeMeters>
            <DistanceMeters>48596.547366086</DistanceMeters>
          </Trackpoint>
          <Trackpoint>
            <Time>2021-08-28T07:38:20.000Z</Time>
            <Position>
              <LatitudeDegrees>38.18609945476055145263671875</LatitudeDegrees>
              <LongitudeDegrees>-2.0497293770313262939453125</LongitudeDegrees>
            </Position>
            <AltitudeMeters>1216</AltitudeMeters>
            <DistanceMeters>48600.88957746</DistanceMeters>
          </Trackpoint>
          <Trackpoint>
            <Time>2021-08-28T07:38:24.000Z</Time>
            <Position>
              <LatitudeDegrees>38.18599392659962177276611328125</LatitudeDegrees>
              <LongitudeDegrees>-2.04987086355686187744140625</LongitudeDegrees>
            </Position>
            <AltitudeMeters>1216.4000244140625</AltitudeMeters>
            <DistanceMeters>48617.953158118</DistanceMeters>
          </Trackpoint>
          <Trackpoint>
            <Time>2021-08-28T07:38:30.000Z</Time>
            <Position>
              <LatitudeDegrees>38.1857908330857753753662109375</LatitudeDegrees>
              <LongitudeDegrees>-2.05002534203231334686279296875</LongitudeDegrees>
            </Position>
            <AltitudeMeters>1217.4000244140625</AltitudeMeters>
            <DistanceMeters>48644.289619568</DistanceMeters>
          </Trackpoint>
          <Trackpoint>
            <Time>2021-08-28T07:38:31.000Z</Time>
            <Position>
              <LatitudeDegrees>38.18576158024370670318603515625</LatitudeDegrees>
              <LongitudeDegrees>-2.0500584505498409271240234375</LongitudeDegrees>
            </Position>
            <AltitudeMeters>1217.4000244140625</AltitudeMeters>
            <DistanceMeters>48648.647400054</DistanceMeters>
          </Trackpoint>
          <Trackpoint>
            <Time>2021-08-28T07:38:34.000Z</Time>
            <Position>
              <LatitudeDegrees>38.18571598269045352935791015625</LatitudeDegrees>
              <LongitudeDegrees>-2.0501835085451602935791015625</LongitudeDegrees>
            </Position>
            <AltitudeMeters>1218.5999755859375</AltitudeMeters>
            <DistanceMeters>48660.707933681</DistanceMeters>
          </Trackpoint>
          <Trackpoint>
            <Time>2021-08-28T07:38:35.000Z</Time>
            <Position>
              <LatitudeDegrees>38.1857133843004703521728515625</LatitudeDegrees>
              <LongitudeDegrees>-2.0502317883074283599853515625</LongitudeDegrees>
            </Position>
            <AltitudeMeters>1218.800048828125</AltitudeMeters>
            <DistanceMeters>48664.941691083</DistanceMeters>
          </Trackpoint>
          <Trackpoint>
            <Time>2021-08-28T07:38:38.000Z</Time>
            <Position>
              <LatitudeDegrees>38.185731656849384307861328125</LatitudeDegrees>
              <LongitudeDegrees>-2.05038274638354778289794921875</LongitudeDegrees>
            </Position>
            <AltitudeMeters>1220</AltitudeMeters>
            <DistanceMeters>48678.303677142</DistanceMeters>
          </Trackpoint>
          <Trackpoint>
            <Time>2021-08-28T07:38:40.000Z</Time>
            <Position>
              <LatitudeDegrees>38.18577012978494167327880859375</LatitudeDegrees>
              <LongitudeDegrees>-2.0504681579768657684326171875</LongitudeDegrees>
            </Position>
            <AltitudeMeters>1220.5999755859375</AltitudeMeters>
            <DistanceMeters>48686.916054741</DistanceMeters>
          </Trackpoint>
          <Trackpoint>
            <Time>2021-08-28T07:38:42.000Z</Time>
            <Position>
              <LatitudeDegrees>38.18582025356590747833251953125</LatitudeDegrees>
              <LongitudeDegrees>-2.05053864978253841400146484375</LongitudeDegrees>
            </Position>
            <AltitudeMeters>1221.199951171875</AltitudeMeters>
            <DistanceMeters>48695.232385392</DistanceMeters>
          </Trackpoint>
          <Trackpoint>
            <Time>2021-08-28T07:38:46.000Z</Time>
            <Position>
              <LatitudeDegrees>38.18593542091548442840576171875</LatitudeDegrees>
              <LongitudeDegrees>-2.05070025287568569183349609375</LongitudeDegrees>
            </Position>
            <AltitudeMeters>1222.4000244140625</AltitudeMeters>
            <DistanceMeters>48714.315964275</DistanceMeters>
          </Trackpoint>
          <Trackpoint>
            <Time>2021-08-28T07:38:49.000Z</Time>
            <Position>
              <LatitudeDegrees>38.186005912721157073974609375</LatitudeDegrees>
              <LongitudeDegrees>-2.05084157176315784454345703125</LongitudeDegrees>
            </Position>
            <AltitudeMeters>1223.5999755859375</AltitudeMeters>
            <DistanceMeters>48728.958714532</DistanceMeters>
          </Trackpoint>
          <Trackpoint>
            <Time>2021-08-28T07:38:50.000Z</Time>
            <Position>
              <LatitudeDegrees>38.1860225088894367218017578125</LatitudeDegrees>
              <LongitudeDegrees>-2.0508872531354427337646484375</LongitudeDegrees>
            </Position>
            <AltitudeMeters>1223.800048828125</AltitudeMeters>
            <DistanceMeters>48733.360821305</DistanceMeters>
          </Trackpoint>
          <Trackpoint>
            <Time>2021-08-28T07:38:52.000Z</Time>
            <Position>
              <LatitudeDegrees>38.18604907952249050140380859375</LatitudeDegrees>
              <LongitudeDegrees>-2.05098054371774196624755859375</LongitudeDegrees>
            </Position>
            <AltitudeMeters>1224.800048828125</AltitudeMeters>
            <DistanceMeters>48742.041603985</DistanceMeters>
          </Trackpoint>
          <Trackpoint>
            <Time>2021-08-28T07:38:53.000Z</Time>
            <Position>
              <LatitudeDegrees>38.18606148473918437957763671875</LatitudeDegrees>
              <LongitudeDegrees>-2.05102932639420032501220703125</LongitudeDegrees>
            </Position>
            <AltitudeMeters>1225</AltitudeMeters>
            <DistanceMeters>48746.527025962</DistanceMeters>
          </Trackpoint>
          <Trackpoint>
            <Time>2021-08-28T07:38:58.000Z</Time>
            <Position>
              <LatitudeDegrees>38.1861432082951068878173828125</LatitudeDegrees>
              <LongitudeDegrees>-2.051286399364471435546875</LongitudeDegrees>
            </Position>
            <AltitudeMeters>1225.4000244140625</AltitudeMeters>
            <DistanceMeters>48770.786584948</DistanceMeters>
          </Trackpoint>
          <Trackpoint>
            <Time>2021-08-28T07:39:00.000Z</Time>
            <Position>
              <LatitudeDegrees>38.18615770898759365081787109375</LatitudeDegrees>
              <LongitudeDegrees>-2.05140248872339725494384765625</LongitudeDegrees>
            </Position>
            <AltitudeMeters>1225.4000244140625</AltitudeMeters>
            <DistanceMeters>48781.069687357</DistanceMeters>
          </Trackpoint>
          <Trackpoint>
            <Time>2021-08-28T07:39:01.000Z</Time>
            <Position>
              <LatitudeDegrees>38.18615821190178394317626953125</LatitudeDegrees>
              <LongitudeDegrees>-2.05146602354943752288818359375</LongitudeDegrees>
            </Position>
            <AltitudeMeters>1225.4000244140625</AltitudeMeters>
            <DistanceMeters>48786.628547095</DistanceMeters>
          </Trackpoint>
          <Trackpoint>
            <Time>2021-08-28T07:39:04.000Z</Time>
            <Position>
              <LatitudeDegrees>38.18612619303166866302490234375</LatitudeDegrees>
              <LongitudeDegrees>-2.0516892336308956146240234375</LongitudeDegrees>
            </Position>
            <AltitudeMeters>1225.4000244140625</AltitudeMeters>
            <DistanceMeters>48806.478670159</DistanceMeters>
          </Trackpoint>
          <Trackpoint>
            <Time>2021-08-28T07:39:09.000Z</Time>
            <Position>
              <LatitudeDegrees>38.1860496662557125091552734375</LatitudeDegrees>
              <LongitudeDegrees>-2.0521535910665988922119140625</LongitudeDegrees>
            </Position>
            <AltitudeMeters>1223.5999755859375</AltitudeMeters>
            <DistanceMeters>48847.985877783</DistanceMeters>
          </Trackpoint>
          <Trackpoint>
            <Time>2021-08-28T07:39:10.000Z</Time>
            <Position>
              <LatitudeDegrees>38.1860312260687351226806640625</LatitudeDegrees>
              <LongitudeDegrees>-2.05225409008562564849853515625</LongitudeDegrees>
            </Position>
            <AltitudeMeters>1223.5999755859375</AltitudeMeters>
            <DistanceMeters>48857.013915775</DistanceMeters>
          </Trackpoint>
          <Trackpoint>
            <Time>2021-08-28T07:39:14.000Z</Time>
            <Position>
              <LatitudeDegrees>38.1859447248280048370361328125</LatitudeDegrees>
              <LongitudeDegrees>-2.052679471671581268310546875</LongitudeDegrees>
            </Position>
            <AltitudeMeters>1222.5999755859375</AltitudeMeters>
            <DistanceMeters>48895.453366974</DistanceMeters>
          </Trackpoint>
          <Trackpoint>
            <Time>2021-08-28T07:39:17.000Z</Time>
            <Position>
              <LatitudeDegrees>38.18586870096623897552490234375</LatitudeDegrees>
              <LongitudeDegrees>-2.05301617272198200225830078125</LongitudeDegrees>
            </Position>
            <AltitudeMeters>1221.5999755859375</AltitudeMeters>
            <DistanceMeters>48926.100918775</DistanceMeters>
          </Trackpoint>
          <Trackpoint>
            <Time>2021-08-28T07:39:18.000Z</Time>
            <Position>
              <LatitudeDegrees>38.1858381070196628570556640625</LatitudeDegrees>
              <LongitudeDegrees>-2.0531289093196392059326171875</LongitudeDegrees>
            </Position>
            <AltitudeMeters>1221.4000244140625</AltitudeMeters>
            <DistanceMeters>48936.535267422</DistanceMeters>
          </Trackpoint>
          <Trackpoint>
            <Time>2021-08-28T07:39:20.000Z</Time>
            <Position>
              <LatitudeDegrees>38.1857747398316860198974609375</LatitudeDegrees>
              <LongitudeDegrees>-2.0533602498471736907958984375</LongitudeDegrees>
            </Position>
            <AltitudeMeters>1220.5999755859375</AltitudeMeters>
            <DistanceMeters>48957.967531151</DistanceMeters>
          </Trackpoint>
          <Trackpoint>
            <Time>2021-08-28T07:39:21.000Z</Time>
            <Position>
              <LatitudeDegrees>38.1857407093048095703125</LatitudeDegrees>
              <LongitudeDegrees>-2.053478099405765533447265625</LongitudeDegrees>
            </Position>
            <AltitudeMeters>1220</AltitudeMeters>
            <DistanceMeters>48968.951238234</DistanceMeters>
          </Trackpoint>
          <Trackpoint>
            <Time>2021-08-28T07:39:25.000Z</Time>
            <Position>
              <LatitudeDegrees>38.1856097839772701263427734375</LatitudeDegrees>
              <LongitudeDegrees>-2.05394446849822998046875</LongitudeDegrees>
            </Position>
            <AltitudeMeters>1218.800048828125</AltitudeMeters>
            <DistanceMeters>49012.275500371</DistanceMeters>
          </Trackpoint>
          <Trackpoint>
            <Time>2021-08-28T07:39:26.000Z</Time>
            <Position>
              <LatitudeDegrees>38.1855906732380390167236328125</LatitudeDegrees>
              <LongitudeDegrees>-2.05405686981976032257080078125</LongitudeDegrees>
            </Position>
            <AltitudeMeters>1217.5999755859375</AltitudeMeters>
            <DistanceMeters>49022.336222356</DistanceMeters>
          </Trackpoint>
          <Trackpoint>
            <Time>2021-08-28T07:39:28.000Z</Time>
            <Position>
              <LatitudeDegrees>38.1856148131191730499267578125</LatitudeDegrees>
              <LongitudeDegrees>-2.05426239408552646636962890625</LongitudeDegrees>
            </Position>
            <AltitudeMeters>1216.199951171875</AltitudeMeters>
            <DistanceMeters>49040.515903262</DistanceMeters>
          </Trackpoint>
          <Trackpoint>
            <Time>2021-08-28T07:39:30.000Z</Time>
            <Position>
              <LatitudeDegrees>38.1857152283191680908203125</LatitudeDegrees>
              <LongitudeDegrees>-2.0544532500207424163818359375</LongitudeDegrees>
            </Position>
            <AltitudeMeters>1215</AltitudeMeters>
            <DistanceMeters>49060.608155438</DistanceMeters>
          </Trackpoint>
          <Trackpoint>
            <Time>2021-08-28T07:39:31.000Z</Time>
            <Position>
              <LatitudeDegrees>38.18577448837459087371826171875</LatitudeDegrees>
              <LongitudeDegrees>-2.0545504800975322723388671875</LongitudeDegrees>
            </Position>
            <AltitudeMeters>1214.800048828125</AltitudeMeters>
            <DistanceMeters>49071.371792406</DistanceMeters>
          </Trackpoint>
          <Trackpoint>
            <Time>2021-08-28T07:39:34.000Z</Time>
            <Position>
              <LatitudeDegrees>38.18596023134887218475341796875</LatitudeDegrees>
              <LongitudeDegrees>-2.05482431687414646148681640625</LongitudeDegrees>
            </Position>
            <AltitudeMeters>1215.199951171875</AltitudeMeters>
            <DistanceMeters>49103.014974869</DistanceMeters>
          </Trackpoint>
          <Trackpoint>
            <Time>2021-08-28T07:39:35.000Z</Time>
            <Position>
              <LatitudeDegrees>38.1860251910984516143798828125</LatitudeDegrees>
              <LongitudeDegrees>-2.05491651780903339385986328125</LongitudeDegrees>
            </Position>
            <AltitudeMeters>1215.4000244140625</AltitudeMeters>
            <DistanceMeters>49113.847186708</DistanceMeters>
          </Trackpoint>
          <Trackpoint>
            <Time>2021-08-28T07:39:40.000Z</Time>
            <Position>
              <LatitudeDegrees>38.18636038340628147125244140625</LatitudeDegrees>
              <LongitudeDegrees>-2.05537836067378520965576171875</LongitudeDegrees>
            </Position>
            <AltitudeMeters>1215.5999755859375</AltitudeMeters>
            <DistanceMeters>49168.841060115</DistanceMeters>
          </Trackpoint>
          <Trackpoint>
            <Time>2021-08-28T07:39:43.000Z</Time>
            <Position>
              <LatitudeDegrees>38.18653439171612262725830078125</LatitudeDegrees>
              <LongitudeDegrees>-2.0556679554283618927001953125</LongitudeDegrees>
            </Position>
            <AltitudeMeters>1215.199951171875</AltitudeMeters>
            <DistanceMeters>49200.730417099</DistanceMeters>
          </Trackpoint>
          <Trackpoint>
            <Time>2021-08-28T07:39:45.000Z</Time>
            <Position>
              <LatitudeDegrees>38.186584599316120147705078125</LatitudeDegrees>
              <LongitudeDegrees>-2.05589250661432743072509765625</LongitudeDegrees>
            </Position>
            <AltitudeMeters>1215</AltitudeMeters>
            <DistanceMeters>49221.154308776</DistanceMeters>
          </Trackpoint>
          <Trackpoint>
            <Time>2021-08-28T07:39:46.000Z</Time>
            <Position>
              <LatitudeDegrees>38.1865971721708774566650390625</LatitudeDegrees>
              <LongitudeDegrees>-2.056010775268077850341796875</LongitudeDegrees>
            </Position>
            <AltitudeMeters>1214.800048828125</AltitudeMeters>
            <DistanceMeters>49231.595146043</DistanceMeters>
          </Trackpoint>
          <Trackpoint>
            <Time>2021-08-28T07:39:47.000Z</Time>
            <Position>
              <LatitudeDegrees>38.18660211749374866485595703125</LatitudeDegrees>
              <LongitudeDegrees>-2.056133486330509185791015625</LongitudeDegrees>
            </Position>
            <AltitudeMeters>1214.5999755859375</AltitudeMeters>
            <DistanceMeters>49242.344091484</DistanceMeters>
          </Trackpoint>
          <Trackpoint>
            <Time>2021-08-28T07:39:49.000Z</Time>
            <Position>
              <LatitudeDegrees>38.18656624294817447662353515625</LatitudeDegrees>
              <LongitudeDegrees>-2.05637832172214984893798828125</LongitudeDegrees>
            </Position>
            <AltitudeMeters>1214.199951171875</AltitudeMeters>
            <DistanceMeters>49264.131957802</DistanceMeters>
          </Trackpoint>
          <Trackpoint>
            <Time>2021-08-28T07:39:50.000Z</Time>
            <Position>
              <LatitudeDegrees>38.186529614031314849853515625</LatitudeDegrees>
              <LongitudeDegrees>-2.056496255099773406982421875</LongitudeDegrees>
            </Position>
            <AltitudeMeters>1214</AltitudeMeters>
            <DistanceMeters>49275.225283803</DistanceMeters>
          </Trackpoint>
          <Trackpoint>
            <Time>2021-08-28T07:39:53.000Z</Time>
            <Position>
              <LatitudeDegrees>38.1864134408533573150634765625</LatitudeDegrees>
              <LongitudeDegrees>-2.05685458146035671234130859375</LongitudeDegrees>
            </Position>
            <AltitudeMeters>1213.199951171875</AltitudeMeters>
            <DistanceMeters>49309.135044555</DistanceMeters>
          </Trackpoint>
          <Trackpoint>
            <Time>2021-08-28T07:39:54.000Z</Time>
            <Position>
              <LatitudeDegrees>38.18639324046671390533447265625</LatitudeDegrees>
              <LongitudeDegrees>-2.0569782145321369171142578125</LongitudeDegrees>
            </Position>
            <AltitudeMeters>1213</AltitudeMeters>
            <DistanceMeters>49320.182283266</DistanceMeters>
          </Trackpoint>
          <Trackpoint>
            <Time>2021-08-28T07:39:55.000Z</Time>
            <Position>
              <LatitudeDegrees>38.1863965094089508056640625</LatitudeDegrees>
              <LongitudeDegrees>-2.0570995844900608062744140625</LongitudeDegrees>
            </Position>
            <AltitudeMeters>1212.800048828125</AltitudeMeters>
            <DistanceMeters>49330.806592916</DistanceMeters>
          </Trackpoint>
          <Trackpoint>
            <Time>2021-08-28T07:39:57.000Z</Time>
            <Position>
              <LatitudeDegrees>38.18643799982964992523193359375</LatitudeDegrees>
              <LongitudeDegrees>-2.05732472240924835205078125</LongitudeDegrees>
            </Position>
            <AltitudeMeters>1213</AltitudeMeters>
            <DistanceMeters>49351.036349821</DistanceMeters>
          </Trackpoint>
          <Trackpoint>
            <Time>2021-08-28T07:40:00.000Z</Time>
            <Position>
              <LatitudeDegrees>38.18650404922664165496826171875</LatitudeDegrees>
              <LongitudeDegrees>-2.057629488408565521240234375</LongitudeDegrees>
            </Position>
            <AltitudeMeters>1213.4000244140625</AltitudeMeters>
            <DistanceMeters>49378.693205305</DistanceMeters>
          </Trackpoint>
          <Trackpoint>
            <Time>2021-08-28T07:40:01.000Z</Time>
            <Position>
              <LatitudeDegrees>38.18651712499558925628662109375</LatitudeDegrees>
              <LongitudeDegrees>-2.05772847868502140045166015625</LongitudeDegrees>
            </Position>
            <AltitudeMeters>1213.5999755859375</AltitudeMeters>
            <DistanceMeters>49387.474311315</DistanceMeters>
          </Trackpoint>
          <Trackpoint>
            <Time>2021-08-28T07:40:02.000Z</Time>
            <Position>
              <LatitudeDegrees>38.1865240819752216339111328125</LatitudeDegrees>
              <LongitudeDegrees>-2.05782855860888957977294921875</LongitudeDegrees>
            </Position>
            <AltitudeMeters>1213.5999755859375</AltitudeMeters>
            <DistanceMeters>49396.263640299</DistanceMeters>
          </Trackpoint>
          <Trackpoint>
            <Time>2021-08-28T07:40:03.000Z</Time>
            <Position>
              <LatitudeDegrees>38.18652265705168247222900390625</LatitudeDegrees>
              <LongitudeDegrees>-2.05792763270437717437744140625</LongitudeDegrees>
            </Position>
            <AltitudeMeters>1213.5999755859375</AltitudeMeters>
            <DistanceMeters>49404.932451991</DistanceMeters>
          </Trackpoint>
          <Trackpoint>
            <Time>2021-08-28T07:40:05.000Z</Time>
            <Position>
              <LatitudeDegrees>38.1865063123404979705810546875</LatitudeDegrees>
              <LongitudeDegrees>-2.0581322349607944488525390625</LongitudeDegrees>
            </Position>
            <AltitudeMeters>1214</AltitudeMeters>
            <DistanceMeters>49422.923897742</DistanceMeters>
          </Trackpoint>
          <Trackpoint>
            <Time>2021-08-28T07:40:07.000Z</Time>
            <Position>
              <LatitudeDegrees>38.186469934880733489990234375</LatitudeDegrees>
              <LongitudeDegrees>-2.05835259519517421722412109375</LongitudeDegrees>
            </Position>
            <AltitudeMeters>1214.199951171875</AltitudeMeters>
            <DistanceMeters>49442.622181546</DistanceMeters>
          </Trackpoint>
          <Trackpoint>
            <Time>2021-08-28T07:40:10.000Z</Time>
            <Position>
              <LatitudeDegrees>38.18634680472314357757568359375</LatitudeDegrees>
              <LongitudeDegrees>-2.05870010890066623687744140625</LongitudeDegrees>
            </Position>
            <AltitudeMeters>1213.5999755859375</AltitudeMeters>
            <DistanceMeters>49475.970195495</DistanceMeters>
          </Trackpoint>
          <Trackpoint>
            <Time>2021-08-28T07:40:11.000Z</Time>
            <Position>
              <LatitudeDegrees>38.1862967647612094879150390625</LatitudeDegrees>
              <LongitudeDegrees>-2.0588235743343830108642578125</LongitudeDegrees>
            </Position>
            <AltitudeMeters>1213.5999755859375</AltitudeMeters>
            <DistanceMeters>49488.122473889</DistanceMeters>
          </Trackpoint>
          <Trackpoint>
            <Time>2021-08-28T07:40:12.000Z</Time>
            <Position>
              <LatitudeDegrees>38.18625041283667087554931640625</LatitudeDegrees>
              <LongitudeDegrees>-2.058953829109668731689453125</LongitudeDegrees>
            </Position>
            <AltitudeMeters>1212.4000244140625</AltitudeMeters>
            <DistanceMeters>49500.631397289</DistanceMeters>
          </Trackpoint>
          <Trackpoint>
            <Time>2021-08-28T07:40:13.000Z</Time>
            <Position>
              <LatitudeDegrees>38.18621210753917694091796875</LatitudeDegrees>
              <LongitudeDegrees>-2.059091627597808837890625</LongitudeDegrees>
            </Position>
            <AltitudeMeters>1211.5999755859375</AltitudeMeters>
            <DistanceMeters>49513.418052993</DistanceMeters>
          </Trackpoint>
          <Trackpoint>
            <Time>2021-08-28T07:40:14.000Z</Time>
            <Position>
              <LatitudeDegrees>38.18618595600128173828125</LatitudeDegrees>
              <LongitudeDegrees>-2.059236466884613037109375</LongitudeDegrees>
            </Position>
            <AltitudeMeters>1211.199951171875</AltitudeMeters>
            <DistanceMeters>49526.419013376</DistanceMeters>
          </Trackpoint>
          <Trackpoint>
            <Time>2021-08-28T07:40:15.000Z</Time>
            <Position>
              <LatitudeDegrees>38.18615980446338653564453125</LatitudeDegrees>
              <LongitudeDegrees>-2.0593854971230030059814453125</LongitudeDegrees>
            </Position>
            <AltitudeMeters>1210.800048828125</AltitudeMeters>
            <DistanceMeters>49539.777619991</DistanceMeters>
          </Trackpoint>
          <Trackpoint>
            <Time>2021-08-28T07:40:17.000Z</Time>
            <Position>
              <LatitudeDegrees>38.1860942579805850982666015625</LatitudeDegrees>
              <LongitudeDegrees>-2.0596922747790813446044921875</LongitudeDegrees>
            </Position>
            <AltitudeMeters>1209.5999755859375</AltitudeMeters>
            <DistanceMeters>49567.589781866</DistanceMeters>
          </Trackpoint>
          <Trackpoint>
            <Time>2021-08-28T07:40:19.000Z</Time>
            <Position>
              <LatitudeDegrees>38.18600415252149105072021484375</LatitudeDegrees>
              <LongitudeDegrees>-2.06000466831028461456298828125</LongitudeDegrees>
            </Position>
            <AltitudeMeters>1208</AltitudeMeters>
            <DistanceMeters>49596.701165795</DistanceMeters>
          </Trackpoint>
          <Trackpoint>
            <Time>2021-08-28T07:40:20.000Z</Time>
            <Position>
              <LatitudeDegrees>38.1859578005969524383544921875</LatitudeDegrees>
              <LongitudeDegrees>-2.0601626671850681304931640625</LongitudeDegrees>
            </Position>
            <AltitudeMeters>1207.4000244140625</AltitudeMeters>
            <DistanceMeters>49611.455115191</DistanceMeters>
          </Trackpoint>
          <Trackpoint>
            <Time>2021-08-28T07:40:22.000Z</Time>
            <Position>
              <LatitudeDegrees>38.18586853332817554473876953125</LatitudeDegrees>
              <LongitudeDegrees>-2.0604784972965717315673828125</LongitudeDegrees>
            </Position>
            <AltitudeMeters>1206.199951171875</AltitudeMeters>
            <DistanceMeters>49640.817601096</DistanceMeters>
          </Trackpoint>
          <Trackpoint>
            <Time>2021-08-28T07:40:23.000Z</Time>
            <Position>
              <LatitudeDegrees>38.18582578562200069427490234375</LatitudeDegrees>
              <LongitudeDegrees>-2.060631550848484039306640625</LongitudeDegrees>
            </Position>
            <AltitudeMeters>1205</AltitudeMeters>
            <DistanceMeters>49655.027828731</DistanceMeters>
          </Trackpoint>
          <Trackpoint>
            <Time>2021-08-28T07:40:24.000Z</Time>
            <Position>
              <LatitudeDegrees>38.185785971581935882568359375</LatitudeDegrees>
              <LongitudeDegrees>-2.060779742896556854248046875</LongitudeDegrees>
            </Position>
            <AltitudeMeters>1204</AltitudeMeters>
            <DistanceMeters>49668.728822459</DistanceMeters>
          </Trackpoint>
          <Trackpoint>
            <Time>2021-08-28T07:40:25.000Z</Time>
            <Position>
              <LatitudeDegrees>38.18575185723602771759033203125</LatitudeDegrees>
              <LongitudeDegrees>-2.06092894077301025390625</LongitudeDegrees>
            </Position>
            <AltitudeMeters>1203.4000244140625</AltitudeMeters>
            <DistanceMeters>49682.322625619</DistanceMeters>
          </Trackpoint>
          <Trackpoint>
            <Time>2021-08-28T07:40:28.000Z</Time>
            <Position>
              <LatitudeDegrees>38.18567055277526378631591796875</LatitudeDegrees>
              <LongitudeDegrees>-2.06137762404978275299072265625</LongitudeDegrees>
            </Position>
            <AltitudeMeters>1202.4000244140625</AltitudeMeters>
            <DistanceMeters>49722.60498673</DistanceMeters>
          </Trackpoint>
          <Trackpoint>
            <Time>2021-08-28T07:40:30.000Z</Time>
            <Position>
              <LatitudeDegrees>38.18563149310648441314697265625</LatitudeDegrees>
              <LongitudeDegrees>-2.061673589050769805908203125</LongitudeDegrees>
            </Position>
            <AltitudeMeters>1201.5999755859375</AltitudeMeters>
            <DistanceMeters>49748.859717453</DistanceMeters>
          </Trackpoint>
          <Trackpoint>
            <Time>2021-08-28T07:40:31.000Z</Time>
            <Position>
              <LatitudeDegrees>38.185633756220340728759765625</LatitudeDegrees>
              <LongitudeDegrees>-2.0618159137666225433349609375</LongitudeDegrees>
            </Position>
            <AltitudeMeters>1201</AltitudeMeters>
            <DistanceMeters>49761.312931209</DistanceMeters>
          </Trackpoint>
          <Trackpoint>
            <Time>2021-08-28T07:40:32.000Z</Time>
            <Position>
              <LatitudeDegrees>38.1856624223291873931884765625</LatitudeDegrees>
              <LongitudeDegrees>-2.0619480125606060028076171875</LongitudeDegrees>
            </Position>
            <AltitudeMeters>1200.199951171875</AltitudeMeters>
            <DistanceMeters>49773.302124544</DistanceMeters>
          </Trackpoint>
          <Trackpoint>
            <Time>2021-08-28T07:40:33.000Z</Time>
            <Position>
              <LatitudeDegrees>38.18571455776691436767578125</LatitudeDegrees>
              <LongitudeDegrees>-2.0620683766901493072509765625</LongitudeDegrees>
            </Position>
            <AltitudeMeters>1199.800048828125</AltitudeMeters>
            <DistanceMeters>49785.325163416</DistanceMeters>
          </Trackpoint>
          <Trackpoint>
            <Time>2021-08-28T07:40:34.000Z</Time>
            <Position>
              <LatitudeDegrees>38.185785971581935882568359375</LatitudeDegrees>
              <LongitudeDegrees>-2.0621776767075061798095703125</LongitudeDegrees>
            </Position>
            <AltitudeMeters>1199.4000244140625</AltitudeMeters>
            <DistanceMeters>49797.759509755</DistanceMeters>
          </Trackpoint>
          <Trackpoint>
            <Time>2021-08-28T07:40:36.000Z</Time>
            <Position>
              <LatitudeDegrees>38.1859470717608928680419921875</LatitudeDegrees>
              <LongitudeDegrees>-2.06240692175924777984619140625</LongitudeDegrees>
            </Position>
            <AltitudeMeters>1198.199951171875</AltitudeMeters>
            <DistanceMeters>49824.661805879</DistanceMeters>
          </Trackpoint>
          <Trackpoint>
            <Time>2021-08-28T07:40:37.000Z</Time>
            <Position>
              <LatitudeDegrees>38.18602569401264190673828125</LatitudeDegrees>
              <LongitudeDegrees>-2.06253047101199626922607421875</LongitudeDegrees>
            </Position>
            <AltitudeMeters>1197.199951171875</AltitudeMeters>
            <DistanceMeters>49838.568860825</DistanceMeters>
          </Trackpoint>
          <Trackpoint>
            <Time>2021-08-28T07:40:39.000Z</Time>
            <Position>
              <LatitudeDegrees>38.18618738092482089996337890625</LatitudeDegrees>
              <LongitudeDegrees>-2.06275879405438899993896484375</LongitudeDegrees>
            </Position>
            <AltitudeMeters>1196.199951171875</AltitudeMeters>
            <DistanceMeters>49865.454704484</DistanceMeters>
          </Trackpoint>
          <Trackpoint>
            <Time>2021-08-28T07:40:40.000Z</Time>
            <Position>
              <LatitudeDegrees>38.18628318607807159423828125</LatitudeDegrees>
              <LongitudeDegrees>-2.06284043379127979278564453125</LongitudeDegrees>
            </Position>
            <AltitudeMeters>1195.4000244140625</AltitudeMeters>
            <DistanceMeters>49878.2885891</DistanceMeters>
          </Trackpoint>
          <Trackpoint>
            <Time>2021-08-28T07:40:41.000Z</Time>
            <Position>
              <LatitudeDegrees>38.18639407865703105926513671875</LatitudeDegrees>
              <LongitudeDegrees>-2.06289659254252910614013671875</LongitudeDegrees>
            </Position>
            <AltitudeMeters>1194.4000244140625</AltitudeMeters>
            <DistanceMeters>49891.573310175</DistanceMeters>
          </Trackpoint>
          <Trackpoint>
            <Time>2021-08-28T07:40:43.000Z</Time>
            <Position>
              <LatitudeDegrees>38.1866166181862354278564453125</LatitudeDegrees>
              <LongitudeDegrees>-2.06298812292516231536865234375</LongitudeDegrees>
            </Position>
            <AltitudeMeters>1193</AltitudeMeters>
            <DistanceMeters>49917.604386533</DistanceMeters>
          </Trackpoint>
          <Trackpoint>
            <Time>2021-08-28T07:40:44.000Z</Time>
            <Position>
              <LatitudeDegrees>38.18671158514916896820068359375</LatitudeDegrees>
              <LongitudeDegrees>-2.06305920146405696868896484375</LongitudeDegrees>
            </Position>
            <AltitudeMeters>1192.199951171875</AltitudeMeters>
            <DistanceMeters>49929.867619919</DistanceMeters>
          </Trackpoint>
          <Trackpoint>
            <Time>2021-08-28T07:40:45.000Z</Time>
            <Position>
              <LatitudeDegrees>38.1867906264960765838623046875</LatitudeDegrees>
              <LongitudeDegrees>-2.06315911374986171722412109375</LongitudeDegrees>
            </Position>
            <AltitudeMeters>1191.5999755859375</AltitudeMeters>
            <DistanceMeters>49942.269243281</DistanceMeters>
          </Trackpoint>
          <Trackpoint>
            <Time>2021-08-28T07:40:46.000Z</Time>
            <Position>
              <LatitudeDegrees>38.18686111830174922943115234375</LatitudeDegrees>
              <LongitudeDegrees>-2.06327922642230987548828125</LongitudeDegrees>
            </Position>
            <AltitudeMeters>1190.800048828125</AltitudeMeters>
            <DistanceMeters>49955.382929864</DistanceMeters>
          </Trackpoint>
          <Trackpoint>
            <Time>2021-08-28T07:40:47.000Z</Time>
            <Position>
              <LatitudeDegrees>38.1869200430810451507568359375</LatitudeDegrees>
              <LongitudeDegrees>-2.0634094811975955963134765625</LongitudeDegrees>
            </Position>
            <AltitudeMeters>1189.4000244140625</AltitudeMeters>
            <DistanceMeters>49968.531001336</DistanceMeters>
          </Trackpoint>
          <Trackpoint>
            <Time>2021-08-28T07:40:49.000Z</Time>
            <Position>
              <LatitudeDegrees>38.1870407424867153167724609375</LatitudeDegrees>
              <LongitudeDegrees>-2.0636730082333087921142578125</LongitudeDegrees>
            </Position>
            <AltitudeMeters>1188</AltitudeMeters>
            <DistanceMeters>49995.213717599</DistanceMeters>
          </Trackpoint>
          <Trackpoint>
            <Time>2021-08-28T07:40:50.000Z</Time>
            <Position>
              <LatitudeDegrees>38.1871041096746921539306640625</LatitudeDegrees>
              <LongitudeDegrees>-2.0637923665344715118408203125</LongitudeDegrees>
            </Position>
            <AltitudeMeters>1187.4000244140625</AltitudeMeters>
            <DistanceMeters>50007.813987597</DistanceMeters>
          </Trackpoint>
          <Trackpoint>
            <Time>2021-08-28T07:40:51.000Z</Time>
            <Position>
              <LatitudeDegrees>38.18715180270373821258544921875</LatitudeDegrees>
              <LongitudeDegrees>-2.06391247920691967010498046875</LongitudeDegrees>
            </Position>
            <AltitudeMeters>1186.199951171875</AltitudeMeters>
            <DistanceMeters>50019.586566468</DistanceMeters>
          </Trackpoint>
          <Trackpoint>
            <Time>2021-08-28T07:40:53.000Z</Time>
            <Position>
              <LatitudeDegrees>38.18717812187969684600830078125</LatitudeDegrees>
              <LongitudeDegrees>-2.0641757547855377197265625</LongitudeDegrees>
            </Position>
            <AltitudeMeters>1184.800048828125</AltitudeMeters>
            <DistanceMeters>50042.804220169</DistanceMeters>
          </Trackpoint>
          <Trackpoint>
            <Time>2021-08-28T07:40:54.000Z</Time>
            <Position>
              <LatitudeDegrees>38.18714895285665988922119140625</LatitudeDegrees>
              <LongitudeDegrees>-2.0643071830272674560546875</LongitudeDegrees>
            </Position>
            <AltitudeMeters>1183.5999755859375</AltitudeMeters>
            <DistanceMeters>50054.751160709</DistanceMeters>
          </Trackpoint>
          <Trackpoint>
            <Time>2021-08-28T07:40:55.000Z</Time>
            <Position>
              <LatitudeDegrees>38.18709581159055233001708984375</LatitudeDegrees>
              <LongitudeDegrees>-2.064432241022586822509765625</LongitudeDegrees>
            </Position>
            <AltitudeMeters>1183</AltitudeMeters>
            <DistanceMeters>50067.187685519</DistanceMeters>
          </Trackpoint>
          <Trackpoint>
            <Time>2021-08-28T07:40:56.000Z</Time>
            <Position>
              <LatitudeDegrees>38.18702372722327709197998046875</LatitudeDegrees>
              <LongitudeDegrees>-2.06455151550471782684326171875</LongitudeDegrees>
            </Position>
            <AltitudeMeters>1182.199951171875</AltitudeMeters>
            <DistanceMeters>50080.349828831</DistanceMeters>
          </Trackpoint>
          <Trackpoint>
            <Time>2021-08-28T07:40:58.000Z</Time>
            <Position>
              <LatitudeDegrees>38.18686656653881072998046875</LatitudeDegrees>
              <LongitudeDegrees>-2.06478972919285297393798828125</LongitudeDegrees>
            </Position>
            <AltitudeMeters>1181.199951171875</AltitudeMeters>
            <DistanceMeters>50107.557688113</DistanceMeters>
          </Trackpoint>
          <Trackpoint>
            <Time>2021-08-28T07:40:59.000Z</Time>
            <Position>
              <LatitudeDegrees>38.18678953684866428375244140625</LatitudeDegrees>
              <LongitudeDegrees>-2.0649041421711444854736328125</LongitudeDegrees>
            </Position>
            <AltitudeMeters>1180.800048828125</AltitudeMeters>
            <DistanceMeters>50120.736629282</DistanceMeters>
          </Trackpoint>
          <Trackpoint>
            <Time>2021-08-28T07:41:00.000Z</Time>
            <Position>
              <LatitudeDegrees>38.18670689128339290618896484375</LatitudeDegrees>
              <LongitudeDegrees>-2.0650018751621246337890625</LongitudeDegrees>
            </Position>
            <AltitudeMeters>1180.4000244140625</AltitudeMeters>
            <DistanceMeters>50133.295264366</DistanceMeters>
          </Trackpoint>
          <Trackpoint>
            <Time>2021-08-28T07:41:01.000Z</Time>
            <Position>
              <LatitudeDegrees>38.1866137683391571044921875</LatitudeDegrees>
              <LongitudeDegrees>-2.065069936215877532958984375</LongitudeDegrees>
            </Position>
            <AltitudeMeters>1180</AltitudeMeters>
            <DistanceMeters>50145.248250164</DistanceMeters>
          </Trackpoint>
          <Trackpoint>
            <Time>2021-08-28T07:41:02.000Z</Time>
            <Position>
              <LatitudeDegrees>38.18651025183498859405517578125</LatitudeDegrees>
              <LongitudeDegrees>-2.06510086543858051300048828125</LongitudeDegrees>
            </Position>
            <AltitudeMeters>1178</AltitudeMeters>
            <DistanceMeters>50157.083177951</DistanceMeters>
          </Trackpoint>
          <Trackpoint>
            <Time>2021-08-28T07:41:03.000Z</Time>
            <Position>
              <LatitudeDegrees>38.1864017061889171600341796875</LatitudeDegrees>
              <LongitudeDegrees>-2.06510237418115139007568359375</LongitudeDegrees>
            </Position>
            <AltitudeMeters>1176.800048828125</AltitudeMeters>
            <DistanceMeters>50169.165031522</DistanceMeters>
          </Trackpoint>
          <Trackpoint>
            <Time>2021-08-28T07:41:04.000Z</Time>
            <Position>
              <LatitudeDegrees>38.18629466928541660308837890625</LatitudeDegrees>
              <LongitudeDegrees>-2.065114192664623260498046875</LongitudeDegrees>
            </Position>
            <AltitudeMeters>1176</AltitudeMeters>
            <DistanceMeters>50181.123304415</DistanceMeters>
          </Trackpoint>
          <Trackpoint>
            <Time>2021-08-28T07:41:05.000Z</Time>
            <Position>
              <LatitudeDegrees>38.1861926615238189697265625</LatitudeDegrees>
              <LongitudeDegrees>-2.0651609636843204498291015625</LongitudeDegrees>
            </Position>
            <AltitudeMeters>1175.199951171875</AltitudeMeters>
            <DistanceMeters>50193.192071255</DistanceMeters>
          </Trackpoint>
          <Trackpoint>
            <Time>2021-08-28T07:41:06.000Z</Time>
            <Position>
              <LatitudeDegrees>38.18610574118793010711669921875</LatitudeDegrees>
              <LongitudeDegrees>-2.06524662673473358154296875</LongitudeDegrees>
            </Position>
            <AltitudeMeters>1174.4000244140625</AltitudeMeters>
            <DistanceMeters>50205.429505126</DistanceMeters>
          </Trackpoint>
          <Trackpoint>
            <Time>2021-08-28T07:41:07.000Z</Time>
            <Position>
              <LatitudeDegrees>38.18603449501097202301025390625</LatitudeDegrees>
              <LongitudeDegrees>-2.065354250371456146240234375</LongitudeDegrees>
            </Position>
            <AltitudeMeters>1173.199951171875</AltitudeMeters>
            <DistanceMeters>50217.739408164</DistanceMeters>
          </Trackpoint>
          <Trackpoint>
            <Time>2021-08-28T07:41:09.000Z</Time>
            <Position>
              <LatitudeDegrees>38.1859095208346843719482421875</LatitudeDegrees>
              <LongitudeDegrees>-2.06559891812503337860107421875</LongitudeDegrees>
            </Position>
            <AltitudeMeters>1172.199951171875</AltitudeMeters>
            <DistanceMeters>50243.266774587</DistanceMeters>
          </Trackpoint>
          <Trackpoint>
            <Time>2021-08-28T07:41:10.000Z</Time>
            <Position>
              <LatitudeDegrees>38.185845315456390380859375</LatitudeDegrees>
              <LongitudeDegrees>-2.0657282508909702301025390625</LongitudeDegrees>
            </Position>
            <AltitudeMeters>1171.800048828125</AltitudeMeters>
            <DistanceMeters>50256.649356778</DistanceMeters>
          </Trackpoint>
          <Trackpoint>
            <Time>2021-08-28T07:41:12.000Z</Time>
            <Position>
              <LatitudeDegrees>38.18571388721466064453125</LatitudeDegrees>
              <LongitudeDegrees>-2.06598515622317790985107421875</LongitudeDegrees>
            </Position>
            <AltitudeMeters>1171.4000244140625</AltitudeMeters>
            <DistanceMeters>50283.465754144</DistanceMeters>
          </Trackpoint>
          <Trackpoint>
            <Time>2021-08-28T07:41:13.000Z</Time>
            <Position>
              <LatitudeDegrees>38.185647837817668914794921875</LatitudeDegrees>
              <LongitudeDegrees>-2.06611524336040019989013671875</LongitudeDegrees>
            </Position>
            <AltitudeMeters>1170.5999755859375</AltitudeMeters>
            <DistanceMeters>50297.01431104</DistanceMeters>
          </Trackpoint>
          <Trackpoint>
            <Time>2021-08-28T07:41:14.000Z</Time>
            <Position>
              <LatitudeDegrees>38.18559092469513416290283203125</LatitudeDegrees>
              <LongitudeDegrees>-2.066252790391445159912109375</LongitudeDegrees>
            </Position>
            <AltitudeMeters>1169.800048828125</AltitudeMeters>
            <DistanceMeters>50310.613427393</DistanceMeters>
          </Trackpoint>
          <Trackpoint>
            <Time>2021-08-28T07:41:15.000Z</Time>
            <Position>
              <LatitudeDegrees>38.18554901517927646636962890625</LatitudeDegrees>
              <LongitudeDegrees>-2.06639855168759822845458984375</LongitudeDegrees>
            </Position>
            <AltitudeMeters>1169.199951171875</AltitudeMeters>
            <DistanceMeters>50324.191278499</DistanceMeters>
          </Trackpoint>
          <Trackpoint>
            <Time>2021-08-28T07:41:16.000Z</Time>
            <Position>
              <LatitudeDegrees>38.185522444546222686767578125</LatitudeDegrees>
              <LongitudeDegrees>-2.0665506832301616668701171875</LongitudeDegrees>
            </Position>
            <AltitudeMeters>1168.800048828125</AltitudeMeters>
            <DistanceMeters>50337.824880134</DistanceMeters>
          </Trackpoint>
          <Trackpoint>
            <Time>2021-08-28T07:41:18.000Z</Time>
            <Position>
              <LatitudeDegrees>38.18548522889614105224609375</LatitudeDegrees>
              <LongitudeDegrees>-2.06686357967555522918701171875</LongitudeDegrees>
            </Position>
            <AltitudeMeters>1168</AltitudeMeters>
            <DistanceMeters>50365.509963816</DistanceMeters>
          </Trackpoint>
          <Trackpoint>
            <Time>2021-08-28T07:41:20.000Z</Time>
            <Position>
              <LatitudeDegrees>38.1854481808841228485107421875</LatitudeDegrees>
              <LongitudeDegrees>-2.06718049943447113037109375</LongitudeDegrees>
            </Position>
            <AltitudeMeters>1165.800048828125</AltitudeMeters>
            <DistanceMeters>50393.540589593</DistanceMeters>
          </Trackpoint>
          <Trackpoint>
            <Time>2021-08-28T07:41:21.000Z</Time>
            <Position>
              <LatitudeDegrees>38.185421191155910491943359375</LatitudeDegrees>
              <LongitudeDegrees>-2.06733682192862033843994140625</LongitudeDegrees>
            </Position>
            <AltitudeMeters>1164.800048828125</AltitudeMeters>
            <DistanceMeters>50407.5427687</DistanceMeters>
          </Trackpoint>
          <Trackpoint>
            <Time>2021-08-28T07:41:22.000Z</Time>
            <Position>
              <LatitudeDegrees>38.18538540042936801910400390625</LatitudeDegrees>
              <LongitudeDegrees>-2.06749163568019866943359375</LongitudeDegrees>
            </Position>
            <AltitudeMeters>1164.199951171875</AltitudeMeters>
            <DistanceMeters>50421.659913848</DistanceMeters>
          </Trackpoint>
          <Trackpoint>
            <Time>2021-08-28T07:41:23.000Z</Time>
            <Position>
              <LatitudeDegrees>38.1853439100086688995361328125</LatitudeDegrees>
              <LongitudeDegrees>-2.06764318048954010009765625</LongitudeDegrees>
            </Position>
            <AltitudeMeters>1163.4000244140625</AltitudeMeters>
            <DistanceMeters>50435.698804419</DistanceMeters>
          </Trackpoint>
          <Trackpoint>
            <Time>2021-08-28T07:41:25.000Z</Time>
            <Position>
              <LatitudeDegrees>38.18525849841535091400146484375</LatitudeDegrees>
              <LongitudeDegrees>-2.0679246447980403900146484375</LongitudeDegrees>
            </Position>
            <AltitudeMeters>1161.5999755859375</AltitudeMeters>
            <DistanceMeters>50462.094003186</DistanceMeters>
          </Trackpoint>
          <Trackpoint>
            <Time>2021-08-28T07:41:26.000Z</Time>
            <Position>
              <LatitudeDegrees>38.18521759472787380218505859375</LatitudeDegrees>
              <LongitudeDegrees>-2.06804945133626461029052734375</LongitudeDegrees>
            </Position>
            <AltitudeMeters>1161.199951171875</AltitudeMeters>
            <DistanceMeters>50473.923207072</DistanceMeters>
          </Trackpoint>
          <Trackpoint>
            <Time>2021-08-28T07:41:27.000Z</Time>
            <Position>
              <LatitudeDegrees>38.18517585285007953643798828125</LatitudeDegrees>
              <LongitudeDegrees>-2.0681626908481121063232421875</LongitudeDegrees>
            </Position>
            <AltitudeMeters>1160.199951171875</AltitudeMeters>
            <DistanceMeters>50484.865317635</DistanceMeters>
          </Trackpoint>
          <Trackpoint>
            <Time>2021-08-28T07:41:28.000Z</Time>
            <Position>
              <LatitudeDegrees>38.1851269863545894622802734375</LatitudeDegrees>
              <LongitudeDegrees>-2.06826268695294857025146484375</LongitudeDegrees>
            </Position>
            <AltitudeMeters>1158.800048828125</AltitudeMeters>
            <DistanceMeters>50495.165968013</DistanceMeters>
          </Trackpoint>
          <Trackpoint>
            <Time>2021-08-28T07:41:29.000Z</Time>
            <Position>
              <LatitudeDegrees>38.1850609369575977325439453125</LatitudeDegrees>
              <LongitudeDegrees>-2.0683427341282367706298828125</LongitudeDegrees>
            </Position>
            <AltitudeMeters>1157.800048828125</AltitudeMeters>
            <DistanceMeters>50505.318717523</DistanceMeters>
          </Trackpoint>
          <Trackpoint>
            <Time>2021-08-28T07:41:30.000Z</Time>
            <Position>
              <LatitudeDegrees>38.18497820757329463958740234375</LatitudeDegrees>
              <LongitudeDegrees>-2.0683970488607883453369140625</LongitudeDegrees>
            </Position>
            <AltitudeMeters>1157.199951171875</AltitudeMeters>
            <DistanceMeters>50515.679680257</DistanceMeters>
          </Trackpoint>
          <Trackpoint>
            <Time>2021-08-28T07:41:32.000Z</Time>
            <Position>
              <LatitudeDegrees>38.18478860892355442047119140625</LatitudeDegrees>
              <LongitudeDegrees>-2.06849369220435619354248046875</LongitudeDegrees>
            </Position>
            <AltitudeMeters>1156.4000244140625</AltitudeMeters>
            <DistanceMeters>50538.413121154</DistanceMeters>
          </Trackpoint>
          <Trackpoint>
            <Time>2021-08-28T07:41:33.000Z</Time>
            <Position>
              <LatitudeDegrees>38.184696324169635772705078125</LatitudeDegrees>
              <LongitudeDegrees>-2.068565525114536285400390625</LongitudeDegrees>
            </Position>
            <AltitudeMeters>1156</AltitudeMeters>
            <DistanceMeters>50550.454921997</DistanceMeters>
          </Trackpoint>
          <Trackpoint>
            <Time>2021-08-28T07:41:35.000Z</Time>
            <Position>
              <LatitudeDegrees>38.1845191307365894317626953125</LatitudeDegrees>
              <LongitudeDegrees>-2.06873844377696514129638671875</LongitudeDegrees>
            </Position>
            <AltitudeMeters>1154.800048828125</AltitudeMeters>
            <DistanceMeters>50575.310539269</DistanceMeters>
          </Trackpoint>
          <Trackpoint>
            <Time>2021-08-28T07:41:36.000Z</Time>
            <Position>
              <LatitudeDegrees>38.18443539552390575408935546875</LatitudeDegrees>
              <LongitudeDegrees>-2.06883919425308704376220703125</LongitudeDegrees>
            </Position>
            <AltitudeMeters>1154.199951171875</AltitudeMeters>
            <DistanceMeters>50588.138089813</DistanceMeters>
          </Trackpoint>
          <Trackpoint>
            <Time>2021-08-28T07:41:38.000Z</Time>
            <Position>
              <LatitudeDegrees>38.18428452126681804656982421875</LatitudeDegrees>
              <LongitudeDegrees>-2.06906718201935291290283203125</LongitudeDegrees>
            </Position>
            <AltitudeMeters>1153.5999755859375</AltitudeMeters>
            <DistanceMeters>50614.211799468</DistanceMeters>
          </Trackpoint>
          <Trackpoint>
            <Time>2021-08-28T07:41:40.000Z</Time>
            <Position>
              <LatitudeDegrees>38.18415108136832714080810546875</LatitudeDegrees>
              <LongitudeDegrees>-2.06932048313319683074951171875</LongitudeDegrees>
            </Position>
            <AltitudeMeters>1153</AltitudeMeters>
            <DistanceMeters>50640.888761899</DistanceMeters>
          </Trackpoint>
          <Trackpoint>
            <Time>2021-08-28T07:41:41.000Z</Time>
            <Position>
              <LatitudeDegrees>38.18408285267651081085205078125</LatitudeDegrees>
              <LongitudeDegrees>-2.069447971880435943603515625</LongitudeDegrees>
            </Position>
            <AltitudeMeters>1152.4000244140625</AltitudeMeters>
            <DistanceMeters>50654.38255534</DistanceMeters>
          </Trackpoint>
          <Trackpoint>
            <Time>2021-08-28T07:41:42.000Z</Time>
            <Position>
              <LatitudeDegrees>38.18401244468986988067626953125</LatitudeDegrees>
              <LongitudeDegrees>-2.06957814283668994903564453125</LongitudeDegrees>
            </Position>
            <AltitudeMeters>1150.5999755859375</AltitudeMeters>
            <DistanceMeters>50668.206901178</DistanceMeters>
          </Trackpoint>
          <Trackpoint>
            <Time>2021-08-28T07:41:44.000Z</Time>
            <Position>
              <LatitudeDegrees>38.18387296982109546661376953125</LatitudeDegrees>
              <LongitudeDegrees>-2.06984250806272029876708984375</LongitudeDegrees>
            </Position>
            <AltitudeMeters>1148.800048828125</AltitudeMeters>
            <DistanceMeters>50696.062212135</DistanceMeters>
          </Trackpoint>
          <Trackpoint>
            <Time>2021-08-28T07:41:46.000Z</Time>
            <Position>
              <LatitudeDegrees>38.18374036811292171478271484375</LatitudeDegrees>
              <LongitudeDegrees>-2.07008759491145610809326171875</LongitudeDegrees>
            </Position>
            <AltitudeMeters>1147.4000244140625</AltitudeMeters>
            <DistanceMeters>50722.092594692</DistanceMeters>
          </Trackpoint>
          <Trackpoint>
            <Time>2021-08-28T07:41:48.000Z</Time>
            <Position>
              <LatitudeDegrees>38.18364095874130725860595703125</LatitudeDegrees>
              <LongitudeDegrees>-2.070312313735485076904296875</LongitudeDegrees>
            </Position>
            <AltitudeMeters>1146</AltitudeMeters>
            <DistanceMeters>50744.652184857</DistanceMeters>
          </Trackpoint>
          <Trackpoint>
            <Time>2021-08-28T07:41:49.000Z</Time>
            <Position>
              <LatitudeDegrees>38.18362704478204250335693359375</LatitudeDegrees>
              <LongitudeDegrees>-2.0704268105328083038330078125</LongitudeDegrees>
            </Position>
            <AltitudeMeters>1145.4000244140625</AltitudeMeters>
            <DistanceMeters>50754.788466708</DistanceMeters>
          </Trackpoint>
          <Trackpoint>
            <Time>2021-08-28T07:41:50.000Z</Time>
            <Position>
              <LatitudeDegrees>38.18364665843546390533447265625</LatitudeDegrees>
              <LongitudeDegrees>-2.07053594291210174560546875</LongitudeDegrees>
            </Position>
            <AltitudeMeters>1144.800048828125</AltitudeMeters>
            <DistanceMeters>50764.583135265</DistanceMeters>
          </Trackpoint>
          <Trackpoint>
            <Time>2021-08-28T07:41:51.000Z</Time>
            <Position>
              <LatitudeDegrees>38.18369359709322452545166015625</LatitudeDegrees>
              <LongitudeDegrees>-2.0706343464553356170654296875</LongitudeDegrees>
            </Position>
            <AltitudeMeters>1143.800048828125</AltitudeMeters>
            <DistanceMeters>50774.653277194</DistanceMeters>
          </Trackpoint>
          <Trackpoint>
            <Time>2021-08-28T07:41:52.000Z</Time>
            <Position>
              <LatitudeDegrees>38.183764256536960601806640625</LatitudeDegrees>
              <LongitudeDegrees>-2.07070634700357913970947265625</LongitudeDegrees>
            </Position>
            <AltitudeMeters>1143</AltitudeMeters>
            <DistanceMeters>50784.729694193</DistanceMeters>
          </Trackpoint>
          <Trackpoint>
            <Time>2021-08-28T07:41:53.000Z</Time>
            <Position>
              <LatitudeDegrees>38.18385235033929347991943359375</LatitudeDegrees>
              <LongitudeDegrees>-2.07075445912778377532958984375</LongitudeDegrees>
            </Position>
            <AltitudeMeters>1142.4000244140625</AltitudeMeters>
            <DistanceMeters>50795.40022529</DistanceMeters>
          </Trackpoint>
          <Trackpoint>
            <Time>2021-08-28T07:41:55.000Z</Time>
            <Position>
              <LatitudeDegrees>38.18404362536966800689697265625</LatitudeDegrees>
              <LongitudeDegrees>-2.07083023153245449066162109375</LongitudeDegrees>
            </Position>
            <AltitudeMeters>1141.5999755859375</AltitudeMeters>
            <DistanceMeters>50817.69771279</DistanceMeters>
          </Trackpoint>
          <Trackpoint>
            <Time>2021-08-28T07:41:57.000Z</Time>
            <Position>
              <LatitudeDegrees>38.18422702141106128692626953125</LatitudeDegrees>
              <LongitudeDegrees>-2.07095839083194732666015625</LongitudeDegrees>
            </Position>
            <AltitudeMeters>1141.199951171875</AltitudeMeters>
            <DistanceMeters>50840.986819934</DistanceMeters>
          </Trackpoint>
          <Trackpoint>
            <Time>2021-08-28T07:41:59.000Z</Time>
            <Position>
              <LatitudeDegrees>38.18438979797065258026123046875</LatitudeDegrees>
              <LongitudeDegrees>-2.07113952375948429107666015625</LongitudeDegrees>
            </Position>
            <AltitudeMeters>1140.4000244140625</AltitudeMeters>
            <DistanceMeters>50865.05673216</DistanceMeters>
          </Trackpoint>
          <Trackpoint>
            <Time>2021-08-28T07:42:00.000Z</Time>
            <Position>
              <LatitudeDegrees>38.18446054123342037200927734375</LatitudeDegrees>
              <LongitudeDegrees>-2.07124597392976284027099609375</LongitudeDegrees>
            </Position>
            <AltitudeMeters>1140</AltitudeMeters>
            <DistanceMeters>50877.252032854</DistanceMeters>
          </Trackpoint>
          <Trackpoint>
            <Time>2021-08-28T07:42:01.000Z</Time>
            <Position>
              <LatitudeDegrees>38.18452231585979461669921875</LatitudeDegrees>
              <LongitudeDegrees>-2.07136516459286212921142578125</LongitudeDegrees>
            </Position>
            <AltitudeMeters>1139.5999755859375</AltitudeMeters>
            <DistanceMeters>50889.742172991</DistanceMeters>
          </Trackpoint>
          <Trackpoint>
            <Time>2021-08-28T07:42:03.000Z</Time>
            <Position>
              <LatitudeDegrees>38.18462155759334564208984375</LatitudeDegrees>
              <LongitudeDegrees>-2.0716364867985248565673828125</LongitudeDegrees>
            </Position>
            <AltitudeMeters>1138.5999755859375</AltitudeMeters>
            <DistanceMeters>50915.923196895</DistanceMeters>
          </Trackpoint>
          <Trackpoint>
            <Time>2021-08-28T07:42:06.000Z</Time>
            <Position>
              <LatitudeDegrees>38.1847132556140422821044921875</LatitudeDegrees>
              <LongitudeDegrees>-2.07209765911102294921875</LongitudeDegrees>
            </Position>
            <AltitudeMeters>1137.4000244140625</AltitudeMeters>
            <DistanceMeters>50957.540124484</DistanceMeters>
          </Trackpoint>
          <Trackpoint>
            <Time>2021-08-28T07:42:07.000Z</Time>
            <Position>
              <LatitudeDegrees>38.1847310252487659454345703125</LatitudeDegrees>
              <LongitudeDegrees>-2.0722601003944873809814453125</LongitudeDegrees>
            </Position>
            <AltitudeMeters>1136.5999755859375</AltitudeMeters>
            <DistanceMeters>50971.888214349</DistanceMeters>
          </Trackpoint>
          <Trackpoint>
            <Time>2021-08-28T07:42:08.000Z</Time>
            <Position>
              <LatitudeDegrees>38.18473982624709606170654296875</LatitudeDegrees>
              <LongitudeDegrees>-2.07242748700082302093505859375</LongitudeDegrees>
            </Position>
            <AltitudeMeters>1135.5999755859375</AltitudeMeters>
            <DistanceMeters>50986.564843509</DistanceMeters>
          </Trackpoint>
          <Trackpoint>
            <Time>2021-08-28T07:42:09.000Z</Time>
            <Position>
              <LatitudeDegrees>38.184728510677814483642578125</LatitudeDegrees>
              <LongitudeDegrees>-2.0725926943123340606689453125</LongitudeDegrees>
            </Position>
            <AltitudeMeters>1134.5999755859375</AltitudeMeters>
            <DistanceMeters>51001.072531876</DistanceMeters>
          </Trackpoint>
          <Trackpoint>
            <Time>2021-08-28T07:42:10.000Z</Time>
            <Position>
              <LatitudeDegrees>38.18469800055027008056640625</LatitudeDegrees>
              <LongitudeDegrees>-2.0727566443383693695068359375</LongitudeDegrees>
            </Position>
            <AltitudeMeters>1134</AltitudeMeters>
            <DistanceMeters>51015.812091203</DistanceMeters>
          </Trackpoint>
          <Trackpoint>
            <Time>2021-08-28T07:42:11.000Z</Time>
            <Position>
              <LatitudeDegrees>38.18466120399534702301025390625</LatitudeDegrees>
              <LongitudeDegrees>-2.0729197561740875244140625</LongitudeDegrees>
            </Position>
            <AltitudeMeters>1133.5999755859375</AltitudeMeters>
            <DistanceMeters>51030.657867564</DistanceMeters>
          </Trackpoint>
          <Trackpoint>
            <Time>2021-08-28T07:42:13.000Z</Time>
            <Position>
              <LatitudeDegrees>38.1845845095813274383544921875</LatitudeDegrees>
              <LongitudeDegrees>-2.07324321381747722625732421875</LongitudeDegrees>
            </Position>
            <AltitudeMeters>1132</AltitudeMeters>
            <DistanceMeters>51060.215300399</DistanceMeters>
          </Trackpoint>
          <Trackpoint>
            <Time>2021-08-28T07:42:15.000Z</Time>
            <Position>
              <LatitudeDegrees>38.18453463725745677947998046875</LatitudeDegrees>
              <LongitudeDegrees>-2.0735717006027698516845703125</LongitudeDegrees>
            </Position>
            <AltitudeMeters>1131</AltitudeMeters>
            <DistanceMeters>51089.484453996</DistanceMeters>
          </Trackpoint>
          <Trackpoint>
            <Time>2021-08-28T07:42:16.000Z</Time>
            <Position>
              <LatitudeDegrees>38.184542767703533172607421875</LatitudeDegrees>
              <LongitudeDegrees>-2.0737326331436634063720703125</LongitudeDegrees>
            </Position>
            <AltitudeMeters>1130.5999755859375</AltitudeMeters>
            <DistanceMeters>51103.593281202</DistanceMeters>
          </Trackpoint>
          <Trackpoint>
            <Time>2021-08-28T07:42:17.000Z</Time>
            <Position>
              <LatitudeDegrees>38.1845778040587902069091796875</LatitudeDegrees>
              <LongitudeDegrees>-2.07388711161911487579345703125</LongitudeDegrees>
            </Position>
            <AltitudeMeters>1129.5999755859375</AltitudeMeters>
            <DistanceMeters>51117.659482002</DistanceMeters>
          </Trackpoint>
          <Trackpoint>
            <Time>2021-08-28T07:42:18.000Z</Time>
            <Position>
              <LatitudeDegrees>38.18463496863842010498046875</LatitudeDegrees>
              <LongitudeDegrees>-2.0740328729152679443359375</LongitudeDegrees>
            </Position>
            <AltitudeMeters>1128.800048828125</AltitudeMeters>
            <DistanceMeters>51131.910321249</DistanceMeters>
          </Trackpoint>
          <Trackpoint>
            <Time>2021-08-28T07:42:19.000Z</Time>
            <Position>
              <LatitudeDegrees>38.18469992838799953460693359375</LatitudeDegrees>
              <LongitudeDegrees>-2.0741738565266132354736328125</LongitudeDegrees>
            </Position>
            <AltitudeMeters>1127.800048828125</AltitudeMeters>
            <DistanceMeters>51146.20734228</DistanceMeters>
          </Trackpoint>
          <Trackpoint>
            <Time>2021-08-28T07:42:20.000Z</Time>
            <Position>
              <LatitudeDegrees>38.184765391051769256591796875</LatitudeDegrees>
              <LongitudeDegrees>-2.07431743852794170379638671875</LongitudeDegrees>
            </Position>
            <AltitudeMeters>1127</AltitudeMeters>
            <DistanceMeters>51160.728717736</DistanceMeters>
          </Trackpoint>
          <Trackpoint>
            <Time>2021-08-28T07:42:21.000Z</Time>
            <Position>
              <LatitudeDegrees>38.1848329491913318634033203125</LatitudeDegrees>
              <LongitudeDegrees>-2.07446278072893619537353515625</LongitudeDegrees>
            </Position>
            <AltitudeMeters>1126</AltitudeMeters>
            <DistanceMeters>51175.5013227</DistanceMeters>
          </Trackpoint>
          <Trackpoint>
            <Time>2021-08-28T07:42:24.000Z</Time>
            <Position>
              <LatitudeDegrees>38.1850232183933258056640625</LatitudeDegrees>
              <LongitudeDegrees>-2.07489855587482452392578125</LongitudeDegrees>
            </Position>
            <AltitudeMeters>1124.800048828125</AltitudeMeters>
            <DistanceMeters>51219.112476787</DistanceMeters>
          </Trackpoint>
          <Trackpoint>
            <Time>2021-08-28T07:42:26.000Z</Time>
            <Position>
              <LatitudeDegrees>38.185148946940898895263671875</LatitudeDegrees>
              <LongitudeDegrees>-2.07518798299133777618408203125</LongitudeDegrees>
            </Position>
            <AltitudeMeters>1123.5999755859375</AltitudeMeters>
            <DistanceMeters>51248.042766541</DistanceMeters>
          </Trackpoint>
          <Trackpoint>
            <Time>2021-08-28T07:42:27.000Z</Time>
            <Position>
              <LatitudeDegrees>38.18521122448146343231201171875</LatitudeDegrees>
              <LongitudeDegrees>-2.0753298886120319366455078125</LongitudeDegrees>
            </Position>
            <AltitudeMeters>1122.4000244140625</AltitudeMeters>
            <DistanceMeters>51262.261887878</DistanceMeters>
          </Trackpoint>
          <Trackpoint>
            <Time>2021-08-28T07:42:28.000Z</Time>
            <Position>
              <LatitudeDegrees>38.18527325056493282318115234375</LatitudeDegrees>
              <LongitudeDegrees>-2.0754703693091869354248046875</LongitudeDegrees>
            </Position>
            <AltitudeMeters>1121.800048828125</AltitudeMeters>
            <DistanceMeters>51276.358549264</DistanceMeters>
          </Trackpoint>
          <Trackpoint>
            <Time>2021-08-28T07:42:29.000Z</Time>
            <Position>
              <LatitudeDegrees>38.1853382103145122528076171875</LatitudeDegrees>
              <LongitudeDegrees>-2.0756068266928195953369140625</LongitudeDegrees>
            </Position>
            <AltitudeMeters>1120.800048828125</AltitudeMeters>
            <DistanceMeters>51290.315188507</DistanceMeters>
          </Trackpoint>
          <Trackpoint>
            <Time>2021-08-28T07:42:30.000Z</Time>
            <Position>
              <LatitudeDegrees>38.1854072771966457366943359375</LatitudeDegrees>
              <LongitudeDegrees>-2.0757325552403926849365234375</LongitudeDegrees>
            </Position>
            <AltitudeMeters>1120</AltitudeMeters>
            <DistanceMeters>51303.734831368</DistanceMeters>
          </Trackpoint>
          <Trackpoint>
            <Time>2021-08-28T07:42:31.000Z</Time>
            <Position>
              <LatitudeDegrees>38.18548162467777729034423828125</LatitudeDegrees>
              <LongitudeDegrees>-2.07585074007511138916015625</LongitudeDegrees>
            </Position>
            <AltitudeMeters>1119.4000244140625</AltitudeMeters>
            <DistanceMeters>51316.978023759</DistanceMeters>
          </Trackpoint>
          <Trackpoint>
            <Time>2021-08-28T07:42:32.000Z</Time>
            <Position>
              <LatitudeDegrees>38.18555898964405059814453125</LatitudeDegrees>
              <LongitudeDegrees>-2.07596565596759319305419921875</LongitudeDegrees>
            </Position>
            <AltitudeMeters>1118.5999755859375</AltitudeMeters>
            <DistanceMeters>51330.215077937</DistanceMeters>
          </Trackpoint>
          <Trackpoint>
            <Time>2021-08-28T07:42:33.000Z</Time>
            <Position>
              <LatitudeDegrees>38.185635767877101898193359375</LatitudeDegrees>
              <LongitudeDegrees>-2.07607713527977466583251953125</LongitudeDegrees>
            </Position>
            <AltitudeMeters>1118.4000244140625</AltitudeMeters>
            <DistanceMeters>51343.181959728</DistanceMeters>
          </Trackpoint>
          <Trackpoint>
            <Time>2021-08-28T07:42:35.000Z</Time>
            <Position>
              <LatitudeDegrees>38.18578320555388927459716796875</LatitudeDegrees>
              <LongitudeDegrees>-2.07628953270614147186279296875</LongitudeDegrees>
            </Position>
            <AltitudeMeters>1117.5999755859375</AltitudeMeters>
            <DistanceMeters>51367.972460785</DistanceMeters>
          </Trackpoint>
          <Trackpoint>
            <Time>2021-08-28T07:42:37.000Z</Time>
            <Position>
              <LatitudeDegrees>38.18593223579227924346923828125</LatitudeDegrees>
              <LongitudeDegrees>-2.07648935727775096893310546875</LongitudeDegrees>
            </Position>
            <AltitudeMeters>1117.199951171875</AltitudeMeters>
            <DistanceMeters>51392.071055687</DistanceMeters>
          </Trackpoint>
          <Trackpoint>
            <Time>2021-08-28T07:42:38.000Z</Time>
            <Position>
              <LatitudeDegrees>38.18600448779761791229248046875</LatitudeDegrees>
              <LongitudeDegrees>-2.076583318412303924560546875</LongitudeDegrees>
            </Position>
            <AltitudeMeters>1117</AltitudeMeters>
            <DistanceMeters>51403.570858708</DistanceMeters>
          </Trackpoint>
          <Trackpoint>
            <Time>2021-08-28T07:42:40.000Z</Time>
            <Position>
              <LatitudeDegrees>38.1861375086009502410888671875</LatitudeDegrees>
              <LongitudeDegrees>-2.07675539888441562652587890625</LongitudeDegrees>
            </Position>
            <AltitudeMeters>1116.5999755859375</AltitudeMeters>
            <DistanceMeters>51424.685615022</DistanceMeters>
          </Trackpoint>
          <Trackpoint>
            <Time>2021-08-28T07:42:42.000Z</Time>
            <Position>
              <LatitudeDegrees>38.18622208200395107269287109375</LatitudeDegrees>
              <LongitudeDegrees>-2.0768974721431732177734375</LongitudeDegrees>
            </Position>
            <AltitudeMeters>1116</AltitudeMeters>
            <DistanceMeters>51440.276947802</DistanceMeters>
          </Trackpoint>
          <Trackpoint>
            <Time>2021-08-28T07:42:43.000Z</Time>
            <Position>
              <LatitudeDegrees>38.1862541846930980682373046875</LatitudeDegrees>
              <LongitudeDegrees>-2.07695455290377140045166015625</LongitudeDegrees>
            </Position>
            <AltitudeMeters>1115.5999755859375</AltitudeMeters>
            <DistanceMeters>51446.417762018</DistanceMeters>
          </Trackpoint>
          <Trackpoint>
            <Time>2021-08-28T07:49:03.000Z</Time>
            <Position>
              <LatitudeDegrees>38.1856708042323589324951171875</LatitudeDegrees>
              <LongitudeDegrees>-2.07811913453042507171630859375</LongitudeDegrees>
            </Position>
            <AltitudeMeters>1111.800048828125</AltitudeMeters>
            <DistanceMeters>51567.23226166</DistanceMeters>
          </Trackpoint>
          <Trackpoint>
            <Time>2021-08-28T07:49:07.000Z</Time>
            <Position>
              <LatitudeDegrees>38.185595534741878509521484375</LatitudeDegrees>
              <LongitudeDegrees>-2.07828291691839694976806640625</LongitudeDegrees>
            </Position>
            <AltitudeMeters>1111.800048828125</AltitudeMeters>
            <DistanceMeters>51583.830140204</DistanceMeters>
          </Trackpoint>
          <Trackpoint>
            <Time>2021-08-28T07:49:09.000Z</Time>
            <Position>
              <LatitudeDegrees>38.1855462491512298583984375</LatitudeDegrees>
              <LongitudeDegrees>-2.07836740650236606597900390625</LongitudeDegrees>
            </Position>
            <AltitudeMeters>1111.800048828125</AltitudeMeters>
            <DistanceMeters>51593.034496629</DistanceMeters>
          </Trackpoint>
          <Trackpoint>
            <Time>2021-08-28T07:49:15.000Z</Time>
            <Position>
              <LatitudeDegrees>38.185338042676448822021484375</LatitudeDegrees>
              <LongitudeDegrees>-2.07874258048832416534423828125</LongitudeDegrees>
            </Position>
            <AltitudeMeters>1111.800048828125</AltitudeMeters>
            <DistanceMeters>51633.212933207</DistanceMeters>
          </Trackpoint>
          <Trackpoint>
            <Time>2021-08-28T07:49:21.000Z</Time>
            <Position>
              <LatitudeDegrees>38.18519580177962779998779296875</LatitudeDegrees>
              <LongitudeDegrees>-2.07912462763488292694091796875</LongitudeDegrees>
            </Position>
            <AltitudeMeters>1110.4000244140625</AltitudeMeters>
            <DistanceMeters>51670.196275658</DistanceMeters>
          </Trackpoint>
          <Trackpoint>
            <Time>2021-08-28T07:49:23.000Z</Time>
            <Position>
              <LatitudeDegrees>38.185099996626377105712890625</LatitudeDegrees>
              <LongitudeDegrees>-2.07940827123820781707763671875</LongitudeDegrees>
            </Position>
            <AltitudeMeters>1108.800048828125</AltitudeMeters>
            <DistanceMeters>51697.204934182</DistanceMeters>
          </Trackpoint>
          <Trackpoint>
            <Time>2021-08-28T07:49:28.000Z</Time>
            <Position>
              <LatitudeDegrees>38.18494970910251140594482421875</LatitudeDegrees>
              <LongitudeDegrees>-2.0798990316689014434814453125</LongitudeDegrees>
            </Position>
            <AltitudeMeters>1109</AltitudeMeters>
            <DistanceMeters>51743.282701094</DistanceMeters>
          </Trackpoint>
          <Trackpoint>
            <Time>2021-08-28T07:49:32.000Z</Time>
            <Position>
              <LatitudeDegrees>38.184884749352931976318359375</LatitudeDegrees>
              <LongitudeDegrees>-2.0801900513470172882080078125</LongitudeDegrees>
            </Position>
            <AltitudeMeters>1108.800048828125</AltitudeMeters>
            <DistanceMeters>51769.749304388</DistanceMeters>
          </Trackpoint>
          <Trackpoint>
            <Time>2021-08-28T07:49:34.000Z</Time>
            <Position>
              <LatitudeDegrees>38.18486857227981090545654296875</LatitudeDegrees>
              <LongitudeDegrees>-2.080387361347675323486328125</LongitudeDegrees>
            </Position>
            <AltitudeMeters>1108.5999755859375</AltitudeMeters>
            <DistanceMeters>51787.10488735</DistanceMeters>
          </Trackpoint>
          <Trackpoint>
            <Time>2021-08-28T07:49:40.000Z</Time>
            <Position>
              <LatitudeDegrees>38.184847533702850341796875</LatitudeDegrees>
              <LongitudeDegrees>-2.08107358776032924652099609375</LongitudeDegrees>
            </Position>
            <AltitudeMeters>1108.800048828125</AltitudeMeters>
            <DistanceMeters>51847.185447664</DistanceMeters>
          </Trackpoint>
          <Trackpoint>
            <Time>2021-08-28T07:49:43.000Z</Time>
            <Position>
              <LatitudeDegrees>38.18484485149383544921875</LatitudeDegrees>
              <LongitudeDegrees>-2.0812733285129070281982421875</LongitudeDegrees>
            </Position>
            <AltitudeMeters>1108.5999755859375</AltitudeMeters>
            <DistanceMeters>51864.662614648</DistanceMeters>
          </Trackpoint>
          <Trackpoint>
            <Time>2021-08-28T07:49:45.000Z</Time>
            <Position>
              <LatitudeDegrees>38.18483370356261730194091796875</LatitudeDegrees>
              <LongitudeDegrees>-2.08156962879002094268798828125</LongitudeDegrees>
            </Position>
            <AltitudeMeters>1108.199951171875</AltitudeMeters>
            <DistanceMeters>51890.614304216</DistanceMeters>
          </Trackpoint>
          <Trackpoint>
            <Time>2021-08-28T07:49:48.000Z</Time>
            <Position>
              <LatitudeDegrees>38.1848178617656230926513671875</LatitudeDegrees>
              <LongitudeDegrees>-2.08186559379100799560546875</LongitudeDegrees>
            </Position>
            <AltitudeMeters>1107.800048828125</AltitudeMeters>
            <DistanceMeters>51916.567037634</DistanceMeters>
          </Trackpoint>
          <Trackpoint>
            <Time>2021-08-28T07:49:52.000Z</Time>
            <Position>
              <LatitudeDegrees>38.18480453453958034515380859375</LatitudeDegrees>
              <LongitudeDegrees>-2.0821715332567691802978515625</LongitudeDegrees>
            </Position>
            <AltitudeMeters>1106.5999755859375</AltitudeMeters>
            <DistanceMeters>51943.373330983</DistanceMeters>
          </Trackpoint>
          <Trackpoint>
            <Time>2021-08-28T07:49:53.000Z</Time>
            <Position>
              <LatitudeDegrees>38.1847997568547725677490234375</LatitudeDegrees>
              <LongitudeDegrees>-2.0822771452367305755615234375</LongitudeDegrees>
            </Position>
            <AltitudeMeters>1106.4000244140625</AltitudeMeters>
            <DistanceMeters>51952.62758649</DistanceMeters>
          </Trackpoint>
          <Trackpoint>
            <Time>2021-08-28T07:49:56.000Z</Time>
            <Position>
              <LatitudeDegrees>38.1848247349262237548828125</LatitudeDegrees>
              <LongitudeDegrees>-2.08260177634656429290771484375</LongitudeDegrees>
            </Position>
            <AltitudeMeters>1105.4000244140625</AltitudeMeters>
            <DistanceMeters>51981.164094576</DistanceMeters>
          </Trackpoint>
          <Trackpoint>
            <Time>2021-08-28T07:49:57.000Z</Time>
            <Position>
              <LatitudeDegrees>38.1848463602364063262939453125</LatitudeDegrees>
              <LongitudeDegrees>-2.08271007053554058074951171875</LongitudeDegrees>
            </Position>
            <AltitudeMeters>1105.199951171875</AltitudeMeters>
            <DistanceMeters>51990.939383264</DistanceMeters>
          </Trackpoint>
          <Trackpoint>
            <Time>2021-08-28T07:50:04.000Z</Time>
            <Position>
              <LatitudeDegrees>38.1850277446210384368896484375</LatitudeDegrees>
              <LongitudeDegrees>-2.0835877396166324615478515625</LongitudeDegrees>
            </Position>
            <AltitudeMeters>1104.199951171875</AltitudeMeters>
            <DistanceMeters>52070.33242597</DistanceMeters>
          </Trackpoint>
          <Trackpoint>
            <Time>2021-08-28T07:50:09.000Z</Time>
            <Position>
              <LatitudeDegrees>38.18511282093822956085205078125</LatitudeDegrees>
              <LongitudeDegrees>-2.08400842733681201934814453125</LongitudeDegrees>
            </Position>
            <AltitudeMeters>1103.199951171875</AltitudeMeters>
            <DistanceMeters>52108.335033589</DistanceMeters>
          </Trackpoint>
          <Trackpoint>
            <Time>2021-08-28T07:50:13.000Z</Time>
            <Position>
              <LatitudeDegrees>38.18521122448146343231201171875</LatitudeDegrees>
              <LongitudeDegrees>-2.0844899676740169525146484375</LongitudeDegrees>
            </Position>
            <AltitudeMeters>1102.800048828125</AltitudeMeters>
            <DistanceMeters>52151.863181603</DistanceMeters>
          </Trackpoint>
          <Trackpoint>
            <Time>2021-08-28T07:50:21.000Z</Time>
            <Position>
              <LatitudeDegrees>38.18534214980900287628173828125</LatitudeDegrees>
              <LongitudeDegrees>-2.085102014243602752685546875</LongitudeDegrees>
            </Position>
            <AltitudeMeters>1103.5999755859375</AltitudeMeters>
            <DistanceMeters>52207.355691087</DistanceMeters>
          </Trackpoint>
          <Trackpoint>
            <Time>2021-08-28T07:50:24.000Z</Time>
            <Position>
              <LatitudeDegrees>38.18541490472853183746337890625</LatitudeDegrees>
              <LongitudeDegrees>-2.08543905057013034820556640625</LongitudeDegrees>
            </Position>
            <AltitudeMeters>1104.199951171875</AltitudeMeters>
            <DistanceMeters>52237.933037522</DistanceMeters>
          </Trackpoint>
          <Trackpoint>
            <Time>2021-08-28T07:50:27.000Z</Time>
            <Position>
              <LatitudeDegrees>38.18546653725206851959228515625</LatitudeDegrees>
              <LongitudeDegrees>-2.08569017238914966583251953125</LongitudeDegrees>
            </Position>
            <AltitudeMeters>1104.4000244140625</AltitudeMeters>
            <DistanceMeters>52260.641440051</DistanceMeters>
          </Trackpoint>
          <Trackpoint>
            <Time>2021-08-28T07:50:28.000Z</Time>
            <Position>
              <LatitudeDegrees>38.18547852337360382080078125</LatitudeDegrees>
              <LongitudeDegrees>-2.085774578154087066650390625</LongitudeDegrees>
            </Position>
            <AltitudeMeters>1104.5999755859375</AltitudeMeters>
            <DistanceMeters>52268.146144361</DistanceMeters>
          </Trackpoint>
          <Trackpoint>
            <Time>2021-08-28T07:50:30.000Z</Time>
            <Position>
              <LatitudeDegrees>38.18548564799129962921142578125</LatitudeDegrees>
              <LongitudeDegrees>-2.08585797809064388275146484375</LongitudeDegrees>
            </Position>
            <AltitudeMeters>1104.5999755859375</AltitudeMeters>
            <DistanceMeters>52275.485996952</DistanceMeters>
          </Trackpoint>
          <Trackpoint>
            <Time>2021-08-28T07:50:32.000Z</Time>
            <Position>
              <LatitudeDegrees>38.185476176440715789794921875</LatitudeDegrees>
              <LongitudeDegrees>-2.0860238559544086456298828125</LongitudeDegrees>
            </Position>
            <AltitudeMeters>1104.800048828125</AltitudeMeters>
            <DistanceMeters>52290.03594926</DistanceMeters>
          </Trackpoint>
          <Trackpoint>
            <Time>2021-08-28T07:50:33.000Z</Time>
            <Position>
              <LatitudeDegrees>38.18545798771083354949951171875</LatitudeDegrees>
              <LongitudeDegrees>-2.086104489862918853759765625</LongitudeDegrees>
            </Position>
            <AltitudeMeters>1104.800048828125</AltitudeMeters>
            <DistanceMeters>52297.374571468</DistanceMeters>
          </Trackpoint>
          <Trackpoint>
            <Time>2021-08-28T07:50:34.000Z</Time>
            <Position>
              <LatitudeDegrees>38.185433931648731231689453125</LatitudeDegrees>
              <LongitudeDegrees>-2.08618219010531902313232421875</LongitudeDegrees>
            </Position>
            <AltitudeMeters>1104.800048828125</AltitudeMeters>
            <DistanceMeters>52304.679894991</DistanceMeters>
          </Trackpoint>
          <Trackpoint>
            <Time>2021-08-28T07:50:38.000Z</Time>
            <Position>
              <LatitudeDegrees>38.1853211112320423126220703125</LatitudeDegrees>
              <LongitudeDegrees>-2.08647924475371837615966796875</LongitudeDegrees>
            </Position>
            <AltitudeMeters>1105</AltitudeMeters>
            <DistanceMeters>52333.542372572</DistanceMeters>
          </Trackpoint>
          <Trackpoint>
            <Time>2021-08-28T07:50:40.000Z</Time>
            <Position>
              <LatitudeDegrees>38.1853120587766170501708984375</LatitudeDegrees>
              <LongitudeDegrees>-2.086632214486598968505859375</LongitudeDegrees>
            </Position>
            <AltitudeMeters>1105</AltitudeMeters>
            <DistanceMeters>52346.963024745</DistanceMeters>
          </Trackpoint>
          <Trackpoint>
            <Time>2021-08-28T07:50:41.000Z</Time>
            <Position>
              <LatitudeDegrees>38.1853291578590869903564453125</LatitudeDegrees>
              <LongitudeDegrees>-2.0867071487009525299072265625</LongitudeDegrees>
            </Position>
            <AltitudeMeters>1105</AltitudeMeters>
            <DistanceMeters>52353.789092021</DistanceMeters>
          </Trackpoint>
          <Trackpoint>
            <Time>2021-08-28T07:50:42.000Z</Time>
            <Position>
              <LatitudeDegrees>38.18535782396793365478515625</LatitudeDegrees>
              <LongitudeDegrees>-2.08677403628826141357421875</LongitudeDegrees>
            </Position>
            <AltitudeMeters>1105.199951171875</AltitudeMeters>
            <DistanceMeters>52360.454523448</DistanceMeters>
          </Trackpoint>
          <Trackpoint>
            <Time>2021-08-28T07:50:44.000Z</Time>
            <Position>
              <LatitudeDegrees>38.18544122390449047088623046875</LatitudeDegrees>
              <LongitudeDegrees>-2.08688006736338138580322265625</LongitudeDegrees>
            </Position>
            <AltitudeMeters>1105.199951171875</AltitudeMeters>
            <DistanceMeters>52373.577846881</DistanceMeters>
          </Trackpoint>
          <Trackpoint>
            <Time>2021-08-28T07:50:50.000Z</Time>
            <Position>
              <LatitudeDegrees>38.1857764162123203277587890625</LatitudeDegrees>
              <LongitudeDegrees>-2.08715499378740787506103515625</LongitudeDegrees>
            </Position>
            <AltitudeMeters>1106.199951171875</AltitudeMeters>
            <DistanceMeters>52417.966410948</DistanceMeters>
          </Trackpoint>
          <Trackpoint>
            <Time>2021-08-28T07:50:51.000Z</Time>
            <Position>
              <LatitudeDegrees>38.1857764162123203277587890625</LatitudeDegrees>
              <LongitudeDegrees>-2.08715499378740787506103515625</LongitudeDegrees>
            </Position>
            <AltitudeMeters>1106.4000244140625</AltitudeMeters>
            <DistanceMeters>52417.966410948</DistanceMeters>
          </Trackpoint>
          <Trackpoint>
            <Time>2021-08-28T07:50:58.000Z</Time>
            <Position>
              <LatitudeDegrees>38.18615770898759365081787109375</LatitudeDegrees>
              <LongitudeDegrees>-2.08737292326986789703369140625</LongitudeDegrees>
            </Position>
            <AltitudeMeters>1107.4000244140625</AltitudeMeters>
            <DistanceMeters>52464.490892501</DistanceMeters>
          </Trackpoint>
          <Trackpoint>
            <Time>2021-08-28T07:51:00.000Z</Time>
            <Position>
              <LatitudeDegrees>38.186331801116466522216796875</LatitudeDegrees>
              <LongitudeDegrees>-2.08747333846986293792724609375</LongitudeDegrees>
            </Position>
            <AltitudeMeters>1107.4000244140625</AltitudeMeters>
            <DistanceMeters>52485.765843774</DistanceMeters>
          </Trackpoint>
          <Trackpoint>
            <Time>2021-08-28T07:51:09.000Z</Time>
            <Position>
              <LatitudeDegrees>38.18686950020492076873779296875</LatitudeDegrees>
              <LongitudeDegrees>-2.0877791941165924072265625</LongitudeDegrees>
            </Position>
            <AltitudeMeters>1106.5999755859375</AltitudeMeters>
            <DistanceMeters>52551.322018475</DistanceMeters>
          </Trackpoint>
          <Trackpoint>
            <Time>2021-08-28T07:51:11.000Z</Time>
            <Position>
              <LatitudeDegrees>38.18699724040925502777099609375</LatitudeDegrees>
              <LongitudeDegrees>-2.08784549497067928314208984375</LongitudeDegrees>
            </Position>
            <AltitudeMeters>1106</AltitudeMeters>
            <DistanceMeters>52566.676994735</DistanceMeters>
          </Trackpoint>
          <Trackpoint>
            <Time>2021-08-28T07:51:18.000Z</Time>
            <Position>
              <LatitudeDegrees>38.18737224675714969635009765625</LatitudeDegrees>
              <LongitudeDegrees>-2.08807381801307201385498046875</LongitudeDegrees>
            </Position>
            <AltitudeMeters>1106.199951171875</AltitudeMeters>
            <DistanceMeters>52612.949150461</DistanceMeters>
          </Trackpoint>
          <Trackpoint>
            <Time>2021-08-28T07:51:22.000Z</Time>
            <Position>
              <LatitudeDegrees>38.18763929419219493865966796875</LatitudeDegrees>
              <LongitudeDegrees>-2.08832611329853534698486328125</LongitudeDegrees>
            </Position>
            <AltitudeMeters>1106.5999755859375</AltitudeMeters>
            <DistanceMeters>52649.970807135</DistanceMeters>
          </Trackpoint>
          <Trackpoint>
            <Time>2021-08-28T07:51:23.000Z</Time>
            <Position>
              <LatitudeDegrees>38.18768321536481380462646484375</LatitudeDegrees>
              <LongitudeDegrees>-2.088387720286846160888671875</LongitudeDegrees>
            </Position>
            <AltitudeMeters>1106.800048828125</AltitudeMeters>
            <DistanceMeters>52657.247644928</DistanceMeters>
          </Trackpoint>
          <Trackpoint>
            <Time>2021-08-28T07:51:25.000Z</Time>
            <Position>
              <LatitudeDegrees>38.18772596307098865509033203125</LatitudeDegrees>
              <LongitudeDegrees>-2.0884536020457744598388671875</LongitudeDegrees>
            </Position>
            <AltitudeMeters>1107.199951171875</AltitudeMeters>
            <DistanceMeters>52664.721603242</DistanceMeters>
          </Trackpoint>
          <Trackpoint>
            <Time>2021-08-28T07:51:28.000Z</Time>
            <Position>
              <LatitudeDegrees>38.18788019008934497833251953125</LatitudeDegrees>
              <LongitudeDegrees>-2.088733725249767303466796875</LongitudeDegrees>
            </Position>
            <AltitudeMeters>1107.5999755859375</AltitudeMeters>
            <DistanceMeters>52694.641590848</DistanceMeters>
          </Trackpoint>
          <Trackpoint>
            <Time>2021-08-28T07:51:29.000Z</Time>
            <Position>
              <LatitudeDegrees>38.18791254423558712005615234375</LatitudeDegrees>
              <LongitudeDegrees>-2.08880656398832798004150390625</LongitudeDegrees>
            </Position>
            <AltitudeMeters>1107.5999755859375</AltitudeMeters>
            <DistanceMeters>52701.96049879</DistanceMeters>
          </Trackpoint>
          <Trackpoint>
            <Time>2021-08-28T07:51:31.000Z</Time>
            <Position>
              <LatitudeDegrees>38.1879738159477710723876953125</LatitudeDegrees>
              <LongitudeDegrees>-2.088950984179973602294921875</LongitudeDegrees>
            </Position>
            <AltitudeMeters>1108.199951171875</AltitudeMeters>
            <DistanceMeters>52716.317396955</DistanceMeters>
          </Trackpoint>
          <Trackpoint>
            <Time>2021-08-28T07:51:37.000Z</Time>
            <Position>
              <LatitudeDegrees>38.18812192417681217193603515625</LatitudeDegrees>
              <LongitudeDegrees>-2.08929933607578277587890625</LongitudeDegrees>
            </Position>
            <AltitudeMeters>1108.800048828125</AltitudeMeters>
            <DistanceMeters>52750.964898054</DistanceMeters>
          </Trackpoint>
          <Trackpoint>
            <Time>2021-08-28T07:51:42.000Z</Time>
            <Position>
              <LatitudeDegrees>38.18829861469566822052001953125</LatitudeDegrees>
              <LongitudeDegrees>-2.08971180953085422515869140625</LongitudeDegrees>
            </Position>
            <AltitudeMeters>1109.199951171875</AltitudeMeters>
            <DistanceMeters>52792.059969492</DistanceMeters>
          </Trackpoint>
          <Trackpoint>
            <Time>2021-08-28T07:51:47.000Z</Time>
            <Position>
              <LatitudeDegrees>38.1884395144879817962646484375</LatitudeDegrees>
              <LongitudeDegrees>-2.09005211479961872100830078125</LongitudeDegrees>
            </Position>
            <AltitudeMeters>1110.4000244140625</AltitudeMeters>
            <DistanceMeters>52825.708283636</DistanceMeters>
          </Trackpoint>
          <Trackpoint>
            <Time>2021-08-28T07:51:52.000Z</Time>
            <Position>
              <LatitudeDegrees>38.1885877065360546112060546875</LatitudeDegrees>
              <LongitudeDegrees>-2.090405412018299102783203125</LongitudeDegrees>
            </Position>
            <AltitudeMeters>1111.5999755859375</AltitudeMeters>
            <DistanceMeters>52860.741064708</DistanceMeters>
          </Trackpoint>
          <Trackpoint>
            <Time>2021-08-28T07:52:01.000Z</Time>
            <Position>
              <LatitudeDegrees>38.18884913809597492218017578125</LatitudeDegrees>
              <LongitudeDegrees>-2.0910439454019069671630859375</LongitudeDegrees>
            </Position>
            <AltitudeMeters>1112.5999755859375</AltitudeMeters>
            <DistanceMeters>52923.725069205</DistanceMeters>
          </Trackpoint>
          <Trackpoint>
            <Time>2021-08-28T07:52:02.000Z</Time>
            <Position>
              <LatitudeDegrees>38.18887897767126560211181640625</LatitudeDegrees>
              <LongitudeDegrees>-2.09111527539789676666259765625</LongitudeDegrees>
            </Position>
            <AltitudeMeters>1112.5999755859375</AltitudeMeters>
            <DistanceMeters>52930.794188177</DistanceMeters>
          </Trackpoint>
          <Trackpoint>
            <Time>2021-08-28T07:52:06.000Z</Time>
            <Position>
              <LatitudeDegrees>38.18896497599780559539794921875</LatitudeDegrees>
              <LongitudeDegrees>-2.0913272537291049957275390625</LongitudeDegrees>
            </Position>
            <AltitudeMeters>1112.800048828125</AltitudeMeters>
            <DistanceMeters>52951.662885471</DistanceMeters>
          </Trackpoint>
          <Trackpoint>
            <Time>2021-08-28T07:52:10.000Z</Time>
            <Position>
              <LatitudeDegrees>38.18911115638911724090576171875</LatitudeDegrees>
              <LongitudeDegrees>-2.0916628651320934295654296875</LongitudeDegrees>
            </Position>
            <AltitudeMeters>1113.800048828125</AltitudeMeters>
            <DistanceMeters>52985.229248069</DistanceMeters>
          </Trackpoint>
          <Trackpoint>
            <Time>2021-08-28T07:52:13.000Z</Time>
            <Position>
              <LatitudeDegrees>38.1891677342355251312255859375</LatitudeDegrees>
              <LongitudeDegrees>-2.0917932875454425811767578125</LongitudeDegrees>
            </Position>
            <AltitudeMeters>1114</AltitudeMeters>
            <DistanceMeters>52998.261426619</DistanceMeters>
          </Trackpoint>
          <Trackpoint>
            <Time>2021-08-28T07:52:23.000Z</Time>
            <Position>
              <LatitudeDegrees>38.18943553604185581207275390625</LatitudeDegrees>
              <LongitudeDegrees>-2.0924329943954944610595703125</LongitudeDegrees>
            </Position>
            <AltitudeMeters>1114.4000244140625</AltitudeMeters>
            <DistanceMeters>53061.666181509</DistanceMeters>
          </Trackpoint>
          <Trackpoint>
            <Time>2021-08-28T07:52:24.000Z</Time>
            <Position>
              <LatitudeDegrees>38.1894627772271633148193359375</LatitudeDegrees>
              <LongitudeDegrees>-2.0924980379641056060791015625</LongitudeDegrees>
            </Position>
            <AltitudeMeters>1114.4000244140625</AltitudeMeters>
            <DistanceMeters>53068.114008425</DistanceMeters>
          </Trackpoint>
          <Trackpoint>
            <Time>2021-08-28T07:52:27.000Z</Time>
            <Position>
              <LatitudeDegrees>38.1895469315350055694580078125</LatitudeDegrees>
              <LongitudeDegrees>-2.09270280785858631134033203125</LongitudeDegrees>
            </Position>
            <AltitudeMeters>1115</AltitudeMeters>
            <DistanceMeters>53088.328136136</DistanceMeters>
          </Trackpoint>
          <Trackpoint>
            <Time>2021-08-28T07:52:33.000Z</Time>
            <Position>
              <LatitudeDegrees>38.1897172518074512481689453125</LatitudeDegrees>
              <LongitudeDegrees>-2.0931213162839412689208984375</LongitudeDegrees>
            </Position>
            <AltitudeMeters>1115.4000244140625</AltitudeMeters>
            <DistanceMeters>53129.555933664</DistanceMeters>
          </Trackpoint>
          <Trackpoint>
            <Time>2021-08-28T07:52:42.000Z</Time>
            <Position>
              <LatitudeDegrees>38.18998740054666996002197265625</LatitudeDegrees>
              <LongitudeDegrees>-2.093770243227481842041015625</LongitudeDegrees>
            </Position>
            <AltitudeMeters>1115.5999755859375</AltitudeMeters>
            <DistanceMeters>53193.795117145</DistanceMeters>
          </Trackpoint>
          <Trackpoint>
            <Time>2021-08-28T07:52:48.000Z</Time>
            <Position>
              <LatitudeDegrees>38.19019041024148464202880859375</LatitudeDegrees>
              <LongitudeDegrees>-2.09426837973296642303466796875</LongitudeDegrees>
            </Position>
            <AltitudeMeters>1115.199951171875</AltitudeMeters>
            <DistanceMeters>53242.881543348</DistanceMeters>
          </Trackpoint>
          <Trackpoint>
            <Time>2021-08-28T07:52:56.000Z</Time>
            <Position>
              <LatitudeDegrees>38.19051462225615978240966796875</LatitudeDegrees>
              <LongitudeDegrees>-2.09501068107783794403076171875</LongitudeDegrees>
            </Position>
            <AltitudeMeters>1114.4000244140625</AltitudeMeters>
            <DistanceMeters>53317.170314502</DistanceMeters>
          </Trackpoint>
          <Trackpoint>
            <Time>2021-08-28T07:53:04.000Z</Time>
            <Position>
              <LatitudeDegrees>38.19077446125447750091552734375</LatitudeDegrees>
              <LongitudeDegrees>-2.09563278593122959136962890625</LongitudeDegrees>
            </Position>
            <AltitudeMeters>1115.5999755859375</AltitudeMeters>
            <DistanceMeters>53378.798490625</DistanceMeters>
          </Trackpoint>
          <Trackpoint>
            <Time>2021-08-28T07:53:10.000Z</Time>
            <Position>
              <LatitudeDegrees>38.19097445346415042877197265625</LatitudeDegrees>
              <LongitudeDegrees>-2.0961109735071659088134765625</LongitudeDegrees>
            </Position>
            <AltitudeMeters>1116</AltitudeMeters>
            <DistanceMeters>53426.18338809</DistanceMeters>
          </Trackpoint>
          <Trackpoint>
            <Time>2021-08-28T07:53:14.000Z</Time>
            <Position>
              <LatitudeDegrees>38.191073946654796600341796875</LatitudeDegrees>
              <LongitudeDegrees>-2.09634189493954181671142578125</LongitudeDegrees>
            </Position>
            <AltitudeMeters>1116.199951171875</AltitudeMeters>
            <DistanceMeters>53449.220262718</DistanceMeters>
          </Trackpoint>
          <Trackpoint>
            <Time>2021-08-28T07:53:22.000Z</Time>
            <Position>
              <LatitudeDegrees>38.191311322152614593505859375</LatitudeDegrees>
              <LongitudeDegrees>-2.09693516604602336883544921875</LongitudeDegrees>
            </Position>
            <AltitudeMeters>1116.800048828125</AltitudeMeters>
            <DistanceMeters>53507.456522302</DistanceMeters>
          </Trackpoint>
          <Trackpoint>
            <Time>2021-08-28T07:53:25.000Z</Time>
            <Position>
              <LatitudeDegrees>38.19138902239501476287841796875</LatitudeDegrees>
              <LongitudeDegrees>-2.09717094898223876953125</LongitudeDegrees>
            </Position>
            <AltitudeMeters>1117</AltitudeMeters>
            <DistanceMeters>53529.821741382</DistanceMeters>
          </Trackpoint>
          <Trackpoint>
            <Time>2021-08-28T07:53:29.000Z</Time>
            <Position>
              <LatitudeDegrees>38.19150745868682861328125</LatitudeDegrees>
              <LongitudeDegrees>-2.09760203026235103607177734375</LongitudeDegrees>
            </Position>
            <AltitudeMeters>1116.5999755859375</AltitudeMeters>
            <DistanceMeters>53569.769371716</DistanceMeters>
          </Trackpoint>
          <Trackpoint>
            <Time>2021-08-28T07:53:34.000Z</Time>
            <Position>
              <LatitudeDegrees>38.1916296668350696563720703125</LatitudeDegrees>
              <LongitudeDegrees>-2.09804208017885684967041015625</LongitudeDegrees>
            </Position>
            <AltitudeMeters>1116</AltitudeMeters>
            <DistanceMeters>53610.596258942</DistanceMeters>
          </Trackpoint>
          <Trackpoint>
            <Time>2021-08-28T07:53:39.000Z</Time>
            <Position>
              <LatitudeDegrees>38.1917488574981689453125</LatitudeDegrees>
              <LongitudeDegrees>-2.09847073070704936981201171875</LongitudeDegrees>
            </Position>
            <AltitudeMeters>1115.199951171875</AltitudeMeters>
            <DistanceMeters>53650.37104081</DistanceMeters>
          </Trackpoint>
          <Trackpoint>
            <Time>2021-08-28T07:53:44.000Z</Time>
            <Position>
              <LatitudeDegrees>38.191867209970951080322265625</LatitudeDegrees>
              <LongitudeDegrees>-2.0988964475691318511962890625</LongitudeDegrees>
            </Position>
            <AltitudeMeters>1114.800048828125</AltitudeMeters>
            <DistanceMeters>53689.872675579</DistanceMeters>
          </Trackpoint>
          <Trackpoint>
            <Time>2021-08-28T07:53:48.000Z</Time>
            <Position>
              <LatitudeDegrees>38.19195739924907684326171875</LatitudeDegrees>
              <LongitudeDegrees>-2.0992163009941577911376953125</LongitudeDegrees>
            </Position>
            <AltitudeMeters>1114.800048828125</AltitudeMeters>
            <DistanceMeters>53719.598878843</DistanceMeters>
          </Trackpoint>
          <Trackpoint>
            <Time>2021-08-28T07:53:56.000Z</Time>
            <Position>
              <LatitudeDegrees>38.1921275518834590911865234375</LatitudeDegrees>
              <LongitudeDegrees>-2.099793143570423126220703125</LongitudeDegrees>
            </Position>
            <AltitudeMeters>1115.5999755859375</AltitudeMeters>
            <DistanceMeters>53773.496201704</DistanceMeters>
          </Trackpoint>
          <Trackpoint>
            <Time>2021-08-28T07:54:03.000Z</Time>
            <Position>
              <LatitudeDegrees>38.1922544538974761962890625</LatitudeDegrees>
              <LongitudeDegrees>-2.10026076994836330413818359375</LongitudeDegrees>
            </Position>
            <AltitudeMeters>1116</AltitudeMeters>
            <DistanceMeters>53816.772498386</DistanceMeters>
          </Trackpoint>
          <Trackpoint>
            <Time>2021-08-28T07:54:05.000Z</Time>
            <Position>
              <LatitudeDegrees>38.192287646234035491943359375</LatitudeDegrees>
              <LongitudeDegrees>-2.10038297809660434722900390625</LongitudeDegrees>
            </Position>
            <AltitudeMeters>1116.5999755859375</AltitudeMeters>
            <DistanceMeters>53828.083471954</DistanceMeters>
          </Trackpoint>
          <Trackpoint>
            <Time>2021-08-28T07:54:12.000Z</Time>
            <Position>
              <LatitudeDegrees>38.1923806853592395782470703125</LatitudeDegrees>
              <LongitudeDegrees>-2.1007082797586917877197265625</LongitudeDegrees>
            </Position>
            <AltitudeMeters>1116.5999755859375</AltitudeMeters>
            <DistanceMeters>53858.3654011</DistanceMeters>
          </Trackpoint>
          <Trackpoint>
            <Time>2021-08-28T07:54:15.000Z</Time>
            <Position>
              <LatitudeDegrees>38.19241940975189208984375</LatitudeDegrees>
              <LongitudeDegrees>-2.100853957235813140869140625</LongitudeDegrees>
            </Position>
            <AltitudeMeters>1117.199951171875</AltitudeMeters>
            <DistanceMeters>53871.817975649</DistanceMeters>
          </Trackpoint>
          <Trackpoint>
            <Time>2021-08-28T07:54:16.000Z</Time>
            <Position>
              <LatitudeDegrees>38.19241940975189208984375</LatitudeDegrees>
              <LongitudeDegrees>-2.100853957235813140869140625</LongitudeDegrees>
            </Position>
            <AltitudeMeters>1117.4000244140625</AltitudeMeters>
            <DistanceMeters>53871.817975649</DistanceMeters>
          </Trackpoint>
          <Trackpoint>
            <Time>2021-08-28T07:54:18.000Z</Time>
            <Position>
              <LatitudeDegrees>38.19241178222000598907470703125</LatitudeDegrees>
              <LongitudeDegrees>-2.10091707296669483184814453125</LongitudeDegrees>
            </Position>
            <AltitudeMeters>1117.800048828125</AltitudeMeters>
            <DistanceMeters>53877.403574464</DistanceMeters>
          </Trackpoint>
          <Trackpoint>
            <Time>2021-08-28T07:54:20.000Z</Time>
            <Position>
              <LatitudeDegrees>38.1923729740083217620849609375</LatitudeDegrees>
              <LongitudeDegrees>-2.10098211653530597686767578125</LongitudeDegrees>
            </Position>
            <AltitudeMeters>1118.4000244140625</AltitudeMeters>
            <DistanceMeters>53884.547030349</DistanceMeters>
          </Trackpoint>
          <Trackpoint>
            <Time>2021-08-28T07:54:21.000Z</Time>
            <Position>
              <LatitudeDegrees>38.19234154187142848968505859375</LatitudeDegrees>
              <LongitudeDegrees>-2.101012878119945526123046875</LongitudeDegrees>
            </Position>
            <AltitudeMeters>1118.5999755859375</AltitudeMeters>
            <DistanceMeters>53888.961427812</DistanceMeters>
          </Trackpoint>
          <Trackpoint>
            <Time>2021-08-28T07:54:24.000Z</Time>
            <Position>
              <LatitudeDegrees>38.19216736592352390289306640625</LatitudeDegrees>
              <LongitudeDegrees>-2.10108571685850620269775390625</LongitudeDegrees>
            </Position>
            <AltitudeMeters>1118.800048828125</AltitudeMeters>
            <DistanceMeters>53909.367847763</DistanceMeters>
          </Trackpoint>
          <Trackpoint>
            <Time>2021-08-28T07:54:29.000Z</Time>
            <Position>
              <LatitudeDegrees>38.19193460047245025634765625</LatitudeDegrees>
              <LongitudeDegrees>-2.101142965257167816162109375</LongitudeDegrees>
            </Position>
            <AltitudeMeters>1119.4000244140625</AltitudeMeters>
            <DistanceMeters>53935.754834599</DistanceMeters>
          </Trackpoint>
          <Trackpoint>
            <Time>2021-08-28T07:54:33.000Z</Time>
            <Position>
              <LatitudeDegrees>38.19179403595626354217529296875</LatitudeDegrees>
              <LongitudeDegrees>-2.10117372684180736541748046875</LongitudeDegrees>
            </Position>
            <AltitudeMeters>1120.4000244140625</AltitudeMeters>
            <DistanceMeters>53951.62970069</DistanceMeters>
          </Trackpoint>
          <Trackpoint>
            <Time>2021-08-28T07:54:34.000Z</Time>
            <Position>
              <LatitudeDegrees>38.1917000748217105865478515625</LatitudeDegrees>
              <LongitudeDegrees>-2.1011930890381336212158203125</LongitudeDegrees>
            </Position>
            <AltitudeMeters>1120.800048828125</AltitudeMeters>
            <DistanceMeters>53962.224220509</DistanceMeters>
          </Trackpoint>
          <Trackpoint>
            <Time>2021-08-28T07:54:41.000Z</Time>
            <Position>
              <LatitudeDegrees>38.191393800079822540283203125</LatitudeDegrees>
              <LongitudeDegrees>-2.1012423746287822723388671875</LongitudeDegrees>
            </Position>
            <AltitudeMeters>1121.199951171875</AltitudeMeters>
            <DistanceMeters>53996.584755644</DistanceMeters>
          </Trackpoint>
          <Trackpoint>
            <Time>2021-08-28T07:54:44.000Z</Time>
            <Position>
              <LatitudeDegrees>38.19119372405111789703369140625</LatitudeDegrees>
              <LongitudeDegrees>-2.1012561209499835968017578125</LongitudeDegrees>
            </Position>
            <AltitudeMeters>1121.800048828125</AltitudeMeters>
            <DistanceMeters>54018.88609014</DistanceMeters>
          </Trackpoint>
          <Trackpoint>
            <Time>2021-08-28T07:54:51.000Z</Time>
            <Position>
              <LatitudeDegrees>38.1908823363482952117919921875</LatitudeDegrees>
              <LongitudeDegrees>-2.10125251673161983489990234375</LongitudeDegrees>
            </Position>
            <AltitudeMeters>1122.4000244140625</AltitudeMeters>
            <DistanceMeters>54053.545708278</DistanceMeters>
          </Trackpoint>
          <Trackpoint>
            <Time>2021-08-28T07:54:59.000Z</Time>
            <Position>
              <LatitudeDegrees>38.19038537330925464630126953125</LatitudeDegrees>
              <LongitudeDegrees>-2.1011956036090850830078125</LongitudeDegrees>
            </Position>
            <AltitudeMeters>1121.800048828125</AltitudeMeters>
            <DistanceMeters>54109.082299011</DistanceMeters>
          </Trackpoint>
          <Trackpoint>
            <Time>2021-08-28T07:55:07.000Z</Time>
            <Position>
              <LatitudeDegrees>38.18998589180409908294677734375</LatitudeDegrees>
              <LongitudeDegrees>-2.1010856330394744873046875</LongitudeDegrees>
            </Position>
            <AltitudeMeters>1123</AltitudeMeters>
            <DistanceMeters>54154.574198504</DistanceMeters>
          </Trackpoint>
          <Trackpoint>
            <Time>2021-08-28T07:55:16.000Z</Time>
            <Position>
              <LatitudeDegrees>38.189433105289936065673828125</LatitudeDegrees>
              <LongitudeDegrees>-2.10083442740142345428466796875</LongitudeDegrees>
            </Position>
            <AltitudeMeters>1123.199951171875</AltitudeMeters>
            <DistanceMeters>54219.907189742</DistanceMeters>
          </Trackpoint>
          <Trackpoint>
            <Time>2021-08-28T07:55:17.000Z</Time>
            <Position>
              <LatitudeDegrees>38.18938088603317737579345703125</LatitudeDegrees>
              <LongitudeDegrees>-2.1008058451116085052490234375</LongitudeDegrees>
            </Position>
            <AltitudeMeters>1123.4000244140625</AltitudeMeters>
            <DistanceMeters>54226.234855895</DistanceMeters>
          </Trackpoint>
          <Trackpoint>
            <Time>2021-08-28T07:55:20.000Z</Time>
            <Position>
              <LatitudeDegrees>38.189226575195789337158203125</LatitudeDegrees>
              <LongitudeDegrees>-2.100715152919292449951171875</LongitudeDegrees>
            </Position>
            <AltitudeMeters>1124</AltitudeMeters>
            <DistanceMeters>54245.154004134</DistanceMeters>
          </Trackpoint>
          <Trackpoint>
            <Time>2021-08-28T07:55:26.000Z</Time>
            <Position>
              <LatitudeDegrees>38.18892742507159709930419921875</LatitudeDegrees>
              <LongitudeDegrees>-2.100497893989086151123046875</LongitudeDegrees>
            </Position>
            <AltitudeMeters>1124.199951171875</AltitudeMeters>
            <DistanceMeters>54283.492543529</DistanceMeters>
          </Trackpoint>
          <Trackpoint>
            <Time>2021-08-28T07:55:34.000Z</Time>
            <Position>
              <LatitudeDegrees>38.18855099380016326904296875</LatitudeDegrees>
              <LongitudeDegrees>-2.10017074830830097198486328125</LongitudeDegrees>
            </Position>
            <AltitudeMeters>1125.199951171875</AltitudeMeters>
            <DistanceMeters>54334.231559128</DistanceMeters>
          </Trackpoint>
          <Trackpoint>
            <Time>2021-08-28T07:55:38.000Z</Time>
            <Position>
              <LatitudeDegrees>38.18836499936878681182861328125</LatitudeDegrees>
              <LongitudeDegrees>-2.10000361315906047821044921875</LongitudeDegrees>
            </Position>
            <AltitudeMeters>1125.800048828125</AltitudeMeters>
            <DistanceMeters>54359.5757379</DistanceMeters>
          </Trackpoint>
          <Trackpoint>
            <Time>2021-08-28T07:55:43.000Z</Time>
            <Position>
              <LatitudeDegrees>38.1881256960332393646240234375</LatitudeDegrees>
              <LongitudeDegrees>-2.09978702478110790252685546875</LongitudeDegrees>
            </Position>
            <AltitudeMeters>1126.199951171875</AltitudeMeters>
            <DistanceMeters>54392.262717645</DistanceMeters>
          </Trackpoint>
          <Trackpoint>
            <Time>2021-08-28T07:55:47.000Z</Time>
            <Position>
              <LatitudeDegrees>38.18793618120253086090087890625</LatitudeDegrees>
              <LongitudeDegrees>-2.09962240420281887054443359375</LongitudeDegrees>
            </Position>
            <AltitudeMeters>1126.800048828125</AltitudeMeters>
            <DistanceMeters>54417.803522689</DistanceMeters>
          </Trackpoint>
          <Trackpoint>
            <Time>2021-08-28T07:55:49.000Z</Time>
            <Position>
              <LatitudeDegrees>38.1878879852592945098876953125</LatitudeDegrees>
              <LongitudeDegrees>-2.09958367981016635894775390625</LongitudeDegrees>
            </Position>
            <AltitudeMeters>1127.199951171875</AltitudeMeters>
            <DistanceMeters>54424.148290674</DistanceMeters>
          </Trackpoint>
          <Trackpoint>
            <Time>2021-08-28T07:55:56.000Z</Time>
            <Position>
              <LatitudeDegrees>38.1875490210950374603271484375</LatitudeDegrees>
              <LongitudeDegrees>-2.0993272773921489715576171875</LongitudeDegrees>
            </Position>
            <AltitudeMeters>1128.4000244140625</AltitudeMeters>
            <DistanceMeters>54468.040141498</DistanceMeters>
          </Trackpoint>
          <Trackpoint>
            <Time>2021-08-28T07:55:58.000Z</Time>
            <Position>
              <LatitudeDegrees>38.18740577436983585357666015625</LatitudeDegrees>
              <LongitudeDegrees>-2.0992297120392322540283203125</LongitudeDegrees>
            </Position>
            <AltitudeMeters>1128.5999755859375</AltitudeMeters>
            <DistanceMeters>54486.12470145</DistanceMeters>
          </Trackpoint>
          <Trackpoint>
            <Time>2021-08-28T07:56:02.000Z</Time>
            <Position>
              <LatitudeDegrees>38.18721466697752475738525390625</LatitudeDegrees>
              <LongitudeDegrees>-2.0991110242903232574462890625</LongitudeDegrees>
            </Position>
            <AltitudeMeters>1129.5999755859375</AltitudeMeters>
            <DistanceMeters>54509.794366272</DistanceMeters>
          </Trackpoint>
          <Trackpoint>
            <Time>2021-08-28T07:56:08.000Z</Time>
            <Position>
              <LatitudeDegrees>38.1869133375585079193115234375</LatitudeDegrees>
              <LongitudeDegrees>-2.0989464037120342254638671875</LongitudeDegrees>
            </Position>
            <AltitudeMeters>1130.5999755859375</AltitudeMeters>
            <DistanceMeters>54546.294150765</DistanceMeters>
          </Trackpoint>
          <Trackpoint>
            <Time>2021-08-28T07:56:12.000Z</Time>
            <Position>
              <LatitudeDegrees>38.186706639826297760009765625</LatitudeDegrees>
              <LongitudeDegrees>-2.098836600780487060546875</LongitudeDegrees>
            </Position>
            <AltitudeMeters>1131.5999755859375</AltitudeMeters>
            <DistanceMeters>54571.224857968</DistanceMeters>
          </Trackpoint>
          <Trackpoint>
            <Time>2021-08-28T07:56:18.000Z</Time>
            <Position>
              <LatitudeDegrees>38.186392150819301605224609375</LatitudeDegrees>
              <LongitudeDegrees>-2.09866770543158054351806640625</LongitudeDegrees>
            </Position>
            <AltitudeMeters>1132.5999755859375</AltitudeMeters>
            <DistanceMeters>54609.218910402</DistanceMeters>
          </Trackpoint>
          <Trackpoint>
            <Time>2021-08-28T07:56:19.000Z</Time>
            <Position>
              <LatitudeDegrees>38.1863386742770671844482421875</LatitudeDegrees>
              <LongitudeDegrees>-2.0986382849514484405517578125</LongitudeDegrees>
            </Position>
            <AltitudeMeters>1132.800048828125</AltitudeMeters>
            <DistanceMeters>54615.703047655</DistanceMeters>
          </Trackpoint>
          <Trackpoint>
            <Time>2021-08-28T07:56:25.000Z</Time>
            <Position>
              <LatitudeDegrees>38.18600733764469623565673828125</LatitudeDegrees>
              <LongitudeDegrees>-2.098460756242275238037109375</LongitudeDegrees>
            </Position>
            <AltitudeMeters>1133.199951171875</AltitudeMeters>
            <DistanceMeters>54655.718434886</DistanceMeters>
          </Trackpoint>
          <Trackpoint>
            <Time>2021-08-28T07:56:30.000Z</Time>
            <Position>
              <LatitudeDegrees>38.18571883253753185272216796875</LatitudeDegrees>
              <LongitudeDegrees>-2.09830493666231632232666015625</LongitudeDegrees>
            </Position>
            <AltitudeMeters>1133.5999755859375</AltitudeMeters>
            <DistanceMeters>54690.603465231</DistanceMeters>
          </Trackpoint>
          <Trackpoint>
            <Time>2021-08-28T07:56:32.000Z</Time>
            <Position>
              <LatitudeDegrees>38.185598552227020263671875</LatitudeDegrees>
              <LongitudeDegrees>-2.09823905490338802337646484375</LongitudeDegrees>
            </Position>
            <AltitudeMeters>1133.800048828125</AltitudeMeters>
            <DistanceMeters>54705.178840987</DistanceMeters>
          </Trackpoint>
          <Trackpoint>
            <Time>2021-08-28T07:56:40.000Z</Time>
            <Position>
              <LatitudeDegrees>38.18510091863572597503662109375</LatitudeDegrees>
              <LongitudeDegrees>-2.0979616977274417877197265625</LongitudeDegrees>
            </Position>
            <AltitudeMeters>1134</AltitudeMeters>
            <DistanceMeters>54765.648245271</DistanceMeters>
          </Trackpoint>
          <Trackpoint>
            <Time>2021-08-28T07:56:48.000Z</Time>
            <Position>
              <LatitudeDegrees>38.184593059122562408447265625</LatitudeDegrees>
              <LongitudeDegrees>-2.09771686233580112457275390625</LongitudeDegrees>
            </Position>
            <AltitudeMeters>1134.4000244140625</AltitudeMeters>
            <DistanceMeters>54826.096291167</DistanceMeters>
          </Trackpoint>
          <Trackpoint>
            <Time>2021-08-28T07:56:50.000Z</Time>
            <Position>
              <LatitudeDegrees>38.184465654194355010986328125</LatitudeDegrees>
              <LongitudeDegrees>-2.097674198448657989501953125</LongitudeDegrees>
            </Position>
            <AltitudeMeters>1134.800048828125</AltitudeMeters>
            <DistanceMeters>54840.759993983</DistanceMeters>
          </Trackpoint>
          <Trackpoint>
            <Time>2021-08-28T07:56:51.000Z</Time>
            <Position>
              <LatitudeDegrees>38.18440203554928302764892578125</LatitudeDegrees>
              <LongitudeDegrees>-2.09765701554715633392333984375</LongitudeDegrees>
            </Position>
            <AltitudeMeters>1134.800048828125</AltitudeMeters>
            <DistanceMeters>54847.998260594</DistanceMeters>
          </Trackpoint>
          <Trackpoint>
            <Time>2021-08-28T07:56:58.000Z</Time>
            <Position>
              <LatitudeDegrees>38.184050582349300384521484375</LatitudeDegrees>
              <LongitudeDegrees>-2.097576968371868133544921875</LongitudeDegrees>
            </Position>
            <AltitudeMeters>1136</AltitudeMeters>
            <DistanceMeters>54887.73760997</DistanceMeters>
          </Trackpoint>
          <Trackpoint>
            <Time>2021-08-28T07:57:03.000Z</Time>
            <Position>
              <LatitudeDegrees>38.18370901979506015777587890625</LatitudeDegrees>
              <LongitudeDegrees>-2.09755609743297100067138671875</LongitudeDegrees>
            </Position>
            <AltitudeMeters>1137.199951171875</AltitudeMeters>
            <DistanceMeters>54925.79791479</DistanceMeters>
          </Trackpoint>
          <Trackpoint>
            <Time>2021-08-28T07:57:05.000Z</Time>
            <Position>
              <LatitudeDegrees>38.183654285967350006103515625</LatitudeDegrees>
              <LongitudeDegrees>-2.0975586958229541778564453125</LongitudeDegrees>
            </Position>
            <AltitudeMeters>1138</AltitudeMeters>
            <DistanceMeters>54931.894454353</DistanceMeters>
          </Trackpoint>
          <Trackpoint>
            <Time>2021-08-28T07:57:06.000Z</Time>
            <Position>
              <LatitudeDegrees>38.18354842253029346466064453125</LatitudeDegrees>
              <LongitudeDegrees>-2.0975664071738719940185546875</LongitudeDegrees>
            </Position>
            <AltitudeMeters>1138.199951171875</AltitudeMeters>
            <DistanceMeters>54943.696909996</DistanceMeters>
          </Trackpoint>
          <Trackpoint>
            <Time>2021-08-28T07:57:10.000Z</Time>
            <Position>
              <LatitudeDegrees>38.18338849581778049468994140625</LatitudeDegrees>
              <LongitudeDegrees>-2.09758962504565715789794921875</LongitudeDegrees>
            </Position>
            <AltitudeMeters>1139.5999755859375</AltitudeMeters>
            <DistanceMeters>54961.612407118</DistanceMeters>
          </Trackpoint>
          <Trackpoint>
            <Time>2021-08-28T07:57:13.000Z</Time>
            <Position>
              <LatitudeDegrees>38.1831783615052700042724609375</LatitudeDegrees>
              <LongitudeDegrees>-2.097625248134136199951171875</LongitudeDegrees>
            </Position>
            <AltitudeMeters>1140.199951171875</AltitudeMeters>
            <DistanceMeters>54985.20736999</DistanceMeters>
          </Trackpoint>
          <Trackpoint>
            <Time>2021-08-28T07:57:15.000Z</Time>
            <Position>
              <LatitudeDegrees>38.1831267289817333221435546875</LatitudeDegrees>
              <LongitudeDegrees>-2.09763304330408573150634765625</LongitudeDegrees>
            </Position>
            <AltitudeMeters>1141</AltitudeMeters>
            <DistanceMeters>54990.993084585</DistanceMeters>
          </Trackpoint>
          <Trackpoint>
            <Time>2021-08-28T07:57:19.000Z</Time>
            <Position>
              <LatitudeDegrees>38.18291366100311279296875</LatitudeDegrees>
              <LongitudeDegrees>-2.09767059423029422760009765625</LongitudeDegrees>
            </Position>
            <AltitudeMeters>1142</AltitudeMeters>
            <DistanceMeters>55014.934536763</DistanceMeters>
          </Trackpoint>
          <Trackpoint>
            <Time>2021-08-28T07:57:23.000Z</Time>
            <Position>
              <LatitudeDegrees>38.182702101767063140869140625</LatitudeDegrees>
              <LongitudeDegrees>-2.09771384485065937042236328125</LongitudeDegrees>
            </Position>
            <AltitudeMeters>1142.5999755859375</AltitudeMeters>
            <DistanceMeters>55038.783402457</DistanceMeters>
          </Trackpoint>
          <Trackpoint>
            <Time>2021-08-28T07:57:27.000Z</Time>
            <Position>
              <LatitudeDegrees>38.18243413232266902923583984375</LatitudeDegrees>
              <LongitudeDegrees>-2.0977689139544963836669921875</LongitudeDegrees>
            </Position>
            <AltitudeMeters>1143.4000244140625</AltitudeMeters>
            <DistanceMeters>55068.995472181</DistanceMeters>
          </Trackpoint>
          <Trackpoint>
            <Time>2021-08-28T07:57:32.000Z</Time>
            <Position>
              <LatitudeDegrees>38.182237409055233001708984375</LatitudeDegrees>
              <LongitudeDegrees>-2.09780671633780002593994140625</LongitudeDegrees>
            </Position>
            <AltitudeMeters>1144.4000244140625</AltitudeMeters>
            <DistanceMeters>55091.139551325</DistanceMeters>
          </Trackpoint>
          <Trackpoint>
            <Time>2021-08-28T07:57:33.000Z</Time>
            <Position>
              <LatitudeDegrees>38.18219147622585296630859375</LatitudeDegrees>
              <LongitudeDegrees>-2.09781526587903499603271484375</LongitudeDegrees>
            </Position>
            <AltitudeMeters>1144.5999755859375</AltitudeMeters>
            <DistanceMeters>55096.306069105</DistanceMeters>
          </Trackpoint>
          <Trackpoint>
            <Time>2021-08-28T07:57:37.000Z</Time>
            <Position>
              <LatitudeDegrees>38.18200816400349140167236328125</LatitudeDegrees>
              <LongitudeDegrees>-2.0978577621281147003173828125</LongitudeDegrees>
            </Position>
            <AltitudeMeters>1144.800048828125</AltitudeMeters>
            <DistanceMeters>55117.044982795</DistanceMeters>
          </Trackpoint>
          <Trackpoint>
            <Time>2021-08-28T07:57:39.000Z</Time>
            <Position>
              <LatitudeDegrees>38.18191252648830413818359375</LatitudeDegrees>
              <LongitudeDegrees>-2.09787435829639434814453125</LongitudeDegrees>
            </Position>
            <AltitudeMeters>1145.4000244140625</AltitudeMeters>
            <DistanceMeters>55127.788466266</DistanceMeters>
          </Trackpoint>
          <Trackpoint>
            <Time>2021-08-28T07:57:41.000Z</Time>
            <Position>
              <LatitudeDegrees>38.18181730806827545166015625</LatitudeDegrees>
              <LongitudeDegrees>-2.09789237938821315765380859375</LongitudeDegrees>
            </Position>
            <AltitudeMeters>1146</AltitudeMeters>
            <DistanceMeters>55138.503334063</DistanceMeters>
          </Trackpoint>
          <Trackpoint>
            <Time>2021-08-28T07:57:43.000Z</Time>
            <Position>
              <LatitudeDegrees>38.181723095476627349853515625</LatitudeDegrees>
              <LongitudeDegrees>-2.09791065193712711334228515625</LongitudeDegrees>
            </Position>
            <AltitudeMeters>1146.5999755859375</AltitudeMeters>
            <DistanceMeters>55149.110631198</DistanceMeters>
          </Trackpoint>
          <Trackpoint>
            <Time>2021-08-28T07:57:48.000Z</Time>
            <Position>
              <LatitudeDegrees>38.181488402187824249267578125</LatitudeDegrees>
              <LongitudeDegrees>-2.0979529805481433868408203125</LongitudeDegrees>
            </Position>
            <AltitudeMeters>1147.800048828125</AltitudeMeters>
            <DistanceMeters>55175.493682244</DistanceMeters>
          </Trackpoint>
          <Trackpoint>
            <Time>2021-08-28T07:57:50.000Z</Time>
            <Position>
              <LatitudeDegrees>38.18139092065393924713134765625</LatitudeDegrees>
              <LongitudeDegrees>-2.09796496666967868804931640625</LongitudeDegrees>
            </Position>
            <AltitudeMeters>1148.199951171875</AltitudeMeters>
            <DistanceMeters>55186.394037553</DistanceMeters>
          </Trackpoint>
          <Trackpoint>
            <Time>2021-08-28T07:57:56.000Z</Time>
            <Position>
              <LatitudeDegrees>38.1810936145484447479248046875</LatitudeDegrees>
              <LongitudeDegrees>-2.09802732802927494049072265625</LongitudeDegrees>
            </Position>
            <AltitudeMeters>1149</AltitudeMeters>
            <DistanceMeters>55219.93146786</DistanceMeters>
          </Trackpoint>
          <Trackpoint>
            <Time>2021-08-28T07:57:58.000Z</Time>
            <Position>
              <LatitudeDegrees>38.1809454225003719329833984375</LatitudeDegrees>
              <LongitudeDegrees>-2.09806236438453197479248046875</LongitudeDegrees>
            </Position>
            <AltitudeMeters>1149.4000244140625</AltitudeMeters>
            <DistanceMeters>55236.707922271</DistanceMeters>
          </Trackpoint>
          <Trackpoint>
            <Time>2021-08-28T07:58:08.000Z</Time>
            <Position>
              <LatitudeDegrees>38.18048651330173015594482421875</LatitudeDegrees>
              <LongitudeDegrees>-2.0981323532760143280029296875</LongitudeDegrees>
            </Position>
            <AltitudeMeters>1149.5999755859375</AltitudeMeters>
            <DistanceMeters>55288.151088514</DistanceMeters>
          </Trackpoint>
          <Trackpoint>
            <Time>2021-08-28T07:58:09.000Z</Time>
            <Position>
              <LatitudeDegrees>38.18043303675949573516845703125</LatitudeDegrees>
              <LongitudeDegrees>-2.0981383882462978363037109375</LongitudeDegrees>
            </Position>
            <AltitudeMeters>1149.5999755859375</AltitudeMeters>
            <DistanceMeters>55294.125692449</DistanceMeters>
          </Trackpoint>
          <Trackpoint>
            <Time>2021-08-28T07:58:10.000Z</Time>
            <Position>
              <LatitudeDegrees>38.1803801469504833221435546875</LatitudeDegrees>
              <LongitudeDegrees>-2.0981387235224246978759765625</LongitudeDegrees>
            </Position>
            <AltitudeMeters>1149.5999755859375</AltitudeMeters>
            <DistanceMeters>55300.012748877</DistanceMeters>
          </Trackpoint>
          <Trackpoint>
            <Time>2021-08-28T07:58:15.000Z</Time>
            <Position>
              <LatitudeDegrees>38.1801045499742031097412109375</LatitudeDegrees>
              <LongitudeDegrees>-2.09815003909170627593994140625</LongitudeDegrees>
            </Position>
            <AltitudeMeters>1149.5999755859375</AltitudeMeters>
            <DistanceMeters>55330.70328836</DistanceMeters>
          </Trackpoint>
          <Trackpoint>
            <Time>2021-08-28T07:58:19.000Z</Time>
            <Position>
              <LatitudeDegrees>38.1798782385885715484619140625</LatitudeDegrees>
              <LongitudeDegrees>-2.09813989698886871337890625</LongitudeDegrees>
            </Position>
            <AltitudeMeters>1150.199951171875</AltitudeMeters>
            <DistanceMeters>55355.907590527</DistanceMeters>
          </Trackpoint>
          <Trackpoint>
            <Time>2021-08-28T07:58:23.000Z</Time>
            <Position>
              <LatitudeDegrees>38.1796596385538578033447265625</LatitudeDegrees>
              <LongitudeDegrees>-2.09809857420623302459716796875</LongitudeDegrees>
            </Position>
            <AltitudeMeters>1150.4000244140625</AltitudeMeters>
            <DistanceMeters>55380.505379901</DistanceMeters>
          </Trackpoint>
          <Trackpoint>
            <Time>2021-08-28T07:58:31.000Z</Time>
            <Position>
              <LatitudeDegrees>38.1791089475154876708984375</LatitudeDegrees>
              <LongitudeDegrees>-2.097955159842967987060546875</LongitudeDegrees>
            </Position>
            <AltitudeMeters>1150.4000244140625</AltitudeMeters>
            <DistanceMeters>55443.069484915</DistanceMeters>
          </Trackpoint>
          <Trackpoint>
            <Time>2021-08-28T07:58:36.000Z</Time>
            <Position>
              <LatitudeDegrees>38.17881063558161258697509765625</LatitudeDegrees>
              <LongitudeDegrees>-2.0978560857474803924560546875</LongitudeDegrees>
            </Position>
            <AltitudeMeters>1150.199951171875</AltitudeMeters>
            <DistanceMeters>55477.385051187</DistanceMeters>
          </Trackpoint>
          <Trackpoint>
            <Time>2021-08-28T07:58:38.000Z</Time>
            <Position>
              <LatitudeDegrees>38.17868591286242008209228515625</LatitudeDegrees>
              <LongitudeDegrees>-2.09781811572611331939697265625</LongitudeDegrees>
            </Position>
            <AltitudeMeters>1150.4000244140625</AltitudeMeters>
            <DistanceMeters>55491.658683686</DistanceMeters>
          </Trackpoint>
          <Trackpoint>
            <Time>2021-08-28T07:58:47.000Z</Time>
            <Position>
              <LatitudeDegrees>38.17813086323440074920654296875</LatitudeDegrees>
              <LongitudeDegrees>-2.09763589315116405487060546875</LongitudeDegrees>
            </Position>
            <AltitudeMeters>1151</AltitudeMeters>
            <DistanceMeters>55555.460896349</DistanceMeters>
          </Trackpoint>
          <Trackpoint>
            <Time>2021-08-28T07:58:49.000Z</Time>
            <Position>
              <LatitudeDegrees>38.1780159473419189453125</LatitudeDegrees>
              <LongitudeDegrees>-2.09759733639657497406005859375</LongitudeDegrees>
            </Position>
            <AltitudeMeters>1151.199951171875</AltitudeMeters>
            <DistanceMeters>55568.688737868</DistanceMeters>
          </Trackpoint>
          <Trackpoint>
            <Time>2021-08-28T07:58:56.000Z</Time>
            <Position>
              <LatitudeDegrees>38.17764923907816410064697265625</LatitudeDegrees>
              <LongitudeDegrees>-2.097478397190570831298828125</LongitudeDegrees>
            </Position>
            <AltitudeMeters>1152.4000244140625</AltitudeMeters>
            <DistanceMeters>55610.809911872</DistanceMeters>
          </Trackpoint>
          <Trackpoint>
            <Time>2021-08-28T07:58:57.000Z</Time>
            <Position>
              <LatitudeDegrees>38.17759878002107143402099609375</LatitudeDegrees>
              <LongitudeDegrees>-2.09746104665100574493408203125</LongitudeDegrees>
            </Position>
            <AltitudeMeters>1152.800048828125</AltitudeMeters>
            <DistanceMeters>55616.627533938</DistanceMeters>
          </Trackpoint>
          <Trackpoint>
            <Time>2021-08-28T07:59:00.000Z</Time>
            <Position>
              <LatitudeDegrees>38.1774461455643177032470703125</LatitudeDegrees>
              <LongitudeDegrees>-2.09740673191845417022705078125</LongitudeDegrees>
            </Position>
            <AltitudeMeters>1153.4000244140625</AltitudeMeters>
            <DistanceMeters>55634.267983602</DistanceMeters>
          </Trackpoint>
          <Trackpoint>
            <Time>2021-08-28T07:59:04.000Z</Time>
            <Position>
              <LatitudeDegrees>38.17724958993494510650634765625</LatitudeDegrees>
              <LongitudeDegrees>-2.0973367430269718170166015625</LongitudeDegrees>
            </Position>
            <AltitudeMeters>1154.4000244140625</AltitudeMeters>
            <DistanceMeters>55656.985927811</DistanceMeters>
          </Trackpoint>
          <Trackpoint>
            <Time>2021-08-28T07:59:06.000Z</Time>
            <Position>
              <LatitudeDegrees>38.17715235985815525054931640625</LatitudeDegrees>
              <LongitudeDegrees>-2.09730547852814197540283203125</LongitudeDegrees>
            </Position>
            <AltitudeMeters>1155</AltitudeMeters>
            <DistanceMeters>55668.148230207</DistanceMeters>
          </Trackpoint>
          <Trackpoint>
            <Time>2021-08-28T07:59:08.000Z</Time>
            <Position>
              <LatitudeDegrees>38.17705638706684112548828125</LatitudeDegrees>
              <LongitudeDegrees>-2.09727245382964611053466796875</LongitudeDegrees>
            </Position>
            <AltitudeMeters>1155.5999755859375</AltitudeMeters>
            <DistanceMeters>55679.213845263</DistanceMeters>
          </Trackpoint>
          <Trackpoint>
            <Time>2021-08-28T07:59:15.000Z</Time>
            <Position>
              <LatitudeDegrees>38.1767018325626850128173828125</LatitudeDegrees>
              <LongitudeDegrees>-2.09716566838324069976806640625</LongitudeDegrees>
            </Position>
            <AltitudeMeters>1156.5999755859375</AltitudeMeters>
            <DistanceMeters>55719.767435021</DistanceMeters>
          </Trackpoint>
          <Trackpoint>
            <Time>2021-08-28T07:59:19.000Z</Time>
            <Position>
              <LatitudeDegrees>38.17649572156369686126708984375</LatitudeDegrees>
              <LongitudeDegrees>-2.09710649214684963226318359375</LongitudeDegrees>
            </Position>
            <AltitudeMeters>1157</AltitudeMeters>
            <DistanceMeters>55743.285154981</DistanceMeters>
          </Trackpoint>
          <Trackpoint>
            <Time>2021-08-28T07:59:23.000Z</Time>
            <Position>
              <LatitudeDegrees>38.17627896554768085479736328125</LatitudeDegrees>
              <LongitudeDegrees>-2.09704346023499965667724609375</LongitudeDegrees>
            </Position>
            <AltitudeMeters>1157.199951171875</AltitudeMeters>
            <DistanceMeters>55768.033001448</DistanceMeters>
          </Trackpoint>
          <Trackpoint>
            <Time>2021-08-28T07:59:25.000Z</Time>
            <Position>
              <LatitudeDegrees>38.17616715095937252044677734375</LatitudeDegrees>
              <LongitudeDegrees>-2.0970115251839160919189453125</LongitudeDegrees>
            </Position>
            <AltitudeMeters>1157.800048828125</AltitudeMeters>
            <DistanceMeters>55780.787838069</DistanceMeters>
          </Trackpoint>
          <Trackpoint>
            <Time>2021-08-28T07:59:32.000Z</Time>
            <Position>
              <LatitudeDegrees>38.17582265473902225494384765625</LatitudeDegrees>
              <LongitudeDegrees>-2.09691437892615795135498046875</LongitudeDegrees>
            </Position>
            <AltitudeMeters>1158</AltitudeMeters>
            <DistanceMeters>55820.061816955</DistanceMeters>
          </Trackpoint>
          <Trackpoint>
            <Time>2021-08-28T07:59:39.000Z</Time>
            <Position>
              <LatitudeDegrees>38.17533097229897975921630859375</LatitudeDegrees>
              <LongitudeDegrees>-2.0967634208500385284423828125</LongitudeDegrees>
            </Position>
            <AltitudeMeters>1158.4000244140625</AltitudeMeters>
            <DistanceMeters>55876.358468896</DistanceMeters>
          </Trackpoint>
          <Trackpoint>
            <Time>2021-08-28T07:59:48.000Z</Time>
            <Position>
              <LatitudeDegrees>38.1747790239751338958740234375</LatitudeDegrees>
              <LongitudeDegrees>-2.096603997051715850830078125</LongitudeDegrees>
            </Position>
            <AltitudeMeters>1158.800048828125</AltitudeMeters>
            <DistanceMeters>55939.355232115</DistanceMeters>
          </Trackpoint>
          <Trackpoint>
            <Time>2021-08-28T07:59:56.000Z</Time>
            <Position>
              <LatitudeDegrees>38.17431927658617496490478515625</LatitudeDegrees>
              <LongitudeDegrees>-2.096467874944210052490234375</LongitudeDegrees>
            </Position>
            <AltitudeMeters>1159</AltitudeMeters>
            <DistanceMeters>55991.893920407</DistanceMeters>
          </Trackpoint>
          <Trackpoint>
            <Time>2021-08-28T08:00:00.000Z</Time>
            <Position>
              <LatitudeDegrees>38.174092881381511688232421875</LatitudeDegrees>
              <LongitudeDegrees>-2.09639922715723514556884765625</LongitudeDegrees>
            </Position>
            <AltitudeMeters>1160</AltitudeMeters>
            <DistanceMeters>56017.798070278</DistanceMeters>
          </Trackpoint>
          <Trackpoint>
            <Time>2021-08-28T08:00:05.000Z</Time>
            <Position>
              <LatitudeDegrees>38.17382457666099071502685546875</LatitudeDegrees>
              <LongitudeDegrees>-2.09631926380097866058349609375</LongitudeDegrees>
            </Position>
            <AltitudeMeters>1160.5999755859375</AltitudeMeters>
            <DistanceMeters>56048.469626056</DistanceMeters>
          </Trackpoint>
          <Trackpoint>
            <Time>2021-08-28T08:00:06.000Z</Time>
            <Position>
              <LatitudeDegrees>38.17377394996583461761474609375</LatitudeDegrees>
              <LongitudeDegrees>-2.09630333818495273590087890625</LongitudeDegrees>
            </Position>
            <AltitudeMeters>1161.199951171875</AltitudeMeters>
            <DistanceMeters>56054.273261566</DistanceMeters>
          </Trackpoint>
          <Trackpoint>
            <Time>2021-08-28T08:00:13.000Z</Time>
            <Position>
              <LatitudeDegrees>38.1734308786690235137939453125</LatitudeDegrees>
              <LongitudeDegrees>-2.0962128974497318267822265625</LongitudeDegrees>
            </Position>
            <AltitudeMeters>1162.199951171875</AltitudeMeters>
            <DistanceMeters>56093.269196397</DistanceMeters>
          </Trackpoint>
          <Trackpoint>
            <Time>2021-08-28T08:00:17.000Z</Time>
            <Position>
              <LatitudeDegrees>38.1732488237321376800537109375</LatitudeDegrees>
              <LongitudeDegrees>-2.0961632765829563140869140625</LongitudeDegrees>
            </Position>
            <AltitudeMeters>1163.4000244140625</AltitudeMeters>
            <DistanceMeters>56113.99221127</DistanceMeters>
          </Trackpoint>
          <Trackpoint>
            <Time>2021-08-28T08:00:20.000Z</Time>
            <Position>
              <LatitudeDegrees>38.1731167249381542205810546875</LatitudeDegrees>
              <LongitudeDegrees>-2.09612396545708179473876953125</LongitudeDegrees>
            </Position>
            <AltitudeMeters>1164</AltitudeMeters>
            <DistanceMeters>56129.091893391</DistanceMeters>
          </Trackpoint>
          <Trackpoint>
            <Time>2021-08-28T08:00:21.000Z</Time>
            <Position>
              <LatitudeDegrees>38.17307322286069393157958984375</LatitudeDegrees>
              <LongitudeDegrees>-2.09611139260232448577880859375</LongitudeDegrees>
            </Position>
            <AltitudeMeters>1164.199951171875</AltitudeMeters>
            <DistanceMeters>56134.056982382</DistanceMeters>
          </Trackpoint>
          <Trackpoint>
            <Time>2021-08-28T08:00:23.000Z</Time>
            <Position>
              <LatitudeDegrees>38.17298705689609050750732421875</LatitudeDegrees>
              <LongitudeDegrees>-2.09608121775090694427490234375</LongitudeDegrees>
            </Position>
            <AltitudeMeters>1164.5999755859375</AltitudeMeters>
            <DistanceMeters>56144.003969242</DistanceMeters>
          </Trackpoint>
          <Trackpoint>
            <Time>2021-08-28T08:00:28.000Z</Time>
            <Position>
              <LatitudeDegrees>38.17277248017489910125732421875</LatitudeDegrees>
              <LongitudeDegrees>-2.09601097740232944488525390625</LongitudeDegrees>
            </Position>
            <AltitudeMeters>1165.800048828125</AltitudeMeters>
            <DistanceMeters>56168.664820573</DistanceMeters>
          </Trackpoint>
          <Trackpoint>
            <Time>2021-08-28T08:00:31.000Z</Time>
            <Position>
              <LatitudeDegrees>38.1726466678082942962646484375</LatitudeDegrees>
              <LongitudeDegrees>-2.09597309119999408721923828125</LongitudeDegrees>
            </Position>
            <AltitudeMeters>1166.800048828125</AltitudeMeters>
            <DistanceMeters>56183.055329358</DistanceMeters>
          </Trackpoint>
          <Trackpoint>
            <Time>2021-08-28T08:00:32.000Z</Time>
            <Position>
              <LatitudeDegrees>38.1726037524640560150146484375</LatitudeDegrees>
              <LongitudeDegrees>-2.095963619649410247802734375</LongitudeDegrees>
            </Position>
            <AltitudeMeters>1167</AltitudeMeters>
            <DistanceMeters>56187.902623335</DistanceMeters>
          </Trackpoint>
          <Trackpoint>
            <Time>2021-08-28T08:00:35.000Z</Time>
            <Position>
              <LatitudeDegrees>38.17247425206005573272705078125</LatitudeDegrees>
              <LongitudeDegrees>-2.0959259010851383209228515625</LongitudeDegrees>
            </Position>
            <AltitudeMeters>1167.5999755859375</AltitudeMeters>
            <DistanceMeters>56202.689280866</DistanceMeters>
          </Trackpoint>
          <Trackpoint>
            <Time>2021-08-28T08:00:37.000Z</Time>
            <Position>
              <LatitudeDegrees>38.17238867282867431640625</LatitudeDegrees>
              <LongitudeDegrees>-2.09589849226176738739013671875</LongitudeDegrees>
            </Position>
            <AltitudeMeters>1168.199951171875</AltitudeMeters>
            <DistanceMeters>56212.511568621</DistanceMeters>
          </Trackpoint>
          <Trackpoint>
            <Time>2021-08-28T08:00:42.000Z</Time>
            <Position>
              <LatitudeDegrees>38.17217149771749973297119140625</LatitudeDegrees>
              <LongitudeDegrees>-2.0958306826651096343994140625</LongitudeDegrees>
            </Position>
            <AltitudeMeters>1169.4000244140625</AltitudeMeters>
            <DistanceMeters>56237.401312781</DistanceMeters>
          </Trackpoint>
          <Trackpoint>
            <Time>2021-08-28T08:00:47.000Z</Time>
            <Position>
              <LatitudeDegrees>38.171959184110164642333984375</LatitudeDegrees>
              <LongitudeDegrees>-2.0957636274397373199462890625</LongitudeDegrees>
            </Position>
            <AltitudeMeters>1170.4000244140625</AltitudeMeters>
            <DistanceMeters>56261.749857065</DistanceMeters>
          </Trackpoint>
          <Trackpoint>
            <Time>2021-08-28T08:00:51.000Z</Time>
            <Position>
              <LatitudeDegrees>38.1717920489609241485595703125</LatitudeDegrees>
              <LongitudeDegrees>-2.09571861661970615386962890625</LongitudeDegrees>
            </Position>
            <AltitudeMeters>1171.4000244140625</AltitudeMeters>
            <DistanceMeters>56280.764700236</DistanceMeters>
          </Trackpoint>
          <Trackpoint>
            <Time>2021-08-28T08:00:52.000Z</Time>
            <Position>
              <LatitudeDegrees>38.17174938507378101348876953125</LatitudeDegrees>
              <LongitudeDegrees>-2.09570637904107570648193359375</LongitudeDegrees>
            </Position>
            <AltitudeMeters>1171.5999755859375</AltitudeMeters>
            <DistanceMeters>56285.6324431</DistanceMeters>
          </Trackpoint>
          <Trackpoint>
            <Time>2021-08-28T08:00:58.000Z</Time>
            <Position>
              <LatitudeDegrees>38.1714943237602710723876953125</LatitudeDegrees>
              <LongitudeDegrees>-2.09563395939767360687255859375</LongitudeDegrees>
            </Position>
            <AltitudeMeters>1172.800048828125</AltitudeMeters>
            <DistanceMeters>56314.71993255</DistanceMeters>
          </Trackpoint>
          <Trackpoint>
            <Time>2021-08-28T08:01:02.000Z</Time>
            <Position>
              <LatitudeDegrees>38.171329200267791748046875</LatitudeDegrees>
              <LongitudeDegrees>-2.0955855958163738250732421875</LongitudeDegrees>
            </Position>
            <AltitudeMeters>1173.4000244140625</AltitudeMeters>
            <DistanceMeters>56333.579324136</DistanceMeters>
          </Trackpoint>
          <Trackpoint>
            <Time>2021-08-28T08:01:05.000Z</Time>
            <Position>
              <LatitudeDegrees>38.171200789511203765869140625</LatitudeDegrees>
              <LongitudeDegrees>-2.09554829634726047515869140625</LongitudeDegrees>
            </Position>
            <AltitudeMeters>1173.800048828125</AltitudeMeters>
            <DistanceMeters>56348.239947571</DistanceMeters>
          </Trackpoint>
          <Trackpoint>
            <Time>2021-08-28T08:01:08.000Z</Time>
            <Position>
              <LatitudeDegrees>38.17111286334693431854248046875</LatitudeDegrees>
              <LongitudeDegrees>-2.09552600048482418060302734375</LongitudeDegrees>
            </Position>
            <AltitudeMeters>1174.800048828125</AltitudeMeters>
            <DistanceMeters>56358.219110012</DistanceMeters>
          </Trackpoint>
          <Trackpoint>
            <Time>2021-08-28T08:01:12.000Z</Time>
            <Position>
              <LatitudeDegrees>38.17093818448483943939208984375</LatitudeDegrees>
              <LongitudeDegrees>-2.0954742841422557830810546875</LongitudeDegrees>
            </Position>
            <AltitudeMeters>1175.4000244140625</AltitudeMeters>
            <DistanceMeters>56378.180827955</DistanceMeters>
          </Trackpoint>
          <Trackpoint>
            <Time>2021-08-28T08:01:15.000Z</Time>
            <Position>
              <LatitudeDegrees>38.17080692388117313385009765625</LatitudeDegrees>
              <LongitudeDegrees>-2.09543631412088871002197265625</LongitudeDegrees>
            </Position>
            <AltitudeMeters>1175.800048828125</AltitudeMeters>
            <DistanceMeters>56393.16374157</DistanceMeters>
          </Trackpoint>
          <Trackpoint>
            <Time>2021-08-28T08:01:21.000Z</Time>
            <Position>
              <LatitudeDegrees>38.1704968772828578948974609375</LatitudeDegrees>
              <LongitudeDegrees>-2.09534696303308010101318359375</LongitudeDegrees>
            </Position>
            <AltitudeMeters>1176.800048828125</AltitudeMeters>
            <DistanceMeters>56428.547382406</DistanceMeters>
          </Trackpoint>
          <Trackpoint>
            <Time>2021-08-28T08:01:22.000Z</Time>
            <Position>
              <LatitudeDegrees>38.17045320756733417510986328125</LatitudeDegrees>
              <LongitudeDegrees>-2.09533271379768848419189453125</LongitudeDegrees>
            </Position>
            <AltitudeMeters>1177</AltitudeMeters>
            <DistanceMeters>56433.564936903</DistanceMeters>
          </Trackpoint>
          <Trackpoint>
            <Time>2021-08-28T08:01:26.000Z</Time>
            <Position>
              <LatitudeDegrees>38.1702786125242710113525390625</LatitudeDegrees>
              <LongitudeDegrees>-2.09528007544577121734619140625</LongitudeDegrees>
            </Position>
            <AltitudeMeters>1178</AltitudeMeters>
            <DistanceMeters>56453.535926272</DistanceMeters>
          </Trackpoint>
          <Trackpoint>
            <Time>2021-08-28T08:01:32.000Z</Time>
            <Position>
              <LatitudeDegrees>38.17006361670792102813720703125</LatitudeDegrees>
              <LongitudeDegrees>-2.09522441960871219635009765625</LongitudeDegrees>
            </Position>
            <AltitudeMeters>1179</AltitudeMeters>
            <DistanceMeters>56477.955758135</DistanceMeters>
          </Trackpoint>
          <Trackpoint>
            <Time>2021-08-28T08:01:34.000Z</Time>
            <Position>
              <LatitudeDegrees>38.16997778601944446563720703125</LatitudeDegrees>
              <LongitudeDegrees>-2.0952008664608001708984375</LongitudeDegrees>
            </Position>
            <AltitudeMeters>1179.4000244140625</AltitudeMeters>
            <DistanceMeters>56487.728275132</DistanceMeters>
          </Trackpoint>
          <Trackpoint>
            <Time>2021-08-28T08:01:39.000Z</Time>
            <Position>
              <LatitudeDegrees>38.169715516269207000732421875</LatitudeDegrees>
              <LongitudeDegrees>-2.0951118506491184234619140625</LongitudeDegrees>
            </Position>
            <AltitudeMeters>1180.5999755859375</AltitudeMeters>
            <DistanceMeters>56517.940793188</DistanceMeters>
          </Trackpoint>
          <Trackpoint>
            <Time>2021-08-28T08:01:41.000Z</Time>
            <Position>
              <LatitudeDegrees>38.169670589268207550048828125</LatitudeDegrees>
              <LongitudeDegrees>-2.09510053507983684539794921875</LongitudeDegrees>
            </Position>
            <AltitudeMeters>1181.199951171875</AltitudeMeters>
            <DistanceMeters>56523.038690794</DistanceMeters>
          </Trackpoint>
          <Trackpoint>
            <Time>2021-08-28T08:01:43.000Z</Time>
            <Position>
              <LatitudeDegrees>38.1695809029042720794677734375</LatitudeDegrees>
              <LongitudeDegrees>-2.0950783230364322662353515625</LongitudeDegrees>
            </Position>
            <AltitudeMeters>1181.5999755859375</AltitudeMeters>
            <DistanceMeters>56533.20876924</DistanceMeters>
          </Trackpoint>
          <Trackpoint>
            <Time>2021-08-28T08:01:48.000Z</Time>
            <Position>
              <LatitudeDegrees>38.16935501061379909515380859375</LatitudeDegrees>
              <LongitudeDegrees>-2.09501051343977451324462890625</LongitudeDegrees>
            </Position>
            <AltitudeMeters>1182.800048828125</AltitudeMeters>
            <DistanceMeters>56559.041707698</DistanceMeters>
          </Trackpoint>
          <Trackpoint>
            <Time>2021-08-28T08:01:49.000Z</Time>
            <Position>
              <LatitudeDegrees>38.1693136878311634063720703125</LatitudeDegrees>
              <LongitudeDegrees>-2.09499676711857318878173828125</LongitudeDegrees>
            </Position>
            <AltitudeMeters>1183</AltitudeMeters>
            <DistanceMeters>56563.795893363</DistanceMeters>
          </Trackpoint>
          <Trackpoint>
            <Time>2021-08-28T08:01:51.000Z</Time>
            <Position>
              <LatitudeDegrees>38.16918301396071910858154296875</LatitudeDegrees>
              <LongitudeDegrees>-2.0949643291532993316650390625</LongitudeDegrees>
            </Position>
            <AltitudeMeters>1184</AltitudeMeters>
            <DistanceMeters>56578.61457748</DistanceMeters>
          </Trackpoint>
          <Trackpoint>
            <Time>2021-08-28T08:01:56.000Z</Time>
            <Position>
              <LatitudeDegrees>38.16899366676807403564453125</LatitudeDegrees>
              <LongitudeDegrees>-2.09492300637066364288330078125</LongitudeDegrees>
            </Position>
            <AltitudeMeters>1185.199951171875</AltitudeMeters>
            <DistanceMeters>56599.997066356</DistanceMeters>
          </Trackpoint>
          <Trackpoint>
            <Time>2021-08-28T08:01:57.000Z</Time>
            <Position>
              <LatitudeDegrees>38.1689462251961231231689453125</LatitudeDegrees>
              <LongitudeDegrees>-2.0949120260775089263916015625</LongitudeDegrees>
            </Position>
            <AltitudeMeters>1185.199951171875</AltitudeMeters>
            <DistanceMeters>56605.364183259</DistanceMeters>
          </Trackpoint>
          <Trackpoint>
            <Time>2021-08-28T08:02:01.000Z</Time>
            <Position>
              <LatitudeDegrees>38.16875972785055637359619140625</LatitudeDegrees>
              <LongitudeDegrees>-2.0948731340467929840087890625</LongitudeDegrees>
            </Position>
            <AltitudeMeters>1186.199951171875</AltitudeMeters>
            <DistanceMeters>56626.398813886</DistanceMeters>
          </Trackpoint>
          <Trackpoint>
            <Time>2021-08-28T08:02:07.000Z</Time>
            <Position>
              <LatitudeDegrees>38.16847675479948520660400390625</LatitudeDegrees>
              <LongitudeDegrees>-2.09481605328619480133056640625</LongitudeDegrees>
            </Position>
            <AltitudeMeters>1186.800048828125</AltitudeMeters>
            <DistanceMeters>56658.287887699</DistanceMeters>
          </Trackpoint>
          <Trackpoint>
            <Time>2021-08-28T08:02:09.000Z</Time>
            <Position>
              <LatitudeDegrees>38.168381117284297943115234375</LatitudeDegrees>
              <LongitudeDegrees>-2.09480247460305690765380859375</LongitudeDegrees>
            </Position>
            <AltitudeMeters>1187.199951171875</AltitudeMeters>
            <DistanceMeters>56668.99854086</DistanceMeters>
          </Trackpoint>
          <Trackpoint>
            <Time>2021-08-28T08:02:15.000Z</Time>
            <Position>
              <LatitudeDegrees>38.1680299155414104461669921875</LatitudeDegrees>
              <LongitudeDegrees>-2.094755284488201141357421875</LongitudeDegrees>
            </Position>
            <AltitudeMeters>1187.5999755859375</AltitudeMeters>
            <DistanceMeters>56708.305385295</DistanceMeters>
          </Trackpoint>
          <Trackpoint>
            <Time>2021-08-28T08:02:20.000Z</Time>
            <Position>
              <LatitudeDegrees>38.16782615147531032562255859375</LatitudeDegrees>
              <LongitudeDegrees>-2.09473139606416225433349609375</LongitudeDegrees>
            </Position>
            <AltitudeMeters>1188.5999755859375</AltitudeMeters>
            <DistanceMeters>56731.080693881</DistanceMeters>
          </Trackpoint>
          <Trackpoint>
            <Time>2021-08-28T08:02:25.000Z</Time>
            <Position>
              <LatitudeDegrees>38.16756865940988063812255859375</LatitudeDegrees>
              <LongitudeDegrees>-2.09470172412693500518798828125</LongitudeDegrees>
            </Position>
            <AltitudeMeters>1189.199951171875</AltitudeMeters>
            <DistanceMeters>56759.857475499</DistanceMeters>
          </Trackpoint>
          <Trackpoint>
            <Time>2021-08-28T08:02:35.000Z</Time>
            <Position>
              <LatitudeDegrees>38.16705283708870410919189453125</LatitudeDegrees>
              <LongitudeDegrees>-2.0946092717349529266357421875</LongitudeDegrees>
            </Position>
            <AltitudeMeters>1189.800048828125</AltitudeMeters>
            <DistanceMeters>56817.836699687</DistanceMeters>
          </Trackpoint>
          <Trackpoint>
            <Time>2021-08-28T08:02:40.000Z</Time>
            <Position>
              <LatitudeDegrees>38.1668034754693508148193359375</LatitudeDegrees>
              <LongitudeDegrees>-2.09453894756734371185302734375</LongitudeDegrees>
            </Position>
            <AltitudeMeters>1190.800048828125</AltitudeMeters>
            <DistanceMeters>56846.265255959</DistanceMeters>
          </Trackpoint>
          <Trackpoint>
            <Time>2021-08-28T08:02:44.000Z</Time>
            <Position>
              <LatitudeDegrees>38.16659887321293354034423828125</LatitudeDegrees>
              <LongitudeDegrees>-2.0944684557616710662841796875</LongitudeDegrees>
            </Position>
            <AltitudeMeters>1191</AltitudeMeters>
            <DistanceMeters>56869.858687933</DistanceMeters>
          </Trackpoint>
          <Trackpoint>
            <Time>2021-08-28T08:02:50.000Z</Time>
            <Position>
              <LatitudeDegrees>38.16625152714550495147705078125</LatitudeDegrees>
              <LongitudeDegrees>-2.09432571195065975189208984375</LongitudeDegrees>
            </Position>
            <AltitudeMeters>1191.800048828125</AltitudeMeters>
            <DistanceMeters>56910.486803733</DistanceMeters>
          </Trackpoint>
          <Trackpoint>
            <Time>2021-08-28T08:02:54.000Z</Time>
            <Position>
              <LatitudeDegrees>38.16606192849576473236083984375</LatitudeDegrees>
              <LongitudeDegrees>-2.09423233754932880401611328125</LongitudeDegrees>
            </Position>
            <AltitudeMeters>1192.5999755859375</AltitudeMeters>
            <DistanceMeters>56933.11633389</DistanceMeters>
          </Trackpoint>
          <Trackpoint>
            <Time>2021-08-28T08:02:56.000Z</Time>
            <Position>
              <LatitudeDegrees>38.16597140394151210784912109375</LatitudeDegrees>
              <LongitudeDegrees>-2.09418187849223613739013671875</LongitudeDegrees>
            </Position>
            <AltitudeMeters>1193</AltitudeMeters>
            <DistanceMeters>56944.11647136</DistanceMeters>
          </Trackpoint>
          <Trackpoint>
            <Time>2021-08-28T08:03:01.000Z</Time>
            <Position>
              <LatitudeDegrees>38.1657597608864307403564453125</LatitudeDegrees>
              <LongitudeDegrees>-2.094033099710941314697265625</LongitudeDegrees>
            </Position>
            <AltitudeMeters>1194</AltitudeMeters>
            <DistanceMeters>56971.031351863</DistanceMeters>
          </Trackpoint>
          <Trackpoint>
            <Time>2021-08-28T08:03:02.000Z</Time>
            <Position>
              <LatitudeDegrees>38.1657201983034610748291015625</LatitudeDegrees>
              <LongitudeDegrees>-2.09400066174566745758056640625</LongitudeDegrees>
            </Position>
            <AltitudeMeters>1194.800048828125</AltitudeMeters>
            <DistanceMeters>56976.271624992</DistanceMeters>
          </Trackpoint>
          <Trackpoint>
            <Time>2021-08-28T08:03:03.000Z</Time>
            <Position>
              <LatitudeDegrees>38.165682815015316009521484375</LatitudeDegrees>
              <LongitudeDegrees>-2.09396730177104473114013671875</LongitudeDegrees>
            </Position>
            <AltitudeMeters>1195.199951171875</AltitudeMeters>
            <DistanceMeters>56981.355332181</DistanceMeters>
          </Trackpoint>
          <Trackpoint>
            <Time>2021-08-28T08:03:09.000Z</Time>
            <Position>
              <LatitudeDegrees>38.16547636874020099639892578125</LatitudeDegrees>
              <LongitudeDegrees>-2.093751467764377593994140625</LongitudeDegrees>
            </Position>
            <AltitudeMeters>1196.199951171875</AltitudeMeters>
            <DistanceMeters>57011.099452768</DistanceMeters>
          </Trackpoint>
          <Trackpoint>
            <Time>2021-08-28T08:03:11.000Z</Time>
            <Position>
              <LatitudeDegrees>38.16541668958961963653564453125</LatitudeDegrees>
              <LongitudeDegrees>-2.09367862902581691741943359375</LongitudeDegrees>
            </Position>
            <AltitudeMeters>1197</AltitudeMeters>
            <DistanceMeters>57020.305771115</DistanceMeters>
          </Trackpoint>
          <Trackpoint>
            <Time>2021-08-28T08:03:12.000Z</Time>
            <Position>
              <LatitudeDegrees>38.1653852574527263641357421875</LatitudeDegrees>
              <LongitudeDegrees>-2.093643844127655029296875</LongitudeDegrees>
            </Position>
            <AltitudeMeters>1197</AltitudeMeters>
            <DistanceMeters>57024.943619979</DistanceMeters>
          </Trackpoint>
          <Trackpoint>
            <Time>2021-08-28T08:03:14.000Z</Time>
            <Position>
              <LatitudeDegrees>38.16532800905406475067138671875</LatitudeDegrees>
              <LongitudeDegrees>-2.093569748103618621826171875</LongitudeDegrees>
            </Position>
            <AltitudeMeters>1197.4000244140625</AltitudeMeters>
            <DistanceMeters>57034.034453803</DistanceMeters>
          </Trackpoint>
          <Trackpoint>
            <Time>2021-08-28T08:03:16.000Z</Time>
            <Position>
              <LatitudeDegrees>38.16527000628411769866943359375</LatitudeDegrees>
              <LongitudeDegrees>-2.09349389187991619110107421875</LongitudeDegrees>
            </Position>
            <AltitudeMeters>1198</AltitudeMeters>
            <DistanceMeters>57043.294562113</DistanceMeters>
          </Trackpoint>
          <Trackpoint>
            <Time>2021-08-28T08:03:18.000Z</Time>
            <Position>
              <LatitudeDegrees>38.16523857414722442626953125</LatitudeDegrees>
              <LongitudeDegrees>-2.0934606157243251800537109375</LongitudeDegrees>
            </Position>
            <AltitudeMeters>1198.5999755859375</AltitudeMeters>
            <DistanceMeters>57047.845935023</DistanceMeters>
          </Trackpoint>
          <Trackpoint>
            <Time>2021-08-28T08:03:26.000Z</Time>
            <Position>
              <LatitudeDegrees>38.16498644649982452392578125</LatitudeDegrees>
              <LongitudeDegrees>-2.09318845532834529876708984375</LongitudeDegrees>
            </Position>
            <AltitudeMeters>1199.5999755859375</AltitudeMeters>
            <DistanceMeters>57084.65256742</DistanceMeters>
          </Trackpoint>
          <Trackpoint>
            <Time>2021-08-28T08:03:27.000Z</Time>
            <Position>
              <LatitudeDegrees>38.16496741957962512969970703125</LatitudeDegrees>
              <LongitudeDegrees>-2.09315425716340541839599609375</LongitudeDegrees>
            </Position>
            <AltitudeMeters>1199.800048828125</AltitudeMeters>
            <DistanceMeters>57088.318185206</DistanceMeters>
          </Trackpoint>
          <Trackpoint>
            <Time>2021-08-28T08:03:32.000Z</Time>
            <Position>
              <LatitudeDegrees>38.164896257221698760986328125</LatitudeDegrees>
              <LongitudeDegrees>-2.093041352927684783935546875</LongitudeDegrees>
            </Position>
            <AltitudeMeters>1200.199951171875</AltitudeMeters>
            <DistanceMeters>57100.981007459</DistanceMeters>
          </Trackpoint>
          <Trackpoint>
            <Time>2021-08-28T08:03:36.000Z</Time>
            <Position>
              <LatitudeDegrees>38.1648820079863071441650390625</LatitudeDegrees>
              <LongitudeDegrees>-2.09302852861583232879638671875</LongitudeDegrees>
            </Position>
            <AltitudeMeters>1200.199951171875</AltitudeMeters>
            <DistanceMeters>57102.923833224</DistanceMeters>
          </Trackpoint>
          <Trackpoint>
            <Time>2021-08-28T08:06:04.000Z</Time>
            <Position>
              <LatitudeDegrees>38.16483414731919765472412109375</LatitudeDegrees>
              <LongitudeDegrees>-2.09304034709930419921875</LongitudeDegrees>
            </Position>
            <AltitudeMeters>1200.800048828125</AltitudeMeters>
            <DistanceMeters>57108.351181505</DistanceMeters>
          </Trackpoint>
          <Trackpoint>
            <Time>2021-08-28T08:06:05.000Z</Time>
            <Position>
              <LatitudeDegrees>38.16480942070484161376953125</LatitudeDegrees>
              <LongitudeDegrees>-2.09303171373903751373291015625</LongitudeDegrees>
            </Position>
            <AltitudeMeters>1200.800048828125</AltitudeMeters>
            <DistanceMeters>57111.205148735</DistanceMeters>
          </Trackpoint>
          <Trackpoint>
            <Time>2021-08-28T08:06:07.000Z</Time>
            <Position>
              <LatitudeDegrees>38.16475904546678066253662109375</LatitudeDegrees>
              <LongitudeDegrees>-2.0930069871246814727783203125</LongitudeDegrees>
            </Position>
            <AltitudeMeters>1201.199951171875</AltitudeMeters>
            <DistanceMeters>57117.215165855</DistanceMeters>
          </Trackpoint>
          <Trackpoint>
            <Time>2021-08-28T08:06:09.000Z</Time>
            <Position>
              <LatitudeDegrees>38.1646867096424102783203125</LatitudeDegrees>
              <LongitudeDegrees>-2.092974297702312469482421875</LongitudeDegrees>
            </Position>
            <AltitudeMeters>1201.5999755859375</AltitudeMeters>
            <DistanceMeters>57125.759119153</DistanceMeters>
          </Trackpoint>
          <Trackpoint>
            <Time>2021-08-28T08:06:10.000Z</Time>
            <Position>
              <LatitudeDegrees>38.1646459735929965972900390625</LatitudeDegrees>
              <LongitudeDegrees>-2.09295342676341533660888671875</LongitudeDegrees>
            </Position>
            <AltitudeMeters>1201.800048828125</AltitudeMeters>
            <DistanceMeters>57130.649072366</DistanceMeters>
          </Trackpoint>
          <Trackpoint>
            <Time>2021-08-28T08:06:15.000Z</Time>
            <Position>
              <LatitudeDegrees>38.16441773436963558197021484375</LatitudeDegrees>
              <LongitudeDegrees>-2.09283138625323772430419921875</LongitudeDegrees>
            </Position>
            <AltitudeMeters>1202.5999755859375</AltitudeMeters>
            <DistanceMeters>57158.206164169</DistanceMeters>
          </Trackpoint>
          <Trackpoint>
            <Time>2021-08-28T08:06:17.000Z</Time>
            <Position>
              <LatitudeDegrees>38.16431991755962371826171875</LatitudeDegrees>
              <LongitudeDegrees>-2.0927833579480648040771484375</LongitudeDegrees>
            </Position>
            <AltitudeMeters>1202.4000244140625</AltitudeMeters>
            <DistanceMeters>57169.876667286</DistanceMeters>
          </Trackpoint>
          <Trackpoint>
            <Time>2021-08-28T08:06:22.000Z</Time>
            <Position>
              <LatitudeDegrees>38.16407809965312480926513671875</LatitudeDegrees>
              <LongitudeDegrees>-2.0926656760275363922119140625</LongitudeDegrees>
            </Position>
            <AltitudeMeters>1202.199951171875</AltitudeMeters>
            <DistanceMeters>57198.694370356</DistanceMeters>
          </Trackpoint>
          <Trackpoint>
            <Time>2021-08-28T08:06:25.000Z</Time>
            <Position>
              <LatitudeDegrees>38.1639276444911956787109375</LatitudeDegrees>
              <LongitudeDegrees>-2.09260490722954273223876953125</LongitudeDegrees>
            </Position>
            <AltitudeMeters>1202.4000244140625</AltitudeMeters>
            <DistanceMeters>57216.264550304</DistanceMeters>
          </Trackpoint>
          <Trackpoint>
            <Time>2021-08-28T08:06:29.000Z</Time>
            <Position>
              <LatitudeDegrees>38.16373242996633052825927734375</LatitudeDegrees>
              <LongitudeDegrees>-2.092547155916690826416015625</LongitudeDegrees>
            </Position>
            <AltitudeMeters>1203</AltitudeMeters>
            <DistanceMeters>57238.572160052</DistanceMeters>
          </Trackpoint>
          <Trackpoint>
            <Time>2021-08-28T08:06:33.000Z</Time>
            <Position>
              <LatitudeDegrees>38.16354249604046344757080078125</LatitudeDegrees>
              <LongitudeDegrees>-2.09249250590801239013671875</LongitudeDegrees>
            </Position>
            <AltitudeMeters>1204</AltitudeMeters>
            <DistanceMeters>57260.246376689</DistanceMeters>
          </Trackpoint>
          <Trackpoint>
            <Time>2021-08-28T08:06:39.000Z</Time>
            <Position>
              <LatitudeDegrees>38.16325399093329906463623046875</LatitudeDegrees>
              <LongitudeDegrees>-2.09242151118814945220947265625</LongitudeDegrees>
            </Position>
            <AltitudeMeters>1205</AltitudeMeters>
            <DistanceMeters>57292.953241043</DistanceMeters>
          </Trackpoint>
          <Trackpoint>
            <Time>2021-08-28T08:06:42.000Z</Time>
            <Position>
              <LatitudeDegrees>38.16311116330325603485107421875</LatitudeDegrees>
              <LongitudeDegrees>-2.09238094277679920196533203125</LongitudeDegrees>
            </Position>
            <AltitudeMeters>1205.4000244140625</AltitudeMeters>
            <DistanceMeters>57309.241939766</DistanceMeters>
          </Trackpoint>
          <Trackpoint>
            <Time>2021-08-28T08:06:47.000Z</Time>
            <Position>
              <LatitudeDegrees>38.16288284026086330413818359375</LatitudeDegrees>
              <LongitudeDegrees>-2.09231304936110973358154296875</LongitudeDegrees>
            </Position>
            <AltitudeMeters>1206.4000244140625</AltitudeMeters>
            <DistanceMeters>57335.340054179</DistanceMeters>
          </Trackpoint>
          <Trackpoint>
            <Time>2021-08-28T08:06:49.000Z</Time>
            <Position>
              <LatitudeDegrees>38.1627898849546909332275390625</LatitudeDegrees>
              <LongitudeDegrees>-2.0922915078699588775634765625</LongitudeDegrees>
            </Position>
            <AltitudeMeters>1206.5999755859375</AltitudeMeters>
            <DistanceMeters>57345.856725529</DistanceMeters>
          </Trackpoint>
          <Trackpoint>
            <Time>2021-08-28T08:06:53.000Z</Time>
            <Position>
              <LatitudeDegrees>38.16261394880712032318115234375</LatitudeDegrees>
              <LongitudeDegrees>-2.09224800579249858856201171875</LongitudeDegrees>
            </Position>
            <AltitudeMeters>1207.199951171875</AltitudeMeters>
            <DistanceMeters>57365.80554677</DistanceMeters>
          </Trackpoint>
          <Trackpoint>
            <Time>2021-08-28T08:06:55.000Z</Time>
            <Position>
              <LatitudeDegrees>38.16252677701413631439208984375</LatitudeDegrees>
              <LongitudeDegrees>-2.0922227762639522552490234375</LongitudeDegrees>
            </Position>
            <AltitudeMeters>1207.4000244140625</AltitudeMeters>
            <DistanceMeters>57375.756164249</DistanceMeters>
          </Trackpoint>
          <Trackpoint>
            <Time>2021-08-28T08:06:59.000Z</Time>
            <Position>
              <LatitudeDegrees>38.1623396091163158416748046875</LatitudeDegrees>
              <LongitudeDegrees>-2.0921879075467586517333984375</LongitudeDegrees>
            </Position>
            <AltitudeMeters>1208</AltitudeMeters>
            <DistanceMeters>57396.810533216</DistanceMeters>
          </Trackpoint>
          <Trackpoint>
            <Time>2021-08-28T08:07:02.000Z</Time>
            <Position>
              <LatitudeDegrees>38.1621922552585601806640625</LatitudeDegrees>
              <LongitudeDegrees>-2.09216753952205181121826171875</LongitudeDegrees>
            </Position>
            <AltitudeMeters>1208.5999755859375</AltitudeMeters>
            <DistanceMeters>57413.308002841</DistanceMeters>
          </Trackpoint>
          <Trackpoint>
            <Time>2021-08-28T08:07:05.000Z</Time>
            <Position>
              <LatitudeDegrees>38.16204314120113849639892578125</LatitudeDegrees>
              <LongitudeDegrees>-2.09216971881687641143798828125</LongitudeDegrees>
            </Position>
            <AltitudeMeters>1209</AltitudeMeters>
            <DistanceMeters>57429.905609358</DistanceMeters>
          </Trackpoint>
          <Trackpoint>
            <Time>2021-08-28T08:07:07.000Z</Time>
            <Position>
              <LatitudeDegrees>38.1619401276111602783203125</LatitudeDegrees>
              <LongitudeDegrees>-2.09217860363423824310302734375</LongitudeDegrees>
            </Position>
            <AltitudeMeters>1209.4000244140625</AltitudeMeters>
            <DistanceMeters>57441.397557321</DistanceMeters>
          </Trackpoint>
          <Trackpoint>
            <Time>2021-08-28T08:07:08.000Z</Time>
            <Position>
              <LatitudeDegrees>38.161889500916004180908203125</LatitudeDegrees>
              <LongitudeDegrees>-2.0921842195093631744384765625</LongitudeDegrees>
            </Position>
            <AltitudeMeters>1209.5999755859375</AltitudeMeters>
            <DistanceMeters>57447.053842395</DistanceMeters>
          </Trackpoint>
          <Trackpoint>
            <Time>2021-08-28T08:07:14.000Z</Time>
            <Position>
              <LatitudeDegrees>38.16158113069832324981689453125</LatitudeDegrees>
              <LongitudeDegrees>-2.0922375284135341644287109375</LongitudeDegrees>
            </Position>
            <AltitudeMeters>1210.5999755859375</AltitudeMeters>
            <DistanceMeters>57481.6915686</DistanceMeters>
          </Trackpoint>
          <Trackpoint>
            <Time>2021-08-28T08:07:20.000Z</Time>
            <Position>
              <LatitudeDegrees>38.16127586178481578826904296875</LatitudeDegrees>
              <LongitudeDegrees>-2.09229695610702037811279296875</LongitudeDegrees>
            </Position>
            <AltitudeMeters>1211.800048828125</AltitudeMeters>
            <DistanceMeters>57516.06419058</DistanceMeters>
          </Trackpoint>
          <Trackpoint>
            <Time>2021-08-28T08:07:23.000Z</Time>
            <Position>
              <LatitudeDegrees>38.161125071346759796142578125</LatitudeDegrees>
              <LongitudeDegrees>-2.09232914261519908905029296875</LongitudeDegrees>
            </Position>
            <AltitudeMeters>1212.5999755859375</AltitudeMeters>
            <DistanceMeters>57533.082199033</DistanceMeters>
          </Trackpoint>
          <Trackpoint>
            <Time>2021-08-28T08:07:25.000Z</Time>
            <Position>
              <LatitudeDegrees>38.1610259972512722015380859375</LatitudeDegrees>
              <LongitudeDegrees>-2.0923562161624431610107421875</LongitudeDegrees>
            </Position>
            <AltitudeMeters>1213</AltitudeMeters>
            <DistanceMeters>57544.361193534</DistanceMeters>
          </Trackpoint>
          <Trackpoint>
            <Time>2021-08-28T08:07:29.000Z</Time>
            <Position>
              <LatitudeDegrees>38.160821311175823211669921875</LatitudeDegrees>
              <LongitudeDegrees>-2.0924051664769649505615234375</LongitudeDegrees>
            </Position>
            <AltitudeMeters>1214.199951171875</AltitudeMeters>
            <DistanceMeters>57567.542453618</DistanceMeters>
          </Trackpoint>
          <Trackpoint>
            <Time>2021-08-28T08:07:30.000Z</Time>
            <Position>
              <LatitudeDegrees>38.16077462397515773773193359375</LatitudeDegrees>
              <LongitudeDegrees>-2.09242276847362518310546875</LongitudeDegrees>
            </Position>
            <AltitudeMeters>1214</AltitudeMeters>
            <DistanceMeters>57572.963142574</DistanceMeters>
          </Trackpoint>
          <Trackpoint>
            <Time>2021-08-28T08:07:34.000Z</Time>
            <Position>
              <LatitudeDegrees>38.160593993961811065673828125</LatitudeDegrees>
              <LongitudeDegrees>-2.09251798689365386962890625</LongitudeDegrees>
            </Position>
            <AltitudeMeters>1214.5999755859375</AltitudeMeters>
            <DistanceMeters>57594.726334885</DistanceMeters>
          </Trackpoint>
          <Trackpoint>
            <Time>2021-08-28T08:07:37.000Z</Time>
            <Position>
              <LatitudeDegrees>38.160458542406558990478515625</LatitudeDegrees>
              <LongitudeDegrees>-2.0926058292388916015625</LongitudeDegrees>
            </Position>
            <AltitudeMeters>1214.5999755859375</AltitudeMeters>
            <DistanceMeters>57611.649096017</DistanceMeters>
          </Trackpoint>
          <Trackpoint>
            <Time>2021-08-28T08:07:39.000Z</Time>
            <Position>
              <LatitudeDegrees>38.16036692820489406585693359375</LatitudeDegrees>
              <LongitudeDegrees>-2.092657126486301422119140625</LongitudeDegrees>
            </Position>
            <AltitudeMeters>1215.4000244140625</AltitudeMeters>
            <DistanceMeters>57622.790345085</DistanceMeters>
          </Trackpoint>
          <Trackpoint>
            <Time>2021-08-28T08:07:45.000Z</Time>
            <Position>
              <LatitudeDegrees>38.16008764319121837615966796875</LatitudeDegrees>
              <LongitudeDegrees>-2.09279065020382404327392578125</LongitudeDegrees>
            </Position>
            <AltitudeMeters>1216.4000244140625</AltitudeMeters>
            <DistanceMeters>57655.999156806</DistanceMeters>
          </Trackpoint>
          <Trackpoint>
            <Time>2021-08-28T08:07:46.000Z</Time>
            <Position>
              <LatitudeDegrees>38.16003969870507717132568359375</LatitudeDegrees>
              <LongitudeDegrees>-2.09280632436275482177734375</LongitudeDegrees>
            </Position>
            <AltitudeMeters>1216.5999755859375</AltitudeMeters>
            <DistanceMeters>57661.509067605</DistanceMeters>
          </Trackpoint>
          <Trackpoint>
            <Time>2021-08-28T08:07:47.000Z</Time>
            <Position>
              <LatitudeDegrees>38.15999359823763370513916015625</LatitudeDegrees>
              <LongitudeDegrees>-2.0928165502846240997314453125</LongitudeDegrees>
            </Position>
            <AltitudeMeters>1216.800048828125</AltitudeMeters>
            <DistanceMeters>57666.717363836</DistanceMeters>
          </Trackpoint>
          <Trackpoint>
            <Time>2021-08-28T08:07:51.000Z</Time>
            <Position>
              <LatitudeDegrees>38.15979209728538990020751953125</LatitudeDegrees>
              <LongitudeDegrees>-2.092836163938045501708984375</LongitudeDegrees>
            </Position>
            <AltitudeMeters>1217.5999755859375</AltitudeMeters>
            <DistanceMeters>57689.210209208</DistanceMeters>
          </Trackpoint>
          <Trackpoint>
            <Time>2021-08-28T08:07:52.000Z</Time>
            <Position>
              <LatitudeDegrees>38.1597380340099334716796875</LatitudeDegrees>
              <LongitudeDegrees>-2.0928313024342060089111328125</LongitudeDegrees>
            </Position>
            <AltitudeMeters>1217.800048828125</AltitudeMeters>
            <DistanceMeters>57695.241973295</DistanceMeters>
          </Trackpoint>
          <Trackpoint>
            <Time>2021-08-28T08:07:58.000Z</Time>
            <Position>
              <LatitudeDegrees>38.15942161716520786285400390625</LatitudeDegrees>
              <LongitudeDegrees>-2.09275561384856700897216796875</LongitudeDegrees>
            </Position>
            <AltitudeMeters>1218.199951171875</AltitudeMeters>
            <DistanceMeters>57731.077377592</DistanceMeters>
          </Trackpoint>
          <Trackpoint>
            <Time>2021-08-28T08:08:06.000Z</Time>
            <Position>
              <LatitudeDegrees>38.15895147621631622314453125</LatitudeDegrees>
              <LongitudeDegrees>-2.092628963291645050048828125</LongitudeDegrees>
            </Position>
            <AltitudeMeters>1219</AltitudeMeters>
            <DistanceMeters>57784.566023491</DistanceMeters>
          </Trackpoint>
          <Trackpoint>
            <Time>2021-08-28T08:08:07.000Z</Time>
            <Position>
              <LatitudeDegrees>38.158896826207637786865234375</LatitudeDegrees>
              <LongitudeDegrees>-2.0926123671233654022216796875</LongitudeDegrees>
            </Position>
            <AltitudeMeters>1219</AltitudeMeters>
            <DistanceMeters>57790.820485191</DistanceMeters>
          </Trackpoint>
          <Trackpoint>
            <Time>2021-08-28T08:08:12.000Z</Time>
            <Position>
              <LatitudeDegrees>38.15863388590514659881591796875</LatitudeDegrees>
              <LongitudeDegrees>-2.09253273904323577880859375</LongitudeDegrees>
            </Position>
            <AltitudeMeters>1220.4000244140625</AltitudeMeters>
            <DistanceMeters>57820.904508221</DistanceMeters>
          </Trackpoint>
          <Trackpoint>
            <Time>2021-08-28T08:08:15.000Z</Time>
            <Position>
              <LatitudeDegrees>38.15847697667777538299560546875</LatitudeDegrees>
              <LongitudeDegrees>-2.09248236380517482757568359375</LongitudeDegrees>
            </Position>
            <AltitudeMeters>1221.199951171875</AltitudeMeters>
            <DistanceMeters>57838.916520504</DistanceMeters>
          </Trackpoint>
          <Trackpoint>
            <Time>2021-08-28T08:08:17.000Z</Time>
            <Position>
              <LatitudeDegrees>38.158371448516845703125</LatitudeDegrees>
              <LongitudeDegrees>-2.0924516022205352783203125</LongitudeDegrees>
            </Position>
            <AltitudeMeters>1221.800048828125</AltitudeMeters>
            <DistanceMeters>57850.966567359</DistanceMeters>
          </Trackpoint>
          <Trackpoint>
            <Time>2021-08-28T08:08:21.000Z</Time>
            <Position>
              <LatitudeDegrees>38.158160559833049774169921875</LatitudeDegrees>
              <LongitudeDegrees>-2.0923967845737934112548828125</LongitudeDegrees>
            </Position>
            <AltitudeMeters>1223</AltitudeMeters>
            <DistanceMeters>57874.924232499</DistanceMeters>
          </Trackpoint>
          <Trackpoint>
            <Time>2021-08-28T08:08:25.000Z</Time>
            <Position>
              <LatitudeDegrees>38.1579622440040111541748046875</LatitudeDegrees>
              <LongitudeDegrees>-2.0923438109457492828369140625</LongitudeDegrees>
            </Position>
            <AltitudeMeters>1223.800048828125</AltitudeMeters>
            <DistanceMeters>57897.478618467</DistanceMeters>
          </Trackpoint>
          <Trackpoint>
            <Time>2021-08-28T08:08:27.000Z</Time>
            <Position>
              <LatitudeDegrees>38.1578671932220458984375</LatitudeDegrees>
              <LongitudeDegrees>-2.09232210181653499603271484375</LongitudeDegrees>
            </Position>
            <AltitudeMeters>1224</AltitudeMeters>
            <DistanceMeters>57908.227143855</DistanceMeters>
          </Trackpoint>
          <Trackpoint>
            <Time>2021-08-28T08:08:31.000Z</Time>
            <Position>
              <LatitudeDegrees>38.1576899997889995574951171875</LatitudeDegrees>
              <LongitudeDegrees>-2.0922871492803096771240234375</LongitudeDegrees>
            </Position>
            <AltitudeMeters>1225</AltitudeMeters>
            <DistanceMeters>57928.185016285</DistanceMeters>
          </Trackpoint>
          <Trackpoint>
            <Time>2021-08-28T08:08:32.000Z</Time>
            <Position>
              <LatitudeDegrees>38.15764926373958587646484375</LatitudeDegrees>
              <LongitudeDegrees>-2.09228119812905788421630859375</LongitudeDegrees>
            </Position>
            <AltitudeMeters>1225.4000244140625</AltitudeMeters>
            <DistanceMeters>57932.748277869</DistanceMeters>
          </Trackpoint>
          <Trackpoint>
            <Time>2021-08-28T08:08:38.000Z</Time>
            <Position>
              <LatitudeDegrees>38.15733100287616252899169921875</LatitudeDegrees>
              <LongitudeDegrees>-2.09229092113673686981201171875</LongitudeDegrees>
            </Position>
            <AltitudeMeters>1226</AltitudeMeters>
            <DistanceMeters>57968.181648702</DistanceMeters>
          </Trackpoint>
          <Trackpoint>
            <Time>2021-08-28T08:08:44.000Z</Time>
            <Position>
              <LatitudeDegrees>38.156914673745632171630859375</LatitudeDegrees>
              <LongitudeDegrees>-2.0924028195440769195556640625</LongitudeDegrees>
            </Position>
            <AltitudeMeters>1225.5999755859375</AltitudeMeters>
            <DistanceMeters>58015.543481746</DistanceMeters>
          </Trackpoint>
          <Trackpoint>
            <Time>2021-08-28T08:08:49.000Z</Time>
            <Position>
              <LatitudeDegrees>38.15649331547319889068603515625</LatitudeDegrees>
              <LongitudeDegrees>-2.09252377040684223175048828125</LongitudeDegrees>
            </Position>
            <AltitudeMeters>1225</AltitudeMeters>
            <DistanceMeters>58063.621364893</DistanceMeters>
          </Trackpoint>
          <Trackpoint>
            <Time>2021-08-28T08:08:53.000Z</Time>
            <Position>
              <LatitudeDegrees>38.15621201880276203155517578125</LatitudeDegrees>
              <LongitudeDegrees>-2.09256383590400218963623046875</LongitudeDegrees>
            </Position>
            <AltitudeMeters>1223.5999755859375</AltitudeMeters>
            <DistanceMeters>58095.126124571</DistanceMeters>
          </Trackpoint>
          <Trackpoint>
            <Time>2021-08-28T08:08:55.000Z</Time>
            <Position>
              <LatitudeDegrees>38.15601236186921596527099609375</LatitudeDegrees>
              <LongitudeDegrees>-2.092557214200496673583984375</LongitudeDegrees>
            </Position>
            <AltitudeMeters>1223</AltitudeMeters>
            <DistanceMeters>58117.355877231</DistanceMeters>
          </Trackpoint>
          <Trackpoint>
            <Time>2021-08-28T08:08:57.000Z</Time>
            <Position>
              <LatitudeDegrees>38.15580700524151325225830078125</LatitudeDegrees>
              <LongitudeDegrees>-2.0925184898078441619873046875</LongitudeDegrees>
            </Position>
            <AltitudeMeters>1222.5999755859375</AltitudeMeters>
            <DistanceMeters>58140.462419591</DistanceMeters>
          </Trackpoint>
          <Trackpoint>
            <Time>2021-08-28T08:09:00.000Z</Time>
            <Position>
              <LatitudeDegrees>38.1554909236729145050048828125</LatitudeDegrees>
              <LongitudeDegrees>-2.0924407057464122772216796875</LongitudeDegrees>
            </Position>
            <AltitudeMeters>1220.800048828125</AltitudeMeters>
            <DistanceMeters>58176.295429927</DistanceMeters>
          </Trackpoint>
          <Trackpoint>
            <Time>2021-08-28T08:09:03.000Z</Time>
            <Position>
              <LatitudeDegrees>38.15516612492501735687255859375</LatitudeDegrees>
              <LongitudeDegrees>-2.09235143847763538360595703125</LongitudeDegrees>
            </Position>
            <AltitudeMeters>1219.800048828125</AltitudeMeters>
            <DistanceMeters>58213.280725654</DistanceMeters>
          </Trackpoint>
          <Trackpoint>
            <Time>2021-08-28T08:09:06.000Z</Time>
            <Position>
              <LatitudeDegrees>38.15484224818646907806396484375</LatitudeDegrees>
              <LongitudeDegrees>-2.0922341756522655487060546875</LongitudeDegrees>
            </Position>
            <AltitudeMeters>1219.4000244140625</AltitudeMeters>
            <DistanceMeters>58250.761266368</DistanceMeters>
          </Trackpoint>
          <Trackpoint>
            <Time>2021-08-28T08:09:10.000Z</Time>
            <Position>
              <LatitudeDegrees>38.1543177925050258636474609375</LatitudeDegrees>
              <LongitudeDegrees>-2.09197592921555042266845703125</LongitudeDegrees>
            </Position>
            <AltitudeMeters>1218.199951171875</AltitudeMeters>
            <DistanceMeters>58313.357260889</DistanceMeters>
          </Trackpoint>
          <Trackpoint>
            <Time>2021-08-28T08:09:12.000Z</Time>
            <Position>
              <LatitudeDegrees>38.15411101095378398895263671875</LatitudeDegrees>
              <LongitudeDegrees>-2.091857157647609710693359375</LongitudeDegrees>
            </Position>
            <AltitudeMeters>1217.5999755859375</AltitudeMeters>
            <DistanceMeters>58338.611314207</DistanceMeters>
          </Trackpoint>
          <Trackpoint>
            <Time>2021-08-28T08:09:15.000Z</Time>
            <Position>
              <LatitudeDegrees>38.153905905783176422119140625</LatitudeDegrees>
              <LongitudeDegrees>-2.09173369221389293670654296875</LongitudeDegrees>
            </Position>
            <AltitudeMeters>1216.800048828125</AltitudeMeters>
            <DistanceMeters>58363.868227919</DistanceMeters>
          </Trackpoint>
          <Trackpoint>
            <Time>2021-08-28T08:09:18.000Z</Time>
            <Position>
              <LatitudeDegrees>38.1536137126386165618896484375</LatitudeDegrees>
              <LongitudeDegrees>-2.091503106057643890380859375</LongitudeDegrees>
            </Position>
            <AltitudeMeters>1215.800048828125</AltitudeMeters>
            <DistanceMeters>58402.143119971</DistanceMeters>
          </Trackpoint>
          <Trackpoint>
            <Time>2021-08-28T08:09:19.000Z</Time>
            <Position>
              <LatitudeDegrees>38.1535206735134124755859375</LatitudeDegrees>
              <LongitudeDegrees>-2.09141568280756473541259765625</LongitudeDegrees>
            </Position>
            <AltitudeMeters>1215.5999755859375</AltitudeMeters>
            <DistanceMeters>58415.018801446</DistanceMeters>
          </Trackpoint>
          <Trackpoint>
            <Time>2021-08-28T08:09:20.000Z</Time>
            <Position>
              <LatitudeDegrees>38.15332847647368907928466796875</LatitudeDegrees>
              <LongitudeDegrees>-2.09123999811708927154541015625</LongitudeDegrees>
            </Position>
            <AltitudeMeters>1214.800048828125</AltitudeMeters>
            <DistanceMeters>58441.363490577</DistanceMeters>
          </Trackpoint>
          <Trackpoint>
            <Time>2021-08-28T08:09:21.000Z</Time>
            <Position>
              <LatitudeDegrees>38.15332847647368907928466796875</LatitudeDegrees>
              <LongitudeDegrees>-2.09123999811708927154541015625</LongitudeDegrees>
            </Position>
            <AltitudeMeters>1214.4000244140625</AltitudeMeters>
            <DistanceMeters>NAN</DistanceMeters>
          </Trackpoint>
          <Trackpoint>
            <Time>2021-08-28T08:09:23.000Z</Time>
            <Position>
              <LatitudeDegrees>38.1530135683715343475341796875</LatitudeDegrees>
              <LongitudeDegrees>-2.09100186824798583984375</LongitudeDegrees>
            </Position>
            <AltitudeMeters>1213.4000244140625</AltitudeMeters>
            <DistanceMeters>NAN</DistanceMeters>
          </Trackpoint>
          <Trackpoint>
            <Time>2021-08-28T08:09:24.000Z</Time>
            <Position>
              <LatitudeDegrees>38.1530135683715343475341796875</LatitudeDegrees>
              <LongitudeDegrees>-2.09100186824798583984375</LongitudeDegrees>
            </Position>
            <AltitudeMeters>1212.4000244140625</AltitudeMeters>
            <DistanceMeters>NAN</DistanceMeters>
          </Trackpoint>
          <Trackpoint>
            <Time>2021-08-28T08:09:26.000Z</Time>
            <Position>
              <LatitudeDegrees>38.15266094170510768890380859375</LatitudeDegrees>
              <LongitudeDegrees>-2.090823166072368621826171875</LongitudeDegrees>
            </Position>
            <AltitudeMeters>1211.4000244140625</AltitudeMeters>
            <DistanceMeters>NAN</DistanceMeters>
          </Trackpoint>
          <Trackpoint>
            <Time>2021-08-28T08:09:27.000Z</Time>
            <Position>
              <LatitudeDegrees>38.15253672190010547637939453125</LatitudeDegrees>
              <LongitudeDegrees>-2.090775556862354278564453125</LongitudeDegrees>
            </Position>
            <AltitudeMeters>1209.800048828125</AltitudeMeters>
            <DistanceMeters>NAN</DistanceMeters>
          </Trackpoint>
          <Trackpoint>
            <Time>2021-08-28T08:09:28.000Z</Time>
            <Position>
              <LatitudeDegrees>38.15240956842899322509765625</LatitudeDegrees>
              <LongitudeDegrees>-2.09072886966168880462646484375</LongitudeDegrees>
            </Position>
            <AltitudeMeters>1208.800048828125</AltitudeMeters>
            <DistanceMeters>NAN</DistanceMeters>
          </Trackpoint>
          <Trackpoint>
            <Time>2021-08-28T08:09:29.000Z</Time>
            <Position>
              <LatitudeDegrees>38.15227922983467578887939453125</LatitudeDegrees>
              <LongitudeDegrees>-2.090681679546833038330078125</LongitudeDegrees>
            </Position>
            <AltitudeMeters>1207.4000244140625</AltitudeMeters>
            <DistanceMeters>NAN</DistanceMeters>
          </Trackpoint>
          <Trackpoint>
            <Time>2021-08-28T08:09:31.000Z</Time>
            <Position>
              <LatitudeDegrees>38.1520218215882778167724609375</LatitudeDegrees>
              <LongitudeDegrees>-2.09058436565101146697998046875</LongitudeDegrees>
            </Position>
            <AltitudeMeters>1205.800048828125</AltitudeMeters>
            <DistanceMeters>NAN</DistanceMeters>
          </Trackpoint>
          <Trackpoint>
            <Time>2021-08-28T08:09:33.000Z</Time>
            <Position>
              <LatitudeDegrees>38.151771537959575653076171875</LatitudeDegrees>
              <LongitudeDegrees>-2.0904907397925853729248046875</LongitudeDegrees>
            </Position>
            <AltitudeMeters>1204.199951171875</AltitudeMeters>
            <DistanceMeters>NAN</DistanceMeters>
          </Trackpoint>
          <Trackpoint>
            <Time>2021-08-28T08:09:35.000Z</Time>
            <Position>
              <LatitudeDegrees>38.1515313126146793365478515625</LatitudeDegrees>
              <LongitudeDegrees>-2.09039325825870037078857421875</LongitudeDegrees>
            </Position>
            <AltitudeMeters>1203.199951171875</AltitudeMeters>
            <DistanceMeters>NAN</DistanceMeters>
          </Trackpoint>
          <Trackpoint>
            <Time>2021-08-28T08:09:36.000Z</Time>
            <Position>
              <LatitudeDegrees>38.15141404978930950164794921875</LatitudeDegrees>
              <LongitudeDegrees>-2.09033777005970478057861328125</LongitudeDegrees>
            </Position>
            <AltitudeMeters>1202.800048828125</AltitudeMeters>
            <DistanceMeters>NAN</DistanceMeters>
          </Trackpoint>
          <Trackpoint>
            <Time>2021-08-28T08:09:39.000Z</Time>
            <Position>
              <LatitudeDegrees>38.15106167457997798919677734375</LatitudeDegrees>
              <LongitudeDegrees>-2.0901631750166416168212890625</LongitudeDegrees>
            </Position>
            <AltitudeMeters>1202</AltitudeMeters>
            <DistanceMeters>NAN</DistanceMeters>
          </Trackpoint>
          <Trackpoint>
            <Time>2021-08-28T08:09:40.000Z</Time>
            <Position>
              <LatitudeDegrees>38.15094416029751300811767578125</LatitudeDegrees>
              <LongitudeDegrees>-2.09010399878025054931640625</LongitudeDegrees>
            </Position>
            <AltitudeMeters>1201.5999755859375</AltitudeMeters>
            <DistanceMeters>NAN</DistanceMeters>
          </Trackpoint>
          <Trackpoint>
            <Time>2021-08-28T08:09:43.000Z</Time>
            <Position>
              <LatitudeDegrees>38.15058231353759765625</LatitudeDegrees>
              <LongitudeDegrees>-2.08991414867341518402099609375</LongitudeDegrees>
            </Position>
            <AltitudeMeters>1200.800048828125</AltitudeMeters>
            <DistanceMeters>NAN</DistanceMeters>
          </Trackpoint>
          <Trackpoint>
            <Time>2021-08-28T08:09:45.000Z</Time>
            <Position>
              <LatitudeDegrees>38.1503554992377758026123046875</LatitudeDegrees>
              <LongitudeDegrees>-2.08977920003235340118408203125</LongitudeDegrees>
            </Position>
            <AltitudeMeters>1199.800048828125</AltitudeMeters>
            <DistanceMeters>NAN</DistanceMeters>
          </Trackpoint>
          <Trackpoint>
            <Time>2021-08-28T08:09:48.000Z</Time>
            <Position>
              <LatitudeDegrees>38.15003472380340099334716796875</LatitudeDegrees>
              <LongitudeDegrees>-2.08954283036291599273681640625</LongitudeDegrees>
            </Position>
            <AltitudeMeters>1198.5999755859375</AltitudeMeters>
            <DistanceMeters>NAN</DistanceMeters>
          </Trackpoint>
          <Trackpoint>
            <Time>2021-08-28T08:09:51.000Z</Time>
            <Position>
              <LatitudeDegrees>38.1497238390147686004638671875</LatitudeDegrees>
              <LongitudeDegrees>-2.0892917923629283905029296875</LongitudeDegrees>
            </Position>
            <AltitudeMeters>1197.4000244140625</AltitudeMeters>
            <DistanceMeters>NAN</DistanceMeters>
          </Trackpoint>
          <Trackpoint>
            <Time>2021-08-28T08:09:54.000Z</Time>
            <Position>
              <LatitudeDegrees>38.14939677715301513671875</LatitudeDegrees>
              <LongitudeDegrees>-2.08903807215392589569091796875</LongitudeDegrees>
            </Position>
            <AltitudeMeters>1196.199951171875</AltitudeMeters>
            <DistanceMeters>NAN</DistanceMeters>
          </Trackpoint>
          <Trackpoint>
            <Time>2021-08-28T08:09:56.000Z</Time>
            <Position>
              <LatitudeDegrees>38.149162419140338897705078125</LatitudeDegrees>
              <LongitudeDegrees>-2.08889675326645374298095703125</LongitudeDegrees>
            </Position>
            <AltitudeMeters>1195.199951171875</AltitudeMeters>
            <DistanceMeters>NAN</DistanceMeters>
          </Trackpoint>
          <Trackpoint>
            <Time>2021-08-28T08:09:57.000Z</Time>
            <Position>
              <LatitudeDegrees>38.1490418873727321624755859375</LatitudeDegrees>
              <LongitudeDegrees>-2.08883640356361865997314453125</LongitudeDegrees>
            </Position>
            <AltitudeMeters>1194.800048828125</AltitudeMeters>
            <DistanceMeters>NAN</DistanceMeters>
          </Trackpoint>
          <Trackpoint>
            <Time>2021-08-28T08:09:59.000Z</Time>
            <Position>
              <LatitudeDegrees>38.1487994827330112457275390625</LatitudeDegrees>
              <LongitudeDegrees>-2.0887271873652935028076171875</LongitudeDegrees>
            </Position>
            <AltitudeMeters>1193.4000244140625</AltitudeMeters>
            <DistanceMeters>NAN</DistanceMeters>
          </Trackpoint>
          <Trackpoint>
            <Time>2021-08-28T08:10:01.000Z</Time>
            <Position>
              <LatitudeDegrees>38.14854542724788188934326171875</LatitudeDegrees>
              <LongitudeDegrees>-2.08861612714827060699462890625</LongitudeDegrees>
            </Position>
            <AltitudeMeters>1192.199951171875</AltitudeMeters>
            <DistanceMeters>NAN</DistanceMeters>
          </Trackpoint>
          <Trackpoint>
            <Time>2021-08-28T08:10:02.000Z</Time>
            <Position>
              <LatitudeDegrees>38.14841978251934051513671875</LatitudeDegrees>
              <LongitudeDegrees>-2.08855996839702129364013671875</LongitudeDegrees>
            </Position>
            <AltitudeMeters>1192</AltitudeMeters>
            <DistanceMeters>NAN</DistanceMeters>
          </Trackpoint>
          <Trackpoint>
            <Time>2021-08-28T08:10:06.000Z</Time>
            <Position>
              <LatitudeDegrees>38.14792751334607601165771484375</LatitudeDegrees>
              <LongitudeDegrees>-2.08833105862140655517578125</LongitudeDegrees>
            </Position>
            <AltitudeMeters>1190.800048828125</AltitudeMeters>
            <DistanceMeters>NAN</DistanceMeters>
          </Trackpoint>
          <Trackpoint>
            <Time>2021-08-28T08:10:07.000Z</Time>
            <Position>
              <LatitudeDegrees>38.14781226217746734619140625</LatitudeDegrees>
              <LongitudeDegrees>-2.088260985910892486572265625</LongitudeDegrees>
            </Position>
            <AltitudeMeters>1190.199951171875</AltitudeMeters>
            <DistanceMeters>NAN</DistanceMeters>
          </Trackpoint>
          <Trackpoint>
            <Time>2021-08-28T08:10:08.000Z</Time>
            <Position>
              <LatitudeDegrees>38.1477041356265544891357421875</LatitudeDegrees>
              <LongitudeDegrees>-2.08818462677299976348876953125</LongitudeDegrees>
            </Position>
            <AltitudeMeters>1190</AltitudeMeters>
            <DistanceMeters>NAN</DistanceMeters>
          </Trackpoint>
          <Trackpoint>
            <Time>2021-08-28T08:10:09.000Z</Time>
            <Position>
              <LatitudeDegrees>38.1477041356265544891357421875</LatitudeDegrees>
              <LongitudeDegrees>-2.08818462677299976348876953125</LongitudeDegrees>
            </Position>
            <AltitudeMeters>1189.5999755859375</AltitudeMeters>
            <DistanceMeters>NAN</DistanceMeters>
          </Trackpoint>
          <Trackpoint>
            <Time>2021-08-28T08:10:12.000Z</Time>
            <Position>
              <LatitudeDegrees>38.1472947634756565093994140625</LatitudeDegrees>
              <LongitudeDegrees>-2.087817750871181488037109375</LongitudeDegrees>
            </Position>
            <AltitudeMeters>1188.4000244140625</AltitudeMeters>
            <DistanceMeters>NAN</DistanceMeters>
          </Trackpoint>
          <Trackpoint>
            <Time>2021-08-28T08:10:13.000Z</Time>
            <Position>
              <LatitudeDegrees>38.14719275571405887603759765625</LatitudeDegrees>
              <LongitudeDegrees>-2.08772546611726284027099609375</LongitudeDegrees>
            </Position>
            <AltitudeMeters>1188.199951171875</AltitudeMeters>
            <DistanceMeters>NAN</DistanceMeters>
          </Trackpoint>
          <Trackpoint>
            <Time>2021-08-28T08:10:18.000Z</Time>
            <Position>
              <LatitudeDegrees>38.14665564335882663726806640625</LatitudeDegrees>
              <LongitudeDegrees>-2.08724870346486568450927734375</LongitudeDegrees>
            </Position>
            <AltitudeMeters>1187.199951171875</AltitudeMeters>
            <DistanceMeters>NAN</DistanceMeters>
          </Trackpoint>
          <Trackpoint>
            <Time>2021-08-28T08:10:20.000Z</Time>
            <Position>
              <LatitudeDegrees>38.14643033780157566070556640625</LatitudeDegrees>
              <LongitudeDegrees>-2.08706899546086788177490234375</LongitudeDegrees>
            </Position>
            <AltitudeMeters>1185.800048828125</AltitudeMeters>
            <DistanceMeters>NAN</DistanceMeters>
          </Trackpoint>
          <Trackpoint>
            <Time>2021-08-28T08:10:22.000Z</Time>
            <Position>
              <LatitudeDegrees>38.146200589835643768310546875</LatitudeDegrees>
              <LongitudeDegrees>-2.08689599297940731048583984375</LongitudeDegrees>
            </Position>
            <AltitudeMeters>1184.4000244140625</AltitudeMeters>
            <DistanceMeters>NAN</DistanceMeters>
          </Trackpoint>
          <Trackpoint>
            <Time>2021-08-28T08:10:24.000Z</Time>
            <Position>
              <LatitudeDegrees>38.1459948979318141937255859375</LatitudeDegrees>
              <LongitudeDegrees>-2.08670622669160366058349609375</LongitudeDegrees>
            </Position>
            <AltitudeMeters>1183.199951171875</AltitudeMeters>
            <DistanceMeters>NAN</DistanceMeters>
          </Trackpoint>
          <Trackpoint>
            <Time>2021-08-28T08:10:25.000Z</Time>
            <Position>
              <LatitudeDegrees>38.145902194082736968994140625</LatitudeDegrees>
              <LongitudeDegrees>-2.0865976810455322265625</LongitudeDegrees>
            </Position>
            <AltitudeMeters>1183</AltitudeMeters>
            <DistanceMeters>NAN</DistanceMeters>
          </Trackpoint>
          <Trackpoint>
            <Time>2021-08-28T08:10:28.000Z</Time>
            <Position>
              <LatitudeDegrees>38.14564880914986133575439453125</LatitudeDegrees>
              <LongitudeDegrees>-2.08623834885656833648681640625</LongitudeDegrees>
            </Position>
            <AltitudeMeters>1181.800048828125</AltitudeMeters>
            <DistanceMeters>NAN</DistanceMeters>
          </Trackpoint>
          <Trackpoint>
            <Time>2021-08-28T08:10:29.000Z</Time>
            <Position>
              <LatitudeDegrees>38.14556918106973171234130859375</LatitudeDegrees>
              <LongitudeDegrees>-2.086109183728694915771484375</LongitudeDegrees>
            </Position>
            <AltitudeMeters>1180.5999755859375</AltitudeMeters>
            <DistanceMeters>NAN</DistanceMeters>
          </Trackpoint>
          <Trackpoint>
            <Time>2021-08-28T08:10:30.000Z</Time>
            <Position>
              <LatitudeDegrees>38.145488463342189788818359375</LatitudeDegrees>
              <LongitudeDegrees>-2.08597381599247455596923828125</LongitudeDegrees>
            </Position>
            <AltitudeMeters>1179.800048828125</AltitudeMeters>
            <DistanceMeters>NAN</DistanceMeters>
          </Trackpoint>
          <Trackpoint>
            <Time>2021-08-28T08:10:31.000Z</Time>
            <Position>
              <LatitudeDegrees>38.145412690937519073486328125</LatitudeDegrees>
              <LongitudeDegrees>-2.08583937026560306549072265625</LongitudeDegrees>
            </Position>
            <AltitudeMeters>1179.4000244140625</AltitudeMeters>
            <DistanceMeters>NAN</DistanceMeters>
          </Trackpoint>
          <Trackpoint>
            <Time>2021-08-28T08:10:34.000Z</Time>
            <Position>
              <LatitudeDegrees>38.14518160186707973480224609375</LatitudeDegrees>
              <LongitudeDegrees>-2.08542228676378726959228515625</LongitudeDegrees>
            </Position>
            <AltitudeMeters>1178.4000244140625</AltitudeMeters>
            <DistanceMeters>NAN</DistanceMeters>
          </Trackpoint>
          <Trackpoint>
            <Time>2021-08-28T08:10:35.000Z</Time>
            <Position>
              <LatitudeDegrees>38.145102895796298980712890625</LatitudeDegrees>
              <LongitudeDegrees>-2.08528415299952030181884765625</LongitudeDegrees>
            </Position>
            <AltitudeMeters>1177.5999755859375</AltitudeMeters>
            <DistanceMeters>NAN</DistanceMeters>
          </Trackpoint>
          <Trackpoint>
            <Time>2021-08-28T08:10:37.000Z</Time>
            <Position>
              <LatitudeDegrees>38.14494900405406951904296875</LatitudeDegrees>
              <LongitudeDegrees>-2.0850069634616374969482421875</LongitudeDegrees>
            </Position>
            <AltitudeMeters>1176</AltitudeMeters>
            <DistanceMeters>NAN</DistanceMeters>
          </Trackpoint>
          <Trackpoint>
            <Time>2021-08-28T08:10:38.000Z</Time>
            <Position>
              <LatitudeDegrees>38.1448703818023204803466796875</LatitudeDegrees>
              <LongitudeDegrees>-2.084865979850292205810546875</LongitudeDegrees>
            </Position>
            <AltitudeMeters>1175.4000244140625</AltitudeMeters>
            <DistanceMeters>NAN</DistanceMeters>
          </Trackpoint>
          <Trackpoint>
            <Time>2021-08-28T08:10:41.000Z</Time>
            <Position>
              <LatitudeDegrees>38.14463526941835880279541015625</LatitudeDegrees>
              <LongitudeDegrees>-2.0844493992626667022705078125</LongitudeDegrees>
            </Position>
            <AltitudeMeters>1174.800048828125</AltitudeMeters>
            <DistanceMeters>NAN</DistanceMeters>
          </Trackpoint>
          <Trackpoint>
            <Time>2021-08-28T08:10:43.000Z</Time>
            <Position>
              <LatitudeDegrees>38.14447836019098758697509765625</LatitudeDegrees>
              <LongitudeDegrees>-2.084170281887054443359375</LongitudeDegrees>
            </Position>
            <AltitudeMeters>1174.5999755859375</AltitudeMeters>
            <DistanceMeters>NAN</DistanceMeters>
          </Trackpoint>
          <Trackpoint>
            <Time>2021-08-28T08:10:45.000Z</Time>
            <Position>
              <LatitudeDegrees>38.144318349659442901611328125</LatitudeDegrees>
              <LongitudeDegrees>-2.08389795385301113128662109375</LongitudeDegrees>
            </Position>
            <AltitudeMeters>1174.199951171875</AltitudeMeters>
            <DistanceMeters>NAN</DistanceMeters>
          </Trackpoint>
          <Trackpoint>
            <Time>2021-08-28T08:10:47.000Z</Time>
            <Position>
              <LatitudeDegrees>38.14415750093758106231689453125</LatitudeDegrees>
              <LongitudeDegrees>-2.08362654782831668853759765625</LongitudeDegrees>
            </Position>
            <AltitudeMeters>1173.5999755859375</AltitudeMeters>
            <DistanceMeters>NAN</DistanceMeters>
          </Trackpoint>
          <Trackpoint>
            <Time>2021-08-28T08:10:49.000Z</Time>
            <Position>
              <LatitudeDegrees>38.14398877322673797607421875</LatitudeDegrees>
              <LongitudeDegrees>-2.0833460055291652679443359375</LongitudeDegrees>
            </Position>
            <AltitudeMeters>1172.199951171875</AltitudeMeters>
            <DistanceMeters>NAN</DistanceMeters>
          </Trackpoint>
          <Trackpoint>
            <Time>2021-08-28T08:10:52.000Z</Time>
            <Position>
              <LatitudeDegrees>38.14373253844678401947021484375</LatitudeDegrees>
              <LongitudeDegrees>-2.08290670998394489288330078125</LongitudeDegrees>
            </Position>
            <AltitudeMeters>1170.4000244140625</AltitudeMeters>
            <DistanceMeters>NAN</DistanceMeters>
          </Trackpoint>
          <Trackpoint>
            <Time>2021-08-28T08:10:53.000Z</Time>
            <Position>
              <LatitudeDegrees>38.14364947378635406494140625</LatitudeDegrees>
              <LongitudeDegrees>-2.082758434116840362548828125</LongitudeDegrees>
            </Position>
            <AltitudeMeters>1169.5999755859375</AltitudeMeters>
            <DistanceMeters>NAN</DistanceMeters>
          </Trackpoint>
          <Trackpoint>
            <Time>2021-08-28T08:10:54.000Z</Time>
            <Position>
              <LatitudeDegrees>38.14356506802141666412353515625</LatitudeDegrees>
              <LongitudeDegrees>-2.08260730840265750885009765625</LongitudeDegrees>
            </Position>
            <AltitudeMeters>1168.5999755859375</AltitudeMeters>
            <DistanceMeters>NAN</DistanceMeters>
          </Trackpoint>
          <Trackpoint>
            <Time>2021-08-28T08:10:56.000Z</Time>
            <Position>
              <LatitudeDegrees>38.14338871277868747711181640625</LatitudeDegrees>
              <LongitudeDegrees>-2.08230136893689632415771484375</LongitudeDegrees>
            </Position>
            <AltitudeMeters>1167.4000244140625</AltitudeMeters>
            <DistanceMeters>NAN</DistanceMeters>
          </Trackpoint>
          <Trackpoint>
            <Time>2021-08-28T08:10:58.000Z</Time>
            <Position>
              <LatitudeDegrees>38.143221996724605560302734375</LatitudeDegrees>
              <LongitudeDegrees>-2.08198361098766326904296875</LongitudeDegrees>
            </Position>
            <AltitudeMeters>1166.199951171875</AltitudeMeters>
            <DistanceMeters>NAN</DistanceMeters>
          </Trackpoint>
          <Trackpoint>
            <Time>2021-08-28T08:10:59.000Z</Time>
            <Position>
              <LatitudeDegrees>38.14314530231058597564697265625</LatitudeDegrees>
              <LongitudeDegrees>-2.08181572146713733673095703125</LongitudeDegrees>
            </Position>
            <AltitudeMeters>1165.4000244140625</AltitudeMeters>
            <DistanceMeters>NAN</DistanceMeters>
          </Trackpoint>
          <Trackpoint>
            <Time>2021-08-28T08:11:00.000Z</Time>
            <Position>
              <LatitudeDegrees>38.143078498542308807373046875</LatitudeDegrees>
              <LongitudeDegrees>-2.08164221607148647308349609375</LongitudeDegrees>
            </Position>
            <AltitudeMeters>1164.5999755859375</AltitudeMeters>
            <DistanceMeters>NAN</DistanceMeters>
          </Trackpoint>
          <Trackpoint>
            <Time>2021-08-28T08:11:02.000Z</Time>
            <Position>
              <LatitudeDegrees>38.1429646722972393035888671875</LatitudeDegrees>
              <LongitudeDegrees>-2.0812828838825225830078125</LongitudeDegrees>
            </Position>
            <AltitudeMeters>1163.4000244140625</AltitudeMeters>
            <DistanceMeters>NAN</DistanceMeters>
          </Trackpoint>
          <Trackpoint>
            <Time>2021-08-28T08:11:03.000Z</Time>
            <Position>
              <LatitudeDegrees>38.14290775917470455169677734375</LatitudeDegrees>
              <LongitudeDegrees>-2.08110208623111248016357421875</LongitudeDegrees>
            </Position>
            <AltitudeMeters>1163</AltitudeMeters>
            <DistanceMeters>NAN</DistanceMeters>
          </Trackpoint>
          <Trackpoint>
            <Time>2021-08-28T08:11:05.000Z</Time>
            <Position>
              <LatitudeDegrees>38.142793513834476470947265625</LatitudeDegrees>
              <LongitudeDegrees>-2.0807388983666896820068359375</LongitudeDegrees>
            </Position>
            <AltitudeMeters>1161.800048828125</AltitudeMeters>
            <DistanceMeters>NAN</DistanceMeters>
          </Trackpoint>
          <Trackpoint>
            <Time>2021-08-28T08:11:06.000Z</Time>
            <Position>
              <LatitudeDegrees>38.142736852169036865234375</LatitudeDegrees>
              <LongitudeDegrees>-2.080562375485897064208984375</LongitudeDegrees>
            </Position>
            <AltitudeMeters>1160.5999755859375</AltitudeMeters>
            <DistanceMeters>NAN</DistanceMeters>
          </Trackpoint>
          <Trackpoint>
            <Time>2021-08-28T08:11:07.000Z</Time>
            <Position>
              <LatitudeDegrees>38.14267759211361408233642578125</LatitudeDegrees>
              <LongitudeDegrees>-2.0803865231573581695556640625</LongitudeDegrees>
            </Position>
            <AltitudeMeters>1159</AltitudeMeters>
            <DistanceMeters>NAN</DistanceMeters>
          </Trackpoint>
          <Trackpoint>
            <Time>2021-08-28T08:11:08.000Z</Time>
            <Position>
              <LatitudeDegrees>38.14261724241077899932861328125</LatitudeDegrees>
              <LongitudeDegrees>-2.08020740188658237457275390625</LongitudeDegrees>
            </Position>
            <AltitudeMeters>1158</AltitudeMeters>
            <DistanceMeters>NAN</DistanceMeters>
          </Trackpoint>
          <Trackpoint>
            <Time>2021-08-28T08:11:10.000Z</Time>
            <Position>
              <LatitudeDegrees>38.1424967944622039794921875</LatitudeDegrees>
              <LongitudeDegrees>-2.07985217683017253875732421875</LongitudeDegrees>
            </Position>
            <AltitudeMeters>1156.800048828125</AltitudeMeters>
            <DistanceMeters>NAN</DistanceMeters>
          </Trackpoint>
          <Trackpoint>
            <Time>2021-08-28T08:11:11.000Z</Time>
            <Position>
              <LatitudeDegrees>38.14243284054100513458251953125</LatitudeDegrees>
              <LongitudeDegrees>-2.07967146299779415130615234375</LongitudeDegrees>
            </Position>
            <AltitudeMeters>1156.5999755859375</AltitudeMeters>
            <DistanceMeters>NAN</DistanceMeters>
          </Trackpoint>
          <Trackpoint>
            <Time>2021-08-28T08:11:13.000Z</Time>
            <Position>
              <LatitudeDegrees>38.1423085369169712066650390625</LatitudeDegrees>
              <LongitudeDegrees>-2.07931472919881343841552734375</LongitudeDegrees>
            </Position>
            <AltitudeMeters>1155.199951171875</AltitudeMeters>
            <DistanceMeters>NAN</DistanceMeters>
          </Trackpoint>
          <Trackpoint>
            <Time>2021-08-28T08:11:15.000Z</Time>
            <Position>
              <LatitudeDegrees>38.14218708314001560211181640625</LatitudeDegrees>
              <LongitudeDegrees>-2.078963108360767364501953125</LongitudeDegrees>
            </Position>
            <AltitudeMeters>1153.5999755859375</AltitudeMeters>
            <DistanceMeters>NAN</DistanceMeters>
          </Trackpoint>
          <Trackpoint>
            <Time>2021-08-28T08:11:17.000Z</Time>
            <Position>
              <LatitudeDegrees>38.14206562936305999755859375</LatitudeDegrees>
              <LongitudeDegrees>-2.07860880531370639801025390625</LongitudeDegrees>
            </Position>
            <AltitudeMeters>1152</AltitudeMeters>
            <DistanceMeters>NAN</DistanceMeters>
          </Trackpoint>
          <Trackpoint>
            <Time>2021-08-28T08:11:19.000Z</Time>
            <Position>
              <LatitudeDegrees>38.141944594681262969970703125</LatitudeDegrees>
              <LongitudeDegrees>-2.07826531492173671722412109375</LongitudeDegrees>
            </Position>
            <AltitudeMeters>1150.5999755859375</AltitudeMeters>
            <DistanceMeters>NAN</DistanceMeters>
          </Trackpoint>
          <Trackpoint>
            <Time>2021-08-28T08:11:21.000Z</Time>
            <Position>
              <LatitudeDegrees>38.1418277509510517120361328125</LatitudeDegrees>
              <LongitudeDegrees>-2.07793506793677806854248046875</LongitudeDegrees>
            </Position>
            <AltitudeMeters>1149.4000244140625</AltitudeMeters>
            <DistanceMeters>NAN</DistanceMeters>
          </Trackpoint>
          <Trackpoint>
            <Time>2021-08-28T08:11:23.000Z</Time>
            <Position>
              <LatitudeDegrees>38.14171291887760162353515625</LatitudeDegrees>
              <LongitudeDegrees>-2.0776151306927204132080078125</LongitudeDegrees>
            </Position>
            <AltitudeMeters>1148.800048828125</AltitudeMeters>
            <DistanceMeters>NAN</DistanceMeters>
          </Trackpoint>
          <Trackpoint>
            <Time>2021-08-28T08:11:25.000Z</Time>
            <Position>
              <LatitudeDegrees>38.14165634103119373321533203125</LatitudeDegrees>
              <LongitudeDegrees>-2.0774585567414760589599609375</LongitudeDegrees>
            </Position>
            <AltitudeMeters>1148.4000244140625</AltitudeMeters>
            <DistanceMeters>NAN</DistanceMeters>
          </Trackpoint>
          <Trackpoint>
            <Time>2021-08-28T08:11:30.000Z</Time>
            <Position>
              <LatitudeDegrees>38.14135174266993999481201171875</LatitudeDegrees>
              <LongitudeDegrees>-2.07655121572315692901611328125</LongitudeDegrees>
            </Position>
            <AltitudeMeters>1147.5999755859375</AltitudeMeters>
            <DistanceMeters>NAN</DistanceMeters>
          </Trackpoint>
          <Trackpoint>
            <Time>2021-08-28T08:11:31.000Z</Time>
            <Position>
              <LatitudeDegrees>38.14135174266993999481201171875</LatitudeDegrees>
              <LongitudeDegrees>-2.07655121572315692901611328125</LongitudeDegrees>
            </Position>
            <AltitudeMeters>1147.4000244140625</AltitudeMeters>
            <DistanceMeters>NAN</DistanceMeters>
          </Trackpoint>
          <Trackpoint>
            <Time>2021-08-28T08:11:35.000Z</Time>
            <Position>
              <LatitudeDegrees>38.14123992808163166046142578125</LatitudeDegrees>
              <LongitudeDegrees>-2.07592575810849666595458984375</LongitudeDegrees>
            </Position>
            <AltitudeMeters>1146.4000244140625</AltitudeMeters>
            <DistanceMeters>NAN</DistanceMeters>
          </Trackpoint>
          <Trackpoint>
            <Time>2021-08-28T08:11:36.000Z</Time>
            <Position>
              <LatitudeDegrees>38.1411981023848056793212890625</LatitudeDegrees>
              <LongitudeDegrees>-2.0755927450954914093017578125</LongitudeDegrees>
            </Position>
            <AltitudeMeters>1145.800048828125</AltitudeMeters>
            <DistanceMeters>NAN</DistanceMeters>
          </Trackpoint>
          <Trackpoint>
            <Time>2021-08-28T08:11:38.000Z</Time>
            <Position>
              <LatitudeDegrees>38.1411538459360599517822265625</LatitudeDegrees>
              <LongitudeDegrees>-2.07524950616061687469482421875</LongitudeDegrees>
            </Position>
            <AltitudeMeters>1144.199951171875</AltitudeMeters>
            <DistanceMeters>NAN</DistanceMeters>
          </Trackpoint>
          <Trackpoint>
            <Time>2021-08-28T08:11:41.000Z</Time>
            <Position>
              <LatitudeDegrees>38.14111051149666309356689453125</LatitudeDegrees>
              <LongitudeDegrees>-2.07490785978734493255615234375</LongitudeDegrees>
            </Position>
            <AltitudeMeters>1142.800048828125</AltitudeMeters>
            <DistanceMeters>NAN</DistanceMeters>
          </Trackpoint>
          <Trackpoint>
            <Time>2021-08-28T08:11:42.000Z</Time>
            <Position>
              <LatitudeDegrees>38.1410670094192028045654296875</LatitudeDegrees>
              <LongitudeDegrees>-2.07456621341407299041748046875</LongitudeDegrees>
            </Position>
            <AltitudeMeters>1142</AltitudeMeters>
            <DistanceMeters>NAN</DistanceMeters>
          </Trackpoint>
          <Trackpoint>
            <Time>2021-08-28T08:11:43.000Z</Time>
            <Position>
              <LatitudeDegrees>38.14104328863322734832763671875</LatitudeDegrees>
              <LongitudeDegrees>-2.07439287565648555755615234375</LongitudeDegrees>
            </Position>
            <AltitudeMeters>1141.5999755859375</AltitudeMeters>
            <DistanceMeters>NAN</DistanceMeters>
          </Trackpoint>
          <Trackpoint>
            <Time>2021-08-28T08:11:45.000Z</Time>
            <Position>
              <LatitudeDegrees>38.140995763242244720458984375</LatitudeDegrees>
              <LongitudeDegrees>-2.074047289788722991943359375</LongitudeDegrees>
            </Position>
            <AltitudeMeters>1140.199951171875</AltitudeMeters>
            <DistanceMeters>NAN</DistanceMeters>
          </Trackpoint>
          <Trackpoint>
            <Time>2021-08-28T08:11:48.000Z</Time>
            <Position>
              <LatitudeDegrees>38.1409464776515960693359375</LatitudeDegrees>
              <LongitudeDegrees>-2.07370053045451641082763671875</LongitudeDegrees>
            </Position>
            <AltitudeMeters>1139.199951171875</AltitudeMeters>
            <DistanceMeters>NAN</DistanceMeters>
          </Trackpoint>
          <Trackpoint>
            <Time>2021-08-28T08:11:49.000Z</Time>
            <Position>
              <LatitudeDegrees>38.14091739244759082794189453125</LatitudeDegrees>
              <LongitudeDegrees>-2.0735284499824047088623046875</LongitudeDegrees>
            </Position>
            <AltitudeMeters>1138</AltitudeMeters>
            <DistanceMeters>NAN</DistanceMeters>
          </Trackpoint>
          <Trackpoint>
            <Time>2021-08-28T08:11:50.000Z</Time>
            <Position>
              <LatitudeDegrees>38.14084178768098354339599609375</LatitudeDegrees>
              <LongitudeDegrees>-2.073188312351703643798828125</LongitudeDegrees>
            </Position>
            <AltitudeMeters>1136.800048828125</AltitudeMeters>
            <DistanceMeters>NAN</DistanceMeters>
          </Trackpoint>
          <Trackpoint>
            <Time>2021-08-28T08:11:53.000Z</Time>
            <Position>
              <LatitudeDegrees>38.1407595612108707427978515625</LatitudeDegrees>
              <LongitudeDegrees>-2.072849683463573455810546875</LongitudeDegrees>
            </Position>
            <AltitudeMeters>1135.5999755859375</AltitudeMeters>
            <DistanceMeters>NAN</DistanceMeters>
          </Trackpoint>
          <Trackpoint>
            <Time>2021-08-28T08:11:54.000Z</Time>
            <Position>
              <LatitudeDegrees>38.14067331142723560333251953125</LatitudeDegrees>
              <LongitudeDegrees>-2.07251013256609439849853515625</LongitudeDegrees>
            </Position>
            <AltitudeMeters>1135</AltitudeMeters>
            <DistanceMeters>NAN</DistanceMeters>
          </Trackpoint>
          <Trackpoint>
            <Time>2021-08-28T08:11:55.000Z</Time>
            <Position>
              <LatitudeDegrees>38.14062922261655330657958984375</LatitudeDegrees>
              <LongitudeDegrees>-2.0723402313888072967529296875</LongitudeDegrees>
            </Position>
            <AltitudeMeters>1134.4000244140625</AltitudeMeters>
            <DistanceMeters>NAN</DistanceMeters>
          </Trackpoint>
          <Trackpoint>
            <Time>2021-08-28T08:11:57.000Z</Time>
            <Position>
              <LatitudeDegrees>38.14058647491037845611572265625</LatitudeDegrees>
              <LongitudeDegrees>-2.0721722580492496490478515625</LongitudeDegrees>
            </Position>
            <AltitudeMeters>1132.4000244140625</AltitudeMeters>
            <DistanceMeters>NAN</DistanceMeters>
          </Trackpoint>
          <Trackpoint>
            <Time>2021-08-28T08:11:59.000Z</Time>
            <Position>
              <LatitudeDegrees>38.14050500281155109405517578125</LatitudeDegrees>
              <LongitudeDegrees>-2.071843184530735015869140625</LongitudeDegrees>
            </Position>
            <AltitudeMeters>1130.800048828125</AltitudeMeters>
            <DistanceMeters>NAN</DistanceMeters>
          </Trackpoint>
          <Trackpoint>
            <Time>2021-08-28T08:12:02.000Z</Time>
            <Position>
              <LatitudeDegrees>38.1403800286352634429931640625</LatitudeDegrees>
              <LongitudeDegrees>-2.07136206328868865966796875</LongitudeDegrees>
            </Position>
            <AltitudeMeters>1129.800048828125</AltitudeMeters>
            <DistanceMeters>NAN</DistanceMeters>
          </Trackpoint>
          <Trackpoint>
            <Time>2021-08-28T08:12:05.000Z</Time>
            <Position>
              <LatitudeDegrees>38.14022035337984561920166015625</LatitudeDegrees>
              <LongitudeDegrees>-2.07072411663830280303955078125</LongitudeDegrees>
            </Position>
            <AltitudeMeters>1128</AltitudeMeters>
            <DistanceMeters>NAN</DistanceMeters>
          </Trackpoint>
          <Trackpoint>
            <Time>2021-08-28T08:12:06.000Z</Time>
            <Position>
              <LatitudeDegrees>38.14022035337984561920166015625</LatitudeDegrees>
              <LongitudeDegrees>-2.07072411663830280303955078125</LongitudeDegrees>
            </Position>
            <AltitudeMeters>1126.800048828125</AltitudeMeters>
            <DistanceMeters>NAN</DistanceMeters>
          </Trackpoint>
          <Trackpoint>
            <Time>2021-08-28T08:12:08.000Z</Time>
            <Position>
              <LatitudeDegrees>38.14014173112809658050537109375</LatitudeDegrees>
              <LongitudeDegrees>-2.070407532155513763427734375</LongitudeDegrees>
            </Position>
            <AltitudeMeters>1125.4000244140625</AltitudeMeters>
            <DistanceMeters>NAN</DistanceMeters>
          </Trackpoint>
          <Trackpoint>
            <Time>2021-08-28T08:12:11.000Z</Time>
            <Position>
              <LatitudeDegrees>38.13997996039688587188720703125</LatitudeDegrees>
              <LongitudeDegrees>-2.0697710104286670684814453125</LongitudeDegrees>
            </Position>
            <AltitudeMeters>1124.4000244140625</AltitudeMeters>
            <DistanceMeters>NAN</DistanceMeters>
          </Trackpoint>
          <Trackpoint>
            <Time>2021-08-28T08:12:12.000Z</Time>
            <Position>
              <LatitudeDegrees>38.139937631785869598388671875</LatitudeDegrees>
              <LongitudeDegrees>-2.06961099989712238311767578125</LongitudeDegrees>
            </Position>
            <AltitudeMeters>1124</AltitudeMeters>
            <DistanceMeters>NAN</DistanceMeters>
          </Trackpoint>
          <Trackpoint>
            <Time>2021-08-28T08:12:14.000Z</Time>
            <Position>
              <LatitudeDegrees>38.139895386993885040283203125</LatitudeDegrees>
              <LongitudeDegrees>-2.06944738514721393585205078125</LongitudeDegrees>
            </Position>
            <AltitudeMeters>1123.199951171875</AltitudeMeters>
            <DistanceMeters>NAN</DistanceMeters>
          </Trackpoint>
          <Trackpoint>
            <Time>2021-08-28T08:12:17.000Z</Time>
            <Position>
              <LatitudeDegrees>38.1397316046059131622314453125</LatitudeDegrees>
              <LongitudeDegrees>-2.06879292614758014678955078125</LongitudeDegrees>
            </Position>
            <AltitudeMeters>1122</AltitudeMeters>
            <DistanceMeters>NAN</DistanceMeters>
          </Trackpoint>
          <Trackpoint>
            <Time>2021-08-28T08:12:19.000Z</Time>
            <Position>
              <LatitudeDegrees>38.13964627683162689208984375</LatitudeDegrees>
              <LongitudeDegrees>-2.06845379434525966644287109375</LongitudeDegrees>
            </Position>
            <AltitudeMeters>1120.4000244140625</AltitudeMeters>
            <DistanceMeters>NAN</DistanceMeters>
          </Trackpoint>
          <Trackpoint>
            <Time>2021-08-28T08:12:20.000Z</Time>
            <Position>
              <LatitudeDegrees>38.13960042782127857208251953125</LatitudeDegrees>
              <LongitudeDegrees>-2.06828129477798938751220703125</LongitudeDegrees>
            </Position>
            <AltitudeMeters>1118.5999755859375</AltitudeMeters>
            <DistanceMeters>NAN</DistanceMeters>
          </Trackpoint>
          <Trackpoint>
            <Time>2021-08-28T08:12:21.000Z</Time>
            <Position>
              <LatitudeDegrees>38.1395532377064228057861328125</LatitudeDegrees>
              <LongitudeDegrees>-2.0681070350110530853271484375</LongitudeDegrees>
            </Position>
            <AltitudeMeters>1117.199951171875</AltitudeMeters>
            <DistanceMeters>NAN</DistanceMeters>
          </Trackpoint>
          <Trackpoint>
            <Time>2021-08-28T08:12:23.000Z</Time>
            <Position>
              <LatitudeDegrees>38.139464557170867919921875</LatitudeDegrees>
              <LongitudeDegrees>-2.06776094622910022735595703125</LongitudeDegrees>
            </Position>
            <AltitudeMeters>1115.199951171875</AltitudeMeters>
            <DistanceMeters>NAN</DistanceMeters>
          </Trackpoint>
          <Trackpoint>
            <Time>2021-08-28T08:12:25.000Z</Time>
            <Position>
              <LatitudeDegrees>38.1394208036363124847412109375</LatitudeDegrees>
              <LongitudeDegrees>-2.0675920508801937103271484375</LongitudeDegrees>
            </Position>
            <AltitudeMeters>1113.800048828125</AltitudeMeters>
            <DistanceMeters>NAN</DistanceMeters>
          </Trackpoint>
          <Trackpoint>
            <Time>2021-08-28T08:12:27.000Z</Time>
            <Position>
              <LatitudeDegrees>38.139336816966533660888671875</LatitudeDegrees>
              <LongitudeDegrees>-2.0672557689249515533447265625</LongitudeDegrees>
            </Position>
            <AltitudeMeters>1113</AltitudeMeters>
            <DistanceMeters>NAN</DistanceMeters>
          </Trackpoint>
          <Trackpoint>
            <Time>2021-08-28T08:12:28.000Z</Time>
            <Position>
              <LatitudeDegrees>38.13925559632480144500732421875</LatitudeDegrees>
              <LongitudeDegrees>-2.06692175008356571197509765625</LongitudeDegrees>
            </Position>
            <AltitudeMeters>1112.199951171875</AltitudeMeters>
            <DistanceMeters>NAN</DistanceMeters>
          </Trackpoint>
          <Trackpoint>
            <Time>2021-08-28T08:12:29.000Z</Time>
            <Position>
              <LatitudeDegrees>38.13925559632480144500732421875</LatitudeDegrees>
              <LongitudeDegrees>-2.06692175008356571197509765625</LongitudeDegrees>
            </Position>
            <AltitudeMeters>1111.199951171875</AltitudeMeters>
            <DistanceMeters>NAN</DistanceMeters>
          </Trackpoint>
          <Trackpoint>
            <Time>2021-08-28T08:12:31.000Z</Time>
            <Position>
              <LatitudeDegrees>38.13912433572113513946533203125</LatitudeDegrees>
              <LongitudeDegrees>-2.06642671488225460052490234375</LongitudeDegrees>
            </Position>
            <AltitudeMeters>1109.800048828125</AltitudeMeters>
            <DistanceMeters>NAN</DistanceMeters>
          </Trackpoint>
          <Trackpoint>
            <Time>2021-08-28T08:12:34.000Z</Time>
            <Position>
              <LatitudeDegrees>38.1389728747308254241943359375</LatitudeDegrees>
              <LongitudeDegrees>-2.06595146097242832183837890625</LongitudeDegrees>
            </Position>
            <AltitudeMeters>1108.800048828125</AltitudeMeters>
            <DistanceMeters>NAN</DistanceMeters>
          </Trackpoint>
          <Trackpoint>
            <Time>2021-08-28T08:12:36.000Z</Time>
            <Position>
              <LatitudeDegrees>38.138858377933502197265625</LatitudeDegrees>
              <LongitudeDegrees>-2.0656447671353816986083984375</LongitudeDegrees>
            </Position>
            <AltitudeMeters>1107</AltitudeMeters>
            <DistanceMeters>NAN</DistanceMeters>
          </Trackpoint>
          <Trackpoint>
            <Time>2021-08-28T08:12:38.000Z</Time>
            <Position>
              <LatitudeDegrees>38.138748742640018463134765625</LatitudeDegrees>
              <LongitudeDegrees>-2.0653451979160308837890625</LongitudeDegrees>
            </Position>
            <AltitudeMeters>1105.5999755859375</AltitudeMeters>
            <DistanceMeters>NAN</DistanceMeters>
          </Trackpoint>
          <Trackpoint>
            <Time>2021-08-28T08:12:42.000Z</Time>
            <Position>
              <LatitudeDegrees>38.13851078040897846221923828125</LatitudeDegrees>
              <LongitudeDegrees>-2.0647385157644748687744140625</LongitudeDegrees>
            </Position>
            <AltitudeMeters>1104.5999755859375</AltitudeMeters>
            <DistanceMeters>NAN</DistanceMeters>
          </Trackpoint>
          <Trackpoint>
            <Time>2021-08-28T08:12:43.000Z</Time>
            <Position>
              <LatitudeDegrees>38.138451017439365386962890625</LatitudeDegrees>
              <LongitudeDegrees>-2.064587809145450592041015625</LongitudeDegrees>
            </Position>
            <AltitudeMeters>1103.5999755859375</AltitudeMeters>
            <DistanceMeters>NAN</DistanceMeters>
          </Trackpoint>
          <Trackpoint>
            <Time>2021-08-28T08:12:46.000Z</Time>
            <Position>
              <LatitudeDegrees>38.138273321092128753662109375</LatitudeDegrees>
              <LongitudeDegrees>-2.06413577310740947723388671875</LongitudeDegrees>
            </Position>
            <AltitudeMeters>1102.199951171875</AltitudeMeters>
            <DistanceMeters>NAN</DistanceMeters>
          </Trackpoint>
          <Trackpoint>
            <Time>2021-08-28T08:12:48.000Z</Time>
            <Position>
              <LatitudeDegrees>38.13821456395089626312255859375</LatitudeDegrees>
              <LongitudeDegrees>-2.06398355774581432342529296875</LongitudeDegrees>
            </Position>
            <AltitudeMeters>1101.199951171875</AltitudeMeters>
            <DistanceMeters>NAN</DistanceMeters>
          </Trackpoint>
          <Trackpoint>
            <Time>2021-08-28T08:12:49.000Z</Time>
            <Position>
              <LatitudeDegrees>38.1380994804203510284423828125</LatitudeDegrees>
              <LongitudeDegrees>-2.0636793784797191619873046875</LongitudeDegrees>
            </Position>
            <AltitudeMeters>1100.800048828125</AltitudeMeters>
            <DistanceMeters>NAN</DistanceMeters>
          </Trackpoint>
          <Trackpoint>
            <Time>2021-08-28T08:12:50.000Z</Time>
            <Position>
              <LatitudeDegrees>38.1380438245832920074462890625</LatitudeDegrees>
              <LongitudeDegrees>-2.06352523528039455413818359375</LongitudeDegrees>
            </Position>
            <AltitudeMeters>1100.5999755859375</AltitudeMeters>
            <DistanceMeters>NAN</DistanceMeters>
          </Trackpoint>
          <Trackpoint>
            <Time>2021-08-28T08:12:53.000Z</Time>
            <Position>
              <LatitudeDegrees>38.1378688104450702667236328125</LatitudeDegrees>
              <LongitudeDegrees>-2.06306423060595989227294921875</LongitudeDegrees>
            </Position>
            <AltitudeMeters>1100</AltitudeMeters>
            <DistanceMeters>NAN</DistanceMeters>
          </Trackpoint>
          <Trackpoint>
            <Time>2021-08-28T08:12:56.000Z</Time>
            <Position>
              <LatitudeDegrees>38.13769522123038768768310546875</LatitudeDegrees>
              <LongitudeDegrees>-2.06260506995022296905517578125</LongitudeDegrees>
            </Position>
            <AltitudeMeters>1099.199951171875</AltitudeMeters>
            <DistanceMeters>NAN</DistanceMeters>
          </Trackpoint>
          <Trackpoint>
            <Time>2021-08-28T08:12:57.000Z</Time>
            <Position>
              <LatitudeDegrees>38.1376364640891551971435546875</LatitudeDegrees>
              <LongitudeDegrees>-2.0624529384076595306396484375</LongitudeDegrees>
            </Position>
            <AltitudeMeters>1098.5999755859375</AltitudeMeters>
            <DistanceMeters>NAN</DistanceMeters>
          </Trackpoint>
          <Trackpoint>
            <Time>2021-08-28T08:12:59.000Z</Time>
            <Position>
              <LatitudeDegrees>38.137518279254436492919921875</LatitudeDegrees>
              <LongitudeDegrees>-2.06214507110416889190673828125</LongitudeDegrees>
            </Position>
            <AltitudeMeters>1097.4000244140625</AltitudeMeters>
            <DistanceMeters>NAN</DistanceMeters>
          </Trackpoint>
          <Trackpoint>
            <Time>2021-08-28T08:13:02.000Z</Time>
            <Position>
              <LatitudeDegrees>38.13735441304743289947509765625</LatitudeDegrees>
              <LongitudeDegrees>-2.06167300231754779815673828125</LongitudeDegrees>
            </Position>
            <AltitudeMeters>1095.800048828125</AltitudeMeters>
            <DistanceMeters>NAN</DistanceMeters>
          </Trackpoint>
          <Trackpoint>
            <Time>2021-08-28T08:13:03.000Z</Time>
            <Position>
              <LatitudeDegrees>38.13731451518833637237548828125</LatitudeDegrees>
              <LongitudeDegrees>-2.0615067891776561737060546875</LongitudeDegrees>
            </Position>
            <AltitudeMeters>1095.199951171875</AltitudeMeters>
            <DistanceMeters>NAN</DistanceMeters>
          </Trackpoint>
          <Trackpoint>
            <Time>2021-08-28T08:13:04.000Z</Time>
            <Position>
              <LatitudeDegrees>38.1372852623462677001953125</LatitudeDegrees>
              <LongitudeDegrees>-2.06133655272424221038818359375</LongitudeDegrees>
            </Position>
            <AltitudeMeters>1094.800048828125</AltitudeMeters>
            <DistanceMeters>NAN</DistanceMeters>
          </Trackpoint>
          <Trackpoint>
            <Time>2021-08-28T08:13:07.000Z</Time>
            <Position>
              <LatitudeDegrees>38.1372364796698093414306640625</LatitudeDegrees>
              <LongitudeDegrees>-2.06081553362309932708740234375</LongitudeDegrees>
            </Position>
            <AltitudeMeters>1093.199951171875</AltitudeMeters>
            <DistanceMeters>NAN</DistanceMeters>
          </Trackpoint>
          <Trackpoint>
            <Time>2021-08-28T08:13:09.000Z</Time>
            <Position>
              <LatitudeDegrees>38.1372106634080410003662109375</LatitudeDegrees>
              <LongitudeDegrees>-2.0604727976024150848388671875</LongitudeDegrees>
            </Position>
            <AltitudeMeters>1091.5999755859375</AltitudeMeters>
            <DistanceMeters>NAN</DistanceMeters>
          </Trackpoint>
          <Trackpoint>
            <Time>2021-08-28T08:13:11.000Z</Time>
            <Position>
              <LatitudeDegrees>38.1371833384037017822265625</LatitudeDegrees>
              <LongitudeDegrees>-2.06013492308557033538818359375</LongitudeDegrees>
            </Position>
            <AltitudeMeters>1090.5999755859375</AltitudeMeters>
            <DistanceMeters>NAN</DistanceMeters>
          </Trackpoint>
          <Trackpoint>
            <Time>2021-08-28T08:13:13.000Z</Time>
            <Position>
              <LatitudeDegrees>38.1371566839516162872314453125</LatitudeDegrees>
              <LongitudeDegrees>-2.0598015747964382171630859375</LongitudeDegrees>
            </Position>
            <AltitudeMeters>1089.5999755859375</AltitudeMeters>
            <DistanceMeters>NAN</DistanceMeters>
          </Trackpoint>
          <Trackpoint>
            <Time>2021-08-28T08:13:15.000Z</Time>
            <Position>
              <LatitudeDegrees>38.13713313080370426177978515625</LatitudeDegrees>
              <LongitudeDegrees>-2.059474177658557891845703125</LongitudeDegrees>
            </Position>
            <AltitudeMeters>1089.199951171875</AltitudeMeters>
            <DistanceMeters>NAN</DistanceMeters>
          </Trackpoint>
          <Trackpoint>
            <Time>2021-08-28T08:13:16.000Z</Time>
            <Position>
              <LatitudeDegrees>38.13712156377732753753662109375</LatitudeDegrees>
              <LongitudeDegrees>-2.0593117363750934600830078125</LongitudeDegrees>
            </Position>
            <AltitudeMeters>1089</AltitudeMeters>
            <DistanceMeters>NAN</DistanceMeters>
          </Trackpoint>
          <Trackpoint>
            <Time>2021-08-28T08:13:19.000Z</Time>
            <Position>
              <LatitudeDegrees>38.1370949931442737579345703125</LatitudeDegrees>
              <LongitudeDegrees>-2.05882969312369823455810546875</LongitudeDegrees>
            </Position>
            <AltitudeMeters>1087.800048828125</AltitudeMeters>
            <DistanceMeters>NAN</DistanceMeters>
          </Trackpoint>
          <Trackpoint>
            <Time>2021-08-28T08:13:21.000Z</Time>
            <Position>
              <LatitudeDegrees>38.1370732001960277557373046875</LatitudeDegrees>
              <LongitudeDegrees>-2.05850983969867229461669921875</LongitudeDegrees>
            </Position>
            <AltitudeMeters>1087.4000244140625</AltitudeMeters>
            <DistanceMeters>NAN</DistanceMeters>
          </Trackpoint>
          <Trackpoint>
            <Time>2021-08-28T08:13:24.000Z</Time>
            <Position>
              <LatitudeDegrees>38.1370168738067150115966796875</LatitudeDegrees>
              <LongitudeDegrees>-2.05803190357983112335205078125</LongitudeDegrees>
            </Position>
            <AltitudeMeters>1086.5999755859375</AltitudeMeters>
            <DistanceMeters>NAN</DistanceMeters>
          </Trackpoint>
          <Trackpoint>
            <Time>2021-08-28T08:13:27.000Z</Time>
            <Position>
              <LatitudeDegrees>38.13692525960505008697509765625</LatitudeDegrees>
              <LongitudeDegrees>-2.05756151117384433746337890625</LongitudeDegrees>
            </Position>
            <AltitudeMeters>1085.5999755859375</AltitudeMeters>
            <DistanceMeters>NAN</DistanceMeters>
          </Trackpoint>
          <Trackpoint>
            <Time>2021-08-28T08:13:28.000Z</Time>
            <Position>
              <LatitudeDegrees>38.1368923187255859375</LatitudeDegrees>
              <LongitudeDegrees>-2.0574080385267734527587890625</LongitudeDegrees>
            </Position>
            <AltitudeMeters>1084.5999755859375</AltitudeMeters>
            <DistanceMeters>NAN</DistanceMeters>
          </Trackpoint>
          <Trackpoint>
            <Time>2021-08-28T08:13:30.000Z</Time>
            <Position>
              <LatitudeDegrees>38.13682786189019680023193359375</LatitudeDegrees>
              <LongitudeDegrees>-2.05710972659289836883544921875</LongitudeDegrees>
            </Position>
            <AltitudeMeters>1083.4000244140625</AltitudeMeters>
            <DistanceMeters>NAN</DistanceMeters>
          </Trackpoint>
          <Trackpoint>
            <Time>2021-08-28T08:13:31.000Z</Time>
            <Position>
              <LatitudeDegrees>38.136790059506893157958984375</LatitudeDegrees>
              <LongitudeDegrees>-2.056953571736812591552734375</LongitudeDegrees>
            </Position>
            <AltitudeMeters>1082.199951171875</AltitudeMeters>
            <DistanceMeters>NAN</DistanceMeters>
          </Trackpoint>
          <Trackpoint>
            <Time>2021-08-28T08:13:33.000Z</Time>
            <Position>
              <LatitudeDegrees>38.13671889714896678924560546875</LatitudeDegrees>
              <LongitudeDegrees>-2.05664453096687793731689453125</LongitudeDegrees>
            </Position>
            <AltitudeMeters>1081</AltitudeMeters>
            <DistanceMeters>NAN</DistanceMeters>
          </Trackpoint>
          <Trackpoint>
            <Time>2021-08-28T08:13:38.000Z</Time>
            <Position>
              <LatitudeDegrees>38.136546649038791656494140625</LatitudeDegrees>
              <LongitudeDegrees>-2.05587624572217464447021484375</LongitudeDegrees>
            </Position>
            <AltitudeMeters>1079.800048828125</AltitudeMeters>
            <DistanceMeters>NAN</DistanceMeters>
          </Trackpoint>
          <Trackpoint>
            <Time>2021-08-28T08:13:40.000Z</Time>
            <Position>
              <LatitudeDegrees>38.13648395240306854248046875</LatitudeDegrees>
              <LongitudeDegrees>-2.05557701177895069122314453125</LongitudeDegrees>
            </Position>
            <AltitudeMeters>1078.800048828125</AltitudeMeters>
            <DistanceMeters>NAN</DistanceMeters>
          </Trackpoint>
          <Trackpoint>
            <Time>2021-08-28T08:13:41.000Z</Time>
            <Position>
              <LatitudeDegrees>38.13645436428487300872802734375</LatitudeDegrees>
              <LongitudeDegrees>-2.0554278977215290069580078125</LongitudeDegrees>
            </Position>
            <AltitudeMeters>1078.199951171875</AltitudeMeters>
            <DistanceMeters>NAN</DistanceMeters>
          </Trackpoint>
          <Trackpoint>
            <Time>2021-08-28T08:13:43.000Z</Time>
            <Position>
              <LatitudeDegrees>38.136392422020435333251953125</LatitudeDegrees>
              <LongitudeDegrees>-2.05512874759733676910400390625</LongitudeDegrees>
            </Position>
            <AltitudeMeters>1077.5999755859375</AltitudeMeters>
            <DistanceMeters>NAN</DistanceMeters>
          </Trackpoint>
          <Trackpoint>
            <Time>2021-08-28T08:13:44.000Z</Time>
            <Position>
              <LatitudeDegrees>38.13636149279773235321044921875</LatitudeDegrees>
              <LongitudeDegrees>-2.0549784600734710693359375</LongitudeDegrees>
            </Position>
            <AltitudeMeters>1076.4000244140625</AltitudeMeters>
            <DistanceMeters>NAN</DistanceMeters>
          </Trackpoint>
          <Trackpoint>
            <Time>2021-08-28T08:13:46.000Z</Time>
            <Position>
              <LatitudeDegrees>38.13630064018070697784423828125</LatitudeDegrees>
              <LongitudeDegrees>-2.05468953587114810943603515625</LongitudeDegrees>
            </Position>
            <AltitudeMeters>1074.800048828125</AltitudeMeters>
            <DistanceMeters>NAN</DistanceMeters>
          </Trackpoint>
          <Trackpoint>
            <Time>2021-08-28T08:13:48.000Z</Time>
            <Position>
              <LatitudeDegrees>38.1362252868711948394775390625</LatitudeDegrees>
              <LongitudeDegrees>-2.054403126239776611328125</LongitudeDegrees>
            </Position>
            <AltitudeMeters>1073.4000244140625</AltitudeMeters>
            <DistanceMeters>NAN</DistanceMeters>
          </Trackpoint>
          <Trackpoint>
            <Time>2021-08-28T08:13:53.000Z</Time>
            <Position>
              <LatitudeDegrees>38.13601498492062091827392578125</LatitudeDegrees>
              <LongitudeDegrees>-2.05371371470391750335693359375</LongitudeDegrees>
            </Position>
            <AltitudeMeters>1072.5999755859375</AltitudeMeters>
            <DistanceMeters>NAN</DistanceMeters>
          </Trackpoint>
          <Trackpoint>
            <Time>2021-08-28T08:13:54.000Z</Time>
            <Position>
              <LatitudeDegrees>38.13597424887120723724365234375</LatitudeDegrees>
              <LongitudeDegrees>-2.05358530394732952117919921875</LongitudeDegrees>
            </Position>
            <AltitudeMeters>1072</AltitudeMeters>
            <DistanceMeters>NAN</DistanceMeters>
          </Trackpoint>
          <Trackpoint>
            <Time>2021-08-28T08:13:56.000Z</Time>
            <Position>
              <LatitudeDegrees>38.135891519486904144287109375</LatitudeDegrees>
              <LongitudeDegrees>-2.053316496312618255615234375</LongitudeDegrees>
            </Position>
            <AltitudeMeters>1071</AltitudeMeters>
            <DistanceMeters>NAN</DistanceMeters>
          </Trackpoint>
          <Trackpoint>
            <Time>2021-08-28T08:13:57.000Z</Time>
            <Position>
              <LatitudeDegrees>38.13585254363715648651123046875</LatitudeDegrees>
              <LongitudeDegrees>-2.053183726966381072998046875</LongitudeDegrees>
            </Position>
            <AltitudeMeters>1070.5999755859375</AltitudeMeters>
            <DistanceMeters>NAN</DistanceMeters>
          </Trackpoint>
          <Trackpoint>
            <Time>2021-08-28T08:14:00.000Z</Time>
            <Position>
              <LatitudeDegrees>38.13573025166988372802734375</LatitudeDegrees>
              <LongitudeDegrees>-2.0527825690805912017822265625</LongitudeDegrees>
            </Position>
            <AltitudeMeters>1069.5999755859375</AltitudeMeters>
            <DistanceMeters>NAN</DistanceMeters>
          </Trackpoint>
          <Trackpoint>
            <Time>2021-08-28T08:14:02.000Z</Time>
            <Position>
              <LatitudeDegrees>38.13564836047589778900146484375</LatitudeDegrees>
              <LongitudeDegrees>-2.05251191742718219757080078125</LongitudeDegrees>
            </Position>
            <AltitudeMeters>1069</AltitudeMeters>
            <DistanceMeters>NAN</DistanceMeters>
          </Trackpoint>
          <Trackpoint>
            <Time>2021-08-28T08:14:05.000Z</Time>
            <Position>
              <LatitudeDegrees>38.1355369649827480316162109375</LatitudeDegrees>
              <LongitudeDegrees>-2.052117548882961273193359375</LongitudeDegrees>
            </Position>
            <AltitudeMeters>1068.4000244140625</AltitudeMeters>
            <DistanceMeters>NAN</DistanceMeters>
          </Trackpoint>
          <Trackpoint>
            <Time>2021-08-28T08:14:08.000Z</Time>
            <Position>
              <LatitudeDegrees>38.13543227501213550567626953125</LatitudeDegrees>
              <LongitudeDegrees>-2.05172586254775524139404296875</LongitudeDegrees>
            </Position>
            <AltitudeMeters>1067.800048828125</AltitudeMeters>
            <DistanceMeters>NAN</DistanceMeters>
          </Trackpoint>
          <Trackpoint>
            <Time>2021-08-28T08:14:09.000Z</Time>
            <Position>
              <LatitudeDegrees>38.13539371825754642486572265625</LatitudeDegrees>
              <LongitudeDegrees>-2.051597200334072113037109375</LongitudeDegrees>
            </Position>
            <AltitudeMeters>1067.4000244140625</AltitudeMeters>
            <DistanceMeters>NAN</DistanceMeters>
          </Trackpoint>
          <Trackpoint>
            <Time>2021-08-28T08:14:12.000Z</Time>
            <Position>
              <LatitudeDegrees>38.13528324477374553680419921875</LatitudeDegrees>
              <LongitudeDegrees>-2.0512074418365955352783203125</LongitudeDegrees>
            </Position>
            <AltitudeMeters>1066.199951171875</AltitudeMeters>
            <DistanceMeters>NAN</DistanceMeters>
          </Trackpoint>
          <Trackpoint>
            <Time>2021-08-28T08:14:15.000Z</Time>
            <Position>
              <LatitudeDegrees>38.13518919982016086578369140625</LatitudeDegrees>
              <LongitudeDegrees>-2.05094584263861179351806640625</LongitudeDegrees>
            </Position>
            <AltitudeMeters>1065.199951171875</AltitudeMeters>
            <DistanceMeters>NAN</DistanceMeters>
          </Trackpoint>
          <Trackpoint>
            <Time>2021-08-28T08:14:17.000Z</Time>
            <Position>
              <LatitudeDegrees>38.13498987816274166107177734375</LatitudeDegrees>
              <LongitudeDegrees>-2.0505801402032375335693359375</LongitudeDegrees>
            </Position>
            <AltitudeMeters>1063.5999755859375</AltitudeMeters>
            <DistanceMeters>NAN</DistanceMeters>
          </Trackpoint>
          <Trackpoint>
            <Time>2021-08-28T08:14:18.000Z</Time>
            <Position>
              <LatitudeDegrees>38.13491309992969036102294921875</LatitudeDegrees>
              <LongitudeDegrees>-2.05046740360558032989501953125</LongitudeDegrees>
            </Position>
            <AltitudeMeters>1062.199951171875</AltitudeMeters>
            <DistanceMeters>NAN</DistanceMeters>
          </Trackpoint>
          <Trackpoint>
            <Time>2021-08-28T08:14:19.000Z</Time>
            <Position>
              <LatitudeDegrees>38.1348365731537342071533203125</LatitudeDegrees>
              <LongitudeDegrees>-2.050357349216938018798828125</LongitudeDegrees>
            </Position>
            <AltitudeMeters>1061.4000244140625</AltitudeMeters>
            <DistanceMeters>NAN</DistanceMeters>
          </Trackpoint>
          <Trackpoint>
            <Time>2021-08-28T08:14:20.000Z</Time>
            <Position>
              <LatitudeDegrees>38.1347618065774440765380859375</LatitudeDegrees>
              <LongitudeDegrees>-2.05024863593280315399169921875</LongitudeDegrees>
            </Position>
            <AltitudeMeters>1061.199951171875</AltitudeMeters>
            <DistanceMeters>NAN</DistanceMeters>
          </Trackpoint>
          <Trackpoint>
            <Time>2021-08-28T08:14:25.000Z</Time>
            <Position>
              <LatitudeDegrees>38.134388811886310577392578125</LatitudeDegrees>
              <LongitudeDegrees>-2.04973809421062469482421875</LongitudeDegrees>
            </Position>
            <AltitudeMeters>1059.800048828125</AltitudeMeters>
            <DistanceMeters>NAN</DistanceMeters>
          </Trackpoint>
          <Trackpoint>
            <Time>2021-08-28T08:14:26.000Z</Time>
            <Position>
              <LatitudeDegrees>38.1343135423958301544189453125</LatitudeDegrees>
              <LongitudeDegrees>-2.04963826574385166168212890625</LongitudeDegrees>
            </Position>
            <AltitudeMeters>1059.4000244140625</AltitudeMeters>
            <DistanceMeters>NAN</DistanceMeters>
          </Trackpoint>
          <Trackpoint>
            <Time>2021-08-28T08:14:27.000Z</Time>
            <Position>
              <LatitudeDegrees>38.13423869200050830841064453125</LatitudeDegrees>
              <LongitudeDegrees>-2.0495347492396831512451171875</LongitudeDegrees>
            </Position>
            <AltitudeMeters>1059</AltitudeMeters>
            <DistanceMeters>NAN</DistanceMeters>
          </Trackpoint>
          <Trackpoint>
            <Time>2021-08-28T08:14:28.000Z</Time>
            <Position>
              <LatitudeDegrees>38.13416509889066219329833984375</LatitudeDegrees>
              <LongitudeDegrees>-2.04942787997424602508544921875</LongitudeDegrees>
            </Position>
            <AltitudeMeters>1058.4000244140625</AltitudeMeters>
            <DistanceMeters>NAN</DistanceMeters>
          </Trackpoint>
          <Trackpoint>
            <Time>2021-08-28T08:14:30.000Z</Time>
            <Position>
              <LatitudeDegrees>38.13401171006262302398681640625</LatitudeDegrees>
              <LongitudeDegrees>-2.04921414144337177276611328125</LongitudeDegrees>
            </Position>
            <AltitudeMeters>1057.4000244140625</AltitudeMeters>
            <DistanceMeters>NAN</DistanceMeters>
          </Trackpoint>
          <Trackpoint>
            <Time>2021-08-28T08:14:33.000Z</Time>
            <Position>
              <LatitudeDegrees>38.133783303201198577880859375</LatitudeDegrees>
              <LongitudeDegrees>-2.048884145915508270263671875</LongitudeDegrees>
            </Position>
            <AltitudeMeters>1056.800048828125</AltitudeMeters>
            <DistanceMeters>NAN</DistanceMeters>
          </Trackpoint>
          <Trackpoint>
            <Time>2021-08-28T08:14:34.000Z</Time>
            <Position>
              <LatitudeDegrees>38.13370493240654468536376953125</LatitudeDegrees>
              <LongitudeDegrees>-2.04878113232553005218505859375</LongitudeDegrees>
            </Position>
            <AltitudeMeters>1056</AltitudeMeters>
            <DistanceMeters>NAN</DistanceMeters>
          </Trackpoint>
          <Trackpoint>
            <Time>2021-08-28T08:14:36.000Z</Time>
            <Position>
              <LatitudeDegrees>38.13352639786899089813232421875</LatitudeDegrees>
              <LongitudeDegrees>-2.048593796789646148681640625</LongitudeDegrees>
            </Position>
            <AltitudeMeters>1054</AltitudeMeters>
            <DistanceMeters>NAN</DistanceMeters>
          </Trackpoint>
          <Trackpoint>
            <Time>2021-08-28T08:14:37.000Z</Time>
            <Position>
              <LatitudeDegrees>38.13352639786899089813232421875</LatitudeDegrees>
              <LongitudeDegrees>-2.048593796789646148681640625</LongitudeDegrees>
            </Position>
            <AltitudeMeters>1053.4000244140625</AltitudeMeters>
            <DistanceMeters>NAN</DistanceMeters>
          </Trackpoint>
          <Trackpoint>
            <Time>2021-08-28T08:14:39.000Z</Time>
            <Position>
              <LatitudeDegrees>38.13331483863294124603271484375</LatitudeDegrees>
              <LongitudeDegrees>-2.04846647568047046661376953125</LongitudeDegrees>
            </Position>
            <AltitudeMeters>1053</AltitudeMeters>
            <DistanceMeters>NAN</DistanceMeters>
          </Trackpoint>
          <Trackpoint>
            <Time>2021-08-28T08:14:41.000Z</Time>
            <Position>
              <LatitudeDegrees>38.1329804845154285430908203125</LatitudeDegrees>
              <LongitudeDegrees>-2.04832985065877437591552734375</LongitudeDegrees>
            </Position>
            <AltitudeMeters>1052.800048828125</AltitudeMeters>
            <DistanceMeters>NAN</DistanceMeters>
          </Trackpoint>
          <Trackpoint>
            <Time>2021-08-28T08:14:43.000Z</Time>
            <Position>
              <LatitudeDegrees>38.13275140710175037384033203125</LatitudeDegrees>
              <LongitudeDegrees>-2.04823630861937999725341796875</LongitudeDegrees>
            </Position>
            <AltitudeMeters>1051.800048828125</AltitudeMeters>
            <DistanceMeters>NAN</DistanceMeters>
          </Trackpoint>
          <Trackpoint>
            <Time>2021-08-28T08:14:45.000Z</Time>
            <Position>
              <LatitudeDegrees>38.1325315497815608978271484375</LatitudeDegrees>
              <LongitudeDegrees>-2.04814192838966846466064453125</LongitudeDegrees>
            </Position>
            <AltitudeMeters>1050</AltitudeMeters>
            <DistanceMeters>NAN</DistanceMeters>
          </Trackpoint>
          <Trackpoint>
            <Time>2021-08-28T08:14:48.000Z</Time>
            <Position>
              <LatitudeDegrees>38.1321890652179718017578125</LatitudeDegrees>
              <LongitudeDegrees>-2.0480353944003582000732421875</LongitudeDegrees>
            </Position>
            <AltitudeMeters>1049.199951171875</AltitudeMeters>
            <DistanceMeters>NAN</DistanceMeters>
          </Trackpoint>
          <Trackpoint>
            <Time>2021-08-28T08:14:50.000Z</Time>
            <Position>
              <LatitudeDegrees>38.13206777907907962799072265625</LatitudeDegrees>
              <LongitudeDegrees>-2.04802676104009151458740234375</LongitudeDegrees>
            </Position>
            <AltitudeMeters>1049</AltitudeMeters>
            <DistanceMeters>NAN</DistanceMeters>
          </Trackpoint>
          <Trackpoint>
            <Time>2021-08-28T08:14:51.000Z</Time>
            <Position>
              <LatitudeDegrees>38.13182218931615352630615234375</LatitudeDegrees>
              <LongitudeDegrees>-2.04802416265010833740234375</LongitudeDegrees>
            </Position>
            <AltitudeMeters>1048.5999755859375</AltitudeMeters>
            <DistanceMeters>NAN</DistanceMeters>
          </Trackpoint>
          <Trackpoint>
            <Time>2021-08-28T08:14:52.000Z</Time>
            <Position>
              <LatitudeDegrees>38.13182218931615352630615234375</LatitudeDegrees>
              <LongitudeDegrees>-2.04802416265010833740234375</LongitudeDegrees>
            </Position>
            <AltitudeMeters>1048</AltitudeMeters>
            <DistanceMeters>NAN</DistanceMeters>
          </Trackpoint>
          <Trackpoint>
            <Time>2021-08-28T08:14:53.000Z</Time>
            <Position>
              <LatitudeDegrees>38.131702579557895660400390625</LatitudeDegrees>
              <LongitudeDegrees>-2.04802424646914005279541015625</LongitudeDegrees>
            </Position>
            <AltitudeMeters>1047.5999755859375</AltitudeMeters>
            <DistanceMeters>NAN</DistanceMeters>
          </Trackpoint>
          <Trackpoint>
            <Time>2021-08-28T08:14:56.000Z</Time>
            <Position>
              <LatitudeDegrees>38.131352551281452178955078125</LatitudeDegrees>
              <LongitudeDegrees>-2.04803111962974071502685546875</LongitudeDegrees>
            </Position>
            <AltitudeMeters>1046</AltitudeMeters>
            <DistanceMeters>NAN</DistanceMeters>
          </Trackpoint>
          <Trackpoint>
            <Time>2021-08-28T08:14:58.000Z</Time>
            <Position>
              <LatitudeDegrees>38.1309983320534229278564453125</LatitudeDegrees>
              <LongitudeDegrees>-2.048037908971309661865234375</LongitudeDegrees>
            </Position>
            <AltitudeMeters>1045</AltitudeMeters>
            <DistanceMeters>NAN</DistanceMeters>
          </Trackpoint>
          <Trackpoint>
            <Time>2021-08-28T08:15:00.000Z</Time>
            <Position>
              <LatitudeDegrees>38.13076523132622241973876953125</LatitudeDegrees>
              <LongitudeDegrees>-2.048040926456451416015625</LongitudeDegrees>
            </Position>
            <AltitudeMeters>1044.199951171875</AltitudeMeters>
            <DistanceMeters>NAN</DistanceMeters>
          </Trackpoint>
          <Trackpoint>
            <Time>2021-08-28T08:15:03.000Z</Time>
            <Position>
              <LatitudeDegrees>38.13053824938833713531494140625</LatitudeDegrees>
              <LongitudeDegrees>-2.048037238419055938720703125</LongitudeDegrees>
            </Position>
            <AltitudeMeters>1043.800048828125</AltitudeMeters>
            <DistanceMeters>NAN</DistanceMeters>
          </Trackpoint>
          <Trackpoint>
            <Time>2021-08-28T08:15:06.000Z</Time>
            <Position>
              <LatitudeDegrees>38.13009099103510379791259765625</LatitudeDegrees>
              <LongitudeDegrees>-2.04803614877164363861083984375</LongitudeDegrees>
            </Position>
            <AltitudeMeters>1042.800048828125</AltitudeMeters>
            <DistanceMeters>NAN</DistanceMeters>
          </Trackpoint>
          <Trackpoint>
            <Time>2021-08-28T08:15:08.000Z</Time>
            <Position>
              <LatitudeDegrees>38.1298768334090709686279296875</LatitudeDegrees>
              <LongitudeDegrees>-2.04803061671555042266845703125</LongitudeDegrees>
            </Position>
            <AltitudeMeters>1042.4000244140625</AltitudeMeters>
            <DistanceMeters>NAN</DistanceMeters>
          </Trackpoint>
          <Trackpoint>
            <Time>2021-08-28T08:15:09.000Z</Time>
            <Position>
              <LatitudeDegrees>38.1297732330858707427978515625</LatitudeDegrees>
              <LongitudeDegrees>-2.0480261743068695068359375</LongitudeDegrees>
            </Position>
            <AltitudeMeters>1042.4000244140625</AltitudeMeters>
            <DistanceMeters>NAN</DistanceMeters>
          </Trackpoint>
          <Trackpoint>
            <Time>2021-08-28T08:15:12.000Z</Time>
            <Position>
              <LatitudeDegrees>38.12956653535366058349609375</LatitudeDegrees>
              <LongitudeDegrees>-2.0480229891836643218994140625</LongitudeDegrees>
            </Position>
            <AltitudeMeters>1041.800048828125</AltitudeMeters>
            <DistanceMeters>NAN</DistanceMeters>
          </Trackpoint>
          <Trackpoint>
            <Time>2021-08-28T08:15:15.000Z</Time>
            <Position>
              <LatitudeDegrees>38.1292538903653621673583984375</LatitudeDegrees>
              <LongitudeDegrees>-2.04802215099334716796875</LongitudeDegrees>
            </Position>
            <AltitudeMeters>1041.5999755859375</AltitudeMeters>
            <DistanceMeters>NAN</DistanceMeters>
          </Trackpoint>
          <Trackpoint>
            <Time>2021-08-28T08:15:18.000Z</Time>
            <Position>
              <LatitudeDegrees>38.1289457716047763824462890625</LatitudeDegrees>
              <LongitudeDegrees>-2.04802282154560089111328125</LongitudeDegrees>
            </Position>
            <AltitudeMeters>1042</AltitudeMeters>
            <DistanceMeters>NAN</DistanceMeters>
          </Trackpoint>
          <Trackpoint>
            <Time>2021-08-28T08:15:19.000Z</Time>
            <Position>
              <LatitudeDegrees>38.12884309329092502593994140625</LatitudeDegrees>
              <LongitudeDegrees>-2.04801821149885654449462890625</LongitudeDegrees>
            </Position>
            <AltitudeMeters>1042</AltitudeMeters>
            <DistanceMeters>NAN</DistanceMeters>
          </Trackpoint>
          <Trackpoint>
            <Time>2021-08-28T08:15:25.000Z</Time>
            <Position>
              <LatitudeDegrees>38.12824948690831661224365234375</LatitudeDegrees>
              <LongitudeDegrees>-2.04802307300269603729248046875</LongitudeDegrees>
            </Position>
            <AltitudeMeters>1041.5999755859375</AltitudeMeters>
            <DistanceMeters>NAN</DistanceMeters>
          </Trackpoint>
          <Trackpoint>
            <Time>2021-08-28T08:15:26.000Z</Time>
            <Position>
              <LatitudeDegrees>38.12814840115606784820556640625</LatitudeDegrees>
              <LongitudeDegrees>-2.04802977852523326873779296875</LongitudeDegrees>
            </Position>
            <AltitudeMeters>1041.4000244140625</AltitudeMeters>
            <DistanceMeters>NAN</DistanceMeters>
          </Trackpoint>
          <Trackpoint>
            <Time>2021-08-28T08:15:29.000Z</Time>
            <Position>
              <LatitudeDegrees>38.12784112058579921722412109375</LatitudeDegrees>
              <LongitudeDegrees>-2.04807034693658351898193359375</LongitudeDegrees>
            </Position>
            <AltitudeMeters>1040.800048828125</AltitudeMeters>
            <DistanceMeters>NAN</DistanceMeters>
          </Trackpoint>
          <Trackpoint>
            <Time>2021-08-28T08:15:30.000Z</Time>
            <Position>
              <LatitudeDegrees>38.12773735262453556060791015625</LatitudeDegrees>
              <LongitudeDegrees>-2.04808878712356090545654296875</LongitudeDegrees>
            </Position>
            <AltitudeMeters>1040.5999755859375</AltitudeMeters>
            <DistanceMeters>NAN</DistanceMeters>
          </Trackpoint>
          <Trackpoint>
            <Time>2021-08-28T08:15:33.000Z</Time>
            <Position>
              <LatitudeDegrees>38.1274200975894927978515625</LatitudeDegrees>
              <LongitudeDegrees>-2.048148550093173980712890625</LongitudeDegrees>
            </Position>
            <AltitudeMeters>1039.800048828125</AltitudeMeters>
            <DistanceMeters>NAN</DistanceMeters>
          </Trackpoint>
          <Trackpoint>
            <Time>2021-08-28T08:15:35.000Z</Time>
            <Position>
              <LatitudeDegrees>38.1272041797637939453125</LatitudeDegrees>
              <LongitudeDegrees>-2.0481936447322368621826171875</LongitudeDegrees>
            </Position>
            <AltitudeMeters>1039.4000244140625</AltitudeMeters>
            <DistanceMeters>NAN</DistanceMeters>
          </Trackpoint>
          <Trackpoint>
            <Time>2021-08-28T08:15:38.000Z</Time>
            <Position>
              <LatitudeDegrees>38.12687099911272525787353515625</LatitudeDegrees>
              <LongitudeDegrees>-2.0482541620731353759765625</LongitudeDegrees>
            </Position>
            <AltitudeMeters>1038.4000244140625</AltitudeMeters>
            <DistanceMeters>NAN</DistanceMeters>
          </Trackpoint>
          <Trackpoint>
            <Time>2021-08-28T08:15:41.000Z</Time>
            <Position>
              <LatitudeDegrees>38.126535974442958831787109375</LatitudeDegrees>
              <LongitudeDegrees>-2.04831786453723907470703125</LongitudeDegrees>
            </Position>
            <AltitudeMeters>1037.4000244140625</AltitudeMeters>
            <DistanceMeters>NAN</DistanceMeters>
          </Trackpoint>
          <Trackpoint>
            <Time>2021-08-28T08:15:42.000Z</Time>
            <Position>
              <LatitudeDegrees>38.126423656940460205078125</LatitudeDegrees>
              <LongitudeDegrees>-2.04833672381937503814697265625</LongitudeDegrees>
            </Position>
            <AltitudeMeters>1037.199951171875</AltitudeMeters>
            <DistanceMeters>NAN</DistanceMeters>
          </Trackpoint>
          <Trackpoint>
            <Time>2021-08-28T08:15:45.000Z</Time>
            <Position>
              <LatitudeDegrees>38.125975392758846282958984375</LatitudeDegrees>
              <LongitudeDegrees>-2.048416100442409515380859375</LongitudeDegrees>
            </Position>
            <AltitudeMeters>1035.5999755859375</AltitudeMeters>
            <DistanceMeters>NAN</DistanceMeters>
          </Trackpoint>
          <Trackpoint>
            <Time>2021-08-28T08:15:47.000Z</Time>
            <Position>
              <LatitudeDegrees>38.12586382962763309478759765625</LatitudeDegrees>
              <LongitudeDegrees>-2.0484394021332263946533203125</LongitudeDegrees>
            </Position>
            <AltitudeMeters>1034.5999755859375</AltitudeMeters>
            <DistanceMeters>NAN</DistanceMeters>
          </Trackpoint>
          <Trackpoint>
            <Time>2021-08-28T08:15:49.000Z</Time>
            <Position>
              <LatitudeDegrees>38.1256402842700481414794921875</LatitudeDegrees>
              <LongitudeDegrees>-2.04850184731185436248779296875</LongitudeDegrees>
            </Position>
            <AltitudeMeters>1033.5999755859375</AltitudeMeters>
            <DistanceMeters>NAN</DistanceMeters>
          </Trackpoint>
          <Trackpoint>
            <Time>2021-08-28T08:15:53.000Z</Time>
            <Position>
              <LatitudeDegrees>38.125078864395618438720703125</LatitudeDegrees>
              <LongitudeDegrees>-2.0486683957278728485107421875</LongitudeDegrees>
            </Position>
            <AltitudeMeters>1032.4000244140625</AltitudeMeters>
            <DistanceMeters>NAN</DistanceMeters>
          </Trackpoint>
          <Trackpoint>
            <Time>2021-08-28T08:15:56.000Z</Time>
            <Position>
              <LatitudeDegrees>38.124739229679107666015625</LatitudeDegrees>
              <LongitudeDegrees>-2.04872044734656810760498046875</LongitudeDegrees>
            </Position>
            <AltitudeMeters>1031.199951171875</AltitudeMeters>
            <DistanceMeters>NAN</DistanceMeters>
          </Trackpoint>
          <Trackpoint>
            <Time>2021-08-28T08:15:57.000Z</Time>
            <Position>
              <LatitudeDegrees>38.124739229679107666015625</LatitudeDegrees>
              <LongitudeDegrees>-2.04872044734656810760498046875</LongitudeDegrees>
            </Position>
            <AltitudeMeters>1030.800048828125</AltitudeMeters>
            <DistanceMeters>NAN</DistanceMeters>
          </Trackpoint>
          <Trackpoint>
            <Time>2021-08-28T08:16:00.000Z</Time>
            <Position>
              <LatitudeDegrees>38.124396242201328277587890625</LatitudeDegrees>
              <LongitudeDegrees>-2.0487310923635959625244140625</LongitudeDegrees>
            </Position>
            <AltitudeMeters>1029.5999755859375</AltitudeMeters>
            <DistanceMeters>NAN</DistanceMeters>
          </Trackpoint>
          <Trackpoint>
            <Time>2021-08-28T08:16:04.000Z</Time>
            <Position>
              <LatitudeDegrees>38.123939931392669677734375</LatitudeDegrees>
              <LongitudeDegrees>-2.0487206988036632537841796875</LongitudeDegrees>
            </Position>
            <AltitudeMeters>1028.5999755859375</AltitudeMeters>
            <DistanceMeters>NAN</DistanceMeters>
          </Trackpoint>
          <Trackpoint>
            <Time>2021-08-28T08:16:06.000Z</Time>
            <Position>
              <LatitudeDegrees>38.12371303327381610870361328125</LatitudeDegrees>
              <LongitudeDegrees>-2.0487086288630962371826171875</LongitudeDegrees>
            </Position>
            <AltitudeMeters>1027.4000244140625</AltitudeMeters>
            <DistanceMeters>NAN</DistanceMeters>
          </Trackpoint>
          <Trackpoint>
            <Time>2021-08-28T08:16:09.000Z</Time>
            <Position>
              <LatitudeDegrees>38.123378343880176544189453125</LatitudeDegrees>
              <LongitudeDegrees>-2.04869613982737064361572265625</LongitudeDegrees>
            </Position>
            <AltitudeMeters>1025.800048828125</AltitudeMeters>
            <DistanceMeters>NAN</DistanceMeters>
          </Trackpoint>
          <Trackpoint>
            <Time>2021-08-28T08:16:12.000Z</Time>
            <Position>
              <LatitudeDegrees>38.1230341829359531402587890625</LatitudeDegrees>
              <LongitudeDegrees>-2.04868909902870655059814453125</LongitudeDegrees>
            </Position>
            <AltitudeMeters>1024.800048828125</AltitudeMeters>
            <DistanceMeters>NAN</DistanceMeters>
          </Trackpoint>
          <Trackpoint>
            <Time>2021-08-28T08:16:13.000Z</Time>
            <Position>
              <LatitudeDegrees>38.12292144633829593658447265625</LatitudeDegrees>
              <LongitudeDegrees>-2.04868624918162822723388671875</LongitudeDegrees>
            </Position>
            <AltitudeMeters>1024.800048828125</AltitudeMeters>
            <DistanceMeters>NAN</DistanceMeters>
          </Trackpoint>
          <Trackpoint>
            <Time>2021-08-28T08:16:17.000Z</Time>
            <Position>
              <LatitudeDegrees>38.1224896945059299468994140625</LatitudeDegrees>
              <LongitudeDegrees>-2.04863863997161388397216796875</LongitudeDegrees>
            </Position>
            <AltitudeMeters>1023.5999755859375</AltitudeMeters>
            <DistanceMeters>NAN</DistanceMeters>
          </Trackpoint>
          <Trackpoint>
            <Time>2021-08-28T08:16:19.000Z</Time>
            <Position>
              <LatitudeDegrees>38.12227486632764339447021484375</LatitudeDegrees>
              <LongitudeDegrees>-2.0485896058380603790283203125</LongitudeDegrees>
            </Position>
            <AltitudeMeters>1022.79998779296875</AltitudeMeters>
            <DistanceMeters>NAN</DistanceMeters>
          </Trackpoint>
          <Trackpoint>
            <Time>2021-08-28T08:16:22.000Z</Time>
            <Position>
              <LatitudeDegrees>38.1219395063817501068115234375</LatitudeDegrees>
              <LongitudeDegrees>-2.048489190638065338134765625</LongitudeDegrees>
            </Position>
            <AltitudeMeters>1022</AltitudeMeters>
            <DistanceMeters>NAN</DistanceMeters>
          </Trackpoint>
          <Trackpoint>
            <Time>2021-08-28T08:16:23.000Z</Time>
            <Position>
              <LatitudeDegrees>38.121828027069568634033203125</LatitudeDegrees>
              <LongitudeDegrees>-2.04845423810184001922607421875</LongitudeDegrees>
            </Position>
            <AltitudeMeters>1021</AltitudeMeters>
            <DistanceMeters>NAN</DistanceMeters>
          </Trackpoint>
          <Trackpoint>
            <Time>2021-08-28T08:16:25.000Z</Time>
            <Position>
              <LatitudeDegrees>38.12160263769328594207763671875</LatitudeDegrees>
              <LongitudeDegrees>-2.04839120618999004364013671875</LongitudeDegrees>
            </Position>
            <AltitudeMeters>1019.20001220703125</AltitudeMeters>
            <DistanceMeters>NAN</DistanceMeters>
          </Trackpoint>
          <Trackpoint>
            <Time>2021-08-28T08:16:27.000Z</Time>
            <Position>
              <LatitudeDegrees>38.1213681958615779876708984375</LatitudeDegrees>
              <LongitudeDegrees>-2.048322893679141998291015625</LongitudeDegrees>
            </Position>
            <AltitudeMeters>1018.5999755859375</AltitudeMeters>
            <DistanceMeters>NAN</DistanceMeters>
          </Trackpoint>
          <Trackpoint>
            <Time>2021-08-28T08:16:29.000Z</Time>
            <Position>
              <LatitudeDegrees>38.12112738378345966339111328125</LatitudeDegrees>
              <LongitudeDegrees>-2.0482541620731353759765625</LongitudeDegrees>
            </Position>
            <AltitudeMeters>1017.79998779296875</AltitudeMeters>
            <DistanceMeters>NAN</DistanceMeters>
          </Trackpoint>
          <Trackpoint>
            <Time>2021-08-28T08:16:31.000Z</Time>
            <Position>
              <LatitudeDegrees>38.1208889186382293701171875</LatitudeDegrees>
              <LongitudeDegrees>-2.04817629419267177581787109375</LongitudeDegrees>
            </Position>
            <AltitudeMeters>1016.5999755859375</AltitudeMeters>
            <DistanceMeters>NAN</DistanceMeters>
          </Trackpoint>
          <Trackpoint>
            <Time>2021-08-28T08:16:33.000Z</Time>
            <Position>
              <LatitudeDegrees>38.12064777128398418426513671875</LatitudeDegrees>
              <LongitudeDegrees>-2.0480712689459323883056640625</LongitudeDegrees>
            </Position>
            <AltitudeMeters>1015.20001220703125</AltitudeMeters>
            <DistanceMeters>NAN</DistanceMeters>
          </Trackpoint>
          <Trackpoint>
            <Time>2021-08-28T08:16:34.000Z</Time>
            <Position>
              <LatitudeDegrees>38.12053042463958263397216796875</LatitudeDegrees>
              <LongitudeDegrees>-2.0480079017579555511474609375</LongitudeDegrees>
            </Position>
            <AltitudeMeters>1014.79998779296875</AltitudeMeters>
            <DistanceMeters>NAN</DistanceMeters>
          </Trackpoint>
          <Trackpoint>
            <Time>2021-08-28T08:16:35.000Z</Time>
            <Position>
              <LatitudeDegrees>38.12041257508099079132080078125</LatitudeDegrees>
              <LongitudeDegrees>-2.0479401759803295135498046875</LongitudeDegrees>
            </Position>
            <AltitudeMeters>1014.20001220703125</AltitudeMeters>
            <DistanceMeters>NAN</DistanceMeters>
          </Trackpoint>
          <Trackpoint>
            <Time>2021-08-28T08:16:37.000Z</Time>
            <Position>
              <LatitudeDegrees>38.12018282711505889892578125</LatitudeDegrees>
              <LongitudeDegrees>-2.04780195839703083038330078125</LongitudeDegrees>
            </Position>
            <AltitudeMeters>1012.79998779296875</AltitudeMeters>
            <DistanceMeters>NAN</DistanceMeters>
          </Trackpoint>
          <Trackpoint>
            <Time>2021-08-28T08:16:40.000Z</Time>
            <Position>
              <LatitudeDegrees>38.11985199339687824249267578125</LatitudeDegrees>
              <LongitudeDegrees>-2.04759056679904460906982421875</LongitudeDegrees>
            </Position>
            <AltitudeMeters>1012.4000244140625</AltitudeMeters>
            <DistanceMeters>NAN</DistanceMeters>
          </Trackpoint>
          <Trackpoint>
            <Time>2021-08-28T08:16:45.000Z</Time>
            <Position>
              <LatitudeDegrees>38.11935779638588428497314453125</LatitudeDegrees>
              <LongitudeDegrees>-2.0472823642194271087646484375</LongitudeDegrees>
            </Position>
            <AltitudeMeters>1012.4000244140625</AltitudeMeters>
            <DistanceMeters>NAN</DistanceMeters>
          </Trackpoint>
          <Trackpoint>
            <Time>2021-08-28T08:16:46.000Z</Time>
            <Position>
              <LatitudeDegrees>38.11926777474582195281982421875</LatitudeDegrees>
              <LongitudeDegrees>-2.04722377471625804901123046875</LongitudeDegrees>
            </Position>
            <AltitudeMeters>1012</AltitudeMeters>
            <DistanceMeters>NAN</DistanceMeters>
          </Trackpoint>
          <Trackpoint>
            <Time>2021-08-28T08:16:47.000Z</Time>
            <Position>
              <LatitudeDegrees>38.11917808838188648223876953125</LatitudeDegrees>
              <LongitudeDegrees>-2.04716661013662815093994140625</LongitudeDegrees>
            </Position>
            <AltitudeMeters>1011.5999755859375</AltitudeMeters>
            <DistanceMeters>NAN</DistanceMeters>
          </Trackpoint>
          <Trackpoint>
            <Time>2021-08-28T08:16:53.000Z</Time>
            <Position>
              <LatitudeDegrees>38.1186631880700588226318359375</LatitudeDegrees>
              <LongitudeDegrees>-2.04683384858071804046630859375</LongitudeDegrees>
            </Position>
            <AltitudeMeters>1010.79998779296875</AltitudeMeters>
            <DistanceMeters>NAN</DistanceMeters>
          </Trackpoint>
          <Trackpoint>
            <Time>2021-08-28T08:16:54.000Z</Time>
            <Position>
              <LatitudeDegrees>38.11857475899159908294677734375</LatitudeDegrees>
              <LongitudeDegrees>-2.0467789471149444580078125</LongitudeDegrees>
            </Position>
            <AltitudeMeters>1010.4000244140625</AltitudeMeters>
            <DistanceMeters>NAN</DistanceMeters>
          </Trackpoint>
          <Trackpoint>
            <Time>2021-08-28T08:16:58.000Z</Time>
            <Position>
              <LatitudeDegrees>38.11822271905839443206787109375</LatitudeDegrees>
              <LongitudeDegrees>-2.0465576648712158203125</LongitudeDegrees>
            </Position>
            <AltitudeMeters>1009</AltitudeMeters>
            <DistanceMeters>NAN</DistanceMeters>
          </Trackpoint>
          <Trackpoint>
            <Time>2021-08-28T08:17:04.000Z</Time>
            <Position>
              <LatitudeDegrees>38.11770220287144184112548828125</LatitudeDegrees>
              <LongitudeDegrees>-2.04625566489994525909423828125</LongitudeDegrees>
            </Position>
            <AltitudeMeters>1008.20001220703125</AltitudeMeters>
            <DistanceMeters>NAN</DistanceMeters>
          </Trackpoint>
          <Trackpoint>
            <Time>2021-08-28T08:17:06.000Z</Time>
            <Position>
              <LatitudeDegrees>38.1175296194851398468017578125</LatitudeDegrees>
              <LongitudeDegrees>-2.04615893773734569549560546875</LongitudeDegrees>
            </Position>
            <AltitudeMeters>1008.20001220703125</AltitudeMeters>
            <DistanceMeters>NAN</DistanceMeters>
          </Trackpoint>
          <Trackpoint>
            <Time>2021-08-28T08:17:10.000Z</Time>
            <Position>
              <LatitudeDegrees>38.11719057150185108184814453125</LatitudeDegrees>
              <LongitudeDegrees>-2.04596950672566890716552734375</LongitudeDegrees>
            </Position>
            <AltitudeMeters>1008</AltitudeMeters>
            <DistanceMeters>NAN</DistanceMeters>
          </Trackpoint>
          <Trackpoint>
            <Time>2021-08-28T08:17:16.000Z</Time>
            <Position>
              <LatitudeDegrees>38.11669251881539821624755859375</LatitudeDegrees>
              <LongitudeDegrees>-2.04569441266357898712158203125</LongitudeDegrees>
            </Position>
            <AltitudeMeters>1007.79998779296875</AltitudeMeters>
            <DistanceMeters>NAN</DistanceMeters>
          </Trackpoint>
          <Trackpoint>
            <Time>2021-08-28T08:17:22.000Z</Time>
            <Position>
              <LatitudeDegrees>38.11620301567018032073974609375</LatitudeDegrees>
              <LongitudeDegrees>-2.04537875019013881683349609375</LongitudeDegrees>
            </Position>
            <AltitudeMeters>1008</AltitudeMeters>
            <DistanceMeters>NAN</DistanceMeters>
          </Trackpoint>
          <Trackpoint>
            <Time>2021-08-28T08:17:26.000Z</Time>
            <Position>
              <LatitudeDegrees>38.11587117612361907958984375</LatitudeDegrees>
              <LongitudeDegrees>-2.045166604220867156982421875</LongitudeDegrees>
            </Position>
            <AltitudeMeters>1007.20001220703125</AltitudeMeters>
            <DistanceMeters>NAN</DistanceMeters>
          </Trackpoint>
          <Trackpoint>
            <Time>2021-08-28T08:17:28.000Z</Time>
            <Position>
              <LatitudeDegrees>38.1157030351459980010986328125</LatitudeDegrees>
              <LongitudeDegrees>-2.04506493173539638519287109375</LongitudeDegrees>
            </Position>
            <AltitudeMeters>1006.79998779296875</AltitudeMeters>
            <DistanceMeters>NAN</DistanceMeters>
          </Trackpoint>
          <Trackpoint>
            <Time>2021-08-28T08:17:34.000Z</Time>
            <Position>
              <LatitudeDegrees>38.115200959146022796630859375</LatitudeDegrees>
              <LongitudeDegrees>-2.04477625899016857147216796875</LongitudeDegrees>
            </Position>
            <AltitudeMeters>1007.20001220703125</AltitudeMeters>
            <DistanceMeters>NAN</DistanceMeters>
          </Trackpoint>
          <Trackpoint>
            <Time>2021-08-28T08:17:36.000Z</Time>
            <Position>
              <LatitudeDegrees>38.115037344396114349365234375</LatitudeDegrees>
              <LongitudeDegrees>-2.04467165283858776092529296875</LongitudeDegrees>
            </Position>
            <AltitudeMeters>1007.4000244140625</AltitudeMeters>
            <DistanceMeters>NAN</DistanceMeters>
          </Trackpoint>
          <Trackpoint>
            <Time>2021-08-28T08:17:42.000Z</Time>
            <Position>
              <LatitudeDegrees>38.11458312906324863433837890625</LatitudeDegrees>
              <LongitudeDegrees>-2.04431022517383098602294921875</LongitudeDegrees>
            </Position>
            <AltitudeMeters>1006.79998779296875</AltitudeMeters>
            <DistanceMeters>NAN</DistanceMeters>
          </Trackpoint>
          <Trackpoint>
            <Time>2021-08-28T08:17:49.000Z</Time>
            <Position>
              <LatitudeDegrees>38.11408893205225467681884765625</LatitudeDegrees>
              <LongitudeDegrees>-2.04381418414413928985595703125</LongitudeDegrees>
            </Position>
            <AltitudeMeters>1006</AltitudeMeters>
            <DistanceMeters>NAN</DistanceMeters>
          </Trackpoint>
          <Trackpoint>
            <Time>2021-08-28T08:17:51.000Z</Time>
            <Position>
              <LatitudeDegrees>38.1139495410025119781494140625</LatitudeDegrees>
              <LongitudeDegrees>-2.0436546765267848968505859375</LongitudeDegrees>
            </Position>
            <AltitudeMeters>1006</AltitudeMeters>
            <DistanceMeters>NAN</DistanceMeters>
          </Trackpoint>
          <Trackpoint>
            <Time>2021-08-28T08:17:57.000Z</Time>
            <Position>
              <LatitudeDegrees>38.1135314516723155975341796875</LatitudeDegrees>
              <LongitudeDegrees>-2.043193168938159942626953125</LongitudeDegrees>
            </Position>
            <AltitudeMeters>1006.20001220703125</AltitudeMeters>
            <DistanceMeters>NAN</DistanceMeters>
          </Trackpoint>
          <Trackpoint>
            <Time>2021-08-28T08:17:58.000Z</Time>
            <Position>
              <LatitudeDegrees>38.11345852911472320556640625</LatitudeDegrees>
              <LongitudeDegrees>-2.04312284477055072784423828125</LongitudeDegrees>
            </Position>
            <AltitudeMeters>1005.79998779296875</AltitudeMeters>
            <DistanceMeters>NAN</DistanceMeters>
          </Trackpoint>
          <Trackpoint>
            <Time>2021-08-28T08:18:00.000Z</Time>
            <Position>
              <LatitudeDegrees>38.11331293545663356781005859375</LatitudeDegrees>
              <LongitudeDegrees>-2.0429770834743976593017578125</LongitudeDegrees>
            </Position>
            <AltitudeMeters>1005</AltitudeMeters>
            <DistanceMeters>NAN</DistanceMeters>
          </Trackpoint>
          <Trackpoint>
            <Time>2021-08-28T08:18:01.000Z</Time>
            <Position>
              <LatitudeDegrees>38.113240934908390045166015625</LatitudeDegrees>
              <LongitudeDegrees>-2.04290114343166351318359375</LongitudeDegrees>
            </Position>
            <AltitudeMeters>1004.79998779296875</AltitudeMeters>
            <DistanceMeters>NAN</DistanceMeters>
          </Trackpoint>
          <Trackpoint>
            <Time>2021-08-28T08:18:07.000Z</Time>
            <Position>
              <LatitudeDegrees>38.1128183193504810333251953125</LatitudeDegrees>
              <LongitudeDegrees>-2.04243536107242107391357421875</LongitudeDegrees>
            </Position>
            <AltitudeMeters>1004.20001220703125</AltitudeMeters>
            <DistanceMeters>NAN</DistanceMeters>
          </Trackpoint>
          <Trackpoint>
            <Time>2021-08-28T08:18:10.000Z</Time>
            <Position>
              <LatitudeDegrees>38.11259645037353038787841796875</LatitudeDegrees>
              <LongitudeDegrees>-2.0422089658677577972412109375</LongitudeDegrees>
            </Position>
            <AltitudeMeters>1004.20001220703125</AltitudeMeters>
            <DistanceMeters>NAN</DistanceMeters>
          </Trackpoint>
          <Trackpoint>
            <Time>2021-08-28T08:18:14.000Z</Time>
            <Position>
              <LatitudeDegrees>38.112315572798252105712890625</LatitudeDegrees>
              <LongitudeDegrees>-2.04190059565007686614990234375</LongitudeDegrees>
            </Position>
            <AltitudeMeters>1003.5999755859375</AltitudeMeters>
            <DistanceMeters>NAN</DistanceMeters>
          </Trackpoint>
          <Trackpoint>
            <Time>2021-08-28T08:18:20.000Z</Time>
            <Position>
              <LatitudeDegrees>38.1118815578520298004150390625</LatitudeDegrees>
              <LongitudeDegrees>-2.04142785631120204925537109375</LongitudeDegrees>
            </Position>
            <AltitudeMeters>1003</AltitudeMeters>
            <DistanceMeters>NAN</DistanceMeters>
          </Trackpoint>
          <Trackpoint>
            <Time>2021-08-28T08:18:21.000Z</Time>
            <Position>
              <LatitudeDegrees>38.11181039549410343170166015625</LatitudeDegrees>
              <LongitudeDegrees>-2.0413416065275669097900390625</LongitudeDegrees>
            </Position>
            <AltitudeMeters>1003.5999755859375</AltitudeMeters>
            <DistanceMeters>NAN</DistanceMeters>
          </Trackpoint>
          <Trackpoint>
            <Time>2021-08-28T08:18:27.000Z</Time>
            <Position>
              <LatitudeDegrees>38.1113873608410358428955078125</LatitudeDegrees>
              <LongitudeDegrees>-2.04083072952926158905029296875</LongitudeDegrees>
            </Position>
            <AltitudeMeters>1003.5999755859375</AltitudeMeters>
            <DistanceMeters>NAN</DistanceMeters>
          </Trackpoint>
          <Trackpoint>
            <Time>2021-08-28T08:18:30.000Z</Time>
            <Position>
              <LatitudeDegrees>38.11117655597627162933349609375</LatitudeDegrees>
              <LongitudeDegrees>-2.040567956864833831787109375</LongitudeDegrees>
            </Position>
            <AltitudeMeters>1003.4000244140625</AltitudeMeters>
            <DistanceMeters>NAN</DistanceMeters>
          </Trackpoint>
          <Trackpoint>
            <Time>2021-08-28T08:18:35.000Z</Time>
            <Position>
              <LatitudeDegrees>38.1108225882053375244140625</LatitudeDegrees>
              <LongitudeDegrees>-2.04012899659574031829833984375</LongitudeDegrees>
            </Position>
            <AltitudeMeters>1002.4000244140625</AltitudeMeters>
            <DistanceMeters>NAN</DistanceMeters>
          </Trackpoint>
          <Trackpoint>
            <Time>2021-08-28T08:18:40.000Z</Time>
            <Position>
              <LatitudeDegrees>38.1104757450520992279052734375</LatitudeDegrees>
              <LongitudeDegrees>-2.0396806485950946807861328125</LongitudeDegrees>
            </Position>
            <AltitudeMeters>1001.4000244140625</AltitudeMeters>
            <DistanceMeters>NAN</DistanceMeters>
          </Trackpoint>
          <Trackpoint>
            <Time>2021-08-28T08:18:46.000Z</Time>
            <Position>
              <LatitudeDegrees>38.11005824245512485504150390625</LatitudeDegrees>
              <LongitudeDegrees>-2.039162814617156982421875</LongitudeDegrees>
            </Position>
            <AltitudeMeters>1001</AltitudeMeters>
            <DistanceMeters>NAN</DistanceMeters>
          </Trackpoint>
          <Trackpoint>
            <Time>2021-08-28T08:18:51.000Z</Time>
            <Position>
              <LatitudeDegrees>38.10970318503677845001220703125</LatitudeDegrees>
              <LongitudeDegrees>-2.03872435726225376129150390625</LongitudeDegrees>
            </Position>
            <AltitudeMeters>1001</AltitudeMeters>
            <DistanceMeters>NAN</DistanceMeters>
          </Trackpoint>
          <Trackpoint>
            <Time>2021-08-28T08:18:56.000Z</Time>
            <Position>
              <LatitudeDegrees>38.10934795998036861419677734375</LatitudeDegrees>
              <LongitudeDegrees>-2.03827626071870326995849609375</LongitudeDegrees>
            </Position>
            <AltitudeMeters>1000.4000244140625</AltitudeMeters>
            <DistanceMeters>NAN</DistanceMeters>
          </Trackpoint>
          <Trackpoint>
            <Time>2021-08-28T08:19:01.000Z</Time>
            <Position>
              <LatitudeDegrees>38.1090013682842254638671875</LatitudeDegrees>
              <LongitudeDegrees>-2.0378423295915126800537109375</LongitudeDegrees>
            </Position>
            <AltitudeMeters>1000.4000244140625</AltitudeMeters>
            <DistanceMeters>NAN</DistanceMeters>
          </Trackpoint>
          <Trackpoint>
            <Time>2021-08-28T08:19:02.000Z</Time>
            <Position>
              <LatitudeDegrees>38.10893456451594829559326171875</LatitudeDegrees>
              <LongitudeDegrees>-2.03775725327432155609130859375</LongitudeDegrees>
            </Position>
            <AltitudeMeters>1000.4000244140625</AltitudeMeters>
            <DistanceMeters>NAN</DistanceMeters>
          </Trackpoint>
          <Trackpoint>
            <Time>2021-08-28T08:19:08.000Z</Time>
            <Position>
              <LatitudeDegrees>38.10854413546621799468994140625</LatitudeDegrees>
              <LongitudeDegrees>-2.03727118670940399169921875</LongitudeDegrees>
            </Position>
            <AltitudeMeters>1001</AltitudeMeters>
            <DistanceMeters>NAN</DistanceMeters>
          </Trackpoint>
          <Trackpoint>
            <Time>2021-08-28T08:19:11.000Z</Time>
            <Position>
              <LatitudeDegrees>38.10834380798041820526123046875</LatitudeDegrees>
              <LongitudeDegrees>-2.0370232500135898590087890625</LongitudeDegrees>
            </Position>
            <AltitudeMeters>1001</AltitudeMeters>
            <DistanceMeters>NAN</DistanceMeters>
          </Trackpoint>
          <Trackpoint>
            <Time>2021-08-28T08:19:17.000Z</Time>
            <Position>
              <LatitudeDegrees>38.10793410055339336395263671875</LatitudeDegrees>
              <LongitudeDegrees>-2.0365099422633647918701171875</LongitudeDegrees>
            </Position>
            <AltitudeMeters>1000.20001220703125</AltitudeMeters>
            <DistanceMeters>NAN</DistanceMeters>
          </Trackpoint>
          <Trackpoint>
            <Time>2021-08-28T08:19:21.000Z</Time>
            <Position>
              <LatitudeDegrees>38.10765079222619533538818359375</LatitudeDegrees>
              <LongitudeDegrees>-2.0361585728824138641357421875</LongitudeDegrees>
            </Position>
            <AltitudeMeters>999.5999755859375</AltitudeMeters>
            <DistanceMeters>NAN</DistanceMeters>
          </Trackpoint>
          <Trackpoint>
            <Time>2021-08-28T08:19:22.000Z</Time>
            <Position>
              <LatitudeDegrees>38.1075792945921421051025390625</LatitudeDegrees>
              <LongitudeDegrees>-2.03606796450912952423095703125</LongitudeDegrees>
            </Position>
            <AltitudeMeters>999.4000244140625</AltitudeMeters>
            <DistanceMeters>NAN</DistanceMeters>
          </Trackpoint>
          <Trackpoint>
            <Time>2021-08-28T08:19:26.000Z</Time>
            <Position>
              <LatitudeDegrees>38.10729254968464374542236328125</LatitudeDegrees>
              <LongitudeDegrees>-2.035707123577594757080078125</LongitudeDegrees>
            </Position>
            <AltitudeMeters>998.20001220703125</AltitudeMeters>
            <DistanceMeters>NAN</DistanceMeters>
          </Trackpoint>
          <Trackpoint>
            <Time>2021-08-28T08:19:29.000Z</Time>
            <Position>
              <LatitudeDegrees>38.107069842517375946044921875</LatitudeDegrees>
              <LongitudeDegrees>-2.03543848358094692230224609375</LongitudeDegrees>
            </Position>
            <AltitudeMeters>998</AltitudeMeters>
            <DistanceMeters>NAN</DistanceMeters>
          </Trackpoint>
          <Trackpoint>
            <Time>2021-08-28T08:19:35.000Z</Time>
            <Position>
              <LatitudeDegrees>38.10662954114377498626708984375</LatitudeDegrees>
              <LongitudeDegrees>-2.03488938510417938232421875</LongitudeDegrees>
            </Position>
            <AltitudeMeters>997</AltitudeMeters>
            <DistanceMeters>NAN</DistanceMeters>
          </Trackpoint>
          <Trackpoint>
            <Time>2021-08-28T08:19:39.000Z</Time>
            <Position>
              <LatitudeDegrees>38.10632460750639438629150390625</LatitudeDegrees>
              <LongitudeDegrees>-2.0345090143382549285888671875</LongitudeDegrees>
            </Position>
            <AltitudeMeters>996.20001220703125</AltitudeMeters>
            <DistanceMeters>NAN</DistanceMeters>
          </Trackpoint>
          <Trackpoint>
            <Time>2021-08-28T08:19:40.000Z</Time>
            <Position>
              <LatitudeDegrees>38.10624866746366024017333984375</LatitudeDegrees>
              <LongitudeDegrees>-2.034412287175655364990234375</LongitudeDegrees>
            </Position>
            <AltitudeMeters>995.79998779296875</AltitudeMeters>
            <DistanceMeters>NAN</DistanceMeters>
          </Trackpoint>
          <Trackpoint>
            <Time>2021-08-28T08:19:43.000Z</Time>
            <Position>
              <LatitudeDegrees>38.10602587647736072540283203125</LatitudeDegrees>
              <LongitudeDegrees>-2.03413040377199649810791015625</LongitudeDegrees>
            </Position>
            <AltitudeMeters>994.79998779296875</AltitudeMeters>
            <DistanceMeters>NAN</DistanceMeters>
          </Trackpoint>
          <Trackpoint>
            <Time>2021-08-28T08:19:48.000Z</Time>
            <Position>
              <LatitudeDegrees>38.10565958730876445770263671875</LatitudeDegrees>
              <LongitudeDegrees>-2.03366889618337154388427734375</LongitudeDegrees>
            </Position>
            <AltitudeMeters>993.79998779296875</AltitudeMeters>
            <DistanceMeters>NAN</DistanceMeters>
          </Trackpoint>
          <Trackpoint>
            <Time>2021-08-28T08:19:49.000Z</Time>
            <Position>
              <LatitudeDegrees>38.10558549128472805023193359375</LatitudeDegrees>
              <LongitudeDegrees>-2.033576108515262603759765625</LongitudeDegrees>
            </Position>
            <AltitudeMeters>993.79998779296875</AltitudeMeters>
            <DistanceMeters>NAN</DistanceMeters>
          </Trackpoint>
          <Trackpoint>
            <Time>2021-08-28T08:19:55.000Z</Time>
            <Position>
              <LatitudeDegrees>38.10513957403600215911865234375</LatitudeDegrees>
              <LongitudeDegrees>-2.03302365727722644805908203125</LongitudeDegrees>
            </Position>
            <AltitudeMeters>992.79998779296875</AltitudeMeters>
            <DistanceMeters>NAN</DistanceMeters>
          </Trackpoint>
          <Trackpoint>
            <Time>2021-08-28T08:19:57.000Z</Time>
            <Position>
              <LatitudeDegrees>38.10498543083667755126953125</LatitudeDegrees>
              <LongitudeDegrees>-2.03283347189426422119140625</LongitudeDegrees>
            </Position>
            <AltitudeMeters>992.5999755859375</AltitudeMeters>
            <DistanceMeters>NAN</DistanceMeters>
          </Trackpoint>
          <Trackpoint>
            <Time>2021-08-28T08:19:59.000Z</Time>
            <Position>
              <LatitudeDegrees>38.10482676140964031219482421875</LatitudeDegrees>
              <LongitudeDegrees>-2.0326356589794158935546875</LongitudeDegrees>
            </Position>
            <AltitudeMeters>991.5999755859375</AltitudeMeters>
            <DistanceMeters>NAN</DistanceMeters>
          </Trackpoint>
          <Trackpoint>
            <Time>2021-08-28T08:20:01.000Z</Time>
            <Position>
              <LatitudeDegrees>38.1046630628407001495361328125</LatitudeDegrees>
              <LongitudeDegrees>-2.032430805265903472900390625</LongitudeDegrees>
            </Position>
            <AltitudeMeters>990.20001220703125</AltitudeMeters>
            <DistanceMeters>NAN</DistanceMeters>
          </Trackpoint>
          <Trackpoint>
            <Time>2021-08-28T08:20:03.000Z</Time>
            <Position>
              <LatitudeDegrees>38.10449467040598392486572265625</LatitudeDegrees>
              <LongitudeDegrees>-2.0322190783917903900146484375</LongitudeDegrees>
            </Position>
            <AltitudeMeters>988.79998779296875</AltitudeMeters>
            <DistanceMeters>NAN</DistanceMeters>
          </Trackpoint>
          <Trackpoint>
            <Time>2021-08-28T08:20:04.000Z</Time>
            <Position>
              <LatitudeDegrees>38.10440783388912677764892578125</LatitudeDegrees>
              <LongitudeDegrees>-2.03210835345089435577392578125</LongitudeDegrees>
            </Position>
            <AltitudeMeters>988.4000244140625</AltitudeMeters>
            <DistanceMeters>NAN</DistanceMeters>
          </Trackpoint>
          <Trackpoint>
            <Time>2021-08-28T08:20:05.000Z</Time>
            <Position>
              <LatitudeDegrees>38.1043170578777790069580078125</LatitudeDegrees>
              <LongitudeDegrees>-2.03199720941483974456787109375</LongitudeDegrees>
            </Position>
            <AltitudeMeters>987.5999755859375</AltitudeMeters>
            <DistanceMeters>NAN</DistanceMeters>
          </Trackpoint>
          <Trackpoint>
            <Time>2021-08-28T08:20:06.000Z</Time>
            <Position>
              <LatitudeDegrees>38.1042235158383846282958984375</LatitudeDegrees>
              <LongitudeDegrees>-2.0318864844739437103271484375</LongitudeDegrees>
            </Position>
            <AltitudeMeters>986.4000244140625</AltitudeMeters>
            <DistanceMeters>NAN</DistanceMeters>
          </Trackpoint>
          <Trackpoint>
            <Time>2021-08-28T08:20:07.000Z</Time>
            <Position>
              <LatitudeDegrees>38.10413257218897342681884765625</LatitudeDegrees>
              <LongitudeDegrees>-2.03177458606660366058349609375</LongitudeDegrees>
            </Position>
            <AltitudeMeters>984.5999755859375</AltitudeMeters>
            <DistanceMeters>NAN</DistanceMeters>
          </Trackpoint>
          <Trackpoint>
            <Time>2021-08-28T08:20:09.000Z</Time>
            <Position>
              <LatitudeDegrees>38.10395948588848114013671875</LatitudeDegrees>
              <LongitudeDegrees>-2.031555734574794769287109375</LongitudeDegrees>
            </Position>
            <AltitudeMeters>983.20001220703125</AltitudeMeters>
            <DistanceMeters>NAN</DistanceMeters>
          </Trackpoint>
          <Trackpoint>
            <Time>2021-08-28T08:20:10.000Z</Time>
            <Position>
              <LatitudeDegrees>38.10387541539967060089111328125</LatitudeDegrees>
              <LongitudeDegrees>-2.03144802711904048919677734375</LongitudeDegrees>
            </Position>
            <AltitudeMeters>982.79998779296875</AltitudeMeters>
            <DistanceMeters>NAN</DistanceMeters>
          </Trackpoint>
          <Trackpoint>
            <Time>2021-08-28T08:20:12.000Z</Time>
            <Position>
              <LatitudeDegrees>38.10370559804141521453857421875</LatitudeDegrees>
              <LongitudeDegrees>-2.03123814426362514495849609375</LongitudeDegrees>
            </Position>
            <AltitudeMeters>982</AltitudeMeters>
            <DistanceMeters>NAN</DistanceMeters>
          </Trackpoint>
          <Trackpoint>
            <Time>2021-08-28T08:20:14.000Z</Time>
            <Position>
              <LatitudeDegrees>38.103534691035747528076171875</LatitudeDegrees>
              <LongitudeDegrees>-2.031029351055622100830078125</LongitudeDegrees>
            </Position>
            <AltitudeMeters>980.5999755859375</AltitudeMeters>
            <DistanceMeters>NAN</DistanceMeters>
          </Trackpoint>
          <Trackpoint>
            <Time>2021-08-28T08:20:16.000Z</Time>
            <Position>
              <LatitudeDegrees>38.1033665500581264495849609375</LatitudeDegrees>
              <LongitudeDegrees>-2.03081921674311161041259765625</LongitudeDegrees>
            </Position>
            <AltitudeMeters>979.5999755859375</AltitudeMeters>
            <DistanceMeters>NAN</DistanceMeters>
          </Trackpoint>
          <Trackpoint>
            <Time>2021-08-28T08:20:17.000Z</Time>
            <Position>
              <LatitudeDegrees>38.10328348539769649505615234375</LatitudeDegrees>
              <LongitudeDegrees>-2.0307133533060550689697265625</LongitudeDegrees>
            </Position>
            <AltitudeMeters>979</AltitudeMeters>
            <DistanceMeters>NAN</DistanceMeters>
          </Trackpoint>
          <Trackpoint>
            <Time>2021-08-28T08:20:18.000Z</Time>
            <Position>
              <LatitudeDegrees>38.10320100747048854827880859375</LatitudeDegrees>
              <LongitudeDegrees>-2.0306094177067279815673828125</LongitudeDegrees>
            </Position>
            <AltitudeMeters>978.5999755859375</AltitudeMeters>
            <DistanceMeters>NAN</DistanceMeters>
          </Trackpoint>
          <Trackpoint>
            <Time>2021-08-28T08:20:20.000Z</Time>
            <Position>
              <LatitudeDegrees>38.1030359677970409393310546875</LatitudeDegrees>
              <LongitudeDegrees>-2.030402719974517822265625</LongitudeDegrees>
            </Position>
            <AltitudeMeters>978</AltitudeMeters>
            <DistanceMeters>NAN</DistanceMeters>
          </Trackpoint>
          <Trackpoint>
            <Time>2021-08-28T08:20:22.000Z</Time>
            <Position>
              <LatitudeDegrees>38.1028679944574832916259765625</LatitudeDegrees>
              <LongitudeDegrees>-2.0301956869661808013916015625</LongitudeDegrees>
            </Position>
            <AltitudeMeters>977.5999755859375</AltitudeMeters>
            <DistanceMeters>NAN</DistanceMeters>
          </Trackpoint>
          <Trackpoint>
            <Time>2021-08-28T08:20:25.000Z</Time>
            <Position>
              <LatitudeDegrees>38.10261427424848079681396484375</LatitudeDegrees>
              <LongitudeDegrees>-2.02987910248339176177978515625</LongitudeDegrees>
            </Position>
            <AltitudeMeters>976.20001220703125</AltitudeMeters>
            <DistanceMeters>NAN</DistanceMeters>
          </Trackpoint>
          <Trackpoint>
            <Time>2021-08-28T08:20:28.000Z</Time>
            <Position>
              <LatitudeDegrees>38.10226961039006710052490234375</LatitudeDegrees>
              <LongitudeDegrees>-2.02943821437656879425048828125</LongitudeDegrees>
            </Position>
            <AltitudeMeters>975.20001220703125</AltitudeMeters>
            <DistanceMeters>NAN</DistanceMeters>
          </Trackpoint>
          <Trackpoint>
            <Time>2021-08-28T08:20:29.000Z</Time>
            <Position>
              <LatitudeDegrees>38.10218629427254199981689453125</LatitudeDegrees>
              <LongitudeDegrees>-2.0293269865214824676513671875</LongitudeDegrees>
            </Position>
            <AltitudeMeters>974.5999755859375</AltitudeMeters>
            <DistanceMeters>NAN</DistanceMeters>
          </Trackpoint>
          <Trackpoint>
            <Time>2021-08-28T08:20:30.000Z</Time>
            <Position>
              <LatitudeDegrees>38.10218629427254199981689453125</LatitudeDegrees>
              <LongitudeDegrees>-2.0293269865214824676513671875</LongitudeDegrees>
            </Position>
            <AltitudeMeters>974.20001220703125</AltitudeMeters>
            <DistanceMeters>NAN</DistanceMeters>
          </Trackpoint>
          <Trackpoint>
            <Time>2021-08-28T08:20:33.000Z</Time>
            <Position>
              <LatitudeDegrees>38.10185956768691539764404296875</LatitudeDegrees>
              <LongitudeDegrees>-2.02890847809612751007080078125</LongitudeDegrees>
            </Position>
            <AltitudeMeters>973.79998779296875</AltitudeMeters>
            <DistanceMeters>NAN</DistanceMeters>
          </Trackpoint>
          <Trackpoint>
            <Time>2021-08-28T08:20:35.000Z</Time>
            <Position>
              <LatitudeDegrees>38.10178262181580066680908203125</LatitudeDegrees>
              <LongitudeDegrees>-2.02880655415356159210205078125</LongitudeDegrees>
            </Position>
            <AltitudeMeters>973.4000244140625</AltitudeMeters>
            <DistanceMeters>NAN</DistanceMeters>
          </Trackpoint>
          <Trackpoint>
            <Time>2021-08-28T08:20:38.000Z</Time>
            <Position>
              <LatitudeDegrees>38.1015099585056304931640625</LatitudeDegrees>
              <LongitudeDegrees>-2.028424926102161407470703125</LongitudeDegrees>
            </Position>
            <AltitudeMeters>972.79998779296875</AltitudeMeters>
            <DistanceMeters>NAN</DistanceMeters>
          </Trackpoint>
          <Trackpoint>
            <Time>2021-08-28T08:20:39.000Z</Time>
            <Position>
              <LatitudeDegrees>38.10145069845020771026611328125</LatitudeDegrees>
              <LongitudeDegrees>-2.0283362455666065216064453125</LongitudeDegrees>
            </Position>
            <AltitudeMeters>972.79998779296875</AltitudeMeters>
            <DistanceMeters>NAN</DistanceMeters>
          </Trackpoint>
          <Trackpoint>
            <Time>2021-08-28T08:20:43.000Z</Time>
            <Position>
              <LatitudeDegrees>38.1012593396008014678955078125</LatitudeDegrees>
              <LongitudeDegrees>-2.0279721356928348541259765625</LongitudeDegrees>
            </Position>
            <AltitudeMeters>973</AltitudeMeters>
            <DistanceMeters>NAN</DistanceMeters>
          </Trackpoint>
          <Trackpoint>
            <Time>2021-08-28T08:20:44.000Z</Time>
            <Position>
              <LatitudeDegrees>38.10122019611299037933349609375</LatitudeDegrees>
              <LongitudeDegrees>-2.0278795994818210601806640625</LongitudeDegrees>
            </Position>
            <AltitudeMeters>973.20001220703125</AltitudeMeters>
            <DistanceMeters>NAN</DistanceMeters>
          </Trackpoint>
          <Trackpoint>
            <Time>2021-08-28T08:20:46.000Z</Time>
            <Position>
              <LatitudeDegrees>38.10118348337709903717041015625</LatitudeDegrees>
              <LongitudeDegrees>-2.02778580598533153533935546875</LongitudeDegrees>
            </Position>
            <AltitudeMeters>973.4000244140625</AltitudeMeters>
            <DistanceMeters>NAN</DistanceMeters>
          </Trackpoint>
          <Trackpoint>
            <Time>2021-08-28T08:20:51.000Z</Time>
            <Position>
              <LatitudeDegrees>38.10103185474872589111328125</LatitudeDegrees>
              <LongitudeDegrees>-2.0273022539913654327392578125</LongitudeDegrees>
            </Position>
            <AltitudeMeters>975</AltitudeMeters>
            <DistanceMeters>NAN</DistanceMeters>
          </Trackpoint>
          <Trackpoint>
            <Time>2021-08-28T08:20:54.000Z</Time>
            <Position>
              <LatitudeDegrees>38.1009185314178466796875</LatitudeDegrees>
              <LongitudeDegrees>-2.0269089750945568084716796875</LongitudeDegrees>
            </Position>
            <AltitudeMeters>976</AltitudeMeters>
            <DistanceMeters>NAN</DistanceMeters>
          </Trackpoint>
          <Trackpoint>
            <Time>2021-08-28T08:20:58.000Z</Time>
            <Position>
              <LatitudeDegrees>38.10080629773437976837158203125</LatitudeDegrees>
              <LongitudeDegrees>-2.02661368064582347869873046875</LongitudeDegrees>
            </Position>
            <AltitudeMeters>975.20001220703125</AltitudeMeters>
            <DistanceMeters>NAN</DistanceMeters>
          </Trackpoint>
          <Trackpoint>
            <Time>2021-08-28T08:20:59.000Z</Time>
            <Position>
              <LatitudeDegrees>38.10075785033404827117919921875</LatitudeDegrees>
              <LongitudeDegrees>-2.02651930041611194610595703125</LongitudeDegrees>
            </Position>
            <AltitudeMeters>974.79998779296875</AltitudeMeters>
            <DistanceMeters>NAN</DistanceMeters>
          </Trackpoint>
          <Trackpoint>
            <Time>2021-08-28T08:21:03.000Z</Time>
            <Position>
              <LatitudeDegrees>38.1005123443901538848876953125</LatitudeDegrees>
              <LongitudeDegrees>-2.02617228962481021881103515625</LongitudeDegrees>
            </Position>
            <AltitudeMeters>973.5999755859375</AltitudeMeters>
            <DistanceMeters>NAN</DistanceMeters>
          </Trackpoint>
          <Trackpoint>
            <Time>2021-08-28T08:21:04.000Z</Time>
            <Position>
              <LatitudeDegrees>38.1003624759614467620849609375</LatitudeDegrees>
              <LongitudeDegrees>-2.026019655168056488037109375</LongitudeDegrees>
            </Position>
            <AltitudeMeters>973.4000244140625</AltitudeMeters>
            <DistanceMeters>NAN</DistanceMeters>
          </Trackpoint>
          <Trackpoint>
            <Time>2021-08-28T08:21:08.000Z</Time>
            <Position>
              <LatitudeDegrees>38.10012266971170902252197265625</LatitudeDegrees>
              <LongitudeDegrees>-2.0258013904094696044921875</LongitudeDegrees>
            </Position>
            <AltitudeMeters>972.4000244140625</AltitudeMeters>
            <DistanceMeters>NAN</DistanceMeters>
          </Trackpoint>
          <Trackpoint>
            <Time>2021-08-28T08:21:12.000Z</Time>
            <Position>
              <LatitudeDegrees>38.09977666474878787994384765625</LatitudeDegrees>
              <LongitudeDegrees>-2.0254931040108203887939453125</LongitudeDegrees>
            </Position>
            <AltitudeMeters>971</AltitudeMeters>
            <DistanceMeters>NAN</DistanceMeters>
          </Trackpoint>
          <Trackpoint>
            <Time>2021-08-28T08:21:16.000Z</Time>
            <Position>
              <LatitudeDegrees>38.09943082742393016815185546875</LatitudeDegrees>
              <LongitudeDegrees>-2.02517710626125335693359375</LongitudeDegrees>
            </Position>
            <AltitudeMeters>970.4000244140625</AltitudeMeters>
            <DistanceMeters>NAN</DistanceMeters>
          </Trackpoint>
          <Trackpoint>
            <Time>2021-08-28T08:21:21.000Z</Time>
            <Position>
              <LatitudeDegrees>38.09897284023463726043701171875</LatitudeDegrees>
              <LongitudeDegrees>-2.02477502636611461639404296875</LongitudeDegrees>
            </Position>
            <AltitudeMeters>969.79998779296875</AltitudeMeters>
            <DistanceMeters>NAN</DistanceMeters>
          </Trackpoint>
          <Trackpoint>
            <Time>2021-08-28T08:21:22.000Z</Time>
            <Position>
              <LatitudeDegrees>38.09887996874749660491943359375</LatitudeDegrees>
              <LongitudeDegrees>-2.02469288371503353118896484375</LongitudeDegrees>
            </Position>
            <AltitudeMeters>969.4000244140625</AltitudeMeters>
            <DistanceMeters>NAN</DistanceMeters>
          </Trackpoint>
          <Trackpoint>
            <Time>2021-08-28T08:21:23.000Z</Time>
            <Position>
              <LatitudeDegrees>38.09879011474549770355224609375</LatitudeDegrees>
              <LongitudeDegrees>-2.02461250126361846923828125</LongitudeDegrees>
            </Position>
            <AltitudeMeters>968.79998779296875</AltitudeMeters>
            <DistanceMeters>NAN</DistanceMeters>
          </Trackpoint>
          <Trackpoint>
            <Time>2021-08-28T08:21:25.000Z</Time>
            <Position>
              <LatitudeDegrees>38.09861225076019763946533203125</LatitudeDegrees>
              <LongitudeDegrees>-2.02445467002689838409423828125</LongitudeDegrees>
            </Position>
            <AltitudeMeters>967.79998779296875</AltitudeMeters>
            <DistanceMeters>NAN</DistanceMeters>
          </Trackpoint>
          <Trackpoint>
            <Time>2021-08-28T08:21:29.000Z</Time>
            <Position>
              <LatitudeDegrees>38.098264820873737335205078125</LatitudeDegrees>
              <LongitudeDegrees>-2.0241157896816730499267578125</LongitudeDegrees>
            </Position>
            <AltitudeMeters>967</AltitudeMeters>
            <DistanceMeters>NAN</DistanceMeters>
          </Trackpoint>
          <Trackpoint>
            <Time>2021-08-28T08:21:34.000Z</Time>
            <Position>
              <LatitudeDegrees>38.0978723801672458648681640625</LatitudeDegrees>
              <LongitudeDegrees>-2.0236837863922119140625</LongitudeDegrees>
            </Position>
            <AltitudeMeters>966.4000244140625</AltitudeMeters>
            <DistanceMeters>NAN</DistanceMeters>
          </Trackpoint>
          <Trackpoint>
            <Time>2021-08-28T08:21:37.000Z</Time>
            <Position>
              <LatitudeDegrees>38.0976497568190097808837890625</LatitudeDegrees>
              <LongitudeDegrees>-2.0234222710132598876953125</LongitudeDegrees>
            </Position>
            <AltitudeMeters>965.79998779296875</AltitudeMeters>
            <DistanceMeters>NAN</DistanceMeters>
          </Trackpoint>
          <Trackpoint>
            <Time>2021-08-28T08:21:39.000Z</Time>
            <Position>
              <LatitudeDegrees>38.09749812819063663482666015625</LatitudeDegrees>
              <LongitudeDegrees>-2.023240216076374053955078125</LongitudeDegrees>
            </Position>
            <AltitudeMeters>965.20001220703125</AltitudeMeters>
            <DistanceMeters>NAN</DistanceMeters>
          </Trackpoint>
          <Trackpoint>
            <Time>2021-08-28T08:21:43.000Z</Time>
            <Position>
              <LatitudeDegrees>38.0971921049058437347412109375</LatitudeDegrees>
              <LongitudeDegrees>-2.02287233434617519378662109375</LongitudeDegrees>
            </Position>
            <AltitudeMeters>964</AltitudeMeters>
            <DistanceMeters>NAN</DistanceMeters>
          </Trackpoint>
          <Trackpoint>
            <Time>2021-08-28T08:21:47.000Z</Time>
            <Position>
              <LatitudeDegrees>38.09686311520636081695556640625</LatitudeDegrees>
              <LongitudeDegrees>-2.0224709250032901763916015625</LongitudeDegrees>
            </Position>
            <AltitudeMeters>963.20001220703125</AltitudeMeters>
            <DistanceMeters>NAN</DistanceMeters>
          </Trackpoint>
          <Trackpoint>
            <Time>2021-08-28T08:21:48.000Z</Time>
            <Position>
              <LatitudeDegrees>38.0967763625085353851318359375</LatitudeDegrees>
              <LongitudeDegrees>-2.0223643071949481964111328125</LongitudeDegrees>
            </Position>
            <AltitudeMeters>962.4000244140625</AltitudeMeters>
            <DistanceMeters>NAN</DistanceMeters>
          </Trackpoint>
          <Trackpoint>
            <Time>2021-08-28T08:21:50.000Z</Time>
            <Position>
              <LatitudeDegrees>38.09660084545612335205078125</LatitudeDegrees>
              <LongitudeDegrees>-2.02215199358761310577392578125</LongitudeDegrees>
            </Position>
            <AltitudeMeters>961.4000244140625</AltitudeMeters>
            <DistanceMeters>NAN</DistanceMeters>
          </Trackpoint>
          <Trackpoint>
            <Time>2021-08-28T08:21:55.000Z</Time>
            <Position>
              <LatitudeDegrees>38.09618082828819751739501953125</LatitudeDegrees>
              <LongitudeDegrees>-2.0216323994100093841552734375</LongitudeDegrees>
            </Position>
            <AltitudeMeters>960.4000244140625</AltitudeMeters>
            <DistanceMeters>NAN</DistanceMeters>
          </Trackpoint>
          <Trackpoint>
            <Time>2021-08-28T08:21:59.000Z</Time>
            <Position>
              <LatitudeDegrees>38.09585108421742916107177734375</LatitudeDegrees>
              <LongitudeDegrees>-2.02123618684709072113037109375</LongitudeDegrees>
            </Position>
            <AltitudeMeters>959.20001220703125</AltitudeMeters>
            <DistanceMeters>NAN</DistanceMeters>
          </Trackpoint>
          <Trackpoint>
            <Time>2021-08-28T08:22:04.000Z</Time>
            <Position>
              <LatitudeDegrees>38.095444478094577789306640625</LatitudeDegrees>
              <LongitudeDegrees>-2.02074341475963592529296875</LongitudeDegrees>
            </Position>
            <AltitudeMeters>958.5999755859375</AltitudeMeters>
            <DistanceMeters>NAN</DistanceMeters>
          </Trackpoint>
          <Trackpoint>
            <Time>2021-08-28T08:22:05.000Z</Time>
            <Position>
              <LatitudeDegrees>38.09536476619541645050048828125</LatitudeDegrees>
              <LongitudeDegrees>-2.02064685523509979248046875</LongitudeDegrees>
            </Position>
            <AltitudeMeters>958.4000244140625</AltitudeMeters>
            <DistanceMeters>NAN</DistanceMeters>
          </Trackpoint>
          <Trackpoint>
            <Time>2021-08-28T08:22:06.000Z</Time>
            <Position>
              <LatitudeDegrees>38.0952847190201282501220703125</LatitudeDegrees>
              <LongitudeDegrees>-2.02054970897734165191650390625</LongitudeDegrees>
            </Position>
            <AltitudeMeters>958.20001220703125</AltitudeMeters>
            <DistanceMeters>NAN</DistanceMeters>
          </Trackpoint>
          <Trackpoint>
            <Time>2021-08-28T08:22:11.000Z</Time>
            <Position>
              <LatitudeDegrees>38.09488213621079921722412109375</LatitudeDegrees>
              <LongitudeDegrees>-2.02006372623145580291748046875</LongitudeDegrees>
            </Position>
            <AltitudeMeters>957.4000244140625</AltitudeMeters>
            <DistanceMeters>NAN</DistanceMeters>
          </Trackpoint>
          <Trackpoint>
            <Time>2021-08-28T08:22:12.000Z</Time>
            <Position>
              <LatitudeDegrees>38.09480108320713043212890625</LatitudeDegrees>
              <LongitudeDegrees>-2.01996691524982452392578125</LongitudeDegrees>
            </Position>
            <AltitudeMeters>957.20001220703125</AltitudeMeters>
            <DistanceMeters>NAN</DistanceMeters>
          </Trackpoint>
          <Trackpoint>
            <Time>2021-08-28T08:22:16.000Z</Time>
            <Position>
              <LatitudeDegrees>38.094474188983440399169921875</LatitudeDegrees>
              <LongitudeDegrees>-2.0195738039910793304443359375</LongitudeDegrees>
            </Position>
            <AltitudeMeters>956</AltitudeMeters>
            <DistanceMeters>NAN</DistanceMeters>
          </Trackpoint>
          <Trackpoint>
            <Time>2021-08-28T08:22:17.000Z</Time>
            <Position>
              <LatitudeDegrees>38.09430596418678760528564453125</LatitudeDegrees>
              <LongitudeDegrees>-2.0193726383149623870849609375</LongitudeDegrees>
            </Position>
            <AltitudeMeters>955.79998779296875</AltitudeMeters>
            <DistanceMeters>NAN</DistanceMeters>
          </Trackpoint>
          <Trackpoint>
            <Time>2021-08-28T08:22:19.000Z</Time>
            <Position>
              <LatitudeDegrees>38.09422080405056476593017578125</LatitudeDegrees>
              <LongitudeDegrees>-2.01927063055336475372314453125</LongitudeDegrees>
            </Position>
            <AltitudeMeters>954.5999755859375</AltitudeMeters>
            <DistanceMeters>NAN</DistanceMeters>
          </Trackpoint>
          <Trackpoint>
            <Time>2021-08-28T08:22:22.000Z</Time>
            <Position>
              <LatitudeDegrees>38.09387572109699249267578125</LatitudeDegrees>
              <LongitudeDegrees>-2.01885689981281757354736328125</LongitudeDegrees>
            </Position>
            <AltitudeMeters>953.5999755859375</AltitudeMeters>
            <DistanceMeters>NAN</DistanceMeters>
          </Trackpoint>
          <Trackpoint>
            <Time>2021-08-28T08:22:27.000Z</Time>
            <Position>
              <LatitudeDegrees>38.09343290515244007110595703125</LatitudeDegrees>
              <LongitudeDegrees>-2.01832867227494716644287109375</LongitudeDegrees>
            </Position>
            <AltitudeMeters>952.20001220703125</AltitudeMeters>
            <DistanceMeters>NAN</DistanceMeters>
          </Trackpoint>
          <Trackpoint>
            <Time>2021-08-28T08:22:29.000Z</Time>
            <Position>
              <LatitudeDegrees>38.0932552926242351531982421875</LatitudeDegrees>
              <LongitudeDegrees>-2.018114514648914337158203125</LongitudeDegrees>
            </Position>
            <AltitudeMeters>951</AltitudeMeters>
            <DistanceMeters>NAN</DistanceMeters>
          </Trackpoint>
          <Trackpoint>
            <Time>2021-08-28T08:22:32.000Z</Time>
            <Position>
              <LatitudeDegrees>38.0929874069988727569580078125</LatitudeDegrees>
              <LongitudeDegrees>-2.0177928172051906585693359375</LongitudeDegrees>
            </Position>
            <AltitudeMeters>949.5999755859375</AltitudeMeters>
            <DistanceMeters>NAN</DistanceMeters>
          </Trackpoint>
          <Trackpoint>
            <Time>2021-08-28T08:22:34.000Z</Time>
            <Position>
              <LatitudeDegrees>38.09280828572809696197509765625</LatitudeDegrees>
              <LongitudeDegrees>-2.0175782404839992523193359375</LongitudeDegrees>
            </Position>
            <AltitudeMeters>947.79998779296875</AltitudeMeters>
            <DistanceMeters>NAN</DistanceMeters>
          </Trackpoint>
          <Trackpoint>
            <Time>2021-08-28T08:22:38.000Z</Time>
            <Position>
              <LatitudeDegrees>38.09245540760457515716552734375</LatitudeDegrees>
              <LongitudeDegrees>-2.0171524398028850555419921875</LongitudeDegrees>
            </Position>
            <AltitudeMeters>947</AltitudeMeters>
            <DistanceMeters>NAN</DistanceMeters>
          </Trackpoint>
          <Trackpoint>
            <Time>2021-08-28T08:22:40.000Z</Time>
            <Position>
              <LatitudeDegrees>38.092282824218273162841796875</LatitudeDegrees>
              <LongitudeDegrees>-2.01694498769938945770263671875</LongitudeDegrees>
            </Position>
            <AltitudeMeters>946.79998779296875</AltitudeMeters>
            <DistanceMeters>NAN</DistanceMeters>
          </Trackpoint>
          <Trackpoint>
            <Time>2021-08-28T08:22:45.000Z</Time>
            <Position>
              <LatitudeDegrees>38.09195886366069316864013671875</LatitudeDegrees>
              <LongitudeDegrees>-2.01655070297420024871826171875</LongitudeDegrees>
            </Position>
            <AltitudeMeters>946</AltitudeMeters>
            <DistanceMeters>NAN</DistanceMeters>
          </Trackpoint>
          <Trackpoint>
            <Time>2021-08-28T08:22:47.000Z</Time>
            <Position>
              <LatitudeDegrees>38.09180614538490772247314453125</LatitudeDegrees>
              <LongitudeDegrees>-2.0163635350763797760009765625</LongitudeDegrees>
            </Position>
            <AltitudeMeters>945.5999755859375</AltitudeMeters>
            <DistanceMeters>NAN</DistanceMeters>
          </Trackpoint>
          <Trackpoint>
            <Time>2021-08-28T08:22:49.000Z</Time>
            <Position>
              <LatitudeDegrees>38.09165627695620059967041015625</LatitudeDegrees>
              <LongitudeDegrees>-2.016177959740161895751953125</LongitudeDegrees>
            </Position>
            <AltitudeMeters>944.20001220703125</AltitudeMeters>
            <DistanceMeters>NAN</DistanceMeters>
          </Trackpoint>
          <Trackpoint>
            <Time>2021-08-28T08:22:51.000Z</Time>
            <Position>
              <LatitudeDegrees>38.09150808490812778472900390625</LatitudeDegrees>
              <LongitudeDegrees>-2.0159950666129589080810546875</LongitudeDegrees>
            </Position>
            <AltitudeMeters>943.20001220703125</AltitudeMeters>
            <DistanceMeters>NAN</DistanceMeters>
          </Trackpoint>
          <Trackpoint>
            <Time>2021-08-28T08:22:52.000Z</Time>
            <Position>
              <LatitudeDegrees>38.09143734164535999298095703125</LatitudeDegrees>
              <LongitudeDegrees>-2.0159068889915943145751953125</LongitudeDegrees>
            </Position>
            <AltitudeMeters>942.79998779296875</AltitudeMeters>
            <DistanceMeters>NAN</DistanceMeters>
          </Trackpoint>
          <Trackpoint>
            <Time>2021-08-28T08:22:58.000Z</Time>
            <Position>
              <LatitudeDegrees>38.091033585369586944580078125</LatitudeDegrees>
              <LongitudeDegrees>-2.0154153741896152496337890625</LongitudeDegrees>
            </Position>
            <AltitudeMeters>943</AltitudeMeters>
            <DistanceMeters>NAN</DistanceMeters>
          </Trackpoint>
          <Trackpoint>
            <Time>2021-08-28T08:22:59.000Z</Time>
            <Position>
              <LatitudeDegrees>38.0909683741629123687744140625</LatitudeDegrees>
              <LongitudeDegrees>-2.01533767394721508026123046875</LongitudeDegrees>
            </Position>
            <AltitudeMeters>942.79998779296875</AltitudeMeters>
            <DistanceMeters>NAN</DistanceMeters>
          </Trackpoint>
          <Trackpoint>
            <Time>2021-08-28T08:23:06.000Z</Time>
            <Position>
              <LatitudeDegrees>38.090526647865772247314453125</LatitudeDegrees>
              <LongitudeDegrees>-2.0148021541535854339599609375</LongitudeDegrees>
            </Position>
            <AltitudeMeters>943.4000244140625</AltitudeMeters>
            <DistanceMeters>NAN</DistanceMeters>
          </Trackpoint>
          <Trackpoint>
            <Time>2021-08-28T08:23:10.000Z</Time>
            <Position>
              <LatitudeDegrees>38.09027711860835552215576171875</LatitudeDegrees>
              <LongitudeDegrees>-2.01449981890618801116943359375</LongitudeDegrees>
            </Position>
            <AltitudeMeters>944.20001220703125</AltitudeMeters>
            <DistanceMeters>NAN</DistanceMeters>
          </Trackpoint>
          <Trackpoint>
            <Time>2021-08-28T08:23:17.000Z</Time>
            <Position>
              <LatitudeDegrees>38.0898485518991947174072265625</LatitudeDegrees>
              <LongitudeDegrees>-2.013982571661472320556640625</LongitudeDegrees>
            </Position>
            <AltitudeMeters>945</AltitudeMeters>
            <DistanceMeters>NAN</DistanceMeters>
          </Trackpoint>
          <Trackpoint>
            <Time>2021-08-28T08:23:20.000Z</Time>
            <Position>
              <LatitudeDegrees>38.0896654911339282989501953125</LatitudeDegrees>
              <LongitudeDegrees>-2.0137648098170757293701171875</LongitudeDegrees>
            </Position>
            <AltitudeMeters>945.20001220703125</AltitudeMeters>
            <DistanceMeters>NAN</DistanceMeters>
          </Trackpoint>
          <Trackpoint>
            <Time>2021-08-28T08:23:27.000Z</Time>
            <Position>
              <LatitudeDegrees>38.089225776493549346923828125</LatitudeDegrees>
              <LongitudeDegrees>-2.01324555091559886932373046875</LongitudeDegrees>
            </Position>
            <AltitudeMeters>945.20001220703125</AltitudeMeters>
            <DistanceMeters>NAN</DistanceMeters>
          </Trackpoint>
          <Trackpoint>
            <Time>2021-08-28T08:23:30.000Z</Time>
            <Position>
              <LatitudeDegrees>38.08903165161609649658203125</LatitudeDegrees>
              <LongitudeDegrees>-2.0130154676735401153564453125</LongitudeDegrees>
            </Position>
            <AltitudeMeters>945</AltitudeMeters>
            <DistanceMeters>NAN</DistanceMeters>
          </Trackpoint>
          <Trackpoint>
            <Time>2021-08-28T08:23:36.000Z</Time>
            <Position>
              <LatitudeDegrees>38.08863543905317783355712890625</LatitudeDegrees>
              <LongitudeDegrees>-2.01253493316471576690673828125</LongitudeDegrees>
            </Position>
            <AltitudeMeters>945.20001220703125</AltitudeMeters>
            <DistanceMeters>NAN</DistanceMeters>
          </Trackpoint>
          <Trackpoint>
            <Time>2021-08-28T08:23:38.000Z</Time>
            <Position>
              <LatitudeDegrees>38.08850216679275035858154296875</LatitudeDegrees>
              <LongitudeDegrees>-2.01237182132899761199951171875</LongitudeDegrees>
            </Position>
            <AltitudeMeters>945.4000244140625</AltitudeMeters>
            <DistanceMeters>NAN</DistanceMeters>
          </Trackpoint>
          <Trackpoint>
            <Time>2021-08-28T08:23:43.000Z</Time>
            <Position>
              <LatitudeDegrees>38.088160939514636993408203125</LatitudeDegrees>
              <LongitudeDegrees>-2.01196161098778247833251953125</LongitudeDegrees>
            </Position>
            <AltitudeMeters>944.20001220703125</AltitudeMeters>
            <DistanceMeters>NAN</DistanceMeters>
          </Trackpoint>
          <Trackpoint>
            <Time>2021-08-28T08:23:47.000Z</Time>
            <Position>
              <LatitudeDegrees>38.08787721209228038787841796875</LatitudeDegrees>
              <LongitudeDegrees>-2.011608816683292388916015625</LongitudeDegrees>
            </Position>
            <AltitudeMeters>943.5999755859375</AltitudeMeters>
            <DistanceMeters>NAN</DistanceMeters>
          </Trackpoint>
          <Trackpoint>
            <Time>2021-08-28T08:23:50.000Z</Time>
            <Position>
              <LatitudeDegrees>38.0876575224101543426513671875</LatitudeDegrees>
              <LongitudeDegrees>-2.0113434456288814544677734375</LongitudeDegrees>
            </Position>
            <AltitudeMeters>942.79998779296875</AltitudeMeters>
            <DistanceMeters>NAN</DistanceMeters>
          </Trackpoint>
          <Trackpoint>
            <Time>2021-08-28T08:23:55.000Z</Time>
            <Position>
              <LatitudeDegrees>38.087280504405498504638671875</LatitudeDegrees>
              <LongitudeDegrees>-2.01088755391538143157958984375</LongitudeDegrees>
            </Position>
            <AltitudeMeters>941.79998779296875</AltitudeMeters>
            <DistanceMeters>NAN</DistanceMeters>
          </Trackpoint>
          <Trackpoint>
            <Time>2021-08-28T08:23:56.000Z</Time>
            <Position>
              <LatitudeDegrees>38.0872025527060031890869140625</LatitudeDegrees>
              <LongitudeDegrees>-2.0107935927808284759521484375</LongitudeDegrees>
            </Position>
            <AltitudeMeters>941.4000244140625</AltitudeMeters>
            <DistanceMeters>NAN</DistanceMeters>
          </Trackpoint>
          <Trackpoint>
            <Time>2021-08-28T08:24:00.000Z</Time>
            <Position>
              <LatitudeDegrees>38.086895607411861419677734375</LatitudeDegrees>
              <LongitudeDegrees>-2.01042235828936100006103515625</LongitudeDegrees>
            </Position>
            <AltitudeMeters>940.4000244140625</AltitudeMeters>
            <DistanceMeters>NAN</DistanceMeters>
          </Trackpoint>
          <Trackpoint>
            <Time>2021-08-28T08:24:04.000Z</Time>
            <Position>
              <LatitudeDegrees>38.08659377507865428924560546875</LatitudeDegrees>
              <LongitudeDegrees>-2.0100425742566585540771484375</LongitudeDegrees>
            </Position>
            <AltitudeMeters>939.4000244140625</AltitudeMeters>
            <DistanceMeters>NAN</DistanceMeters>
          </Trackpoint>
          <Trackpoint>
            <Time>2021-08-28T08:24:09.000Z</Time>
            <Position>
              <LatitudeDegrees>38.0861548148095607757568359375</LatitudeDegrees>
              <LongitudeDegrees>-2.00950286351144313812255859375</LongitudeDegrees>
            </Position>
            <AltitudeMeters>939.4000244140625</AltitudeMeters>
            <DistanceMeters>NAN</DistanceMeters>
          </Trackpoint>
          <Trackpoint>
            <Time>2021-08-28T08:24:13.000Z</Time>
            <Position>
              <LatitudeDegrees>38.08593981899321079254150390625</LatitudeDegrees>
              <LongitudeDegrees>-2.009235061705112457275390625</LongitudeDegrees>
            </Position>
            <AltitudeMeters>939.79998779296875</AltitudeMeters>
            <DistanceMeters>NAN</DistanceMeters>
          </Trackpoint>
          <Trackpoint>
            <Time>2021-08-28T08:24:16.000Z</Time>
            <Position>
              <LatitudeDegrees>38.0857139267027378082275390625</LatitudeDegrees>
              <LongitudeDegrees>-2.00896449387073516845703125</LongitudeDegrees>
            </Position>
            <AltitudeMeters>940.4000244140625</AltitudeMeters>
            <DistanceMeters>NAN</DistanceMeters>
          </Trackpoint>
          <Trackpoint>
            <Time>2021-08-28T08:24:20.000Z</Time>
            <Position>
              <LatitudeDegrees>38.08538979850709438323974609375</LatitudeDegrees>
              <LongitudeDegrees>-2.00861044228076934814453125</LongitudeDegrees>
            </Position>
            <AltitudeMeters>940.4000244140625</AltitudeMeters>
            <DistanceMeters>NAN</DistanceMeters>
          </Trackpoint>
          <Trackpoint>
            <Time>2021-08-28T08:24:25.000Z</Time>
            <Position>
              <LatitudeDegrees>38.08497891761362552642822265625</LatitudeDegrees>
              <LongitudeDegrees>-2.0082089491188526153564453125</LongitudeDegrees>
            </Position>
            <AltitudeMeters>940</AltitudeMeters>
            <DistanceMeters>NAN</DistanceMeters>
          </Trackpoint>
          <Trackpoint>
            <Time>2021-08-28T08:24:26.000Z</Time>
            <Position>
              <LatitudeDegrees>38.0848978646099567413330078125</LatitudeDegrees>
              <LongitudeDegrees>-2.0081375353038311004638671875</LongitudeDegrees>
            </Position>
            <AltitudeMeters>940</AltitudeMeters>
            <DistanceMeters>NAN</DistanceMeters>
          </Trackpoint>
          <Trackpoint>
            <Time>2021-08-28T08:24:30.000Z</Time>
            <Position>
              <LatitudeDegrees>38.084586225450038909912109375</LatitudeDegrees>
              <LongitudeDegrees>-2.00786068104207515716552734375</LongitudeDegrees>
            </Position>
            <AltitudeMeters>940.5999755859375</AltitudeMeters>
            <DistanceMeters>NAN</DistanceMeters>
          </Trackpoint>
          <Trackpoint>
            <Time>2021-08-28T08:24:32.000Z</Time>
            <Position>
              <LatitudeDegrees>38.084440045058727264404296875</LatitudeDegrees>
              <LongitudeDegrees>-2.00773042626678943634033203125</LongitudeDegrees>
            </Position>
            <AltitudeMeters>940.5999755859375</AltitudeMeters>
            <DistanceMeters>NAN</DistanceMeters>
          </Trackpoint>
          <Trackpoint>
            <Time>2021-08-28T08:24:37.000Z</Time>
            <Position>
              <LatitudeDegrees>38.08410502038896083831787109375</LatitudeDegrees>
              <LongitudeDegrees>-2.007413841784000396728515625</LongitudeDegrees>
            </Position>
            <AltitudeMeters>941.4000244140625</AltitudeMeters>
            <DistanceMeters>NAN</DistanceMeters>
          </Trackpoint>
          <Trackpoint>
            <Time>2021-08-28T08:24:39.000Z</Time>
            <Position>
              <LatitudeDegrees>38.08397895656526088714599609375</LatitudeDegrees>
              <LongitudeDegrees>-2.00729641132056713104248046875</LongitudeDegrees>
            </Position>
            <AltitudeMeters>941.79998779296875</AltitudeMeters>
            <DistanceMeters>NAN</DistanceMeters>
          </Trackpoint>
          <Trackpoint>
            <Time>2021-08-28T08:24:41.000Z</Time>
            <Position>
              <LatitudeDegrees>38.08385373093187808990478515625</LatitudeDegrees>
              <LongitudeDegrees>-2.00717956759035587310791015625</LongitudeDegrees>
            </Position>
            <AltitudeMeters>942.5999755859375</AltitudeMeters>
            <DistanceMeters>NAN</DistanceMeters>
          </Trackpoint>
          <Trackpoint>
            <Time>2021-08-28T08:24:43.000Z</Time>
            <Position>
              <LatitudeDegrees>38.0837274156510829925537109375</LatitudeDegrees>
              <LongitudeDegrees>-2.00706792064011096954345703125</LongitudeDegrees>
            </Position>
            <AltitudeMeters>943.79998779296875</AltitudeMeters>
            <DistanceMeters>NAN</DistanceMeters>
          </Trackpoint>
          <Trackpoint>
            <Time>2021-08-28T08:24:46.000Z</Time>
            <Position>
              <LatitudeDegrees>38.0835379846394062042236328125</LatitudeDegrees>
              <LongitudeDegrees>-2.00689039193093776702880859375</LongitudeDegrees>
            </Position>
            <AltitudeMeters>945</AltitudeMeters>
            <DistanceMeters>NAN</DistanceMeters>
          </Trackpoint>
          <Trackpoint>
            <Time>2021-08-28T08:24:47.000Z</Time>
            <Position>
              <LatitudeDegrees>38.083473108708858489990234375</LatitudeDegrees>
              <LongitudeDegrees>-2.00683138333261013031005859375</LongitudeDegrees>
            </Position>
            <AltitudeMeters>945.20001220703125</AltitudeMeters>
            <DistanceMeters>NAN</DistanceMeters>
          </Trackpoint>
          <Trackpoint>
            <Time>2021-08-28T08:24:54.000Z</Time>
            <Position>
              <LatitudeDegrees>38.0829975195229053497314453125</LatitudeDegrees>
              <LongitudeDegrees>-2.00640440918505191802978515625</LongitudeDegrees>
            </Position>
            <AltitudeMeters>945.20001220703125</AltitudeMeters>
            <DistanceMeters>NAN</DistanceMeters>
          </Trackpoint>
          <Trackpoint>
            <Time>2021-08-28T08:24:56.000Z</Time>
            <Position>
              <LatitudeDegrees>38.08286030776798725128173828125</LatitudeDegrees>
              <LongitudeDegrees>-2.006279937922954559326171875</LongitudeDegrees>
            </Position>
            <AltitudeMeters>945</AltitudeMeters>
            <DistanceMeters>NAN</DistanceMeters>
          </Trackpoint>
          <Trackpoint>
            <Time>2021-08-28T08:25:03.000Z</Time>
            <Position>
              <LatitudeDegrees>38.08238890953361988067626953125</LatitudeDegrees>
              <LongitudeDegrees>-2.0058613456785678863525390625</LongitudeDegrees>
            </Position>
            <AltitudeMeters>944</AltitudeMeters>
            <DistanceMeters>NAN</DistanceMeters>
          </Trackpoint>
          <Trackpoint>
            <Time>2021-08-28T08:25:06.000Z</Time>
            <Position>
              <LatitudeDegrees>38.0821975506842136383056640625</LatitudeDegrees>
              <LongitudeDegrees>-2.0056870020925998687744140625</LongitudeDegrees>
            </Position>
            <AltitudeMeters>943.79998779296875</AltitudeMeters>
            <DistanceMeters>NAN</DistanceMeters>
          </Trackpoint>
          <Trackpoint>
            <Time>2021-08-28T08:25:07.000Z</Time>
            <Position>
              <LatitudeDegrees>38.08213703334331512451171875</LatitudeDegrees>
              <LongitudeDegrees>-2.0056283287703990936279296875</LongitudeDegrees>
            </Position>
            <AltitudeMeters>943.79998779296875</AltitudeMeters>
            <DistanceMeters>NAN</DistanceMeters>
          </Trackpoint>
          <Trackpoint>
            <Time>2021-08-28T08:25:12.000Z</Time>
            <Position>
              <LatitudeDegrees>38.0818317644298076629638671875</LatitudeDegrees>
              <LongitudeDegrees>-2.0053589344024658203125</LongitudeDegrees>
            </Position>
            <AltitudeMeters>945.20001220703125</AltitudeMeters>
            <DistanceMeters>NAN</DistanceMeters>
          </Trackpoint>
          <Trackpoint>
            <Time>2021-08-28T08:25:15.000Z</Time>
            <Position>
              <LatitudeDegrees>38.081651888787746429443359375</LatitudeDegrees>
              <LongitudeDegrees>-2.005205042660236358642578125</LongitudeDegrees>
            </Position>
            <AltitudeMeters>945.5999755859375</AltitudeMeters>
            <DistanceMeters>NAN</DistanceMeters>
          </Trackpoint>
          <Trackpoint>
            <Time>2021-08-28T08:25:23.000Z</Time>
            <Position>
              <LatitudeDegrees>38.0811826698482036590576171875</LatitudeDegrees>
              <LongitudeDegrees>-2.0047891326248645782470703125</LongitudeDegrees>
            </Position>
            <AltitudeMeters>945.20001220703125</AltitudeMeters>
            <DistanceMeters>NAN</DistanceMeters>
          </Trackpoint>
          <Trackpoint>
            <Time>2021-08-28T08:25:25.000Z</Time>
            <Position>
              <LatitudeDegrees>38.081062138080596923828125</LatitudeDegrees>
              <LongitudeDegrees>-2.0046870410442352294921875</LongitudeDegrees>
            </Position>
            <AltitudeMeters>945.4000244140625</AltitudeMeters>
            <DistanceMeters>NAN</DistanceMeters>
          </Trackpoint>
          <Trackpoint>
            <Time>2021-08-28T08:25:33.000Z</Time>
            <Position>
              <LatitudeDegrees>38.080552518367767333984375</LatitudeDegrees>
              <LongitudeDegrees>-2.0043103583157062530517578125</LongitudeDegrees>
            </Position>
            <AltitudeMeters>945.4000244140625</AltitudeMeters>
            <DistanceMeters>NAN</DistanceMeters>
          </Trackpoint>
          <Trackpoint>
            <Time>2021-08-28T08:25:34.000Z</Time>
            <Position>
              <LatitudeDegrees>38.080413378775119781494140625</LatitudeDegrees>
              <LongitudeDegrees>-2.00424673967063426971435546875</LongitudeDegrees>
            </Position>
            <AltitudeMeters>945.4000244140625</AltitudeMeters>
            <DistanceMeters>NAN</DistanceMeters>
          </Trackpoint>
          <Trackpoint>
            <Time>2021-08-28T08:25:41.000Z</Time>
            <Position>
              <LatitudeDegrees>38.0799609236419200897216796875</LatitudeDegrees>
              <LongitudeDegrees>-2.0041383616626262664794921875</LongitudeDegrees>
            </Position>
            <AltitudeMeters>945.79998779296875</AltitudeMeters>
            <DistanceMeters>NAN</DistanceMeters>
          </Trackpoint>
          <Trackpoint>
            <Time>2021-08-28T08:25:47.000Z</Time>
            <Position>
              <LatitudeDegrees>38.07937947101891040802001953125</LatitudeDegrees>
              <LongitudeDegrees>-2.00410299003124237060546875</LongitudeDegrees>
            </Position>
            <AltitudeMeters>945</AltitudeMeters>
            <DistanceMeters>NAN</DistanceMeters>
          </Trackpoint>
          <Trackpoint>
            <Time>2021-08-28T08:25:48.000Z</Time>
            <Position>
              <LatitudeDegrees>38.079292885959148406982421875</LatitudeDegrees>
              <LongitudeDegrees>-2.004116736352443695068359375</LongitudeDegrees>
            </Position>
            <AltitudeMeters>944.79998779296875</AltitudeMeters>
            <DistanceMeters>NAN</DistanceMeters>
          </Trackpoint>
          <Trackpoint>
            <Time>2021-08-28T08:25:51.000Z</Time>
            <Position>
              <LatitudeDegrees>38.0790355615317821502685546875</LatitudeDegrees>
              <LongitudeDegrees>-2.00418303720653057098388671875</LongitudeDegrees>
            </Position>
            <AltitudeMeters>944.20001220703125</AltitudeMeters>
            <DistanceMeters>NAN</DistanceMeters>
          </Trackpoint>
          <Trackpoint>
            <Time>2021-08-28T08:25:54.000Z</Time>
            <Position>
              <LatitudeDegrees>38.078783266246318817138671875</LatitudeDegrees>
              <LongitudeDegrees>-2.004279680550098419189453125</LongitudeDegrees>
            </Position>
            <AltitudeMeters>943.79998779296875</AltitudeMeters>
            <DistanceMeters>NAN</DistanceMeters>
          </Trackpoint>
          <Trackpoint>
            <Time>2021-08-28T08:25:59.000Z</Time>
            <Position>
              <LatitudeDegrees>38.07843399234116077423095703125</LatitudeDegrees>
              <LongitudeDegrees>-2.004444301128387451171875</LongitudeDegrees>
            </Position>
            <AltitudeMeters>942.79998779296875</AltitudeMeters>
            <DistanceMeters>NAN</DistanceMeters>
          </Trackpoint>
          <Trackpoint>
            <Time>2021-08-28T08:26:02.000Z</Time>
            <Position>
              <LatitudeDegrees>38.078165687620639801025390625</LatitudeDegrees>
              <LongitudeDegrees>-2.00460816733539104461669921875</LongitudeDegrees>
            </Position>
            <AltitudeMeters>941.79998779296875</AltitudeMeters>
            <DistanceMeters>NAN</DistanceMeters>
          </Trackpoint>
          <Trackpoint>
            <Time>2021-08-28T08:26:04.000Z</Time>
            <Position>
              <LatitudeDegrees>38.07789704762399196624755859375</LatitudeDegrees>
              <LongitudeDegrees>-2.004808075726032257080078125</LongitudeDegrees>
            </Position>
            <AltitudeMeters>941.4000244140625</AltitudeMeters>
            <DistanceMeters>NAN</DistanceMeters>
          </Trackpoint>
          <Trackpoint>
            <Time>2021-08-28T08:26:06.000Z</Time>
            <Position>
              <LatitudeDegrees>38.077804930508136749267578125</LatitudeDegrees>
              <LongitudeDegrees>-2.00487672351300716400146484375</LongitudeDegrees>
            </Position>
            <AltitudeMeters>940.4000244140625</AltitudeMeters>
            <DistanceMeters>NAN</DistanceMeters>
          </Trackpoint>
          <Trackpoint>
            <Time>2021-08-28T08:26:08.000Z</Time>
            <Position>
              <LatitudeDegrees>38.077614493668079376220703125</LatitudeDegrees>
              <LongitudeDegrees>-2.005026005208492279052734375</LongitudeDegrees>
            </Position>
            <AltitudeMeters>939.20001220703125</AltitudeMeters>
            <DistanceMeters>NAN</DistanceMeters>
          </Trackpoint>
          <Trackpoint>
            <Time>2021-08-28T08:26:11.000Z</Time>
            <Position>
              <LatitudeDegrees>38.0773258209228515625</LatitudeDegrees>
              <LongitudeDegrees>-2.00524628162384033203125</LongitudeDegrees>
            </Position>
            <AltitudeMeters>937.5999755859375</AltitudeMeters>
            <DistanceMeters>NAN</DistanceMeters>
          </Trackpoint>
          <Trackpoint>
            <Time>2021-08-28T08:26:15.000Z</Time>
            <Position>
              <LatitudeDegrees>38.076930530369281768798828125</LatitudeDegrees>
              <LongitudeDegrees>-2.0055093057453632354736328125</LongitudeDegrees>
            </Position>
            <AltitudeMeters>936.79998779296875</AltitudeMeters>
            <DistanceMeters>NAN</DistanceMeters>
          </Trackpoint>
          <Trackpoint>
            <Time>2021-08-28T08:26:16.000Z</Time>
            <Position>
              <LatitudeDegrees>38.0768254213035106658935546875</LatitudeDegrees>
              <LongitudeDegrees>-2.00556001625955104827880859375</LongitudeDegrees>
            </Position>
            <AltitudeMeters>936.20001220703125</AltitudeMeters>
            <DistanceMeters>NAN</DistanceMeters>
          </Trackpoint>
          <Trackpoint>
            <Time>2021-08-28T08:26:17.000Z</Time>
            <Position>
              <LatitudeDegrees>38.07671226561069488525390625</LatitudeDegrees>
              <LongitudeDegrees>-2.0056043565273284912109375</LongitudeDegrees>
            </Position>
            <AltitudeMeters>935.5999755859375</AltitudeMeters>
            <DistanceMeters>NAN</DistanceMeters>
          </Trackpoint>
          <Trackpoint>
            <Time>2021-08-28T08:26:18.000Z</Time>
            <Position>
              <LatitudeDegrees>38.07659466750919818878173828125</LatitudeDegrees>
              <LongitudeDegrees>-2.005635537207126617431640625</LongitudeDegrees>
            </Position>
            <AltitudeMeters>934.79998779296875</AltitudeMeters>
            <DistanceMeters>NAN</DistanceMeters>
          </Trackpoint>
          <Trackpoint>
            <Time>2021-08-28T08:26:19.000Z</Time>
            <Position>
              <LatitudeDegrees>38.0764740519225597381591796875</LatitudeDegrees>
              <LongitudeDegrees>-2.00565087608993053436279296875</LongitudeDegrees>
            </Position>
            <AltitudeMeters>934.4000244140625</AltitudeMeters>
            <DistanceMeters>NAN</DistanceMeters>
          </Trackpoint>
          <Trackpoint>
            <Time>2021-08-28T08:26:20.000Z</Time>
            <Position>
              <LatitudeDegrees>38.07635360397398471832275390625</LatitudeDegrees>
              <LongitudeDegrees>-2.00565556995570659637451171875</LongitudeDegrees>
            </Position>
            <AltitudeMeters>933.5999755859375</AltitudeMeters>
            <DistanceMeters>NAN</DistanceMeters>
          </Trackpoint>
          <Trackpoint>
            <Time>2021-08-28T08:26:22.000Z</Time>
            <Position>
              <LatitudeDegrees>38.0761134624481201171875</LatitudeDegrees>
              <LongitudeDegrees>-2.00562774203717708587646484375</LongitudeDegrees>
            </Position>
            <AltitudeMeters>933</AltitudeMeters>
            <DistanceMeters>NAN</DistanceMeters>
          </Trackpoint>
          <Trackpoint>
            <Time>2021-08-28T08:26:23.000Z</Time>
            <Position>
              <LatitudeDegrees>38.07590148411691188812255859375</LatitudeDegrees>
              <LongitudeDegrees>-2.0055093057453632354736328125</LongitudeDegrees>
            </Position>
            <AltitudeMeters>933</AltitudeMeters>
            <DistanceMeters>NAN</DistanceMeters>
          </Trackpoint>
          <Trackpoint>
            <Time>2021-08-28T08:26:24.000Z</Time>
            <Position>
              <LatitudeDegrees>38.07581238448619842529296875</LatitudeDegrees>
              <LongitudeDegrees>-2.00541400350630283355712890625</LongitudeDegrees>
            </Position>
            <AltitudeMeters>933</AltitudeMeters>
            <DistanceMeters>NAN</DistanceMeters>
          </Trackpoint>
          <Trackpoint>
            <Time>2021-08-28T08:26:26.000Z</Time>
            <Position>
              <LatitudeDegrees>38.07567517273128032684326171875</LatitudeDegrees>
              <LongitudeDegrees>-2.00519003905355930328369140625</LongitudeDegrees>
            </Position>
            <AltitudeMeters>932.79998779296875</AltitudeMeters>
            <DistanceMeters>NAN</DistanceMeters>
          </Trackpoint>
          <Trackpoint>
            <Time>2021-08-28T08:26:28.000Z</Time>
            <Position>
              <LatitudeDegrees>38.07561390101909637451171875</LatitudeDegrees>
              <LongitudeDegrees>-2.005087696015834808349609375</LongitudeDegrees>
            </Position>
            <AltitudeMeters>932.5999755859375</AltitudeMeters>
            <DistanceMeters>NAN</DistanceMeters>
          </Trackpoint>
          <Trackpoint>
            <Time>2021-08-28T08:26:29.000Z</Time>
            <Position>
              <LatitudeDegrees>38.07555028237402439117431640625</LatitudeDegrees>
              <LongitudeDegrees>-2.00498811900615692138671875</LongitudeDegrees>
            </Position>
            <AltitudeMeters>932</AltitudeMeters>
            <DistanceMeters>NAN</DistanceMeters>
          </Trackpoint>
          <Trackpoint>
            <Time>2021-08-28T08:26:30.000Z</Time>
            <Position>
              <LatitudeDegrees>38.07548037730157375335693359375</LatitudeDegrees>
              <LongitudeDegrees>-2.004911005496978759765625</LongitudeDegrees>
            </Position>
            <AltitudeMeters>931.5999755859375</AltitudeMeters>
            <DistanceMeters>NAN</DistanceMeters>
          </Trackpoint>
          <Trackpoint>
            <Time>2021-08-28T08:26:31.000Z</Time>
            <Position>
              <LatitudeDegrees>38.07540292851626873016357421875</LatitudeDegrees>
              <LongitudeDegrees>-2.004857026040554046630859375</LongitudeDegrees>
            </Position>
            <AltitudeMeters>931</AltitudeMeters>
            <DistanceMeters>NAN</DistanceMeters>
          </Trackpoint>
          <Trackpoint>
            <Time>2021-08-28T08:26:33.000Z</Time>
            <Position>
              <LatitudeDegrees>38.07516957633197307586669921875</LatitudeDegrees>
              <LongitudeDegrees>-2.004881836473941802978515625</LongitudeDegrees>
            </Position>
            <AltitudeMeters>930</AltitudeMeters>
            <DistanceMeters>NAN</DistanceMeters>
          </Trackpoint>
          <Trackpoint>
            <Time>2021-08-28T08:26:34.000Z</Time>
            <Position>
              <LatitudeDegrees>38.07510118000209331512451171875</LatitudeDegrees>
              <LongitudeDegrees>-2.004938162863254547119140625</LongitudeDegrees>
            </Position>
            <AltitudeMeters>929.79998779296875</AltitudeMeters>
            <DistanceMeters>NAN</DistanceMeters>
          </Trackpoint>
          <Trackpoint>
            <Time>2021-08-28T08:26:38.000Z</Time>
            <Position>
              <LatitudeDegrees>38.074814938008785247802734375</LatitudeDegrees>
              <LongitudeDegrees>-2.00517428107559680938720703125</LongitudeDegrees>
            </Position>
            <AltitudeMeters>929.5999755859375</AltitudeMeters>
            <DistanceMeters>NAN</DistanceMeters>
          </Trackpoint>
          <Trackpoint>
            <Time>2021-08-28T08:26:41.000Z</Time>
            <Position>
              <LatitudeDegrees>38.07466247119009494781494140625</LatitudeDegrees>
              <LongitudeDegrees>-2.00529112480580806732177734375</LongitudeDegrees>
            </Position>
            <AltitudeMeters>929.4000244140625</AltitudeMeters>
            <DistanceMeters>NAN</DistanceMeters>
          </Trackpoint>
          <Trackpoint>
            <Time>2021-08-28T08:26:44.000Z</Time>
            <Position>
              <LatitudeDegrees>38.0743621475994586944580078125</LatitudeDegrees>
              <LongitudeDegrees>-2.005500085651874542236328125</LongitudeDegrees>
            </Position>
            <AltitudeMeters>928.5999755859375</AltitudeMeters>
            <DistanceMeters>NAN</DistanceMeters>
          </Trackpoint>
          <Trackpoint>
            <Time>2021-08-28T08:26:45.000Z</Time>
            <Position>
              <LatitudeDegrees>38.07428712956607341766357421875</LatitudeDegrees>
              <LongitudeDegrees>-2.00554777868092060089111328125</LongitudeDegrees>
            </Position>
            <AltitudeMeters>928.4000244140625</AltitudeMeters>
            <DistanceMeters>NAN</DistanceMeters>
          </Trackpoint>
          <Trackpoint>
            <Time>2021-08-28T08:26:46.000Z</Time>
            <Position>
              <LatitudeDegrees>38.0742119438946247100830078125</LatitudeDegrees>
              <LongitudeDegrees>-2.0055948011577129364013671875</LongitudeDegrees>
            </Position>
            <AltitudeMeters>928.20001220703125</AltitudeMeters>
            <DistanceMeters>NAN</DistanceMeters>
          </Trackpoint>
          <Trackpoint>
            <Time>2021-08-28T08:26:49.000Z</Time>
            <Position>
              <LatitudeDegrees>38.0740577168762683868408203125</LatitudeDegrees>
              <LongitudeDegrees>-2.00569580309092998504638671875</LongitudeDegrees>
            </Position>
            <AltitudeMeters>927.79998779296875</AltitudeMeters>
            <DistanceMeters>NAN</DistanceMeters>
          </Trackpoint>
          <Trackpoint>
            <Time>2021-08-28T08:26:51.000Z</Time>
            <Position>
              <LatitudeDegrees>38.073823861777782440185546875</LatitudeDegrees>
              <LongitudeDegrees>-2.00585438869893550872802734375</LongitudeDegrees>
            </Position>
            <AltitudeMeters>927.5999755859375</AltitudeMeters>
            <DistanceMeters>NAN</DistanceMeters>
          </Trackpoint>
          <Trackpoint>
            <Time>2021-08-28T08:26:54.000Z</Time>
            <Position>
              <LatitudeDegrees>38.073588497936725616455078125</LatitudeDegrees>
              <LongitudeDegrees>-2.006030492484569549560546875</LongitudeDegrees>
            </Position>
            <AltitudeMeters>927.4000244140625</AltitudeMeters>
            <DistanceMeters>NAN</DistanceMeters>
          </Trackpoint>
          <Trackpoint>
            <Time>2021-08-28T08:26:57.000Z</Time>
            <Position>
              <LatitudeDegrees>38.07334383018314838409423828125</LatitudeDegrees>
              <LongitudeDegrees>-2.00617994181811809539794921875</LongitudeDegrees>
            </Position>
            <AltitudeMeters>926.5999755859375</AltitudeMeters>
            <DistanceMeters>NAN</DistanceMeters>
          </Trackpoint>
          <Trackpoint>
            <Time>2021-08-28T08:26:58.000Z</Time>
            <Position>
              <LatitudeDegrees>38.0732574127614498138427734375</LatitudeDegrees>
              <LongitudeDegrees>-2.0062177442014217376708984375</LongitudeDegrees>
            </Position>
            <AltitudeMeters>926.4000244140625</AltitudeMeters>
            <DistanceMeters>NAN</DistanceMeters>
          </Trackpoint>
          <Trackpoint>
            <Time>2021-08-28T08:27:00.000Z</Time>
            <Position>
              <LatitudeDegrees>38.0731688998639583587646484375</LatitudeDegrees>
              <LongitudeDegrees>-2.0062462426722049713134765625</LongitudeDegrees>
            </Position>
            <AltitudeMeters>926</AltitudeMeters>
            <DistanceMeters>NAN</DistanceMeters>
          </Trackpoint>
          <Trackpoint>
            <Time>2021-08-28T08:27:02.000Z</Time>
            <Position>
              <LatitudeDegrees>38.07291232980787754058837890625</LatitudeDegrees>
              <LongitudeDegrees>-2.006300054490566253662109375</LongitudeDegrees>
            </Position>
            <AltitudeMeters>925.20001220703125</AltitudeMeters>
            <DistanceMeters>NAN</DistanceMeters>
          </Trackpoint>
          <Trackpoint>
            <Time>2021-08-28T08:27:03.000Z</Time>
            <Position>
              <LatitudeDegrees>38.072818033397197723388671875</LatitudeDegrees>
              <LongitudeDegrees>-2.0062904991209506988525390625</LongitudeDegrees>
            </Position>
            <AltitudeMeters>925</AltitudeMeters>
            <DistanceMeters>NAN</DistanceMeters>
          </Trackpoint>
          <Trackpoint>
            <Time>2021-08-28T08:27:04.000Z</Time>
            <Position>
              <LatitudeDegrees>38.072730191051959991455078125</LatitudeDegrees>
              <LongitudeDegrees>-2.00626577250659465789794921875</LongitudeDegrees>
            </Position>
            <AltitudeMeters>925</AltitudeMeters>
            <DistanceMeters>NAN</DistanceMeters>
          </Trackpoint>
          <Trackpoint>
            <Time>2021-08-28T08:27:05.000Z</Time>
            <Position>
              <LatitudeDegrees>38.07265148498117923736572265625</LatitudeDegrees>
              <LongitudeDegrees>-2.0062160678207874298095703125</LongitudeDegrees>
            </Position>
            <AltitudeMeters>924.79998779296875</AltitudeMeters>
            <DistanceMeters>NAN</DistanceMeters>
          </Trackpoint>
          <Trackpoint>
            <Time>2021-08-28T08:27:07.000Z</Time>
            <Position>
              <LatitudeDegrees>38.07257152162492275238037109375</LatitudeDegrees>
              <LongitudeDegrees>-2.0061434805393218994140625</LongitudeDegrees>
            </Position>
            <AltitudeMeters>924.5999755859375</AltitudeMeters>
            <DistanceMeters>NAN</DistanceMeters>
          </Trackpoint>
          <Trackpoint>
            <Time>2021-08-28T08:27:10.000Z</Time>
            <Position>
              <LatitudeDegrees>38.07232207618653774261474609375</LatitudeDegrees>
              <LongitudeDegrees>-2.00577727518975734710693359375</LongitudeDegrees>
            </Position>
            <AltitudeMeters>924</AltitudeMeters>
            <DistanceMeters>NAN</DistanceMeters>
          </Trackpoint>
          <Trackpoint>
            <Time>2021-08-28T08:27:12.000Z</Time>
            <Position>
              <LatitudeDegrees>38.07219618000090122222900390625</LatitudeDegrees>
              <LongitudeDegrees>-2.00560209341347217559814453125</LongitudeDegrees>
            </Position>
            <AltitudeMeters>923.5999755859375</AltitudeMeters>
            <DistanceMeters>NAN</DistanceMeters>
          </Trackpoint>
          <Trackpoint>
            <Time>2021-08-28T08:27:13.000Z</Time>
            <Position>
              <LatitudeDegrees>38.07213113643229007720947265625</LatitudeDegrees>
              <LongitudeDegrees>-2.00550804845988750457763671875</LongitudeDegrees>
            </Position>
            <AltitudeMeters>923.4000244140625</AltitudeMeters>
            <DistanceMeters>NAN</DistanceMeters>
          </Trackpoint>
          <Trackpoint>
            <Time>2021-08-28T08:27:15.000Z</Time>
            <Position>
              <LatitudeDegrees>38.0719997920095920562744140625</LatitudeDegrees>
              <LongitudeDegrees>-2.00532197020947933197021484375</LongitudeDegrees>
            </Position>
            <AltitudeMeters>922.79998779296875</AltitudeMeters>
            <DistanceMeters>NAN</DistanceMeters>
          </Trackpoint>
          <Trackpoint>
            <Time>2021-08-28T08:27:16.000Z</Time>
            <Position>
              <LatitudeDegrees>38.0719997920095920562744140625</LatitudeDegrees>
              <LongitudeDegrees>-2.00532197020947933197021484375</LongitudeDegrees>
            </Position>
            <AltitudeMeters>922.79998779296875</AltitudeMeters>
            <DistanceMeters>NAN</DistanceMeters>
          </Trackpoint>
          <Trackpoint>
            <Time>2021-08-28T08:27:21.000Z</Time>
            <Position>
              <LatitudeDegrees>38.07169225998222827911376953125</LatitudeDegrees>
              <LongitudeDegrees>-2.0048759691417217254638671875</LongitudeDegrees>
            </Position>
            <AltitudeMeters>922</AltitudeMeters>
            <DistanceMeters>NAN</DistanceMeters>
          </Trackpoint>
          <Trackpoint>
            <Time>2021-08-28T08:27:22.000Z</Time>
            <Position>
              <LatitudeDegrees>38.07163442485034465789794921875</LatitudeDegrees>
              <LongitudeDegrees>-2.00479223392903804779052734375</LongitudeDegrees>
            </Position>
            <AltitudeMeters>921.5999755859375</AltitudeMeters>
            <DistanceMeters>NAN</DistanceMeters>
          </Trackpoint>
          <Trackpoint>
            <Time>2021-08-28T08:27:24.000Z</Time>
            <Position>
              <LatitudeDegrees>38.07151959277689456939697265625</LatitudeDegrees>
              <LongitudeDegrees>-2.00461856089532375335693359375</LongitudeDegrees>
            </Position>
            <AltitudeMeters>920.5999755859375</AltitudeMeters>
            <DistanceMeters>NAN</DistanceMeters>
          </Trackpoint>
          <Trackpoint>
            <Time>2021-08-28T08:27:25.000Z</Time>
            <Position>
              <LatitudeDegrees>38.07139202021062374114990234375</LatitudeDegrees>
              <LongitudeDegrees>-2.004443965852260589599609375</LongitudeDegrees>
            </Position>
            <AltitudeMeters>920.4000244140625</AltitudeMeters>
            <DistanceMeters>NAN</DistanceMeters>
          </Trackpoint>
          <Trackpoint>
            <Time>2021-08-28T08:27:31.000Z</Time>
            <Position>
              <LatitudeDegrees>38.071107454597949981689453125</LatitudeDegrees>
              <LongitudeDegrees>-2.004030235111713409423828125</LongitudeDegrees>
            </Position>
            <AltitudeMeters>920</AltitudeMeters>
            <DistanceMeters>NAN</DistanceMeters>
          </Trackpoint>
          <Trackpoint>
            <Time>2021-08-28T08:27:36.000Z</Time>
            <Position>
              <LatitudeDegrees>38.07084493339061737060546875</LatitudeDegrees>
              <LongitudeDegrees>-2.0036223717033863067626953125</LongitudeDegrees>
            </Position>
            <AltitudeMeters>920.5999755859375</AltitudeMeters>
            <DistanceMeters>NAN</DistanceMeters>
          </Trackpoint>
          <Trackpoint>
            <Time>2021-08-28T08:27:39.000Z</Time>
            <Position>
              <LatitudeDegrees>38.0706310272216796875</LatitudeDegrees>
              <LongitudeDegrees>-2.00329505838453769683837890625</LongitudeDegrees>
            </Position>
            <AltitudeMeters>920.5999755859375</AltitudeMeters>
            <DistanceMeters>NAN</DistanceMeters>
          </Trackpoint>
          <Trackpoint>
            <Time>2021-08-28T08:27:47.000Z</Time>
            <Position>
              <LatitudeDegrees>38.07022131979465484619140625</LatitudeDegrees>
              <LongitudeDegrees>-2.00264998711645603179931640625</LongitudeDegrees>
            </Position>
            <AltitudeMeters>920.20001220703125</AltitudeMeters>
            <DistanceMeters>NAN</DistanceMeters>
          </Trackpoint>
          <Trackpoint>
            <Time>2021-08-28T08:27:53.000Z</Time>
            <Position>
              <LatitudeDegrees>38.06995712220668792724609375</LatitudeDegrees>
              <LongitudeDegrees>-2.002197615802288055419921875</LongitudeDegrees>
            </Position>
            <AltitudeMeters>919.4000244140625</AltitudeMeters>
            <DistanceMeters>NAN</DistanceMeters>
          </Trackpoint>
          <Trackpoint>
            <Time>2021-08-28T08:27:55.000Z</Time>
            <Position>
              <LatitudeDegrees>38.06981362402439117431640625</LatitudeDegrees>
              <LongitudeDegrees>-2.0020395331084728240966796875</LongitudeDegrees>
            </Position>
            <AltitudeMeters>919</AltitudeMeters>
            <DistanceMeters>NAN</DistanceMeters>
          </Trackpoint>
          <Trackpoint>
            <Time>2021-08-28T08:27:56.000Z</Time>
            <Position>
              <LatitudeDegrees>38.069722093641757965087890625</LatitudeDegrees>
              <LongitudeDegrees>-2.0019832067191600799560546875</LongitudeDegrees>
            </Position>
            <AltitudeMeters>918.5999755859375</AltitudeMeters>
            <DistanceMeters>NAN</DistanceMeters>
          </Trackpoint>
          <Trackpoint>
            <Time>2021-08-28T08:27:57.000Z</Time>
            <Position>
              <LatitudeDegrees>38.0696246959269046783447265625</LatitudeDegrees>
              <LongitudeDegrees>-2.001947499811649322509765625</LongitudeDegrees>
            </Position>
            <AltitudeMeters>918</AltitudeMeters>
            <DistanceMeters>NAN</DistanceMeters>
          </Trackpoint>
          <Trackpoint>
            <Time>2021-08-28T08:27:59.000Z</Time>
            <Position>
              <LatitudeDegrees>38.06942009367048740386962890625</LatitudeDegrees>
              <LongitudeDegrees>-2.00191673822700977325439453125</LongitudeDegrees>
            </Position>
            <AltitudeMeters>917</AltitudeMeters>
            <DistanceMeters>NAN</DistanceMeters>
          </Trackpoint>
          <Trackpoint>
            <Time>2021-08-28T08:28:02.000Z</Time>
            <Position>
              <LatitudeDegrees>38.0691053532063961029052734375</LatitudeDegrees>
              <LongitudeDegrees>-2.0018983818590641021728515625</LongitudeDegrees>
            </Position>
            <AltitudeMeters>915.79998779296875</AltitudeMeters>
            <DistanceMeters>NAN</DistanceMeters>
          </Trackpoint>
          <Trackpoint>
            <Time>2021-08-28T08:28:04.000Z</Time>
            <Position>
              <LatitudeDegrees>38.068896643817424774169921875</LatitudeDegrees>
              <LongitudeDegrees>-2.00187080539762973785400390625</LongitudeDegrees>
            </Position>
            <AltitudeMeters>914.4000244140625</AltitudeMeters>
            <DistanceMeters>NAN</DistanceMeters>
          </Trackpoint>
          <Trackpoint>
            <Time>2021-08-28T08:28:05.000Z</Time>
            <Position>
              <LatitudeDegrees>38.06879849173128604888916015625</LatitudeDegrees>
              <LongitudeDegrees>-2.0018484257161617279052734375</LongitudeDegrees>
            </Position>
            <AltitudeMeters>913.5999755859375</AltitudeMeters>
            <DistanceMeters>NAN</DistanceMeters>
          </Trackpoint>
          <Trackpoint>
            <Time>2021-08-28T08:28:06.000Z</Time>
            <Position>
              <LatitudeDegrees>38.068706877529621124267578125</LatitudeDegrees>
              <LongitudeDegrees>-2.00181908905506134033203125</LongitudeDegrees>
            </Position>
            <AltitudeMeters>913.20001220703125</AltitudeMeters>
            <DistanceMeters>NAN</DistanceMeters>
          </Trackpoint>
          <Trackpoint>
            <Time>2021-08-28T08:28:07.000Z</Time>
            <Position>
              <LatitudeDegrees>38.06862314231693744659423828125</LatitudeDegrees>
              <LongitudeDegrees>-2.00178145430982112884521484375</LongitudeDegrees>
            </Position>
            <AltitudeMeters>912.20001220703125</AltitudeMeters>
            <DistanceMeters>NAN</DistanceMeters>
          </Trackpoint>
          <Trackpoint>
            <Time>2021-08-28T08:28:08.000Z</Time>
            <Position>
              <LatitudeDegrees>38.06854653172194957733154296875</LatitudeDegrees>
              <LongitudeDegrees>-2.0017364434897899627685546875</LongitudeDegrees>
            </Position>
            <AltitudeMeters>911.4000244140625</AltitudeMeters>
            <DistanceMeters>NAN</DistanceMeters>
          </Trackpoint>
          <Trackpoint>
            <Time>2021-08-28T08:28:09.000Z</Time>
            <Position>
              <LatitudeDegrees>38.06847645901143550872802734375</LatitudeDegrees>
              <LongitudeDegrees>-2.0016888342797756195068359375</LongitudeDegrees>
            </Position>
            <AltitudeMeters>910.5999755859375</AltitudeMeters>
            <DistanceMeters>NAN</DistanceMeters>
          </Trackpoint>
          <Trackpoint>
            <Time>2021-08-28T08:28:10.000Z</Time>
            <Position>
              <LatitudeDegrees>38.0684203840792179107666015625</LatitudeDegrees>
              <LongitudeDegrees>-2.001627646386623382568359375</LongitudeDegrees>
            </Position>
            <AltitudeMeters>910.20001220703125</AltitudeMeters>
            <DistanceMeters>NAN</DistanceMeters>
          </Trackpoint>
          <Trackpoint>
            <Time>2021-08-28T08:28:11.000Z</Time>
            <Position>
              <LatitudeDegrees>38.06838727556169033050537109375</LatitudeDegrees>
              <LongitudeDegrees>-2.001547850668430328369140625</LongitudeDegrees>
            </Position>
            <AltitudeMeters>908.5999755859375</AltitudeMeters>
            <DistanceMeters>NAN</DistanceMeters>
          </Trackpoint>
          <Trackpoint>
            <Time>2021-08-28T08:28:12.000Z</Time>
            <Position>
              <LatitudeDegrees>38.0683754570782184600830078125</LatitudeDegrees>
              <LongitudeDegrees>-2.0014541409909725189208984375</LongitudeDegrees>
            </Position>
            <AltitudeMeters>907.79998779296875</AltitudeMeters>
            <DistanceMeters>NAN</DistanceMeters>
          </Trackpoint>
          <Trackpoint>
            <Time>2021-08-28T08:28:13.000Z</Time>
            <Position>
              <LatitudeDegrees>38.0683858506381511688232421875</LatitudeDegrees>
              <LongitudeDegrees>-2.00135984458029270172119140625</LongitudeDegrees>
            </Position>
            <AltitudeMeters>907.20001220703125</AltitudeMeters>
            <DistanceMeters>NAN</DistanceMeters>
          </Trackpoint>
          <Trackpoint>
            <Time>2021-08-28T08:28:14.000Z</Time>
            <Position>
              <LatitudeDegrees>38.06841728277504444122314453125</LatitudeDegrees>
              <LongitudeDegrees>-2.00127786956727504730224609375</LongitudeDegrees>
            </Position>
            <AltitudeMeters>906.79998779296875</AltitudeMeters>
            <DistanceMeters>NAN</DistanceMeters>
          </Trackpoint>
          <Trackpoint>
            <Time>2021-08-28T08:28:17.000Z</Time>
            <Position>
              <LatitudeDegrees>38.068553991615772247314453125</LatitudeDegrees>
              <LongitudeDegrees>-2.0010451041162014007568359375</LongitudeDegrees>
            </Position>
            <AltitudeMeters>906.4000244140625</AltitudeMeters>
            <DistanceMeters>NAN</DistanceMeters>
          </Trackpoint>
          <Trackpoint>
            <Time>2021-08-28T08:28:18.000Z</Time>
            <Position>
              <LatitudeDegrees>38.068621717393398284912109375</LatitudeDegrees>
              <LongitudeDegrees>-2.0009837485849857330322265625</LongitudeDegrees>
            </Position>
            <AltitudeMeters>906.4000244140625</AltitudeMeters>
            <DistanceMeters>NAN</DistanceMeters>
          </Trackpoint>
          <Trackpoint>
            <Time>2021-08-28T08:28:24.000Z</Time>
            <Position>
              <LatitudeDegrees>38.06898616254329681396484375</LatitudeDegrees>
              <LongitudeDegrees>-2.0005733706057071685791015625</LongitudeDegrees>
            </Position>
            <AltitudeMeters>906.5999755859375</AltitudeMeters>
            <DistanceMeters>NAN</DistanceMeters>
          </Trackpoint>
          <Trackpoint>
            <Time>2021-08-28T08:28:25.000Z</Time>
            <Position>
              <LatitudeDegrees>38.069032765924930572509765625</LatitudeDegrees>
              <LongitudeDegrees>-2.0004932396113872528076171875</LongitudeDegrees>
            </Position>
            <AltitudeMeters>906.5999755859375</AltitudeMeters>
            <DistanceMeters>NAN</DistanceMeters>
          </Trackpoint>
          <Trackpoint>
            <Time>2021-08-28T08:28:28.000Z</Time>
            <Position>
              <LatitudeDegrees>38.06914751417934894561767578125</LatitudeDegrees>
              <LongitudeDegrees>-2.00023264624178409576416015625</LongitudeDegrees>
            </Position>
            <AltitudeMeters>906.5999755859375</AltitudeMeters>
            <DistanceMeters>NAN</DistanceMeters>
          </Trackpoint>
          <Trackpoint>
            <Time>2021-08-28T08:28:34.000Z</Time>
            <Position>
              <LatitudeDegrees>38.06940584443509578704833984375</LatitudeDegrees>
              <LongitudeDegrees>-1.99975085444748401641845703125</LongitudeDegrees>
            </Position>
            <AltitudeMeters>906.4000244140625</AltitudeMeters>
            <DistanceMeters>NAN</DistanceMeters>
          </Trackpoint>
          <Trackpoint>
            <Time>2021-08-28T08:28:37.000Z</Time>
            <Position>
              <LatitudeDegrees>38.0696112848818302154541015625</LatitudeDegrees>
              <LongitudeDegrees>-1.99948397465050220489501953125</LongitudeDegrees>
            </Position>
            <AltitudeMeters>906.20001220703125</AltitudeMeters>
            <DistanceMeters>NAN</DistanceMeters>
          </Trackpoint>
          <Trackpoint>
            <Time>2021-08-28T08:28:40.000Z</Time>
            <Position>
              <LatitudeDegrees>38.0697095207870006561279296875</LatitudeDegrees>
              <LongitudeDegrees>-1.999357827007770538330078125</LongitudeDegrees>
            </Position>
            <AltitudeMeters>906</AltitudeMeters>
            <DistanceMeters>NAN</DistanceMeters>
          </Trackpoint>
          <Trackpoint>
            <Time>2021-08-28T08:28:45.000Z</Time>
            <Position>
              <LatitudeDegrees>38.06995234452188014984130859375</LatitudeDegrees>
              <LongitudeDegrees>-1.9990490376949310302734375</LongitudeDegrees>
            </Position>
            <AltitudeMeters>905.79998779296875</AltitudeMeters>
            <DistanceMeters>NAN</DistanceMeters>
          </Trackpoint>
          <Trackpoint>
            <Time>2021-08-28T08:28:47.000Z</Time>
            <Position>
              <LatitudeDegrees>38.06998821906745433807373046875</LatitudeDegrees>
              <LongitudeDegrees>-1.99889279901981353759765625</LongitudeDegrees>
            </Position>
            <AltitudeMeters>905.5999755859375</AltitudeMeters>
            <DistanceMeters>NAN</DistanceMeters>
          </Trackpoint>
          <Trackpoint>
            <Time>2021-08-28T08:28:48.000Z</Time>
            <Position>
              <LatitudeDegrees>38.0699666775763034820556640625</LatitudeDegrees>
              <LongitudeDegrees>-1.9988101534545421600341796875</LongitudeDegrees>
            </Position>
            <AltitudeMeters>905.5999755859375</AltitudeMeters>
            <DistanceMeters>NAN</DistanceMeters>
          </Trackpoint>
          <Trackpoint>
            <Time>2021-08-28T08:28:49.000Z</Time>
            <Position>
              <LatitudeDegrees>38.06992569006979465484619140625</LatitudeDegrees>
              <LongitudeDegrees>-1.99873697943985462188720703125</LongitudeDegrees>
            </Position>
            <AltitudeMeters>905.4000244140625</AltitudeMeters>
            <DistanceMeters>NAN</DistanceMeters>
          </Trackpoint>
          <Trackpoint>
            <Time>2021-08-28T08:28:51.000Z</Time>
            <Position>
              <LatitudeDegrees>38.06981538422405719757080078125</LatitudeDegrees>
              <LongitudeDegrees>-1.99860136024653911590576171875</LongitudeDegrees>
            </Position>
            <AltitudeMeters>905.20001220703125</AltitudeMeters>
            <DistanceMeters>NAN</DistanceMeters>
          </Trackpoint>
          <Trackpoint>
            <Time>2021-08-28T08:28:52.000Z</Time>
            <Position>
              <LatitudeDegrees>38.0697541125118732452392578125</LatitudeDegrees>
              <LongitudeDegrees>-1.998532712459564208984375</LongitudeDegrees>
            </Position>
            <AltitudeMeters>905</AltitudeMeters>
            <DistanceMeters>NAN</DistanceMeters>
          </Trackpoint>
          <Trackpoint>
            <Time>2021-08-28T08:28:56.000Z</Time>
            <Position>
              <LatitudeDegrees>38.06949217803776264190673828125</LatitudeDegrees>
              <LongitudeDegrees>-1.99820590205490589141845703125</LongitudeDegrees>
            </Position>
            <AltitudeMeters>903.79998779296875</AltitudeMeters>
            <DistanceMeters>NAN</DistanceMeters>
          </Trackpoint>
          <Trackpoint>
            <Time>2021-08-28T08:29:00.000Z</Time>
            <Position>
              <LatitudeDegrees>38.0691315047442913055419921875</LatitudeDegrees>
              <LongitudeDegrees>-1.9977535307407379150390625</LongitudeDegrees>
            </Position>
            <AltitudeMeters>902.4000244140625</AltitudeMeters>
            <DistanceMeters>NAN</DistanceMeters>
          </Trackpoint>
          <Trackpoint>
            <Time>2021-08-28T08:29:03.000Z</Time>
            <Position>
              <LatitudeDegrees>38.0689789541065692901611328125</LatitudeDegrees>
              <LongitudeDegrees>-1.9975619204342365264892578125</LongitudeDegrees>
            </Position>
            <AltitudeMeters>901.5999755859375</AltitudeMeters>
            <DistanceMeters>NAN</DistanceMeters>
          </Trackpoint>
          <Trackpoint>
            <Time>2021-08-28T08:29:04.000Z</Time>
            <Position>
              <LatitudeDegrees>38.06890058331191539764404296875</LatitudeDegrees>
              <LongitudeDegrees>-1.99746343307197093963623046875</LongitudeDegrees>
            </Position>
            <AltitudeMeters>901</AltitudeMeters>
            <DistanceMeters>NAN</DistanceMeters>
          </Trackpoint>
          <Trackpoint>
            <Time>2021-08-28T08:29:07.000Z</Time>
            <Position>
              <LatitudeDegrees>38.0686636269092559814453125</LatitudeDegrees>
              <LongitudeDegrees>-1.9971649535000324249267578125</LongitudeDegrees>
            </Position>
            <AltitudeMeters>899.79998779296875</AltitudeMeters>
            <DistanceMeters>NAN</DistanceMeters>
          </Trackpoint>
          <Trackpoint>
            <Time>2021-08-28T08:29:12.000Z</Time>
            <Position>
              <LatitudeDegrees>38.06826188229024410247802734375</LatitudeDegrees>
              <LongitudeDegrees>-1.99666094966232776641845703125</LongitudeDegrees>
            </Position>
            <AltitudeMeters>899.20001220703125</AltitudeMeters>
            <DistanceMeters>NAN</DistanceMeters>
          </Trackpoint>
          <Trackpoint>
            <Time>2021-08-28T08:29:13.000Z</Time>
            <Position>
              <LatitudeDegrees>38.06817948818206787109375</LatitudeDegrees>
              <LongitudeDegrees>-1.9965624623000621795654296875</LongitudeDegrees>
            </Position>
            <AltitudeMeters>899</AltitudeMeters>
            <DistanceMeters>NAN</DistanceMeters>
          </Trackpoint>
          <Trackpoint>
            <Time>2021-08-28T08:29:14.000Z</Time>
            <Position>
              <LatitudeDegrees>38.0680968426167964935302734375</LatitudeDegrees>
              <LongitudeDegrees>-1.9964652322232723236083984375</LongitudeDegrees>
            </Position>
            <AltitudeMeters>898.5999755859375</AltitudeMeters>
            <DistanceMeters>NAN</DistanceMeters>
          </Trackpoint>
          <Trackpoint>
            <Time>2021-08-28T08:29:16.000Z</Time>
            <Position>
              <LatitudeDegrees>38.0679292045533657073974609375</LatitudeDegrees>
              <LongitudeDegrees>-1.99627303518354892730712890625</LongitudeDegrees>
            </Position>
            <AltitudeMeters>897.4000244140625</AltitudeMeters>
            <DistanceMeters>NAN</DistanceMeters>
          </Trackpoint>
          <Trackpoint>
            <Time>2021-08-28T08:29:21.000Z</Time>
            <Position>
              <LatitudeDegrees>38.06752410717308521270751953125</LatitudeDegrees>
              <LongitudeDegrees>-1.9957846216857433319091796875</LongitudeDegrees>
            </Position>
            <AltitudeMeters>897</AltitudeMeters>
            <DistanceMeters>NAN</DistanceMeters>
          </Trackpoint>
          <Trackpoint>
            <Time>2021-08-28T08:29:22.000Z</Time>
            <Position>
              <LatitudeDegrees>38.06744523346424102783203125</LatitudeDegrees>
              <LongitudeDegrees>-1.99568445794284343719482421875</LongitudeDegrees>
            </Position>
            <AltitudeMeters>897</AltitudeMeters>
            <DistanceMeters>NAN</DistanceMeters>
          </Trackpoint>
          <Trackpoint>
            <Time>2021-08-28T08:29:23.000Z</Time>
            <Position>
              <LatitudeDegrees>38.0673676170408725738525390625</LatitudeDegrees>
              <LongitudeDegrees>-1.99558303691446781158447265625</LongitudeDegrees>
            </Position>
            <AltitudeMeters>896.4000244140625</AltitudeMeters>
            <DistanceMeters>NAN</DistanceMeters>
          </Trackpoint>
          <Trackpoint>
            <Time>2021-08-28T08:29:28.000Z</Time>
            <Position>
              <LatitudeDegrees>38.066996298730373382568359375</LatitudeDegrees>
              <LongitudeDegrees>-1.9950728304684162139892578125</LongitudeDegrees>
            </Position>
            <AltitudeMeters>895.5999755859375</AltitudeMeters>
            <DistanceMeters>NAN</DistanceMeters>
          </Trackpoint>
          <Trackpoint>
            <Time>2021-08-28T08:29:29.000Z</Time>
            <Position>
              <LatitudeDegrees>38.06692329235374927520751953125</LatitudeDegrees>
              <LongitudeDegrees>-1.99497367255389690399169921875</LongitudeDegrees>
            </Position>
            <AltitudeMeters>895.4000244140625</AltitudeMeters>
            <DistanceMeters>NAN</DistanceMeters>
          </Trackpoint>
          <Trackpoint>
            <Time>2021-08-28T08:29:30.000Z</Time>
            <Position>
              <LatitudeDegrees>38.06685137562453746795654296875</LatitudeDegrees>
              <LongitudeDegrees>-1.994874179363250732421875</LongitudeDegrees>
            </Position>
            <AltitudeMeters>895</AltitudeMeters>
            <DistanceMeters>NAN</DistanceMeters>
          </Trackpoint>
          <Trackpoint>
            <Time>2021-08-28T08:29:33.000Z</Time>
            <Position>
              <LatitudeDegrees>38.06666429154574871063232421875</LatitudeDegrees>
              <LongitudeDegrees>-1.99455440975725650787353515625</LongitudeDegrees>
            </Position>
            <AltitudeMeters>894.5999755859375</AltitudeMeters>
            <DistanceMeters>NAN</DistanceMeters>
          </Trackpoint>
          <Trackpoint>
            <Time>2021-08-28T08:29:34.000Z</Time>
            <Position>
              <LatitudeDegrees>38.06662087328732013702392578125</LatitudeDegrees>
              <LongitudeDegrees>-1.99443438090384006500244140625</LongitudeDegrees>
            </Position>
            <AltitudeMeters>894.5999755859375</AltitudeMeters>
            <DistanceMeters>NAN</DistanceMeters>
          </Trackpoint>
          <Trackpoint>
            <Time>2021-08-28T08:29:36.000Z</Time>
            <Position>
              <LatitudeDegrees>38.0665634572505950927734375</LatitudeDegrees>
              <LongitudeDegrees>-1.99418007396161556243896484375</LongitudeDegrees>
            </Position>
            <AltitudeMeters>894.4000244140625</AltitudeMeters>
            <DistanceMeters>NAN</DistanceMeters>
          </Trackpoint>
          <Trackpoint>
            <Time>2021-08-28T08:29:38.000Z</Time>
            <Position>
              <LatitudeDegrees>38.0665339529514312744140625</LatitudeDegrees>
              <LongitudeDegrees>-1.9939218275249004364013671875</LongitudeDegrees>
            </Position>
            <AltitudeMeters>893.79998779296875</AltitudeMeters>
            <DistanceMeters>NAN</DistanceMeters>
          </Trackpoint>
          <Trackpoint>
            <Time>2021-08-28T08:29:43.000Z</Time>
            <Position>
              <LatitudeDegrees>38.06647653691470623016357421875</LatitudeDegrees>
              <LongitudeDegrees>-1.99327499605715274810791015625</LongitudeDegrees>
            </Position>
            <AltitudeMeters>893.4000244140625</AltitudeMeters>
            <DistanceMeters>NAN</DistanceMeters>
          </Trackpoint>
          <Trackpoint>
            <Time>2021-08-28T08:29:46.000Z</Time>
            <Position>
              <LatitudeDegrees>38.06644384749233722686767578125</LatitudeDegrees>
              <LongitudeDegrees>-1.99289294891059398651123046875</LongitudeDegrees>
            </Position>
            <AltitudeMeters>893.4000244140625</AltitudeMeters>
            <DistanceMeters>NAN</DistanceMeters>
          </Trackpoint>
          <Trackpoint>
            <Time>2021-08-28T08:29:52.000Z</Time>
            <Position>
              <LatitudeDegrees>38.06638165377080440521240234375</LatitudeDegrees>
              <LongitudeDegrees>-1.99213354848325252532958984375</LongitudeDegrees>
            </Position>
            <AltitudeMeters>892.79998779296875</AltitudeMeters>
            <DistanceMeters>NAN</DistanceMeters>
          </Trackpoint>
          <Trackpoint>
            <Time>2021-08-28T08:29:56.000Z</Time>
            <Position>
              <LatitudeDegrees>38.0663353018462657928466796875</LatitudeDegrees>
              <LongitudeDegrees>-1.99162267148494720458984375</LongitudeDegrees>
            </Position>
            <AltitudeMeters>892.5999755859375</AltitudeMeters>
            <DistanceMeters>NAN</DistanceMeters>
          </Trackpoint>
          <Trackpoint>
            <Time>2021-08-28T08:29:58.000Z</Time>
            <Position>
              <LatitudeDegrees>38.06630638428032398223876953125</LatitudeDegrees>
              <LongitudeDegrees>-1.99136920273303985595703125</LongitudeDegrees>
            </Position>
            <AltitudeMeters>892.20001220703125</AltitudeMeters>
            <DistanceMeters>NAN</DistanceMeters>
          </Trackpoint>
          <Trackpoint>
            <Time>2021-08-28T08:30:04.000Z</Time>
            <Position>
              <LatitudeDegrees>38.06621141731739044189453125</LatitudeDegrees>
              <LongitudeDegrees>-1.990624554455280303955078125</LongitudeDegrees>
            </Position>
            <AltitudeMeters>892.20001220703125</AltitudeMeters>
            <DistanceMeters>NAN</DistanceMeters>
          </Trackpoint>
          <Trackpoint>
            <Time>2021-08-28T08:30:05.000Z</Time>
            <Position>
              <LatitudeDegrees>38.06619356386363506317138671875</LatitudeDegrees>
              <LongitudeDegrees>-1.9904999993741512298583984375</LongitudeDegrees>
            </Position>
            <AltitudeMeters>892.20001220703125</AltitudeMeters>
            <DistanceMeters>NAN</DistanceMeters>
          </Trackpoint>
          <Trackpoint>
            <Time>2021-08-28T08:30:11.000Z</Time>
            <Position>
              <LatitudeDegrees>38.06608711369335651397705078125</LatitudeDegrees>
              <LongitudeDegrees>-1.98975183069705963134765625</LongitudeDegrees>
            </Position>
            <AltitudeMeters>891.79998779296875</AltitudeMeters>
            <DistanceMeters>NAN</DistanceMeters>
          </Trackpoint>
          <Trackpoint>
            <Time>2021-08-28T08:30:14.000Z</Time>
            <Position>
              <LatitudeDegrees>38.06603816337883472442626953125</LatitudeDegrees>
              <LongitudeDegrees>-1.9893781654536724090576171875</LongitudeDegrees>
            </Position>
            <AltitudeMeters>891.20001220703125</AltitudeMeters>
            <DistanceMeters>NAN</DistanceMeters>
          </Trackpoint>
          <Trackpoint>
            <Time>2021-08-28T08:30:15.000Z</Time>
            <Position>
              <LatitudeDegrees>38.06602257303893566131591796875</LatitudeDegrees>
              <LongitudeDegrees>-1.98925335891544818878173828125</LongitudeDegrees>
            </Position>
            <AltitudeMeters>891</AltitudeMeters>
            <DistanceMeters>NAN</DistanceMeters>
          </Trackpoint>
          <Trackpoint>
            <Time>2021-08-28T08:30:21.000Z</Time>
            <Position>
              <LatitudeDegrees>38.0659259296953678131103515625</LatitudeDegrees>
              <LongitudeDegrees>-1.9884990714490413665771484375</LongitudeDegrees>
            </Position>
            <AltitudeMeters>890.79998779296875</AltitudeMeters>
            <DistanceMeters>NAN</DistanceMeters>
          </Trackpoint>
          <Trackpoint>
            <Time>2021-08-28T08:30:27.000Z</Time>
            <Position>
              <LatitudeDegrees>38.06582358665764331817626953125</LatitudeDegrees>
              <LongitudeDegrees>-1.98775014840066432952880859375</LongitudeDegrees>
            </Position>
            <AltitudeMeters>890.4000244140625</AltitudeMeters>
            <DistanceMeters>NAN</DistanceMeters>
          </Trackpoint>
          <Trackpoint>
            <Time>2021-08-28T08:30:29.000Z</Time>
            <Position>
              <LatitudeDegrees>38.06578989140689373016357421875</LatitudeDegrees>
              <LongitudeDegrees>-1.9875016249716281890869140625</LongitudeDegrees>
            </Position>
            <AltitudeMeters>890</AltitudeMeters>
            <DistanceMeters>NAN</DistanceMeters>
          </Trackpoint>
          <Trackpoint>
            <Time>2021-08-28T08:30:35.000Z</Time>
            <Position>
              <LatitudeDegrees>38.06568863801658153533935546875</LatitudeDegrees>
              <LongitudeDegrees>-1.98676309548318386077880859375</LongitudeDegrees>
            </Position>
            <AltitudeMeters>889.5999755859375</AltitudeMeters>
            <DistanceMeters>NAN</DistanceMeters>
          </Trackpoint>
          <Trackpoint>
            <Time>2021-08-28T08:30:37.000Z</Time>
            <Position>
              <LatitudeDegrees>38.06565762497484683990478515625</LatitudeDegrees>
              <LongitudeDegrees>-1.986520104110240936279296875</LongitudeDegrees>
            </Position>
            <AltitudeMeters>889.4000244140625</AltitudeMeters>
            <DistanceMeters>NAN</DistanceMeters>
          </Trackpoint>
          <Trackpoint>
            <Time>2021-08-28T08:30:43.000Z</Time>
            <Position>
              <LatitudeDegrees>38.065551929175853729248046875</LatitudeDegrees>
              <LongitudeDegrees>-1.9857886992394924163818359375</LongitudeDegrees>
            </Position>
            <AltitudeMeters>889</AltitudeMeters>
            <DistanceMeters>NAN</DistanceMeters>
          </Trackpoint>
          <Trackpoint>
            <Time>2021-08-28T08:30:45.000Z</Time>
            <Position>
              <LatitudeDegrees>38.06551110930740833282470703125</LatitudeDegrees>
              <LongitudeDegrees>-1.9855439476668834686279296875</LongitudeDegrees>
            </Position>
            <AltitudeMeters>888.5999755859375</AltitudeMeters>
            <DistanceMeters>NAN</DistanceMeters>
          </Trackpoint>
          <Trackpoint>
            <Time>2021-08-28T08:30:51.000Z</Time>
            <Position>
              <LatitudeDegrees>38.0653975345194339752197265625</LatitudeDegrees>
              <LongitudeDegrees>-1.98481782339513301849365234375</LongitudeDegrees>
            </Position>
            <AltitudeMeters>888.4000244140625</AltitudeMeters>
            <DistanceMeters>NAN</DistanceMeters>
          </Trackpoint>
          <Trackpoint>
            <Time>2021-08-28T08:30:52.000Z</Time>
            <Position>
              <LatitudeDegrees>38.0653770826756954193115234375</LatitudeDegrees>
              <LongitudeDegrees>-1.9846987165510654449462890625</LongitudeDegrees>
            </Position>
            <AltitudeMeters>887.79998779296875</AltitudeMeters>
            <DistanceMeters>NAN</DistanceMeters>
          </Trackpoint>
          <Trackpoint>
            <Time>2021-08-28T08:30:54.000Z</Time>
            <Position>
              <LatitudeDegrees>38.06533710099756717681884765625</LatitudeDegrees>
              <LongitudeDegrees>-1.9844603352248668670654296875</LongitudeDegrees>
            </Position>
            <AltitudeMeters>887</AltitudeMeters>
            <DistanceMeters>NAN</DistanceMeters>
          </Trackpoint>
          <Trackpoint>
            <Time>2021-08-28T08:31:00.000Z</Time>
            <Position>
              <LatitudeDegrees>38.065239451825618743896484375</LatitudeDegrees>
              <LongitudeDegrees>-1.98374929837882518768310546875</LongitudeDegrees>
            </Position>
            <AltitudeMeters>887</AltitudeMeters>
            <DistanceMeters>NAN</DistanceMeters>
          </Trackpoint>
          <Trackpoint>
            <Time>2021-08-28T08:31:02.000Z</Time>
            <Position>
              <LatitudeDegrees>38.065206594765186309814453125</LatitudeDegrees>
              <LongitudeDegrees>-1.98351024650037288665771484375</LongitudeDegrees>
            </Position>
            <AltitudeMeters>886.5999755859375</AltitudeMeters>
            <DistanceMeters>NAN</DistanceMeters>
          </Trackpoint>
          <Trackpoint>
            <Time>2021-08-28T08:31:08.000Z</Time>
            <Position>
              <LatitudeDegrees>38.0651061795651912689208984375</LatitudeDegrees>
              <LongitudeDegrees>-1.9827923364937305450439453125</LongitudeDegrees>
            </Position>
            <AltitudeMeters>885.79998779296875</AltitudeMeters>
            <DistanceMeters>NAN</DistanceMeters>
          </Trackpoint>
          <Trackpoint>
            <Time>2021-08-28T08:31:10.000Z</Time>
            <Position>
              <LatitudeDegrees>38.06507340632379055023193359375</LatitudeDegrees>
              <LongitudeDegrees>-1.982555128633975982666015625</LongitudeDegrees>
            </Position>
            <AltitudeMeters>885.79998779296875</AltitudeMeters>
            <DistanceMeters>NAN</DistanceMeters>
          </Trackpoint>
          <Trackpoint>
            <Time>2021-08-28T08:31:14.000Z</Time>
            <Position>
              <LatitudeDegrees>38.06500568054616451263427734375</LatitudeDegrees>
              <LongitudeDegrees>-1.9820721633732318878173828125</LongitudeDegrees>
            </Position>
            <AltitudeMeters>885.5999755859375</AltitudeMeters>
            <DistanceMeters>NAN</DistanceMeters>
          </Trackpoint>
          <Trackpoint>
            <Time>2021-08-28T08:31:18.000Z</Time>
            <Position>
              <LatitudeDegrees>38.06493560783565044403076171875</LatitudeDegrees>
              <LongitudeDegrees>-1.9815990887582302093505859375</LongitudeDegrees>
            </Position>
            <AltitudeMeters>885</AltitudeMeters>
            <DistanceMeters>NAN</DistanceMeters>
          </Trackpoint>
          <Trackpoint>
            <Time>2021-08-28T08:31:21.000Z</Time>
            <Position>
              <LatitudeDegrees>38.06488179601728916168212890625</LatitudeDegrees>
              <LongitudeDegrees>-1.98125031776726245880126953125</LongitudeDegrees>
            </Position>
            <AltitudeMeters>884</AltitudeMeters>
            <DistanceMeters>NAN</DistanceMeters>
          </Trackpoint>
          <Trackpoint>
            <Time>2021-08-28T08:31:25.000Z</Time>
            <Position>
              <LatitudeDegrees>38.0648077838122844696044921875</LatitudeDegrees>
              <LongitudeDegrees>-1.98079652152955532073974609375</LongitudeDegrees>
            </Position>
            <AltitudeMeters>883.20001220703125</AltitudeMeters>
            <DistanceMeters>NAN</DistanceMeters>
          </Trackpoint>
          <Trackpoint>
            <Time>2021-08-28T08:31:31.000Z</Time>
            <Position>
              <LatitudeDegrees>38.06467727757990360260009765625</LatitudeDegrees>
              <LongitudeDegrees>-1.98010534979403018951416015625</LongitudeDegrees>
            </Position>
            <AltitudeMeters>883.20001220703125</AltitudeMeters>
            <DistanceMeters>NAN</DistanceMeters>
          </Trackpoint>
          <Trackpoint>
            <Time>2021-08-28T08:31:34.000Z</Time>
            <Position>
              <LatitudeDegrees>38.064604438841342926025390625</LatitudeDegrees>
              <LongitudeDegrees>-1.979757249355316162109375</LongitudeDegrees>
            </Position>
            <AltitudeMeters>883</AltitudeMeters>
            <DistanceMeters>NAN</DistanceMeters>
          </Trackpoint>
          <Trackpoint>
            <Time>2021-08-28T08:31:35.000Z</Time>
            <Position>
              <LatitudeDegrees>38.064580298960208892822265625</LatitudeDegrees>
              <LongitudeDegrees>-1.97964166291058063507080078125</LongitudeDegrees>
            </Position>
            <AltitudeMeters>883</AltitudeMeters>
            <DistanceMeters>NAN</DistanceMeters>
          </Trackpoint>
          <Trackpoint>
            <Time>2021-08-28T08:31:40.000Z</Time>
            <Position>
              <LatitudeDegrees>38.0644574202597141265869140625</LatitudeDegrees>
              <LongitudeDegrees>-1.9790580309927463531494140625</LongitudeDegrees>
            </Position>
            <AltitudeMeters>882.20001220703125</AltitudeMeters>
            <DistanceMeters>NAN</DistanceMeters>
          </Trackpoint>
          <Trackpoint>
            <Time>2021-08-28T08:31:41.000Z</Time>
            <Position>
              <LatitudeDegrees>38.064433448016643524169921875</LatitudeDegrees>
              <LongitudeDegrees>-1.97894412092864513397216796875</LongitudeDegrees>
            </Position>
            <AltitudeMeters>882</AltitudeMeters>
            <DistanceMeters>NAN</DistanceMeters>
          </Trackpoint>
          <Trackpoint>
            <Time>2021-08-28T08:31:45.000Z</Time>
            <Position>
              <LatitudeDegrees>38.06431098841130733489990234375</LatitudeDegrees>
              <LongitudeDegrees>-1.9783723913133144378662109375</LongitudeDegrees>
            </Position>
            <AltitudeMeters>881.79998779296875</AltitudeMeters>
            <DistanceMeters>NAN</DistanceMeters>
          </Trackpoint>
          <Trackpoint>
            <Time>2021-08-28T08:31:49.000Z</Time>
            <Position>
              <LatitudeDegrees>38.064249046146869659423828125</LatitudeDegrees>
              <LongitudeDegrees>-1.978034935891628265380859375</LongitudeDegrees>
            </Position>
            <AltitudeMeters>881</AltitudeMeters>
            <DistanceMeters>NAN</DistanceMeters>
          </Trackpoint>
          <Trackpoint>
            <Time>2021-08-28T08:31:52.000Z</Time>
            <Position>
              <LatitudeDegrees>38.06422658264636993408203125</LatitudeDegrees>
              <LongitudeDegrees>-1.9776867516338825225830078125</LongitudeDegrees>
            </Position>
            <AltitudeMeters>880.5999755859375</AltitudeMeters>
            <DistanceMeters>NAN</DistanceMeters>
          </Trackpoint>
          <Trackpoint>
            <Time>2021-08-28T08:31:55.000Z</Time>
            <Position>
              <LatitudeDegrees>38.06421962566673755645751953125</LatitudeDegrees>
              <LongitudeDegrees>-1.97733295150101184844970703125</LongitudeDegrees>
            </Position>
            <AltitudeMeters>880</AltitudeMeters>
            <DistanceMeters>NAN</DistanceMeters>
          </Trackpoint>
          <Trackpoint>
            <Time>2021-08-28T08:31:58.000Z</Time>
            <Position>
              <LatitudeDegrees>38.06421308778226375579833984375</LatitudeDegrees>
              <LongitudeDegrees>-1.97698258794844150543212890625</LongitudeDegrees>
            </Position>
            <AltitudeMeters>879</AltitudeMeters>
            <DistanceMeters>NAN</DistanceMeters>
          </Trackpoint>
          <Trackpoint>
            <Time>2021-08-28T08:32:00.000Z</Time>
            <Position>
              <LatitudeDegrees>38.0642099864780902862548828125</LatitudeDegrees>
              <LongitudeDegrees>-1.9767491519451141357421875</LongitudeDegrees>
            </Position>
            <AltitudeMeters>879</AltitudeMeters>
            <DistanceMeters>NAN</DistanceMeters>
          </Trackpoint>
          <Trackpoint>
            <Time>2021-08-28T08:32:06.000Z</Time>
            <Position>
              <LatitudeDegrees>38.0642039515078067779541015625</LatitudeDegrees>
              <LongitudeDegrees>-1.97605739347636699676513671875</LongitudeDegrees>
            </Position>
            <AltitudeMeters>879</AltitudeMeters>
            <DistanceMeters>NAN</DistanceMeters>
          </Trackpoint>
          <Trackpoint>
            <Time>2021-08-28T08:32:08.000Z</Time>
            <Position>
              <LatitudeDegrees>38.0642049573361873626708984375</LatitudeDegrees>
              <LongitudeDegrees>-1.97582605294883251190185546875</LongitudeDegrees>
            </Position>
            <AltitudeMeters>879</AltitudeMeters>
            <DistanceMeters>NAN</DistanceMeters>
          </Trackpoint>
          <Trackpoint>
            <Time>2021-08-28T08:32:13.000Z</Time>
            <Position>
              <LatitudeDegrees>38.0642066337168216705322265625</LatitudeDegrees>
              <LongitudeDegrees>-1.97523294948041439056396484375</LongitudeDegrees>
            </Position>
            <AltitudeMeters>880</AltitudeMeters>
            <DistanceMeters>NAN</DistanceMeters>
          </Trackpoint>
          <Trackpoint>
            <Time>2021-08-28T08:32:15.000Z</Time>
            <Position>
              <LatitudeDegrees>38.06420805864036083221435546875</LatitudeDegrees>
              <LongitudeDegrees>-1.9749948196113109588623046875</LongitudeDegrees>
            </Position>
            <AltitudeMeters>880</AltitudeMeters>
            <DistanceMeters>NAN</DistanceMeters>
          </Trackpoint>
          <Trackpoint>
            <Time>2021-08-28T08:32:19.000Z</Time>
            <Position>
              <LatitudeDegrees>38.0641965754330158233642578125</LatitudeDegrees>
              <LongitudeDegrees>-1.97450749576091766357421875</LongitudeDegrees>
            </Position>
            <AltitudeMeters>879.5999755859375</AltitudeMeters>
            <DistanceMeters>NAN</DistanceMeters>
          </Trackpoint>
          <Trackpoint>
            <Time>2021-08-28T08:32:22.000Z</Time>
            <Position>
              <LatitudeDegrees>38.064195401966571807861328125</LatitudeDegrees>
              <LongitudeDegrees>-1.97414045222103595733642578125</LongitudeDegrees>
            </Position>
            <AltitudeMeters>879.20001220703125</AltitudeMeters>
            <DistanceMeters>NAN</DistanceMeters>
          </Trackpoint>
          <Trackpoint>
            <Time>2021-08-28T08:32:24.000Z</Time>
            <Position>
              <LatitudeDegrees>38.0641918815672397613525390625</LatitudeDegrees>
              <LongitudeDegrees>-1.9738988019526004791259765625</LongitudeDegrees>
            </Position>
            <AltitudeMeters>878.79998779296875</AltitudeMeters>
            <DistanceMeters>NAN</DistanceMeters>
          </Trackpoint>
          <Trackpoint>
            <Time>2021-08-28T08:32:28.000Z</Time>
            <Position>
              <LatitudeDegrees>38.0641878582537174224853515625</LatitudeDegrees>
              <LongitudeDegrees>-1.9734089635312557220458984375</LongitudeDegrees>
            </Position>
            <AltitudeMeters>877.79998779296875</AltitudeMeters>
            <DistanceMeters>NAN</DistanceMeters>
          </Trackpoint>
          <Trackpoint>
            <Time>2021-08-28T08:32:29.000Z</Time>
            <Position>
              <LatitudeDegrees>38.06418593041598796844482421875</LatitudeDegrees>
              <LongitudeDegrees>-1.9732835702598094940185546875</LongitudeDegrees>
            </Position>
            <AltitudeMeters>877.79998779296875</AltitudeMeters>
            <DistanceMeters>NAN</DistanceMeters>
          </Trackpoint>
          <Trackpoint>
            <Time>2021-08-28T08:32:35.000Z</Time>
            <Position>
              <LatitudeDegrees>38.064177297055721282958984375</LatitudeDegrees>
              <LongitudeDegrees>-1.97252676822245121002197265625</LongitudeDegrees>
            </Position>
            <AltitudeMeters>877</AltitudeMeters>
            <DistanceMeters>NAN</DistanceMeters>
          </Trackpoint>
          <Trackpoint>
            <Time>2021-08-28T08:32:38.000Z</Time>
            <Position>
              <LatitudeDegrees>38.06417872197926044464111328125</LatitudeDegrees>
              <LongitudeDegrees>-1.972144804894924163818359375</LongitudeDegrees>
            </Position>
            <AltitudeMeters>876.79998779296875</AltitudeMeters>
            <DistanceMeters>NAN</DistanceMeters>
          </Trackpoint>
          <Trackpoint>
            <Time>2021-08-28T08:32:40.000Z</Time>
            <Position>
              <LatitudeDegrees>38.064184002578258514404296875</LatitudeDegrees>
              <LongitudeDegrees>-1.97189368307590484619140625</LongitudeDegrees>
            </Position>
            <AltitudeMeters>876</AltitudeMeters>
            <DistanceMeters>NAN</DistanceMeters>
          </Trackpoint>
          <Trackpoint>
            <Time>2021-08-28T08:32:41.000Z</Time>
            <Position>
              <LatitudeDegrees>38.0641912110149860382080078125</LatitudeDegrees>
              <LongitudeDegrees>-1.97176870889961719512939453125</LongitudeDegrees>
            </Position>
            <AltitudeMeters>875.79998779296875</AltitudeMeters>
            <DistanceMeters>NAN</DistanceMeters>
          </Trackpoint>
          <Trackpoint>
            <Time>2021-08-28T08:32:45.000Z</Time>
            <Position>
              <LatitudeDegrees>38.06426472030580043792724609375</LatitudeDegrees>
              <LongitudeDegrees>-1.9712756015360355377197265625</LongitudeDegrees>
            </Position>
            <AltitudeMeters>875</AltitudeMeters>
            <DistanceMeters>NAN</DistanceMeters>
          </Trackpoint>
          <Trackpoint>
            <Time>2021-08-28T08:32:47.000Z</Time>
            <Position>
              <LatitudeDegrees>38.064316771924495697021484375</LatitudeDegrees>
              <LongitudeDegrees>-1.97103210724890232086181640625</LongitudeDegrees>
            </Position>
            <AltitudeMeters>874.5999755859375</AltitudeMeters>
            <DistanceMeters>NAN</DistanceMeters>
          </Trackpoint>
          <Trackpoint>
            <Time>2021-08-28T08:32:53.000Z</Time>
            <Position>
              <LatitudeDegrees>38.064459264278411865234375</LatitudeDegrees>
              <LongitudeDegrees>-1.9703039713203907012939453125</LongitudeDegrees>
            </Position>
            <AltitudeMeters>873.4000244140625</AltitudeMeters>
            <DistanceMeters>NAN</DistanceMeters>
          </Trackpoint>
          <Trackpoint>
            <Time>2021-08-28T08:32:59.000Z</Time>
            <Position>
              <LatitudeDegrees>38.06455104611814022064208984375</LatitudeDegrees>
              <LongitudeDegrees>-1.96954968385398387908935546875</LongitudeDegrees>
            </Position>
            <AltitudeMeters>872.4000244140625</AltitudeMeters>
            <DistanceMeters>NAN</DistanceMeters>
          </Trackpoint>
          <Trackpoint>
            <Time>2021-08-28T08:33:05.000Z</Time>
            <Position>
              <LatitudeDegrees>38.0646532215178012847900390625</LatitudeDegrees>
              <LongitudeDegrees>-1.96878709830343723297119140625</LongitudeDegrees>
            </Position>
            <AltitudeMeters>871.4000244140625</AltitudeMeters>
            <DistanceMeters>NAN</DistanceMeters>
          </Trackpoint>
          <Trackpoint>
            <Time>2021-08-28T08:33:07.000Z</Time>
            <Position>
              <LatitudeDegrees>38.06468130089342594146728515625</LatitudeDegrees>
              <LongitudeDegrees>-1.96853195317089557647705078125</LongitudeDegrees>
            </Position>
            <AltitudeMeters>871.4000244140625</AltitudeMeters>
            <DistanceMeters>NAN</DistanceMeters>
          </Trackpoint>
          <Trackpoint>
            <Time>2021-08-28T08:33:08.000Z</Time>
            <Position>
              <LatitudeDegrees>38.0646937899291515350341796875</LatitudeDegrees>
              <LongitudeDegrees>-1.96840521879494190216064453125</LongitudeDegrees>
            </Position>
            <AltitudeMeters>871.20001220703125</AltitudeMeters>
            <DistanceMeters>NAN</DistanceMeters>
          </Trackpoint>
          <Trackpoint>
            <Time>2021-08-28T08:33:14.000Z</Time>
            <Position>
              <LatitudeDegrees>38.06475841440260410308837890625</LatitudeDegrees>
              <LongitudeDegrees>-1.967645399272441864013671875</LongitudeDegrees>
            </Position>
            <AltitudeMeters>870.4000244140625</AltitudeMeters>
            <DistanceMeters>NAN</DistanceMeters>
          </Trackpoint>
          <Trackpoint>
            <Time>2021-08-28T08:33:15.000Z</Time>
            <Position>
              <LatitudeDegrees>38.06476897560060024261474609375</LatitudeDegrees>
              <LongitudeDegrees>-1.96751891635358333587646484375</LongitudeDegrees>
            </Position>
            <AltitudeMeters>870.20001220703125</AltitudeMeters>
            <DistanceMeters>NAN</DistanceMeters>
          </Trackpoint>
          <Trackpoint>
            <Time>2021-08-28T08:33:21.000Z</Time>
            <Position>
              <LatitudeDegrees>38.0648396350443363189697265625</LatitudeDegrees>
              <LongitudeDegrees>-1.96677871048450469970703125</LongitudeDegrees>
            </Position>
            <AltitudeMeters>869</AltitudeMeters>
            <DistanceMeters>NAN</DistanceMeters>
          </Trackpoint>
          <Trackpoint>
            <Time>2021-08-28T08:33:23.000Z</Time>
            <Position>
              <LatitudeDegrees>38.06486763060092926025390625</LatitudeDegrees>
              <LongitudeDegrees>-1.9665327854454517364501953125</LongitudeDegrees>
            </Position>
            <AltitudeMeters>868.4000244140625</AltitudeMeters>
            <DistanceMeters>NAN</DistanceMeters>
          </Trackpoint>
          <Trackpoint>
            <Time>2021-08-28T08:33:27.000Z</Time>
            <Position>
              <LatitudeDegrees>38.064926303923130035400390625</LatitudeDegrees>
              <LongitudeDegrees>-1.96604068391025066375732421875</LongitudeDegrees>
            </Position>
            <AltitudeMeters>868</AltitudeMeters>
            <DistanceMeters>NAN</DistanceMeters>
          </Trackpoint>
          <Trackpoint>
            <Time>2021-08-28T08:33:33.000Z</Time>
            <Position>
              <LatitudeDegrees>38.06501121260225772857666015625</LatitudeDegrees>
              <LongitudeDegrees>-1.9653070159256458282470703125</LongitudeDegrees>
            </Position>
            <AltitudeMeters>867.20001220703125</AltitudeMeters>
            <DistanceMeters>NAN</DistanceMeters>
          </Trackpoint>
          <Trackpoint>
            <Time>2021-08-28T08:33:35.000Z</Time>
            <Position>
              <LatitudeDegrees>38.06504733860492706298828125</LatitudeDegrees>
              <LongitudeDegrees>-1.965069137513637542724609375</LongitudeDegrees>
            </Position>
            <AltitudeMeters>867</AltitudeMeters>
            <DistanceMeters>NAN</DistanceMeters>
          </Trackpoint>
          <Trackpoint>
            <Time>2021-08-28T08:33:40.000Z</Time>
            <Position>
              <LatitudeDegrees>38.06508715264499187469482421875</LatitudeDegrees>
              <LongitudeDegrees>-1.96446371264755725860595703125</LongitudeDegrees>
            </Position>
            <AltitudeMeters>865.5999755859375</AltitudeMeters>
            <DistanceMeters>NAN</DistanceMeters>
          </Trackpoint>
          <Trackpoint>
            <Time>2021-08-28T08:33:45.000Z</Time>
            <Position>
              <LatitudeDegrees>38.06508497335016727447509765625</LatitudeDegrees>
              <LongitudeDegrees>-1.9637645781040191650390625</LongitudeDegrees>
            </Position>
            <AltitudeMeters>864.79998779296875</AltitudeMeters>
            <DistanceMeters>NAN</DistanceMeters>
          </Trackpoint>
          <Trackpoint>
            <Time>2021-08-28T08:33:46.000Z</Time>
            <Position>
              <LatitudeDegrees>38.06508497335016727447509765625</LatitudeDegrees>
              <LongitudeDegrees>-1.9637645781040191650390625</LongitudeDegrees>
            </Position>
            <AltitudeMeters>864.4000244140625</AltitudeMeters>
            <DistanceMeters>NAN</DistanceMeters>
          </Trackpoint>
          <Trackpoint>
            <Time>2021-08-28T08:33:47.000Z</Time>
            <Position>
              <LatitudeDegrees>38.06507550179958343505859375</LatitudeDegrees>
              <LongitudeDegrees>-1.9636480696499347686767578125</LongitudeDegrees>
            </Position>
            <AltitudeMeters>864.20001220703125</AltitudeMeters>
            <DistanceMeters>NAN</DistanceMeters>
          </Trackpoint>
          <Trackpoint>
            <Time>2021-08-28T08:33:51.000Z</Time>
            <Position>
              <LatitudeDegrees>38.0650265514850616455078125</LatitudeDegrees>
              <LongitudeDegrees>-1.9632118754088878631591796875</LongitudeDegrees>
            </Position>
            <AltitudeMeters>863.4000244140625</AltitudeMeters>
            <DistanceMeters>NAN</DistanceMeters>
          </Trackpoint>
          <Trackpoint>
            <Time>2021-08-28T08:33:53.000Z</Time>
            <Position>
              <LatitudeDegrees>38.06501909159123897552490234375</LatitudeDegrees>
              <LongitudeDegrees>-1.96298330090939998626708984375</LongitudeDegrees>
            </Position>
            <AltitudeMeters>863.20001220703125</AltitudeMeters>
            <DistanceMeters>NAN</DistanceMeters>
          </Trackpoint>
          <Trackpoint>
            <Time>2021-08-28T08:33:57.000Z</Time>
            <Position>
              <LatitudeDegrees>38.06504733860492706298828125</LatitudeDegrees>
              <LongitudeDegrees>-1.96250201202929019927978515625</LongitudeDegrees>
            </Position>
            <AltitudeMeters>862.4000244140625</AltitudeMeters>
            <DistanceMeters>NAN</DistanceMeters>
          </Trackpoint>
          <Trackpoint>
            <Time>2021-08-28T08:33:58.000Z</Time>
            <Position>
              <LatitudeDegrees>38.0650642700493335723876953125</LatitudeDegrees>
              <LongitudeDegrees>-1.96238516829907894134521484375</LongitudeDegrees>
            </Position>
            <AltitudeMeters>862.20001220703125</AltitudeMeters>
            <DistanceMeters>NAN</DistanceMeters>
          </Trackpoint>
          <Trackpoint>
            <Time>2021-08-28T08:34:00.000Z</Time>
            <Position>
              <LatitudeDegrees>38.06510760448873043060302734375</LatitudeDegrees>
              <LongitudeDegrees>-1.9621547497808933258056640625</LongitudeDegrees>
            </Position>
            <AltitudeMeters>861.4000244140625</AltitudeMeters>
            <DistanceMeters>NAN</DistanceMeters>
          </Trackpoint>
          <Trackpoint>
            <Time>2021-08-28T08:34:03.000Z</Time>
            <Position>
              <LatitudeDegrees>38.06516426615417003631591796875</LatitudeDegrees>
              <LongitudeDegrees>-1.96181201376020908355712890625</LongitudeDegrees>
            </Position>
            <AltitudeMeters>860.5999755859375</AltitudeMeters>
            <DistanceMeters>NAN</DistanceMeters>
          </Trackpoint>
          <Trackpoint>
            <Time>2021-08-28T08:34:06.000Z</Time>
            <Position>
              <LatitudeDegrees>38.06518555618822574615478515625</LatitudeDegrees>
              <LongitudeDegrees>-1.961467601358890533447265625</LongitudeDegrees>
            </Position>
            <AltitudeMeters>860.20001220703125</AltitudeMeters>
            <DistanceMeters>NAN</DistanceMeters>
          </Trackpoint>
          <Trackpoint>
            <Time>2021-08-28T08:34:09.000Z</Time>
            <Position>
              <LatitudeDegrees>38.06518949568271636962890625</LatitudeDegrees>
              <LongitudeDegrees>-1.961132995784282684326171875</LongitudeDegrees>
            </Position>
            <AltitudeMeters>860.4000244140625</AltitudeMeters>
            <DistanceMeters>NAN</DistanceMeters>
          </Trackpoint>
          <Trackpoint>
            <Time>2021-08-28T08:34:16.000Z</Time>
            <Position>
              <LatitudeDegrees>38.0651848018169403076171875</LatitudeDegrees>
              <LongitudeDegrees>-1.9603429175913333892822265625</LongitudeDegrees>
            </Position>
            <AltitudeMeters>859.79998779296875</AltitudeMeters>
            <DistanceMeters>NAN</DistanceMeters>
          </Trackpoint>
          <Trackpoint>
            <Time>2021-08-28T08:34:20.000Z</Time>
            <Position>
              <LatitudeDegrees>38.0651816166937351226806640625</LatitudeDegrees>
              <LongitudeDegrees>-1.9598866067826747894287109375</LongitudeDegrees>
            </Position>
            <AltitudeMeters>859.5999755859375</AltitudeMeters>
            <DistanceMeters>NAN</DistanceMeters>
          </Trackpoint>
          <Trackpoint>
            <Time>2021-08-28T08:34:25.000Z</Time>
            <Position>
              <LatitudeDegrees>38.06526166386902332305908203125</LatitudeDegrees>
              <LongitudeDegrees>-1.95933616720139980316162109375</LongitudeDegrees>
            </Position>
            <AltitudeMeters>860.20001220703125</AltitudeMeters>
            <DistanceMeters>NAN</DistanceMeters>
          </Trackpoint>
          <Trackpoint>
            <Time>2021-08-28T08:34:30.000Z</Time>
            <Position>
              <LatitudeDegrees>38.0653904937207698822021484375</LatitudeDegrees>
              <LongitudeDegrees>-1.9587419740855693817138671875</LongitudeDegrees>
            </Position>
            <AltitudeMeters>858.5999755859375</AltitudeMeters>
            <DistanceMeters>NAN</DistanceMeters>
          </Trackpoint>
          <Trackpoint>
            <Time>2021-08-28T08:34:32.000Z</Time>
            <Position>
              <LatitudeDegrees>38.06544790975749492645263671875</LatitudeDegrees>
              <LongitudeDegrees>-1.9584968872368335723876953125</LongitudeDegrees>
            </Position>
            <AltitudeMeters>857.5999755859375</AltitudeMeters>
            <DistanceMeters>NAN</DistanceMeters>
          </Trackpoint>
          <Trackpoint>
            <Time>2021-08-28T08:34:33.000Z</Time>
            <Position>
              <LatitudeDegrees>38.0654759891331195831298828125</LatitudeDegrees>
              <LongitudeDegrees>-1.95837241597473621368408203125</LongitudeDegrees>
            </Position>
            <AltitudeMeters>857.4000244140625</AltitudeMeters>
            <DistanceMeters>NAN</DistanceMeters>
          </Trackpoint>
          <Trackpoint>
            <Time>2021-08-28T08:34:38.000Z</Time>
            <Position>
              <LatitudeDegrees>38.06564010679721832275390625</LatitudeDegrees>
              <LongitudeDegrees>-1.9577398337423801422119140625</LongitudeDegrees>
            </Position>
            <AltitudeMeters>856.20001220703125</AltitudeMeters>
            <DistanceMeters>NAN</DistanceMeters>
          </Trackpoint>
          <Trackpoint>
            <Time>2021-08-28T08:34:39.000Z</Time>
            <Position>
              <LatitudeDegrees>38.06567992083728313446044921875</LatitudeDegrees>
              <LongitudeDegrees>-1.95761024951934814453125</LongitudeDegrees>
            </Position>
            <AltitudeMeters>855.79998779296875</AltitudeMeters>
            <DistanceMeters>NAN</DistanceMeters>
          </Trackpoint>
          <Trackpoint>
            <Time>2021-08-28T08:34:41.000Z</Time>
            <Position>
              <LatitudeDegrees>38.065764494240283966064453125</LatitudeDegrees>
              <LongitudeDegrees>-1.95735099725425243377685546875</LongitudeDegrees>
            </Position>
            <AltitudeMeters>855</AltitudeMeters>
            <DistanceMeters>NAN</DistanceMeters>
          </Trackpoint>
          <Trackpoint>
            <Time>2021-08-28T08:34:43.000Z</Time>
            <Position>
              <LatitudeDegrees>38.065848648548126220703125</LatitudeDegrees>
              <LongitudeDegrees>-1.9570853747427463531494140625</LongitudeDegrees>
            </Position>
            <AltitudeMeters>854.4000244140625</AltitudeMeters>
            <DistanceMeters>NAN</DistanceMeters>
          </Trackpoint>
          <Trackpoint>
            <Time>2021-08-28T08:34:45.000Z</Time>
            <Position>
              <LatitudeDegrees>38.0659393407404422760009765625</LatitudeDegrees>
              <LongitudeDegrees>-1.95681639946997165679931640625</LongitudeDegrees>
            </Position>
            <AltitudeMeters>853.20001220703125</AltitudeMeters>
            <DistanceMeters>NAN</DistanceMeters>
          </Trackpoint>
          <Trackpoint>
            <Time>2021-08-28T08:34:46.000Z</Time>
            <Position>
              <LatitudeDegrees>38.06598208844661712646484375</LatitudeDegrees>
              <LongitudeDegrees>-1.9566796906292438507080078125</LongitudeDegrees>
            </Position>
            <AltitudeMeters>852.20001220703125</AltitudeMeters>
            <DistanceMeters>NAN</DistanceMeters>
          </Trackpoint>
          <Trackpoint>
            <Time>2021-08-28T08:34:47.000Z</Time>
            <Position>
              <LatitudeDegrees>38.06602290831506252288818359375</LatitudeDegrees>
              <LongitudeDegrees>-1.95654281415045261383056640625</LongitudeDegrees>
            </Position>
            <AltitudeMeters>851</AltitudeMeters>
            <DistanceMeters>NAN</DistanceMeters>
          </Trackpoint>
          <Trackpoint>
            <Time>2021-08-28T08:34:49.000Z</Time>
            <Position>
              <LatitudeDegrees>38.0661032907664775848388671875</LatitudeDegrees>
              <LongitudeDegrees>-1.95625849999487400054931640625</LongitudeDegrees>
            </Position>
            <AltitudeMeters>849</AltitudeMeters>
            <DistanceMeters>NAN</DistanceMeters>
          </Trackpoint>
          <Trackpoint>
            <Time>2021-08-28T08:34:51.000Z</Time>
            <Position>
              <LatitudeDegrees>38.06618367321789264678955078125</LatitudeDegrees>
              <LongitudeDegrees>-1.95596270263195037841796875</LongitudeDegrees>
            </Position>
            <AltitudeMeters>848</AltitudeMeters>
            <DistanceMeters>NAN</DistanceMeters>
          </Trackpoint>
          <Trackpoint>
            <Time>2021-08-28T08:34:52.000Z</Time>
            <Position>
              <LatitudeDegrees>38.0662216432392597198486328125</LatitudeDegrees>
              <LongitudeDegrees>-1.955812163650989532470703125</LongitudeDegrees>
            </Position>
            <AltitudeMeters>846.20001220703125</AltitudeMeters>
            <DistanceMeters>NAN</DistanceMeters>
          </Trackpoint>
          <Trackpoint>
            <Time>2021-08-28T08:34:53.000Z</Time>
            <Position>
              <LatitudeDegrees>38.06626011617481708526611328125</LatitudeDegrees>
              <LongitudeDegrees>-1.95566271431744098663330078125</LongitudeDegrees>
            </Position>
            <AltitudeMeters>845.4000244140625</AltitudeMeters>
            <DistanceMeters>NAN</DistanceMeters>
          </Trackpoint>
          <Trackpoint>
            <Time>2021-08-28T08:34:54.000Z</Time>
            <Position>
              <LatitudeDegrees>38.06629858911037445068359375</LatitudeDegrees>
              <LongitudeDegrees>-1.9555152766406536102294921875</LongitudeDegrees>
            </Position>
            <AltitudeMeters>844.20001220703125</AltitudeMeters>
            <DistanceMeters>NAN</DistanceMeters>
          </Trackpoint>
          <Trackpoint>
            <Time>2021-08-28T08:34:57.000Z</Time>
            <Position>
              <LatitudeDegrees>38.06640981696546077728271484375</LatitudeDegrees>
              <LongitudeDegrees>-1.95508486591279506683349609375</LongitudeDegrees>
            </Position>
            <AltitudeMeters>843.20001220703125</AltitudeMeters>
            <DistanceMeters>NAN</DistanceMeters>
          </Trackpoint>
          <Trackpoint>
            <Time>2021-08-28T08:34:59.000Z</Time>
            <Position>
              <LatitudeDegrees>38.06647201068699359893798828125</LatitudeDegrees>
              <LongitudeDegrees>-1.95480423979461193084716796875</LongitudeDegrees>
            </Position>
            <AltitudeMeters>843</AltitudeMeters>
            <DistanceMeters>NAN</DistanceMeters>
          </Trackpoint>
          <Trackpoint>
            <Time>2021-08-28T08:35:00.000Z</Time>
            <Position>
              <LatitudeDegrees>38.06649439036846160888671875</LatitudeDegrees>
              <LongitudeDegrees>-1.95466359145939350128173828125</LongitudeDegrees>
            </Position>
            <AltitudeMeters>843</AltitudeMeters>
            <DistanceMeters>NAN</DistanceMeters>
          </Trackpoint>
          <Trackpoint>
            <Time>2021-08-28T08:35:01.000Z</Time>
            <Position>
              <LatitudeDegrees>38.06650419719517230987548828125</LatitudeDegrees>
              <LongitudeDegrees>-1.954523026943206787109375</LongitudeDegrees>
            </Position>
            <AltitudeMeters>843</AltitudeMeters>
            <DistanceMeters>NAN</DistanceMeters>
          </Trackpoint>
          <Trackpoint>
            <Time>2021-08-28T08:35:03.000Z</Time>
            <Position>
              <LatitudeDegrees>38.06649397127330303192138671875</LatitudeDegrees>
              <LongitudeDegrees>-1.95424416102468967437744140625</LongitudeDegrees>
            </Position>
            <AltitudeMeters>842</AltitudeMeters>
            <DistanceMeters>NAN</DistanceMeters>
          </Trackpoint>
          <Trackpoint>
            <Time>2021-08-28T08:35:06.000Z</Time>
            <Position>
              <LatitudeDegrees>38.06645549833774566650390625</LatitudeDegrees>
              <LongitudeDegrees>-1.95382825098931789398193359375</LongitudeDegrees>
            </Position>
            <AltitudeMeters>841.5999755859375</AltitudeMeters>
            <DistanceMeters>NAN</DistanceMeters>
          </Trackpoint>
          <Trackpoint>
            <Time>2021-08-28T08:35:09.000Z</Time>
            <Position>
              <LatitudeDegrees>38.06642138399183750152587890625</LatitudeDegrees>
              <LongitudeDegrees>-1.9534198008477687835693359375</LongitudeDegrees>
            </Position>
            <AltitudeMeters>841.5999755859375</AltitudeMeters>
            <DistanceMeters>NAN</DistanceMeters>
          </Trackpoint>
          <Trackpoint>
            <Time>2021-08-28T08:35:12.000Z</Time>
            <Position>
              <LatitudeDegrees>38.06638584472239017486572265625</LatitudeDegrees>
              <LongitudeDegrees>-1.9530235044658184051513671875</LongitudeDegrees>
            </Position>
            <AltitudeMeters>841</AltitudeMeters>
            <DistanceMeters>NAN</DistanceMeters>
          </Trackpoint>
          <Trackpoint>
            <Time>2021-08-28T08:35:13.000Z</Time>
            <Position>
              <LatitudeDegrees>38.0663730204105377197265625</LatitudeDegrees>
              <LongitudeDegrees>-1.95289232768118381500244140625</LongitudeDegrees>
            </Position>
            <AltitudeMeters>840.79998779296875</AltitudeMeters>
            <DistanceMeters>NAN</DistanceMeters>
          </Trackpoint>
          <Trackpoint>
            <Time>2021-08-28T08:35:15.000Z</Time>
            <Position>
              <LatitudeDegrees>38.06634980253875255584716796875</LatitudeDegrees>
              <LongitudeDegrees>-1.952631063759326934814453125</LongitudeDegrees>
            </Position>
            <AltitudeMeters>840.5999755859375</AltitudeMeters>
            <DistanceMeters>NAN</DistanceMeters>
          </Trackpoint>
          <Trackpoint>
            <Time>2021-08-28T08:35:16.000Z</Time>
            <Position>
              <LatitudeDegrees>38.06634158827364444732666015625</LatitudeDegrees>
              <LongitudeDegrees>-1.95249955169856548309326171875</LongitudeDegrees>
            </Position>
            <AltitudeMeters>840.5999755859375</AltitudeMeters>
            <DistanceMeters>NAN</DistanceMeters>
          </Trackpoint>
          <Trackpoint>
            <Time>2021-08-28T08:35:18.000Z</Time>
            <Position>
              <LatitudeDegrees>38.06633555330336093902587890625</LatitudeDegrees>
              <LongitudeDegrees>-1.95223568938672542572021484375</LongitudeDegrees>
            </Position>
            <AltitudeMeters>841.20001220703125</AltitudeMeters>
            <DistanceMeters>NAN</DistanceMeters>
          </Trackpoint>
          <Trackpoint>
            <Time>2021-08-28T08:35:21.000Z</Time>
            <Position>
              <LatitudeDegrees>38.06634284555912017822265625</LatitudeDegrees>
              <LongitudeDegrees>-1.95184542797505855560302734375</LongitudeDegrees>
            </Position>
            <AltitudeMeters>841.20001220703125</AltitudeMeters>
            <DistanceMeters>NAN</DistanceMeters>
          </Trackpoint>
          <Trackpoint>
            <Time>2021-08-28T08:35:23.000Z</Time>
            <Position>
              <LatitudeDegrees>38.06635432876646518707275390625</LatitudeDegrees>
              <LongitudeDegrees>-1.95158676244318485260009765625</LongitudeDegrees>
            </Position>
            <AltitudeMeters>840.5999755859375</AltitudeMeters>
            <DistanceMeters>NAN</DistanceMeters>
          </Trackpoint>
          <Trackpoint>
            <Time>2021-08-28T08:35:28.000Z</Time>
            <Position>
              <LatitudeDegrees>38.06640495546162128448486328125</LatitudeDegrees>
              <LongitudeDegrees>-1.95093917660415172576904296875</LongitudeDegrees>
            </Position>
            <AltitudeMeters>840.20001220703125</AltitudeMeters>
            <DistanceMeters>NAN</DistanceMeters>
          </Trackpoint>
          <Trackpoint>
            <Time>2021-08-28T08:35:30.000Z</Time>
            <Position>
              <LatitudeDegrees>38.06646044366061687469482421875</LatitudeDegrees>
              <LongitudeDegrees>-1.95068386383354663848876953125</LongitudeDegrees>
            </Position>
            <AltitudeMeters>839.5999755859375</AltitudeMeters>
            <DistanceMeters>NAN</DistanceMeters>
          </Trackpoint>
          <Trackpoint>
            <Time>2021-08-28T08:35:33.000Z</Time>
            <Position>
              <LatitudeDegrees>38.0665686540305614471435546875</LatitudeDegrees>
              <LongitudeDegrees>-1.95029779337346553802490234375</LongitudeDegrees>
            </Position>
            <AltitudeMeters>838.4000244140625</AltitudeMeters>
            <DistanceMeters>NAN</DistanceMeters>
          </Trackpoint>
          <Trackpoint>
            <Time>2021-08-28T08:35:37.000Z</Time>
            <Position>
              <LatitudeDegrees>38.06669379584491252899169921875</LatitudeDegrees>
              <LongitudeDegrees>-1.94976436905562877655029296875</LongitudeDegrees>
            </Position>
            <AltitudeMeters>837.4000244140625</AltitudeMeters>
            <DistanceMeters>NAN</DistanceMeters>
          </Trackpoint>
          <Trackpoint>
            <Time>2021-08-28T08:35:38.000Z</Time>
            <Position>
              <LatitudeDegrees>38.066725395619869232177734375</LatitudeDegrees>
              <LongitudeDegrees>-1.94963227026164531707763671875</LongitudeDegrees>
            </Position>
            <AltitudeMeters>837.20001220703125</AltitudeMeters>
            <DistanceMeters>NAN</DistanceMeters>
          </Trackpoint>
          <Trackpoint>
            <Time>2021-08-28T08:35:40.000Z</Time>
            <Position>
              <LatitudeDegrees>38.06678566150367259979248046875</LatitudeDegrees>
              <LongitudeDegrees>-1.94936606101691722869873046875</LongitudeDegrees>
            </Position>
            <AltitudeMeters>835.79998779296875</AltitudeMeters>
            <DistanceMeters>NAN</DistanceMeters>
          </Trackpoint>
          <Trackpoint>
            <Time>2021-08-28T08:35:43.000Z</Time>
            <Position>
              <LatitudeDegrees>38.0668787844479084014892578125</LatitudeDegrees>
              <LongitudeDegrees>-1.94897152483463287353515625</LongitudeDegrees>
            </Position>
            <AltitudeMeters>834.79998779296875</AltitudeMeters>
            <DistanceMeters>NAN</DistanceMeters>
          </Trackpoint>
          <Trackpoint>
            <Time>2021-08-28T08:35:48.000Z</Time>
            <Position>
              <LatitudeDegrees>38.06702136062085628509521484375</LatitudeDegrees>
              <LongitudeDegrees>-1.94830088876187801361083984375</LongitudeDegrees>
            </Position>
            <AltitudeMeters>834</AltitudeMeters>
            <DistanceMeters>NAN</DistanceMeters>
          </Trackpoint>
          <Trackpoint>
            <Time>2021-08-28T08:35:49.000Z</Time>
            <Position>
              <LatitudeDegrees>38.06703980080783367156982421875</LatitudeDegrees>
              <LongitudeDegrees>-1.948164515197277069091796875</LongitudeDegrees>
            </Position>
            <AltitudeMeters>833.79998779296875</AltitudeMeters>
            <DistanceMeters>NAN</DistanceMeters>
          </Trackpoint>
          <Trackpoint>
            <Time>2021-08-28T08:35:53.000Z</Time>
            <Position>
              <LatitudeDegrees>38.06707299314439296722412109375</LatitudeDegrees>
              <LongitudeDegrees>-1.94762731902301311492919921875</LongitudeDegrees>
            </Position>
            <AltitudeMeters>832.5999755859375</AltitudeMeters>
            <DistanceMeters>NAN</DistanceMeters>
          </Trackpoint>
          <Trackpoint>
            <Time>2021-08-28T08:35:59.000Z</Time>
            <Position>
              <LatitudeDegrees>38.06710786186158657073974609375</LatitudeDegrees>
              <LongitudeDegrees>-1.9468571059405803680419921875</LongitudeDegrees>
            </Position>
            <AltitudeMeters>832.4000244140625</AltitudeMeters>
            <DistanceMeters>NAN</DistanceMeters>
          </Trackpoint>
          <Trackpoint>
            <Time>2021-08-28T08:36:02.000Z</Time>
            <Position>
              <LatitudeDegrees>38.06714616715908050537109375</LatitudeDegrees>
              <LongitudeDegrees>-1.94648352451622486114501953125</LongitudeDegrees>
            </Position>
            <AltitudeMeters>832.79998779296875</AltitudeMeters>
            <DistanceMeters>NAN</DistanceMeters>
          </Trackpoint>
          <Trackpoint>
            <Time>2021-08-28T08:36:04.000Z</Time>
            <Position>
              <LatitudeDegrees>38.06720475666224956512451171875</LatitudeDegrees>
              <LongitudeDegrees>-1.9462465681135654449462890625</LongitudeDegrees>
            </Position>
            <AltitudeMeters>832.79998779296875</AltitudeMeters>
            <DistanceMeters>NAN</DistanceMeters>
          </Trackpoint>
          <Trackpoint>
            <Time>2021-08-28T08:36:06.000Z</Time>
            <Position>
              <LatitudeDegrees>38.0672871507704257965087890625</LatitudeDegrees>
              <LongitudeDegrees>-1.946021430194377899169921875</LongitudeDegrees>
            </Position>
            <AltitudeMeters>832.79998779296875</AltitudeMeters>
            <DistanceMeters>NAN</DistanceMeters>
          </Trackpoint>
          <Trackpoint>
            <Time>2021-08-28T08:36:12.000Z</Time>
            <Position>
              <LatitudeDegrees>38.0675536952912807464599609375</LatitudeDegrees>
              <LongitudeDegrees>-1.94535247050225734710693359375</LongitudeDegrees>
            </Position>
            <AltitudeMeters>831.79998779296875</AltitudeMeters>
            <DistanceMeters>NAN</DistanceMeters>
          </Trackpoint>
          <Trackpoint>
            <Time>2021-08-28T08:36:13.000Z</Time>
            <Position>
              <LatitudeDegrees>38.067601807415485382080078125</LatitudeDegrees>
              <LongitudeDegrees>-1.94524057209491729736328125</LongitudeDegrees>
            </Position>
            <AltitudeMeters>831.5999755859375</AltitudeMeters>
            <DistanceMeters>NAN</DistanceMeters>
          </Trackpoint>
          <Trackpoint>
            <Time>2021-08-28T08:36:16.000Z</Time>
            <Position>
              <LatitudeDegrees>38.067766092717647552490234375</LatitudeDegrees>
              <LongitudeDegrees>-1.94491862319409847259521484375</LongitudeDegrees>
            </Position>
            <AltitudeMeters>831</AltitudeMeters>
            <DistanceMeters>NAN</DistanceMeters>
          </Trackpoint>
          <Trackpoint>
            <Time>2021-08-28T08:36:22.000Z</Time>
            <Position>
              <LatitudeDegrees>38.06812760420143604278564453125</LatitudeDegrees>
              <LongitudeDegrees>-1.94426785223186016082763671875</LongitudeDegrees>
            </Position>
            <AltitudeMeters>830.20001220703125</AltitudeMeters>
            <DistanceMeters>NAN</DistanceMeters>
          </Trackpoint>
          <Trackpoint>
            <Time>2021-08-28T08:36:28.000Z</Time>
            <Position>
              <LatitudeDegrees>38.06843471713364124298095703125</LatitudeDegrees>
              <LongitudeDegrees>-1.943568885326385498046875</LongitudeDegrees>
            </Position>
            <AltitudeMeters>829.79998779296875</AltitudeMeters>
            <DistanceMeters>NAN</DistanceMeters>
          </Trackpoint>
          <Trackpoint>
            <Time>2021-08-28T08:36:33.000Z</Time>
            <Position>
              <LatitudeDegrees>38.06860017590224742889404296875</LatitudeDegrees>
              <LongitudeDegrees>-1.94296597503125667572021484375</LongitudeDegrees>
            </Position>
            <AltitudeMeters>829</AltitudeMeters>
            <DistanceMeters>NAN</DistanceMeters>
          </Trackpoint>
          <Trackpoint>
            <Time>2021-08-28T08:36:34.000Z</Time>
            <Position>
              <LatitudeDegrees>38.06862498633563518524169921875</LatitudeDegrees>
              <LongitudeDegrees>-1.94284535944461822509765625</LongitudeDegrees>
            </Position>
            <AltitudeMeters>829</AltitudeMeters>
            <DistanceMeters>NAN</DistanceMeters>
          </Trackpoint>
          <Trackpoint>
            <Time>2021-08-28T08:36:40.000Z</Time>
            <Position>
              <LatitudeDegrees>38.068829588592052459716796875</LatitudeDegrees>
              <LongitudeDegrees>-1.9421397708356380462646484375</LongitudeDegrees>
            </Position>
            <AltitudeMeters>828.20001220703125</AltitudeMeters>
            <DistanceMeters>NAN</DistanceMeters>
          </Trackpoint>
          <Trackpoint>
            <Time>2021-08-28T08:36:42.000Z</Time>
            <Position>
              <LatitudeDegrees>38.0689041875302791595458984375</LatitudeDegrees>
              <LongitudeDegrees>-1.9419094361364841461181640625</LongitudeDegrees>
            </Position>
            <AltitudeMeters>827.79998779296875</AltitudeMeters>
            <DistanceMeters>NAN</DistanceMeters>
          </Trackpoint>
          <Trackpoint>
            <Time>2021-08-28T08:36:48.000Z</Time>
            <Position>
              <LatitudeDegrees>38.06908532045781612396240234375</LatitudeDegrees>
              <LongitudeDegrees>-1.94121264852583408355712890625</LongitudeDegrees>
            </Position>
            <AltitudeMeters>826.5999755859375</AltitudeMeters>
            <DistanceMeters>NAN</DistanceMeters>
          </Trackpoint>
          <Trackpoint>
            <Time>2021-08-28T08:36:53.000Z</Time>
            <Position>
              <LatitudeDegrees>38.06910158134996891021728515625</LatitudeDegrees>
              <LongitudeDegrees>-1.94060663692653179168701171875</LongitudeDegrees>
            </Position>
            <AltitudeMeters>826</AltitudeMeters>
            <DistanceMeters>NAN</DistanceMeters>
          </Trackpoint>
          <Trackpoint>
            <Time>2021-08-28T08:36:54.000Z</Time>
            <Position>
              <LatitudeDegrees>38.06910325773060321807861328125</LatitudeDegrees>
              <LongitudeDegrees>-1.94047604687511920928955078125</LongitudeDegrees>
            </Position>
            <AltitudeMeters>825.5999755859375</AltitudeMeters>
            <DistanceMeters>NAN</DistanceMeters>
          </Trackpoint>
          <Trackpoint>
            <Time>2021-08-28T08:37:00.000Z</Time>
            <Position>
              <LatitudeDegrees>38.069131672382354736328125</LatitudeDegrees>
              <LongitudeDegrees>-1.9396984577178955078125</LongitudeDegrees>
            </Position>
            <AltitudeMeters>824.4000244140625</AltitudeMeters>
            <DistanceMeters>NAN</DistanceMeters>
          </Trackpoint>
          <Trackpoint>
            <Time>2021-08-28T08:37:03.000Z</Time>
            <Position>
              <LatitudeDegrees>38.06913846172392368316650390625</LatitudeDegrees>
              <LongitudeDegrees>-1.93931649439036846160888671875</LongitudeDegrees>
            </Position>
            <AltitudeMeters>823</AltitudeMeters>
            <DistanceMeters>NAN</DistanceMeters>
          </Trackpoint>
          <Trackpoint>
            <Time>2021-08-28T08:37:07.000Z</Time>
            <Position>
              <LatitudeDegrees>38.06914214976131916046142578125</LatitudeDegrees>
              <LongitudeDegrees>-1.938807629048824310302734375</LongitudeDegrees>
            </Position>
            <AltitudeMeters>821.5999755859375</AltitudeMeters>
            <DistanceMeters>NAN</DistanceMeters>
          </Trackpoint>
          <Trackpoint>
            <Time>2021-08-28T08:37:08.000Z</Time>
            <Position>
              <LatitudeDegrees>38.06914349086582660675048828125</LatitudeDegrees>
              <LongitudeDegrees>-1.938679218292236328125</LongitudeDegrees>
            </Position>
            <AltitudeMeters>820.79998779296875</AltitudeMeters>
            <DistanceMeters>NAN</DistanceMeters>
          </Trackpoint>
          <Trackpoint>
            <Time>2021-08-28T08:37:09.000Z</Time>
            <Position>
              <LatitudeDegrees>38.06914449669420719146728515625</LatitudeDegrees>
              <LongitudeDegrees>-1.93854837678372859954833984375</LongitudeDegrees>
            </Position>
            <AltitudeMeters>820.4000244140625</AltitudeMeters>
            <DistanceMeters>NAN</DistanceMeters>
          </Trackpoint>
          <Trackpoint>
            <Time>2021-08-28T08:37:13.000Z</Time>
            <Position>
              <LatitudeDegrees>38.0691571533679962158203125</LatitudeDegrees>
              <LongitudeDegrees>-1.93802400492131710052490234375</LongitudeDegrees>
            </Position>
            <AltitudeMeters>819.4000244140625</AltitudeMeters>
            <DistanceMeters>NAN</DistanceMeters>
          </Trackpoint>
          <Trackpoint>
            <Time>2021-08-28T08:37:15.000Z</Time>
            <Position>
              <LatitudeDegrees>38.069163858890533447265625</LatitudeDegrees>
              <LongitudeDegrees>-1.9377439655363559722900390625</LongitudeDegrees>
            </Position>
            <AltitudeMeters>819.20001220703125</AltitudeMeters>
            <DistanceMeters>NAN</DistanceMeters>
          </Trackpoint>
          <Trackpoint>
            <Time>2021-08-28T08:37:18.000Z</Time>
            <Position>
              <LatitudeDegrees>38.069178275763988494873046875</LatitudeDegrees>
              <LongitudeDegrees>-1.93730902858078479766845703125</LongitudeDegrees>
            </Position>
            <AltitudeMeters>818.20001220703125</AltitudeMeters>
            <DistanceMeters>NAN</DistanceMeters>
          </Trackpoint>
          <Trackpoint>
            <Time>2021-08-28T08:37:20.000Z</Time>
            <Position>
              <LatitudeDegrees>38.06918238289654254913330078125</LatitudeDegrees>
              <LongitudeDegrees>-1.93700962699949741363525390625</LongitudeDegrees>
            </Position>
            <AltitudeMeters>817</AltitudeMeters>
            <DistanceMeters>NAN</DistanceMeters>
          </Trackpoint>
          <Trackpoint>
            <Time>2021-08-28T08:37:22.000Z</Time>
            <Position>
              <LatitudeDegrees>38.06916612200438976287841796875</LatitudeDegrees>
              <LongitudeDegrees>-1.9367086328566074371337890625</LongitudeDegrees>
            </Position>
            <AltitudeMeters>815.4000244140625</AltitudeMeters>
            <DistanceMeters>NAN</DistanceMeters>
          </Trackpoint>
          <Trackpoint>
            <Time>2021-08-28T08:37:24.000Z</Time>
            <Position>
              <LatitudeDegrees>38.06912773288786411285400390625</LatitudeDegrees>
              <LongitudeDegrees>-1.9364105723798274993896484375</LongitudeDegrees>
            </Position>
            <AltitudeMeters>814.20001220703125</AltitudeMeters>
            <DistanceMeters>NAN</DistanceMeters>
          </Trackpoint>
          <Trackpoint>
            <Time>2021-08-28T08:37:27.000Z</Time>
            <Position>
              <LatitudeDegrees>38.06904911063611507415771484375</LatitudeDegrees>
              <LongitudeDegrees>-1.93597328849136829376220703125</LongitudeDegrees>
            </Position>
            <AltitudeMeters>813.4000244140625</AltitudeMeters>
            <DistanceMeters>NAN</DistanceMeters>
          </Trackpoint>
          <Trackpoint>
            <Time>2021-08-28T08:37:28.000Z</Time>
            <Position>
              <LatitudeDegrees>38.06902312673628330230712890625</LatitudeDegrees>
              <LongitudeDegrees>-1.9358258508145809173583984375</LongitudeDegrees>
            </Position>
            <AltitudeMeters>813</AltitudeMeters>
            <DistanceMeters>NAN</DistanceMeters>
          </Trackpoint>
          <Trackpoint>
            <Time>2021-08-28T08:37:29.000Z</Time>
            <Position>
              <LatitudeDegrees>38.06899747811257839202880859375</LatitudeDegrees>
              <LongitudeDegrees>-1.9356776587665081024169921875</LongitudeDegrees>
            </Position>
            <AltitudeMeters>812.5999755859375</AltitudeMeters>
            <DistanceMeters>NAN</DistanceMeters>
          </Trackpoint>
          <Trackpoint>
            <Time>2021-08-28T08:37:30.000Z</Time>
            <Position>
              <LatitudeDegrees>38.0689725838601589202880859375</LatitudeDegrees>
              <LongitudeDegrees>-1.93552804179489612579345703125</LongitudeDegrees>
            </Position>
            <AltitudeMeters>810.79998779296875</AltitudeMeters>
            <DistanceMeters>NAN</DistanceMeters>
          </Trackpoint>
          <Trackpoint>
            <Time>2021-08-28T08:37:32.000Z</Time>
            <Position>
              <LatitudeDegrees>38.0689363740384578704833984375</LatitudeDegrees>
              <LongitudeDegrees>-1.93521724082529544830322265625</LongitudeDegrees>
            </Position>
            <AltitudeMeters>809</AltitudeMeters>
            <DistanceMeters>NAN</DistanceMeters>
          </Trackpoint>
          <Trackpoint>
            <Time>2021-08-28T08:37:33.000Z</Time>
            <Position>
              <LatitudeDegrees>38.06892790831625461578369140625</LatitudeDegrees>
              <LongitudeDegrees>-1.9350614212453365325927734375</LongitudeDegrees>
            </Position>
            <AltitudeMeters>808.20001220703125</AltitudeMeters>
            <DistanceMeters>NAN</DistanceMeters>
          </Trackpoint>
          <Trackpoint>
            <Time>2021-08-28T08:37:34.000Z</Time>
            <Position>
              <LatitudeDegrees>38.0689238011837005615234375</LatitudeDegrees>
              <LongitudeDegrees>-1.93490476347506046295166015625</LongitudeDegrees>
            </Position>
            <AltitudeMeters>807.5999755859375</AltitudeMeters>
            <DistanceMeters>NAN</DistanceMeters>
          </Trackpoint>
          <Trackpoint>
            <Time>2021-08-28T08:37:36.000Z</Time>
            <Position>
              <LatitudeDegrees>38.068916760385036468505859375</LatitudeDegrees>
              <LongitudeDegrees>-1.934584490954875946044921875</LongitudeDegrees>
            </Position>
            <AltitudeMeters>806.4000244140625</AltitudeMeters>
            <DistanceMeters>NAN</DistanceMeters>
          </Trackpoint>
          <Trackpoint>
            <Time>2021-08-28T08:37:37.000Z</Time>
            <Position>
              <LatitudeDegrees>38.06891416199505329132080078125</LatitudeDegrees>
              <LongitudeDegrees>-1.93442146293818950653076171875</LongitudeDegrees>
            </Position>
            <AltitudeMeters>805.20001220703125</AltitudeMeters>
            <DistanceMeters>NAN</DistanceMeters>
          </Trackpoint>
          <Trackpoint>
            <Time>2021-08-28T08:37:39.000Z</Time>
            <Position>
              <LatitudeDegrees>38.0689078755676746368408203125</LatitudeDegrees>
              <LongitudeDegrees>-1.93409121595323085784912109375</LongitudeDegrees>
            </Position>
            <AltitudeMeters>804</AltitudeMeters>
            <DistanceMeters>NAN</DistanceMeters>
          </Trackpoint>
          <Trackpoint>
            <Time>2021-08-28T08:37:40.000Z</Time>
            <Position>
              <LatitudeDegrees>38.0689108930528163909912109375</LatitudeDegrees>
              <LongitudeDegrees>-1.93392475135624408721923828125</LongitudeDegrees>
            </Position>
            <AltitudeMeters>803.20001220703125</AltitudeMeters>
            <DistanceMeters>NAN</DistanceMeters>
          </Trackpoint>
          <Trackpoint>
            <Time>2021-08-28T08:37:41.000Z</Time>
            <Position>
              <LatitudeDegrees>38.068919442594051361083984375</LatitudeDegrees>
              <LongitudeDegrees>-1.93375895731151103973388671875</LongitudeDegrees>
            </Position>
            <AltitudeMeters>802</AltitudeMeters>
            <DistanceMeters>NAN</DistanceMeters>
          </Trackpoint>
          <Trackpoint>
            <Time>2021-08-28T08:37:43.000Z</Time>
            <Position>
              <LatitudeDegrees>38.06895003654062747955322265625</LatitudeDegrees>
              <LongitudeDegrees>-1.93342669866979122161865234375</LongitudeDegrees>
            </Position>
            <AltitudeMeters>800.5999755859375</AltitudeMeters>
            <DistanceMeters>NAN</DistanceMeters>
          </Trackpoint>
          <Trackpoint>
            <Time>2021-08-28T08:37:44.000Z</Time>
            <Position>
              <LatitudeDegrees>38.06896797381341457366943359375</LatitudeDegrees>
              <LongitudeDegrees>-1.933260820806026458740234375</LongitudeDegrees>
            </Position>
            <AltitudeMeters>799.5999755859375</AltitudeMeters>
            <DistanceMeters>NAN</DistanceMeters>
          </Trackpoint>
          <Trackpoint>
            <Time>2021-08-28T08:37:45.000Z</Time>
            <Position>
              <LatitudeDegrees>38.06900518946349620819091796875</LatitudeDegrees>
              <LongitudeDegrees>-1.9329391233623027801513671875</LongitudeDegrees>
            </Position>
            <AltitudeMeters>798.79998779296875</AltitudeMeters>
            <DistanceMeters>NAN</DistanceMeters>
          </Trackpoint>
          <Trackpoint>
            <Time>2021-08-28T08:37:46.000Z</Time>
            <Position>
              <LatitudeDegrees>38.06900518946349620819091796875</LatitudeDegrees>
              <LongitudeDegrees>-1.9329391233623027801513671875</LongitudeDegrees>
            </Position>
            <AltitudeMeters>798.4000244140625</AltitudeMeters>
            <DistanceMeters>NAN</DistanceMeters>
          </Trackpoint>
          <Trackpoint>
            <Time>2021-08-28T08:37:48.000Z</Time>
            <Position>
              <LatitudeDegrees>38.06902899406850337982177734375</LatitudeDegrees>
              <LongitudeDegrees>-1.93262555636465549468994140625</LongitudeDegrees>
            </Position>
            <AltitudeMeters>796.79998779296875</AltitudeMeters>
            <DistanceMeters>NAN</DistanceMeters>
          </Trackpoint>
          <Trackpoint>
            <Time>2021-08-28T08:37:50.000Z</Time>
            <Position>
              <LatitudeDegrees>38.06899731047451496124267578125</LatitudeDegrees>
              <LongitudeDegrees>-1.9323218800127506256103515625</LongitudeDegrees>
            </Position>
            <AltitudeMeters>795.5999755859375</AltitudeMeters>
            <DistanceMeters>NAN</DistanceMeters>
          </Trackpoint>
          <Trackpoint>
            <Time>2021-08-28T08:37:55.000Z</Time>
            <Position>
              <LatitudeDegrees>38.06888935156166553497314453125</LatitudeDegrees>
              <LongitudeDegrees>-1.93161067552864551544189453125</LongitudeDegrees>
            </Position>
            <AltitudeMeters>794.5999755859375</AltitudeMeters>
            <DistanceMeters>NAN</DistanceMeters>
          </Trackpoint>
          <Trackpoint>
            <Time>2021-08-28T08:37:56.000Z</Time>
            <Position>
              <LatitudeDegrees>38.06888021528720855712890625</LatitudeDegrees>
              <LongitudeDegrees>-1.9314686022698879241943359375</LongitudeDegrees>
            </Position>
            <AltitudeMeters>793.79998779296875</AltitudeMeters>
            <DistanceMeters>NAN</DistanceMeters>
          </Trackpoint>
          <Trackpoint>
            <Time>2021-08-28T08:37:57.000Z</Time>
            <Position>
              <LatitudeDegrees>38.0688726715743541717529296875</LatitudeDegrees>
              <LongitudeDegrees>-1.93132502026855945587158203125</LongitudeDegrees>
            </Position>
            <AltitudeMeters>793.4000244140625</AltitudeMeters>
            <DistanceMeters>NAN</DistanceMeters>
          </Trackpoint>
          <Trackpoint>
            <Time>2021-08-28T08:38:00.000Z</Time>
            <Position>
              <LatitudeDegrees>38.068853057920932769775390625</LatitudeDegrees>
              <LongitudeDegrees>-1.93089284934103488922119140625</LongitudeDegrees>
            </Position>
            <AltitudeMeters>792.20001220703125</AltitudeMeters>
            <DistanceMeters>NAN</DistanceMeters>
          </Trackpoint>
          <Trackpoint>
            <Time>2021-08-28T08:38:05.000Z</Time>
            <Position>
              <LatitudeDegrees>38.0688213743269443511962890625</LatitudeDegrees>
              <LongitudeDegrees>-1.930194385349750518798828125</LongitudeDegrees>
            </Position>
            <AltitudeMeters>791.4000244140625</AltitudeMeters>
            <DistanceMeters>NAN</DistanceMeters>
          </Trackpoint>
          <Trackpoint>
            <Time>2021-08-28T08:38:06.000Z</Time>
            <Position>
              <LatitudeDegrees>38.068815171718597412109375</LatitudeDegrees>
              <LongitudeDegrees>-1.930055581033229827880859375</LongitudeDegrees>
            </Position>
            <AltitudeMeters>791.4000244140625</AltitudeMeters>
            <DistanceMeters>NAN</DistanceMeters>
          </Trackpoint>
          <Trackpoint>
            <Time>2021-08-28T08:38:08.000Z</Time>
            <Position>
              <LatitudeDegrees>38.0688012577593326568603515625</LatitudeDegrees>
              <LongitudeDegrees>-1.92978006787598133087158203125</LongitudeDegrees>
            </Position>
            <AltitudeMeters>790.5999755859375</AltitudeMeters>
            <DistanceMeters>NAN</DistanceMeters>
          </Trackpoint>
          <Trackpoint>
            <Time>2021-08-28T08:38:11.000Z</Time>
            <Position>
              <LatitudeDegrees>38.068773262202739715576171875</LatitudeDegrees>
              <LongitudeDegrees>-1.9293773174285888671875</LongitudeDegrees>
            </Position>
            <AltitudeMeters>789.20001220703125</AltitudeMeters>
            <DistanceMeters>NAN</DistanceMeters>
          </Trackpoint>
          <Trackpoint>
            <Time>2021-08-28T08:38:13.000Z</Time>
            <Position>
              <LatitudeDegrees>38.06874635629355907440185546875</LatitudeDegrees>
              <LongitudeDegrees>-1.92911806516349315643310546875</LongitudeDegrees>
            </Position>
            <AltitudeMeters>788.79998779296875</AltitudeMeters>
            <DistanceMeters>NAN</DistanceMeters>
          </Trackpoint>
          <Trackpoint>
            <Time>2021-08-28T08:38:15.000Z</Time>
            <Position>
              <LatitudeDegrees>38.068712912499904632568359375</LatitudeDegrees>
              <LongitudeDegrees>-1.9288507662713527679443359375</LongitudeDegrees>
            </Position>
            <AltitudeMeters>788.79998779296875</AltitudeMeters>
            <DistanceMeters>NAN</DistanceMeters>
          </Trackpoint>
          <Trackpoint>
            <Time>2021-08-28T08:38:17.000Z</Time>
            <Position>
              <LatitudeDegrees>38.06867712177336215972900390625</LatitudeDegrees>
              <LongitudeDegrees>-1.9285858981311321258544921875</LongitudeDegrees>
            </Position>
            <AltitudeMeters>789.20001220703125</AltitudeMeters>
            <DistanceMeters>NAN</DistanceMeters>
          </Trackpoint>
          <Trackpoint>
            <Time>2021-08-28T08:38:18.000Z</Time>
            <Position>
              <LatitudeDegrees>38.0686564184725284576416015625</LatitudeDegrees>
              <LongitudeDegrees>-1.928456313908100128173828125</LongitudeDegrees>
            </Position>
            <AltitudeMeters>789.5999755859375</AltitudeMeters>
            <DistanceMeters>NAN</DistanceMeters>
          </Trackpoint>
          <Trackpoint>
            <Time>2021-08-28T08:38:19.000Z</Time>
            <Position>
              <LatitudeDegrees>38.06863537989556789398193359375</LatitudeDegrees>
              <LongitudeDegrees>-1.92832781933248043060302734375</LongitudeDegrees>
            </Position>
            <AltitudeMeters>790</AltitudeMeters>
            <DistanceMeters>NAN</DistanceMeters>
          </Trackpoint>
          <Trackpoint>
            <Time>2021-08-28T08:38:21.000Z</Time>
            <Position>
              <LatitudeDegrees>38.06860126554965972900390625</LatitudeDegrees>
              <LongitudeDegrees>-1.92806445993483066558837890625</LongitudeDegrees>
            </Position>
            <AltitudeMeters>790.20001220703125</AltitudeMeters>
            <DistanceMeters>NAN</DistanceMeters>
          </Trackpoint>
          <Trackpoint>
            <Time>2021-08-28T08:38:22.000Z</Time>
            <Position>
              <LatitudeDegrees>38.0685974098742008209228515625</LatitudeDegrees>
              <LongitudeDegrees>-1.92793336696922779083251953125</LongitudeDegrees>
            </Position>
            <AltitudeMeters>790</AltitudeMeters>
            <DistanceMeters>NAN</DistanceMeters>
          </Trackpoint>
          <Trackpoint>
            <Time>2021-08-28T08:38:25.000Z</Time>
            <Position>
              <LatitudeDegrees>38.06860604323446750640869140625</LatitudeDegrees>
              <LongitudeDegrees>-1.9275378249585628509521484375</LongitudeDegrees>
            </Position>
            <AltitudeMeters>789.20001220703125</AltitudeMeters>
            <DistanceMeters>NAN</DistanceMeters>
          </Trackpoint>
          <Trackpoint>
            <Time>2021-08-28T08:38:29.000Z</Time>
            <Position>
              <LatitudeDegrees>38.06868248619139194488525390625</LatitudeDegrees>
              <LongitudeDegrees>-1.92701202817261219024658203125</LongitudeDegrees>
            </Position>
            <AltitudeMeters>788.5999755859375</AltitudeMeters>
            <DistanceMeters>NAN</DistanceMeters>
          </Trackpoint>
          <Trackpoint>
            <Time>2021-08-28T08:38:30.000Z</Time>
            <Position>
              <LatitudeDegrees>38.0687462724745273590087890625</LatitudeDegrees>
              <LongitudeDegrees>-1.92675076425075531005859375</LongitudeDegrees>
            </Position>
            <AltitudeMeters>788.5999755859375</AltitudeMeters>
            <DistanceMeters>NAN</DistanceMeters>
          </Trackpoint>
          <Trackpoint>
            <Time>2021-08-28T08:38:31.000Z</Time>
            <Position>
              <LatitudeDegrees>38.0687761120498180389404296875</LatitudeDegrees>
              <LongitudeDegrees>-1.92661891691386699676513671875</LongitudeDegrees>
            </Position>
            <AltitudeMeters>788.20001220703125</AltitudeMeters>
            <DistanceMeters>NAN</DistanceMeters>
          </Trackpoint>
          <Trackpoint>
            <Time>2021-08-28T08:38:33.000Z</Time>
            <Position>
              <LatitudeDegrees>38.06880184449255466461181640625</LatitudeDegrees>
              <LongitudeDegrees>-1.92648514173924922943115234375</LongitudeDegrees>
            </Position>
            <AltitudeMeters>786.79998779296875</AltitudeMeters>
            <DistanceMeters>NAN</DistanceMeters>
          </Trackpoint>
          <Trackpoint>
            <Time>2021-08-28T08:38:35.000Z</Time>
            <Position>
              <LatitudeDegrees>38.06883185170590877532958984375</LatitudeDegrees>
              <LongitudeDegrees>-1.92621641792356967926025390625</LongitudeDegrees>
            </Position>
            <AltitudeMeters>786</AltitudeMeters>
            <DistanceMeters>NAN</DistanceMeters>
          </Trackpoint>
          <Trackpoint>
            <Time>2021-08-28T08:38:36.000Z</Time>
            <Position>
              <LatitudeDegrees>38.06882321834564208984375</LatitudeDegrees>
              <LongitudeDegrees>-1.92608691751956939697265625</LongitudeDegrees>
            </Position>
            <AltitudeMeters>785.79998779296875</AltitudeMeters>
            <DistanceMeters>NAN</DistanceMeters>
          </Trackpoint>
          <Trackpoint>
            <Time>2021-08-28T08:38:37.000Z</Time>
            <Position>
              <LatitudeDegrees>38.06879363022744655609130859375</LatitudeDegrees>
              <LongitudeDegrees>-1.92596076987683773040771484375</LongitudeDegrees>
            </Position>
            <AltitudeMeters>785.79998779296875</AltitudeMeters>
            <DistanceMeters>NAN</DistanceMeters>
          </Trackpoint>
          <Trackpoint>
            <Time>2021-08-28T08:38:39.000Z</Time>
            <Position>
              <LatitudeDegrees>38.0687127448618412017822265625</LatitudeDegrees>
              <LongitudeDegrees>-1.925724484026432037353515625</LongitudeDegrees>
            </Position>
            <AltitudeMeters>785.5999755859375</AltitudeMeters>
            <DistanceMeters>NAN</DistanceMeters>
          </Trackpoint>
          <Trackpoint>
            <Time>2021-08-28T08:38:41.000Z</Time>
            <Position>
              <LatitudeDegrees>38.0686456896364688873291015625</LatitudeDegrees>
              <LongitudeDegrees>-1.9254731945693492889404296875</LongitudeDegrees>
            </Position>
            <AltitudeMeters>785.4000244140625</AltitudeMeters>
            <DistanceMeters>NAN</DistanceMeters>
          </Trackpoint>
          <Trackpoint>
            <Time>2021-08-28T08:38:43.000Z</Time>
            <Position>
              <LatitudeDegrees>38.068628422915935516357421875</LatitudeDegrees>
              <LongitudeDegrees>-1.92520170472562313079833984375</LongitudeDegrees>
            </Position>
            <AltitudeMeters>785</AltitudeMeters>
            <DistanceMeters>NAN</DistanceMeters>
          </Trackpoint>
          <Trackpoint>
            <Time>2021-08-28T08:38:44.000Z</Time>
            <Position>
              <LatitudeDegrees>38.06864225305616855621337890625</LatitudeDegrees>
              <LongitudeDegrees>-1.9250651635229587554931640625</LongitudeDegrees>
            </Position>
            <AltitudeMeters>784.5999755859375</AltitudeMeters>
            <DistanceMeters>NAN</DistanceMeters>
          </Trackpoint>
          <Trackpoint>
            <Time>2021-08-28T08:38:45.000Z</Time>
            <Position>
              <LatitudeDegrees>38.0686674825847148895263671875</LatitudeDegrees>
              <LongitudeDegrees>-1.9249261915683746337890625</LongitudeDegrees>
            </Position>
            <AltitudeMeters>784</AltitudeMeters>
            <DistanceMeters>NAN</DistanceMeters>
          </Trackpoint>
          <Trackpoint>
            <Time>2021-08-28T08:38:46.000Z</Time>
            <Position>
              <LatitudeDegrees>38.0687000043690204620361328125</LatitudeDegrees>
              <LongitudeDegrees>-1.9247885607182979583740234375</LongitudeDegrees>
            </Position>
            <AltitudeMeters>783.5999755859375</AltitudeMeters>
            <DistanceMeters>NAN</DistanceMeters>
          </Trackpoint>
          <Trackpoint>
            <Time>2021-08-28T08:38:47.000Z</Time>
            <Position>
              <LatitudeDegrees>38.068774603307247161865234375</LatitudeDegrees>
              <LongitudeDegrees>-1.92450533621013164520263671875</LongitudeDegrees>
            </Position>
            <AltitudeMeters>783.20001220703125</AltitudeMeters>
            <DistanceMeters>NAN</DistanceMeters>
          </Trackpoint>
          <Trackpoint>
            <Time>2021-08-28T08:38:49.000Z</Time>
            <Position>
              <LatitudeDegrees>38.06881190277636051177978515625</LatitudeDegrees>
              <LongitudeDegrees>-1.92435865290462970733642578125</LongitudeDegrees>
            </Position>
            <AltitudeMeters>782</AltitudeMeters>
            <DistanceMeters>NAN</DistanceMeters>
          </Trackpoint>
          <Trackpoint>
            <Time>2021-08-28T08:38:51.000Z</Time>
            <Position>
              <LatitudeDegrees>38.0688854120671749114990234375</LatitudeDegrees>
              <LongitudeDegrees>-1.92405455745756626129150390625</LongitudeDegrees>
            </Position>
            <AltitudeMeters>780.5999755859375</AltitudeMeters>
            <DistanceMeters>NAN</DistanceMeters>
          </Trackpoint>
          <Trackpoint>
            <Time>2021-08-28T08:38:54.000Z</Time>
            <Position>
              <LatitudeDegrees>38.068975098431110382080078125</LatitudeDegrees>
              <LongitudeDegrees>-1.9235698319971561431884765625</LongitudeDegrees>
            </Position>
            <AltitudeMeters>778.4000244140625</AltitudeMeters>
            <DistanceMeters>NAN</DistanceMeters>
          </Trackpoint>
          <Trackpoint>
            <Time>2021-08-28T08:38:56.000Z</Time>
            <Position>
              <LatitudeDegrees>38.06900803931057453155517578125</LatitudeDegrees>
              <LongitudeDegrees>-1.9232426024973392486572265625</LongitudeDegrees>
            </Position>
            <AltitudeMeters>776.79998779296875</AltitudeMeters>
            <DistanceMeters>NAN</DistanceMeters>
          </Trackpoint>
          <Trackpoint>
            <Time>2021-08-28T08:39:00.000Z</Time>
            <Position>
              <LatitudeDegrees>38.06911583058536052703857421875</LatitudeDegrees>
              <LongitudeDegrees>-1.92262594588100910186767578125</LongitudeDegrees>
            </Position>
            <AltitudeMeters>775.5999755859375</AltitudeMeters>
            <DistanceMeters>NAN</DistanceMeters>
          </Trackpoint>
          <Trackpoint>
            <Time>2021-08-28T08:39:04.000Z</Time>
            <Position>
              <LatitudeDegrees>38.0692753382027149200439453125</LatitudeDegrees>
              <LongitudeDegrees>-1.92205916158854961395263671875</LongitudeDegrees>
            </Position>
            <AltitudeMeters>774.4000244140625</AltitudeMeters>
            <DistanceMeters>NAN</DistanceMeters>
          </Trackpoint>
          <Trackpoint>
            <Time>2021-08-28T08:39:06.000Z</Time>
            <Position>
              <LatitudeDegrees>38.06933644227683544158935546875</LatitudeDegrees>
              <LongitudeDegrees>-1.9217744283378124237060546875</LongitudeDegrees>
            </Position>
            <AltitudeMeters>774</AltitudeMeters>
            <DistanceMeters>NAN</DistanceMeters>
          </Trackpoint>
          <Trackpoint>
            <Time>2021-08-28T08:39:08.000Z</Time>
            <Position>
              <LatitudeDegrees>38.06938715279102325439453125</LatitudeDegrees>
              <LongitudeDegrees>-1.92148885689675807952880859375</LongitudeDegrees>
            </Position>
            <AltitudeMeters>773.20001220703125</AltitudeMeters>
            <DistanceMeters>NAN</DistanceMeters>
          </Trackpoint>
          <Trackpoint>
            <Time>2021-08-28T08:39:09.000Z</Time>
            <Position>
              <LatitudeDegrees>38.06940584443509578704833984375</LatitudeDegrees>
              <LongitudeDegrees>-1.92134737037122249603271484375</LongitudeDegrees>
            </Position>
            <AltitudeMeters>772.79998779296875</AltitudeMeters>
            <DistanceMeters>NAN</DistanceMeters>
          </Trackpoint>
          <Trackpoint>
            <Time>2021-08-28T08:39:11.000Z</Time>
            <Position>
              <LatitudeDegrees>38.06940718553960323333740234375</LatitudeDegrees>
              <LongitudeDegrees>-1.92106389440596103668212890625</LongitudeDegrees>
            </Position>
            <AltitudeMeters>772.5999755859375</AltitudeMeters>
            <DistanceMeters>NAN</DistanceMeters>
          </Trackpoint>
          <Trackpoint>
            <Time>2021-08-28T08:39:15.000Z</Time>
            <Position>
              <LatitudeDegrees>38.06937298737466335296630859375</LatitudeDegrees>
              <LongitudeDegrees>-1.92049627192318439483642578125</LongitudeDegrees>
            </Position>
            <AltitudeMeters>772.20001220703125</AltitudeMeters>
            <DistanceMeters>NAN</DistanceMeters>
          </Trackpoint>
          <Trackpoint>
            <Time>2021-08-28T08:39:17.000Z</Time>
            <Position>
              <LatitudeDegrees>38.06938455440104007720947265625</LatitudeDegrees>
              <LongitudeDegrees>-1.92021447233855724334716796875</LongitudeDegrees>
            </Position>
            <AltitudeMeters>771.5999755859375</AltitudeMeters>
            <DistanceMeters>NAN</DistanceMeters>
          </Trackpoint>
          <Trackpoint>
            <Time>2021-08-28T08:39:21.000Z</Time>
            <Position>
              <LatitudeDegrees>38.06947491131722927093505859375</LatitudeDegrees>
              <LongitudeDegrees>-1.9196719117462635040283203125</LongitudeDegrees>
            </Position>
            <AltitudeMeters>770.79998779296875</AltitudeMeters>
            <DistanceMeters>NAN</DistanceMeters>
          </Trackpoint>
          <Trackpoint>
            <Time>2021-08-28T08:39:22.000Z</Time>
            <Position>
              <LatitudeDegrees>38.06951346807181835174560546875</LatitudeDegrees>
              <LongitudeDegrees>-1.9195401482284069061279296875</LongitudeDegrees>
            </Position>
            <AltitudeMeters>770.5999755859375</AltitudeMeters>
            <DistanceMeters>NAN</DistanceMeters>
          </Trackpoint>
          <Trackpoint>
            <Time>2021-08-28T08:39:24.000Z</Time>
            <Position>
              <LatitudeDegrees>38.06963282637298107147216796875</LatitudeDegrees>
              <LongitudeDegrees>-1.9191502220928668975830078125</LongitudeDegrees>
            </Position>
            <AltitudeMeters>769.5999755859375</AltitudeMeters>
            <DistanceMeters>NAN</DistanceMeters>
          </Trackpoint>
          <Trackpoint>
            <Time>2021-08-28T08:39:27.000Z</Time>
            <Position>
              <LatitudeDegrees>38.06970859877765178680419921875</LatitudeDegrees>
              <LongitudeDegrees>-1.91888744942843914031982421875</LongitudeDegrees>
            </Position>
            <AltitudeMeters>768.4000244140625</AltitudeMeters>
            <DistanceMeters>NAN</DistanceMeters>
          </Trackpoint>
          <Trackpoint>
            <Time>2021-08-28T08:39:29.000Z</Time>
            <Position>
              <LatitudeDegrees>38.069793842732906341552734375</LatitudeDegrees>
              <LongitudeDegrees>-1.91862710751593112945556640625</LongitudeDegrees>
            </Position>
            <AltitudeMeters>767.79998779296875</AltitudeMeters>
            <DistanceMeters>NAN</DistanceMeters>
          </Trackpoint>
          <Trackpoint>
            <Time>2021-08-28T08:39:30.000Z</Time>
            <Position>
              <LatitudeDegrees>38.06984321214258670806884765625</LatitudeDegrees>
              <LongitudeDegrees>-1.91849852912127971649169921875</LongitudeDegrees>
            </Position>
            <AltitudeMeters>767.20001220703125</AltitudeMeters>
            <DistanceMeters>NAN</DistanceMeters>
          </Trackpoint>
          <Trackpoint>
            <Time>2021-08-28T08:39:33.000Z</Time>
            <Position>
              <LatitudeDegrees>38.07003951631486415863037109375</LatitudeDegrees>
              <LongitudeDegrees>-1.91814196296036243438720703125</LongitudeDegrees>
            </Position>
            <AltitudeMeters>766.4000244140625</AltitudeMeters>
            <DistanceMeters>NAN</DistanceMeters>
          </Trackpoint>
          <Trackpoint>
            <Time>2021-08-28T08:39:34.000Z</Time>
            <Position>
              <LatitudeDegrees>38.07011805474758148193359375</LatitudeDegrees>
              <LongitudeDegrees>-1.91803484223783016204833984375</LongitudeDegrees>
            </Position>
            <AltitudeMeters>766</AltitudeMeters>
            <DistanceMeters>NAN</DistanceMeters>
          </Trackpoint>
          <Trackpoint>
            <Time>2021-08-28T08:39:37.000Z</Time>
            <Position>
              <LatitudeDegrees>38.0703897960484027862548828125</LatitudeDegrees>
              <LongitudeDegrees>-1.91773594357073307037353515625</LongitudeDegrees>
            </Position>
            <AltitudeMeters>764.4000244140625</AltitudeMeters>
            <DistanceMeters>NAN</DistanceMeters>
          </Trackpoint>
          <Trackpoint>
            <Time>2021-08-28T08:39:42.000Z</Time>
            <Position>
              <LatitudeDegrees>38.07086915709078311920166015625</LatitudeDegrees>
              <LongitudeDegrees>-1.91730293445289134979248046875</LongitudeDegrees>
            </Position>
            <AltitudeMeters>763.5999755859375</AltitudeMeters>
            <DistanceMeters>NAN</DistanceMeters>
          </Trackpoint>
          <Trackpoint>
            <Time>2021-08-28T08:39:43.000Z</Time>
            <Position>
              <LatitudeDegrees>38.07096420787274837493896484375</LatitudeDegrees>
              <LongitudeDegrees>-1.9172210432589054107666015625</LongitudeDegrees>
            </Position>
            <AltitudeMeters>763.20001220703125</AltitudeMeters>
            <DistanceMeters>NAN</DistanceMeters>
          </Trackpoint>
          <Trackpoint>
            <Time>2021-08-28T08:39:47.000Z</Time>
            <Position>
              <LatitudeDegrees>38.07134809903800487518310546875</LatitudeDegrees>
              <LongitudeDegrees>-1.916891969740390777587890625</LongitudeDegrees>
            </Position>
            <AltitudeMeters>761.5999755859375</AltitudeMeters>
            <DistanceMeters>NAN</DistanceMeters>
          </Trackpoint>
          <Trackpoint>
            <Time>2021-08-28T08:39:48.000Z</Time>
            <Position>
              <LatitudeDegrees>38.07151473127305507659912109375</LatitudeDegrees>
              <LongitudeDegrees>-1.91668770276010036468505859375</LongitudeDegrees>
            </Position>
            <AltitudeMeters>761.20001220703125</AltitudeMeters>
            <DistanceMeters>NAN</DistanceMeters>
          </Trackpoint>
          <Trackpoint>
            <Time>2021-08-28T08:39:49.000Z</Time>
            <Position>
              <LatitudeDegrees>38.0715931020677089691162109375</LatitudeDegrees>
              <LongitudeDegrees>-1.9165853597223758697509765625</LongitudeDegrees>
            </Position>
            <AltitudeMeters>761</AltitudeMeters>
            <DistanceMeters>NAN</DistanceMeters>
          </Trackpoint>
          <Trackpoint>
            <Time>2021-08-28T08:39:50.000Z</Time>
            <Position>
              <LatitudeDegrees>38.07166661135852336883544921875</LatitudeDegrees>
              <LongitudeDegrees>-1.916476897895336151123046875</LongitudeDegrees>
            </Position>
            <AltitudeMeters>760.5999755859375</AltitudeMeters>
            <DistanceMeters>NAN</DistanceMeters>
          </Trackpoint>
          <Trackpoint>
            <Time>2021-08-28T08:39:51.000Z</Time>
            <Position>
              <LatitudeDegrees>38.07166661135852336883544921875</LatitudeDegrees>
              <LongitudeDegrees>-1.916476897895336151123046875</LongitudeDegrees>
            </Position>
            <AltitudeMeters>760.4000244140625</AltitudeMeters>
            <DistanceMeters>NAN</DistanceMeters>
          </Trackpoint>
          <Trackpoint>
            <Time>2021-08-28T08:39:52.000Z</Time>
            <Position>
              <LatitudeDegrees>38.07178546674549579620361328125</LatitudeDegrees>
              <LongitudeDegrees>-1.91623524762690067291259765625</LongitudeDegrees>
            </Position>
            <AltitudeMeters>760</AltitudeMeters>
            <DistanceMeters>NAN</DistanceMeters>
          </Trackpoint>
          <Trackpoint>
            <Time>2021-08-28T08:39:53.000Z</Time>
            <Position>
              <LatitudeDegrees>38.07183575816452503204345703125</LatitudeDegrees>
              <LongitudeDegrees>-1.9161072559654712677001953125</LongitudeDegrees>
            </Position>
            <AltitudeMeters>759.79998779296875</AltitudeMeters>
            <DistanceMeters>NAN</DistanceMeters>
          </Trackpoint>
          <Trackpoint>
            <Time>2021-08-28T08:39:57.000Z</Time>
            <Position>
              <LatitudeDegrees>38.07196819223463535308837890625</LatitudeDegrees>
              <LongitudeDegrees>-1.915569640696048736572265625</LongitudeDegrees>
            </Position>
            <AltitudeMeters>759.4000244140625</AltitudeMeters>
            <DistanceMeters>NAN</DistanceMeters>
          </Trackpoint>
          <Trackpoint>
            <Time>2021-08-28T08:39:58.000Z</Time>
            <Position>
              <LatitudeDegrees>38.0719934217631816864013671875</LatitudeDegrees>
              <LongitudeDegrees>-1.915432848036289215087890625</LongitudeDegrees>
            </Position>
            <AltitudeMeters>759.20001220703125</AltitudeMeters>
            <DistanceMeters>NAN</DistanceMeters>
          </Trackpoint>
          <Trackpoint>
            <Time>2021-08-28T08:40:03.000Z</Time>
            <Position>
              <LatitudeDegrees>38.072130382061004638671875</LatitudeDegrees>
              <LongitudeDegrees>-1.9147430174052715301513671875</LongitudeDegrees>
            </Position>
            <AltitudeMeters>758.4000244140625</AltitudeMeters>
            <DistanceMeters>NAN</DistanceMeters>
          </Trackpoint>
          <Trackpoint>
            <Time>2021-08-28T08:40:05.000Z</Time>
            <Position>
              <LatitudeDegrees>38.07215251028537750244140625</LatitudeDegrees>
              <LongitudeDegrees>-1.9146022014319896697998046875</LongitudeDegrees>
            </Position>
            <AltitudeMeters>758.4000244140625</AltitudeMeters>
            <DistanceMeters>NAN</DistanceMeters>
          </Trackpoint>
          <Trackpoint>
            <Time>2021-08-28T08:40:08.000Z</Time>
            <Position>
              <LatitudeDegrees>38.07216432876884937286376953125</LatitudeDegrees>
              <LongitudeDegrees>-1.9140064157545566558837890625</LongitudeDegrees>
            </Position>
            <AltitudeMeters>757</AltitudeMeters>
            <DistanceMeters>NAN</DistanceMeters>
          </Trackpoint>
          <Trackpoint>
            <Time>2021-08-28T08:40:09.000Z</Time>
            <Position>
              <LatitudeDegrees>38.07215695269405841827392578125</LatitudeDegrees>
              <LongitudeDegrees>-1.91385696642100811004638671875</LongitudeDegrees>
            </Position>
            <AltitudeMeters>756.5999755859375</AltitudeMeters>
            <DistanceMeters>NAN</DistanceMeters>
          </Trackpoint>
          <Trackpoint>
            <Time>2021-08-28T08:40:11.000Z</Time>
            <Position>
              <LatitudeDegrees>38.07213566266000270843505859375</LatitudeDegrees>
              <LongitudeDegrees>-1.913566701114177703857421875</LongitudeDegrees>
            </Position>
            <AltitudeMeters>755.5999755859375</AltitudeMeters>
            <DistanceMeters>NAN</DistanceMeters>
          </Trackpoint>
          <Trackpoint>
            <Time>2021-08-28T08:40:13.000Z</Time>
            <Position>
              <LatitudeDegrees>38.07211336679756641387939453125</LatitudeDegrees>
              <LongitudeDegrees>-1.91342412494122982025146484375</LongitudeDegrees>
            </Position>
            <AltitudeMeters>754.4000244140625</AltitudeMeters>
            <DistanceMeters>NAN</DistanceMeters>
          </Trackpoint>
          <Trackpoint>
            <Time>2021-08-28T08:40:14.000Z</Time>
            <Position>
              <LatitudeDegrees>38.07208319194614887237548828125</LatitudeDegrees>
              <LongitudeDegrees>-1.9132845662534236907958984375</LongitudeDegrees>
            </Position>
            <AltitudeMeters>754.20001220703125</AltitudeMeters>
            <DistanceMeters>NAN</DistanceMeters>
          </Trackpoint>
          <Trackpoint>
            <Time>2021-08-28T08:40:16.000Z</Time>
            <Position>
              <LatitudeDegrees>38.07203449308872222900390625</LatitudeDegrees>
              <LongitudeDegrees>-1.91285817883908748626708984375</LongitudeDegrees>
            </Position>
            <AltitudeMeters>753.79998779296875</AltitudeMeters>
            <DistanceMeters>NAN</DistanceMeters>
          </Trackpoint>
          <Trackpoint>
            <Time>2021-08-28T08:40:17.000Z</Time>
            <Position>
              <LatitudeDegrees>38.0720383487641811370849609375</LatitudeDegrees>
              <LongitudeDegrees>-1.9127125851809978485107421875</LongitudeDegrees>
            </Position>
            <AltitudeMeters>753.79998779296875</AltitudeMeters>
            <DistanceMeters>NAN</DistanceMeters>
          </Trackpoint>
          <Trackpoint>
            <Time>2021-08-28T08:40:19.000Z</Time>
            <Position>
              <LatitudeDegrees>38.07204245589673519134521484375</LatitudeDegrees>
              <LongitudeDegrees>-1.912562549114227294921875</LongitudeDegrees>
            </Position>
            <AltitudeMeters>753</AltitudeMeters>
            <DistanceMeters>NAN</DistanceMeters>
          </Trackpoint>
          <Trackpoint>
            <Time>2021-08-28T08:40:20.000Z</Time>
            <Position>
              <LatitudeDegrees>38.0720405280590057373046875</LatitudeDegrees>
              <LongitudeDegrees>-1.912414692342281341552734375</LongitudeDegrees>
            </Position>
            <AltitudeMeters>752.4000244140625</AltitudeMeters>
            <DistanceMeters>NAN</DistanceMeters>
          </Trackpoint>
          <Trackpoint>
            <Time>2021-08-28T08:40:21.000Z</Time>
            <Position>
              <LatitudeDegrees>38.0720299668610095977783203125</LatitudeDegrees>
              <LongitudeDegrees>-1.9122688472270965576171875</LongitudeDegrees>
            </Position>
            <AltitudeMeters>752</AltitudeMeters>
            <DistanceMeters>NAN</DistanceMeters>
          </Trackpoint>
          <Trackpoint>
            <Time>2021-08-28T08:40:22.000Z</Time>
            <Position>
              <LatitudeDegrees>38.071989230811595916748046875</LatitudeDegrees>
              <LongitudeDegrees>-1.9119702838361263275146484375</LongitudeDegrees>
            </Position>
            <AltitudeMeters>751.5999755859375</AltitudeMeters>
            <DistanceMeters>NAN</DistanceMeters>
          </Trackpoint>
          <Trackpoint>
            <Time>2021-08-28T08:40:24.000Z</Time>
            <Position>
              <LatitudeDegrees>38.07197690941393375396728515625</LatitudeDegrees>
              <LongitudeDegrees>-1.9118257798254489898681640625</LongitudeDegrees>
            </Position>
            <AltitudeMeters>750.20001220703125</AltitudeMeters>
            <DistanceMeters>NAN</DistanceMeters>
          </Trackpoint>
          <Trackpoint>
            <Time>2021-08-28T08:40:26.000Z</Time>
            <Position>
              <LatitudeDegrees>38.07202242314815521240234375</LatitudeDegrees>
              <LongitudeDegrees>-1.9115324132144451141357421875</LongitudeDegrees>
            </Position>
            <AltitudeMeters>748.79998779296875</AltitudeMeters>
            <DistanceMeters>NAN</DistanceMeters>
          </Trackpoint>
          <Trackpoint>
            <Time>2021-08-28T08:40:28.000Z</Time>
            <Position>
              <LatitudeDegrees>38.07215385138988494873046875</LatitudeDegrees>
              <LongitudeDegrees>-1.91125706769526004791259765625</LongitudeDegrees>
            </Position>
            <AltitudeMeters>747.79998779296875</AltitudeMeters>
            <DistanceMeters>NAN</DistanceMeters>
          </Trackpoint>
          <Trackpoint>
            <Time>2021-08-28T08:40:29.000Z</Time>
            <Position>
              <LatitudeDegrees>38.07234152220189571380615234375</LatitudeDegrees>
              <LongitudeDegrees>-1.9110311754047870635986328125</LongitudeDegrees>
            </Position>
            <AltitudeMeters>746.5999755859375</AltitudeMeters>
            <DistanceMeters>NAN</DistanceMeters>
          </Trackpoint>
          <Trackpoint>
            <Time>2021-08-28T08:40:30.000Z</Time>
            <Position>
              <LatitudeDegrees>38.07234152220189571380615234375</LatitudeDegrees>
              <LongitudeDegrees>-1.9110311754047870635986328125</LongitudeDegrees>
            </Position>
            <AltitudeMeters>745.79998779296875</AltitudeMeters>
            <DistanceMeters>NAN</DistanceMeters>
          </Trackpoint>
          <Trackpoint>
            <Time>2021-08-28T08:40:31.000Z</Time>
            <Position>
              <LatitudeDegrees>38.07245249859988689422607421875</LatitudeDegrees>
              <LongitudeDegrees>-1.9109537266194820404052734375</LongitudeDegrees>
            </Position>
            <AltitudeMeters>745</AltitudeMeters>
            <DistanceMeters>NAN</DistanceMeters>
          </Trackpoint>
          <Trackpoint>
            <Time>2021-08-28T08:40:33.000Z</Time>
            <Position>
              <LatitudeDegrees>38.07269842363893985748291015625</LatitudeDegrees>
              <LongitudeDegrees>-1.9108564965426921844482421875</LongitudeDegrees>
            </Position>
            <AltitudeMeters>743.5999755859375</AltitudeMeters>
            <DistanceMeters>NAN</DistanceMeters>
          </Trackpoint>
          <Trackpoint>
            <Time>2021-08-28T08:40:35.000Z</Time>
            <Position>
              <LatitudeDegrees>38.07294937781989574432373046875</LatitudeDegrees>
              <LongitudeDegrees>-1.91078198142349720001220703125</LongitudeDegrees>
            </Position>
            <AltitudeMeters>742.4000244140625</AltitudeMeters>
            <DistanceMeters>NAN</DistanceMeters>
          </Trackpoint>
          <Trackpoint>
            <Time>2021-08-28T08:40:36.000Z</Time>
            <Position>
              <LatitudeDegrees>38.07306622155010700225830078125</LatitudeDegrees>
              <LongitudeDegrees>-1.91072322428226470947265625</LongitudeDegrees>
            </Position>
            <AltitudeMeters>741.5999755859375</AltitudeMeters>
            <DistanceMeters>NAN</DistanceMeters>
          </Trackpoint>
          <Trackpoint>
            <Time>2021-08-28T08:40:37.000Z</Time>
            <Position>
              <LatitudeDegrees>38.0731735937297344207763671875</LatitudeDegrees>
              <LongitudeDegrees>-1.9106429256498813629150390625</LongitudeDegrees>
            </Position>
            <AltitudeMeters>740.79998779296875</AltitudeMeters>
            <DistanceMeters>NAN</DistanceMeters>
          </Trackpoint>
          <Trackpoint>
            <Time>2021-08-28T08:40:38.000Z</Time>
            <Position>
              <LatitudeDegrees>38.07327426038682460784912109375</LatitudeDegrees>
              <LongitudeDegrees>-1.9105456955730915069580078125</LongitudeDegrees>
            </Position>
            <AltitudeMeters>739.5999755859375</AltitudeMeters>
            <DistanceMeters>NAN</DistanceMeters>
          </Trackpoint>
          <Trackpoint>
            <Time>2021-08-28T08:40:40.000Z</Time>
            <Position>
              <LatitudeDegrees>38.0735135637223720550537109375</LatitudeDegrees>
              <LongitudeDegrees>-1.9101765565574169158935546875</LongitudeDegrees>
            </Position>
            <AltitudeMeters>738</AltitudeMeters>
            <DistanceMeters>NAN</DistanceMeters>
          </Trackpoint>
          <Trackpoint>
            <Time>2021-08-28T08:40:42.000Z</Time>
            <Position>
              <LatitudeDegrees>38.07358740828931331634521484375</LatitudeDegrees>
              <LongitudeDegrees>-1.91004621796309947967529296875</LongitudeDegrees>
            </Position>
            <AltitudeMeters>737</AltitudeMeters>
            <DistanceMeters>NAN</DistanceMeters>
          </Trackpoint>
          <Trackpoint>
            <Time>2021-08-28T08:40:43.000Z</Time>
            <Position>
              <LatitudeDegrees>38.07375437580049037933349609375</LatitudeDegrees>
              <LongitudeDegrees>-1.90981940366327762603759765625</LongitudeDegrees>
            </Position>
            <AltitudeMeters>736.79998779296875</AltitudeMeters>
            <DistanceMeters>NAN</DistanceMeters>
          </Trackpoint>
          <Trackpoint>
            <Time>2021-08-28T08:40:44.000Z</Time>
            <Position>
              <LatitudeDegrees>38.0738612450659275054931640625</LatitudeDegrees>
              <LongitudeDegrees>-1.9097504206001758575439453125</LongitudeDegrees>
            </Position>
            <AltitudeMeters>735.79998779296875</AltitudeMeters>
            <DistanceMeters>NAN</DistanceMeters>
          </Trackpoint>
          <Trackpoint>
            <Time>2021-08-28T08:40:45.000Z</Time>
            <Position>
              <LatitudeDegrees>38.0739759095013141632080078125</LatitudeDegrees>
              <LongitudeDegrees>-1.9097132049500942230224609375</LongitudeDegrees>
            </Position>
            <AltitudeMeters>735.20001220703125</AltitudeMeters>
            <DistanceMeters>NAN</DistanceMeters>
          </Trackpoint>
          <Trackpoint>
            <Time>2021-08-28T08:40:46.000Z</Time>
            <Position>
              <LatitudeDegrees>38.0740956030786037445068359375</LatitudeDegrees>
              <LongitudeDegrees>-1.90969862043857574462890625</LongitudeDegrees>
            </Position>
            <AltitudeMeters>734.4000244140625</AltitudeMeters>
            <DistanceMeters>NAN</DistanceMeters>
          </Trackpoint>
          <Trackpoint>
            <Time>2021-08-28T08:40:49.000Z</Time>
            <Position>
              <LatitudeDegrees>38.07446935214102268218994140625</LatitudeDegrees>
              <LongitudeDegrees>-1.90969526767730712890625</LongitudeDegrees>
            </Position>
            <AltitudeMeters>732.5999755859375</AltitudeMeters>
            <DistanceMeters>NAN</DistanceMeters>
          </Trackpoint>
          <Trackpoint>
            <Time>2021-08-28T08:40:51.000Z</Time>
            <Position>
              <LatitudeDegrees>38.07472315616905689239501953125</LatitudeDegrees>
              <LongitudeDegrees>-1.90966249443590641021728515625</LongitudeDegrees>
            </Position>
            <AltitudeMeters>731.20001220703125</AltitudeMeters>
            <DistanceMeters>NAN</DistanceMeters>
          </Trackpoint>
          <Trackpoint>
            <Time>2021-08-28T08:40:52.000Z</Time>
            <Position>
              <LatitudeDegrees>38.07485039345920085906982421875</LatitudeDegrees>
              <LongitudeDegrees>-1.9096515141427516937255859375</LongitudeDegrees>
            </Position>
            <AltitudeMeters>730.5999755859375</AltitudeMeters>
            <DistanceMeters>NAN</DistanceMeters>
          </Trackpoint>
          <Trackpoint>
            <Time>2021-08-28T08:40:53.000Z</Time>
            <Position>
              <LatitudeDegrees>38.07498198933899402618408203125</LatitudeDegrees>
              <LongitudeDegrees>-1.9096605665981769561767578125</LongitudeDegrees>
            </Position>
            <AltitudeMeters>729.4000244140625</AltitudeMeters>
            <DistanceMeters>NAN</DistanceMeters>
          </Trackpoint>
          <Trackpoint>
            <Time>2021-08-28T08:40:54.000Z</Time>
            <Position>
              <LatitudeDegrees>38.07511635124683380126953125</LatitudeDegrees>
              <LongitudeDegrees>-1.909680180251598358154296875</LongitudeDegrees>
            </Position>
            <AltitudeMeters>728.4000244140625</AltitudeMeters>
            <DistanceMeters>NAN</DistanceMeters>
          </Trackpoint>
          <Trackpoint>
            <Time>2021-08-28T08:40:55.000Z</Time>
            <Position>
              <LatitudeDegrees>38.07525314390659332275390625</LatitudeDegrees>
              <LongitudeDegrees>-1.9097006320953369140625</LongitudeDegrees>
            </Position>
            <AltitudeMeters>727.20001220703125</AltitudeMeters>
            <DistanceMeters>NAN</DistanceMeters>
          </Trackpoint>
          <Trackpoint>
            <Time>2021-08-28T08:40:57.000Z</Time>
            <Position>
              <LatitudeDegrees>38.07552999816834926605224609375</LatitudeDegrees>
              <LongitudeDegrees>-1.909732483327388763427734375</LongitudeDegrees>
            </Position>
            <AltitudeMeters>725.20001220703125</AltitudeMeters>
            <DistanceMeters>NAN</DistanceMeters>
          </Trackpoint>
          <Trackpoint>
            <Time>2021-08-28T08:40:59.000Z</Time>
            <Position>
              <LatitudeDegrees>38.0758065171539783477783203125</LatitudeDegrees>
              <LongitudeDegrees>-1.9097564555704593658447265625</LongitudeDegrees>
            </Position>
            <AltitudeMeters>723.79998779296875</AltitudeMeters>
            <DistanceMeters>NAN</DistanceMeters>
          </Trackpoint>
          <Trackpoint>
            <Time>2021-08-28T08:41:00.000Z</Time>
            <Position>
              <LatitudeDegrees>38.07594473473727703094482421875</LatitudeDegrees>
              <LongitudeDegrees>-1.90977967344224452972412109375</LongitudeDegrees>
            </Position>
            <AltitudeMeters>723</AltitudeMeters>
            <DistanceMeters>NAN</DistanceMeters>
          </Trackpoint>
          <Trackpoint>
            <Time>2021-08-28T08:41:01.000Z</Time>
            <Position>
              <LatitudeDegrees>38.0760797671973705291748046875</LatitudeDegrees>
              <LongitudeDegrees>-1.9098119437694549560546875</LongitudeDegrees>
            </Position>
            <AltitudeMeters>722.4000244140625</AltitudeMeters>
            <DistanceMeters>NAN</DistanceMeters>
          </Trackpoint>
          <Trackpoint>
            <Time>2021-08-28T08:41:02.000Z</Time>
            <Position>
              <LatitudeDegrees>38.07621203362941741943359375</LatitudeDegrees>
              <LongitudeDegrees>-1.9098468124866485595703125</LongitudeDegrees>
            </Position>
            <AltitudeMeters>720.79998779296875</AltitudeMeters>
            <DistanceMeters>NAN</DistanceMeters>
          </Trackpoint>
          <Trackpoint>
            <Time>2021-08-28T08:41:04.000Z</Time>
            <Position>
              <LatitudeDegrees>38.07646307162940502166748046875</LatitudeDegrees>
              <LongitudeDegrees>-1.909900121390819549560546875</LongitudeDegrees>
            </Position>
            <AltitudeMeters>719.20001220703125</AltitudeMeters>
            <DistanceMeters>NAN</DistanceMeters>
          </Trackpoint>
          <Trackpoint>
            <Time>2021-08-28T08:41:05.000Z</Time>
            <Position>
              <LatitudeDegrees>38.076582849025726318359375</LatitudeDegrees>
              <LongitudeDegrees>-1.90991931594908237457275390625</LongitudeDegrees>
            </Position>
            <AltitudeMeters>718</AltitudeMeters>
            <DistanceMeters>NAN</DistanceMeters>
          </Trackpoint>
          <Trackpoint>
            <Time>2021-08-28T08:41:06.000Z</Time>
            <Position>
              <LatitudeDegrees>38.07669860310852527618408203125</LatitudeDegrees>
              <LongitudeDegrees>-1.909929625689983367919921875</LongitudeDegrees>
            </Position>
            <AltitudeMeters>716</AltitudeMeters>
            <DistanceMeters>NAN</DistanceMeters>
          </Trackpoint>
          <Trackpoint>
            <Time>2021-08-28T08:41:07.000Z</Time>
            <Position>
              <LatitudeDegrees>38.076819218695163726806640625</LatitudeDegrees>
              <LongitudeDegrees>-1.90994001924991607666015625</LongitudeDegrees>
            </Position>
            <AltitudeMeters>713.79998779296875</AltitudeMeters>
            <DistanceMeters>NAN</DistanceMeters>
          </Trackpoint>
          <Trackpoint>
            <Time>2021-08-28T08:41:08.000Z</Time>
            <Position>
              <LatitudeDegrees>38.0769350565969944000244140625</LatitudeDegrees>
              <LongitudeDegrees>-1.90995183773338794708251953125</LongitudeDegrees>
            </Position>
            <AltitudeMeters>711.79998779296875</AltitudeMeters>
            <DistanceMeters>NAN</DistanceMeters>
          </Trackpoint>
          <Trackpoint>
            <Time>2021-08-28T08:41:09.000Z</Time>
            <Position>
              <LatitudeDegrees>38.077039159834384918212890625</LatitudeDegrees>
              <LongitudeDegrees>-1.90995736978948116302490234375</LongitudeDegrees>
            </Position>
            <AltitudeMeters>710.20001220703125</AltitudeMeters>
            <DistanceMeters>NAN</DistanceMeters>
          </Trackpoint>
          <Trackpoint>
            <Time>2021-08-28T08:41:10.000Z</Time>
            <Position>
              <LatitudeDegrees>38.077137060463428497314453125</LatitudeDegrees>
              <LongitudeDegrees>-1.90994580276310443878173828125</LongitudeDegrees>
            </Position>
            <AltitudeMeters>708.4000244140625</AltitudeMeters>
            <DistanceMeters>NAN</DistanceMeters>
          </Trackpoint>
          <Trackpoint>
            <Time>2021-08-28T08:41:11.000Z</Time>
            <Position>
              <LatitudeDegrees>38.0772264115512371063232421875</LatitudeDegrees>
              <LongitudeDegrees>-1.90990154631435871124267578125</LongitudeDegrees>
            </Position>
            <AltitudeMeters>706.5999755859375</AltitudeMeters>
            <DistanceMeters>NAN</DistanceMeters>
          </Trackpoint>
          <Trackpoint>
            <Time>2021-08-28T08:41:12.000Z</Time>
            <Position>
              <LatitudeDegrees>38.0772787146270275115966796875</LatitudeDegrees>
              <LongitudeDegrees>-1.909823007881641387939453125</LongitudeDegrees>
            </Position>
            <AltitudeMeters>704.4000244140625</AltitudeMeters>
            <DistanceMeters>NAN</DistanceMeters>
          </Trackpoint>
          <Trackpoint>
            <Time>2021-08-28T08:41:13.000Z</Time>
            <Position>
              <LatitudeDegrees>38.07733311317861080169677734375</LatitudeDegrees>
              <LongitudeDegrees>-1.90972150303423404693603515625</LongitudeDegrees>
            </Position>
            <AltitudeMeters>702.5999755859375</AltitudeMeters>
            <DistanceMeters>NAN</DistanceMeters>
          </Trackpoint>
          <Trackpoint>
            <Time>2021-08-28T08:41:14.000Z</Time>
            <Position>
              <LatitudeDegrees>38.07737854309380054473876953125</LatitudeDegrees>
              <LongitudeDegrees>-1.90961002372205257415771484375</LongitudeDegrees>
            </Position>
            <AltitudeMeters>701.5999755859375</AltitudeMeters>
            <DistanceMeters>NAN</DistanceMeters>
          </Trackpoint>
          <Trackpoint>
            <Time>2021-08-28T08:41:15.000Z</Time>
            <Position>
              <LatitudeDegrees>38.0774178542196750640869140625</LatitudeDegrees>
              <LongitudeDegrees>-1.90949074923992156982421875</LongitudeDegrees>
            </Position>
            <AltitudeMeters>700.79998779296875</AltitudeMeters>
            <DistanceMeters>NAN</DistanceMeters>
          </Trackpoint>
          <Trackpoint>
            <Time>2021-08-28T08:41:16.000Z</Time>
            <Position>
              <LatitudeDegrees>38.07745431549847126007080078125</LatitudeDegrees>
              <LongitudeDegrees>-1.90936611033976078033447265625</LongitudeDegrees>
            </Position>
            <AltitudeMeters>700.20001220703125</AltitudeMeters>
            <DistanceMeters>NAN</DistanceMeters>
          </Trackpoint>
          <Trackpoint>
            <Time>2021-08-28T08:41:19.000Z</Time>
            <Position>
              <LatitudeDegrees>38.07755255140364170074462890625</LatitudeDegrees>
              <LongitudeDegrees>-1.9089772738516330718994140625</LongitudeDegrees>
            </Position>
            <AltitudeMeters>698.4000244140625</AltitudeMeters>
            <DistanceMeters>NAN</DistanceMeters>
          </Trackpoint>
          <Trackpoint>
            <Time>2021-08-28T08:41:20.000Z</Time>
            <Position>
              <LatitudeDegrees>38.0775792896747589111328125</LatitudeDegrees>
              <LongitudeDegrees>-1.90885213203728199005126953125</LongitudeDegrees>
            </Position>
            <AltitudeMeters>697.79998779296875</AltitudeMeters>
            <DistanceMeters>NAN</DistanceMeters>
          </Trackpoint>
          <Trackpoint>
            <Time>2021-08-28T08:41:22.000Z</Time>
            <Position>
              <LatitudeDegrees>38.07760770432651042938232421875</LatitudeDegrees>
              <LongitudeDegrees>-1.90872824750840663909912109375</LongitudeDegrees>
            </Position>
            <AltitudeMeters>697.20001220703125</AltitudeMeters>
            <DistanceMeters>NAN</DistanceMeters>
          </Trackpoint>
          <Trackpoint>
            <Time>2021-08-28T08:41:24.000Z</Time>
            <Position>
              <LatitudeDegrees>38.07768330909311771392822265625</LatitudeDegrees>
              <LongitudeDegrees>-1.90849070437252521514892578125</LongitudeDegrees>
            </Position>
            <AltitudeMeters>697.20001220703125</AltitudeMeters>
            <DistanceMeters>NAN</DistanceMeters>
          </Trackpoint>
          <Trackpoint>
            <Time>2021-08-28T08:41:25.000Z</Time>
            <Position>
              <LatitudeDegrees>38.077811300754547119140625</LatitudeDegrees>
              <LongitudeDegrees>-1.90829624421894550323486328125</LongitudeDegrees>
            </Position>
            <AltitudeMeters>697.20001220703125</AltitudeMeters>
            <DistanceMeters>NAN</DistanceMeters>
          </Trackpoint>
          <Trackpoint>
            <Time>2021-08-28T08:41:26.000Z</Time>
            <Position>
              <LatitudeDegrees>38.07789034210145473480224609375</LatitudeDegrees>
              <LongitudeDegrees>-1.9082148559391498565673828125</LongitudeDegrees>
            </Position>
            <AltitudeMeters>697</AltitudeMeters>
            <DistanceMeters>NAN</DistanceMeters>
          </Trackpoint>
          <Trackpoint>
            <Time>2021-08-28T08:41:29.000Z</Time>
            <Position>
              <LatitudeDegrees>38.0781195871531963348388671875</LatitudeDegrees>
              <LongitudeDegrees>-1.907987706363201141357421875</LongitudeDegrees>
            </Position>
            <AltitudeMeters>696.4000244140625</AltitudeMeters>
            <DistanceMeters>NAN</DistanceMeters>
          </Trackpoint>
          <Trackpoint>
            <Time>2021-08-28T08:41:30.000Z</Time>
            <Position>
              <LatitudeDegrees>38.0781940184533596038818359375</LatitudeDegrees>
              <LongitudeDegrees>-1.90791922621428966522216796875</LongitudeDegrees>
            </Position>
            <AltitudeMeters>696.20001220703125</AltitudeMeters>
            <DistanceMeters>NAN</DistanceMeters>
          </Trackpoint>
          <Trackpoint>
            <Time>2021-08-28T08:41:31.000Z</Time>
            <Position>
              <LatitudeDegrees>38.07826618663966655731201171875</LatitudeDegrees>
              <LongitudeDegrees>-1.90785435028374195098876953125</LongitudeDegrees>
            </Position>
            <AltitudeMeters>695.5999755859375</AltitudeMeters>
            <DistanceMeters>NAN</DistanceMeters>
          </Trackpoint>
          <Trackpoint>
            <Time>2021-08-28T08:41:35.000Z</Time>
            <Position>
              <LatitudeDegrees>38.0785400234162807464599609375</LatitudeDegrees>
              <LongitudeDegrees>-1.9076230935752391815185546875</LongitudeDegrees>
            </Position>
            <AltitudeMeters>696.20001220703125</AltitudeMeters>
            <DistanceMeters>NAN</DistanceMeters>
          </Trackpoint>
          <Trackpoint>
            <Time>2021-08-28T08:41:36.000Z</Time>
            <Position>
              <LatitudeDegrees>38.07860079221427440643310546875</LatitudeDegrees>
              <LongitudeDegrees>-1.907565593719482421875</LongitudeDegrees>
            </Position>
            <AltitudeMeters>696.20001220703125</AltitudeMeters>
            <DistanceMeters>NAN</DistanceMeters>
          </Trackpoint>
          <Trackpoint>
            <Time>2021-08-28T08:41:39.000Z</Time>
            <Position>
              <LatitudeDegrees>38.078740350902080535888671875</LatitudeDegrees>
              <LongitudeDegrees>-1.90735177136957645416259765625</LongitudeDegrees>
            </Position>
            <AltitudeMeters>696.79998779296875</AltitudeMeters>
            <DistanceMeters>NAN</DistanceMeters>
          </Trackpoint>
          <Trackpoint>
            <Time>2021-08-28T08:41:40.000Z</Time>
            <Position>
              <LatitudeDegrees>38.07877781800925731658935546875</LatitudeDegrees>
              <LongitudeDegrees>-1.90727390348911285400390625</LongitudeDegrees>
            </Position>
            <AltitudeMeters>697.20001220703125</AltitudeMeters>
            <DistanceMeters>NAN</DistanceMeters>
          </Trackpoint>
          <Trackpoint>
            <Time>2021-08-28T08:41:45.000Z</Time>
            <Position>
              <LatitudeDegrees>38.07895459234714508056640625</LatitudeDegrees>
              <LongitudeDegrees>-1.90687551163136959075927734375</LongitudeDegrees>
            </Position>
            <AltitudeMeters>698</AltitudeMeters>
            <DistanceMeters>NAN</DistanceMeters>
          </Trackpoint>
          <Trackpoint>
            <Time>2021-08-28T08:41:46.000Z</Time>
            <Position>
              <LatitudeDegrees>38.07895459234714508056640625</LatitudeDegrees>
              <LongitudeDegrees>-1.90687551163136959075927734375</LongitudeDegrees>
            </Position>
            <AltitudeMeters>698.20001220703125</AltitudeMeters>
            <DistanceMeters>NAN</DistanceMeters>
          </Trackpoint>
          <Trackpoint>
            <Time>2021-08-28T08:41:48.000Z</Time>
            <Position>
              <LatitudeDegrees>38.0790214799344539642333984375</LatitudeDegrees>
              <LongitudeDegrees>-1.90671709366142749786376953125</LongitudeDegrees>
            </Position>
            <AltitudeMeters>698.79998779296875</AltitudeMeters>
            <DistanceMeters>NAN</DistanceMeters>
          </Trackpoint>
          <Trackpoint>
            <Time>2021-08-28T08:41:50.000Z</Time>
            <Position>
              <LatitudeDegrees>38.07909063063561916351318359375</LatitudeDegrees>
              <LongitudeDegrees>-1.90655448473989963531494140625</LongitudeDegrees>
            </Position>
            <AltitudeMeters>699.5999755859375</AltitudeMeters>
            <DistanceMeters>NAN</DistanceMeters>
          </Trackpoint>
          <Trackpoint>
            <Time>2021-08-28T08:41:54.000Z</Time>
            <Position>
              <LatitudeDegrees>38.07923731394112110137939453125</LatitudeDegrees>
              <LongitudeDegrees>-1.90621669404208660125732421875</LongitudeDegrees>
            </Position>
            <AltitudeMeters>700.4000244140625</AltitudeMeters>
            <DistanceMeters>NAN</DistanceMeters>
          </Trackpoint>
          <Trackpoint>
            <Time>2021-08-28T08:41:55.000Z</Time>
            <Position>
              <LatitudeDegrees>38.0793131701648235321044921875</LatitudeDegrees>
              <LongitudeDegrees>-1.9060483016073703765869140625</LongitudeDegrees>
            </Position>
            <AltitudeMeters>700.79998779296875</AltitudeMeters>
            <DistanceMeters>NAN</DistanceMeters>
          </Trackpoint>
          <Trackpoint>
            <Time>2021-08-28T08:42:00.000Z</Time>
            <Position>
              <LatitudeDegrees>38.07950444519519805908203125</LatitudeDegrees>
              <LongitudeDegrees>-1.90558453090488910675048828125</LongitudeDegrees>
            </Position>
            <AltitudeMeters>701.4000244140625</AltitudeMeters>
            <DistanceMeters>NAN</DistanceMeters>
          </Trackpoint>
          <Trackpoint>
            <Time>2021-08-28T08:42:06.000Z</Time>
            <Position>
              <LatitudeDegrees>38.07978071272373199462890625</LatitudeDegrees>
              <LongitudeDegrees>-1.9049517810344696044921875</LongitudeDegrees>
            </Position>
            <AltitudeMeters>700.20001220703125</AltitudeMeters>
            <DistanceMeters>NAN</DistanceMeters>
          </Trackpoint>
          <Trackpoint>
            <Time>2021-08-28T08:42:08.000Z</Time>
            <Position>
              <LatitudeDegrees>38.079831339418888092041015625</LatitudeDegrees>
              <LongitudeDegrees>-1.90483636222779750823974609375</LongitudeDegrees>
            </Position>
            <AltitudeMeters>699.5999755859375</AltitudeMeters>
            <DistanceMeters>NAN</DistanceMeters>
          </Trackpoint>
          <Trackpoint>
            <Time>2021-08-28T08:42:11.000Z</Time>
            <Position>
              <LatitudeDegrees>38.08005429804325103759765625</LatitudeDegrees>
              <LongitudeDegrees>-1.9043804705142974853515625</LongitudeDegrees>
            </Position>
            <AltitudeMeters>698.5999755859375</AltitudeMeters>
            <DistanceMeters>NAN</DistanceMeters>
          </Trackpoint>
          <Trackpoint>
            <Time>2021-08-28T08:42:14.000Z</Time>
            <Position>
              <LatitudeDegrees>38.0802090279757976531982421875</LatitudeDegrees>
              <LongitudeDegrees>-1.904024742543697357177734375</LongitudeDegrees>
            </Position>
            <AltitudeMeters>697.79998779296875</AltitudeMeters>
            <DistanceMeters>NAN</DistanceMeters>
          </Trackpoint>
          <Trackpoint>
            <Time>2021-08-28T08:42:17.000Z</Time>
            <Position>
              <LatitudeDegrees>38.08031179010868072509765625</LatitudeDegrees>
              <LongitudeDegrees>-1.9037823379039764404296875</LongitudeDegrees>
            </Position>
            <AltitudeMeters>697.4000244140625</AltitudeMeters>
            <DistanceMeters>NAN</DistanceMeters>
          </Trackpoint>
          <Trackpoint>
            <Time>2021-08-28T08:42:21.000Z</Time>
            <Position>
              <LatitudeDegrees>38.08058076538145542144775390625</LatitudeDegrees>
              <LongitudeDegrees>-1.9031790085136890411376953125</LongitudeDegrees>
            </Position>
            <AltitudeMeters>696.5999755859375</AltitudeMeters>
            <DistanceMeters>NAN</DistanceMeters>
          </Trackpoint>
          <Trackpoint>
            <Time>2021-08-28T08:42:22.000Z</Time>
            <Position>
              <LatitudeDegrees>38.08064379729330539703369140625</LatitudeDegrees>
              <LongitudeDegrees>-1.90306073985993862152099609375</LongitudeDegrees>
            </Position>
            <AltitudeMeters>696</AltitudeMeters>
            <DistanceMeters>NAN</DistanceMeters>
          </Trackpoint>
          <Trackpoint>
            <Time>2021-08-28T08:42:25.000Z</Time>
            <Position>
              <LatitudeDegrees>38.08082954026758670806884765625</LatitudeDegrees>
              <LongitudeDegrees>-1.9027190096676349639892578125</LongitudeDegrees>
            </Position>
            <AltitudeMeters>695.20001220703125</AltitudeMeters>
            <DistanceMeters>NAN</DistanceMeters>
          </Trackpoint>
          <Trackpoint>
            <Time>2021-08-28T08:42:26.000Z</Time>
            <Position>
              <LatitudeDegrees>38.08089424856007099151611328125</LatitudeDegrees>
              <LongitudeDegrees>-1.90261180512607097625732421875</LongitudeDegrees>
            </Position>
            <AltitudeMeters>694.79998779296875</AltitudeMeters>
            <DistanceMeters>NAN</DistanceMeters>
          </Trackpoint>
          <Trackpoint>
            <Time>2021-08-28T08:42:29.000Z</Time>
            <Position>
              <LatitudeDegrees>38.0810153670608997344970703125</LatitudeDegrees>
              <LongitudeDegrees>-1.902390606701374053955078125</LongitudeDegrees>
            </Position>
            <AltitudeMeters>694.20001220703125</AltitudeMeters>
            <DistanceMeters>NAN</DistanceMeters>
          </Trackpoint>
          <Trackpoint>
            <Time>2021-08-28T08:42:30.000Z</Time>
            <Position>
              <LatitudeDegrees>38.0810606293380260467529296875</LatitudeDegrees>
              <LongitudeDegrees>-1.902267895638942718505859375</LongitudeDegrees>
            </Position>
            <AltitudeMeters>693.79998779296875</AltitudeMeters>
            <DistanceMeters>NAN</DistanceMeters>
          </Trackpoint>
          <Trackpoint>
            <Time>2021-08-28T08:42:31.000Z</Time>
            <Position>
              <LatitudeDegrees>38.0811092443764209747314453125</LatitudeDegrees>
              <LongitudeDegrees>-1.90201409161090850830078125</LongitudeDegrees>
            </Position>
            <AltitudeMeters>693.5999755859375</AltitudeMeters>
            <DistanceMeters>NAN</DistanceMeters>
          </Trackpoint>
          <Trackpoint>
            <Time>2021-08-28T08:42:33.000Z</Time>
            <Position>
              <LatitudeDegrees>38.08118510060012340545654296875</LatitudeDegrees>
              <LongitudeDegrees>-1.901787109673023223876953125</LongitudeDegrees>
            </Position>
            <AltitudeMeters>693</AltitudeMeters>
            <DistanceMeters>NAN</DistanceMeters>
          </Trackpoint>
          <Trackpoint>
            <Time>2021-08-28T08:42:35.000Z</Time>
            <Position>
              <LatitudeDegrees>38.08132122270762920379638671875</LatitudeDegrees>
              <LongitudeDegrees>-1.9016239978373050689697265625</LongitudeDegrees>
            </Position>
            <AltitudeMeters>693</AltitudeMeters>
            <DistanceMeters>NAN</DistanceMeters>
          </Trackpoint>
          <Trackpoint>
            <Time>2021-08-28T08:42:36.000Z</Time>
            <Position>
              <LatitudeDegrees>38.0813982523977756500244140625</LatitudeDegrees>
              <LongitudeDegrees>-1.9015663303434848785400390625</LongitudeDegrees>
            </Position>
            <AltitudeMeters>693</AltitudeMeters>
            <DistanceMeters>NAN</DistanceMeters>
          </Trackpoint>
          <Trackpoint>
            <Time>2021-08-28T08:42:42.000Z</Time>
            <Position>
              <LatitudeDegrees>38.08176957070827484130859375</LatitudeDegrees>
              <LongitudeDegrees>-1.90135116688907146453857421875</LongitudeDegrees>
            </Position>
            <AltitudeMeters>692.79998779296875</AltitudeMeters>
            <DistanceMeters>NAN</DistanceMeters>
          </Trackpoint>
          <Trackpoint>
            <Time>2021-08-28T08:42:47.000Z</Time>
            <Position>
              <LatitudeDegrees>38.0821804516017436981201171875</LatitudeDegrees>
              <LongitudeDegrees>-1.90112217329442501068115234375</LongitudeDegrees>
            </Position>
            <AltitudeMeters>694</AltitudeMeters>
            <DistanceMeters>NAN</DistanceMeters>
          </Trackpoint>
          <Trackpoint>
            <Time>2021-08-28T08:42:49.000Z</Time>
            <Position>
              <LatitudeDegrees>38.082250691950321197509765625</LatitudeDegrees>
              <LongitudeDegrees>-1.90108068287372589111328125</LongitudeDegrees>
            </Position>
            <AltitudeMeters>695</AltitudeMeters>
            <DistanceMeters>NAN</DistanceMeters>
          </Trackpoint>
          <Trackpoint>
            <Time>2021-08-28T08:42:55.000Z</Time>
            <Position>
              <LatitudeDegrees>38.0828060768544673919677734375</LatitudeDegrees>
              <LongitudeDegrees>-1.90076552331447601318359375</LongitudeDegrees>
            </Position>
            <AltitudeMeters>695.20001220703125</AltitudeMeters>
            <DistanceMeters>NAN</DistanceMeters>
          </Trackpoint>
          <Trackpoint>
            <Time>2021-08-28T08:43:02.000Z</Time>
            <Position>
              <LatitudeDegrees>38.083364479243755340576171875</LatitudeDegrees>
              <LongitudeDegrees>-1.9003797881305217742919921875</LongitudeDegrees>
            </Position>
            <AltitudeMeters>694.79998779296875</AltitudeMeters>
            <DistanceMeters>NAN</DistanceMeters>
          </Trackpoint>
          <Trackpoint>
            <Time>2021-08-28T08:43:03.000Z</Time>
            <Position>
              <LatitudeDegrees>38.08344285003840923309326171875</LatitudeDegrees>
              <LongitudeDegrees>-1.900318600237369537353515625</LongitudeDegrees>
            </Position>
            <AltitudeMeters>694.79998779296875</AltitudeMeters>
            <DistanceMeters>NAN</DistanceMeters>
          </Trackpoint>
          <Trackpoint>
            <Time>2021-08-28T08:43:07.000Z</Time>
            <Position>
              <LatitudeDegrees>38.083742000162601470947265625</LatitudeDegrees>
              <LongitudeDegrees>-1.90006437711417675018310546875</LongitudeDegrees>
            </Position>
            <AltitudeMeters>693.79998779296875</AltitudeMeters>
            <DistanceMeters>NAN</DistanceMeters>
          </Trackpoint>
          <Trackpoint>
            <Time>2021-08-28T08:43:10.000Z</Time>
            <Position>
              <LatitudeDegrees>38.08395800180733203887939453125</LatitudeDegrees>
              <LongitudeDegrees>-1.89986170269548892974853515625</LongitudeDegrees>
            </Position>
            <AltitudeMeters>693.4000244140625</AltitudeMeters>
            <DistanceMeters>NAN</DistanceMeters>
          </Trackpoint>
          <Trackpoint>
            <Time>2021-08-28T08:43:16.000Z</Time>
            <Position>
              <LatitudeDegrees>38.08431942947208881378173828125</LatitudeDegrees>
              <LongitudeDegrees>-1.89954922534525394439697265625</LongitudeDegrees>
            </Position>
            <AltitudeMeters>694</AltitudeMeters>
            <DistanceMeters>NAN</DistanceMeters>
          </Trackpoint>
          <Trackpoint>
            <Time>2021-08-28T08:43:17.000Z</Time>
            <Position>
              <LatitudeDegrees>38.08440157212316989898681640625</LatitudeDegrees>
              <LongitudeDegrees>-1.89951687119901180267333984375</LongitudeDegrees>
            </Position>
            <AltitudeMeters>694</AltitudeMeters>
            <DistanceMeters>NAN</DistanceMeters>
          </Trackpoint>
          <Trackpoint>
            <Time>2021-08-28T08:43:18.000Z</Time>
            <Position>
              <LatitudeDegrees>38.08448991738259792327880859375</LatitudeDegrees>
              <LongitudeDegrees>-1.89950698055326938629150390625</LongitudeDegrees>
            </Position>
            <AltitudeMeters>694</AltitudeMeters>
            <DistanceMeters>NAN</DistanceMeters>
          </Trackpoint>
          <Trackpoint>
            <Time>2021-08-28T08:43:20.000Z</Time>
            <Position>
              <LatitudeDegrees>38.0846750736236572265625</LatitudeDegrees>
              <LongitudeDegrees>-1.89952072687447071075439453125</LongitudeDegrees>
            </Position>
            <AltitudeMeters>693.79998779296875</AltitudeMeters>
            <DistanceMeters>NAN</DistanceMeters>
          </Trackpoint>
          <Trackpoint>
            <Time>2021-08-28T08:43:22.000Z</Time>
            <Position>
              <LatitudeDegrees>38.0848546139895915985107421875</LatitudeDegrees>
              <LongitudeDegrees>-1.89951485954225063323974609375</LongitudeDegrees>
            </Position>
            <AltitudeMeters>693.5999755859375</AltitudeMeters>
            <DistanceMeters>NAN</DistanceMeters>
          </Trackpoint>
          <Trackpoint>
            <Time>2021-08-28T08:43:23.000Z</Time>
            <Position>
              <LatitudeDegrees>38.0850101821124553680419921875</LatitudeDegrees>
              <LongitudeDegrees>-1.8994182161986827850341796875</LongitudeDegrees>
            </Position>
            <AltitudeMeters>693.5999755859375</AltitudeMeters>
            <DistanceMeters>NAN</DistanceMeters>
          </Trackpoint>
          <Trackpoint>
            <Time>2021-08-28T08:43:24.000Z</Time>
            <Position>
              <LatitudeDegrees>38.0850712023675441741943359375</LatitudeDegrees>
              <LongitudeDegrees>-1.89932760782539844512939453125</LongitudeDegrees>
            </Position>
            <AltitudeMeters>693.5999755859375</AltitudeMeters>
            <DistanceMeters>NAN</DistanceMeters>
          </Trackpoint>
          <Trackpoint>
            <Time>2021-08-28T08:43:26.000Z</Time>
            <Position>
              <LatitudeDegrees>38.0851463042199611663818359375</LatitudeDegrees>
              <LongitudeDegrees>-1.8991219997406005859375</LongitudeDegrees>
            </Position>
            <AltitudeMeters>693.20001220703125</AltitudeMeters>
            <DistanceMeters>NAN</DistanceMeters>
          </Trackpoint>
          <Trackpoint>
            <Time>2021-08-28T08:43:32.000Z</Time>
            <Position>
              <LatitudeDegrees>38.0853199772536754608154296875</LatitudeDegrees>
              <LongitudeDegrees>-1.8986370228230953216552734375</LongitudeDegrees>
            </Position>
            <AltitudeMeters>693.5999755859375</AltitudeMeters>
            <DistanceMeters>NAN</DistanceMeters>
          </Trackpoint>
          <Trackpoint>
            <Time>2021-08-28T08:43:33.000Z</Time>
            <Position>
              <LatitudeDegrees>38.08536549098789691925048828125</LatitudeDegrees>
              <LongitudeDegrees>-1.89854574389755725860595703125</LongitudeDegrees>
            </Position>
            <AltitudeMeters>693.5999755859375</AltitudeMeters>
            <DistanceMeters>NAN</DistanceMeters>
          </Trackpoint>
          <Trackpoint>
            <Time>2021-08-28T08:43:36.000Z</Time>
            <Position>
              <LatitudeDegrees>38.0855845101177692413330078125</LatitudeDegrees>
              <LongitudeDegrees>-1.89818389713764190673828125</LongitudeDegrees>
            </Position>
            <AltitudeMeters>693.5999755859375</AltitudeMeters>
            <DistanceMeters>NAN</DistanceMeters>
          </Trackpoint>
          <Trackpoint>
            <Time>2021-08-28T08:43:42.000Z</Time>
            <Position>
              <LatitudeDegrees>38.085904531180858612060546875</LatitudeDegrees>
              <LongitudeDegrees>-1.89757126383483409881591796875</LongitudeDegrees>
            </Position>
            <AltitudeMeters>693</AltitudeMeters>
            <DistanceMeters>NAN</DistanceMeters>
          </Trackpoint>
          <Trackpoint>
            <Time>2021-08-28T08:43:43.000Z</Time>
            <Position>
              <LatitudeDegrees>38.085904531180858612060546875</LatitudeDegrees>
              <LongitudeDegrees>-1.89757126383483409881591796875</LongitudeDegrees>
            </Position>
            <AltitudeMeters>692.79998779296875</AltitudeMeters>
            <DistanceMeters>NAN</DistanceMeters>
          </Trackpoint>
          <Trackpoint>
            <Time>2021-08-28T08:43:44.000Z</Time>
            <Position>
              <LatitudeDegrees>38.08595172129571437835693359375</LatitudeDegrees>
              <LongitudeDegrees>-1.89746028743684291839599609375</LongitudeDegrees>
            </Position>
            <AltitudeMeters>692.4000244140625</AltitudeMeters>
            <DistanceMeters>NAN</DistanceMeters>
          </Trackpoint>
          <Trackpoint>
            <Time>2021-08-28T08:43:47.000Z</Time>
            <Position>
              <LatitudeDegrees>38.0861061997711658477783203125</LatitudeDegrees>
              <LongitudeDegrees>-1.8970079161226749420166015625</LongitudeDegrees>
            </Position>
            <AltitudeMeters>692</AltitudeMeters>
            <DistanceMeters>NAN</DistanceMeters>
          </Trackpoint>
          <Trackpoint>
            <Time>2021-08-28T08:43:48.000Z</Time>
            <Position>
              <LatitudeDegrees>38.086137212812900543212890625</LatitudeDegrees>
              <LongitudeDegrees>-1.89689735881984233856201171875</LongitudeDegrees>
            </Position>
            <AltitudeMeters>692</AltitudeMeters>
            <DistanceMeters>NAN</DistanceMeters>
          </Trackpoint>
          <Trackpoint>
            <Time>2021-08-28T08:43:55.000Z</Time>
            <Position>
              <LatitudeDegrees>38.08634852059185504913330078125</LatitudeDegrees>
              <LongitudeDegrees>-1.89625295810401439666748046875</LongitudeDegrees>
            </Position>
            <AltitudeMeters>692.4000244140625</AltitudeMeters>
            <DistanceMeters>NAN</DistanceMeters>
          </Trackpoint>
          <Trackpoint>
            <Time>2021-08-28T08:44:00.000Z</Time>
            <Position>
              <LatitudeDegrees>38.08660215698182582855224609375</LatitudeDegrees>
              <LongitudeDegrees>-1.89577535726130008697509765625</LongitudeDegrees>
            </Position>
            <AltitudeMeters>692.4000244140625</AltitudeMeters>
            <DistanceMeters>NAN</DistanceMeters>
          </Trackpoint>
          <Trackpoint>
            <Time>2021-08-28T08:44:01.000Z</Time>
            <Position>
              <LatitudeDegrees>38.08666736818850040435791015625</LatitudeDegrees>
              <LongitudeDegrees>-1.8956922926008701324462890625</LongitudeDegrees>
            </Position>
            <AltitudeMeters>692.5999755859375</AltitudeMeters>
            <DistanceMeters>NAN</DistanceMeters>
          </Trackpoint>
          <Trackpoint>
            <Time>2021-08-28T08:44:03.000Z</Time>
            <Position>
              <LatitudeDegrees>38.08681748807430267333984375</LatitudeDegrees>
              <LongitudeDegrees>-1.89556874334812164306640625</LongitudeDegrees>
            </Position>
            <AltitudeMeters>692.5999755859375</AltitudeMeters>
            <DistanceMeters>NAN</DistanceMeters>
          </Trackpoint>
          <Trackpoint>
            <Time>2021-08-28T08:44:06.000Z</Time>
            <Position>
              <LatitudeDegrees>38.08709786273539066314697265625</LatitudeDegrees>
              <LongitudeDegrees>-1.89548215828835964202880859375</LongitudeDegrees>
            </Position>
            <AltitudeMeters>692.20001220703125</AltitudeMeters>
            <DistanceMeters>NAN</DistanceMeters>
          </Trackpoint>
          <Trackpoint>
            <Time>2021-08-28T08:44:08.000Z</Time>
            <Position>
              <LatitudeDegrees>38.08729416690766811370849609375</LatitudeDegrees>
              <LongitudeDegrees>-1.8954146839678287506103515625</LongitudeDegrees>
            </Position>
            <AltitudeMeters>691.4000244140625</AltitudeMeters>
            <DistanceMeters>NAN</DistanceMeters>
          </Trackpoint>
          <Trackpoint>
            <Time>2021-08-28T08:44:10.000Z</Time>
            <Position>
              <LatitudeDegrees>38.0874835141003131866455078125</LatitudeDegrees>
              <LongitudeDegrees>-1.89530580304563045501708984375</LongitudeDegrees>
            </Position>
            <AltitudeMeters>690.5999755859375</AltitudeMeters>
            <DistanceMeters>NAN</DistanceMeters>
          </Trackpoint>
          <Trackpoint>
            <Time>2021-08-28T08:44:11.000Z</Time>
            <Position>
              <LatitudeDegrees>38.08757864870131015777587890625</LatitudeDegrees>
              <LongitudeDegrees>-1.8952510692179203033447265625</LongitudeDegrees>
            </Position>
            <AltitudeMeters>690.20001220703125</AltitudeMeters>
            <DistanceMeters>NAN</DistanceMeters>
          </Trackpoint>
          <Trackpoint>
            <Time>2021-08-28T08:44:15.000Z</Time>
            <Position>
              <LatitudeDegrees>38.08795952238142490386962890625</LatitudeDegrees>
              <LongitudeDegrees>-1.89505786634981632232666015625</LongitudeDegrees>
            </Position>
            <AltitudeMeters>690.20001220703125</AltitudeMeters>
            <DistanceMeters>NAN</DistanceMeters>
          </Trackpoint>
          <Trackpoint>
            <Time>2021-08-28T08:44:19.000Z</Time>
            <Position>
              <LatitudeDegrees>38.0883599258959293365478515625</LatitudeDegrees>
              <LongitudeDegrees>-1.89479358494281768798828125</LongitudeDegrees>
            </Position>
            <AltitudeMeters>689</AltitudeMeters>
            <DistanceMeters>NAN</DistanceMeters>
          </Trackpoint>
          <Trackpoint>
            <Time>2021-08-28T08:44:20.000Z</Time>
            <Position>
              <LatitudeDegrees>38.0884507857263088226318359375</LatitudeDegrees>
              <LongitudeDegrees>-1.89470381475985050201416015625</LongitudeDegrees>
            </Position>
            <AltitudeMeters>688.4000244140625</AltitudeMeters>
            <DistanceMeters>NAN</DistanceMeters>
          </Trackpoint>
          <Trackpoint>
            <Time>2021-08-28T08:44:21.000Z</Time>
            <Position>
              <LatitudeDegrees>38.088535107672214508056640625</LatitudeDegrees>
              <LongitudeDegrees>-1.894600130617618560791015625</LongitudeDegrees>
            </Position>
            <AltitudeMeters>688</AltitudeMeters>
            <DistanceMeters>NAN</DistanceMeters>
          </Trackpoint>
          <Trackpoint>
            <Time>2021-08-28T08:44:24.000Z</Time>
            <Position>
              <LatitudeDegrees>38.08878329582512378692626953125</LatitudeDegrees>
              <LongitudeDegrees>-1.8942646868526935577392578125</LongitudeDegrees>
            </Position>
            <AltitudeMeters>687</AltitudeMeters>
            <DistanceMeters>NAN</DistanceMeters>
          </Trackpoint>
          <Trackpoint>
            <Time>2021-08-28T08:44:25.000Z</Time>
            <Position>
              <LatitudeDegrees>38.0888688750565052032470703125</LatitudeDegrees>
              <LongitudeDegrees>-1.8941510282456874847412109375</LongitudeDegrees>
            </Position>
            <AltitudeMeters>686.4000244140625</AltitudeMeters>
            <DistanceMeters>NAN</DistanceMeters>
          </Trackpoint>
          <Trackpoint>
            <Time>2021-08-28T08:44:27.000Z</Time>
            <Position>
              <LatitudeDegrees>38.08904045261442661285400390625</LatitudeDegrees>
              <LongitudeDegrees>-1.8939198553562164306640625</LongitudeDegrees>
            </Position>
            <AltitudeMeters>685.5999755859375</AltitudeMeters>
            <DistanceMeters>NAN</DistanceMeters>
          </Trackpoint>
          <Trackpoint>
            <Time>2021-08-28T08:44:29.000Z</Time>
            <Position>
              <LatitudeDegrees>38.089203648269176483154296875</LatitudeDegrees>
              <LongitudeDegrees>-1.89368088729679584503173828125</LongitudeDegrees>
            </Position>
            <AltitudeMeters>684.20001220703125</AltitudeMeters>
            <DistanceMeters>NAN</DistanceMeters>
          </Trackpoint>
          <Trackpoint>
            <Time>2021-08-28T08:44:32.000Z</Time>
            <Position>
              <LatitudeDegrees>38.089430630207061767578125</LatitudeDegrees>
              <LongitudeDegrees>-1.89331543631851673126220703125</LongitudeDegrees>
            </Position>
            <AltitudeMeters>683</AltitudeMeters>
            <DistanceMeters>NAN</DistanceMeters>
          </Trackpoint>
          <Trackpoint>
            <Time>2021-08-28T08:44:33.000Z</Time>
            <Position>
              <LatitudeDegrees>38.08950128965079784393310546875</LatitudeDegrees>
              <LongitudeDegrees>-1.89319272525608539581298828125</LongitudeDegrees>
            </Position>
            <AltitudeMeters>682.79998779296875</AltitudeMeters>
            <DistanceMeters>NAN</DistanceMeters>
          </Trackpoint>
          <Trackpoint>
            <Time>2021-08-28T08:44:36.000Z</Time>
            <Position>
              <LatitudeDegrees>38.08967613615095615386962890625</LatitudeDegrees>
              <LongitudeDegrees>-1.8928013741970062255859375</LongitudeDegrees>
            </Position>
            <AltitudeMeters>681.5999755859375</AltitudeMeters>
            <DistanceMeters>NAN</DistanceMeters>
          </Trackpoint>
          <Trackpoint>
            <Time>2021-08-28T08:44:37.000Z</Time>
            <Position>
              <LatitudeDegrees>38.0897268466651439666748046875</LatitudeDegrees>
              <LongitudeDegrees>-1.89266600646078586578369140625</LongitudeDegrees>
            </Position>
            <AltitudeMeters>681.20001220703125</AltitudeMeters>
            <DistanceMeters>NAN</DistanceMeters>
          </Trackpoint>
          <Trackpoint>
            <Time>2021-08-28T08:44:39.000Z</Time>
            <Position>
              <LatitudeDegrees>38.089831285178661346435546875</LatitudeDegrees>
              <LongitudeDegrees>-1.8924042396247386932373046875</LongitudeDegrees>
            </Position>
            <AltitudeMeters>680</AltitudeMeters>
            <DistanceMeters>NAN</DistanceMeters>
          </Trackpoint>
          <Trackpoint>
            <Time>2021-08-28T08:44:40.000Z</Time>
            <Position>
              <LatitudeDegrees>38.08987948112189769744873046875</LatitudeDegrees>
              <LongitudeDegrees>-1.89227406866848468780517578125</LongitudeDegrees>
            </Position>
            <AltitudeMeters>678.5999755859375</AltitudeMeters>
            <DistanceMeters>NAN</DistanceMeters>
          </Trackpoint>
          <Trackpoint>
            <Time>2021-08-28T08:44:41.000Z</Time>
            <Position>
              <LatitudeDegrees>38.08991502039134502410888671875</LatitudeDegrees>
              <LongitudeDegrees>-1.8921388685703277587890625</LongitudeDegrees>
            </Position>
            <AltitudeMeters>678</AltitudeMeters>
            <DistanceMeters>NAN</DistanceMeters>
          </Trackpoint>
          <Trackpoint>
            <Time>2021-08-28T08:44:42.000Z</Time>
            <Position>
              <LatitudeDegrees>38.089931197464466094970703125</LatitudeDegrees>
              <LongitudeDegrees>-1.891999058425426483154296875</LongitudeDegrees>
            </Position>
            <AltitudeMeters>676.79998779296875</AltitudeMeters>
            <DistanceMeters>NAN</DistanceMeters>
          </Trackpoint>
          <Trackpoint>
            <Time>2021-08-28T08:44:43.000Z</Time>
            <Position>
              <LatitudeDegrees>38.0899152718484401702880859375</LatitudeDegrees>
              <LongitudeDegrees>-1.89186067320406436920166015625</LongitudeDegrees>
            </Position>
            <AltitudeMeters>675.5999755859375</AltitudeMeters>
            <DistanceMeters>NAN</DistanceMeters>
          </Trackpoint>
          <Trackpoint>
            <Time>2021-08-28T08:44:44.000Z</Time>
            <Position>
              <LatitudeDegrees>38.089870177209377288818359375</LatitudeDegrees>
              <LongitudeDegrees>-1.89172245562076568603515625</LongitudeDegrees>
            </Position>
            <AltitudeMeters>674.79998779296875</AltitudeMeters>
            <DistanceMeters>NAN</DistanceMeters>
          </Trackpoint>
          <Trackpoint>
            <Time>2021-08-28T08:44:45.000Z</Time>
            <Position>
              <LatitudeDegrees>38.089809827506542205810546875</LatitudeDegrees>
              <LongitudeDegrees>-1.89159907400608062744140625</LongitudeDegrees>
            </Position>
            <AltitudeMeters>674.4000244140625</AltitudeMeters>
            <DistanceMeters>NAN</DistanceMeters>
          </Trackpoint>
          <Trackpoint>
            <Time>2021-08-28T08:44:47.000Z</Time>
            <Position>
              <LatitudeDegrees>38.0896949954330921173095703125</LatitudeDegrees>
              <LongitudeDegrees>-1.89137251116335391998291015625</LongitudeDegrees>
            </Position>
            <AltitudeMeters>674.20001220703125</AltitudeMeters>
            <DistanceMeters>NAN</DistanceMeters>
          </Trackpoint>
          <Trackpoint>
            <Time>2021-08-28T08:44:48.000Z</Time>
            <Position>
              <LatitudeDegrees>38.08965199626982212066650390625</LatitudeDegrees>
              <LongitudeDegrees>-1.89125600270926952362060546875</LongitudeDegrees>
            </Position>
            <AltitudeMeters>674.4000244140625</AltitudeMeters>
            <DistanceMeters>NAN</DistanceMeters>
          </Trackpoint>
          <Trackpoint>
            <Time>2021-08-28T08:44:50.000Z</Time>
            <Position>
              <LatitudeDegrees>38.08960287831723690032958984375</LatitudeDegrees>
              <LongitudeDegrees>-1.8910135142505168914794921875</LongitudeDegrees>
            </Position>
            <AltitudeMeters>674.79998779296875</AltitudeMeters>
            <DistanceMeters>NAN</DistanceMeters>
          </Trackpoint>
          <Trackpoint>
            <Time>2021-08-28T08:44:54.000Z</Time>
            <Position>
              <LatitudeDegrees>38.08961997739970684051513671875</LatitudeDegrees>
              <LongitudeDegrees>-1.890422590076923370361328125</LongitudeDegrees>
            </Position>
            <AltitudeMeters>675.5999755859375</AltitudeMeters>
            <DistanceMeters>NAN</DistanceMeters>
          </Trackpoint>
          <Trackpoint>
            <Time>2021-08-28T08:44:55.000Z</Time>
            <Position>
              <LatitudeDegrees>38.08961997739970684051513671875</LatitudeDegrees>
              <LongitudeDegrees>-1.890422590076923370361328125</LongitudeDegrees>
            </Position>
            <AltitudeMeters>676</AltitudeMeters>
            <DistanceMeters>NAN</DistanceMeters>
          </Trackpoint>
          <Trackpoint>
            <Time>2021-08-28T08:45:01.000Z</Time>
            <Position>
              <LatitudeDegrees>38.08965350501239299774169921875</LatitudeDegrees>
              <LongitudeDegrees>-1.8897069431841373443603515625</LongitudeDegrees>
            </Position>
            <AltitudeMeters>676.20001220703125</AltitudeMeters>
            <DistanceMeters>NAN</DistanceMeters>
          </Trackpoint>
          <Trackpoint>
            <Time>2021-08-28T08:45:06.000Z</Time>
            <Position>
              <LatitudeDegrees>38.08969239704310894012451171875</LatitudeDegrees>
              <LongitudeDegrees>-1.88908508978784084320068359375</LongitudeDegrees>
            </Position>
            <AltitudeMeters>675.79998779296875</AltitudeMeters>
            <DistanceMeters>NAN</DistanceMeters>
          </Trackpoint>
          <Trackpoint>
            <Time>2021-08-28T08:45:12.000Z</Time>
            <Position>
              <LatitudeDegrees>38.0897136032581329345703125</LatitudeDegrees>
              <LongitudeDegrees>-1.8883671797811985015869140625</LongitudeDegrees>
            </Position>
            <AltitudeMeters>676.20001220703125</AltitudeMeters>
            <DistanceMeters>NAN</DistanceMeters>
          </Trackpoint>
          <Trackpoint>
            <Time>2021-08-28T08:45:13.000Z</Time>
            <Position>
              <LatitudeDegrees>38.08971737511456012725830078125</LatitudeDegrees>
              <LongitudeDegrees>-1.8882484920322895050048828125</LongitudeDegrees>
            </Position>
            <AltitudeMeters>676.5999755859375</AltitudeMeters>
            <DistanceMeters>NAN</DistanceMeters>
          </Trackpoint>
          <Trackpoint>
            <Time>2021-08-28T08:45:18.000Z</Time>
            <Position>
              <LatitudeDegrees>38.08972341008484363555908203125</LatitudeDegrees>
              <LongitudeDegrees>-1.8875464238226413726806640625</LongitudeDegrees>
            </Position>
            <AltitudeMeters>676</AltitudeMeters>
            <DistanceMeters>NAN</DistanceMeters>
          </Trackpoint>
          <Trackpoint>
            <Time>2021-08-28T08:45:21.000Z</Time>
            <Position>
              <LatitudeDegrees>38.08971695601940155029296875</LatitudeDegrees>
              <LongitudeDegrees>-1.8872057832777500152587890625</LongitudeDegrees>
            </Position>
            <AltitudeMeters>676</AltitudeMeters>
            <DistanceMeters>NAN</DistanceMeters>
          </Trackpoint>
          <Trackpoint>
            <Time>2021-08-28T08:45:26.000Z</Time>
            <Position>
              <LatitudeDegrees>38.0897201411426067352294921875</LatitudeDegrees>
              <LongitudeDegrees>-1.8867796473205089569091796875</LongitudeDegrees>
            </Position>
            <AltitudeMeters>676.5999755859375</AltitudeMeters>
            <DistanceMeters>NAN</DistanceMeters>
          </Trackpoint>
          <Trackpoint>
            <Time>2021-08-28T08:45:27.000Z</Time>
            <Position>
              <LatitudeDegrees>38.08972927741706371307373046875</LatitudeDegrees>
              <LongitudeDegrees>-1.88658745028078556060791015625</LongitudeDegrees>
            </Position>
            <AltitudeMeters>677.4000244140625</AltitudeMeters>
            <DistanceMeters>NAN</DistanceMeters>
          </Trackpoint>
          <Trackpoint>
            <Time>2021-08-28T08:45:28.000Z</Time>
            <Position>
              <LatitudeDegrees>38.08972927741706371307373046875</LatitudeDegrees>
              <LongitudeDegrees>-1.88658745028078556060791015625</LongitudeDegrees>
            </Position>
            <AltitudeMeters>677.79998779296875</AltitudeMeters>
            <DistanceMeters>NAN</DistanceMeters>
          </Trackpoint>
          <Trackpoint>
            <Time>2021-08-28T08:45:31.000Z</Time>
            <Position>
              <LatitudeDegrees>38.08970731683075428009033203125</LatitudeDegrees>
              <LongitudeDegrees>-1.8862344883382320404052734375</LongitudeDegrees>
            </Position>
            <AltitudeMeters>679</AltitudeMeters>
            <DistanceMeters>NAN</DistanceMeters>
          </Trackpoint>
          <Trackpoint>
            <Time>2021-08-28T08:45:32.000Z</Time>
            <Position>
              <LatitudeDegrees>38.0896933190524578094482421875</LatitudeDegrees>
              <LongitudeDegrees>-1.88614807091653347015380859375</LongitudeDegrees>
            </Position>
            <AltitudeMeters>679.5999755859375</AltitudeMeters>
            <DistanceMeters>NAN</DistanceMeters>
          </Trackpoint>
          <Trackpoint>
            <Time>2021-08-28T08:45:34.000Z</Time>
            <Position>
              <LatitudeDegrees>38.08967261575162410736083984375</LatitudeDegrees>
              <LongitudeDegrees>-1.88597490079700946807861328125</LongitudeDegrees>
            </Position>
            <AltitudeMeters>680.4000244140625</AltitudeMeters>
            <DistanceMeters>NAN</DistanceMeters>
          </Trackpoint>
          <Trackpoint>
            <Time>2021-08-28T08:45:36.000Z</Time>
            <Position>
              <LatitudeDegrees>38.0896641500294208526611328125</LatitudeDegrees>
              <LongitudeDegrees>-1.8858019821345806121826171875</LongitudeDegrees>
            </Position>
            <AltitudeMeters>681.79998779296875</AltitudeMeters>
            <DistanceMeters>NAN</DistanceMeters>
          </Trackpoint>
          <Trackpoint>
            <Time>2021-08-28T08:45:39.000Z</Time>
            <Position>
              <LatitudeDegrees>38.08967001736164093017578125</LatitudeDegrees>
              <LongitudeDegrees>-1.8855448253452777862548828125</LongitudeDegrees>
            </Position>
            <AltitudeMeters>682.79998779296875</AltitudeMeters>
            <DistanceMeters>NAN</DistanceMeters>
          </Trackpoint>
          <Trackpoint>
            <Time>2021-08-28T08:45:40.000Z</Time>
            <Position>
              <LatitudeDegrees>38.08966641314327716827392578125</LatitudeDegrees>
              <LongitudeDegrees>-1.88545639626681804656982421875</LongitudeDegrees>
            </Position>
            <AltitudeMeters>683</AltitudeMeters>
            <DistanceMeters>NAN</DistanceMeters>
          </Trackpoint>
          <Trackpoint>
            <Time>2021-08-28T08:45:44.000Z</Time>
            <Position>
              <LatitudeDegrees>38.0896353162825107574462890625</LatitudeDegrees>
              <LongitudeDegrees>-1.8850891850888729095458984375</LongitudeDegrees>
            </Position>
            <AltitudeMeters>684.20001220703125</AltitudeMeters>
            <DistanceMeters>NAN</DistanceMeters>
          </Trackpoint>
          <Trackpoint>
            <Time>2021-08-28T08:45:46.000Z</Time>
            <Position>
              <LatitudeDegrees>38.0896242521703243255615234375</LatitudeDegrees>
              <LongitudeDegrees>-1.88489195890724658966064453125</LongitudeDegrees>
            </Position>
            <AltitudeMeters>684.20001220703125</AltitudeMeters>
            <DistanceMeters>NAN</DistanceMeters>
          </Trackpoint>
          <Trackpoint>
            <Time>2021-08-28T08:45:52.000Z</Time>
            <Position>
              <LatitudeDegrees>38.0896748788654804229736328125</LatitudeDegrees>
              <LongitudeDegrees>-1.88435300253331661224365234375</LongitudeDegrees>
            </Position>
            <AltitudeMeters>683.79998779296875</AltitudeMeters>
            <DistanceMeters>NAN</DistanceMeters>
          </Trackpoint>
          <Trackpoint>
            <Time>2021-08-28T08:45:53.000Z</Time>
            <Position>
              <LatitudeDegrees>38.0897037126123905181884765625</LatitudeDegrees>
              <LongitudeDegrees>-1.88424940221011638641357421875</LongitudeDegrees>
            </Position>
            <AltitudeMeters>683.79998779296875</AltitudeMeters>
            <DistanceMeters>NAN</DistanceMeters>
          </Trackpoint>
          <Trackpoint>
            <Time>2021-08-28T08:45:55.000Z</Time>
            <Position>
              <LatitudeDegrees>38.08983027935028076171875</LatitudeDegrees>
              <LongitudeDegrees>-1.88396911136806011199951171875</LongitudeDegrees>
            </Position>
            <AltitudeMeters>683.79998779296875</AltitudeMeters>
            <DistanceMeters>NAN</DistanceMeters>
          </Trackpoint>
          <Trackpoint>
            <Time>2021-08-28T08:45:56.000Z</Time>
            <Position>
              <LatitudeDegrees>38.08983027935028076171875</LatitudeDegrees>
              <LongitudeDegrees>-1.88396911136806011199951171875</LongitudeDegrees>
            </Position>
            <AltitudeMeters>683.79998779296875</AltitudeMeters>
            <DistanceMeters>NAN</DistanceMeters>
          </Trackpoint>
          <Trackpoint>
            <Time>2021-08-28T08:46:03.000Z</Time>
            <Position>
              <LatitudeDegrees>38.09020486660301685333251953125</LatitudeDegrees>
              <LongitudeDegrees>-1.88344373367726802825927734375</LongitudeDegrees>
            </Position>
            <AltitudeMeters>684</AltitudeMeters>
            <DistanceMeters>NAN</DistanceMeters>
          </Trackpoint>
          <Trackpoint>
            <Time>2021-08-28T08:46:05.000Z</Time>
            <Position>
              <LatitudeDegrees>38.09034434147179126739501953125</LatitudeDegrees>
              <LongitudeDegrees>-1.8833548016846179962158203125</LongitudeDegrees>
            </Position>
            <AltitudeMeters>684.20001220703125</AltitudeMeters>
            <DistanceMeters>NAN</DistanceMeters>
          </Trackpoint>
          <Trackpoint>
            <Time>2021-08-28T08:46:06.000Z</Time>
            <Position>
              <LatitudeDegrees>38.09041793458163738250732421875</LatitudeDegrees>
              <LongitudeDegrees>-1.88333108089864253997802734375</LongitudeDegrees>
            </Position>
            <AltitudeMeters>684.20001220703125</AltitudeMeters>
            <DistanceMeters>NAN</DistanceMeters>
          </Trackpoint>
          <Trackpoint>
            <Time>2021-08-28T08:46:07.000Z</Time>
            <Position>
              <LatitudeDegrees>38.09049203060567378997802734375</LatitudeDegrees>
              <LongitudeDegrees>-1.8833179213106632232666015625</LongitudeDegrees>
            </Position>
            <AltitudeMeters>684.4000244140625</AltitudeMeters>
            <DistanceMeters>NAN</DistanceMeters>
          </Trackpoint>
          <Trackpoint>
            <Time>2021-08-28T08:46:11.000Z</Time>
            <Position>
              <LatitudeDegrees>38.0907662026584148406982421875</LatitudeDegrees>
              <LongitudeDegrees>-1.88329604454338550567626953125</LongitudeDegrees>
            </Position>
            <AltitudeMeters>684.79998779296875</AltitudeMeters>
            <DistanceMeters>NAN</DistanceMeters>
          </Trackpoint>
          <Trackpoint>
            <Time>2021-08-28T08:46:12.000Z</Time>
            <Position>
              <LatitudeDegrees>38.09083283878862857818603515625</LatitudeDegrees>
              <LongitudeDegrees>-1.88329487107694149017333984375</LongitudeDegrees>
            </Position>
            <AltitudeMeters>685.4000244140625</AltitudeMeters>
            <DistanceMeters>NAN</DistanceMeters>
          </Trackpoint>
          <Trackpoint>
            <Time>2021-08-28T08:46:14.000Z</Time>
            <Position>
              <LatitudeDegrees>38.09102931059896945953369140625</LatitudeDegrees>
              <LongitudeDegrees>-1.88326888717710971832275390625</LongitudeDegrees>
            </Position>
            <AltitudeMeters>686.79998779296875</AltitudeMeters>
            <DistanceMeters>NAN</DistanceMeters>
          </Trackpoint>
          <Trackpoint>
            <Time>2021-08-28T08:46:17.000Z</Time>
            <Position>
              <LatitudeDegrees>38.091193176805973052978515625</LatitudeDegrees>
              <LongitudeDegrees>-1.88319864682853221893310546875</LongitudeDegrees>
            </Position>
            <AltitudeMeters>687.4000244140625</AltitudeMeters>
            <DistanceMeters>NAN</DistanceMeters>
          </Trackpoint>
          <Trackpoint>
            <Time>2021-08-28T08:46:21.000Z</Time>
            <Position>
              <LatitudeDegrees>38.09141554869711399078369140625</LatitudeDegrees>
              <LongitudeDegrees>-1.8830936215817928314208984375</LongitudeDegrees>
            </Position>
            <AltitudeMeters>687.79998779296875</AltitudeMeters>
            <DistanceMeters>NAN</DistanceMeters>
          </Trackpoint>
          <Trackpoint>
            <Time>2021-08-28T08:46:23.000Z</Time>
            <Position>
              <LatitudeDegrees>38.0915302969515323638916015625</LatitudeDegrees>
              <LongitudeDegrees>-1.883037127554416656494140625</LongitudeDegrees>
            </Position>
            <AltitudeMeters>688</AltitudeMeters>
            <DistanceMeters>NAN</DistanceMeters>
          </Trackpoint>
          <Trackpoint>
            <Time>2021-08-28T08:46:26.000Z</Time>
            <Position>
              <LatitudeDegrees>38.091685362160205841064453125</LatitudeDegrees>
              <LongitudeDegrees>-1.88293629325926303863525390625</LongitudeDegrees>
            </Position>
            <AltitudeMeters>688.79998779296875</AltitudeMeters>
            <DistanceMeters>NAN</DistanceMeters>
          </Trackpoint>
          <Trackpoint>
            <Time>2021-08-28T08:46:31.000Z</Time>
            <Position>
              <LatitudeDegrees>38.0918980948626995086669921875</LatitudeDegrees>
              <LongitudeDegrees>-1.88278709538280963897705078125</LongitudeDegrees>
            </Position>
            <AltitudeMeters>689.4000244140625</AltitudeMeters>
            <DistanceMeters>NAN</DistanceMeters>
          </Trackpoint>
          <Trackpoint>
            <Time>2021-08-28T08:46:36.000Z</Time>
            <Position>
              <LatitudeDegrees>38.09225943870842456817626953125</LatitudeDegrees>
              <LongitudeDegrees>-1.882520131766796112060546875</LongitudeDegrees>
            </Position>
            <AltitudeMeters>688.5999755859375</AltitudeMeters>
            <DistanceMeters>NAN</DistanceMeters>
          </Trackpoint>
          <Trackpoint>
            <Time>2021-08-28T08:46:38.000Z</Time>
            <Position>
              <LatitudeDegrees>38.09239522553980350494384765625</LatitudeDegrees>
              <LongitudeDegrees>-1.88240353949368000030517578125</LongitudeDegrees>
            </Position>
            <AltitudeMeters>688.79998779296875</AltitudeMeters>
            <DistanceMeters>NAN</DistanceMeters>
          </Trackpoint>
          <Trackpoint>
            <Time>2021-08-28T08:46:40.000Z</Time>
            <Position>
              <LatitudeDegrees>38.0925237201154232025146484375</LatitudeDegrees>
              <LongitudeDegrees>-1.88225534744560718536376953125</LongitudeDegrees>
            </Position>
            <AltitudeMeters>689</AltitudeMeters>
            <DistanceMeters>NAN</DistanceMeters>
          </Trackpoint>
          <Trackpoint>
            <Time>2021-08-28T08:46:41.000Z</Time>
            <Position>
              <LatitudeDegrees>38.0925237201154232025146484375</LatitudeDegrees>
              <LongitudeDegrees>-1.88225534744560718536376953125</LongitudeDegrees>
            </Position>
            <AltitudeMeters>688.5999755859375</AltitudeMeters>
            <DistanceMeters>NAN</DistanceMeters>
          </Trackpoint>
          <Trackpoint>
            <Time>2021-08-28T08:46:42.000Z</Time>
            <Position>
              <LatitudeDegrees>38.0926548130810260772705078125</LatitudeDegrees>
              <LongitudeDegrees>-1.88207228668034076690673828125</LongitudeDegrees>
            </Position>
            <AltitudeMeters>687.79998779296875</AltitudeMeters>
            <DistanceMeters>NAN</DistanceMeters>
          </Trackpoint>
          <Trackpoint>
            <Time>2021-08-28T08:46:44.000Z</Time>
            <Position>
              <LatitudeDegrees>38.09279671870172023773193359375</LatitudeDegrees>
              <LongitudeDegrees>-1.88186424784362316131591796875</LongitudeDegrees>
            </Position>
            <AltitudeMeters>686.79998779296875</AltitudeMeters>
            <DistanceMeters>NAN</DistanceMeters>
          </Trackpoint>
          <Trackpoint>
            <Time>2021-08-28T08:46:45.000Z</Time>
            <Position>
              <LatitudeDegrees>38.09287265874445438385009765625</LatitudeDegrees>
              <LongitudeDegrees>-1.881750337779521942138671875</LongitudeDegrees>
            </Position>
            <AltitudeMeters>686.5999755859375</AltitudeMeters>
            <DistanceMeters>NAN</DistanceMeters>
          </Trackpoint>
          <Trackpoint>
            <Time>2021-08-28T08:46:47.000Z</Time>
            <Position>
              <LatitudeDegrees>38.09304029680788516998291015625</LatitudeDegrees>
              <LongitudeDegrees>-1.88151338137686252593994140625</LongitudeDegrees>
            </Position>
            <AltitudeMeters>685.4000244140625</AltitudeMeters>
            <DistanceMeters>NAN</DistanceMeters>
          </Trackpoint>
          <Trackpoint>
            <Time>2021-08-28T08:46:48.000Z</Time>
            <Position>
              <LatitudeDegrees>38.093137443065643310546875</LatitudeDegrees>
              <LongitudeDegrees>-1.881393603980541229248046875</LongitudeDegrees>
            </Position>
            <AltitudeMeters>683.5999755859375</AltitudeMeters>
            <DistanceMeters>NAN</DistanceMeters>
          </Trackpoint>
          <Trackpoint>
            <Time>2021-08-28T08:46:49.000Z</Time>
            <Position>
              <LatitudeDegrees>38.0932438932359218597412109375</LatitudeDegrees>
              <LongitudeDegrees>-1.88127701170742511749267578125</LongitudeDegrees>
            </Position>
            <AltitudeMeters>682.5999755859375</AltitudeMeters>
            <DistanceMeters>NAN</DistanceMeters>
          </Trackpoint>
          <Trackpoint>
            <Time>2021-08-28T08:46:50.000Z</Time>
            <Position>
              <LatitudeDegrees>38.0932438932359218597412109375</LatitudeDegrees>
              <LongitudeDegrees>-1.88127701170742511749267578125</LongitudeDegrees>
            </Position>
            <AltitudeMeters>679.79998779296875</AltitudeMeters>
            <DistanceMeters>NAN</DistanceMeters>
          </Trackpoint>
          <Trackpoint>
            <Time>2021-08-28T08:46:51.000Z</Time>
            <Position>
              <LatitudeDegrees>38.09346794150769710540771484375</LatitudeDegrees>
              <LongitudeDegrees>-1.88105036504566669464111328125</LongitudeDegrees>
            </Position>
            <AltitudeMeters>678.4000244140625</AltitudeMeters>
            <DistanceMeters>NAN</DistanceMeters>
          </Trackpoint>
          <Trackpoint>
            <Time>2021-08-28T08:46:53.000Z</Time>
            <Position>
              <LatitudeDegrees>38.0937012098729610443115234375</LatitudeDegrees>
              <LongitudeDegrees>-1.8808271549642086029052734375</LongitudeDegrees>
            </Position>
            <AltitudeMeters>677.20001220703125</AltitudeMeters>
            <DistanceMeters>NAN</DistanceMeters>
          </Trackpoint>
          <Trackpoint>
            <Time>2021-08-28T08:46:55.000Z</Time>
            <Position>
              <LatitudeDegrees>38.093926012516021728515625</LatitudeDegrees>
              <LongitudeDegrees>-1.88060738146305084228515625</LongitudeDegrees>
            </Position>
            <AltitudeMeters>676.20001220703125</AltitudeMeters>
            <DistanceMeters>NAN</DistanceMeters>
          </Trackpoint>
          <Trackpoint>
            <Time>2021-08-28T08:46:57.000Z</Time>
            <Position>
              <LatitudeDegrees>38.09402600862085819244384765625</LatitudeDegrees>
              <LongitudeDegrees>-1.88048542477190494537353515625</LongitudeDegrees>
            </Position>
            <AltitudeMeters>674.79998779296875</AltitudeMeters>
            <DistanceMeters>NAN</DistanceMeters>
          </Trackpoint>
          <Trackpoint>
            <Time>2021-08-28T08:46:58.000Z</Time>
            <Position>
              <LatitudeDegrees>38.09411066584289073944091796875</LatitudeDegrees>
              <LongitudeDegrees>-1.88034947030246257781982421875</LongitudeDegrees>
            </Position>
            <AltitudeMeters>673.4000244140625</AltitudeMeters>
            <DistanceMeters>NAN</DistanceMeters>
          </Trackpoint>
          <Trackpoint>
            <Time>2021-08-28T08:46:59.000Z</Time>
            <Position>
              <LatitudeDegrees>38.09423270635306835174560546875</LatitudeDegrees>
              <LongitudeDegrees>-1.8800452910363674163818359375</LongitudeDegrees>
            </Position>
            <AltitudeMeters>672.5999755859375</AltitudeMeters>
            <DistanceMeters>NAN</DistanceMeters>
          </Trackpoint>
          <Trackpoint>
            <Time>2021-08-28T08:47:00.000Z</Time>
            <Position>
              <LatitudeDegrees>38.09428266249597072601318359375</LatitudeDegrees>
              <LongitudeDegrees>-1.8798890523612499237060546875</LongitudeDegrees>
            </Position>
            <AltitudeMeters>672.20001220703125</AltitudeMeters>
            <DistanceMeters>NAN</DistanceMeters>
          </Trackpoint>
          <Trackpoint>
            <Time>2021-08-28T08:47:04.000Z</Time>
            <Position>
              <LatitudeDegrees>38.094451725482940673828125</LatitudeDegrees>
              <LongitudeDegrees>-1.879285387694835662841796875</LongitudeDegrees>
            </Position>
            <AltitudeMeters>670.4000244140625</AltitudeMeters>
            <DistanceMeters>NAN</DistanceMeters>
          </Trackpoint>
          <Trackpoint>
            <Time>2021-08-28T08:47:05.000Z</Time>
            <Position>
              <LatitudeDegrees>38.0944932997226715087890625</LatitudeDegrees>
              <LongitudeDegrees>-1.879142560064792633056640625</LongitudeDegrees>
            </Position>
            <AltitudeMeters>669.79998779296875</AltitudeMeters>
            <DistanceMeters>NAN</DistanceMeters>
          </Trackpoint>
          <Trackpoint>
            <Time>2021-08-28T08:47:06.000Z</Time>
            <Position>
              <LatitudeDegrees>38.09453730471432209014892578125</LatitudeDegrees>
              <LongitudeDegrees>-1.87900400720536708831787109375</LongitudeDegrees>
            </Position>
            <AltitudeMeters>669</AltitudeMeters>
            <DistanceMeters>NAN</DistanceMeters>
          </Trackpoint>
          <Trackpoint>
            <Time>2021-08-28T08:47:08.000Z</Time>
            <Position>
              <LatitudeDegrees>38.0946262367069721221923828125</LatitudeDegrees>
              <LongitudeDegrees>-1.87873176299035549163818359375</LongitudeDegrees>
            </Position>
            <AltitudeMeters>668</AltitudeMeters>
            <DistanceMeters>NAN</DistanceMeters>
          </Trackpoint>
          <Trackpoint>
            <Time>2021-08-28T08:47:11.000Z</Time>
            <Position>
              <LatitudeDegrees>38.0947593413293361663818359375</LatitudeDegrees>
              <LongitudeDegrees>-1.8783228099346160888671875</LongitudeDegrees>
            </Position>
            <AltitudeMeters>666.4000244140625</AltitudeMeters>
            <DistanceMeters>NAN</DistanceMeters>
          </Trackpoint>
          <Trackpoint>
            <Time>2021-08-28T08:47:13.000Z</Time>
            <Position>
              <LatitudeDegrees>38.0948441661894321441650390625</LatitudeDegrees>
              <LongitudeDegrees>-1.87803958542644977569580078125</LongitudeDegrees>
            </Position>
            <AltitudeMeters>664.79998779296875</AltitudeMeters>
            <DistanceMeters>NAN</DistanceMeters>
          </Trackpoint>
          <Trackpoint>
            <Time>2021-08-28T08:47:14.000Z</Time>
            <Position>
              <LatitudeDegrees>38.094881214201450347900390625</LatitudeDegrees>
              <LongitudeDegrees>-1.87789273448288440704345703125</LongitudeDegrees>
            </Position>
            <AltitudeMeters>663.4000244140625</AltitudeMeters>
            <DistanceMeters>NAN</DistanceMeters>
          </Trackpoint>
          <Trackpoint>
            <Time>2021-08-28T08:47:15.000Z</Time>
            <Position>
              <LatitudeDegrees>38.0949159152805805206298828125</LatitudeDegrees>
              <LongitudeDegrees>-1.87774018384516239166259765625</LongitudeDegrees>
            </Position>
            <AltitudeMeters>661.79998779296875</AltitudeMeters>
            <DistanceMeters>NAN</DistanceMeters>
          </Trackpoint>
          <Trackpoint>
            <Time>2021-08-28T08:47:17.000Z</Time>
            <Position>
              <LatitudeDegrees>38.09497274458408355712890625</LatitudeDegrees>
              <LongitudeDegrees>-1.87743038870394229888916015625</LongitudeDegrees>
            </Position>
            <AltitudeMeters>660.79998779296875</AltitudeMeters>
            <DistanceMeters>NAN</DistanceMeters>
          </Trackpoint>
          <Trackpoint>
            <Time>2021-08-28T08:47:18.000Z</Time>
            <Position>
              <LatitudeDegrees>38.09498288668692111968994140625</LatitudeDegrees>
              <LongitudeDegrees>-1.877280436456203460693359375</LongitudeDegrees>
            </Position>
            <AltitudeMeters>660.79998779296875</AltitudeMeters>
            <DistanceMeters>NAN</DistanceMeters>
          </Trackpoint>
          <Trackpoint>
            <Time>2021-08-28T08:47:20.000Z</Time>
            <Position>
              <LatitudeDegrees>38.09496260248124599456787109375</LatitudeDegrees>
              <LongitudeDegrees>-1.87701799906790256500244140625</LongitudeDegrees>
            </Position>
            <AltitudeMeters>660.79998779296875</AltitudeMeters>
            <DistanceMeters>NAN</DistanceMeters>
          </Trackpoint>
          <Trackpoint>
            <Time>2021-08-28T08:47:22.000Z</Time>
            <Position>
              <LatitudeDegrees>38.0948998220264911651611328125</LatitudeDegrees>
              <LongitudeDegrees>-1.87680794857442378997802734375</LongitudeDegrees>
            </Position>
            <AltitudeMeters>660.79998779296875</AltitudeMeters>
            <DistanceMeters>NAN</DistanceMeters>
          </Trackpoint>
          <Trackpoint>
            <Time>2021-08-28T08:47:23.000Z</Time>
            <Position>
              <LatitudeDegrees>38.094892613589763641357421875</LatitudeDegrees>
              <LongitudeDegrees>-1.876709125936031341552734375</LongitudeDegrees>
            </Position>
            <AltitudeMeters>660.79998779296875</AltitudeMeters>
            <DistanceMeters>NAN</DistanceMeters>
          </Trackpoint>
          <Trackpoint>
            <Time>2021-08-28T08:47:24.000Z</Time>
            <Position>
              <LatitudeDegrees>38.094908036291599273681640625</LatitudeDegrees>
              <LongitudeDegrees>-1.87661147676408290863037109375</LongitudeDegrees>
            </Position>
            <AltitudeMeters>660.79998779296875</AltitudeMeters>
            <DistanceMeters>NAN</DistanceMeters>
          </Trackpoint>
          <Trackpoint>
            <Time>2021-08-28T08:47:26.000Z</Time>
            <Position>
              <LatitudeDegrees>38.0949424020946025848388671875</LatitudeDegrees>
              <LongitudeDegrees>-1.876521371304988861083984375</LongitudeDegrees>
            </Position>
            <AltitudeMeters>660.5999755859375</AltitudeMeters>
            <DistanceMeters>NAN</DistanceMeters>
          </Trackpoint>
          <Trackpoint>
            <Time>2021-08-28T08:47:27.000Z</Time>
            <Position>
              <LatitudeDegrees>38.0950433202087879180908203125</LatitudeDegrees>
              <LongitudeDegrees>-1.87635867856442928314208984375</LongitudeDegrees>
            </Position>
            <AltitudeMeters>660.4000244140625</AltitudeMeters>
            <DistanceMeters>NAN</DistanceMeters>
          </Trackpoint>
          <Trackpoint>
            <Time>2021-08-28T08:47:29.000Z</Time>
            <Position>
              <LatitudeDegrees>38.0951036699116230010986328125</LatitudeDegrees>
              <LongitudeDegrees>-1.87629380263388156890869140625</LongitudeDegrees>
            </Position>
            <AltitudeMeters>660.20001220703125</AltitudeMeters>
            <DistanceMeters>NAN</DistanceMeters>
          </Trackpoint>
          <Trackpoint>
            <Time>2021-08-28T08:47:30.000Z</Time>
            <Position>
              <LatitudeDegrees>38.09523652307689189910888671875</LatitudeDegrees>
              <LongitudeDegrees>-1.876184083521366119384765625</LongitudeDegrees>
            </Position>
            <AltitudeMeters>660.20001220703125</AltitudeMeters>
            <DistanceMeters>NAN</DistanceMeters>
          </Trackpoint>
          <Trackpoint>
            <Time>2021-08-28T08:47:32.000Z</Time>
            <Position>
              <LatitudeDegrees>38.09530508704483509063720703125</LatitudeDegrees>
              <LongitudeDegrees>-1.87614460475742816925048828125</LongitudeDegrees>
            </Position>
            <AltitudeMeters>660</AltitudeMeters>
            <DistanceMeters>NAN</DistanceMeters>
          </Trackpoint>
          <Trackpoint>
            <Time>2021-08-28T08:47:33.000Z</Time>
            <Position>
              <LatitudeDegrees>38.09537708759307861328125</LatitudeDegrees>
              <LongitudeDegrees>-1.87610956840217113494873046875</LongitudeDegrees>
            </Position>
            <AltitudeMeters>660.20001220703125</AltitudeMeters>
            <DistanceMeters>NAN</DistanceMeters>
          </Trackpoint>
          <Trackpoint>
            <Time>2021-08-28T08:47:38.000Z</Time>
            <Position>
              <LatitudeDegrees>38.09583968482911586761474609375</LatitudeDegrees>
              <LongitudeDegrees>-1.87593840993940830230712890625</LongitudeDegrees>
            </Position>
            <AltitudeMeters>659.5999755859375</AltitudeMeters>
            <DistanceMeters>NAN</DistanceMeters>
          </Trackpoint>
          <Trackpoint>
            <Time>2021-08-28T08:47:39.000Z</Time>
            <Position>
              <LatitudeDegrees>38.09591713361442089080810546875</LatitudeDegrees>
              <LongitudeDegrees>-1.87590220011770725250244140625</LongitudeDegrees>
            </Position>
            <AltitudeMeters>659.4000244140625</AltitudeMeters>
            <DistanceMeters>NAN</DistanceMeters>
          </Trackpoint>
          <Trackpoint>
            <Time>2021-08-28T08:47:43.000Z</Time>
            <Position>
              <LatitudeDegrees>38.09622927568852901458740234375</LatitudeDegrees>
              <LongitudeDegrees>-1.87577068805694580078125</LongitudeDegrees>
            </Position>
            <AltitudeMeters>658.5999755859375</AltitudeMeters>
            <DistanceMeters>NAN</DistanceMeters>
          </Trackpoint>
          <Trackpoint>
            <Time>2021-08-28T08:47:46.000Z</Time>
            <Position>
              <LatitudeDegrees>38.09647318907082080841064453125</LatitudeDegrees>
              <LongitudeDegrees>-1.87567823566496372222900390625</LongitudeDegrees>
            </Position>
            <AltitudeMeters>659.20001220703125</AltitudeMeters>
            <DistanceMeters>NAN</DistanceMeters>
          </Trackpoint>
          <Trackpoint>
            <Time>2021-08-28T08:47:48.000Z</Time>
            <Position>
              <LatitudeDegrees>38.0966218002140522003173828125</LatitudeDegrees>
              <LongitudeDegrees>-1.8755837716162204742431640625</LongitudeDegrees>
            </Position>
            <AltitudeMeters>659</AltitudeMeters>
            <DistanceMeters>NAN</DistanceMeters>
          </Trackpoint>
          <Trackpoint>
            <Time>2021-08-28T08:47:51.000Z</Time>
            <Position>
              <LatitudeDegrees>38.0967582575976848602294921875</LatitudeDegrees>
              <LongitudeDegrees>-1.8754582107067108154296875</LongitudeDegrees>
            </Position>
            <AltitudeMeters>658.4000244140625</AltitudeMeters>
            <DistanceMeters>NAN</DistanceMeters>
          </Trackpoint>
          <Trackpoint>
            <Time>2021-08-28T08:47:52.000Z</Time>
            <Position>
              <LatitudeDegrees>38.09681902639567852020263671875</LatitudeDegrees>
              <LongitudeDegrees>-1.87538436613976955413818359375</LongitudeDegrees>
            </Position>
            <AltitudeMeters>658.20001220703125</AltitudeMeters>
            <DistanceMeters>NAN</DistanceMeters>
          </Trackpoint>
          <Trackpoint>
            <Time>2021-08-28T08:47:55.000Z</Time>
            <Position>
              <LatitudeDegrees>38.0970439128577709197998046875</LatitudeDegrees>
              <LongitudeDegrees>-1.8750721402466297149658203125</LongitudeDegrees>
            </Position>
            <AltitudeMeters>657.79998779296875</AltitudeMeters>
            <DistanceMeters>NAN</DistanceMeters>
          </Trackpoint>
          <Trackpoint>
            <Time>2021-08-28T08:48:02.000Z</Time>
            <Position>
              <LatitudeDegrees>38.09739687480032444000244140625</LatitudeDegrees>
              <LongitudeDegrees>-1.87455036677420139312744140625</LongitudeDegrees>
            </Position>
            <AltitudeMeters>658</AltitudeMeters>
            <DistanceMeters>NAN</DistanceMeters>
          </Trackpoint>
          <Trackpoint>
            <Time>2021-08-28T08:48:04.000Z</Time>
            <Position>
              <LatitudeDegrees>38.097481615841388702392578125</LatitudeDegrees>
              <LongitudeDegrees>-1.87440133653581142425537109375</LongitudeDegrees>
            </Position>
            <AltitudeMeters>657.79998779296875</AltitudeMeters>
            <DistanceMeters>NAN</DistanceMeters>
          </Trackpoint>
          <Trackpoint>
            <Time>2021-08-28T08:48:07.000Z</Time>
            <Position>
              <LatitudeDegrees>38.0975778400897979736328125</LatitudeDegrees>
              <LongitudeDegrees>-1.87415692023932933807373046875</LongitudeDegrees>
            </Position>
            <AltitudeMeters>657.5999755859375</AltitudeMeters>
            <DistanceMeters>NAN</DistanceMeters>
          </Trackpoint>
          <Trackpoint>
            <Time>2021-08-28T08:48:08.000Z</Time>
            <Position>
              <LatitudeDegrees>38.0975778400897979736328125</LatitudeDegrees>
              <LongitudeDegrees>-1.87415692023932933807373046875</LongitudeDegrees>
            </Position>
            <AltitudeMeters>657.20001220703125</AltitudeMeters>
            <DistanceMeters>NAN</DistanceMeters>
          </Trackpoint>
          <Trackpoint>
            <Time>2021-08-28T08:48:09.000Z</Time>
            <Position>
              <LatitudeDegrees>38.09760868549346923828125</LatitudeDegrees>
              <LongitudeDegrees>-1.87407628633081912994384765625</LongitudeDegrees>
            </Position>
            <AltitudeMeters>657.4000244140625</AltitudeMeters>
            <DistanceMeters>NAN</DistanceMeters>
          </Trackpoint>
          <Trackpoint>
            <Time>2021-08-28T08:48:11.000Z</Time>
            <Position>
              <LatitudeDegrees>38.09770583175122737884521484375</LatitudeDegrees>
              <LongitudeDegrees>-1.8739610351622104644775390625</LongitudeDegrees>
            </Position>
            <AltitudeMeters>657.20001220703125</AltitudeMeters>
            <DistanceMeters>NAN</DistanceMeters>
          </Trackpoint>
          <Trackpoint>
            <Time>2021-08-28T08:48:13.000Z</Time>
            <Position>
              <LatitudeDegrees>38.09783591888844966888427734375</LatitudeDegrees>
              <LongitudeDegrees>-1.87393798492848873138427734375</LongitudeDegrees>
            </Position>
            <AltitudeMeters>656.79998779296875</AltitudeMeters>
            <DistanceMeters>NAN</DistanceMeters>
          </Trackpoint>
          <Trackpoint>
            <Time>2021-08-28T08:48:15.000Z</Time>
            <Position>
              <LatitudeDegrees>38.097965419292449951171875</LatitudeDegrees>
              <LongitudeDegrees>-1.87400302849709987640380859375</LongitudeDegrees>
            </Position>
            <AltitudeMeters>656.79998779296875</AltitudeMeters>
            <DistanceMeters>NAN</DistanceMeters>
          </Trackpoint>
          <Trackpoint>
            <Time>2021-08-28T08:48:17.000Z</Time>
            <Position>
              <LatitudeDegrees>38.09807832352817058563232421875</LatitudeDegrees>
              <LongitudeDegrees>-1.8740951456129550933837890625</LongitudeDegrees>
            </Position>
            <AltitudeMeters>656.79998779296875</AltitudeMeters>
            <DistanceMeters>NAN</DistanceMeters>
          </Trackpoint>
          <Trackpoint>
            <Time>2021-08-28T08:48:19.000Z</Time>
            <Position>
              <LatitudeDegrees>38.09819634072482585906982421875</LatitudeDegrees>
              <LongitudeDegrees>-1.87411107122898101806640625</LongitudeDegrees>
            </Position>
            <AltitudeMeters>656.79998779296875</AltitudeMeters>
            <DistanceMeters>NAN</DistanceMeters>
          </Trackpoint>
          <Trackpoint>
            <Time>2021-08-28T08:48:21.000Z</Time>
            <Position>
              <LatitudeDegrees>38.0982814170420169830322265625</LatitudeDegrees>
              <LongitudeDegrees>-1.87399028800427913665771484375</LongitudeDegrees>
            </Position>
            <AltitudeMeters>656.20001220703125</AltitudeMeters>
            <DistanceMeters>NAN</DistanceMeters>
          </Trackpoint>
          <Trackpoint>
            <Time>2021-08-28T08:48:25.000Z</Time>
            <Position>
              <LatitudeDegrees>38.09838392771780490875244140625</LatitudeDegrees>
              <LongitudeDegrees>-1.87361645512282848358154296875</LongitudeDegrees>
            </Position>
            <AltitudeMeters>655.4000244140625</AltitudeMeters>
            <DistanceMeters>NAN</DistanceMeters>
          </Trackpoint>
          <Trackpoint>
            <Time>2021-08-28T08:48:26.000Z</Time>
            <Position>
              <LatitudeDegrees>38.09840773232281208038330078125</LatitudeDegrees>
              <LongitudeDegrees>-1.8735147826373577117919921875</LongitudeDegrees>
            </Position>
            <AltitudeMeters>655</AltitudeMeters>
            <DistanceMeters>NAN</DistanceMeters>
          </Trackpoint>
          <Trackpoint>
            <Time>2021-08-28T08:48:29.000Z</Time>
            <Position>
              <LatitudeDegrees>38.0985295213758945465087890625</LatitudeDegrees>
              <LongitudeDegrees>-1.87311002053320407867431640625</LongitudeDegrees>
            </Position>
            <AltitudeMeters>653.4000244140625</AltitudeMeters>
            <DistanceMeters>NAN</DistanceMeters>
          </Trackpoint>
          <Trackpoint>
            <Time>2021-08-28T08:48:30.000Z</Time>
            <Position>
              <LatitudeDegrees>38.0985295213758945465087890625</LatitudeDegrees>
              <LongitudeDegrees>-1.87311002053320407867431640625</LongitudeDegrees>
            </Position>
            <AltitudeMeters>652.5999755859375</AltitudeMeters>
            <DistanceMeters>NAN</DistanceMeters>
          </Trackpoint>
          <Trackpoint>
            <Time>2021-08-28T08:48:31.000Z</Time>
            <Position>
              <LatitudeDegrees>38.09856933541595935821533203125</LatitudeDegrees>
              <LongitudeDegrees>-1.873018741607666015625</LongitudeDegrees>
            </Position>
            <AltitudeMeters>652.20001220703125</AltitudeMeters>
            <DistanceMeters>NAN</DistanceMeters>
          </Trackpoint>
          <Trackpoint>
            <Time>2021-08-28T08:48:32.000Z</Time>
            <Position>
              <LatitudeDegrees>38.098612166941165924072265625</LatitudeDegrees>
              <LongitudeDegrees>-1.87294372357428073883056640625</LongitudeDegrees>
            </Position>
            <AltitudeMeters>652</AltitudeMeters>
            <DistanceMeters>NAN</DistanceMeters>
          </Trackpoint>
          <Trackpoint>
            <Time>2021-08-28T08:48:33.000Z</Time>
            <Position>
              <LatitudeDegrees>38.09865650720894336700439453125</LatitudeDegrees>
              <LongitudeDegrees>-1.8729012273252010345458984375</LongitudeDegrees>
            </Position>
            <AltitudeMeters>651.5999755859375</AltitudeMeters>
            <DistanceMeters>NAN</DistanceMeters>
          </Trackpoint>
          <Trackpoint>
            <Time>2021-08-28T08:48:34.000Z</Time>
            <Position>
              <LatitudeDegrees>38.098740912973880767822265625</LatitudeDegrees>
              <LongitudeDegrees>-1.872909106314182281494140625</LongitudeDegrees>
            </Position>
            <AltitudeMeters>651.20001220703125</AltitudeMeters>
            <DistanceMeters>NAN</DistanceMeters>
          </Trackpoint>
          <Trackpoint>
            <Time>2021-08-28T08:48:35.000Z</Time>
            <Position>
              <LatitudeDegrees>38.098740912973880767822265625</LatitudeDegrees>
              <LongitudeDegrees>-1.872909106314182281494140625</LongitudeDegrees>
            </Position>
            <AltitudeMeters>651</AltitudeMeters>
            <DistanceMeters>NAN</DistanceMeters>
          </Trackpoint>
          <Trackpoint>
            <Time>2021-08-28T08:48:36.000Z</Time>
            <Position>
              <LatitudeDegrees>38.09881769120693206787109375</LatitudeDegrees>
              <LongitudeDegrees>-1.87297691591084003448486328125</LongitudeDegrees>
            </Position>
            <AltitudeMeters>651</AltitudeMeters>
            <DistanceMeters>NAN</DistanceMeters>
          </Trackpoint>
          <Trackpoint>
            <Time>2021-08-28T08:48:40.000Z</Time>
            <Position>
              <LatitudeDegrees>38.0989402346312999725341796875</LatitudeDegrees>
              <LongitudeDegrees>-1.8730772472918033599853515625</LongitudeDegrees>
            </Position>
            <AltitudeMeters>651.4000244140625</AltitudeMeters>
            <DistanceMeters>NAN</DistanceMeters>
          </Trackpoint>
          <Trackpoint>
            <Time>2021-08-28T08:48:41.000Z</Time>
            <Position>
              <LatitudeDegrees>38.09902480803430080413818359375</LatitudeDegrees>
              <LongitudeDegrees>-1.87314036302268505096435546875</LongitudeDegrees>
            </Position>
            <AltitudeMeters>651.5999755859375</AltitudeMeters>
            <DistanceMeters>NAN</DistanceMeters>
          </Trackpoint>
          <Trackpoint>
            <Time>2021-08-28T08:48:42.000Z</Time>
            <Position>
              <LatitudeDegrees>38.099071495234966278076171875</LatitudeDegrees>
              <LongitudeDegrees>-1.8731724657118320465087890625</LongitudeDegrees>
            </Position>
            <AltitudeMeters>651.79998779296875</AltitudeMeters>
            <DistanceMeters>NAN</DistanceMeters>
          </Trackpoint>
          <Trackpoint>
            <Time>2021-08-28T08:48:44.000Z</Time>
            <Position>
              <LatitudeDegrees>38.09918121434748172760009765625</LatitudeDegrees>
              <LongitudeDegrees>-1.8732291273772716522216796875</LongitudeDegrees>
            </Position>
            <AltitudeMeters>652.4000244140625</AltitudeMeters>
            <DistanceMeters>NAN</DistanceMeters>
          </Trackpoint>
          <Trackpoint>
            <Time>2021-08-28T08:48:46.000Z</Time>
            <Position>
              <LatitudeDegrees>38.0992971360683441162109375</LatitudeDegrees>
              <LongitudeDegrees>-1.87329291366040706634521484375</LongitudeDegrees>
            </Position>
            <AltitudeMeters>652.79998779296875</AltitudeMeters>
            <DistanceMeters>NAN</DistanceMeters>
          </Trackpoint>
          <Trackpoint>
            <Time>2021-08-28T08:48:50.000Z</Time>
            <Position>
              <LatitudeDegrees>38.09954859316349029541015625</LatitudeDegrees>
              <LongitudeDegrees>-1.87340087257325649261474609375</LongitudeDegrees>
            </Position>
            <AltitudeMeters>653.20001220703125</AltitudeMeters>
            <DistanceMeters>NAN</DistanceMeters>
          </Trackpoint>
          <Trackpoint>
            <Time>2021-08-28T08:48:53.000Z</Time>
            <Position>
              <LatitudeDegrees>38.099756799638271331787109375</LatitudeDegrees>
              <LongitudeDegrees>-1.8734768964350223541259765625</LongitudeDegrees>
            </Position>
            <AltitudeMeters>653.4000244140625</AltitudeMeters>
            <DistanceMeters>NAN</DistanceMeters>
          </Trackpoint>
          <Trackpoint>
            <Time>2021-08-28T08:48:59.000Z</Time>
            <Position>
              <LatitudeDegrees>38.100198023021221160888671875</LatitudeDegrees>
              <LongitudeDegrees>-1.8736911378800868988037109375</LongitudeDegrees>
            </Position>
            <AltitudeMeters>653.5999755859375</AltitudeMeters>
            <DistanceMeters>NAN</DistanceMeters>
          </Trackpoint>
          <Trackpoint>
            <Time>2021-08-28T08:49:01.000Z</Time>
            <Position>
              <LatitudeDegrees>38.10034655034542083740234375</LatitudeDegrees>
              <LongitudeDegrees>-1.87376397661864757537841796875</LongitudeDegrees>
            </Position>
            <AltitudeMeters>653.79998779296875</AltitudeMeters>
            <DistanceMeters>NAN</DistanceMeters>
          </Trackpoint>
          <Trackpoint>
            <Time>2021-08-28T08:49:07.000Z</Time>
            <Position>
              <LatitudeDegrees>38.10081317089498043060302734375</LatitudeDegrees>
              <LongitudeDegrees>-1.873932369053363800048828125</LongitudeDegrees>
            </Position>
            <AltitudeMeters>654.20001220703125</AltitudeMeters>
            <DistanceMeters>NAN</DistanceMeters>
          </Trackpoint>
          <Trackpoint>
            <Time>2021-08-28T08:49:14.000Z</Time>
            <Position>
              <LatitudeDegrees>38.101333938539028167724609375</LatitudeDegrees>
              <LongitudeDegrees>-1.87409573234617710113525390625</LongitudeDegrees>
            </Position>
            <AltitudeMeters>652.79998779296875</AltitudeMeters>
            <DistanceMeters>NAN</DistanceMeters>
          </Trackpoint>
          <Trackpoint>
            <Time>2021-08-28T08:49:15.000Z</Time>
            <Position>
              <LatitudeDegrees>38.10150350444018840789794921875</LatitudeDegrees>
              <LongitudeDegrees>-1.8741519749164581298828125</LongitudeDegrees>
            </Position>
            <AltitudeMeters>652.5999755859375</AltitudeMeters>
            <DistanceMeters>NAN</DistanceMeters>
          </Trackpoint>
          <Trackpoint>
            <Time>2021-08-28T08:49:18.000Z</Time>
            <Position>
              <LatitudeDegrees>38.10174205340445041656494140625</LatitudeDegrees>
              <LongitudeDegrees>-1.87426085583865642547607421875</LongitudeDegrees>
            </Position>
            <AltitudeMeters>653</AltitudeMeters>
            <DistanceMeters>NAN</DistanceMeters>
          </Trackpoint>
          <Trackpoint>
            <Time>2021-08-28T08:49:23.000Z</Time>
            <Position>
              <LatitudeDegrees>38.10204078443348407745361328125</LatitudeDegrees>
              <LongitudeDegrees>-1.87440586276352405548095703125</LongitudeDegrees>
            </Position>
            <AltitudeMeters>653.20001220703125</AltitudeMeters>
            <DistanceMeters>NAN</DistanceMeters>
          </Trackpoint>
          <Trackpoint>
            <Time>2021-08-28T08:49:24.000Z</Time>
            <Position>
              <LatitudeDegrees>38.10210348106920719146728515625</LatitudeDegrees>
              <LongitudeDegrees>-1.8744605965912342071533203125</LongitudeDegrees>
            </Position>
            <AltitudeMeters>653.20001220703125</AltitudeMeters>
            <DistanceMeters>NAN</DistanceMeters>
          </Trackpoint>
          <Trackpoint>
            <Time>2021-08-28T08:49:25.000Z</Time>
            <Position>
              <LatitudeDegrees>38.1022128649055957794189453125</LatitudeDegrees>
              <LongitudeDegrees>-1.8745903484523296356201171875</LongitudeDegrees>
            </Position>
            <AltitudeMeters>653.20001220703125</AltitudeMeters>
            <DistanceMeters>NAN</DistanceMeters>
          </Trackpoint>
          <Trackpoint>
            <Time>2021-08-28T08:49:28.000Z</Time>
            <Position>
              <LatitudeDegrees>38.1023013778030872344970703125</LatitudeDegrees>
              <LongitudeDegrees>-1.8747392110526561737060546875</LongitudeDegrees>
            </Position>
            <AltitudeMeters>653.20001220703125</AltitudeMeters>
            <DistanceMeters>NAN</DistanceMeters>
          </Trackpoint>
          <Trackpoint>
            <Time>2021-08-28T08:49:31.000Z</Time>
            <Position>
              <LatitudeDegrees>38.10238125734031200408935546875</LatitudeDegrees>
              <LongitudeDegrees>-1.87500022351741790771484375</LongitudeDegrees>
            </Position>
            <AltitudeMeters>653.4000244140625</AltitudeMeters>
            <DistanceMeters>NAN</DistanceMeters>
          </Trackpoint>
          <Trackpoint>
            <Time>2021-08-28T08:49:32.000Z</Time>
            <Position>
              <LatitudeDegrees>38.10239450074732303619384765625</LatitudeDegrees>
              <LongitudeDegrees>-1.8751888163387775421142578125</LongitudeDegrees>
            </Position>
            <AltitudeMeters>653.4000244140625</AltitudeMeters>
            <DistanceMeters>NAN</DistanceMeters>
          </Trackpoint>
          <Trackpoint>
            <Time>2021-08-28T08:49:40.000Z</Time>
            <Position>
              <LatitudeDegrees>38.10245208442211151123046875</LatitudeDegrees>
              <LongitudeDegrees>-1.87592633999884128570556640625</LongitudeDegrees>
            </Position>
            <AltitudeMeters>653.4000244140625</AltitudeMeters>
            <DistanceMeters>NAN</DistanceMeters>
          </Trackpoint>
          <Trackpoint>
            <Time>2021-08-28T08:49:42.000Z</Time>
            <Position>
              <LatitudeDegrees>38.10245786793529987335205078125</LatitudeDegrees>
              <LongitudeDegrees>-1.87607285566627979278564453125</LongitudeDegrees>
            </Position>
            <AltitudeMeters>653.20001220703125</AltitudeMeters>
            <DistanceMeters>NAN</DistanceMeters>
          </Trackpoint>
          <Trackpoint>
            <Time>2021-08-28T08:49:43.000Z</Time>
            <Position>
              <LatitudeDegrees>38.10245786793529987335205078125</LatitudeDegrees>
              <LongitudeDegrees>-1.87607285566627979278564453125</LongitudeDegrees>
            </Position>
            <AltitudeMeters>653</AltitudeMeters>
            <DistanceMeters>NAN</DistanceMeters>
          </Trackpoint>
          <Trackpoint>
            <Time>2021-08-28T08:49:44.000Z</Time>
            <Position>
              <LatitudeDegrees>38.10249810107052326202392578125</LatitudeDegrees>
              <LongitudeDegrees>-1.87614762224256992340087890625</LongitudeDegrees>
            </Position>
            <AltitudeMeters>653.4000244140625</AltitudeMeters>
            <DistanceMeters>NAN</DistanceMeters>
          </Trackpoint>
          <Trackpoint>
            <Time>2021-08-28T08:49:45.000Z</Time>
            <Position>
              <LatitudeDegrees>38.10252911411225795745849609375</LatitudeDegrees>
              <LongitudeDegrees>-1.87615080736577510833740234375</LongitudeDegrees>
            </Position>
            <AltitudeMeters>653.5999755859375</AltitudeMeters>
            <DistanceMeters>NAN</DistanceMeters>
          </Trackpoint>
          <Trackpoint>
            <Time>2021-08-28T08:49:49.000Z</Time>
            <Position>
              <LatitudeDegrees>38.10264327563345432281494140625</LatitudeDegrees>
              <LongitudeDegrees>-1.8760964088141918182373046875</LongitudeDegrees>
            </Position>
            <AltitudeMeters>654.5999755859375</AltitudeMeters>
            <DistanceMeters>NAN</DistanceMeters>
          </Trackpoint>
          <Trackpoint>
            <Time>2021-08-28T08:49:50.000Z</Time>
            <Position>
              <LatitudeDegrees>38.10272441245615482330322265625</LatitudeDegrees>
              <LongitudeDegrees>-1.87603421509265899658203125</LongitudeDegrees>
            </Position>
            <AltitudeMeters>655</AltitudeMeters>
            <DistanceMeters>NAN</DistanceMeters>
          </Trackpoint>
          <Trackpoint>
            <Time>2021-08-28T08:49:52.000Z</Time>
            <Position>
              <LatitudeDegrees>38.1028120033442974090576171875</LatitudeDegrees>
              <LongitudeDegrees>-1.8759622983634471893310546875</LongitudeDegrees>
            </Position>
            <AltitudeMeters>655.5999755859375</AltitudeMeters>
            <DistanceMeters>NAN</DistanceMeters>
          </Trackpoint>
          <Trackpoint>
            <Time>2021-08-28T08:49:55.000Z</Time>
            <Position>
              <LatitudeDegrees>38.10294418595731258392333984375</LatitudeDegrees>
              <LongitudeDegrees>-1.8758734501898288726806640625</LongitudeDegrees>
            </Position>
            <AltitudeMeters>657</AltitudeMeters>
            <DistanceMeters>NAN</DistanceMeters>
          </Trackpoint>
          <Trackpoint>
            <Time>2021-08-28T08:49:58.000Z</Time>
            <Position>
              <LatitudeDegrees>38.103072680532932281494140625</LatitudeDegrees>
              <LongitudeDegrees>-1.87578937970101833343505859375</LongitudeDegrees>
            </Position>
            <AltitudeMeters>658.20001220703125</AltitudeMeters>
            <DistanceMeters>NAN</DistanceMeters>
          </Trackpoint>
          <Trackpoint>
            <Time>2021-08-28T08:49:59.000Z</Time>
            <Position>
              <LatitudeDegrees>38.103115260601043701171875</LatitudeDegrees>
              <LongitudeDegrees>-1.875760965049266815185546875</LongitudeDegrees>
            </Position>
            <AltitudeMeters>658.5999755859375</AltitudeMeters>
            <DistanceMeters>NAN</DistanceMeters>
          </Trackpoint>
          <Trackpoint>
            <Time>2021-08-28T08:50:01.000Z</Time>
            <Position>
              <LatitudeDegrees>38.10315557755529880523681640625</LatitudeDegrees>
              <LongitudeDegrees>-1.87572886236011981964111328125</LongitudeDegrees>
            </Position>
            <AltitudeMeters>659.4000244140625</AltitudeMeters>
            <DistanceMeters>NAN</DistanceMeters>
          </Trackpoint>
          <Trackpoint>
            <Time>2021-08-28T08:50:05.000Z</Time>
            <Position>
              <LatitudeDegrees>38.10337753035128116607666015625</LatitudeDegrees>
              <LongitudeDegrees>-1.875553093850612640380859375</LongitudeDegrees>
            </Position>
            <AltitudeMeters>660.5999755859375</AltitudeMeters>
            <DistanceMeters>NAN</DistanceMeters>
          </Trackpoint>
          <Trackpoint>
            <Time>2021-08-28T08:50:07.000Z</Time>
            <Position>
              <LatitudeDegrees>38.103423379361629486083984375</LatitudeDegrees>
              <LongitudeDegrees>-1.8755103461444377899169921875</LongitudeDegrees>
            </Position>
            <AltitudeMeters>660.79998779296875</AltitudeMeters>
            <DistanceMeters>NAN</DistanceMeters>
          </Trackpoint>
          <Trackpoint>
            <Time>2021-08-28T08:50:12.000Z</Time>
            <Position>
              <LatitudeDegrees>38.1036827154457569122314453125</LatitudeDegrees>
              <LongitudeDegrees>-1.875164173543453216552734375</LongitudeDegrees>
            </Position>
            <AltitudeMeters>661</AltitudeMeters>
            <DistanceMeters>NAN</DistanceMeters>
          </Trackpoint>
          <Trackpoint>
            <Time>2021-08-28T08:50:19.000Z</Time>
            <Position>
              <LatitudeDegrees>38.103945739567279815673828125</LatitudeDegrees>
              <LongitudeDegrees>-1.8747512809932231903076171875</LongitudeDegrees>
            </Position>
            <AltitudeMeters>660.4000244140625</AltitudeMeters>
            <DistanceMeters>NAN</DistanceMeters>
          </Trackpoint>
          <Trackpoint>
            <Time>2021-08-28T08:50:21.000Z</Time>
            <Position>
              <LatitudeDegrees>38.10406384058296680450439453125</LatitudeDegrees>
              <LongitudeDegrees>-1.87461641617119312286376953125</LongitudeDegrees>
            </Position>
            <AltitudeMeters>659.79998779296875</AltitudeMeters>
            <DistanceMeters>NAN</DistanceMeters>
          </Trackpoint>
          <Trackpoint>
            <Time>2021-08-28T08:50:22.000Z</Time>
            <Position>
              <LatitudeDegrees>38.10413676314055919647216796875</LatitudeDegrees>
              <LongitudeDegrees>-1.87456729821860790252685546875</LongitudeDegrees>
            </Position>
            <AltitudeMeters>659.4000244140625</AltitudeMeters>
            <DistanceMeters>NAN</DistanceMeters>
          </Trackpoint>
          <Trackpoint>
            <Time>2021-08-28T08:50:23.000Z</Time>
            <Position>
              <LatitudeDegrees>38.104219324886798858642578125</LatitudeDegrees>
              <LongitudeDegrees>-1.87454466708004474639892578125</LongitudeDegrees>
            </Position>
            <AltitudeMeters>659.20001220703125</AltitudeMeters>
            <DistanceMeters>NAN</DistanceMeters>
          </Trackpoint>
          <Trackpoint>
            <Time>2021-08-28T08:50:25.000Z</Time>
            <Position>
              <LatitudeDegrees>38.10447086580097675323486328125</LatitudeDegrees>
              <LongitudeDegrees>-1.87456981278955936431884765625</LongitudeDegrees>
            </Position>
            <AltitudeMeters>658.79998779296875</AltitudeMeters>
            <DistanceMeters>NAN</DistanceMeters>
          </Trackpoint>
          <Trackpoint>
            <Time>2021-08-28T08:50:26.000Z</Time>
            <Position>
              <LatitudeDegrees>38.104549236595630645751953125</LatitudeDegrees>
              <LongitudeDegrees>-1.87458959408104419708251953125</LongitudeDegrees>
            </Position>
            <AltitudeMeters>658.4000244140625</AltitudeMeters>
            <DistanceMeters>NAN</DistanceMeters>
          </Trackpoint>
          <Trackpoint>
            <Time>2021-08-28T08:50:30.000Z</Time>
            <Position>
              <LatitudeDegrees>38.10485760681331157684326171875</LatitudeDegrees>
              <LongitudeDegrees>-1.87462395988404750823974609375</LongitudeDegrees>
            </Position>
            <AltitudeMeters>657.79998779296875</AltitudeMeters>
            <DistanceMeters>NAN</DistanceMeters>
          </Trackpoint>
          <Trackpoint>
            <Time>2021-08-28T08:50:31.000Z</Time>
            <Position>
              <LatitudeDegrees>38.10493455268442630767822265625</LatitudeDegrees>
              <LongitudeDegrees>-1.8746158294379711151123046875</LongitudeDegrees>
            </Position>
            <AltitudeMeters>657.79998779296875</AltitudeMeters>
            <DistanceMeters>NAN</DistanceMeters>
          </Trackpoint>
          <Trackpoint>
            <Time>2021-08-28T08:50:33.000Z</Time>
            <Position>
              <LatitudeDegrees>38.10501216910779476165771484375</LatitudeDegrees>
              <LongitudeDegrees>-1.87460149638354778289794921875</LongitudeDegrees>
            </Position>
            <AltitudeMeters>657.79998779296875</AltitudeMeters>
            <DistanceMeters>NAN</DistanceMeters>
          </Trackpoint>
          <Trackpoint>
            <Time>2021-08-28T08:50:36.000Z</Time>
            <Position>
              <LatitudeDegrees>38.10530536808073520660400390625</LatitudeDegrees>
              <LongitudeDegrees>-1.8744730018079280853271484375</LongitudeDegrees>
            </Position>
            <AltitudeMeters>657.79998779296875</AltitudeMeters>
            <DistanceMeters>NAN</DistanceMeters>
          </Trackpoint>
          <Trackpoint>
            <Time>2021-08-28T08:50:42.000Z</Time>
            <Position>
              <LatitudeDegrees>38.1056601740419864654541015625</LatitudeDegrees>
              <LongitudeDegrees>-1.87431567348539829254150390625</LongitudeDegrees>
            </Position>
            <AltitudeMeters>657.79998779296875</AltitudeMeters>
            <DistanceMeters>NAN</DistanceMeters>
          </Trackpoint>
          <Trackpoint>
            <Time>2021-08-28T08:50:43.000Z</Time>
            <Position>
              <LatitudeDegrees>38.1057250499725341796875</LatitudeDegrees>
              <LongitudeDegrees>-1.87426873482763767242431640625</LongitudeDegrees>
            </Position>
            <AltitudeMeters>657.79998779296875</AltitudeMeters>
            <DistanceMeters>NAN</DistanceMeters>
          </Trackpoint>
          <Trackpoint>
            <Time>2021-08-28T08:50:44.000Z</Time>
            <Position>
              <LatitudeDegrees>38.10584432445466518402099609375</LatitudeDegrees>
              <LongitudeDegrees>-1.8741514720022678375244140625</LongitudeDegrees>
            </Position>
            <AltitudeMeters>657.79998779296875</AltitudeMeters>
            <DistanceMeters>NAN</DistanceMeters>
          </Trackpoint>
          <Trackpoint>
            <Time>2021-08-28T08:50:47.000Z</Time>
            <Position>
              <LatitudeDegrees>38.10595429502427577972412109375</LatitudeDegrees>
              <LongitudeDegrees>-1.87401291914284229278564453125</LongitudeDegrees>
            </Position>
            <AltitudeMeters>658</AltitudeMeters>
            <DistanceMeters>NAN</DistanceMeters>
          </Trackpoint>
          <Trackpoint>
            <Time>2021-08-28T08:50:51.000Z</Time>
            <Position>
              <LatitudeDegrees>38.10622368939220905303955078125</LatitudeDegrees>
              <LongitudeDegrees>-1.87364897690713405609130859375</LongitudeDegrees>
            </Position>
            <AltitudeMeters>657.79998779296875</AltitudeMeters>
            <DistanceMeters>NAN</DistanceMeters>
          </Trackpoint>
          <Trackpoint>
            <Time>2021-08-28T08:50:55.000Z</Time>
            <Position>
              <LatitudeDegrees>38.10638428665697574615478515625</LatitudeDegrees>
              <LongitudeDegrees>-1.87342308461666107177734375</LongitudeDegrees>
            </Position>
            <AltitudeMeters>657.5999755859375</AltitudeMeters>
            <DistanceMeters>NAN</DistanceMeters>
          </Trackpoint>
          <Trackpoint>
            <Time>2021-08-28T08:50:57.000Z</Time>
            <Position>
              <LatitudeDegrees>38.10652770102024078369140625</LatitudeDegrees>
              <LongitudeDegrees>-1.87318176962435245513916015625</LongitudeDegrees>
            </Position>
            <AltitudeMeters>657.20001220703125</AltitudeMeters>
            <DistanceMeters>NAN</DistanceMeters>
          </Trackpoint>
          <Trackpoint>
            <Time>2021-08-28T08:51:02.000Z</Time>
            <Position>
              <LatitudeDegrees>38.1067823432385921478271484375</LatitudeDegrees>
              <LongitudeDegrees>-1.87279150821268558502197265625</LongitudeDegrees>
            </Position>
            <AltitudeMeters>657.4000244140625</AltitudeMeters>
            <DistanceMeters>NAN</DistanceMeters>
          </Trackpoint>
          <Trackpoint>
            <Time>2021-08-28T08:51:04.000Z</Time>
            <Position>
              <LatitudeDegrees>38.1068245880305767059326171875</LatitudeDegrees>
              <LongitudeDegrees>-1.87270819209516048431396484375</LongitudeDegrees>
            </Position>
            <AltitudeMeters>657.79998779296875</AltitudeMeters>
            <DistanceMeters>NAN</DistanceMeters>
          </Trackpoint>
          <Trackpoint>
            <Time>2021-08-28T08:51:06.000Z</Time>
            <Position>
              <LatitudeDegrees>38.1069040484726428985595703125</LatitudeDegrees>
              <LongitudeDegrees>-1.872436366975307464599609375</LongitudeDegrees>
            </Position>
            <AltitudeMeters>657.79998779296875</AltitudeMeters>
            <DistanceMeters>NAN</DistanceMeters>
          </Trackpoint>
          <Trackpoint>
            <Time>2021-08-28T08:51:12.000Z</Time>
            <Position>
              <LatitudeDegrees>38.10702634043991565704345703125</LatitudeDegrees>
              <LongitudeDegrees>-1.8719041161239147186279296875</LongitudeDegrees>
            </Position>
            <AltitudeMeters>657.79998779296875</AltitudeMeters>
            <DistanceMeters>NAN</DistanceMeters>
          </Trackpoint>
          <Trackpoint>
            <Time>2021-08-28T08:51:13.000Z</Time>
            <Position>
              <LatitudeDegrees>38.1070487201213836669921875</LatitudeDegrees>
              <LongitudeDegrees>-1.87181853689253330230712890625</LongitudeDegrees>
            </Position>
            <AltitudeMeters>657.79998779296875</AltitudeMeters>
            <DistanceMeters>NAN</DistanceMeters>
          </Trackpoint>
          <Trackpoint>
            <Time>2021-08-28T08:51:16.000Z</Time>
            <Position>
              <LatitudeDegrees>38.1071464531123638153076171875</LatitudeDegrees>
              <LongitudeDegrees>-1.87157462351024150848388671875</LongitudeDegrees>
            </Position>
            <AltitudeMeters>658</AltitudeMeters>
            <DistanceMeters>NAN</DistanceMeters>
          </Trackpoint>
          <Trackpoint>
            <Time>2021-08-28T08:51:18.000Z</Time>
            <Position>
              <LatitudeDegrees>38.1072269193828105926513671875</LatitudeDegrees>
              <LongitudeDegrees>-1.871428191661834716796875</LongitudeDegrees>
            </Position>
            <AltitudeMeters>658</AltitudeMeters>
            <DistanceMeters>NAN</DistanceMeters>
          </Trackpoint>
          <Trackpoint>
            <Time>2021-08-28T08:51:21.000Z</Time>
            <Position>
              <LatitudeDegrees>38.10732842423021793365478515625</LatitudeDegrees>
              <LongitudeDegrees>-1.87119995243847370147705078125</LongitudeDegrees>
            </Position>
            <AltitudeMeters>658.4000244140625</AltitudeMeters>
            <DistanceMeters>NAN</DistanceMeters>
          </Trackpoint>
          <Trackpoint>
            <Time>2021-08-28T08:51:23.000Z</Time>
            <Position>
              <LatitudeDegrees>38.10738508589565753936767578125</LatitudeDegrees>
              <LongitudeDegrees>-1.87103985808789730072021484375</LongitudeDegrees>
            </Position>
            <AltitudeMeters>658.5999755859375</AltitudeMeters>
            <DistanceMeters>NAN</DistanceMeters>
          </Trackpoint>
          <Trackpoint>
            <Time>2021-08-28T08:51:29.000Z</Time>
            <Position>
              <LatitudeDegrees>38.1075125746428966522216796875</LatitudeDegrees>
              <LongitudeDegrees>-1.87055387534201145172119140625</LongitudeDegrees>
            </Position>
            <AltitudeMeters>658.5999755859375</AltitudeMeters>
            <DistanceMeters>NAN</DistanceMeters>
          </Trackpoint>
          <Trackpoint>
            <Time>2021-08-28T08:51:37.000Z</Time>
            <Position>
              <LatitudeDegrees>38.10753889381885528564453125</LatitudeDegrees>
              <LongitudeDegrees>-1.8698599375784397125244140625</LongitudeDegrees>
            </Position>
            <AltitudeMeters>659</AltitudeMeters>
            <DistanceMeters>NAN</DistanceMeters>
          </Trackpoint>
          <Trackpoint>
            <Time>2021-08-28T08:51:44.000Z</Time>
            <Position>
              <LatitudeDegrees>38.1076051108539104461669921875</LatitudeDegrees>
              <LongitudeDegrees>-1.86923858709633350372314453125</LongitudeDegrees>
            </Position>
            <AltitudeMeters>659.4000244140625</AltitudeMeters>
            <DistanceMeters>NAN</DistanceMeters>
          </Trackpoint>
          <Trackpoint>
            <Time>2021-08-28T08:51:45.000Z</Time>
            <Position>
              <LatitudeDegrees>38.107624053955078125</LatitudeDegrees>
              <LongitudeDegrees>-1.86915275640785694122314453125</LongitudeDegrees>
            </Position>
            <AltitudeMeters>659.5999755859375</AltitudeMeters>
            <DistanceMeters>NAN</DistanceMeters>
          </Trackpoint>
          <Trackpoint>
            <Time>2021-08-28T08:51:51.000Z</Time>
            <Position>
              <LatitudeDegrees>38.10779680497944355010986328125</LatitudeDegrees>
              <LongitudeDegrees>-1.86867901124060153961181640625</LongitudeDegrees>
            </Position>
            <AltitudeMeters>660</AltitudeMeters>
            <DistanceMeters>NAN</DistanceMeters>
          </Trackpoint>
          <Trackpoint>
            <Time>2021-08-28T08:51:56.000Z</Time>
            <Position>
              <LatitudeDegrees>38.10795606113970279693603515625</LatitudeDegrees>
              <LongitudeDegrees>-1.86828665435314178466796875</LongitudeDegrees>
            </Position>
            <AltitudeMeters>660.5999755859375</AltitudeMeters>
            <DistanceMeters>NAN</DistanceMeters>
          </Trackpoint>
          <Trackpoint>
            <Time>2021-08-28T08:51:58.000Z</Time>
            <Position>
              <LatitudeDegrees>38.10802294872701168060302734375</LatitudeDegrees>
              <LongitudeDegrees>-1.868130750954151153564453125</LongitudeDegrees>
            </Position>
            <AltitudeMeters>660.5999755859375</AltitudeMeters>
            <DistanceMeters>NAN</DistanceMeters>
          </Trackpoint>
          <Trackpoint>
            <Time>2021-08-28T08:52:06.000Z</Time>
            <Position>
              <LatitudeDegrees>38.10825780965387821197509765625</LatitudeDegrees>
              <LongitudeDegrees>-1.867487691342830657958984375</LongitudeDegrees>
            </Position>
            <AltitudeMeters>661.20001220703125</AltitudeMeters>
            <DistanceMeters>NAN</DistanceMeters>
          </Trackpoint>
          <Trackpoint>
            <Time>2021-08-28T08:52:11.000Z</Time>
            <Position>
              <LatitudeDegrees>38.10837180353701114654541015625</LatitudeDegrees>
              <LongitudeDegrees>-1.867077313363552093505859375</LongitudeDegrees>
            </Position>
            <AltitudeMeters>661.20001220703125</AltitudeMeters>
            <DistanceMeters>NAN</DistanceMeters>
          </Trackpoint>
          <Trackpoint>
            <Time>2021-08-28T08:52:14.000Z</Time>
            <Position>
              <LatitudeDegrees>38.108420334756374359130859375</LatitudeDegrees>
              <LongitudeDegrees>-1.866825856268405914306640625</LongitudeDegrees>
            </Position>
            <AltitudeMeters>661</AltitudeMeters>
            <DistanceMeters>NAN</DistanceMeters>
          </Trackpoint>
          <Trackpoint>
            <Time>2021-08-28T08:52:16.000Z</Time>
            <Position>
              <LatitudeDegrees>38.1084434688091278076171875</LatitudeDegrees>
              <LongitudeDegrees>-1.86666852794587612152099609375</LongitudeDegrees>
            </Position>
            <AltitudeMeters>661</AltitudeMeters>
            <DistanceMeters>NAN</DistanceMeters>
          </Trackpoint>
          <Trackpoint>
            <Time>2021-08-28T08:53:24.000Z</Time>
            <Position>
              <LatitudeDegrees>38.11020593158900737762451171875</LatitudeDegrees>
              <LongitudeDegrees>-1.86601323075592517852783203125</LongitudeDegrees>
            </Position>
            <AltitudeMeters>663</AltitudeMeters>
            <DistanceMeters>NAN</DistanceMeters>
          </Trackpoint>
          <Trackpoint>
            <Time>2021-08-28T08:53:25.000Z</Time>
            <Position>
              <LatitudeDegrees>38.11020593158900737762451171875</LatitudeDegrees>
              <LongitudeDegrees>-1.86601323075592517852783203125</LongitudeDegrees>
            </Position>
            <AltitudeMeters>663</AltitudeMeters>
            <DistanceMeters>NAN</DistanceMeters>
          </Trackpoint>
          <Trackpoint>
            <Time>2021-08-28T08:53:26.000Z</Time>
            <Position>
              <LatitudeDegrees>38.11030567623674869537353515625</LatitudeDegrees>
              <LongitudeDegrees>-1.86592438258230686187744140625</LongitudeDegrees>
            </Position>
            <AltitudeMeters>663</AltitudeMeters>
            <DistanceMeters>NAN</DistanceMeters>
          </Trackpoint>
          <Trackpoint>
            <Time>2021-08-28T08:53:28.000Z</Time>
            <Position>
              <LatitudeDegrees>38.110389076173305511474609375</LatitudeDegrees>
              <LongitudeDegrees>-1.86580401845276355743408203125</LongitudeDegrees>
            </Position>
            <AltitudeMeters>663</AltitudeMeters>
            <DistanceMeters>NAN</DistanceMeters>
          </Trackpoint>
          <Trackpoint>
            <Time>2021-08-28T08:53:35.000Z</Time>
            <Position>
              <LatitudeDegrees>38.11069845221936702728271484375</LatitudeDegrees>
              <LongitudeDegrees>-1.86532993800938129425048828125</LongitudeDegrees>
            </Position>
            <AltitudeMeters>663.4000244140625</AltitudeMeters>
            <DistanceMeters>NAN</DistanceMeters>
          </Trackpoint>
          <Trackpoint>
            <Time>2021-08-28T08:53:39.000Z</Time>
            <Position>
              <LatitudeDegrees>38.11092208139598369598388671875</LatitudeDegrees>
              <LongitudeDegrees>-1.86509910039603710174560546875</LongitudeDegrees>
            </Position>
            <AltitudeMeters>664</AltitudeMeters>
            <DistanceMeters>NAN</DistanceMeters>
          </Trackpoint>
          <Trackpoint>
            <Time>2021-08-28T08:53:40.000Z</Time>
            <Position>
              <LatitudeDegrees>38.11092208139598369598388671875</LatitudeDegrees>
              <LongitudeDegrees>-1.86509910039603710174560546875</LongitudeDegrees>
            </Position>
            <AltitudeMeters>664.20001220703125</AltitudeMeters>
            <DistanceMeters>NAN</DistanceMeters>
          </Trackpoint>
          <Trackpoint>
            <Time>2021-08-28T08:53:41.000Z</Time>
            <Position>
              <LatitudeDegrees>38.11105350963771343231201171875</LatitudeDegrees>
              <LongitudeDegrees>-1.86501611955463886260986328125</LongitudeDegrees>
            </Position>
            <AltitudeMeters>664.20001220703125</AltitudeMeters>
            <DistanceMeters>NAN</DistanceMeters>
          </Trackpoint>
          <Trackpoint>
            <Time>2021-08-28T08:53:44.000Z</Time>
            <Position>
              <LatitudeDegrees>38.1112589500844478607177734375</LatitudeDegrees>
              <LongitudeDegrees>-1.864935569465160369873046875</LongitudeDegrees>
            </Position>
            <AltitudeMeters>664</AltitudeMeters>
            <DistanceMeters>NAN</DistanceMeters>
          </Trackpoint>
          <Trackpoint>
            <Time>2021-08-28T08:53:51.000Z</Time>
            <Position>
              <LatitudeDegrees>38.11176865361630916595458984375</LatitudeDegrees>
              <LongitudeDegrees>-1.8648307956755161285400390625</LongitudeDegrees>
            </Position>
            <AltitudeMeters>663.79998779296875</AltitudeMeters>
            <DistanceMeters>NAN</DistanceMeters>
          </Trackpoint>
          <Trackpoint>
            <Time>2021-08-28T08:53:58.000Z</Time>
            <Position>
              <LatitudeDegrees>38.1122808717191219329833984375</LatitudeDegrees>
              <LongitudeDegrees>-1.8647570349276065826416015625</LongitudeDegrees>
            </Position>
            <AltitudeMeters>663.4000244140625</AltitudeMeters>
            <DistanceMeters>NAN</DistanceMeters>
          </Trackpoint>
          <Trackpoint>
            <Time>2021-08-28T08:54:01.000Z</Time>
            <Position>
              <LatitudeDegrees>38.11251263134181499481201171875</LatitudeDegrees>
              <LongitudeDegrees>-1.8648193962872028350830078125</LongitudeDegrees>
            </Position>
            <AltitudeMeters>663.4000244140625</AltitudeMeters>
            <DistanceMeters>NAN</DistanceMeters>
          </Trackpoint>
          <Trackpoint>
            <Time>2021-08-28T08:54:03.000Z</Time>
            <Position>
              <LatitudeDegrees>38.11258471570909023284912109375</LatitudeDegrees>
              <LongitudeDegrees>-1.8648478947579860687255859375</LongitudeDegrees>
            </Position>
            <AltitudeMeters>663.5999755859375</AltitudeMeters>
            <DistanceMeters>NAN</DistanceMeters>
          </Trackpoint>
          <Trackpoint>
            <Time>2021-08-28T08:54:05.000Z</Time>
            <Position>
              <LatitudeDegrees>38.11278487555682659149169921875</LatitudeDegrees>
              <LongitudeDegrees>-1.86494998633861541748046875</LongitudeDegrees>
            </Position>
            <AltitudeMeters>664.20001220703125</AltitudeMeters>
            <DistanceMeters>NAN</DistanceMeters>
          </Trackpoint>
          <Trackpoint>
            <Time>2021-08-28T08:54:07.000Z</Time>
            <Position>
              <LatitudeDegrees>38.11290876008570194244384765625</LatitudeDegrees>
              <LongitudeDegrees>-1.86504746787250041961669921875</LongitudeDegrees>
            </Position>
            <AltitudeMeters>664.4000244140625</AltitudeMeters>
            <DistanceMeters>NAN</DistanceMeters>
          </Trackpoint>
          <Trackpoint>
            <Time>2021-08-28T08:54:08.000Z</Time>
            <Position>
              <LatitudeDegrees>38.11290876008570194244384765625</LatitudeDegrees>
              <LongitudeDegrees>-1.86504746787250041961669921875</LongitudeDegrees>
            </Position>
            <AltitudeMeters>664.5999755859375</AltitudeMeters>
            <DistanceMeters>NAN</DistanceMeters>
          </Trackpoint>
          <Trackpoint>
            <Time>2021-08-28T08:54:09.000Z</Time>
            <Position>
              <LatitudeDegrees>38.11296366155147552490234375</LatitudeDegrees>
              <LongitudeDegrees>-1.865112595260143280029296875</LongitudeDegrees>
            </Position>
            <AltitudeMeters>664.4000244140625</AltitudeMeters>
            <DistanceMeters>NAN</DistanceMeters>
          </Trackpoint>
          <Trackpoint>
            <Time>2021-08-28T08:54:11.000Z</Time>
            <Position>
              <LatitudeDegrees>38.11310171149671077728271484375</LatitudeDegrees>
              <LongitudeDegrees>-1.86535206623375415802001953125</LongitudeDegrees>
            </Position>
            <AltitudeMeters>664.20001220703125</AltitudeMeters>
            <DistanceMeters>NAN</DistanceMeters>
          </Trackpoint>
          <Trackpoint>
            <Time>2021-08-28T08:54:17.000Z</Time>
            <Position>
              <LatitudeDegrees>38.11337730847299098968505859375</LatitudeDegrees>
              <LongitudeDegrees>-1.86581625603139400482177734375</LongitudeDegrees>
            </Position>
            <AltitudeMeters>664.79998779296875</AltitudeMeters>
            <DistanceMeters>NAN</DistanceMeters>
          </Trackpoint>
          <Trackpoint>
            <Time>2021-08-28T08:54:21.000Z</Time>
            <Position>
              <LatitudeDegrees>38.1135552562773227691650390625</LatitudeDegrees>
              <LongitudeDegrees>-1.86599127016961574554443359375</LongitudeDegrees>
            </Position>
            <AltitudeMeters>665.20001220703125</AltitudeMeters>
            <DistanceMeters>NAN</DistanceMeters>
          </Trackpoint>
          <Trackpoint>
            <Time>2021-08-28T08:54:22.000Z</Time>
            <Position>
              <LatitudeDegrees>38.11368090100586414337158203125</LatitudeDegrees>
              <LongitudeDegrees>-1.86606955714523792266845703125</LongitudeDegrees>
            </Position>
            <AltitudeMeters>665.20001220703125</AltitudeMeters>
            <DistanceMeters>NAN</DistanceMeters>
          </Trackpoint>
          <Trackpoint>
            <Time>2021-08-28T08:54:28.000Z</Time>
            <Position>
              <LatitudeDegrees>38.11401751823723316192626953125</LatitudeDegrees>
              <LongitudeDegrees>-1.866280026733875274658203125</LongitudeDegrees>
            </Position>
            <AltitudeMeters>666.20001220703125</AltitudeMeters>
            <DistanceMeters>NAN</DistanceMeters>
          </Trackpoint>
          <Trackpoint>
            <Time>2021-08-28T08:54:31.000Z</Time>
            <Position>
              <LatitudeDegrees>38.114142157137393951416015625</LatitudeDegrees>
              <LongitudeDegrees>-1.86638924293220043182373046875</LongitudeDegrees>
            </Position>
            <AltitudeMeters>667.4000244140625</AltitudeMeters>
            <DistanceMeters>NAN</DistanceMeters>
          </Trackpoint>
          <Trackpoint>
            <Time>2021-08-28T08:54:33.000Z</Time>
            <Position>
              <LatitudeDegrees>38.1142100505530834197998046875</LatitudeDegrees>
              <LongitudeDegrees>-1.86647213995456695556640625</LongitudeDegrees>
            </Position>
            <AltitudeMeters>668.4000244140625</AltitudeMeters>
            <DistanceMeters>NAN</DistanceMeters>
          </Trackpoint>
          <Trackpoint>
            <Time>2021-08-28T08:54:34.000Z</Time>
            <Position>
              <LatitudeDegrees>38.11424165032804012298583984375</LatitudeDegrees>
              <LongitudeDegrees>-1.86651379801332950592041015625</LongitudeDegrees>
            </Position>
            <AltitudeMeters>668.5999755859375</AltitudeMeters>
            <DistanceMeters>NAN</DistanceMeters>
          </Trackpoint>
          <Trackpoint>
            <Time>2021-08-28T08:54:38.000Z</Time>
            <Position>
              <LatitudeDegrees>38.11436176300048828125</LatitudeDegrees>
              <LongitudeDegrees>-1.8666761554777622222900390625</LongitudeDegrees>
            </Position>
            <AltitudeMeters>669.79998779296875</AltitudeMeters>
            <DistanceMeters>NAN</DistanceMeters>
          </Trackpoint>
          <Trackpoint>
            <Time>2021-08-28T08:54:41.000Z</Time>
            <Position>
              <LatitudeDegrees>38.1144501082599163055419921875</LatitudeDegrees>
              <LongitudeDegrees>-1.86680297367274761199951171875</LongitudeDegrees>
            </Position>
            <AltitudeMeters>670.5999755859375</AltitudeMeters>
            <DistanceMeters>NAN</DistanceMeters>
          </Trackpoint>
          <Trackpoint>
            <Time>2021-08-28T08:54:43.000Z</Time>
            <Position>
              <LatitudeDegrees>38.11450283043086528778076171875</LatitudeDegrees>
              <LongitudeDegrees>-1.86689333058893680572509765625</LongitudeDegrees>
            </Position>
            <AltitudeMeters>671.20001220703125</AltitudeMeters>
            <DistanceMeters>NAN</DistanceMeters>
          </Trackpoint>
          <Trackpoint>
            <Time>2021-08-28T08:54:47.000Z</Time>
            <Position>
              <LatitudeDegrees>38.11458262614905834197998046875</LatitudeDegrees>
              <LongitudeDegrees>-1.86707337386906147003173828125</LongitudeDegrees>
            </Position>
            <AltitudeMeters>672.20001220703125</AltitudeMeters>
            <DistanceMeters>NAN</DistanceMeters>
          </Trackpoint>
          <Trackpoint>
            <Time>2021-08-28T08:54:48.000Z</Time>
            <Position>
              <LatitudeDegrees>38.11459838412702083587646484375</LatitudeDegrees>
              <LongitudeDegrees>-1.86712299473583698272705078125</LongitudeDegrees>
            </Position>
            <AltitudeMeters>672.5999755859375</AltitudeMeters>
            <DistanceMeters>NAN</DistanceMeters>
          </Trackpoint>
          <Trackpoint>
            <Time>2021-08-28T08:54:50.000Z</Time>
            <Position>
              <LatitudeDegrees>38.114627301692962646484375</LatitudeDegrees>
              <LongitudeDegrees>-1.86722491867840290069580078125</LongitudeDegrees>
            </Position>
            <AltitudeMeters>673.20001220703125</AltitudeMeters>
            <DistanceMeters>NAN</DistanceMeters>
          </Trackpoint>
          <Trackpoint>
            <Time>2021-08-28T08:54:51.000Z</Time>
            <Position>
              <LatitudeDegrees>38.114627301692962646484375</LatitudeDegrees>
              <LongitudeDegrees>-1.86722491867840290069580078125</LongitudeDegrees>
            </Position>
            <AltitudeMeters>673.4000244140625</AltitudeMeters>
            <DistanceMeters>NAN</DistanceMeters>
          </Trackpoint>
          <Trackpoint>
            <Time>2021-08-28T08:54:55.000Z</Time>
            <Position>
              <LatitudeDegrees>38.1146650202572345733642578125</LatitudeDegrees>
              <LongitudeDegrees>-1.86742306686937808990478515625</LongitudeDegrees>
            </Position>
            <AltitudeMeters>674</AltitudeMeters>
            <DistanceMeters>NAN</DistanceMeters>
          </Trackpoint>
          <Trackpoint>
            <Time>2021-08-28T08:54:56.000Z</Time>
            <Position>
              <LatitudeDegrees>38.11468991450965404510498046875</LatitudeDegrees>
              <LongitudeDegrees>-1.8675153516232967376708984375</LongitudeDegrees>
            </Position>
            <AltitudeMeters>674.4000244140625</AltitudeMeters>
            <DistanceMeters>NAN</DistanceMeters>
          </Trackpoint>
          <Trackpoint>
            <Time>2021-08-28T08:55:00.000Z</Time>
            <Position>
              <LatitudeDegrees>38.11478446237742900848388671875</LatitudeDegrees>
              <LongitudeDegrees>-1.867695562541484832763671875</LongitudeDegrees>
            </Position>
            <AltitudeMeters>675.4000244140625</AltitudeMeters>
            <DistanceMeters>NAN</DistanceMeters>
          </Trackpoint>
          <Trackpoint>
            <Time>2021-08-28T08:55:05.000Z</Time>
            <Position>
              <LatitudeDegrees>38.11493516899645328521728515625</LatitudeDegrees>
              <LongitudeDegrees>-1.86789412982761859893798828125</LongitudeDegrees>
            </Position>
            <AltitudeMeters>676.5999755859375</AltitudeMeters>
            <DistanceMeters>NAN</DistanceMeters>
          </Trackpoint>
          <Trackpoint>
            <Time>2021-08-28T08:55:07.000Z</Time>
            <Position>
              <LatitudeDegrees>38.11499937437474727630615234375</LatitudeDegrees>
              <LongitudeDegrees>-1.8679659627377986907958984375</LongitudeDegrees>
            </Position>
            <AltitudeMeters>677</AltitudeMeters>
            <DistanceMeters>NAN</DistanceMeters>
          </Trackpoint>
          <Trackpoint>
            <Time>2021-08-28T08:55:08.000Z</Time>
            <Position>
              <LatitudeDegrees>38.1150381825864315032958984375</LatitudeDegrees>
              <LongitudeDegrees>-1.868003346025943756103515625</LongitudeDegrees>
            </Position>
            <AltitudeMeters>677.20001220703125</AltitudeMeters>
            <DistanceMeters>NAN</DistanceMeters>
          </Trackpoint>
          <Trackpoint>
            <Time>2021-08-28T08:55:10.000Z</Time>
            <Position>
              <LatitudeDegrees>38.11510833911597728729248046875</LatitudeDegrees>
              <LongitudeDegrees>-1.86807970516383647918701171875</LongitudeDegrees>
            </Position>
            <AltitudeMeters>677.79998779296875</AltitudeMeters>
            <DistanceMeters>NAN</DistanceMeters>
          </Trackpoint>
          <Trackpoint>
            <Time>2021-08-28T08:55:14.000Z</Time>
            <Position>
              <LatitudeDegrees>38.115225769579410552978515625</LatitudeDegrees>
              <LongitudeDegrees>-1.8682781048119068145751953125</LongitudeDegrees>
            </Position>
            <AltitudeMeters>679</AltitudeMeters>
            <DistanceMeters>NAN</DistanceMeters>
          </Trackpoint>
          <Trackpoint>
            <Time>2021-08-28T08:55:17.000Z</Time>
            <Position>
              <LatitudeDegrees>38.1152802519500255584716796875</LatitudeDegrees>
              <LongitudeDegrees>-1.86844482086598873138427734375</LongitudeDegrees>
            </Position>
            <AltitudeMeters>680.20001220703125</AltitudeMeters>
            <DistanceMeters>NAN</DistanceMeters>
          </Trackpoint>
          <Trackpoint>
            <Time>2021-08-28T08:55:20.000Z</Time>
            <Position>
              <LatitudeDegrees>38.1153419427573680877685546875</LatitudeDegrees>
              <LongitudeDegrees>-1.86860893853008747100830078125</LongitudeDegrees>
            </Position>
            <AltitudeMeters>681</AltitudeMeters>
            <DistanceMeters>NAN</DistanceMeters>
          </Trackpoint>
          <Trackpoint>
            <Time>2021-08-28T08:55:21.000Z</Time>
            <Position>
              <LatitudeDegrees>38.1153590418398380279541015625</LatitudeDegrees>
              <LongitudeDegrees>-1.8686643429100513458251953125</LongitudeDegrees>
            </Position>
            <AltitudeMeters>681.20001220703125</AltitudeMeters>
            <DistanceMeters>NAN</DistanceMeters>
          </Trackpoint>
          <Trackpoint>
            <Time>2021-08-28T08:55:25.000Z</Time>
            <Position>
              <LatitudeDegrees>38.11543129384517669677734375</LatitudeDegrees>
              <LongitudeDegrees>-1.868871040642261505126953125</LongitudeDegrees>
            </Position>
            <AltitudeMeters>682.20001220703125</AltitudeMeters>
            <DistanceMeters>NAN</DistanceMeters>
          </Trackpoint>
          <Trackpoint>
            <Time>2021-08-28T08:55:27.000Z</Time>
            <Position>
              <LatitudeDegrees>38.1154592894017696380615234375</LatitudeDegrees>
              <LongitudeDegrees>-1.86897422187030315399169921875</LongitudeDegrees>
            </Position>
            <AltitudeMeters>682.5999755859375</AltitudeMeters>
            <DistanceMeters>NAN</DistanceMeters>
          </Trackpoint>
          <Trackpoint>
            <Time>2021-08-28T08:55:31.000Z</Time>
            <Position>
              <LatitudeDegrees>38.11553598381578922271728515625</LatitudeDegrees>
              <LongitudeDegrees>-1.8691776506602764129638671875</LongitudeDegrees>
            </Position>
            <AltitudeMeters>683.5999755859375</AltitudeMeters>
            <DistanceMeters>NAN</DistanceMeters>
          </Trackpoint>
          <Trackpoint>
            <Time>2021-08-28T08:55:32.000Z</Time>
            <Position>
              <LatitudeDegrees>38.1155528314411640167236328125</LatitudeDegrees>
              <LongitudeDegrees>-1.86923540197312831878662109375</LongitudeDegrees>
            </Position>
            <AltitudeMeters>683.79998779296875</AltitudeMeters>
            <DistanceMeters>NAN</DistanceMeters>
          </Trackpoint>
          <Trackpoint>
            <Time>2021-08-28T08:55:33.000Z</Time>
            <Position>
              <LatitudeDegrees>38.11558074317872524261474609375</LatitudeDegrees>
              <LongitudeDegrees>-1.8692892976105213165283203125</LongitudeDegrees>
            </Position>
            <AltitudeMeters>683.79998779296875</AltitudeMeters>
            <DistanceMeters>NAN</DistanceMeters>
          </Trackpoint>
          <Trackpoint>
            <Time>2021-08-28T08:55:36.000Z</Time>
            <Position>
              <LatitudeDegrees>38.115705884993076324462890625</LatitudeDegrees>
              <LongitudeDegrees>-1.869464814662933349609375</LongitudeDegrees>
            </Position>
            <AltitudeMeters>684.20001220703125</AltitudeMeters>
            <DistanceMeters>NAN</DistanceMeters>
          </Trackpoint>
          <Trackpoint>
            <Time>2021-08-28T08:55:38.000Z</Time>
            <Position>
              <LatitudeDegrees>38.1158168613910675048828125</LatitudeDegrees>
              <LongitudeDegrees>-1.86957134865224361419677734375</LongitudeDegrees>
            </Position>
            <AltitudeMeters>684.20001220703125</AltitudeMeters>
            <DistanceMeters>NAN</DistanceMeters>
          </Trackpoint>
          <Trackpoint>
            <Time>2021-08-28T08:55:40.000Z</Time>
            <Position>
              <LatitudeDegrees>38.1159467808902263641357421875</LatitudeDegrees>
              <LongitudeDegrees>-1.86963689513504505157470703125</LongitudeDegrees>
            </Position>
            <AltitudeMeters>684.4000244140625</AltitudeMeters>
            <DistanceMeters>NAN</DistanceMeters>
          </Trackpoint>
          <Trackpoint>
            <Time>2021-08-28T08:55:41.000Z</Time>
            <Position>
              <LatitudeDegrees>38.116019703447818756103515625</LatitudeDegrees>
              <LongitudeDegrees>-1.8696485459804534912109375</LongitudeDegrees>
            </Position>
            <AltitudeMeters>684.5999755859375</AltitudeMeters>
            <DistanceMeters>NAN</DistanceMeters>
          </Trackpoint>
          <Trackpoint>
            <Time>2021-08-28T08:55:42.000Z</Time>
            <Position>
              <LatitudeDegrees>38.11609254218637943267822265625</LatitudeDegrees>
              <LongitudeDegrees>-1.8696436844766139984130859375</LongitudeDegrees>
            </Position>
            <AltitudeMeters>684.5999755859375</AltitudeMeters>
            <DistanceMeters>NAN</DistanceMeters>
          </Trackpoint>
          <Trackpoint>
            <Time>2021-08-28T08:55:44.000Z</Time>
            <Position>
              <LatitudeDegrees>38.11622120440006256103515625</LatitudeDegrees>
              <LongitudeDegrees>-1.869566738605499267578125</LongitudeDegrees>
            </Position>
            <AltitudeMeters>684.4000244140625</AltitudeMeters>
            <DistanceMeters>NAN</DistanceMeters>
          </Trackpoint>
          <Trackpoint>
            <Time>2021-08-28T08:55:49.000Z</Time>
            <Position>
              <LatitudeDegrees>38.11644382774829864501953125</LatitudeDegrees>
              <LongitudeDegrees>-1.869255602359771728515625</LongitudeDegrees>
            </Position>
            <AltitudeMeters>684.20001220703125</AltitudeMeters>
            <DistanceMeters>NAN</DistanceMeters>
          </Trackpoint>
          <Trackpoint>
            <Time>2021-08-28T08:55:51.000Z</Time>
            <Position>
              <LatitudeDegrees>38.11649210751056671142578125</LatitudeDegrees>
              <LongitudeDegrees>-1.86911134980618953704833984375</LongitudeDegrees>
            </Position>
            <AltitudeMeters>684.5999755859375</AltitudeMeters>
            <DistanceMeters>NAN</DistanceMeters>
          </Trackpoint>
          <Trackpoint>
            <Time>2021-08-28T08:55:53.000Z</Time>
            <Position>
              <LatitudeDegrees>38.11649638228118419647216796875</LatitudeDegrees>
              <LongitudeDegrees>-1.8689644150435924530029296875</LongitudeDegrees>
            </Position>
            <AltitudeMeters>684.79998779296875</AltitudeMeters>
            <DistanceMeters>NAN</DistanceMeters>
          </Trackpoint>
          <Trackpoint>
            <Time>2021-08-28T08:55:55.000Z</Time>
            <Position>
              <LatitudeDegrees>38.11645648442208766937255859375</LatitudeDegrees>
              <LongitudeDegrees>-1.868828795850276947021484375</LongitudeDegrees>
            </Position>
            <AltitudeMeters>685.4000244140625</AltitudeMeters>
            <DistanceMeters>NAN</DistanceMeters>
          </Trackpoint>
          <Trackpoint>
            <Time>2021-08-28T08:55:56.000Z</Time>
            <Position>
              <LatitudeDegrees>38.116428069770336151123046875</LatitudeDegrees>
              <LongitudeDegrees>-1.86877087689936161041259765625</LongitudeDegrees>
            </Position>
            <AltitudeMeters>686</AltitudeMeters>
            <DistanceMeters>NAN</DistanceMeters>
          </Trackpoint>
          <Trackpoint>
            <Time>2021-08-28T08:55:57.000Z</Time>
            <Position>
              <LatitudeDegrees>38.11639848165214061737060546875</LatitudeDegrees>
              <LongitudeDegrees>-1.86871874146163463592529296875</LongitudeDegrees>
            </Position>
            <AltitudeMeters>686.5999755859375</AltitudeMeters>
            <DistanceMeters>NAN</DistanceMeters>
          </Trackpoint>
          <Trackpoint>
            <Time>2021-08-28T08:55:58.000Z</Time>
            <Position>
              <LatitudeDegrees>38.1163688935339450836181640625</LatitudeDegrees>
              <LongitudeDegrees>-1.86866995878517627716064453125</LongitudeDegrees>
            </Position>
            <AltitudeMeters>687</AltitudeMeters>
            <DistanceMeters>NAN</DistanceMeters>
          </Trackpoint>
          <Trackpoint>
            <Time>2021-08-28T08:56:03.000Z</Time>
            <Position>
              <LatitudeDegrees>38.1162378005683422088623046875</LatitudeDegrees>
              <LongitudeDegrees>-1.8684316612780094146728515625</LongitudeDegrees>
            </Position>
            <AltitudeMeters>688.20001220703125</AltitudeMeters>
            <DistanceMeters>NAN</DistanceMeters>
          </Trackpoint>
          <Trackpoint>
            <Time>2021-08-28T08:56:06.000Z</Time>
            <Position>
              <LatitudeDegrees>38.116157837212085723876953125</LatitudeDegrees>
              <LongitudeDegrees>-1.86829746700823307037353515625</LongitudeDegrees>
            </Position>
            <AltitudeMeters>688.79998779296875</AltitudeMeters>
            <DistanceMeters>NAN</DistanceMeters>
          </Trackpoint>
          <Trackpoint>
            <Time>2021-08-28T08:56:08.000Z</Time>
            <Position>
              <LatitudeDegrees>38.11610880307853221893310546875</LatitudeDegrees>
              <LongitudeDegrees>-1.8682030029594898223876953125</LongitudeDegrees>
            </Position>
            <AltitudeMeters>689.20001220703125</AltitudeMeters>
            <DistanceMeters>NAN</DistanceMeters>
          </Trackpoint>
          <Trackpoint>
            <Time>2021-08-28T08:56:10.000Z</Time>
            <Position>
              <LatitudeDegrees>38.1160674802958965301513671875</LatitudeDegrees>
              <LongitudeDegrees>-1.8681067787110805511474609375</LongitudeDegrees>
            </Position>
            <AltitudeMeters>690</AltitudeMeters>
            <DistanceMeters>NAN</DistanceMeters>
          </Trackpoint>
          <Trackpoint>
            <Time>2021-08-28T08:56:11.000Z</Time>
            <Position>
              <LatitudeDegrees>38.116045184433460235595703125</LatitudeDegrees>
              <LongitudeDegrees>-1.8680584989488124847412109375</LongitudeDegrees>
            </Position>
            <AltitudeMeters>690.4000244140625</AltitudeMeters>
            <DistanceMeters>NAN</DistanceMeters>
          </Trackpoint>
          <Trackpoint>
            <Time>2021-08-28T08:56:12.000Z</Time>
            <Position>
              <LatitudeDegrees>38.116023726761341094970703125</LatitudeDegrees>
              <LongitudeDegrees>-1.86801047064363956451416015625</LongitudeDegrees>
            </Position>
            <AltitudeMeters>690.79998779296875</AltitudeMeters>
            <DistanceMeters>NAN</DistanceMeters>
          </Trackpoint>
          <Trackpoint>
            <Time>2021-08-28T08:56:15.000Z</Time>
            <Position>
              <LatitudeDegrees>38.1159642152488231658935546875</LatitudeDegrees>
              <LongitudeDegrees>-1.8678455986082553863525390625</LongitudeDegrees>
            </Position>
            <AltitudeMeters>691.5999755859375</AltitudeMeters>
            <DistanceMeters>NAN</DistanceMeters>
          </Trackpoint>
          <Trackpoint>
            <Time>2021-08-28T08:56:18.000Z</Time>
            <Position>
              <LatitudeDegrees>38.11592624522745609283447265625</LatitudeDegrees>
              <LongitudeDegrees>-1.86768055893480777740478515625</LongitudeDegrees>
            </Position>
            <AltitudeMeters>692.20001220703125</AltitudeMeters>
            <DistanceMeters>NAN</DistanceMeters>
          </Trackpoint>
          <Trackpoint>
            <Time>2021-08-28T08:56:23.000Z</Time>
            <Position>
              <LatitudeDegrees>38.1158931367099285125732421875</LatitudeDegrees>
              <LongitudeDegrees>-1.8674147687852382659912109375</LongitudeDegrees>
            </Position>
            <AltitudeMeters>692.79998779296875</AltitudeMeters>
            <DistanceMeters>NAN</DistanceMeters>
          </Trackpoint>
          <Trackpoint>
            <Time>2021-08-28T08:56:27.000Z</Time>
            <Position>
              <LatitudeDegrees>38.11586371622979640960693359375</LatitudeDegrees>
              <LongitudeDegrees>-1.86718854121863842010498046875</LongitudeDegrees>
            </Position>
            <AltitudeMeters>694</AltitudeMeters>
            <DistanceMeters>NAN</DistanceMeters>
          </Trackpoint>
          <Trackpoint>
            <Time>2021-08-28T08:56:31.000Z</Time>
            <Position>
              <LatitudeDegrees>38.1158451922237873077392578125</LatitudeDegrees>
              <LongitudeDegrees>-1.86696491204202175140380859375</LongitudeDegrees>
            </Position>
            <AltitudeMeters>695</AltitudeMeters>
            <DistanceMeters>NAN</DistanceMeters>
          </Trackpoint>
          <Trackpoint>
            <Time>2021-08-28T08:56:37.000Z</Time>
            <Position>
              <LatitudeDegrees>38.11581577174365520477294921875</LatitudeDegrees>
              <LongitudeDegrees>-1.86661563813686370849609375</LongitudeDegrees>
            </Position>
            <AltitudeMeters>696.20001220703125</AltitudeMeters>
            <DistanceMeters>NAN</DistanceMeters>
          </Trackpoint>
          <Trackpoint>
            <Time>2021-08-28T08:56:42.000Z</Time>
            <Position>
              <LatitudeDegrees>38.11580135487020015716552734375</LatitudeDegrees>
              <LongitudeDegrees>-1.8663199245929718017578125</LongitudeDegrees>
            </Position>
            <AltitudeMeters>697.20001220703125</AltitudeMeters>
            <DistanceMeters>NAN</DistanceMeters>
          </Trackpoint>
          <Trackpoint>
            <Time>2021-08-28T08:56:45.000Z</Time>
            <Position>
              <LatitudeDegrees>38.11580286361277103424072265625</LatitudeDegrees>
              <LongitudeDegrees>-1.86615488491952419281005859375</LongitudeDegrees>
            </Position>
            <AltitudeMeters>697.79998779296875</AltitudeMeters>
            <DistanceMeters>NAN</DistanceMeters>
          </Trackpoint>
          <Trackpoint>
            <Time>2021-08-28T08:56:47.000Z</Time>
            <Position>
              <LatitudeDegrees>38.1158114969730377197265625</LatitudeDegrees>
              <LongitudeDegrees>-1.8660444952547550201416015625</LongitudeDegrees>
            </Position>
            <AltitudeMeters>698.4000244140625</AltitudeMeters>
            <DistanceMeters>NAN</DistanceMeters>
          </Trackpoint>
          <Trackpoint>
            <Time>2021-08-28T08:56:52.000Z</Time>
            <Position>
              <LatitudeDegrees>38.11582566238939762115478515625</LatitudeDegrees>
              <LongitudeDegrees>-1.86577250249683856964111328125</LongitudeDegrees>
            </Position>
            <AltitudeMeters>698.79998779296875</AltitudeMeters>
            <DistanceMeters>NAN</DistanceMeters>
          </Trackpoint>
          <Trackpoint>
            <Time>2021-08-28T08:56:55.000Z</Time>
            <Position>
              <LatitudeDegrees>38.115839324891567230224609375</LatitudeDegrees>
              <LongitudeDegrees>-1.8655999191105365753173828125</LongitudeDegrees>
            </Position>
            <AltitudeMeters>699.5999755859375</AltitudeMeters>
            <DistanceMeters>NAN</DistanceMeters>
          </Trackpoint>
          <Trackpoint>
            <Time>2021-08-28T08:56:58.000Z</Time>
            <Position>
              <LatitudeDegrees>38.11584125272929668426513671875</LatitudeDegrees>
              <LongitudeDegrees>-1.8654178641736507415771484375</LongitudeDegrees>
            </Position>
            <AltitudeMeters>700.5999755859375</AltitudeMeters>
            <DistanceMeters>NAN</DistanceMeters>
          </Trackpoint>
          <Trackpoint>
            <Time>2021-08-28T08:56:59.000Z</Time>
            <Position>
              <LatitudeDegrees>38.11583974398672580718994140625</LatitudeDegrees>
              <LongitudeDegrees>-1.8653583526611328125</LongitudeDegrees>
            </Position>
            <AltitudeMeters>700.79998779296875</AltitudeMeters>
            <DistanceMeters>NAN</DistanceMeters>
          </Trackpoint>
          <Trackpoint>
            <Time>2021-08-28T08:57:00.000Z</Time>
            <Position>
              <LatitudeDegrees>38.11583974398672580718994140625</LatitudeDegrees>
              <LongitudeDegrees>-1.8653583526611328125</LongitudeDegrees>
            </Position>
            <AltitudeMeters>701</AltitudeMeters>
            <DistanceMeters>NAN</DistanceMeters>
          </Trackpoint>
          <Trackpoint>
            <Time>2021-08-28T08:57:04.000Z</Time>
            <Position>
              <LatitudeDegrees>38.11584879644215106964111328125</LatitudeDegrees>
              <LongitudeDegrees>-1.86507294885814189910888671875</LongitudeDegrees>
            </Position>
            <AltitudeMeters>701.79998779296875</AltitudeMeters>
            <DistanceMeters>NAN</DistanceMeters>
          </Trackpoint>
          <Trackpoint>
            <Time>2021-08-28T08:57:07.000Z</Time>
            <Position>
              <LatitudeDegrees>38.11586472205817699432373046875</LatitudeDegrees>
              <LongitudeDegrees>-1.8649219907820224761962890625</LongitudeDegrees>
            </Position>
            <AltitudeMeters>702.5999755859375</AltitudeMeters>
            <DistanceMeters>NAN</DistanceMeters>
          </Trackpoint>
          <Trackpoint>
            <Time>2021-08-28T08:57:09.000Z</Time>
            <Position>
              <LatitudeDegrees>38.11587863601744174957275390625</LatitudeDegrees>
              <LongitudeDegrees>-1.86482031829655170440673828125</LongitudeDegrees>
            </Position>
            <AltitudeMeters>703.4000244140625</AltitudeMeters>
            <DistanceMeters>NAN</DistanceMeters>
          </Trackpoint>
          <Trackpoint>
            <Time>2021-08-28T08:57:13.000Z</Time>
            <Position>
              <LatitudeDegrees>38.11590746976435184478759765625</LatitudeDegrees>
              <LongitudeDegrees>-1.864664666354656219482421875</LongitudeDegrees>
            </Position>
            <AltitudeMeters>704.4000244140625</AltitudeMeters>
            <DistanceMeters>NAN</DistanceMeters>
          </Trackpoint>
          <Trackpoint>
            <Time>2021-08-28T08:57:15.000Z</Time>
            <Position>
              <LatitudeDegrees>38.1159367226064205169677734375</LatitudeDegrees>
              <LongitudeDegrees>-1.86456617899239063262939453125</LongitudeDegrees>
            </Position>
            <AltitudeMeters>705.20001220703125</AltitudeMeters>
            <DistanceMeters>NAN</DistanceMeters>
          </Trackpoint>
          <Trackpoint>
            <Time>2021-08-28T08:57:16.000Z</Time>
            <Position>
              <LatitudeDegrees>38.11595709063112735748291015625</LatitudeDegrees>
              <LongitudeDegrees>-1.8645199947059154510498046875</LongitudeDegrees>
            </Position>
            <AltitudeMeters>705.4000244140625</AltitudeMeters>
            <DistanceMeters>NAN</DistanceMeters>
          </Trackpoint>
          <Trackpoint>
            <Time>2021-08-28T08:57:17.000Z</Time>
            <Position>
              <LatitudeDegrees>38.115982152521610260009765625</LatitudeDegrees>
              <LongitudeDegrees>-1.86447766609489917755126953125</LongitudeDegrees>
            </Position>
            <AltitudeMeters>705.5999755859375</AltitudeMeters>
            <DistanceMeters>NAN</DistanceMeters>
          </Trackpoint>
          <Trackpoint>
            <Time>2021-08-28T08:57:20.000Z</Time>
            <Position>
              <LatitudeDegrees>38.11606228351593017578125</LatitudeDegrees>
              <LongitudeDegrees>-1.8643506802618503570556640625</LongitudeDegrees>
            </Position>
            <AltitudeMeters>706.79998779296875</AltitudeMeters>
            <DistanceMeters>NAN</DistanceMeters>
          </Trackpoint>
          <Trackpoint>
            <Time>2021-08-28T08:57:21.000Z</Time>
            <Position>
              <LatitudeDegrees>38.1160956434905529022216796875</LatitudeDegrees>
              <LongitudeDegrees>-1.86431690119206905364990234375</LongitudeDegrees>
            </Position>
            <AltitudeMeters>707</AltitudeMeters>
            <DistanceMeters>NAN</DistanceMeters>
          </Trackpoint>
          <Trackpoint>
            <Time>2021-08-28T08:57:23.000Z</Time>
            <Position>
              <LatitudeDegrees>38.11617024242877960205078125</LatitudeDegrees>
              <LongitudeDegrees>-1.86425755731761455535888671875</LongitudeDegrees>
            </Position>
            <AltitudeMeters>707.4000244140625</AltitudeMeters>
            <DistanceMeters>NAN</DistanceMeters>
          </Trackpoint>
          <Trackpoint>
            <Time>2021-08-28T08:57:25.000Z</Time>
            <Position>
              <LatitudeDegrees>38.116253055632114410400390625</LatitudeDegrees>
              <LongitudeDegrees>-1.86421363614499568939208984375</LongitudeDegrees>
            </Position>
            <AltitudeMeters>707.4000244140625</AltitudeMeters>
            <DistanceMeters>NAN</DistanceMeters>
          </Trackpoint>
          <Trackpoint>
            <Time>2021-08-28T08:57:27.000Z</Time>
            <Position>
              <LatitudeDegrees>38.11633645556867122650146484375</LatitudeDegrees>
              <LongitudeDegrees>-1.86418748460710048675537109375</LongitudeDegrees>
            </Position>
            <AltitudeMeters>707.5999755859375</AltitudeMeters>
            <DistanceMeters>NAN</DistanceMeters>
          </Trackpoint>
          <Trackpoint>
            <Time>2021-08-28T08:57:28.000Z</Time>
            <Position>
              <LatitudeDegrees>38.11637920327484607696533203125</LatitudeDegrees>
              <LongitudeDegrees>-1.864179857075214385986328125</LongitudeDegrees>
            </Position>
            <AltitudeMeters>708</AltitudeMeters>
            <DistanceMeters>NAN</DistanceMeters>
          </Trackpoint>
          <Trackpoint>
            <Time>2021-08-28T08:57:32.000Z</Time>
            <Position>
              <LatitudeDegrees>38.11655840836465358734130859375</LatitudeDegrees>
              <LongitudeDegrees>-1.8642018176615238189697265625</LongitudeDegrees>
            </Position>
            <AltitudeMeters>709.4000244140625</AltitudeMeters>
            <DistanceMeters>NAN</DistanceMeters>
          </Trackpoint>
          <Trackpoint>
            <Time>2021-08-28T08:57:36.000Z</Time>
            <Position>
              <LatitudeDegrees>38.116772733628749847412109375</LatitudeDegrees>
              <LongitudeDegrees>-1.86426996253430843353271484375</LongitudeDegrees>
            </Position>
            <AltitudeMeters>710.5999755859375</AltitudeMeters>
            <DistanceMeters>NAN</DistanceMeters>
          </Trackpoint>
          <Trackpoint>
            <Time>2021-08-28T08:57:40.000Z</Time>
            <Position>
              <LatitudeDegrees>38.1169391982257366180419921875</LatitudeDegrees>
              <LongitudeDegrees>-1.86434858478605747222900390625</LongitudeDegrees>
            </Position>
            <AltitudeMeters>711.5999755859375</AltitudeMeters>
            <DistanceMeters>NAN</DistanceMeters>
          </Trackpoint>
          <Trackpoint>
            <Time>2021-08-28T08:57:41.000Z</Time>
            <Position>
              <LatitudeDegrees>38.11697951517999172210693359375</LatitudeDegrees>
              <LongitudeDegrees>-1.86437624506652355194091796875</LongitudeDegrees>
            </Position>
            <AltitudeMeters>711.79998779296875</AltitudeMeters>
            <DistanceMeters>NAN</DistanceMeters>
          </Trackpoint>
          <Trackpoint>
            <Time>2021-08-28T08:57:45.000Z</Time>
            <Position>
              <LatitudeDegrees>38.1171179004013538360595703125</LatitudeDegrees>
              <LongitudeDegrees>-1.86452410183846950531005859375</LongitudeDegrees>
            </Position>
            <AltitudeMeters>712.79998779296875</AltitudeMeters>
            <DistanceMeters>NAN</DistanceMeters>
          </Trackpoint>
          <Trackpoint>
            <Time>2021-08-28T08:57:49.000Z</Time>
            <Position>
              <LatitudeDegrees>38.11723734252154827117919921875</LatitudeDegrees>
              <LongitudeDegrees>-1.8647094257175922393798828125</LongitudeDegrees>
            </Position>
            <AltitudeMeters>713.79998779296875</AltitudeMeters>
            <DistanceMeters>NAN</DistanceMeters>
          </Trackpoint>
          <Trackpoint>
            <Time>2021-08-28T08:57:52.000Z</Time>
            <Position>
              <LatitudeDegrees>38.1173162162303924560546875</LatitudeDegrees>
              <LongitudeDegrees>-1.86486147344112396240234375</LongitudeDegrees>
            </Position>
            <AltitudeMeters>714.5999755859375</AltitudeMeters>
            <DistanceMeters>NAN</DistanceMeters>
          </Trackpoint>
          <Trackpoint>
            <Time>2021-08-28T08:57:53.000Z</Time>
            <Position>
              <LatitudeDegrees>38.1173442117869853973388671875</LatitudeDegrees>
              <LongitudeDegrees>-1.8649122677743434906005859375</LongitudeDegrees>
            </Position>
            <AltitudeMeters>715</AltitudeMeters>
            <DistanceMeters>NAN</DistanceMeters>
          </Trackpoint>
          <Trackpoint>
            <Time>2021-08-28T08:57:58.000Z</Time>
            <Position>
              <LatitudeDegrees>38.11748025007545948028564453125</LatitudeDegrees>
              <LongitudeDegrees>-1.86516263522207736968994140625</LongitudeDegrees>
            </Position>
            <AltitudeMeters>716.4000244140625</AltitudeMeters>
            <DistanceMeters>NAN</DistanceMeters>
          </Trackpoint>
          <Trackpoint>
            <Time>2021-08-28T08:58:02.000Z</Time>
            <Position>
              <LatitudeDegrees>38.11758183874189853668212890625</LatitudeDegrees>
              <LongitudeDegrees>-1.86534737236797809600830078125</LongitudeDegrees>
            </Position>
            <AltitudeMeters>717.5999755859375</AltitudeMeters>
            <DistanceMeters>NAN</DistanceMeters>
          </Trackpoint>
          <Trackpoint>
            <Time>2021-08-28T08:58:04.000Z</Time>
            <Position>
              <LatitudeDegrees>38.1176288612186908721923828125</LatitudeDegrees>
              <LongitudeDegrees>-1.8654336221516132354736328125</LongitudeDegrees>
            </Position>
            <AltitudeMeters>718.5999755859375</AltitudeMeters>
            <DistanceMeters>NAN</DistanceMeters>
          </Trackpoint>
          <Trackpoint>
            <Time>2021-08-28T08:58:06.000Z</Time>
            <Position>
              <LatitudeDegrees>38.11767403967678546905517578125</LatitudeDegrees>
              <LongitudeDegrees>-1.86552138067781925201416015625</LongitudeDegrees>
            </Position>
            <AltitudeMeters>719.20001220703125</AltitudeMeters>
            <DistanceMeters>NAN</DistanceMeters>
          </Trackpoint>
          <Trackpoint>
            <Time>2021-08-28T08:58:09.000Z</Time>
            <Position>
              <LatitudeDegrees>38.1177441962063312530517578125</LatitudeDegrees>
              <LongitudeDegrees>-1.86565314419567584991455078125</LongitudeDegrees>
            </Position>
            <AltitudeMeters>719.5999755859375</AltitudeMeters>
            <DistanceMeters>NAN</DistanceMeters>
          </Trackpoint>
          <Trackpoint>
            <Time>2021-08-28T08:58:13.000Z</Time>
            <Position>
              <LatitudeDegrees>38.1178486347198486328125</LatitudeDegrees>
              <LongitudeDegrees>-1.86581474728882312774658203125</LongitudeDegrees>
            </Position>
            <AltitudeMeters>720.5999755859375</AltitudeMeters>
            <DistanceMeters>NAN</DistanceMeters>
          </Trackpoint>
          <Trackpoint>
            <Time>2021-08-28T08:58:15.000Z</Time>
            <Position>
              <LatitudeDegrees>38.11789758503437042236328125</LatitudeDegrees>
              <LongitudeDegrees>-1.86589823104441165924072265625</LongitudeDegrees>
            </Position>
            <AltitudeMeters>721.5999755859375</AltitudeMeters>
            <DistanceMeters>NAN</DistanceMeters>
          </Trackpoint>
          <Trackpoint>
            <Time>2021-08-28T08:58:16.000Z</Time>
            <Position>
              <LatitudeDegrees>38.11792566440999507904052734375</LatitudeDegrees>
              <LongitudeDegrees>-1.8659388832747936248779296875</LongitudeDegrees>
            </Position>
            <AltitudeMeters>721.79998779296875</AltitudeMeters>
            <DistanceMeters>NAN</DistanceMeters>
          </Trackpoint>
          <Trackpoint>
            <Time>2021-08-28T08:58:21.000Z</Time>
            <Position>
              <LatitudeDegrees>38.11805172823369503021240234375</LatitudeDegrees>
              <LongitudeDegrees>-1.86613577418029308319091796875</LongitudeDegrees>
            </Position>
            <AltitudeMeters>722.5999755859375</AltitudeMeters>
            <DistanceMeters>NAN</DistanceMeters>
          </Trackpoint>
          <Trackpoint>
            <Time>2021-08-28T08:58:23.000Z</Time>
            <Position>
              <LatitudeDegrees>38.11809732578694820404052734375</LatitudeDegrees>
              <LongitudeDegrees>-1.866201572120189666748046875</LongitudeDegrees>
            </Position>
            <AltitudeMeters>723</AltitudeMeters>
            <DistanceMeters>NAN</DistanceMeters>
          </Trackpoint>
          <Trackpoint>
            <Time>2021-08-28T08:58:27.000Z</Time>
            <Position>
              <LatitudeDegrees>38.11820092611014842987060546875</LatitudeDegrees>
              <LongitudeDegrees>-1.86635546386241912841796875</LongitudeDegrees>
            </Position>
            <AltitudeMeters>724.20001220703125</AltitudeMeters>
            <DistanceMeters>NAN</DistanceMeters>
          </Trackpoint>
          <Trackpoint>
            <Time>2021-08-28T08:58:28.000Z</Time>
            <Position>
              <LatitudeDegrees>38.11822841875255107879638671875</LatitudeDegrees>
              <LongitudeDegrees>-1.8663990497589111328125</LongitudeDegrees>
            </Position>
            <AltitudeMeters>724.4000244140625</AltitudeMeters>
            <DistanceMeters>NAN</DistanceMeters>
          </Trackpoint>
          <Trackpoint>
            <Time>2021-08-28T08:58:31.000Z</Time>
            <Position>
              <LatitudeDegrees>38.11830854974687099456787109375</LatitudeDegrees>
              <LongitudeDegrees>-1.86651597730815410614013671875</LongitudeDegrees>
            </Position>
            <AltitudeMeters>725.4000244140625</AltitudeMeters>
            <DistanceMeters>NAN</DistanceMeters>
          </Trackpoint>
          <Trackpoint>
            <Time>2021-08-28T08:58:35.000Z</Time>
            <Position>
              <LatitudeDegrees>38.11840544454753398895263671875</LatitudeDegrees>
              <LongitudeDegrees>-1.866667270660400390625</LongitudeDegrees>
            </Position>
            <AltitudeMeters>726.20001220703125</AltitudeMeters>
            <DistanceMeters>NAN</DistanceMeters>
          </Trackpoint>
          <Trackpoint>
            <Time>2021-08-28T08:58:36.000Z</Time>
            <Position>
              <LatitudeDegrees>38.118429668247699737548828125</LatitudeDegrees>
              <LongitudeDegrees>-1.8667043186724185943603515625</LongitudeDegrees>
            </Position>
            <AltitudeMeters>726.4000244140625</AltitudeMeters>
            <DistanceMeters>NAN</DistanceMeters>
          </Trackpoint>
          <Trackpoint>
            <Time>2021-08-28T08:58:40.000Z</Time>
            <Position>
              <LatitudeDegrees>38.11852547340095043182373046875</LatitudeDegrees>
              <LongitudeDegrees>-1.866847984492778778076171875</LongitudeDegrees>
            </Position>
            <AltitudeMeters>727.5999755859375</AltitudeMeters>
            <DistanceMeters>NAN</DistanceMeters>
          </Trackpoint>
          <Trackpoint>
            <Time>2021-08-28T08:58:43.000Z</Time>
            <Position>
              <LatitudeDegrees>38.11858381144702434539794921875</LatitudeDegrees>
              <LongitudeDegrees>-1.86691294424235820770263671875</LongitudeDegrees>
            </Position>
            <AltitudeMeters>728.4000244140625</AltitudeMeters>
            <DistanceMeters>NAN</DistanceMeters>
          </Trackpoint>
          <Trackpoint>
            <Time>2021-08-28T08:58:45.000Z</Time>
            <Position>
              <LatitudeDegrees>38.1186786107718944549560546875</LatitudeDegrees>
              <LongitudeDegrees>-1.86699005775153636932373046875</LongitudeDegrees>
            </Position>
            <AltitudeMeters>728.5999755859375</AltitudeMeters>
            <DistanceMeters>NAN</DistanceMeters>
          </Trackpoint>
          <Trackpoint>
            <Time>2021-08-28T08:58:50.000Z</Time>
            <Position>
              <LatitudeDegrees>38.11886024661362171173095703125</LatitudeDegrees>
              <LongitudeDegrees>-1.86708762310445308685302734375</LongitudeDegrees>
            </Position>
            <AltitudeMeters>729.79998779296875</AltitudeMeters>
            <DistanceMeters>NAN</DistanceMeters>
          </Trackpoint>
          <Trackpoint>
            <Time>2021-08-28T08:58:54.000Z</Time>
            <Position>
              <LatitudeDegrees>38.1190051697194576263427734375</LatitudeDegrees>
              <LongitudeDegrees>-1.86713053844869136810302734375</LongitudeDegrees>
            </Position>
            <AltitudeMeters>731</AltitudeMeters>
            <DistanceMeters>NAN</DistanceMeters>
          </Trackpoint>
          <Trackpoint>
            <Time>2021-08-28T08:58:57.000Z</Time>
            <Position>
              <LatitudeDegrees>38.11911664903163909912109375</LatitudeDegrees>
              <LongitudeDegrees>-1.867126934230327606201171875</LongitudeDegrees>
            </Position>
            <AltitudeMeters>731.79998779296875</AltitudeMeters>
            <DistanceMeters>NAN</DistanceMeters>
          </Trackpoint>
          <Trackpoint>
            <Time>2021-08-28T08:58:58.000Z</Time>
            <Position>
              <LatitudeDegrees>38.11915713362395763397216796875</LatitudeDegrees>
              <LongitudeDegrees>-1.86712123453617095947265625</LongitudeDegrees>
            </Position>
            <AltitudeMeters>732.20001220703125</AltitudeMeters>
            <DistanceMeters>NAN</DistanceMeters>
          </Trackpoint>
          <Trackpoint>
            <Time>2021-08-28T08:59:03.000Z</Time>
            <Position>
              <LatitudeDegrees>38.11934790574014186859130859375</LatitudeDegrees>
              <LongitudeDegrees>-1.86703515239059925079345703125</LongitudeDegrees>
            </Position>
            <AltitudeMeters>733.20001220703125</AltitudeMeters>
            <DistanceMeters>NAN</DistanceMeters>
          </Trackpoint>
          <Trackpoint>
            <Time>2021-08-28T08:59:04.000Z</Time>
            <Position>
              <LatitudeDegrees>38.11938260681927204132080078125</LatitudeDegrees>
              <LongitudeDegrees>-1.86701394617557525634765625</LongitudeDegrees>
            </Position>
            <AltitudeMeters>733.20001220703125</AltitudeMeters>
            <DistanceMeters>NAN</DistanceMeters>
          </Trackpoint>
          <Trackpoint>
            <Time>2021-08-28T08:59:08.000Z</Time>
            <Position>
              <LatitudeDegrees>38.11951135285198688507080078125</LatitudeDegrees>
              <LongitudeDegrees>-1.86688880436122417449951171875</LongitudeDegrees>
            </Position>
            <AltitudeMeters>734.5999755859375</AltitudeMeters>
            <DistanceMeters>NAN</DistanceMeters>
          </Trackpoint>
          <Trackpoint>
            <Time>2021-08-28T08:59:10.000Z</Time>
            <Position>
              <LatitudeDegrees>38.1195734627544879913330078125</LatitudeDegrees>
              <LongitudeDegrees>-1.8668253533542156219482421875</LongitudeDegrees>
            </Position>
            <AltitudeMeters>735.20001220703125</AltitudeMeters>
            <DistanceMeters>NAN</DistanceMeters>
          </Trackpoint>
          <Trackpoint>
            <Time>2021-08-28T08:59:11.000Z</Time>
            <Position>
              <LatitudeDegrees>38.1196039728820323944091796875</LatitudeDegrees>
              <LongitudeDegrees>-1.86679534614086151123046875</LongitudeDegrees>
            </Position>
            <AltitudeMeters>735.5999755859375</AltitudeMeters>
            <DistanceMeters>NAN</DistanceMeters>
          </Trackpoint>
          <Trackpoint>
            <Time>2021-08-28T08:59:16.000Z</Time>
            <Position>
              <LatitudeDegrees>38.11975074000656604766845703125</LatitudeDegrees>
              <LongitudeDegrees>-1.8666337430477142333984375</LongitudeDegrees>
            </Position>
            <AltitudeMeters>736.79998779296875</AltitudeMeters>
            <DistanceMeters>NAN</DistanceMeters>
          </Trackpoint>
          <Trackpoint>
            <Time>2021-08-28T08:59:18.000Z</Time>
            <Position>
              <LatitudeDegrees>38.11980907805263996124267578125</LatitudeDegrees>
              <LongitudeDegrees>-1.86657808721065521240234375</LongitudeDegrees>
            </Position>
            <AltitudeMeters>737.4000244140625</AltitudeMeters>
            <DistanceMeters>NAN</DistanceMeters>
          </Trackpoint>
          <Trackpoint>
            <Time>2021-08-28T08:59:20.000Z</Time>
            <Position>
              <LatitudeDegrees>38.11986900866031646728515625</LatitudeDegrees>
              <LongitudeDegrees>-1.86652033589780330657958984375</LongitudeDegrees>
            </Position>
            <AltitudeMeters>737.79998779296875</AltitudeMeters>
            <DistanceMeters>NAN</DistanceMeters>
          </Trackpoint>
          <Trackpoint>
            <Time>2021-08-28T08:59:25.000Z</Time>
            <Position>
              <LatitudeDegrees>38.12003170140087604522705078125</LatitudeDegrees>
              <LongitudeDegrees>-1.86639393679797649383544921875</LongitudeDegrees>
            </Position>
            <AltitudeMeters>738.79998779296875</AltitudeMeters>
            <DistanceMeters>NAN</DistanceMeters>
          </Trackpoint>
          <Trackpoint>
            <Time>2021-08-28T08:59:26.000Z</Time>
            <Position>
              <LatitudeDegrees>38.12006707303225994110107421875</LatitudeDegrees>
              <LongitudeDegrees>-1.8663750775158405303955078125</LongitudeDegrees>
            </Position>
            <AltitudeMeters>739.20001220703125</AltitudeMeters>
            <DistanceMeters>NAN</DistanceMeters>
          </Trackpoint>
          <Trackpoint>
            <Time>2021-08-28T08:59:32.000Z</Time>
            <Position>
              <LatitudeDegrees>38.12029472552239894866943359375</LatitudeDegrees>
              <LongitudeDegrees>-1.866306848824024200439453125</LongitudeDegrees>
            </Position>
            <AltitudeMeters>740</AltitudeMeters>
            <DistanceMeters>NAN</DistanceMeters>
          </Trackpoint>
          <Trackpoint>
            <Time>2021-08-28T08:59:33.000Z</Time>
            <Position>
              <LatitudeDegrees>38.12033529393374919891357421875</LatitudeDegrees>
              <LongitudeDegrees>-1.8663060106337070465087890625</LongitudeDegrees>
            </Position>
            <AltitudeMeters>740.20001220703125</AltitudeMeters>
            <DistanceMeters>NAN</DistanceMeters>
          </Trackpoint>
          <Trackpoint>
            <Time>2021-08-28T08:59:38.000Z</Time>
            <Position>
              <LatitudeDegrees>38.12053193338215351104736328125</LatitudeDegrees>
              <LongitudeDegrees>-1.866318248212337493896484375</LongitudeDegrees>
            </Position>
            <AltitudeMeters>741.20001220703125</AltitudeMeters>
            <DistanceMeters>NAN</DistanceMeters>
          </Trackpoint>
          <Trackpoint>
            <Time>2021-08-28T08:59:42.000Z</Time>
            <Position>
              <LatitudeDegrees>38.12068632803857326507568359375</LatitudeDegrees>
              <LongitudeDegrees>-1.8663660250604152679443359375</LongitudeDegrees>
            </Position>
            <AltitudeMeters>742.4000244140625</AltitudeMeters>
            <DistanceMeters>NAN</DistanceMeters>
          </Trackpoint>
          <Trackpoint>
            <Time>2021-08-28T08:59:45.000Z</Time>
            <Position>
              <LatitudeDegrees>38.12080082483589649200439453125</LatitudeDegrees>
              <LongitudeDegrees>-1.86641505919396877288818359375</LongitudeDegrees>
            </Position>
            <AltitudeMeters>742.79998779296875</AltitudeMeters>
            <DistanceMeters>NAN</DistanceMeters>
          </Trackpoint>
          <Trackpoint>
            <Time>2021-08-28T08:59:48.000Z</Time>
            <Position>
              <LatitudeDegrees>38.12091263942420482635498046875</LatitudeDegrees>
              <LongitudeDegrees>-1.86647926457226276397705078125</LongitudeDegrees>
            </Position>
            <AltitudeMeters>743.4000244140625</AltitudeMeters>
            <DistanceMeters>NAN</DistanceMeters>
          </Trackpoint>
          <Trackpoint>
            <Time>2021-08-28T08:59:49.000Z</Time>
            <Position>
              <LatitudeDegrees>38.120948262512683868408203125</LatitudeDegrees>
              <LongitudeDegrees>-1.86650834977626800537109375</LongitudeDegrees>
            </Position>
            <AltitudeMeters>743.5999755859375</AltitudeMeters>
            <DistanceMeters>NAN</DistanceMeters>
          </Trackpoint>
          <Trackpoint>
            <Time>2021-08-28T08:59:51.000Z</Time>
            <Position>
              <LatitudeDegrees>38.1209812872111797332763671875</LatitudeDegrees>
              <LongitudeDegrees>-1.8665400333702564239501953125</LongitudeDegrees>
            </Position>
            <AltitudeMeters>744.20001220703125</AltitudeMeters>
            <DistanceMeters>NAN</DistanceMeters>
          </Trackpoint>
          <Trackpoint>
            <Time>2021-08-28T08:59:52.000Z</Time>
            <Position>
              <LatitudeDegrees>38.12103451229631900787353515625</LatitudeDegrees>
              <LongitudeDegrees>-1.8666127882897853851318359375</LongitudeDegrees>
            </Position>
            <AltitudeMeters>744.4000244140625</AltitudeMeters>
            <DistanceMeters>NAN</DistanceMeters>
          </Trackpoint>
          <Trackpoint>
            <Time>2021-08-28T08:59:55.000Z</Time>
            <Position>
              <LatitudeDegrees>38.12107600271701812744140625</LatitudeDegrees>
              <LongitudeDegrees>-1.86670188792049884796142578125</LongitudeDegrees>
            </Position>
            <AltitudeMeters>744.79998779296875</AltitudeMeters>
            <DistanceMeters>NAN</DistanceMeters>
          </Trackpoint>
          <Trackpoint>
            <Time>2021-08-28T08:59:57.000Z</Time>
            <Position>
              <LatitudeDegrees>38.12112160027027130126953125</LatitudeDegrees>
              <LongitudeDegrees>-1.86684655956923961639404296875</LongitudeDegrees>
            </Position>
            <AltitudeMeters>745</AltitudeMeters>
            <DistanceMeters>NAN</DistanceMeters>
          </Trackpoint>
          <Trackpoint>
            <Time>2021-08-28T09:00:00.000Z</Time>
            <Position>
              <LatitudeDegrees>38.121154122054576873779296875</LatitudeDegrees>
              <LongitudeDegrees>-1.86700045131146907806396484375</LongitudeDegrees>
            </Position>
            <AltitudeMeters>745.4000244140625</AltitudeMeters>
            <DistanceMeters>NAN</DistanceMeters>
          </Trackpoint>
          <Trackpoint>
            <Time>2021-08-28T09:00:01.000Z</Time>
            <Position>
              <LatitudeDegrees>38.1211678683757781982421875</LatitudeDegrees>
              <LongitudeDegrees>-1.8670493178069591522216796875</LongitudeDegrees>
            </Position>
            <AltitudeMeters>745.5999755859375</AltitudeMeters>
            <DistanceMeters>NAN</DistanceMeters>
          </Trackpoint>
          <Trackpoint>
            <Time>2021-08-28T09:00:05.000Z</Time>
            <Position>
              <LatitudeDegrees>38.1212300620973110198974609375</LatitudeDegrees>
              <LongitudeDegrees>-1.86723682098090648651123046875</LongitudeDegrees>
            </Position>
            <AltitudeMeters>746.20001220703125</AltitudeMeters>
            <DistanceMeters>NAN</DistanceMeters>
          </Trackpoint>
          <Trackpoint>
            <Time>2021-08-28T09:00:07.000Z</Time>
            <Position>
              <LatitudeDegrees>38.12125110067427158355712890625</LatitudeDegrees>
              <LongitudeDegrees>-1.86728158034384250640869140625</LongitudeDegrees>
            </Position>
            <AltitudeMeters>746.79998779296875</AltitudeMeters>
            <DistanceMeters>NAN</DistanceMeters>
          </Trackpoint>
          <Trackpoint>
            <Time>2021-08-28T09:00:08.000Z</Time>
            <Position>
              <LatitudeDegrees>38.121290914714336395263671875</LatitudeDegrees>
              <LongitudeDegrees>-1.867365650832653045654296875</LongitudeDegrees>
            </Position>
            <AltitudeMeters>747.20001220703125</AltitudeMeters>
            <DistanceMeters>NAN</DistanceMeters>
          </Trackpoint>
          <Trackpoint>
            <Time>2021-08-28T09:00:09.000Z</Time>
            <Position>
              <LatitudeDegrees>38.12131606042385101318359375</LatitudeDegrees>
              <LongitudeDegrees>-1.8674020282924175262451171875</LongitudeDegrees>
            </Position>
            <AltitudeMeters>747.79998779296875</AltitudeMeters>
            <DistanceMeters>NAN</DistanceMeters>
          </Trackpoint>
          <Trackpoint>
            <Time>2021-08-28T09:00:14.000Z</Time>
            <Position>
              <LatitudeDegrees>38.12144187279045581817626953125</LatitudeDegrees>
              <LongitudeDegrees>-1.86757075600326061248779296875</LongitudeDegrees>
            </Position>
            <AltitudeMeters>749.20001220703125</AltitudeMeters>
            <DistanceMeters>NAN</DistanceMeters>
          </Trackpoint>
          <Trackpoint>
            <Time>2021-08-28T09:00:15.000Z</Time>
            <Position>
              <LatitudeDegrees>38.1214681081473827362060546875</LatitudeDegrees>
              <LongitudeDegrees>-1.8676078878343105316162109375</LongitudeDegrees>
            </Position>
            <AltitudeMeters>749.4000244140625</AltitudeMeters>
            <DistanceMeters>NAN</DistanceMeters>
          </Trackpoint>
          <Trackpoint>
            <Time>2021-08-28T09:00:17.000Z</Time>
            <Position>
              <LatitudeDegrees>38.12152099795639514923095703125</LatitudeDegrees>
              <LongitudeDegrees>-1.86768659390509128570556640625</LongitudeDegrees>
            </Position>
            <AltitudeMeters>750.20001220703125</AltitudeMeters>
            <DistanceMeters>NAN</DistanceMeters>
          </Trackpoint>
          <Trackpoint>
            <Time>2021-08-28T09:00:23.000Z</Time>
            <Position>
              <LatitudeDegrees>38.121656365692615509033203125</LatitudeDegrees>
              <LongitudeDegrees>-1.8679458461701869964599609375</LongitudeDegrees>
            </Position>
            <AltitudeMeters>751.20001220703125</AltitudeMeters>
            <DistanceMeters>NAN</DistanceMeters>
          </Trackpoint>
          <Trackpoint>
            <Time>2021-08-28T09:00:26.000Z</Time>
            <Position>
              <LatitudeDegrees>38.12170841731131076812744140625</LatitudeDegrees>
              <LongitudeDegrees>-1.868087165057659149169921875</LongitudeDegrees>
            </Position>
            <AltitudeMeters>752.20001220703125</AltitudeMeters>
            <DistanceMeters>NAN</DistanceMeters>
          </Trackpoint>
          <Trackpoint>
            <Time>2021-08-28T09:00:31.000Z</Time>
            <Position>
              <LatitudeDegrees>38.12178033404052257537841796875</LatitudeDegrees>
              <LongitudeDegrees>-1.86833267100155353546142578125</LongitudeDegrees>
            </Position>
            <AltitudeMeters>753.4000244140625</AltitudeMeters>
            <DistanceMeters>NAN</DistanceMeters>
          </Trackpoint>
          <Trackpoint>
            <Time>2021-08-28T09:00:32.000Z</Time>
            <Position>
              <LatitudeDegrees>38.12179642729461193084716796875</LatitudeDegrees>
              <LongitudeDegrees>-1.8683825433254241943359375</LongitudeDegrees>
            </Position>
            <AltitudeMeters>753.5999755859375</AltitudeMeters>
            <DistanceMeters>NAN</DistanceMeters>
          </Trackpoint>
          <Trackpoint>
            <Time>2021-08-28T09:00:39.000Z</Time>
            <Position>
              <LatitudeDegrees>38.1219421885907649993896484375</LatitudeDegrees>
              <LongitudeDegrees>-1.868676580488681793212890625</LongitudeDegrees>
            </Position>
            <AltitudeMeters>754.4000244140625</AltitudeMeters>
            <DistanceMeters>NAN</DistanceMeters>
          </Trackpoint>
          <Trackpoint>
            <Time>2021-08-28T09:00:40.000Z</Time>
            <Position>
              <LatitudeDegrees>38.1219716928899288177490234375</LatitudeDegrees>
              <LongitudeDegrees>-1.86872209422290325164794921875</LongitudeDegrees>
            </Position>
            <AltitudeMeters>754.79998779296875</AltitudeMeters>
            <DistanceMeters>NAN</DistanceMeters>
          </Trackpoint>
          <Trackpoint>
            <Time>2021-08-28T09:00:42.000Z</Time>
            <Position>
              <LatitudeDegrees>38.12204369343817234039306640625</LatitudeDegrees>
              <LongitudeDegrees>-1.8687981180846691131591796875</LongitudeDegrees>
            </Position>
            <AltitudeMeters>755.4000244140625</AltitudeMeters>
            <DistanceMeters>NAN</DistanceMeters>
          </Trackpoint>
          <Trackpoint>
            <Time>2021-08-28T09:00:43.000Z</Time>
            <Position>
              <LatitudeDegrees>38.12213807366788387298583984375</LatitudeDegrees>
              <LongitudeDegrees>-1.8688561208546161651611328125</LongitudeDegrees>
            </Position>
            <AltitudeMeters>755.5999755859375</AltitudeMeters>
            <DistanceMeters>NAN</DistanceMeters>
          </Trackpoint>
          <Trackpoint>
            <Time>2021-08-28T09:00:44.000Z</Time>
            <Position>
              <LatitudeDegrees>38.12213807366788387298583984375</LatitudeDegrees>
              <LongitudeDegrees>-1.8688561208546161651611328125</LongitudeDegrees>
            </Position>
            <AltitudeMeters>755.5999755859375</AltitudeMeters>
            <DistanceMeters>NAN</DistanceMeters>
          </Trackpoint>
          <Trackpoint>
            <Time>2021-08-28T09:00:45.000Z</Time>
            <Position>
              <LatitudeDegrees>38.122235722839832305908203125</LatitudeDegrees>
              <LongitudeDegrees>-1.868895851075649261474609375</LongitudeDegrees>
            </Position>
            <AltitudeMeters>755.79998779296875</AltitudeMeters>
            <DistanceMeters>NAN</DistanceMeters>
          </Trackpoint>
          <Trackpoint>
            <Time>2021-08-28T09:00:47.000Z</Time>
            <Position>
              <LatitudeDegrees>38.12232725322246551513671875</LatitudeDegrees>
              <LongitudeDegrees>-1.86892510391771793365478515625</LongitudeDegrees>
            </Position>
            <AltitudeMeters>756.79998779296875</AltitudeMeters>
            <DistanceMeters>NAN</DistanceMeters>
          </Trackpoint>
          <Trackpoint>
            <Time>2021-08-28T09:00:49.000Z</Time>
            <Position>
              <LatitudeDegrees>38.1224219687283039093017578125</LatitudeDegrees>
              <LongitudeDegrees>-1.86895092017948627471923828125</LongitudeDegrees>
            </Position>
            <AltitudeMeters>757.4000244140625</AltitudeMeters>
            <DistanceMeters>NAN</DistanceMeters>
          </Trackpoint>
          <Trackpoint>
            <Time>2021-08-28T09:00:51.000Z</Time>
            <Position>
              <LatitudeDegrees>38.1225188635289669036865234375</LatitudeDegrees>
              <LongitudeDegrees>-1.86897086910903453826904296875</LongitudeDegrees>
            </Position>
            <AltitudeMeters>757.79998779296875</AltitudeMeters>
            <DistanceMeters>NAN</DistanceMeters>
          </Trackpoint>
          <Trackpoint>
            <Time>2021-08-28T09:00:54.000Z</Time>
            <Position>
              <LatitudeDegrees>38.12267116270959377288818359375</LatitudeDegrees>
              <LongitudeDegrees>-1.86900414526462554931640625</LongitudeDegrees>
            </Position>
            <AltitudeMeters>758.79998779296875</AltitudeMeters>
            <DistanceMeters>NAN</DistanceMeters>
          </Trackpoint>
          <Trackpoint>
            <Time>2021-08-28T09:00:56.000Z</Time>
            <Position>
              <LatitudeDegrees>38.122769482433795928955078125</LatitudeDegrees>
              <LongitudeDegrees>-1.86903758905827999114990234375</LongitudeDegrees>
            </Position>
            <AltitudeMeters>759.5999755859375</AltitudeMeters>
            <DistanceMeters>NAN</DistanceMeters>
          </Trackpoint>
          <Trackpoint>
            <Time>2021-08-28T09:00:57.000Z</Time>
            <Position>
              <LatitudeDegrees>38.122817762196063995361328125</LatitudeDegrees>
              <LongitudeDegrees>-1.86906256712973117828369140625</LongitudeDegrees>
            </Position>
            <AltitudeMeters>760</AltitudeMeters>
            <DistanceMeters>NAN</DistanceMeters>
          </Trackpoint>
          <Trackpoint>
            <Time>2021-08-28T09:00:59.000Z</Time>
            <Position>
              <LatitudeDegrees>38.12290267087519168853759765625</LatitudeDegrees>
              <LongitudeDegrees>-1.86912090517580509185791015625</LongitudeDegrees>
            </Position>
            <AltitudeMeters>761.20001220703125</AltitudeMeters>
            <DistanceMeters>NAN</DistanceMeters>
          </Trackpoint>
          <Trackpoint>
            <Time>2021-08-28T09:01:02.000Z</Time>
            <Position>
              <LatitudeDegrees>38.12297710217535495758056640625</LatitudeDegrees>
              <LongitudeDegrees>-1.86918444000184535980224609375</LongitudeDegrees>
            </Position>
            <AltitudeMeters>761.79998779296875</AltitudeMeters>
            <DistanceMeters>NAN</DistanceMeters>
          </Trackpoint>
          <Trackpoint>
            <Time>2021-08-28T09:01:05.000Z</Time>
            <Position>
              <LatitudeDegrees>38.1230794452130794525146484375</LatitudeDegrees>
              <LongitudeDegrees>-1.86931083910167217254638671875</LongitudeDegrees>
            </Position>
            <AltitudeMeters>762.20001220703125</AltitudeMeters>
            <DistanceMeters>NAN</DistanceMeters>
          </Trackpoint>
          <Trackpoint>
            <Time>2021-08-28T09:01:08.000Z</Time>
            <Position>
              <LatitudeDegrees>38.123162090778350830078125</LatitudeDegrees>
              <LongitudeDegrees>-1.86944914050400257110595703125</LongitudeDegrees>
            </Position>
            <AltitudeMeters>763</AltitudeMeters>
            <DistanceMeters>NAN</DistanceMeters>
          </Trackpoint>
          <Trackpoint>
            <Time>2021-08-28T09:01:09.000Z</Time>
            <Position>
              <LatitudeDegrees>38.12321447767317295074462890625</LatitudeDegrees>
              <LongitudeDegrees>-1.869539916515350341796875</LongitudeDegrees>
            </Position>
            <AltitudeMeters>763.20001220703125</AltitudeMeters>
            <DistanceMeters>NAN</DistanceMeters>
          </Trackpoint>
          <Trackpoint>
            <Time>2021-08-28T09:01:15.000Z</Time>
            <Position>
              <LatitudeDegrees>38.12335361726582050323486328125</LatitudeDegrees>
              <LongitudeDegrees>-1.869839988648891448974609375</LongitudeDegrees>
            </Position>
            <AltitudeMeters>764.20001220703125</AltitudeMeters>
            <DistanceMeters>NAN</DistanceMeters>
          </Trackpoint>
          <Trackpoint>
            <Time>2021-08-28T09:01:17.000Z</Time>
            <Position>
              <LatitudeDegrees>38.12340416014194488525390625</LatitudeDegrees>
              <LongitudeDegrees>-1.86994233168661594390869140625</LongitudeDegrees>
            </Position>
            <AltitudeMeters>764.4000244140625</AltitudeMeters>
            <DistanceMeters>NAN</DistanceMeters>
          </Trackpoint>
          <Trackpoint>
            <Time>2021-08-28T09:01:21.000Z</Time>
            <Position>
              <LatitudeDegrees>38.1234831176698207855224609375</LatitudeDegrees>
              <LongitudeDegrees>-1.87009220011532306671142578125</LongitudeDegrees>
            </Position>
            <AltitudeMeters>765</AltitudeMeters>
            <DistanceMeters>NAN</DistanceMeters>
          </Trackpoint>
          <Trackpoint>
            <Time>2021-08-28T09:01:24.000Z</Time>
            <Position>
              <LatitudeDegrees>38.12358194030821323394775390625</LatitudeDegrees>
              <LongitudeDegrees>-1.87023234553635120391845703125</LongitudeDegrees>
            </Position>
            <AltitudeMeters>765.20001220703125</AltitudeMeters>
            <DistanceMeters>NAN</DistanceMeters>
          </Trackpoint>
          <Trackpoint>
            <Time>2021-08-28T09:01:26.000Z</Time>
            <Position>
              <LatitudeDegrees>38.1236735545098781585693359375</LatitudeDegrees>
              <LongitudeDegrees>-1.8703004904091358184814453125</LongitudeDegrees>
            </Position>
            <AltitudeMeters>765.4000244140625</AltitudeMeters>
            <DistanceMeters>NAN</DistanceMeters>
          </Trackpoint>
          <Trackpoint>
            <Time>2021-08-28T09:01:27.000Z</Time>
            <Position>
              <LatitudeDegrees>38.12372610904276371002197265625</LatitudeDegrees>
              <LongitudeDegrees>-1.87032245099544525146484375</LongitudeDegrees>
            </Position>
            <AltitudeMeters>765.5999755859375</AltitudeMeters>
            <DistanceMeters>NAN</DistanceMeters>
          </Trackpoint>
          <Trackpoint>
            <Time>2021-08-28T09:01:28.000Z</Time>
            <Position>
              <LatitudeDegrees>38.1238368339836597442626953125</LatitudeDegrees>
              <LongitudeDegrees>-1.87034667469561100006103515625</LongitudeDegrees>
            </Position>
            <AltitudeMeters>765.79998779296875</AltitudeMeters>
            <DistanceMeters>NAN</DistanceMeters>
          </Trackpoint>
          <Trackpoint>
            <Time>2021-08-28T09:01:31.000Z</Time>
            <Position>
              <LatitudeDegrees>38.123939931392669677734375</LatitudeDegrees>
              <LongitudeDegrees>-1.87035061419010162353515625</LongitudeDegrees>
            </Position>
            <AltitudeMeters>766.5999755859375</AltitudeMeters>
            <DistanceMeters>NAN</DistanceMeters>
          </Trackpoint>
          <Trackpoint>
            <Time>2021-08-28T09:01:37.000Z</Time>
            <Position>
              <LatitudeDegrees>38.12431317754089832305908203125</LatitudeDegrees>
              <LongitudeDegrees>-1.87035840936005115509033203125</LongitudeDegrees>
            </Position>
            <AltitudeMeters>767.20001220703125</AltitudeMeters>
            <DistanceMeters>NAN</DistanceMeters>
          </Trackpoint>
          <Trackpoint>
            <Time>2021-08-28T09:01:40.000Z</Time>
            <Position>
              <LatitudeDegrees>38.12448115088045597076416015625</LatitudeDegrees>
              <LongitudeDegrees>-1.87037902884185314178466796875</LongitudeDegrees>
            </Position>
            <AltitudeMeters>767.5999755859375</AltitudeMeters>
            <DistanceMeters>NAN</DistanceMeters>
          </Trackpoint>
          <Trackpoint>
            <Time>2021-08-28T09:01:41.000Z</Time>
            <Position>
              <LatitudeDegrees>38.12453311868011951446533203125</LatitudeDegrees>
              <LongitudeDegrees>-1.87039612792432308197021484375</LongitudeDegrees>
            </Position>
            <AltitudeMeters>767.5999755859375</AltitudeMeters>
            <DistanceMeters>NAN</DistanceMeters>
          </Trackpoint>
          <Trackpoint>
            <Time>2021-08-28T09:01:42.000Z</Time>
            <Position>
              <LatitudeDegrees>38.1245850026607513427734375</LatitudeDegrees>
              <LongitudeDegrees>-1.8704161606729030609130859375</LongitudeDegrees>
            </Position>
            <AltitudeMeters>767.79998779296875</AltitudeMeters>
            <DistanceMeters>NAN</DistanceMeters>
          </Trackpoint>
          <Trackpoint>
            <Time>2021-08-28T09:01:48.000Z</Time>
            <Position>
              <LatitudeDegrees>38.12492975033819675445556640625</LatitudeDegrees>
              <LongitudeDegrees>-1.8705566413700580596923828125</LongitudeDegrees>
            </Position>
            <AltitudeMeters>768</AltitudeMeters>
            <DistanceMeters>NAN</DistanceMeters>
          </Trackpoint>
          <Trackpoint>
            <Time>2021-08-28T09:01:49.000Z</Time>
            <Position>
              <LatitudeDegrees>38.12499647028744220733642578125</LatitudeDegrees>
              <LongitudeDegrees>-1.87056963331997394561767578125</LongitudeDegrees>
            </Position>
            <AltitudeMeters>768</AltitudeMeters>
            <DistanceMeters>NAN</DistanceMeters>
          </Trackpoint>
          <Trackpoint>
            <Time>2021-08-28T09:01:51.000Z</Time>
            <Position>
              <LatitudeDegrees>38.1251427344977855682373046875</LatitudeDegrees>
              <LongitudeDegrees>-1.8705633468925952911376953125</LongitudeDegrees>
            </Position>
            <AltitudeMeters>767.5999755859375</AltitudeMeters>
            <DistanceMeters>NAN</DistanceMeters>
          </Trackpoint>
          <Trackpoint>
            <Time>2021-08-28T09:01:53.000Z</Time>
            <Position>
              <LatitudeDegrees>38.12530375085771083831787109375</LatitudeDegrees>
              <LongitudeDegrees>-1.870480366051197052001953125</LongitudeDegrees>
            </Position>
            <AltitudeMeters>767.20001220703125</AltitudeMeters>
            <DistanceMeters>NAN</DistanceMeters>
          </Trackpoint>
          <Trackpoint>
            <Time>2021-08-28T09:01:55.000Z</Time>
            <Position>
              <LatitudeDegrees>38.12537818215787410736083984375</LatitudeDegrees>
              <LongitudeDegrees>-1.8704164959490299224853515625</LongitudeDegrees>
            </Position>
            <AltitudeMeters>766.79998779296875</AltitudeMeters>
            <DistanceMeters>NAN</DistanceMeters>
          </Trackpoint>
          <Trackpoint>
            <Time>2021-08-28T09:01:56.000Z</Time>
            <Position>
              <LatitudeDegrees>38.12551899813115596771240234375</LatitudeDegrees>
              <LongitudeDegrees>-1.87026134692132472991943359375</LongitudeDegrees>
            </Position>
            <AltitudeMeters>766.5999755859375</AltitudeMeters>
            <DistanceMeters>NAN</DistanceMeters>
          </Trackpoint>
          <Trackpoint>
            <Time>2021-08-28T09:01:58.000Z</Time>
            <Position>
              <LatitudeDegrees>38.12558873556554317474365234375</LatitudeDegrees>
              <LongitudeDegrees>-1.870173923671245574951171875</LongitudeDegrees>
            </Position>
            <AltitudeMeters>766</AltitudeMeters>
            <DistanceMeters>NAN</DistanceMeters>
          </Trackpoint>
          <Trackpoint>
            <Time>2021-08-28T09:01:59.000Z</Time>
            <Position>
              <LatitudeDegrees>38.12573525123298168182373046875</LatitudeDegrees>
              <LongitudeDegrees>-1.87000569887459278106689453125</LongitudeDegrees>
            </Position>
            <AltitudeMeters>766</AltitudeMeters>
            <DistanceMeters>NAN</DistanceMeters>
          </Trackpoint>
          <Trackpoint>
            <Time>2021-08-28T09:02:02.000Z</Time>
            <Position>
              <LatitudeDegrees>38.1259819306433200836181640625</LatitudeDegrees>
              <LongitudeDegrees>-1.86979061923921108245849609375</LongitudeDegrees>
            </Position>
            <AltitudeMeters>765.4000244140625</AltitudeMeters>
            <DistanceMeters>NAN</DistanceMeters>
          </Trackpoint>
          <Trackpoint>
            <Time>2021-08-28T09:02:03.000Z</Time>
            <Position>
              <LatitudeDegrees>38.1260701082646846771240234375</LatitudeDegrees>
              <LongitudeDegrees>-1.86972138471901416778564453125</LongitudeDegrees>
            </Position>
            <AltitudeMeters>765.20001220703125</AltitudeMeters>
            <DistanceMeters>NAN</DistanceMeters>
          </Trackpoint>
          <Trackpoint>
            <Time>2021-08-28T09:02:06.000Z</Time>
            <Position>
              <LatitudeDegrees>38.1263373233377933502197265625</LatitudeDegrees>
              <LongitudeDegrees>-1.8694857694208621978759765625</LongitudeDegrees>
            </Position>
            <AltitudeMeters>763.5999755859375</AltitudeMeters>
            <DistanceMeters>NAN</DistanceMeters>
          </Trackpoint>
          <Trackpoint>
            <Time>2021-08-28T09:02:08.000Z</Time>
            <Position>
              <LatitudeDegrees>38.12651552259922027587890625</LatitudeDegrees>
              <LongitudeDegrees>-1.8693288601934909820556640625</LongitudeDegrees>
            </Position>
            <AltitudeMeters>762.5999755859375</AltitudeMeters>
            <DistanceMeters>NAN</DistanceMeters>
          </Trackpoint>
          <Trackpoint>
            <Time>2021-08-28T09:02:10.000Z</Time>
            <Position>
              <LatitudeDegrees>38.1266930513083934783935546875</LatitudeDegrees>
              <LongitudeDegrees>-1.869168765842914581298828125</LongitudeDegrees>
            </Position>
            <AltitudeMeters>762</AltitudeMeters>
            <DistanceMeters>NAN</DistanceMeters>
          </Trackpoint>
          <Trackpoint>
            <Time>2021-08-28T09:02:12.000Z</Time>
            <Position>
              <LatitudeDegrees>38.1268533132970333099365234375</LatitudeDegrees>
              <LongitudeDegrees>-1.86897304840385913848876953125</LongitudeDegrees>
            </Position>
            <AltitudeMeters>761</AltitudeMeters>
            <DistanceMeters>NAN</DistanceMeters>
          </Trackpoint>
          <Trackpoint>
            <Time>2021-08-28T09:02:13.000Z</Time>
            <Position>
              <LatitudeDegrees>38.12691860832273960113525390625</LatitudeDegrees>
              <LongitudeDegrees>-1.868853606283664703369140625</LongitudeDegrees>
            </Position>
            <AltitudeMeters>760.4000244140625</AltitudeMeters>
            <DistanceMeters>NAN</DistanceMeters>
          </Trackpoint>
          <Trackpoint>
            <Time>2021-08-28T09:02:14.000Z</Time>
            <Position>
              <LatitudeDegrees>38.1269636191427707672119140625</LatitudeDegrees>
              <LongitudeDegrees>-1.868719495832920074462890625</LongitudeDegrees>
            </Position>
            <AltitudeMeters>759.79998779296875</AltitudeMeters>
            <DistanceMeters>NAN</DistanceMeters>
          </Trackpoint>
          <Trackpoint>
            <Time>2021-08-28T09:02:16.000Z</Time>
            <Position>
              <LatitudeDegrees>38.12699806876480579376220703125</LatitudeDegrees>
              <LongitudeDegrees>-1.8684397079050540924072265625</LongitudeDegrees>
            </Position>
            <AltitudeMeters>758.79998779296875</AltitudeMeters>
            <DistanceMeters>NAN</DistanceMeters>
          </Trackpoint>
          <Trackpoint>
            <Time>2021-08-28T09:02:19.000Z</Time>
            <Position>
              <LatitudeDegrees>38.1269616074860095977783203125</LatitudeDegrees>
              <LongitudeDegrees>-1.8679964728653430938720703125</LongitudeDegrees>
            </Position>
            <AltitudeMeters>758.20001220703125</AltitudeMeters>
            <DistanceMeters>NAN</DistanceMeters>
          </Trackpoint>
          <Trackpoint>
            <Time>2021-08-28T09:02:20.000Z</Time>
            <Position>
              <LatitudeDegrees>38.12690972350537776947021484375</LatitudeDegrees>
              <LongitudeDegrees>-1.86785574071109294891357421875</LongitudeDegrees>
            </Position>
            <AltitudeMeters>757.79998779296875</AltitudeMeters>
            <DistanceMeters>NAN</DistanceMeters>
          </Trackpoint>
          <Trackpoint>
            <Time>2021-08-28T09:02:21.000Z</Time>
            <Position>
              <LatitudeDegrees>38.12683043070137500762939453125</LatitudeDegrees>
              <LongitudeDegrees>-1.86773118562996387481689453125</LongitudeDegrees>
            </Position>
            <AltitudeMeters>757.4000244140625</AltitudeMeters>
            <DistanceMeters>NAN</DistanceMeters>
          </Trackpoint>
          <Trackpoint>
            <Time>2021-08-28T09:02:23.000Z</Time>
            <Position>
              <LatitudeDegrees>38.12662146985530853271484375</LatitudeDegrees>
              <LongitudeDegrees>-1.8675143457949161529541015625</LongitudeDegrees>
            </Position>
            <AltitudeMeters>756</AltitudeMeters>
            <DistanceMeters>NAN</DistanceMeters>
          </Trackpoint>
          <Trackpoint>
            <Time>2021-08-28T09:02:24.000Z</Time>
            <Position>
              <LatitudeDegrees>38.12653119675815105438232421875</LatitudeDegrees>
              <LongitudeDegrees>-1.86739959754049777984619140625</LongitudeDegrees>
            </Position>
            <AltitudeMeters>755.4000244140625</AltitudeMeters>
            <DistanceMeters>NAN</DistanceMeters>
          </Trackpoint>
          <Trackpoint>
            <Time>2021-08-28T09:02:25.000Z</Time>
            <Position>
              <LatitudeDegrees>38.1264573521912097930908203125</LatitudeDegrees>
              <LongitudeDegrees>-1.86727470718324184417724609375</LongitudeDegrees>
            </Position>
            <AltitudeMeters>755</AltitudeMeters>
            <DistanceMeters>NAN</DistanceMeters>
          </Trackpoint>
          <Trackpoint>
            <Time>2021-08-28T09:02:26.000Z</Time>
            <Position>
              <LatitudeDegrees>38.12639482319355010986328125</LatitudeDegrees>
              <LongitudeDegrees>-1.86714403331279754638671875</LongitudeDegrees>
            </Position>
            <AltitudeMeters>754.79998779296875</AltitudeMeters>
            <DistanceMeters>NAN</DistanceMeters>
          </Trackpoint>
          <Trackpoint>
            <Time>2021-08-28T09:02:29.000Z</Time>
            <Position>
              <LatitudeDegrees>38.12618535943329334259033203125</LatitudeDegrees>
              <LongitudeDegrees>-1.8667566217482089996337890625</LongitudeDegrees>
            </Position>
            <AltitudeMeters>753.4000244140625</AltitudeMeters>
            <DistanceMeters>NAN</DistanceMeters>
          </Trackpoint>
          <Trackpoint>
            <Time>2021-08-28T09:02:30.000Z</Time>
            <Position>
              <LatitudeDegrees>38.12608108855783939361572265625</LatitudeDegrees>
              <LongitudeDegrees>-1.8666552007198333740234375</LongitudeDegrees>
            </Position>
            <AltitudeMeters>750.5999755859375</AltitudeMeters>
            <DistanceMeters>NAN</DistanceMeters>
          </Trackpoint>
          <Trackpoint>
            <Time>2021-08-28T09:02:31.000Z</Time>
            <Position>
              <LatitudeDegrees>38.125967681407928466796875</LatitudeDegrees>
              <LongitudeDegrees>-1.8665658496320247650146484375</LongitudeDegrees>
            </Position>
            <AltitudeMeters>749.4000244140625</AltitudeMeters>
            <DistanceMeters>NAN</DistanceMeters>
          </Trackpoint>
          <Trackpoint>
            <Time>2021-08-28T09:02:33.000Z</Time>
            <Position>
              <LatitudeDegrees>38.1257361732423305511474609375</LatitudeDegrees>
              <LongitudeDegrees>-1.86639376915991306304931640625</LongitudeDegrees>
            </Position>
            <AltitudeMeters>748.20001220703125</AltitudeMeters>
            <DistanceMeters>NAN</DistanceMeters>
          </Trackpoint>
          <Trackpoint>
            <Time>2021-08-28T09:02:35.000Z</Time>
            <Position>
              <LatitudeDegrees>38.1255044974386692047119140625</LatitudeDegrees>
              <LongitudeDegrees>-1.8662060983479022979736328125</LongitudeDegrees>
            </Position>
            <AltitudeMeters>747.20001220703125</AltitudeMeters>
            <DistanceMeters>NAN</DistanceMeters>
          </Trackpoint>
          <Trackpoint>
            <Time>2021-08-28T09:02:36.000Z</Time>
            <Position>
              <LatitudeDegrees>38.12539243139326572418212890625</LatitudeDegrees>
              <LongitudeDegrees>-1.86610006727278232574462890625</LongitudeDegrees>
            </Position>
            <AltitudeMeters>747</AltitudeMeters>
            <DistanceMeters>NAN</DistanceMeters>
          </Trackpoint>
          <Trackpoint>
            <Time>2021-08-28T09:02:37.000Z</Time>
            <Position>
              <LatitudeDegrees>38.1252902559936046600341796875</LatitudeDegrees>
              <LongitudeDegrees>-1.86598037369549274444580078125</LongitudeDegrees>
            </Position>
            <AltitudeMeters>746.20001220703125</AltitudeMeters>
            <DistanceMeters>NAN</DistanceMeters>
          </Trackpoint>
          <Trackpoint>
            <Time>2021-08-28T09:02:38.000Z</Time>
            <Position>
              <LatitudeDegrees>38.125206939876079559326171875</LatitudeDegrees>
              <LongitudeDegrees>-1.86584508977830410003662109375</LongitudeDegrees>
            </Position>
            <AltitudeMeters>745.20001220703125</AltitudeMeters>
            <DistanceMeters>NAN</DistanceMeters>
          </Trackpoint>
          <Trackpoint>
            <Time>2021-08-28T09:02:39.000Z</Time>
            <Position>
              <LatitudeDegrees>38.12515120021998882293701171875</LatitudeDegrees>
              <LongitudeDegrees>-1.8656917847692966461181640625</LongitudeDegrees>
            </Position>
            <AltitudeMeters>744.79998779296875</AltitudeMeters>
            <DistanceMeters>NAN</DistanceMeters>
          </Trackpoint>
          <Trackpoint>
            <Time>2021-08-28T09:02:40.000Z</Time>
            <Position>
              <LatitudeDegrees>38.12512479722499847412109375</LatitudeDegrees>
              <LongitudeDegrees>-1.865526996552944183349609375</LongitudeDegrees>
            </Position>
            <AltitudeMeters>743.79998779296875</AltitudeMeters>
            <DistanceMeters>NAN</DistanceMeters>
          </Trackpoint>
          <Trackpoint>
            <Time>2021-08-28T09:02:41.000Z</Time>
            <Position>
              <LatitudeDegrees>38.12512085773050785064697265625</LatitudeDegrees>
              <LongitudeDegrees>-1.8653565086424350738525390625</LongitudeDegrees>
            </Position>
            <AltitudeMeters>743.20001220703125</AltitudeMeters>
            <DistanceMeters>NAN</DistanceMeters>
          </Trackpoint>
          <Trackpoint>
            <Time>2021-08-28T09:02:42.000Z</Time>
            <Position>
              <LatitudeDegrees>38.1251276470720767974853515625</LatitudeDegrees>
              <LongitudeDegrees>-1.8651848472654819488525390625</LongitudeDegrees>
            </Position>
            <AltitudeMeters>742.79998779296875</AltitudeMeters>
            <DistanceMeters>NAN</DistanceMeters>
          </Trackpoint>
          <Trackpoint>
            <Time>2021-08-28T09:02:43.000Z</Time>
            <Position>
              <LatitudeDegrees>38.125140555202960968017578125</LatitudeDegrees>
              <LongitudeDegrees>-1.86501033604145050048828125</LongitudeDegrees>
            </Position>
            <AltitudeMeters>742.20001220703125</AltitudeMeters>
            <DistanceMeters>NAN</DistanceMeters>
          </Trackpoint>
          <Trackpoint>
            <Time>2021-08-28T09:02:44.000Z</Time>
            <Position>
              <LatitudeDegrees>38.125140555202960968017578125</LatitudeDegrees>
              <LongitudeDegrees>-1.86501033604145050048828125</LongitudeDegrees>
            </Position>
            <AltitudeMeters>741.5999755859375</AltitudeMeters>
            <DistanceMeters>NAN</DistanceMeters>
          </Trackpoint>
          <Trackpoint>
            <Time>2021-08-28T09:02:45.000Z</Time>
            <Position>
              <LatitudeDegrees>38.12516142614185810089111328125</LatitudeDegrees>
              <LongitudeDegrees>-1.86483255587518215179443359375</LongitudeDegrees>
            </Position>
            <AltitudeMeters>740</AltitudeMeters>
            <DistanceMeters>NAN</DistanceMeters>
          </Trackpoint>
          <Trackpoint>
            <Time>2021-08-28T09:02:46.000Z</Time>
            <Position>
              <LatitudeDegrees>38.1251936964690685272216796875</LatitudeDegrees>
              <LongitudeDegrees>-1.86446710489690303802490234375</LongitudeDegrees>
            </Position>
            <AltitudeMeters>738.5999755859375</AltitudeMeters>
            <DistanceMeters>NAN</DistanceMeters>
          </Trackpoint>
          <Trackpoint>
            <Time>2021-08-28T09:02:48.000Z</Time>
            <Position>
              <LatitudeDegrees>38.12522429041564464569091796875</LatitudeDegrees>
              <LongitudeDegrees>-1.8640895001590251922607421875</LongitudeDegrees>
            </Position>
            <AltitudeMeters>737.20001220703125</AltitudeMeters>
            <DistanceMeters>NAN</DistanceMeters>
          </Trackpoint>
          <Trackpoint>
            <Time>2021-08-28T09:02:50.000Z</Time>
            <Position>
              <LatitudeDegrees>38.1252523697912693023681640625</LatitudeDegrees>
              <LongitudeDegrees>-1.863706447184085845947265625</LongitudeDegrees>
            </Position>
            <AltitudeMeters>737</AltitudeMeters>
            <DistanceMeters>NAN</DistanceMeters>
          </Trackpoint>
          <Trackpoint>
            <Time>2021-08-28T09:02:53.000Z</Time>
            <Position>
              <LatitudeDegrees>38.12529570423066616058349609375</LatitudeDegrees>
              <LongitudeDegrees>-1.86313010752201080322265625</LongitudeDegrees>
            </Position>
            <AltitudeMeters>735.4000244140625</AltitudeMeters>
            <DistanceMeters>NAN</DistanceMeters>
          </Trackpoint>
          <Trackpoint>
            <Time>2021-08-28T09:02:54.000Z</Time>
            <Position>
              <LatitudeDegrees>38.12530928291380405426025390625</LatitudeDegrees>
              <LongitudeDegrees>-1.8629381619393825531005859375</LongitudeDegrees>
            </Position>
            <AltitudeMeters>733.5999755859375</AltitudeMeters>
            <DistanceMeters>NAN</DistanceMeters>
          </Trackpoint>
          <Trackpoint>
            <Time>2021-08-28T09:02:56.000Z</Time>
            <Position>
              <LatitudeDegrees>38.12533694319427013397216796875</LatitudeDegrees>
              <LongitudeDegrees>-1.86255603097379207611083984375</LongitudeDegrees>
            </Position>
            <AltitudeMeters>731</AltitudeMeters>
            <DistanceMeters>NAN</DistanceMeters>
          </Trackpoint>
          <Trackpoint>
            <Time>2021-08-28T09:02:57.000Z</Time>
            <Position>
              <LatitudeDegrees>38.12535010278224945068359375</LatitudeDegrees>
              <LongitudeDegrees>-1.8623650074005126953125</LongitudeDegrees>
            </Position>
            <AltitudeMeters>729.79998779296875</AltitudeMeters>
            <DistanceMeters>NAN</DistanceMeters>
          </Trackpoint>
          <Trackpoint>
            <Time>2021-08-28T09:02:58.000Z</Time>
            <Position>
              <LatitudeDegrees>38.12536485493183135986328125</LatitudeDegrees>
              <LongitudeDegrees>-1.86217482201755046844482421875</LongitudeDegrees>
            </Position>
            <AltitudeMeters>728.4000244140625</AltitudeMeters>
            <DistanceMeters>NAN</DistanceMeters>
          </Trackpoint>
          <Trackpoint>
            <Time>2021-08-28T09:03:00.000Z</Time>
            <Position>
              <LatitudeDegrees>38.12541774474084377288818359375</LatitudeDegrees>
              <LongitudeDegrees>-1.8617988936603069305419921875</LongitudeDegrees>
            </Position>
            <AltitudeMeters>727.4000244140625</AltitudeMeters>
            <DistanceMeters>NAN</DistanceMeters>
          </Trackpoint>
          <Trackpoint>
            <Time>2021-08-28T09:03:02.000Z</Time>
            <Position>
              <LatitudeDegrees>38.125529475510120391845703125</LatitudeDegrees>
              <LongitudeDegrees>-1.86143771745264530181884765625</LongitudeDegrees>
            </Position>
            <AltitudeMeters>724.79998779296875</AltitudeMeters>
            <DistanceMeters>NAN</DistanceMeters>
          </Trackpoint>
          <Trackpoint>
            <Time>2021-08-28T09:03:03.000Z</Time>
            <Position>
              <LatitudeDegrees>38.1256069242954254150390625</LatitudeDegrees>
              <LongitudeDegrees>-1.86126706190407276153564453125</LongitudeDegrees>
            </Position>
            <AltitudeMeters>723.20001220703125</AltitudeMeters>
            <DistanceMeters>NAN</DistanceMeters>
          </Trackpoint>
          <Trackpoint>
            <Time>2021-08-28T09:03:05.000Z</Time>
            <Position>
              <LatitudeDegrees>38.12578503973782062530517578125</LatitudeDegrees>
              <LongitudeDegrees>-1.860940754413604736328125</LongitudeDegrees>
            </Position>
            <AltitudeMeters>721</AltitudeMeters>
            <DistanceMeters>NAN</DistanceMeters>
          </Trackpoint>
          <Trackpoint>
            <Time>2021-08-28T09:03:06.000Z</Time>
            <Position>
              <LatitudeDegrees>38.1258833594620227813720703125</LatitudeDegrees>
              <LongitudeDegrees>-1.8607843481004238128662109375</LongitudeDegrees>
            </Position>
            <AltitudeMeters>719.79998779296875</AltitudeMeters>
            <DistanceMeters>NAN</DistanceMeters>
          </Trackpoint>
          <Trackpoint>
            <Time>2021-08-28T09:03:07.000Z</Time>
            <Position>
              <LatitudeDegrees>38.1259851157665252685546875</LatitudeDegrees>
              <LongitudeDegrees>-1.860630623996257781982421875</LongitudeDegrees>
            </Position>
            <AltitudeMeters>719</AltitudeMeters>
            <DistanceMeters>NAN</DistanceMeters>
          </Trackpoint>
          <Trackpoint>
            <Time>2021-08-28T09:03:08.000Z</Time>
            <Position>
              <LatitudeDegrees>38.126090057194232940673828125</LatitudeDegrees>
              <LongitudeDegrees>-1.8604782409965991973876953125</LongitudeDegrees>
            </Position>
            <AltitudeMeters>718</AltitudeMeters>
            <DistanceMeters>NAN</DistanceMeters>
          </Trackpoint>
          <Trackpoint>
            <Time>2021-08-28T09:03:10.000Z</Time>
            <Position>
              <LatitudeDegrees>38.1263037957251071929931640625</LatitudeDegrees>
              <LongitudeDegrees>-1.86016492545604705810546875</LongitudeDegrees>
            </Position>
            <AltitudeMeters>716.20001220703125</AltitudeMeters>
            <DistanceMeters>NAN</DistanceMeters>
          </Trackpoint>
          <Trackpoint>
            <Time>2021-08-28T09:03:11.000Z</Time>
            <Position>
              <LatitudeDegrees>38.12641435302793979644775390625</LatitudeDegrees>
              <LongitudeDegrees>-1.86000826768577098846435546875</LongitudeDegrees>
            </Position>
            <AltitudeMeters>714.4000244140625</AltitudeMeters>
            <DistanceMeters>NAN</DistanceMeters>
          </Trackpoint>
          <Trackpoint>
            <Time>2021-08-28T09:03:12.000Z</Time>
            <Position>
              <LatitudeDegrees>38.12651929445564746856689453125</LatitudeDegrees>
              <LongitudeDegrees>-1.85984909534454345703125</LongitudeDegrees>
            </Position>
            <AltitudeMeters>712.79998779296875</AltitudeMeters>
            <DistanceMeters>NAN</DistanceMeters>
          </Trackpoint>
          <Trackpoint>
            <Time>2021-08-28T09:03:14.000Z</Time>
            <Position>
              <LatitudeDegrees>38.12673018313944339752197265625</LatitudeDegrees>
              <LongitudeDegrees>-1.85952815227210521697998046875</LongitudeDegrees>
            </Position>
            <AltitudeMeters>710.5999755859375</AltitudeMeters>
            <DistanceMeters>NAN</DistanceMeters>
          </Trackpoint>
          <Trackpoint>
            <Time>2021-08-28T09:03:16.000Z</Time>
            <Position>
              <LatitudeDegrees>38.12694132328033447265625</LatitudeDegrees>
              <LongitudeDegrees>-1.8592120707035064697265625</LongitudeDegrees>
            </Position>
            <AltitudeMeters>708.5999755859375</AltitudeMeters>
            <DistanceMeters>NAN</DistanceMeters>
          </Trackpoint>
          <Trackpoint>
            <Time>2021-08-28T09:03:18.000Z</Time>
            <Position>
              <LatitudeDegrees>38.12714290805160999298095703125</LatitudeDegrees>
              <LongitudeDegrees>-1.85890638269484043121337890625</LongitudeDegrees>
            </Position>
            <AltitudeMeters>707</AltitudeMeters>
            <DistanceMeters>NAN</DistanceMeters>
          </Trackpoint>
          <Trackpoint>
            <Time>2021-08-28T09:03:20.000Z</Time>
            <Position>
              <LatitudeDegrees>38.1273414753377437591552734375</LatitudeDegrees>
              <LongitudeDegrees>-1.858612596988677978515625</LongitudeDegrees>
            </Position>
            <AltitudeMeters>705</AltitudeMeters>
            <DistanceMeters>NAN</DistanceMeters>
          </Trackpoint>
          <Trackpoint>
            <Time>2021-08-28T09:03:21.000Z</Time>
            <Position>
              <LatitudeDegrees>38.1273414753377437591552734375</LatitudeDegrees>
              <LongitudeDegrees>-1.858612596988677978515625</LongitudeDegrees>
            </Position>
            <AltitudeMeters>704.4000244140625</AltitudeMeters>
            <DistanceMeters>NAN</DistanceMeters>
          </Trackpoint>
          <Trackpoint>
            <Time>2021-08-28T09:03:22.000Z</Time>
            <Position>
              <LatitudeDegrees>38.127439208328723907470703125</LatitudeDegrees>
              <LongitudeDegrees>-1.85846851207315921783447265625</LongitudeDegrees>
            </Position>
            <AltitudeMeters>704</AltitudeMeters>
            <DistanceMeters>NAN</DistanceMeters>
          </Trackpoint>
          <Trackpoint>
            <Time>2021-08-28T09:03:25.000Z</Time>
            <Position>
              <LatitudeDegrees>38.1277535296976566314697265625</LatitudeDegrees>
              <LongitudeDegrees>-1.85809685848653316497802734375</LongitudeDegrees>
            </Position>
            <AltitudeMeters>703</AltitudeMeters>
            <DistanceMeters>NAN</DistanceMeters>
          </Trackpoint>
          <Trackpoint>
            <Time>2021-08-28T09:03:26.000Z</Time>
            <Position>
              <LatitudeDegrees>38.1278631649911403656005859375</LatitudeDegrees>
              <LongitudeDegrees>-1.85799233615398406982421875</LongitudeDegrees>
            </Position>
            <AltitudeMeters>702.79998779296875</AltitudeMeters>
            <DistanceMeters>NAN</DistanceMeters>
          </Trackpoint>
          <Trackpoint>
            <Time>2021-08-28T09:03:28.000Z</Time>
            <Position>
              <LatitudeDegrees>38.128187544643878936767578125</LatitudeDegrees>
              <LongitudeDegrees>-1.85769637115299701690673828125</LongitudeDegrees>
            </Position>
            <AltitudeMeters>701.5999755859375</AltitudeMeters>
            <DistanceMeters>NAN</DistanceMeters>
          </Trackpoint>
          <Trackpoint>
            <Time>2021-08-28T09:03:31.000Z</Time>
            <Position>
              <LatitudeDegrees>38.12840136699378490447998046875</LatitudeDegrees>
              <LongitudeDegrees>-1.8575050123035907745361328125</LongitudeDegrees>
            </Position>
            <AltitudeMeters>700.79998779296875</AltitudeMeters>
            <DistanceMeters>NAN</DistanceMeters>
          </Trackpoint>
          <Trackpoint>
            <Time>2021-08-28T09:03:32.000Z</Time>
            <Position>
              <LatitudeDegrees>38.12860873527824878692626953125</LatitudeDegrees>
              <LongitudeDegrees>-1.85731776058673858642578125</LongitudeDegrees>
            </Position>
            <AltitudeMeters>700.20001220703125</AltitudeMeters>
            <DistanceMeters>NAN</DistanceMeters>
          </Trackpoint>
          <Trackpoint>
            <Time>2021-08-28T09:03:35.000Z</Time>
            <Position>
              <LatitudeDegrees>38.1288197077810764312744140625</LatitudeDegrees>
              <LongitudeDegrees>-1.85715037398040294647216796875</LongitudeDegrees>
            </Position>
            <AltitudeMeters>699</AltitudeMeters>
            <DistanceMeters>NAN</DistanceMeters>
          </Trackpoint>
          <Trackpoint>
            <Time>2021-08-28T09:03:36.000Z</Time>
            <Position>
              <LatitudeDegrees>38.12893194146454334259033203125</LatitudeDegrees>
              <LongitudeDegrees>-1.85708667151629924774169921875</LongitudeDegrees>
            </Position>
            <AltitudeMeters>698.79998779296875</AltitudeMeters>
            <DistanceMeters>NAN</DistanceMeters>
          </Trackpoint>
          <Trackpoint>
            <Time>2021-08-28T09:03:38.000Z</Time>
            <Position>
              <LatitudeDegrees>38.12916981987655162811279296875</LatitudeDegrees>
              <LongitudeDegrees>-1.85701291076838970184326171875</LongitudeDegrees>
            </Position>
            <AltitudeMeters>698.20001220703125</AltitudeMeters>
            <DistanceMeters>NAN</DistanceMeters>
          </Trackpoint>
          <Trackpoint>
            <Time>2021-08-28T09:03:39.000Z</Time>
            <Position>
              <LatitudeDegrees>38.12929001636803150177001953125</LatitudeDegrees>
              <LongitudeDegrees>-1.8570037744939327239990234375</LongitudeDegrees>
            </Position>
            <AltitudeMeters>697.79998779296875</AltitudeMeters>
            <DistanceMeters>NAN</DistanceMeters>
          </Trackpoint>
          <Trackpoint>
            <Time>2021-08-28T09:03:40.000Z</Time>
            <Position>
              <LatitudeDegrees>38.12941138632595539093017578125</LatitudeDegrees>
              <LongitudeDegrees>-1.85702028684318065643310546875</LongitudeDegrees>
            </Position>
            <AltitudeMeters>697.4000244140625</AltitudeMeters>
            <DistanceMeters>NAN</DistanceMeters>
          </Trackpoint>
          <Trackpoint>
            <Time>2021-08-28T09:03:41.000Z</Time>
            <Position>
              <LatitudeDegrees>38.1296438165009021759033203125</LatitudeDegrees>
              <LongitudeDegrees>-1.8570594303309917449951171875</LongitudeDegrees>
            </Position>
            <AltitudeMeters>696.5999755859375</AltitudeMeters>
            <DistanceMeters>NAN</DistanceMeters>
          </Trackpoint>
          <Trackpoint>
            <Time>2021-08-28T09:03:43.000Z</Time>
            <Position>
              <LatitudeDegrees>38.12986870296299457550048828125</LatitudeDegrees>
              <LongitudeDegrees>-1.85711382888257503509521484375</LongitudeDegrees>
            </Position>
            <AltitudeMeters>695.79998779296875</AltitudeMeters>
            <DistanceMeters>NAN</DistanceMeters>
          </Trackpoint>
          <Trackpoint>
            <Time>2021-08-28T09:03:45.000Z</Time>
            <Position>
              <LatitudeDegrees>38.13008478842675685882568359375</LatitudeDegrees>
              <LongitudeDegrees>-1.857182644307613372802734375</LongitudeDegrees>
            </Position>
            <AltitudeMeters>695.5999755859375</AltitudeMeters>
            <DistanceMeters>NAN</DistanceMeters>
          </Trackpoint>
          <Trackpoint>
            <Time>2021-08-28T09:03:49.000Z</Time>
            <Position>
              <LatitudeDegrees>38.1304947473108768463134765625</LatitudeDegrees>
              <LongitudeDegrees>-1.85732035897672176361083984375</LongitudeDegrees>
            </Position>
            <AltitudeMeters>694.5999755859375</AltitudeMeters>
            <DistanceMeters>NAN</DistanceMeters>
          </Trackpoint>
          <Trackpoint>
            <Time>2021-08-28T09:03:54.000Z</Time>
            <Position>
              <LatitudeDegrees>38.13095055520534515380859375</LatitudeDegrees>
              <LongitudeDegrees>-1.85748263262212276458740234375</LongitudeDegrees>
            </Position>
            <AltitudeMeters>694.4000244140625</AltitudeMeters>
            <DistanceMeters>NAN</DistanceMeters>
          </Trackpoint>
          <Trackpoint>
            <Time>2021-08-28T09:03:59.000Z</Time>
            <Position>
              <LatitudeDegrees>38.13140125013887882232666015625</LatitudeDegrees>
              <LongitudeDegrees>-1.8576397933065891265869140625</LongitudeDegrees>
            </Position>
            <AltitudeMeters>695.20001220703125</AltitudeMeters>
            <DistanceMeters>NAN</DistanceMeters>
          </Trackpoint>
          <Trackpoint>
            <Time>2021-08-28T09:04:00.000Z</Time>
            <Position>
              <LatitudeDegrees>38.1314908526837825775146484375</LatitudeDegrees>
              <LongitudeDegrees>-1.85768027789890766143798828125</LongitudeDegrees>
            </Position>
            <AltitudeMeters>695.4000244140625</AltitudeMeters>
            <DistanceMeters>NAN</DistanceMeters>
          </Trackpoint>
          <Trackpoint>
            <Time>2021-08-28T09:04:01.000Z</Time>
            <Position>
              <LatitudeDegrees>38.13157794065773487091064453125</LatitudeDegrees>
              <LongitudeDegrees>-1.85772051103413105010986328125</LongitudeDegrees>
            </Position>
            <AltitudeMeters>695.79998779296875</AltitudeMeters>
            <DistanceMeters>NAN</DistanceMeters>
          </Trackpoint>
          <Trackpoint>
            <Time>2021-08-28T09:04:05.000Z</Time>
            <Position>
              <LatitudeDegrees>38.13191237859427928924560546875</LatitudeDegrees>
              <LongitudeDegrees>-1.8578808568418025970458984375</LongitudeDegrees>
            </Position>
            <AltitudeMeters>696.79998779296875</AltitudeMeters>
            <DistanceMeters>NAN</DistanceMeters>
          </Trackpoint>
          <Trackpoint>
            <Time>2021-08-28T09:04:07.000Z</Time>
            <Position>
              <LatitudeDegrees>38.13206124119460582733154296875</LatitudeDegrees>
              <LongitudeDegrees>-1.85795051045715808868408203125</LongitudeDegrees>
            </Position>
            <AltitudeMeters>697</AltitudeMeters>
            <DistanceMeters>NAN</DistanceMeters>
          </Trackpoint>
          <Trackpoint>
            <Time>2021-08-28T09:04:10.000Z</Time>
            <Position>
              <LatitudeDegrees>38.1322710402309894561767578125</LatitudeDegrees>
              <LongitudeDegrees>-1.8580468185245990753173828125</LongitudeDegrees>
            </Position>
            <AltitudeMeters>698</AltitudeMeters>
            <DistanceMeters>NAN</DistanceMeters>
          </Trackpoint>
          <Trackpoint>
            <Time>2021-08-28T09:04:15.000Z</Time>
            <Position>
              <LatitudeDegrees>38.1326069869101047515869140625</LatitudeDegrees>
              <LongitudeDegrees>-1.8582094274461269378662109375</LongitudeDegrees>
            </Position>
            <AltitudeMeters>699</AltitudeMeters>
            <DistanceMeters>NAN</DistanceMeters>
          </Trackpoint>
          <Trackpoint>
            <Time>2021-08-28T09:04:18.000Z</Time>
            <Position>
              <LatitudeDegrees>38.13279700465500354766845703125</LatitudeDegrees>
              <LongitudeDegrees>-1.85830037109553813934326171875</LongitudeDegrees>
            </Position>
            <AltitudeMeters>700</AltitudeMeters>
            <DistanceMeters>NAN</DistanceMeters>
          </Trackpoint>
          <Trackpoint>
            <Time>2021-08-28T09:04:22.000Z</Time>
            <Position>
              <LatitudeDegrees>38.13305650837719440460205078125</LatitudeDegrees>
              <LongitudeDegrees>-1.85838553123176097869873046875</LongitudeDegrees>
            </Position>
            <AltitudeMeters>701</AltitudeMeters>
            <DistanceMeters>NAN</DistanceMeters>
          </Trackpoint>
          <Trackpoint>
            <Time>2021-08-28T09:04:23.000Z</Time>
            <Position>
              <LatitudeDegrees>38.13312473706901073455810546875</LatitudeDegrees>
              <LongitudeDegrees>-1.85839869081974029541015625</LongitudeDegrees>
            </Position>
            <AltitudeMeters>701</AltitudeMeters>
            <DistanceMeters>NAN</DistanceMeters>
          </Trackpoint>
          <Trackpoint>
            <Time>2021-08-28T09:04:27.000Z</Time>
            <Position>
              <LatitudeDegrees>38.13341014087200164794921875</LatitudeDegrees>
              <LongitudeDegrees>-1.85839810408651828765869140625</LongitudeDegrees>
            </Position>
            <AltitudeMeters>700.79998779296875</AltitudeMeters>
            <DistanceMeters>NAN</DistanceMeters>
          </Trackpoint>
          <Trackpoint>
            <Time>2021-08-28T09:04:35.000Z</Time>
            <Position>
              <LatitudeDegrees>38.134007267653942108154296875</LatitudeDegrees>
              <LongitudeDegrees>-1.85828729532659053802490234375</LongitudeDegrees>
            </Position>
            <AltitudeMeters>701.79998779296875</AltitudeMeters>
            <DistanceMeters>NAN</DistanceMeters>
          </Trackpoint>
          <Trackpoint>
            <Time>2021-08-28T09:04:36.000Z</Time>
            <Position>
              <LatitudeDegrees>38.1340848840773105621337890625</LatitudeDegrees>
              <LongitudeDegrees>-1.8582721240818500518798828125</LongitudeDegrees>
            </Position>
            <AltitudeMeters>701.79998779296875</AltitudeMeters>
            <DistanceMeters>NAN</DistanceMeters>
          </Trackpoint>
          <Trackpoint>
            <Time>2021-08-28T09:04:38.000Z</Time>
            <Position>
              <LatitudeDegrees>38.13424020074307918548583984375</LatitudeDegrees>
              <LongitudeDegrees>-1.858244799077510833740234375</LongitudeDegrees>
            </Position>
            <AltitudeMeters>702.20001220703125</AltitudeMeters>
            <DistanceMeters>NAN</DistanceMeters>
          </Trackpoint>
          <Trackpoint>
            <Time>2021-08-28T09:04:45.000Z</Time>
            <Position>
              <LatitudeDegrees>38.13477613963186740875244140625</LatitudeDegrees>
              <LongitudeDegrees>-1.85813943855464458465576171875</LongitudeDegrees>
            </Position>
            <AltitudeMeters>702.4000244140625</AltitudeMeters>
            <DistanceMeters>NAN</DistanceMeters>
          </Trackpoint>
          <Trackpoint>
            <Time>2021-08-28T09:04:48.000Z</Time>
            <Position>
              <LatitudeDegrees>38.1349995173513889312744140625</LatitudeDegrees>
              <LongitudeDegrees>-1.8580949306488037109375</LongitudeDegrees>
            </Position>
            <AltitudeMeters>703.20001220703125</AltitudeMeters>
            <DistanceMeters>NAN</DistanceMeters>
          </Trackpoint>
          <Trackpoint>
            <Time>2021-08-28T09:04:53.000Z</Time>
            <Position>
              <LatitudeDegrees>38.135371170938014984130859375</LatitudeDegrees>
              <LongitudeDegrees>-1.85801723040640354156494140625</LongitudeDegrees>
            </Position>
            <AltitudeMeters>704.20001220703125</AltitudeMeters>
            <DistanceMeters>NAN</DistanceMeters>
          </Trackpoint>
          <Trackpoint>
            <Time>2021-08-28T09:04:57.000Z</Time>
            <Position>
              <LatitudeDegrees>38.135666549205780029296875</LatitudeDegrees>
              <LongitudeDegrees>-1.8579502590000629425048828125</LongitudeDegrees>
            </Position>
            <AltitudeMeters>704.20001220703125</AltitudeMeters>
            <DistanceMeters>NAN</DistanceMeters>
          </Trackpoint>
          <Trackpoint>
            <Time>2021-08-28T09:05:00.000Z</Time>
            <Position>
              <LatitudeDegrees>38.13589059747755527496337890625</LatitudeDegrees>
              <LongitudeDegrees>-1.8578801862895488739013671875</LongitudeDegrees>
            </Position>
            <AltitudeMeters>704.4000244140625</AltitudeMeters>
            <DistanceMeters>NAN</DistanceMeters>
          </Trackpoint>
          <Trackpoint>
            <Time>2021-08-28T09:05:05.000Z</Time>
            <Position>
              <LatitudeDegrees>38.13622671179473400115966796875</LatitudeDegrees>
              <LongitudeDegrees>-1.8577708862721920013427734375</LongitudeDegrees>
            </Position>
            <AltitudeMeters>703.20001220703125</AltitudeMeters>
            <DistanceMeters>NAN</DistanceMeters>
          </Trackpoint>
          <Trackpoint>
            <Time>2021-08-28T09:05:11.000Z</Time>
            <Position>
              <LatitudeDegrees>38.13678779639303684234619140625</LatitudeDegrees>
              <LongitudeDegrees>-1.85761037282645702362060546875</LongitudeDegrees>
            </Position>
            <AltitudeMeters>702.20001220703125</AltitudeMeters>
            <DistanceMeters>NAN</DistanceMeters>
          </Trackpoint>
          <Trackpoint>
            <Time>2021-08-28T09:05:12.000Z</Time>
            <Position>
              <LatitudeDegrees>38.13688368536531925201416015625</LatitudeDegrees>
              <LongitudeDegrees>-1.85758137144148349761962890625</LongitudeDegrees>
            </Position>
            <AltitudeMeters>701.79998779296875</AltitudeMeters>
            <DistanceMeters>NAN</DistanceMeters>
          </Trackpoint>
          <Trackpoint>
            <Time>2021-08-28T09:05:17.000Z</Time>
            <Position>
              <LatitudeDegrees>38.1374756991863250732421875</LatitudeDegrees>
              <LongitudeDegrees>-1.85740627348423004150390625</LongitudeDegrees>
            </Position>
            <AltitudeMeters>700.5999755859375</AltitudeMeters>
            <DistanceMeters>NAN</DistanceMeters>
          </Trackpoint>
          <Trackpoint>
            <Time>2021-08-28T09:05:22.000Z</Time>
            <Position>
              <LatitudeDegrees>38.13796411268413066864013671875</LatitudeDegrees>
              <LongitudeDegrees>-1.85724592767655849456787109375</LongitudeDegrees>
            </Position>
            <AltitudeMeters>699.79998779296875</AltitudeMeters>
            <DistanceMeters>NAN</DistanceMeters>
          </Trackpoint>
          <Trackpoint>
            <Time>2021-08-28T09:05:26.000Z</Time>
            <Position>
              <LatitudeDegrees>38.13834733329713344573974609375</LatitudeDegrees>
              <LongitudeDegrees>-1.85712170787155628204345703125</LongitudeDegrees>
            </Position>
            <AltitudeMeters>699.5999755859375</AltitudeMeters>
            <DistanceMeters>NAN</DistanceMeters>
          </Trackpoint>
          <Trackpoint>
            <Time>2021-08-28T09:05:31.000Z</Time>
            <Position>
              <LatitudeDegrees>38.1388196535408496856689453125</LatitudeDegrees>
              <LongitudeDegrees>-1.85698642395436763763427734375</LongitudeDegrees>
            </Position>
            <AltitudeMeters>698.5999755859375</AltitudeMeters>
            <DistanceMeters>NAN</DistanceMeters>
          </Trackpoint>
          <Trackpoint>
            <Time>2021-08-28T09:05:37.000Z</Time>
            <Position>
              <LatitudeDegrees>38.139400519430637359619140625</LatitudeDegrees>
              <LongitudeDegrees>-1.8568827398121356964111328125</LongitudeDegrees>
            </Position>
            <AltitudeMeters>698.20001220703125</AltitudeMeters>
            <DistanceMeters>NAN</DistanceMeters>
          </Trackpoint>
          <Trackpoint>
            <Time>2021-08-28T09:05:39.000Z</Time>
            <Position>
              <LatitudeDegrees>38.13950034789741039276123046875</LatitudeDegrees>
              <LongitudeDegrees>-1.8568713404238224029541015625</LongitudeDegrees>
            </Position>
            <AltitudeMeters>697.5999755859375</AltitudeMeters>
            <DistanceMeters>NAN</DistanceMeters>
          </Trackpoint>
          <Trackpoint>
            <Time>2021-08-28T09:05:40.000Z</Time>
            <Position>
              <LatitudeDegrees>38.13960193656384944915771484375</LatitudeDegrees>
              <LongitudeDegrees>-1.85686287470161914825439453125</LongitudeDegrees>
            </Position>
            <AltitudeMeters>697.4000244140625</AltitudeMeters>
            <DistanceMeters>NAN</DistanceMeters>
          </Trackpoint>
          <Trackpoint>
            <Time>2021-08-28T09:05:45.000Z</Time>
            <Position>
              <LatitudeDegrees>38.140225298702716827392578125</LatitudeDegrees>
              <LongitudeDegrees>-1.85680403374135494232177734375</LongitudeDegrees>
            </Position>
            <AltitudeMeters>696.20001220703125</AltitudeMeters>
            <DistanceMeters>NAN</DistanceMeters>
          </Trackpoint>
          <Trackpoint>
            <Time>2021-08-28T09:05:47.000Z</Time>
            <Position>
              <LatitudeDegrees>38.14033091068267822265625</LatitudeDegrees>
              <LongitudeDegrees>-1.8567975796759128570556640625</LongitudeDegrees>
            </Position>
            <AltitudeMeters>695.4000244140625</AltitudeMeters>
            <DistanceMeters>NAN</DistanceMeters>
          </Trackpoint>
          <Trackpoint>
            <Time>2021-08-28T09:05:49.000Z</Time>
            <Position>
              <LatitudeDegrees>38.14053920097649097442626953125</LatitudeDegrees>
              <LongitudeDegrees>-1.85678341425955295562744140625</LongitudeDegrees>
            </Position>
            <AltitudeMeters>695</AltitudeMeters>
            <DistanceMeters>NAN</DistanceMeters>
          </Trackpoint>
          <Trackpoint>
            <Time>2021-08-28T09:05:54.000Z</Time>
            <Position>
              <LatitudeDegrees>38.1410147063434123992919921875</LatitudeDegrees>
              <LongitudeDegrees>-1.8567345477640628814697265625</LongitudeDegrees>
            </Position>
            <AltitudeMeters>694</AltitudeMeters>
            <DistanceMeters>NAN</DistanceMeters>
          </Trackpoint>
          <Trackpoint>
            <Time>2021-08-28T09:05:56.000Z</Time>
            <Position>
              <LatitudeDegrees>38.14115962944924831390380859375</LatitudeDegrees>
              <LongitudeDegrees>-1.856659948825836181640625</LongitudeDegrees>
            </Position>
            <AltitudeMeters>693.20001220703125</AltitudeMeters>
            <DistanceMeters>NAN</DistanceMeters>
          </Trackpoint>
          <Trackpoint>
            <Time>2021-08-28T09:05:57.000Z</Time>
            <Position>
              <LatitudeDegrees>38.141228444874286651611328125</LatitudeDegrees>
              <LongitudeDegrees>-1.85661829076707363128662109375</LongitudeDegrees>
            </Position>
            <AltitudeMeters>692.79998779296875</AltitudeMeters>
            <DistanceMeters>NAN</DistanceMeters>
          </Trackpoint>
          <Trackpoint>
            <Time>2021-08-28T09:05:58.000Z</Time>
            <Position>
              <LatitudeDegrees>38.1413791514933109283447265625</LatitudeDegrees>
              <LongitudeDegrees>-1.8565585277974605560302734375</LongitudeDegrees>
            </Position>
            <AltitudeMeters>692.4000244140625</AltitudeMeters>
            <DistanceMeters>NAN</DistanceMeters>
          </Trackpoint>
          <Trackpoint>
            <Time>2021-08-28T09:06:00.000Z</Time>
            <Position>
              <LatitudeDegrees>38.141461797058582305908203125</LatitudeDegrees>
              <LongitudeDegrees>-1.856540255248546600341796875</LongitudeDegrees>
            </Position>
            <AltitudeMeters>692</AltitudeMeters>
            <DistanceMeters>NAN</DistanceMeters>
          </Trackpoint>
          <Trackpoint>
            <Time>2021-08-28T09:06:01.000Z</Time>
            <Position>
              <LatitudeDegrees>38.14154930412769317626953125</LatitudeDegrees>
              <LongitudeDegrees>-1.85653296299278736114501953125</LongitudeDegrees>
            </Position>
            <AltitudeMeters>691.79998779296875</AltitudeMeters>
            <DistanceMeters>NAN</DistanceMeters>
          </Trackpoint>
          <Trackpoint>
            <Time>2021-08-28T09:06:02.000Z</Time>
            <Position>
              <LatitudeDegrees>38.14163672737777233123779296875</LatitudeDegrees>
              <LongitudeDegrees>-1.8565363995730876922607421875</LongitudeDegrees>
            </Position>
            <AltitudeMeters>691.79998779296875</AltitudeMeters>
            <DistanceMeters>NAN</DistanceMeters>
          </Trackpoint>
          <Trackpoint>
            <Time>2021-08-28T09:06:05.000Z</Time>
            <Position>
              <LatitudeDegrees>38.141995556652545928955078125</LatitudeDegrees>
              <LongitudeDegrees>-1.856600940227508544921875</LongitudeDegrees>
            </Position>
            <AltitudeMeters>691.5999755859375</AltitudeMeters>
            <DistanceMeters>NAN</DistanceMeters>
          </Trackpoint>
          <Trackpoint>
            <Time>2021-08-28T09:06:12.000Z</Time>
            <Position>
              <LatitudeDegrees>38.14255923964083194732666015625</LatitudeDegrees>
              <LongitudeDegrees>-1.85661141760647296905517578125</LongitudeDegrees>
            </Position>
            <AltitudeMeters>691.5999755859375</AltitudeMeters>
            <DistanceMeters>NAN</DistanceMeters>
          </Trackpoint>
          <Trackpoint>
            <Time>2021-08-28T09:06:17.000Z</Time>
            <Position>
              <LatitudeDegrees>38.1431591324508190155029296875</LatitudeDegrees>
              <LongitudeDegrees>-1.85655475594103336334228515625</LongitudeDegrees>
            </Position>
            <AltitudeMeters>691.4000244140625</AltitudeMeters>
            <DistanceMeters>NAN</DistanceMeters>
          </Trackpoint>
          <Trackpoint>
            <Time>2021-08-28T09:06:19.000Z</Time>
            <Position>
              <LatitudeDegrees>38.1432623974978923797607421875</LatitudeDegrees>
              <LongitudeDegrees>-1.85654528439044952392578125</LongitudeDegrees>
            </Position>
            <AltitudeMeters>691.20001220703125</AltitudeMeters>
            <DistanceMeters>NAN</DistanceMeters>
          </Trackpoint>
          <Trackpoint>
            <Time>2021-08-28T09:06:23.000Z</Time>
            <Position>
              <LatitudeDegrees>38.1437931396067142486572265625</LatitudeDegrees>
              <LongitudeDegrees>-1.8564985133707523345947265625</LongitudeDegrees>
            </Position>
            <AltitudeMeters>690.4000244140625</AltitudeMeters>
            <DistanceMeters>NAN</DistanceMeters>
          </Trackpoint>
          <Trackpoint>
            <Time>2021-08-28T09:06:26.000Z</Time>
            <Position>
              <LatitudeDegrees>38.144115172326564788818359375</LatitudeDegrees>
              <LongitudeDegrees>-1.85647311620414257049560546875</LongitudeDegrees>
            </Position>
            <AltitudeMeters>689.5999755859375</AltitudeMeters>
            <DistanceMeters>NAN</DistanceMeters>
          </Trackpoint>
          <Trackpoint>
            <Time>2021-08-28T09:06:28.000Z</Time>
            <Position>
              <LatitudeDegrees>38.1443292461335659027099609375</LatitudeDegrees>
              <LongitudeDegrees>-1.85647998936474323272705078125</LongitudeDegrees>
            </Position>
            <AltitudeMeters>689</AltitudeMeters>
            <DistanceMeters>NAN</DistanceMeters>
          </Trackpoint>
          <Trackpoint>
            <Time>2021-08-28T09:06:31.000Z</Time>
            <Position>
              <LatitudeDegrees>38.1445475108921527862548828125</LatitudeDegrees>
              <LongitudeDegrees>-1.85651435516774654388427734375</LongitudeDegrees>
            </Position>
            <AltitudeMeters>688.5999755859375</AltitudeMeters>
            <DistanceMeters>NAN</DistanceMeters>
          </Trackpoint>
          <Trackpoint>
            <Time>2021-08-28T09:06:34.000Z</Time>
            <Position>
              <LatitudeDegrees>38.14487800933420658111572265625</LatitudeDegrees>
              <LongitudeDegrees>-1.8566101603209972381591796875</LongitudeDegrees>
            </Position>
            <AltitudeMeters>688</AltitudeMeters>
            <DistanceMeters>NAN</DistanceMeters>
          </Trackpoint>
          <Trackpoint>
            <Time>2021-08-28T09:06:37.000Z</Time>
            <Position>
              <LatitudeDegrees>38.145207501947879791259765625</LatitudeDegrees>
              <LongitudeDegrees>-1.856724321842193603515625</LongitudeDegrees>
            </Position>
            <AltitudeMeters>687.20001220703125</AltitudeMeters>
            <DistanceMeters>NAN</DistanceMeters>
          </Trackpoint>
          <Trackpoint>
            <Time>2021-08-28T09:06:38.000Z</Time>
            <Position>
              <LatitudeDegrees>38.14542375504970550537109375</LatitudeDegrees>
              <LongitudeDegrees>-1.8568032793700695037841796875</LongitudeDegrees>
            </Position>
            <AltitudeMeters>686.79998779296875</AltitudeMeters>
            <DistanceMeters>NAN</DistanceMeters>
          </Trackpoint>
          <Trackpoint>
            <Time>2021-08-28T09:06:41.000Z</Time>
            <Position>
              <LatitudeDegrees>38.14575173892080783843994140625</LatitudeDegrees>
              <LongitudeDegrees>-1.85692205093801021575927734375</LongitudeDegrees>
            </Position>
            <AltitudeMeters>685.5999755859375</AltitudeMeters>
            <DistanceMeters>NAN</DistanceMeters>
          </Trackpoint>
          <Trackpoint>
            <Time>2021-08-28T09:06:43.000Z</Time>
            <Position>
              <LatitudeDegrees>38.1459697522222995758056640625</LatitudeDegrees>
              <LongitudeDegrees>-1.85699614696204662322998046875</LongitudeDegrees>
            </Position>
            <AltitudeMeters>685</AltitudeMeters>
            <DistanceMeters>NAN</DistanceMeters>
          </Trackpoint>
          <Trackpoint>
            <Time>2021-08-28T09:06:45.000Z</Time>
            <Position>
              <LatitudeDegrees>38.14618684351444244384765625</LatitudeDegrees>
              <LongitudeDegrees>-1.85707242228090763092041015625</LongitudeDegrees>
            </Position>
            <AltitudeMeters>684.4000244140625</AltitudeMeters>
            <DistanceMeters>NAN</DistanceMeters>
          </Trackpoint>
          <Trackpoint>
            <Time>2021-08-28T09:06:48.000Z</Time>
            <Position>
              <LatitudeDegrees>38.14651482738554477691650390625</LatitudeDegrees>
              <LongitudeDegrees>-1.857189349830150604248046875</LongitudeDegrees>
            </Position>
            <AltitudeMeters>683.20001220703125</AltitudeMeters>
            <DistanceMeters>NAN</DistanceMeters>
          </Trackpoint>
          <Trackpoint>
            <Time>2021-08-28T09:06:52.000Z</Time>
            <Position>
              <LatitudeDegrees>38.14685412682592868804931640625</LatitudeDegrees>
              <LongitudeDegrees>-1.85730158351361751556396484375</LongitudeDegrees>
            </Position>
            <AltitudeMeters>682</AltitudeMeters>
            <DistanceMeters>NAN</DistanceMeters>
          </Trackpoint>
          <Trackpoint>
            <Time>2021-08-28T09:06:54.000Z</Time>
            <Position>
              <LatitudeDegrees>38.14719778485596179962158203125</LatitudeDegrees>
              <LongitudeDegrees>-1.85741859488189220428466796875</LongitudeDegrees>
            </Position>
            <AltitudeMeters>681.79998779296875</AltitudeMeters>
            <DistanceMeters>NAN</DistanceMeters>
          </Trackpoint>
          <Trackpoint>
            <Time>2021-08-28T09:06:56.000Z</Time>
            <Position>
              <LatitudeDegrees>38.1474221684038639068603515625</LatitudeDegrees>
              <LongitudeDegrees>-1.8574981391429901123046875</LongitudeDegrees>
            </Position>
            <AltitudeMeters>680.5999755859375</AltitudeMeters>
            <DistanceMeters>NAN</DistanceMeters>
          </Trackpoint>
          <Trackpoint>
            <Time>2021-08-28T09:07:01.000Z</Time>
            <Position>
              <LatitudeDegrees>38.14795701764523983001708984375</LatitudeDegrees>
              <LongitudeDegrees>-1.85768430121243000030517578125</LongitudeDegrees>
            </Position>
            <AltitudeMeters>680</AltitudeMeters>
            <DistanceMeters>NAN</DistanceMeters>
          </Trackpoint>
          <Trackpoint>
            <Time>2021-08-28T09:07:02.000Z</Time>
            <Position>
              <LatitudeDegrees>38.14805961214005947113037109375</LatitudeDegrees>
              <LongitudeDegrees>-1.85771950520575046539306640625</LongitudeDegrees>
            </Position>
            <AltitudeMeters>680</AltitudeMeters>
            <DistanceMeters>NAN</DistanceMeters>
          </Trackpoint>
          <Trackpoint>
            <Time>2021-08-28T09:07:07.000Z</Time>
            <Position>
              <LatitudeDegrees>38.14856084994971752166748046875</LatitudeDegrees>
              <LongitudeDegrees>-1.8578889034688472747802734375</LongitudeDegrees>
            </Position>
            <AltitudeMeters>679.5999755859375</AltitudeMeters>
            <DistanceMeters>NAN</DistanceMeters>
          </Trackpoint>
          <Trackpoint>
            <Time>2021-08-28T09:07:12.000Z</Time>
            <Position>
              <LatitudeDegrees>38.148919008672237396240234375</LatitudeDegrees>
              <LongitudeDegrees>-1.85800314880907535552978515625</LongitudeDegrees>
            </Position>
            <AltitudeMeters>681</AltitudeMeters>
            <DistanceMeters>NAN</DistanceMeters>
          </Trackpoint>
          <Trackpoint>
            <Time>2021-08-28T09:07:14.000Z</Time>
            <Position>
              <LatitudeDegrees>38.14917742274701595306396484375</LatitudeDegrees>
              <LongitudeDegrees>-1.8580935895442962646484375</LongitudeDegrees>
            </Position>
            <AltitudeMeters>681.4000244140625</AltitudeMeters>
            <DistanceMeters>NAN</DistanceMeters>
          </Trackpoint>
          <Trackpoint>
            <Time>2021-08-28T09:07:17.000Z</Time>
            <Position>
              <LatitudeDegrees>38.14942829310894012451171875</LatitudeDegrees>
              <LongitudeDegrees>-1.85817196033895015716552734375</LongitudeDegrees>
            </Position>
            <AltitudeMeters>682</AltitudeMeters>
            <DistanceMeters>NAN</DistanceMeters>
          </Trackpoint>
          <Trackpoint>
            <Time>2021-08-28T09:07:21.000Z</Time>
            <Position>
              <LatitudeDegrees>38.14978343434631824493408203125</LatitudeDegrees>
              <LongitudeDegrees>-1.85828427784144878387451171875</LongitudeDegrees>
            </Position>
            <AltitudeMeters>682.4000244140625</AltitudeMeters>
            <DistanceMeters>NAN</DistanceMeters>
          </Trackpoint>
          <Trackpoint>
            <Time>2021-08-28T09:07:27.000Z</Time>
            <Position>
              <LatitudeDegrees>38.150351978838443756103515625</LatitudeDegrees>
              <LongitudeDegrees>-1.8584655784070491790771484375</LongitudeDegrees>
            </Position>
            <AltitudeMeters>681</AltitudeMeters>
            <DistanceMeters>NAN</DistanceMeters>
          </Trackpoint>
          <Trackpoint>
            <Time>2021-08-28T09:07:30.000Z</Time>
            <Position>
              <LatitudeDegrees>38.15054652281105518341064453125</LatitudeDegrees>
              <LongitudeDegrees>-1.85850237496197223663330078125</LongitudeDegrees>
            </Position>
            <AltitudeMeters>680</AltitudeMeters>
            <DistanceMeters>NAN</DistanceMeters>
          </Trackpoint>
          <Trackpoint>
            <Time>2021-08-28T09:07:31.000Z</Time>
            <Position>
              <LatitudeDegrees>38.15064442344009876251220703125</LatitudeDegrees>
              <LongitudeDegrees>-1.85850388370454311370849609375</LongitudeDegrees>
            </Position>
            <AltitudeMeters>680</AltitudeMeters>
            <DistanceMeters>NAN</DistanceMeters>
          </Trackpoint>
          <Trackpoint>
            <Time>2021-08-28T09:07:34.000Z</Time>
            <Position>
              <LatitudeDegrees>38.15102797932922840118408203125</LatitudeDegrees>
              <LongitudeDegrees>-1.85842576436698436737060546875</LongitudeDegrees>
            </Position>
            <AltitudeMeters>679.4000244140625</AltitudeMeters>
            <DistanceMeters>NAN</DistanceMeters>
          </Trackpoint>
          <Trackpoint>
            <Time>2021-08-28T09:07:37.000Z</Time>
            <Position>
              <LatitudeDegrees>38.151328973472118377685546875</LatitudeDegrees>
              <LongitudeDegrees>-1.85836315155029296875</LongitudeDegrees>
            </Position>
            <AltitudeMeters>678.79998779296875</AltitudeMeters>
            <DistanceMeters>NAN</DistanceMeters>
          </Trackpoint>
          <Trackpoint>
            <Time>2021-08-28T09:07:39.000Z</Time>
            <Position>
              <LatitudeDegrees>38.15153441391885280609130859375</LatitudeDegrees>
              <LongitudeDegrees>-1.85831562615931034088134765625</LongitudeDegrees>
            </Position>
            <AltitudeMeters>678.20001220703125</AltitudeMeters>
            <DistanceMeters>NAN</DistanceMeters>
          </Trackpoint>
          <Trackpoint>
            <Time>2021-08-28T09:07:40.000Z</Time>
            <Position>
              <LatitudeDegrees>38.15163617022335529327392578125</LatitudeDegrees>
              <LongitudeDegrees>-1.85829232446849346160888671875</LongitudeDegrees>
            </Position>
            <AltitudeMeters>677.79998779296875</AltitudeMeters>
            <DistanceMeters>NAN</DistanceMeters>
          </Trackpoint>
          <Trackpoint>
            <Time>2021-08-28T09:07:44.000Z</Time>
            <Position>
              <LatitudeDegrees>38.152033053338527679443359375</LatitudeDegrees>
              <LongitudeDegrees>-1.85820649378001689910888671875</LongitudeDegrees>
            </Position>
            <AltitudeMeters>676.79998779296875</AltitudeMeters>
            <DistanceMeters>NAN</DistanceMeters>
          </Trackpoint>
          <Trackpoint>
            <Time>2021-08-28T09:07:45.000Z</Time>
            <Position>
              <LatitudeDegrees>38.15212936140596866607666015625</LatitudeDegrees>
              <LongitudeDegrees>-1.85818067751824855804443359375</LongitudeDegrees>
            </Position>
            <AltitudeMeters>676.5999755859375</AltitudeMeters>
            <DistanceMeters>NAN</DistanceMeters>
          </Trackpoint>
          <Trackpoint>
            <Time>2021-08-28T09:07:50.000Z</Time>
            <Position>
              <LatitudeDegrees>38.1526060402393341064453125</LatitudeDegrees>
              <LongitudeDegrees>-1.85813591815531253814697265625</LongitudeDegrees>
            </Position>
            <AltitudeMeters>676.79998779296875</AltitudeMeters>
            <DistanceMeters>NAN</DistanceMeters>
          </Trackpoint>
          <Trackpoint>
            <Time>2021-08-28T09:07:51.000Z</Time>
            <Position>
              <LatitudeDegrees>38.1527051143348217010498046875</LatitudeDegrees>
              <LongitudeDegrees>-1.8581591360270977020263671875</LongitudeDegrees>
            </Position>
            <AltitudeMeters>676.5999755859375</AltitudeMeters>
            <DistanceMeters>NAN</DistanceMeters>
          </Trackpoint>
          <Trackpoint>
            <Time>2021-08-28T09:07:53.000Z</Time>
            <Position>
              <LatitudeDegrees>38.1528901867568492889404296875</LatitudeDegrees>
              <LongitudeDegrees>-1.858262233436107635498046875</LongitudeDegrees>
            </Position>
            <AltitudeMeters>676.79998779296875</AltitudeMeters>
            <DistanceMeters>NAN</DistanceMeters>
          </Trackpoint>
          <Trackpoint>
            <Time>2021-08-28T09:07:55.000Z</Time>
            <Position>
              <LatitudeDegrees>38.1530581600964069366455078125</LatitudeDegrees>
              <LongitudeDegrees>-1.85840095393359661102294921875</LongitudeDegrees>
            </Position>
            <AltitudeMeters>675.79998779296875</AltitudeMeters>
            <DistanceMeters>NAN</DistanceMeters>
          </Trackpoint>
          <Trackpoint>
            <Time>2021-08-28T09:07:56.000Z</Time>
            <Position>
              <LatitudeDegrees>38.1530581600964069366455078125</LatitudeDegrees>
              <LongitudeDegrees>-1.85840095393359661102294921875</LongitudeDegrees>
            </Position>
            <AltitudeMeters>675.4000244140625</AltitudeMeters>
            <DistanceMeters>NAN</DistanceMeters>
          </Trackpoint>
          <Trackpoint>
            <Time>2021-08-28T09:07:59.000Z</Time>
            <Position>
              <LatitudeDegrees>38.15338790416717529296875</LatitudeDegrees>
              <LongitudeDegrees>-1.858710162341594696044921875</LongitudeDegrees>
            </Position>
            <AltitudeMeters>674.4000244140625</AltitudeMeters>
            <DistanceMeters>NAN</DistanceMeters>
          </Trackpoint>
          <Trackpoint>
            <Time>2021-08-28T09:08:02.000Z</Time>
            <Position>
              <LatitudeDegrees>38.15363139845430850982666015625</LatitudeDegrees>
              <LongitudeDegrees>-1.85893856920301914215087890625</LongitudeDegrees>
            </Position>
            <AltitudeMeters>674</AltitudeMeters>
            <DistanceMeters>NAN</DistanceMeters>
          </Trackpoint>
          <Trackpoint>
            <Time>2021-08-28T09:08:07.000Z</Time>
            <Position>
              <LatitudeDegrees>38.15401981584727764129638671875</LatitudeDegrees>
              <LongitudeDegrees>-1.8593051098287105560302734375</LongitudeDegrees>
            </Position>
            <AltitudeMeters>674</AltitudeMeters>
            <DistanceMeters>NAN</DistanceMeters>
          </Trackpoint>
          <Trackpoint>
            <Time>2021-08-28T09:08:12.000Z</Time>
            <Position>
              <LatitudeDegrees>38.1544002704322338104248046875</LatitudeDegrees>
              <LongitudeDegrees>-1.85967718251049518585205078125</LongitudeDegrees>
            </Position>
            <AltitudeMeters>673.79998779296875</AltitudeMeters>
            <DistanceMeters>NAN</DistanceMeters>
          </Trackpoint>
          <Trackpoint>
            <Time>2021-08-28T09:08:18.000Z</Time>
            <Position>
              <LatitudeDegrees>38.15486622042953968048095703125</LatitudeDegrees>
              <LongitudeDegrees>-1.8601079285144805908203125</LongitudeDegrees>
            </Position>
            <AltitudeMeters>673.4000244140625</AltitudeMeters>
            <DistanceMeters>NAN</DistanceMeters>
          </Trackpoint>
          <Trackpoint>
            <Time>2021-08-28T09:08:20.000Z</Time>
            <Position>
              <LatitudeDegrees>38.15502665005624294281005859375</LatitudeDegrees>
              <LongitudeDegrees>-1.86025268398225307464599609375</LongitudeDegrees>
            </Position>
            <AltitudeMeters>673</AltitudeMeters>
            <DistanceMeters>NAN</DistanceMeters>
          </Trackpoint>
          <Trackpoint>
            <Time>2021-08-28T09:08:26.000Z</Time>
            <Position>
              <LatitudeDegrees>38.15548874437808990478515625</LatitudeDegrees>
              <LongitudeDegrees>-1.86067362315952777862548828125</LongitudeDegrees>
            </Position>
            <AltitudeMeters>673.79998779296875</AltitudeMeters>
            <DistanceMeters>NAN</DistanceMeters>
          </Trackpoint>
          <Trackpoint>
            <Time>2021-08-28T09:08:27.000Z</Time>
            <Position>
              <LatitudeDegrees>38.15556175075471401214599609375</LatitudeDegrees>
              <LongitudeDegrees>-1.8607421033084392547607421875</LongitudeDegrees>
            </Position>
            <AltitudeMeters>674</AltitudeMeters>
            <DistanceMeters>NAN</DistanceMeters>
          </Trackpoint>
          <Trackpoint>
            <Time>2021-08-28T09:08:32.000Z</Time>
            <Position>
              <LatitudeDegrees>38.1559453904628753662109375</LatitudeDegrees>
              <LongitudeDegrees>-1.86108735390007495880126953125</LongitudeDegrees>
            </Position>
            <AltitudeMeters>675.20001220703125</AltitudeMeters>
            <DistanceMeters>NAN</DistanceMeters>
          </Trackpoint>
          <Trackpoint>
            <Time>2021-08-28T09:08:34.000Z</Time>
            <Position>
              <LatitudeDegrees>38.15609131939709186553955078125</LatitudeDegrees>
              <LongitudeDegrees>-1.86122179962694644927978515625</LongitudeDegrees>
            </Position>
            <AltitudeMeters>676.20001220703125</AltitudeMeters>
            <DistanceMeters>NAN</DistanceMeters>
          </Trackpoint>
          <Trackpoint>
            <Time>2021-08-28T09:08:37.000Z</Time>
            <Position>
              <LatitudeDegrees>38.15631025470793247222900390625</LatitudeDegrees>
              <LongitudeDegrees>-1.861419863998889923095703125</LongitudeDegrees>
            </Position>
            <AltitudeMeters>677</AltitudeMeters>
            <DistanceMeters>NAN</DistanceMeters>
          </Trackpoint>
          <Trackpoint>
            <Time>2021-08-28T09:08:38.000Z</Time>
            <Position>
              <LatitudeDegrees>38.15638133324682712554931640625</LatitudeDegrees>
              <LongitudeDegrees>-1.86148767359554767608642578125</LongitudeDegrees>
            </Position>
            <AltitudeMeters>677.20001220703125</AltitudeMeters>
            <DistanceMeters>NAN</DistanceMeters>
          </Trackpoint>
          <Trackpoint>
            <Time>2021-08-28T09:08:40.000Z</Time>
            <Position>
              <LatitudeDegrees>38.1565289385616779327392578125</LatitudeDegrees>
              <LongitudeDegrees>-1.86162061057984828948974609375</LongitudeDegrees>
            </Position>
            <AltitudeMeters>677.4000244140625</AltitudeMeters>
            <DistanceMeters>NAN</DistanceMeters>
          </Trackpoint>
          <Trackpoint>
            <Time>2021-08-28T09:08:46.000Z</Time>
            <Position>
              <LatitudeDegrees>38.156974017620086669921875</LatitudeDegrees>
              <LongitudeDegrees>-1.8620315752923488616943359375</LongitudeDegrees>
            </Position>
            <AltitudeMeters>677.20001220703125</AltitudeMeters>
            <DistanceMeters>NAN</DistanceMeters>
          </Trackpoint>
          <Trackpoint>
            <Time>2021-08-28T09:08:47.000Z</Time>
            <Position>
              <LatitudeDegrees>38.1570419110357761383056640625</LatitudeDegrees>
              <LongitudeDegrees>-1.86209469102323055267333984375</LongitudeDegrees>
            </Position>
            <AltitudeMeters>677.20001220703125</AltitudeMeters>
            <DistanceMeters>NAN</DistanceMeters>
          </Trackpoint>
          <Trackpoint>
            <Time>2021-08-28T09:08:51.000Z</Time>
            <Position>
              <LatitudeDegrees>38.1572849862277507781982421875</LatitudeDegrees>
              <LongitudeDegrees>-1.862323097884654998779296875</LongitudeDegrees>
            </Position>
            <AltitudeMeters>678.5999755859375</AltitudeMeters>
            <DistanceMeters>NAN</DistanceMeters>
          </Trackpoint>
          <Trackpoint>
            <Time>2021-08-28T09:08:52.000Z</Time>
            <Position>
              <LatitudeDegrees>38.15734039060771465301513671875</LatitudeDegrees>
              <LongitudeDegrees>-1.86237372457981109619140625</LongitudeDegrees>
            </Position>
            <AltitudeMeters>679</AltitudeMeters>
            <DistanceMeters>NAN</DistanceMeters>
          </Trackpoint>
          <Trackpoint>
            <Time>2021-08-28T09:08:54.000Z</Time>
            <Position>
              <LatitudeDegrees>38.1574459187686443328857421875</LatitudeDegrees>
              <LongitudeDegrees>-1.862477995455265045166015625</LongitudeDegrees>
            </Position>
            <AltitudeMeters>679.79998779296875</AltitudeMeters>
            <DistanceMeters>NAN</DistanceMeters>
          </Trackpoint>
          <Trackpoint>
            <Time>2021-08-28T09:08:56.000Z</Time>
            <Position>
              <LatitudeDegrees>38.157550357282161712646484375</LatitudeDegrees>
              <LongitudeDegrees>-1.862581260502338409423828125</LongitudeDegrees>
            </Position>
            <AltitudeMeters>680.79998779296875</AltitudeMeters>
            <DistanceMeters>NAN</DistanceMeters>
          </Trackpoint>
          <Trackpoint>
            <Time>2021-08-28T09:08:59.000Z</Time>
            <Position>
              <LatitudeDegrees>38.1577231921255588531494140625</LatitudeDegrees>
              <LongitudeDegrees>-1.862736158072948455810546875</LongitudeDegrees>
            </Position>
            <AltitudeMeters>681.5999755859375</AltitudeMeters>
            <DistanceMeters>NAN</DistanceMeters>
          </Trackpoint>
          <Trackpoint>
            <Time>2021-08-28T09:09:01.000Z</Time>
            <Position>
              <LatitudeDegrees>38.15783576108515262603759765625</LatitudeDegrees>
              <LongitudeDegrees>-1.86283514834940433502197265625</LongitudeDegrees>
            </Position>
            <AltitudeMeters>682.20001220703125</AltitudeMeters>
            <DistanceMeters>NAN</DistanceMeters>
          </Trackpoint>
          <Trackpoint>
            <Time>2021-08-28T09:09:05.000Z</Time>
            <Position>
              <LatitudeDegrees>38.1580531038343906402587890625</LatitudeDegrees>
              <LongitudeDegrees>-1.8629859387874603271484375</LongitudeDegrees>
            </Position>
            <AltitudeMeters>683</AltitudeMeters>
            <DistanceMeters>NAN</DistanceMeters>
          </Trackpoint>
          <Trackpoint>
            <Time>2021-08-28T09:09:07.000Z</Time>
            <Position>
              <LatitudeDegrees>38.1581697799265384674072265625</LatitudeDegrees>
              <LongitudeDegrees>-1.86306162737309932708740234375</LongitudeDegrees>
            </Position>
            <AltitudeMeters>683.4000244140625</AltitudeMeters>
            <DistanceMeters>NAN</DistanceMeters>
          </Trackpoint>
          <Trackpoint>
            <Time>2021-08-28T09:09:10.000Z</Time>
            <Position>
              <LatitudeDegrees>38.15834797918796539306640625</LatitudeDegrees>
              <LongitudeDegrees>-1.86317092739045619964599609375</LongitudeDegrees>
            </Position>
            <AltitudeMeters>684.4000244140625</AltitudeMeters>
            <DistanceMeters>NAN</DistanceMeters>
          </Trackpoint>
          <Trackpoint>
            <Time>2021-08-28T09:09:12.000Z</Time>
            <Position>
              <LatitudeDegrees>38.15846993587911128997802734375</LatitudeDegrees>
              <LongitudeDegrees>-1.8632446043193340301513671875</LongitudeDegrees>
            </Position>
            <AltitudeMeters>685.20001220703125</AltitudeMeters>
            <DistanceMeters>NAN</DistanceMeters>
          </Trackpoint>
          <Trackpoint>
            <Time>2021-08-28T09:09:16.000Z</Time>
            <Position>
              <LatitudeDegrees>38.15871669910848140716552734375</LatitudeDegrees>
              <LongitudeDegrees>-1.86339690349996089935302734375</LongitudeDegrees>
            </Position>
            <AltitudeMeters>685.5999755859375</AltitudeMeters>
            <DistanceMeters>NAN</DistanceMeters>
          </Trackpoint>
          <Trackpoint>
            <Time>2021-08-28T09:09:18.000Z</Time>
            <Position>
              <LatitudeDegrees>38.15884460695087909698486328125</LatitudeDegrees>
              <LongitudeDegrees>-1.86347854323685169219970703125</LongitudeDegrees>
            </Position>
            <AltitudeMeters>685.79998779296875</AltitudeMeters>
            <DistanceMeters>NAN</DistanceMeters>
          </Trackpoint>
          <Trackpoint>
            <Time>2021-08-28T09:09:25.000Z</Time>
            <Position>
              <LatitudeDegrees>38.15932220779359340667724609375</LatitudeDegrees>
              <LongitudeDegrees>-1.86379454098641872406005859375</LongitudeDegrees>
            </Position>
            <AltitudeMeters>685.5999755859375</AltitudeMeters>
            <DistanceMeters>NAN</DistanceMeters>
          </Trackpoint>
          <Trackpoint>
            <Time>2021-08-28T09:09:32.000Z</Time>
            <Position>
              <LatitudeDegrees>38.15986745059490203857421875</LatitudeDegrees>
              <LongitudeDegrees>-1.86415781266987323760986328125</LongitudeDegrees>
            </Position>
            <AltitudeMeters>685.20001220703125</AltitudeMeters>
            <DistanceMeters>NAN</DistanceMeters>
          </Trackpoint>
          <Trackpoint>
            <Time>2021-08-28T09:09:33.000Z</Time>
            <Position>
              <LatitudeDegrees>38.1599497608840465545654296875</LatitudeDegrees>
              <LongitudeDegrees>-1.86421162448823451995849609375</LongitudeDegrees>
            </Position>
            <AltitudeMeters>685.20001220703125</AltitudeMeters>
            <DistanceMeters>NAN</DistanceMeters>
          </Trackpoint>
          <Trackpoint>
            <Time>2021-08-28T09:09:39.000Z</Time>
            <Position>
              <LatitudeDegrees>38.160473294556140899658203125</LatitudeDegrees>
              <LongitudeDegrees>-1.86455477960407733917236328125</LongitudeDegrees>
            </Position>
            <AltitudeMeters>684.5999755859375</AltitudeMeters>
            <DistanceMeters>NAN</DistanceMeters>
          </Trackpoint>
          <Trackpoint>
            <Time>2021-08-28T09:09:40.000Z</Time>
            <Position>
              <LatitudeDegrees>38.16056080162525177001953125</LatitudeDegrees>
              <LongitudeDegrees>-1.8646115250885486602783203125</LongitudeDegrees>
            </Position>
            <AltitudeMeters>684.4000244140625</AltitudeMeters>
            <DistanceMeters>NAN</DistanceMeters>
          </Trackpoint>
          <Trackpoint>
            <Time>2021-08-28T09:09:46.000Z</Time>
            <Position>
              <LatitudeDegrees>38.1610601954162120819091796875</LatitudeDegrees>
              <LongitudeDegrees>-1.8649466335773468017578125</LongitudeDegrees>
            </Position>
            <AltitudeMeters>684.20001220703125</AltitudeMeters>
            <DistanceMeters>NAN</DistanceMeters>
          </Trackpoint>
          <Trackpoint>
            <Time>2021-08-28T09:09:47.000Z</Time>
            <Position>
              <LatitudeDegrees>38.16114577464759349822998046875</LatitudeDegrees>
              <LongitudeDegrees>-1.8650031276047229766845703125</LongitudeDegrees>
            </Position>
            <AltitudeMeters>684.4000244140625</AltitudeMeters>
            <DistanceMeters>NAN</DistanceMeters>
          </Trackpoint>
          <Trackpoint>
            <Time>2021-08-28T09:09:53.000Z</Time>
            <Position>
              <LatitudeDegrees>38.161689005792140960693359375</LatitudeDegrees>
              <LongitudeDegrees>-1.8653588555753231048583984375</LongitudeDegrees>
            </Position>
            <AltitudeMeters>684.4000244140625</AltitudeMeters>
            <DistanceMeters>NAN</DistanceMeters>
          </Trackpoint>
          <Trackpoint>
            <Time>2021-08-28T09:09:56.000Z</Time>
            <Position>
              <LatitudeDegrees>38.161973319947719573974609375</LatitudeDegrees>
              <LongitudeDegrees>-1.86554610729217529296875</LongitudeDegrees>
            </Position>
            <AltitudeMeters>683.4000244140625</AltitudeMeters>
            <DistanceMeters>NAN</DistanceMeters>
          </Trackpoint>
          <Trackpoint>
            <Time>2021-08-28T09:10:01.000Z</Time>
            <Position>
              <LatitudeDegrees>38.162460140883922576904296875</LatitudeDegrees>
              <LongitudeDegrees>-1.86587358824908733367919921875</LongitudeDegrees>
            </Position>
            <AltitudeMeters>682.20001220703125</AltitudeMeters>
            <DistanceMeters>NAN</DistanceMeters>
          </Trackpoint>
          <Trackpoint>
            <Time>2021-08-28T09:10:04.000Z</Time>
            <Position>
              <LatitudeDegrees>38.16275753080844879150390625</LatitudeDegrees>
              <LongitudeDegrees>-1.8660709820687770843505859375</LongitudeDegrees>
            </Position>
            <AltitudeMeters>681.79998779296875</AltitudeMeters>
            <DistanceMeters>NAN</DistanceMeters>
          </Trackpoint>
          <Trackpoint>
            <Time>2021-08-28T09:10:06.000Z</Time>
            <Position>
              <LatitudeDegrees>38.162957020103931427001953125</LatitudeDegrees>
              <LongitudeDegrees>-1.86620391905307769775390625</LongitudeDegrees>
            </Position>
            <AltitudeMeters>681.20001220703125</AltitudeMeters>
            <DistanceMeters>NAN</DistanceMeters>
          </Trackpoint>
          <Trackpoint>
            <Time>2021-08-28T09:10:09.000Z</Time>
            <Position>
              <LatitudeDegrees>38.16326589323580265045166015625</LatitudeDegrees>
              <LongitudeDegrees>-1.86638639308512210845947265625</LongitudeDegrees>
            </Position>
            <AltitudeMeters>680.20001220703125</AltitudeMeters>
            <DistanceMeters>NAN</DistanceMeters>
          </Trackpoint>
          <Trackpoint>
            <Time>2021-08-28T09:10:10.000Z</Time>
            <Position>
              <LatitudeDegrees>38.1633729301393032073974609375</LatitudeDegrees>
              <LongitudeDegrees>-1.86642779968678951263427734375</LongitudeDegrees>
            </Position>
            <AltitudeMeters>680</AltitudeMeters>
            <DistanceMeters>NAN</DistanceMeters>
          </Trackpoint>
          <Trackpoint>
            <Time>2021-08-28T09:10:11.000Z</Time>
            <Position>
              <LatitudeDegrees>38.16348063759505748748779296875</LatitudeDegrees>
              <LongitudeDegrees>-1.8664565496146678924560546875</LongitudeDegrees>
            </Position>
            <AltitudeMeters>679.5999755859375</AltitudeMeters>
            <DistanceMeters>NAN</DistanceMeters>
          </Trackpoint>
          <Trackpoint>
            <Time>2021-08-28T09:10:13.000Z</Time>
            <Position>
              <LatitudeDegrees>38.16369496285915374755859375</LatitudeDegrees>
              <LongitudeDegrees>-1.86648630537092685699462890625</LongitudeDegrees>
            </Position>
            <AltitudeMeters>679.20001220703125</AltitudeMeters>
            <DistanceMeters>NAN</DistanceMeters>
          </Trackpoint>
          <Trackpoint>
            <Time>2021-08-28T09:10:14.000Z</Time>
            <Position>
              <LatitudeDegrees>38.16380250267684459686279296875</LatitudeDegrees>
              <LongitudeDegrees>-1.8664974533021450042724609375</LongitudeDegrees>
            </Position>
            <AltitudeMeters>678.79998779296875</AltitudeMeters>
            <DistanceMeters>NAN</DistanceMeters>
          </Trackpoint>
          <Trackpoint>
            <Time>2021-08-28T09:10:20.000Z</Time>
            <Position>
              <LatitudeDegrees>38.164421506226062774658203125</LatitudeDegrees>
              <LongitudeDegrees>-1.86654497869312763214111328125</LongitudeDegrees>
            </Position>
            <AltitudeMeters>678.5999755859375</AltitudeMeters>
            <DistanceMeters>NAN</DistanceMeters>
          </Trackpoint>
          <Trackpoint>
            <Time>2021-08-28T09:10:21.000Z</Time>
            <Position>
              <LatitudeDegrees>38.1645282916724681854248046875</LatitudeDegrees>
              <LongitudeDegrees>-1.8665532767772674560546875</LongitudeDegrees>
            </Position>
            <AltitudeMeters>678.5999755859375</AltitudeMeters>
            <DistanceMeters>NAN</DistanceMeters>
          </Trackpoint>
          <Trackpoint>
            <Time>2021-08-28T09:10:24.000Z</Time>
            <Position>
              <LatitudeDegrees>38.1648530066013336181640625</LatitudeDegrees>
              <LongitudeDegrees>-1.866578422486782073974609375</LongitudeDegrees>
            </Position>
            <AltitudeMeters>678</AltitudeMeters>
            <DistanceMeters>NAN</DistanceMeters>
          </Trackpoint>
          <Trackpoint>
            <Time>2021-08-28T09:10:29.000Z</Time>
            <Position>
              <LatitudeDegrees>38.16540948115289211273193359375</LatitudeDegrees>
              <LongitudeDegrees>-1.86662443913519382476806640625</LongitudeDegrees>
            </Position>
            <AltitudeMeters>676.79998779296875</AltitudeMeters>
            <DistanceMeters>NAN</DistanceMeters>
          </Trackpoint>
          <Trackpoint>
            <Time>2021-08-28T09:10:33.000Z</Time>
            <Position>
              <LatitudeDegrees>38.1658683903515338897705078125</LatitudeDegrees>
              <LongitudeDegrees>-1.86666115187108516693115234375</LongitudeDegrees>
            </Position>
            <AltitudeMeters>675.79998779296875</AltitudeMeters>
            <DistanceMeters>NAN</DistanceMeters>
          </Trackpoint>
          <Trackpoint>
            <Time>2021-08-28T09:10:36.000Z</Time>
            <Position>
              <LatitudeDegrees>38.16622571088373661041259765625</LatitudeDegrees>
              <LongitudeDegrees>-1.86668797396123409271240234375</LongitudeDegrees>
            </Position>
            <AltitudeMeters>675.5999755859375</AltitudeMeters>
            <DistanceMeters>NAN</DistanceMeters>
          </Trackpoint>
          <Trackpoint>
            <Time>2021-08-28T09:10:38.000Z</Time>
            <Position>
              <LatitudeDegrees>38.1664641760289669036865234375</LatitudeDegrees>
              <LongitudeDegrees>-1.86670959927141666412353515625</LongitudeDegrees>
            </Position>
            <AltitudeMeters>674.4000244140625</AltitudeMeters>
            <DistanceMeters>NAN</DistanceMeters>
          </Trackpoint>
          <Trackpoint>
            <Time>2021-08-28T09:10:41.000Z</Time>
            <Position>
              <LatitudeDegrees>38.16682401113212108612060546875</LatitudeDegrees>
              <LongitudeDegrees>-1.86674580909311771392822265625</LongitudeDegrees>
            </Position>
            <AltitudeMeters>673.20001220703125</AltitudeMeters>
            <DistanceMeters>NAN</DistanceMeters>
          </Trackpoint>
          <Trackpoint>
            <Time>2021-08-28T09:10:43.000Z</Time>
            <Position>
              <LatitudeDegrees>38.1670602969825267791748046875</LatitudeDegrees>
              <LongitudeDegrees>-1.8667639978229999542236328125</LongitudeDegrees>
            </Position>
            <AltitudeMeters>672.5999755859375</AltitudeMeters>
            <DistanceMeters>NAN</DistanceMeters>
          </Trackpoint>
          <Trackpoint>
            <Time>2021-08-28T09:10:45.000Z</Time>
            <Position>
              <LatitudeDegrees>38.1672964990139007568359375</LatitudeDegrees>
              <LongitudeDegrees>-1.8667864613234996795654296875</LongitudeDegrees>
            </Position>
            <AltitudeMeters>671.79998779296875</AltitudeMeters>
            <DistanceMeters>NAN</DistanceMeters>
          </Trackpoint>
          <Trackpoint>
            <Time>2021-08-28T09:10:47.000Z</Time>
            <Position>
              <LatitudeDegrees>38.1675441004335880279541015625</LatitudeDegrees>
              <LongitudeDegrees>-1.8668139539659023284912109375</LongitudeDegrees>
            </Position>
            <AltitudeMeters>670.5999755859375</AltitudeMeters>
            <DistanceMeters>NAN</DistanceMeters>
          </Trackpoint>
          <Trackpoint>
            <Time>2021-08-28T09:10:49.000Z</Time>
            <Position>
              <LatitudeDegrees>38.16779765300452709197998046875</LatitudeDegrees>
              <LongitudeDegrees>-1.86683901585638523101806640625</LongitudeDegrees>
            </Position>
            <AltitudeMeters>669.4000244140625</AltitudeMeters>
            <DistanceMeters>NAN</DistanceMeters>
          </Trackpoint>
          <Trackpoint>
            <Time>2021-08-28T09:10:52.000Z</Time>
            <Position>
              <LatitudeDegrees>38.168185316026210784912109375</LatitudeDegrees>
              <LongitudeDegrees>-1.8668870441615581512451171875</LongitudeDegrees>
            </Position>
            <AltitudeMeters>668.4000244140625</AltitudeMeters>
            <DistanceMeters>NAN</DistanceMeters>
          </Trackpoint>
          <Trackpoint>
            <Time>2021-08-28T09:10:53.000Z</Time>
            <Position>
              <LatitudeDegrees>38.16831397823989391326904296875</LatitudeDegrees>
              <LongitudeDegrees>-1.86691612936556339263916015625</LongitudeDegrees>
            </Position>
            <AltitudeMeters>667.4000244140625</AltitudeMeters>
            <DistanceMeters>NAN</DistanceMeters>
          </Trackpoint>
          <Trackpoint>
            <Time>2021-08-28T09:10:55.000Z</Time>
            <Position>
              <LatitudeDegrees>38.16856979392468929290771484375</LatitudeDegrees>
              <LongitudeDegrees>-1.86701218597590923309326171875</LongitudeDegrees>
            </Position>
            <AltitudeMeters>666.20001220703125</AltitudeMeters>
            <DistanceMeters>NAN</DistanceMeters>
          </Trackpoint>
          <Trackpoint>
            <Time>2021-08-28T09:10:58.000Z</Time>
            <Position>
              <LatitudeDegrees>38.16892661154270172119140625</LatitudeDegrees>
              <LongitudeDegrees>-1.86724352650344371795654296875</LongitudeDegrees>
            </Position>
            <AltitudeMeters>665.4000244140625</AltitudeMeters>
            <DistanceMeters>NAN</DistanceMeters>
          </Trackpoint>
          <Trackpoint>
            <Time>2021-08-28T09:10:59.000Z</Time>
            <Position>
              <LatitudeDegrees>38.16903389990329742431640625</LatitudeDegrees>
              <LongitudeDegrees>-1.86734477989375591278076171875</LongitudeDegrees>
            </Position>
            <AltitudeMeters>664.79998779296875</AltitudeMeters>
            <DistanceMeters>NAN</DistanceMeters>
          </Trackpoint>
          <Trackpoint>
            <Time>2021-08-28T09:11:01.000Z</Time>
            <Position>
              <LatitudeDegrees>38.169233389198780059814453125</LatitudeDegrees>
              <LongitudeDegrees>-1.8675787188112735748291015625</LongitudeDegrees>
            </Position>
            <AltitudeMeters>663.4000244140625</AltitudeMeters>
            <DistanceMeters>NAN</DistanceMeters>
          </Trackpoint>
          <Trackpoint>
            <Time>2021-08-28T09:11:02.000Z</Time>
            <Position>
              <LatitudeDegrees>38.16932223737239837646484375</LatitudeDegrees>
              <LongitudeDegrees>-1.8677114881575107574462890625</LongitudeDegrees>
            </Position>
            <AltitudeMeters>662.79998779296875</AltitudeMeters>
            <DistanceMeters>NAN</DistanceMeters>
          </Trackpoint>
          <Trackpoint>
            <Time>2021-08-28T09:11:03.000Z</Time>
            <Position>
              <LatitudeDegrees>38.16940211690962314605712890625</LatitudeDegrees>
              <LongitudeDegrees>-1.86785490252077579498291015625</LongitudeDegrees>
            </Position>
            <AltitudeMeters>662</AltitudeMeters>
            <DistanceMeters>NAN</DistanceMeters>
          </Trackpoint>
          <Trackpoint>
            <Time>2021-08-28T09:11:04.000Z</Time>
            <Position>
              <LatitudeDegrees>38.16947604529559612274169921875</LatitudeDegrees>
              <LongitudeDegrees>-1.86800678260624408721923828125</LongitudeDegrees>
            </Position>
            <AltitudeMeters>661.20001220703125</AltitudeMeters>
            <DistanceMeters>NAN</DistanceMeters>
          </Trackpoint>
          <Trackpoint>
            <Time>2021-08-28T09:11:05.000Z</Time>
            <Position>
              <LatitudeDegrees>38.16954729147255420684814453125</LatitudeDegrees>
              <LongitudeDegrees>-1.868166960775852203369140625</LongitudeDegrees>
            </Position>
            <AltitudeMeters>660.5999755859375</AltitudeMeters>
            <DistanceMeters>NAN</DistanceMeters>
          </Trackpoint>
          <Trackpoint>
            <Time>2021-08-28T09:11:07.000Z</Time>
            <Position>
              <LatitudeDegrees>38.169675283133983612060546875</LatitudeDegrees>
              <LongitudeDegrees>-1.86849930323660373687744140625</LongitudeDegrees>
            </Position>
            <AltitudeMeters>659.4000244140625</AltitudeMeters>
            <DistanceMeters>NAN</DistanceMeters>
          </Trackpoint>
          <Trackpoint>
            <Time>2021-08-28T09:11:09.000Z</Time>
            <Position>
              <LatitudeDegrees>38.169808052480220794677734375</LatitudeDegrees>
              <LongitudeDegrees>-1.86884078197181224822998046875</LongitudeDegrees>
            </Position>
            <AltitudeMeters>658.20001220703125</AltitudeMeters>
            <DistanceMeters>NAN</DistanceMeters>
          </Trackpoint>
          <Trackpoint>
            <Time>2021-08-28T09:11:11.000Z</Time>
            <Position>
              <LatitudeDegrees>38.16994375549256801605224609375</LatitudeDegrees>
              <LongitudeDegrees>-1.8691873736679553985595703125</LongitudeDegrees>
            </Position>
            <AltitudeMeters>656.5999755859375</AltitudeMeters>
            <DistanceMeters>NAN</DistanceMeters>
          </Trackpoint>
          <Trackpoint>
            <Time>2021-08-28T09:11:12.000Z</Time>
            <Position>
              <LatitudeDegrees>38.1700177676975727081298828125</LatitudeDegrees>
              <LongitudeDegrees>-1.869359202682971954345703125</LongitudeDegrees>
            </Position>
            <AltitudeMeters>655.4000244140625</AltitudeMeters>
            <DistanceMeters>NAN</DistanceMeters>
          </Trackpoint>
          <Trackpoint>
            <Time>2021-08-28T09:11:13.000Z</Time>
            <Position>
              <LatitudeDegrees>38.17009999416768550872802734375</LatitudeDegrees>
              <LongitudeDegrees>-1.8695246614515781402587890625</LongitudeDegrees>
            </Position>
            <AltitudeMeters>654.20001220703125</AltitudeMeters>
            <DistanceMeters>NAN</DistanceMeters>
          </Trackpoint>
          <Trackpoint>
            <Time>2021-08-28T09:11:14.000Z</Time>
            <Position>
              <LatitudeDegrees>38.17018951289355754852294921875</LatitudeDegrees>
              <LongitudeDegrees>-1.86968081630766391754150390625</LongitudeDegrees>
            </Position>
            <AltitudeMeters>653</AltitudeMeters>
            <DistanceMeters>NAN</DistanceMeters>
          </Trackpoint>
          <Trackpoint>
            <Time>2021-08-28T09:11:16.000Z</Time>
            <Position>
              <LatitudeDegrees>38.17038380540907382965087890625</LatitudeDegrees>
              <LongitudeDegrees>-1.8699596822261810302734375</LongitudeDegrees>
            </Position>
            <AltitudeMeters>651.5999755859375</AltitudeMeters>
            <DistanceMeters>NAN</DistanceMeters>
          </Trackpoint>
          <Trackpoint>
            <Time>2021-08-28T09:11:18.000Z</Time>
            <Position>
              <LatitudeDegrees>38.17058731801807880401611328125</LatitudeDegrees>
              <LongitudeDegrees>-1.87022010795772075653076171875</LongitudeDegrees>
            </Position>
            <AltitudeMeters>650.20001220703125</AltitudeMeters>
            <DistanceMeters>NAN</DistanceMeters>
          </Trackpoint>
          <Trackpoint>
            <Time>2021-08-28T09:11:19.000Z</Time>
            <Position>
              <LatitudeDegrees>38.17069008015096187591552734375</LatitudeDegrees>
              <LongitudeDegrees>-1.8703486025333404541015625</LongitudeDegrees>
            </Position>
            <AltitudeMeters>649.5999755859375</AltitudeMeters>
            <DistanceMeters>NAN</DistanceMeters>
          </Trackpoint>
          <Trackpoint>
            <Time>2021-08-28T09:11:20.000Z</Time>
            <Position>
              <LatitudeDegrees>38.17079418338835239410400390625</LatitudeDegrees>
              <LongitudeDegrees>-1.87047994695603847503662109375</LongitudeDegrees>
            </Position>
            <AltitudeMeters>648.5999755859375</AltitudeMeters>
            <DistanceMeters>NAN</DistanceMeters>
          </Trackpoint>
          <Trackpoint>
            <Time>2021-08-28T09:11:22.000Z</Time>
            <Position>
              <LatitudeDegrees>38.17100021056830883026123046875</LatitudeDegrees>
              <LongitudeDegrees>-1.87074028886854648590087890625</LongitudeDegrees>
            </Position>
            <AltitudeMeters>647</AltitudeMeters>
            <DistanceMeters>NAN</DistanceMeters>
          </Trackpoint>
          <Trackpoint>
            <Time>2021-08-28T09:11:24.000Z</Time>
            <Position>
              <LatitudeDegrees>38.1712073273956775665283203125</LatitudeDegrees>
              <LongitudeDegrees>-1.870999373495578765869140625</LongitudeDegrees>
            </Position>
            <AltitudeMeters>645.5999755859375</AltitudeMeters>
            <DistanceMeters>NAN</DistanceMeters>
          </Trackpoint>
          <Trackpoint>
            <Time>2021-08-28T09:11:26.000Z</Time>
            <Position>
              <LatitudeDegrees>38.17140572704374790191650390625</LatitudeDegrees>
              <LongitudeDegrees>-1.8712553568184375762939453125</LongitudeDegrees>
            </Position>
            <AltitudeMeters>644.4000244140625</AltitudeMeters>
            <DistanceMeters>NAN</DistanceMeters>
          </Trackpoint>
          <Trackpoint>
            <Time>2021-08-28T09:11:27.000Z</Time>
            <Position>
              <LatitudeDegrees>38.17150396294891834259033203125</LatitudeDegrees>
              <LongitudeDegrees>-1.87138234265148639678955078125</LongitudeDegrees>
            </Position>
            <AltitudeMeters>643.4000244140625</AltitudeMeters>
            <DistanceMeters>NAN</DistanceMeters>
          </Trackpoint>
          <Trackpoint>
            <Time>2021-08-28T09:11:28.000Z</Time>
            <Position>
              <LatitudeDegrees>38.17160286940634250640869140625</LatitudeDegrees>
              <LongitudeDegrees>-1.87150664627552032470703125</LongitudeDegrees>
            </Position>
            <AltitudeMeters>642.79998779296875</AltitudeMeters>
            <DistanceMeters>NAN</DistanceMeters>
          </Trackpoint>
          <Trackpoint>
            <Time>2021-08-28T09:11:29.000Z</Time>
            <Position>
              <LatitudeDegrees>38.17169867455959320068359375</LatitudeDegrees>
              <LongitudeDegrees>-1.87162726186215877532958984375</LongitudeDegrees>
            </Position>
            <AltitudeMeters>642</AltitudeMeters>
            <DistanceMeters>NAN</DistanceMeters>
          </Trackpoint>
          <Trackpoint>
            <Time>2021-08-28T09:11:34.000Z</Time>
            <Position>
              <LatitudeDegrees>38.17214987240731716156005859375</LatitudeDegrees>
              <LongitudeDegrees>-1.87221030704677104949951171875</LongitudeDegrees>
            </Position>
            <AltitudeMeters>641</AltitudeMeters>
            <DistanceMeters>NAN</DistanceMeters>
          </Trackpoint>
          <Trackpoint>
            <Time>2021-08-28T09:11:35.000Z</Time>
            <Position>
              <LatitudeDegrees>38.172238133847713470458984375</LatitudeDegrees>
              <LongitudeDegrees>-1.872322373092174530029296875</LongitudeDegrees>
            </Position>
            <AltitudeMeters>641</AltitudeMeters>
            <DistanceMeters>NAN</DistanceMeters>
          </Trackpoint>
          <Trackpoint>
            <Time>2021-08-28T09:11:36.000Z</Time>
            <Position>
              <LatitudeDegrees>38.17232589237391948699951171875</LatitudeDegrees>
              <LongitudeDegrees>-1.87243334949016571044921875</LongitudeDegrees>
            </Position>
            <AltitudeMeters>641</AltitudeMeters>
            <DistanceMeters>NAN</DistanceMeters>
          </Trackpoint>
          <Trackpoint>
            <Time>2021-08-28T09:11:41.000Z</Time>
            <Position>
              <LatitudeDegrees>38.17274733446538448333740234375</LatitudeDegrees>
              <LongitudeDegrees>-1.87296987511217594146728515625</LongitudeDegrees>
            </Position>
            <AltitudeMeters>639.79998779296875</AltitudeMeters>
            <DistanceMeters>NAN</DistanceMeters>
          </Trackpoint>
          <Trackpoint>
            <Time>2021-08-28T09:11:42.000Z</Time>
            <Position>
              <LatitudeDegrees>38.1728283874690532684326171875</LatitudeDegrees>
              <LongitudeDegrees>-1.8730723857879638671875</LongitudeDegrees>
            </Position>
            <AltitudeMeters>639.5999755859375</AltitudeMeters>
            <DistanceMeters>NAN</DistanceMeters>
          </Trackpoint>
          <Trackpoint>
            <Time>2021-08-28T09:11:47.000Z</Time>
            <Position>
              <LatitudeDegrees>38.173218481242656707763671875</LatitudeDegrees>
              <LongitudeDegrees>-1.8735603801906108856201171875</LongitudeDegrees>
            </Position>
            <AltitudeMeters>639.79998779296875</AltitudeMeters>
            <DistanceMeters>NAN</DistanceMeters>
          </Trackpoint>
          <Trackpoint>
            <Time>2021-08-28T09:11:49.000Z</Time>
            <Position>
              <LatitudeDegrees>38.17336759530007839202880859375</LatitudeDegrees>
              <LongitudeDegrees>-1.87375123612582683563232421875</LongitudeDegrees>
            </Position>
            <AltitudeMeters>640</AltitudeMeters>
            <DistanceMeters>NAN</DistanceMeters>
          </Trackpoint>
          <Trackpoint>
            <Time>2021-08-28T09:11:55.000Z</Time>
            <Position>
              <LatitudeDegrees>38.173798508942127227783203125</LatitudeDegrees>
              <LongitudeDegrees>-1.87431617639958858489990234375</LongitudeDegrees>
            </Position>
            <AltitudeMeters>640</AltitudeMeters>
            <DistanceMeters>NAN</DistanceMeters>
          </Trackpoint>
          <Trackpoint>
            <Time>2021-08-28T09:11:57.000Z</Time>
            <Position>
              <LatitudeDegrees>38.17394058220088481903076171875</LatitudeDegrees>
              <LongitudeDegrees>-1.8745006620883941650390625</LongitudeDegrees>
            </Position>
            <AltitudeMeters>640</AltitudeMeters>
            <DistanceMeters>NAN</DistanceMeters>
          </Trackpoint>
          <Trackpoint>
            <Time>2021-08-28T09:12:03.000Z</Time>
            <Position>
              <LatitudeDegrees>38.17436101846396923065185546875</LatitudeDegrees>
              <LongitudeDegrees>-1.87503735534846782684326171875</LongitudeDegrees>
            </Position>
            <AltitudeMeters>640.5999755859375</AltitudeMeters>
            <DistanceMeters>NAN</DistanceMeters>
          </Trackpoint>
          <Trackpoint>
            <Time>2021-08-28T09:12:05.000Z</Time>
            <Position>
              <LatitudeDegrees>38.17450066097080707550048828125</LatitudeDegrees>
              <LongitudeDegrees>-1.87520767562091350555419921875</LongitudeDegrees>
            </Position>
            <AltitudeMeters>640.79998779296875</AltitudeMeters>
            <DistanceMeters>NAN</DistanceMeters>
          </Trackpoint>
          <Trackpoint>
            <Time>2021-08-28T09:12:06.000Z</Time>
            <Position>
              <LatitudeDegrees>38.1745678000152111053466796875</LatitudeDegrees>
              <LongitudeDegrees>-1.87529182992875576019287109375</LongitudeDegrees>
            </Position>
            <AltitudeMeters>640.79998779296875</AltitudeMeters>
            <DistanceMeters>NAN</DistanceMeters>
          </Trackpoint>
          <Trackpoint>
            <Time>2021-08-28T09:12:10.000Z</Time>
            <Position>
              <LatitudeDegrees>38.17482654936611652374267578125</LatitudeDegrees>
              <LongitudeDegrees>-1.8756199814379215240478515625</LongitudeDegrees>
            </Position>
            <AltitudeMeters>642</AltitudeMeters>
            <DistanceMeters>NAN</DistanceMeters>
          </Trackpoint>
          <Trackpoint>
            <Time>2021-08-28T09:12:14.000Z</Time>
            <Position>
              <LatitudeDegrees>38.17506627179682254791259765625</LatitudeDegrees>
              <LongitudeDegrees>-1.87592365778982639312744140625</LongitudeDegrees>
            </Position>
            <AltitudeMeters>642.79998779296875</AltitudeMeters>
            <DistanceMeters>NAN</DistanceMeters>
          </Trackpoint>
          <Trackpoint>
            <Time>2021-08-28T09:12:15.000Z</Time>
            <Position>
              <LatitudeDegrees>38.17512779496610164642333984375</LatitudeDegrees>
              <LongitudeDegrees>-1.875987611711025238037109375</LongitudeDegrees>
            </Position>
            <AltitudeMeters>643</AltitudeMeters>
            <DistanceMeters>NAN</DistanceMeters>
          </Trackpoint>
          <Trackpoint>
            <Time>2021-08-28T09:12:17.000Z</Time>
            <Position>
              <LatitudeDegrees>38.175262995064258575439453125</LatitudeDegrees>
              <LongitudeDegrees>-1.8760796450078487396240234375</LongitudeDegrees>
            </Position>
            <AltitudeMeters>643.4000244140625</AltitudeMeters>
            <DistanceMeters>NAN</DistanceMeters>
          </Trackpoint>
          <Trackpoint>
            <Time>2021-08-28T09:12:18.000Z</Time>
            <Position>
              <LatitudeDegrees>38.17532912828028202056884765625</LatitudeDegrees>
              <LongitudeDegrees>-1.8761287629604339599609375</LongitudeDegrees>
            </Position>
            <AltitudeMeters>643.5999755859375</AltitudeMeters>
            <DistanceMeters>NAN</DistanceMeters>
          </Trackpoint>
          <Trackpoint>
            <Time>2021-08-28T09:12:20.000Z</Time>
            <Position>
              <LatitudeDegrees>38.17542350850999355316162109375</LatitudeDegrees>
              <LongitudeDegrees>-1.876276619732379913330078125</LongitudeDegrees>
            </Position>
            <AltitudeMeters>644.20001220703125</AltitudeMeters>
            <DistanceMeters>NAN</DistanceMeters>
          </Trackpoint>
          <Trackpoint>
            <Time>2021-08-28T09:12:24.000Z</Time>
            <Position>
              <LatitudeDegrees>38.1755364127457141876220703125</LatitudeDegrees>
              <LongitudeDegrees>-1.87662606127560138702392578125</LongitudeDegrees>
            </Position>
            <AltitudeMeters>644.5999755859375</AltitudeMeters>
            <DistanceMeters>NAN</DistanceMeters>
          </Trackpoint>
          <Trackpoint>
            <Time>2021-08-28T09:12:32.000Z</Time>
            <Position>
              <LatitudeDegrees>38.17588116042315959930419921875</LatitudeDegrees>
              <LongitudeDegrees>-1.87724799849092960357666015625</LongitudeDegrees>
            </Position>
            <AltitudeMeters>644.79998779296875</AltitudeMeters>
            <DistanceMeters>NAN</DistanceMeters>
          </Trackpoint>
          <Trackpoint>
            <Time>2021-08-28T09:12:39.000Z</Time>
            <Position>
              <LatitudeDegrees>38.17619347013533115386962890625</LatitudeDegrees>
              <LongitudeDegrees>-1.877834983170032501220703125</LongitudeDegrees>
            </Position>
            <AltitudeMeters>644.5999755859375</AltitudeMeters>
            <DistanceMeters>NAN</DistanceMeters>
          </Trackpoint>
          <Trackpoint>
            <Time>2021-08-28T09:12:40.000Z</Time>
            <Position>
              <LatitudeDegrees>38.17624032497406005859375</LatitudeDegrees>
              <LongitudeDegrees>-1.8779219873249530792236328125</LongitudeDegrees>
            </Position>
            <AltitudeMeters>644.4000244140625</AltitudeMeters>
            <DistanceMeters>NAN</DistanceMeters>
          </Trackpoint>
          <Trackpoint>
            <Time>2021-08-28T09:12:43.000Z</Time>
            <Position>
              <LatitudeDegrees>38.17638658918440341949462890625</LatitudeDegrees>
              <LongitudeDegrees>-1.87817151658236980438232421875</LongitudeDegrees>
            </Position>
            <AltitudeMeters>645.20001220703125</AltitudeMeters>
            <DistanceMeters>NAN</DistanceMeters>
          </Trackpoint>
          <Trackpoint>
            <Time>2021-08-28T09:12:48.000Z</Time>
            <Position>
              <LatitudeDegrees>38.17663134075701236724853515625</LatitudeDegrees>
              <LongitudeDegrees>-1.8785910308361053466796875</LongitudeDegrees>
            </Position>
            <AltitudeMeters>645.4000244140625</AltitudeMeters>
            <DistanceMeters>NAN</DistanceMeters>
          </Trackpoint>
          <Trackpoint>
            <Time>2021-08-28T09:12:52.000Z</Time>
            <Position>
              <LatitudeDegrees>38.17681767046451568603515625</LatitudeDegrees>
              <LongitudeDegrees>-1.87892069108784198760986328125</LongitudeDegrees>
            </Position>
            <AltitudeMeters>646.20001220703125</AltitudeMeters>
            <DistanceMeters>NAN</DistanceMeters>
          </Trackpoint>
          <Trackpoint>
            <Time>2021-08-28T09:12:55.000Z</Time>
            <Position>
              <LatitudeDegrees>38.1769496016204357147216796875</LatitudeDegrees>
              <LongitudeDegrees>-1.8791668675839900970458984375</LongitudeDegrees>
            </Position>
            <AltitudeMeters>647.79998779296875</AltitudeMeters>
            <DistanceMeters>NAN</DistanceMeters>
          </Trackpoint>
          <Trackpoint>
            <Time>2021-08-28T09:12:56.000Z</Time>
            <Position>
              <LatitudeDegrees>38.17699511535465717315673828125</LatitudeDegrees>
              <LongitudeDegrees>-1.8792436458170413970947265625</LongitudeDegrees>
            </Position>
            <AltitudeMeters>648.20001220703125</AltitudeMeters>
            <DistanceMeters>NAN</DistanceMeters>
          </Trackpoint>
          <Trackpoint>
            <Time>2021-08-28T09:13:02.000Z</Time>
            <Position>
              <LatitudeDegrees>38.17728010006248950958251953125</LatitudeDegrees>
              <LongitudeDegrees>-1.8797363340854644775390625</LongitudeDegrees>
            </Position>
            <AltitudeMeters>648.4000244140625</AltitudeMeters>
            <DistanceMeters>NAN</DistanceMeters>
          </Trackpoint>
          <Trackpoint>
            <Time>2021-08-28T09:13:05.000Z</Time>
            <Position>
              <LatitudeDegrees>38.17743097431957721710205078125</LatitudeDegrees>
              <LongitudeDegrees>-1.8799991905689239501953125</LongitudeDegrees>
            </Position>
            <AltitudeMeters>648.79998779296875</AltitudeMeters>
            <DistanceMeters>NAN</DistanceMeters>
          </Trackpoint>
          <Trackpoint>
            <Time>2021-08-28T09:13:10.000Z</Time>
            <Position>
              <LatitudeDegrees>38.17768494598567485809326171875</LatitudeDegrees>
              <LongitudeDegrees>-1.88044887967407703399658203125</LongitudeDegrees>
            </Position>
            <AltitudeMeters>650</AltitudeMeters>
            <DistanceMeters>NAN</DistanceMeters>
          </Trackpoint>
          <Trackpoint>
            <Time>2021-08-28T09:13:17.000Z</Time>
            <Position>
              <LatitudeDegrees>38.17803832702338695526123046875</LatitudeDegrees>
              <LongitudeDegrees>-1.881111972033977508544921875</LongitudeDegrees>
            </Position>
            <AltitudeMeters>649</AltitudeMeters>
            <DistanceMeters>NAN</DistanceMeters>
          </Trackpoint>
          <Trackpoint>
            <Time>2021-08-28T09:13:18.000Z</Time>
            <Position>
              <LatitudeDegrees>38.178090043365955352783203125</LatitudeDegrees>
              <LongitudeDegrees>-1.88121280632913112640380859375</LongitudeDegrees>
            </Position>
            <AltitudeMeters>648.20001220703125</AltitudeMeters>
            <DistanceMeters>NAN</DistanceMeters>
          </Trackpoint>
          <Trackpoint>
            <Time>2021-08-28T09:13:19.000Z</Time>
            <Position>
              <LatitudeDegrees>38.1781431846320629119873046875</LatitudeDegrees>
              <LongitudeDegrees>-1.8813146464526653289794921875</LongitudeDegrees>
            </Position>
            <AltitudeMeters>647.79998779296875</AltitudeMeters>
            <DistanceMeters>NAN</DistanceMeters>
          </Trackpoint>
          <Trackpoint>
            <Time>2021-08-28T09:13:25.000Z</Time>
            <Position>
              <LatitudeDegrees>38.1784452684223651885986328125</LatitudeDegrees>
              <LongitudeDegrees>-1.881936080753803253173828125</LongitudeDegrees>
            </Position>
            <AltitudeMeters>646.79998779296875</AltitudeMeters>
            <DistanceMeters>NAN</DistanceMeters>
          </Trackpoint>
          <Trackpoint>
            <Time>2021-08-28T09:13:29.000Z</Time>
            <Position>
              <LatitudeDegrees>38.17863930948078632354736328125</LatitudeDegrees>
              <LongitudeDegrees>-1.88235375098884105682373046875</LongitudeDegrees>
            </Position>
            <AltitudeMeters>646.79998779296875</AltitudeMeters>
            <DistanceMeters>NAN</DistanceMeters>
          </Trackpoint>
          <Trackpoint>
            <Time>2021-08-28T09:13:35.000Z</Time>
            <Position>
              <LatitudeDegrees>38.17892680875957012176513671875</LatitudeDegrees>
              <LongitudeDegrees>-1.8829846568405628204345703125</LongitudeDegrees>
            </Position>
            <AltitudeMeters>646.5999755859375</AltitudeMeters>
            <DistanceMeters>NAN</DistanceMeters>
          </Trackpoint>
          <Trackpoint>
            <Time>2021-08-28T09:13:41.000Z</Time>
            <Position>
              <LatitudeDegrees>38.17925269715487957000732421875</LatitudeDegrees>
              <LongitudeDegrees>-1.88358061015605926513671875</LongitudeDegrees>
            </Position>
            <AltitudeMeters>646</AltitudeMeters>
            <DistanceMeters>NAN</DistanceMeters>
          </Trackpoint>
          <Trackpoint>
            <Time>2021-08-28T09:13:42.000Z</Time>
            <Position>
              <LatitudeDegrees>38.1793154776096343994140625</LatitudeDegrees>
              <LongitudeDegrees>-1.883670799434185028076171875</LongitudeDegrees>
            </Position>
            <AltitudeMeters>646</AltitudeMeters>
            <DistanceMeters>NAN</DistanceMeters>
          </Trackpoint>
          <Trackpoint>
            <Time>2021-08-28T09:13:48.000Z</Time>
            <Position>
              <LatitudeDegrees>38.17971806041896343231201171875</LatitudeDegrees>
              <LongitudeDegrees>-1.88418804667890071868896484375</LongitudeDegrees>
            </Position>
            <AltitudeMeters>646</AltitudeMeters>
            <DistanceMeters>NAN</DistanceMeters>
          </Trackpoint>
          <Trackpoint>
            <Time>2021-08-28T09:13:49.000Z</Time>
            <Position>
              <LatitudeDegrees>38.17978561855852603912353515625</LatitudeDegrees>
              <LongitudeDegrees>-1.88427203334867954254150390625</LongitudeDegrees>
            </Position>
            <AltitudeMeters>646</AltitudeMeters>
            <DistanceMeters>NAN</DistanceMeters>
          </Trackpoint>
          <Trackpoint>
            <Time>2021-08-28T09:13:53.000Z</Time>
            <Position>
              <LatitudeDegrees>38.18005434237420558929443359375</LatitudeDegrees>
              <LongitudeDegrees>-1.884606890380382537841796875</LongitudeDegrees>
            </Position>
            <AltitudeMeters>645.5999755859375</AltitudeMeters>
            <DistanceMeters>NAN</DistanceMeters>
          </Trackpoint>
          <Trackpoint>
            <Time>2021-08-28T09:13:56.000Z</Time>
            <Position>
              <LatitudeDegrees>38.18025332875549793243408203125</LatitudeDegrees>
              <LongitudeDegrees>-1.884859688580036163330078125</LongitudeDegrees>
            </Position>
            <AltitudeMeters>645.4000244140625</AltitudeMeters>
            <DistanceMeters>NAN</DistanceMeters>
          </Trackpoint>
          <Trackpoint>
            <Time>2021-08-28T09:14:02.000Z</Time>
            <Position>
              <LatitudeDegrees>38.1806538999080657958984375</LatitudeDegrees>
              <LongitudeDegrees>-1.885380037128925323486328125</LongitudeDegrees>
            </Position>
            <AltitudeMeters>645.5999755859375</AltitudeMeters>
            <DistanceMeters>NAN</DistanceMeters>
          </Trackpoint>
          <Trackpoint>
            <Time>2021-08-28T09:14:05.000Z</Time>
            <Position>
              <LatitudeDegrees>38.18086805753409862518310546875</LatitudeDegrees>
              <LongitudeDegrees>-1.88565337099134922027587890625</LongitudeDegrees>
            </Position>
            <AltitudeMeters>645.79998779296875</AltitudeMeters>
            <DistanceMeters>NAN</DistanceMeters>
          </Trackpoint>
          <Trackpoint>
            <Time>2021-08-28T09:14:11.000Z</Time>
            <Position>
              <LatitudeDegrees>38.181295953691005706787109375</LatitudeDegrees>
              <LongitudeDegrees>-1.8862294591963291168212890625</LongitudeDegrees>
            </Position>
            <AltitudeMeters>646.5999755859375</AltitudeMeters>
            <DistanceMeters>NAN</DistanceMeters>
          </Trackpoint>
          <Trackpoint>
            <Time>2021-08-28T09:14:12.000Z</Time>
            <Position>
              <LatitudeDegrees>38.18136669695377349853515625</LatitudeDegrees>
              <LongitudeDegrees>-1.88632509671151638031005859375</LongitudeDegrees>
            </Position>
            <AltitudeMeters>647</AltitudeMeters>
            <DistanceMeters>NAN</DistanceMeters>
          </Trackpoint>
          <Trackpoint>
            <Time>2021-08-28T09:14:15.000Z</Time>
            <Position>
              <LatitudeDegrees>38.1815462373197078704833984375</LatitudeDegrees>
              <LongitudeDegrees>-1.88662684522569179534912109375</LongitudeDegrees>
            </Position>
            <AltitudeMeters>647.79998779296875</AltitudeMeters>
            <DistanceMeters>NAN</DistanceMeters>
          </Trackpoint>
          <Trackpoint>
            <Time>2021-08-28T09:14:16.000Z</Time>
            <Position>
              <LatitudeDegrees>38.1815918348729610443115234375</LatitudeDegrees>
              <LongitudeDegrees>-1.8867380730807781219482421875</LongitudeDegrees>
            </Position>
            <AltitudeMeters>647.4000244140625</AltitudeMeters>
            <DistanceMeters>NAN</DistanceMeters>
          </Trackpoint>
          <Trackpoint>
            <Time>2021-08-28T09:14:17.000Z</Time>
            <Position>
              <LatitudeDegrees>38.18162745796144008636474609375</LatitudeDegrees>
              <LongitudeDegrees>-1.886855252087116241455078125</LongitudeDegrees>
            </Position>
            <AltitudeMeters>647.20001220703125</AltitudeMeters>
            <DistanceMeters>NAN</DistanceMeters>
          </Trackpoint>
          <Trackpoint>
            <Time>2021-08-28T09:14:19.000Z</Time>
            <Position>
              <LatitudeDegrees>38.1816709600389003753662109375</LatitudeDegrees>
              <LongitudeDegrees>-1.88710109330713748931884765625</LongitudeDegrees>
            </Position>
            <AltitudeMeters>647</AltitudeMeters>
            <DistanceMeters>NAN</DistanceMeters>
          </Trackpoint>
          <Trackpoint>
            <Time>2021-08-28T09:14:24.000Z</Time>
            <Position>
              <LatitudeDegrees>38.1816997937858104705810546875</LatitudeDegrees>
              <LongitudeDegrees>-1.88773174770176410675048828125</LongitudeDegrees>
            </Position>
            <AltitudeMeters>647.5999755859375</AltitudeMeters>
            <DistanceMeters>NAN</DistanceMeters>
          </Trackpoint>
          <Trackpoint>
            <Time>2021-08-28T09:14:30.000Z</Time>
            <Position>
              <LatitudeDegrees>38.18172200582921504974365234375</LatitudeDegrees>
              <LongitudeDegrees>-1.88849735073745250701904296875</LongitudeDegrees>
            </Position>
            <AltitudeMeters>647.79998779296875</AltitudeMeters>
            <DistanceMeters>NAN</DistanceMeters>
          </Trackpoint>
          <Trackpoint>
            <Time>2021-08-28T09:14:32.000Z</Time>
            <Position>
              <LatitudeDegrees>38.18172837607562541961669921875</LatitudeDegrees>
              <LongitudeDegrees>-1.88876372762024402618408203125</LongitudeDegrees>
            </Position>
            <AltitudeMeters>647.4000244140625</AltitudeMeters>
            <DistanceMeters>NAN</DistanceMeters>
          </Trackpoint>
          <Trackpoint>
            <Time>2021-08-28T09:14:38.000Z</Time>
            <Position>
              <LatitudeDegrees>38.181784115731716156005859375</LatitudeDegrees>
              <LongitudeDegrees>-1.88961214385926723480224609375</LongitudeDegrees>
            </Position>
            <AltitudeMeters>646.5999755859375</AltitudeMeters>
            <DistanceMeters>NAN</DistanceMeters>
          </Trackpoint>
          <Trackpoint>
            <Time>2021-08-28T09:14:39.000Z</Time>
            <Position>
              <LatitudeDegrees>38.18181504495441913604736328125</LatitudeDegrees>
              <LongitudeDegrees>-1.8897565640509128570556640625</LongitudeDegrees>
            </Position>
            <AltitudeMeters>646.4000244140625</AltitudeMeters>
            <DistanceMeters>NAN</DistanceMeters>
          </Trackpoint>
          <Trackpoint>
            <Time>2021-08-28T09:14:40.000Z</Time>
            <Position>
              <LatitudeDegrees>38.18186600692570209503173828125</LatitudeDegrees>
              <LongitudeDegrees>-1.8898953683674335479736328125</LongitudeDegrees>
            </Position>
            <AltitudeMeters>646.20001220703125</AltitudeMeters>
            <DistanceMeters>NAN</DistanceMeters>
          </Trackpoint>
          <Trackpoint>
            <Time>2021-08-28T09:14:41.000Z</Time>
            <Position>
              <LatitudeDegrees>38.181936331093311309814453125</LatitudeDegrees>
              <LongitudeDegrees>-1.89002537168562412261962890625</LongitudeDegrees>
            </Position>
            <AltitudeMeters>645.79998779296875</AltitudeMeters>
            <DistanceMeters>NAN</DistanceMeters>
          </Trackpoint>
          <Trackpoint>
            <Time>2021-08-28T09:14:42.000Z</Time>
            <Position>
              <LatitudeDegrees>38.182023502886295318603515625</LatitudeDegrees>
              <LongitudeDegrees>-1.89013752155005931854248046875</LongitudeDegrees>
            </Position>
            <AltitudeMeters>645.5999755859375</AltitudeMeters>
            <DistanceMeters>NAN</DistanceMeters>
          </Trackpoint>
          <Trackpoint>
            <Time>2021-08-28T09:14:45.000Z</Time>
            <Position>
              <LatitudeDegrees>38.18230655975639820098876953125</LatitudeDegrees>
              <LongitudeDegrees>-1.8904338218271732330322265625</LongitudeDegrees>
            </Position>
            <AltitudeMeters>644.79998779296875</AltitudeMeters>
            <DistanceMeters>NAN</DistanceMeters>
          </Trackpoint>
          <Trackpoint>
            <Time>2021-08-28T09:14:47.000Z</Time>
            <Position>
              <LatitudeDegrees>38.182498253881931304931640625</LatitudeDegrees>
              <LongitudeDegrees>-1.89061813987791538238525390625</LongitudeDegrees>
            </Position>
            <AltitudeMeters>644.5999755859375</AltitudeMeters>
            <DistanceMeters>NAN</DistanceMeters>
          </Trackpoint>
          <Trackpoint>
            <Time>2021-08-28T09:14:50.000Z</Time>
            <Position>
              <LatitudeDegrees>38.18279857747256755828857421875</LatitudeDegrees>
              <LongitudeDegrees>-1.89083104021847248077392578125</LongitudeDegrees>
            </Position>
            <AltitudeMeters>644.4000244140625</AltitudeMeters>
            <DistanceMeters>NAN</DistanceMeters>
          </Trackpoint>
          <Trackpoint>
            <Time>2021-08-28T09:14:51.000Z</Time>
            <Position>
              <LatitudeDegrees>38.18289815448224544525146484375</LatitudeDegrees>
              <LongitudeDegrees>-1.89086473546922206878662109375</LongitudeDegrees>
            </Position>
            <AltitudeMeters>644.4000244140625</AltitudeMeters>
            <DistanceMeters>NAN</DistanceMeters>
          </Trackpoint>
          <Trackpoint>
            <Time>2021-08-28T09:14:52.000Z</Time>
            <Position>
              <LatitudeDegrees>38.18299387581646442413330078125</LatitudeDegrees>
              <LongitudeDegrees>-1.8908787332475185394287109375</LongitudeDegrees>
            </Position>
            <AltitudeMeters>644.4000244140625</AltitudeMeters>
            <DistanceMeters>NAN</DistanceMeters>
          </Trackpoint>
          <Trackpoint>
            <Time>2021-08-28T09:14:54.000Z</Time>
            <Position>
              <LatitudeDegrees>38.18316386081278324127197265625</LatitudeDegrees>
              <LongitudeDegrees>-1.89087445847690105438232421875</LongitudeDegrees>
            </Position>
            <AltitudeMeters>644.4000244140625</AltitudeMeters>
            <DistanceMeters>NAN</DistanceMeters>
          </Trackpoint>
          <Trackpoint>
            <Time>2021-08-28T09:14:56.000Z</Time>
            <Position>
              <LatitudeDegrees>38.1833039224147796630859375</LatitudeDegrees>
              <LongitudeDegrees>-1.890854425728321075439453125</LongitudeDegrees>
            </Position>
            <AltitudeMeters>644.5999755859375</AltitudeMeters>
            <DistanceMeters>NAN</DistanceMeters>
          </Trackpoint>
        </Track>
      </Lap>
    </Activity>
  </Activities>
</TrainingCenterDatabase>
